<?xml version="1.0" encoding="UTF-8" standalone="no" ?>
<gpx xmlns="http://www.topografix.com/GPX/1/1" xmlns:xsi="http://www.w3.org/2001/XMLSchema-instance" xsi:schemaLocation="http://www.topografix.com/GPX/1/1 http://www.topografix.com/GPX/1/1/gpx.xsd" version="1.1" creator="VisuGPX - https://www.visugpx.com">
  <metadata>
    <name>Sederon</name>
    <desc><![CDATA[Départ de Laragne. Nous prenons la direction des gorges de la Méouge (faux plat montant), nous passons à Barret et faisons demi-tour à Séderon (de gros nuages noirs menaçaient). Le retour pour Laragne se fait avec un détour à Lachau par le col d'Araud (altitude 890 m).  ]]></desc>
  </metadata>
  <trk>
    <name><![CDATA[Sederon]]></name>
    <trkseg>
      <trkpt lat="44.31598" lon="5.8295">
        <ele>589</ele>
        <time>2019-05-24T10:55:56Z</time>
      </trkpt>
      <trkpt lat="44.31575" lon="5.8293">
        <ele>573</ele>
        <time>2019-05-24T10:56:29Z</time>
      </trkpt>
      <trkpt lat="44.31571" lon="5.82927">
        <ele>573</ele>
        <time>2019-05-24T10:56:30Z</time>
      </trkpt>
      <trkpt lat="44.31568" lon="5.82924">
        <ele>573</ele>
        <time>2019-05-24T10:56:31Z</time>
      </trkpt>
      <trkpt lat="44.31564" lon="5.82922">
        <ele>572</ele>
        <time>2019-05-24T10:56:32Z</time>
      </trkpt>
      <trkpt lat="44.31561" lon="5.82919">
        <ele>572</ele>
        <time>2019-05-24T10:56:33Z</time>
      </trkpt>
      <trkpt lat="44.31557" lon="5.82915">
        <ele>572</ele>
        <time>2019-05-24T10:56:34Z</time>
      </trkpt>
      <trkpt lat="44.31554" lon="5.82912">
        <ele>572</ele>
        <time>2019-05-24T10:56:35Z</time>
      </trkpt>
      <trkpt lat="44.3155" lon="5.8291">
        <ele>572</ele>
        <time>2019-05-24T10:56:36Z</time>
      </trkpt>
      <trkpt lat="44.31546" lon="5.82907">
        <ele>572</ele>
        <time>2019-05-24T10:56:37Z</time>
      </trkpt>
      <trkpt lat="44.31543" lon="5.82904">
        <ele>572</ele>
        <time>2019-05-24T10:56:38Z</time>
      </trkpt>
      <trkpt lat="44.31539" lon="5.829">
        <ele>572</ele>
        <time>2019-05-24T10:56:39Z</time>
      </trkpt>
      <trkpt lat="44.31535" lon="5.82897">
        <ele>572</ele>
        <time>2019-05-24T10:56:40Z</time>
      </trkpt>
      <trkpt lat="44.31532" lon="5.82893">
        <ele>572</ele>
        <time>2019-05-24T10:56:41Z</time>
      </trkpt>
      <trkpt lat="44.31528" lon="5.8289">
        <ele>572</ele>
        <time>2019-05-24T10:56:42Z</time>
      </trkpt>
      <trkpt lat="44.31525" lon="5.82886">
        <ele>572</ele>
        <time>2019-05-24T10:56:43Z</time>
      </trkpt>
      <trkpt lat="44.31521" lon="5.82883">
        <ele>572</ele>
        <time>2019-05-24T10:56:44Z</time>
      </trkpt>
      <trkpt lat="44.31517" lon="5.8288">
        <ele>572</ele>
        <time>2019-05-24T10:56:45Z</time>
      </trkpt>
      <trkpt lat="44.31514" lon="5.82877">
        <ele>572</ele>
        <time>2019-05-24T10:56:46Z</time>
      </trkpt>
      <trkpt lat="44.31511" lon="5.82875">
        <ele>572</ele>
        <time>2019-05-24T10:56:47Z</time>
      </trkpt>
      <trkpt lat="44.31508" lon="5.82872">
        <ele>572</ele>
        <time>2019-05-24T10:56:48Z</time>
      </trkpt>
      <trkpt lat="44.31505" lon="5.8287">
        <ele>572</ele>
        <time>2019-05-24T10:56:49Z</time>
      </trkpt>
      <trkpt lat="44.31501" lon="5.8287">
        <ele>572</ele>
        <time>2019-05-24T10:56:50Z</time>
      </trkpt>
      <trkpt lat="44.31497" lon="5.82872">
        <ele>572</ele>
        <time>2019-05-24T10:56:51Z</time>
      </trkpt>
      <trkpt lat="44.31493" lon="5.82876">
        <ele>572</ele>
        <time>2019-05-24T10:56:52Z</time>
      </trkpt>
      <trkpt lat="44.3149" lon="5.82881">
        <ele>572</ele>
        <time>2019-05-24T10:56:53Z</time>
      </trkpt>
      <trkpt lat="44.31488" lon="5.82886">
        <ele>572</ele>
        <time>2019-05-24T10:56:54Z</time>
      </trkpt>
      <trkpt lat="44.31486" lon="5.82891">
        <ele>572</ele>
        <time>2019-05-24T10:56:55Z</time>
      </trkpt>
      <trkpt lat="44.31483" lon="5.82895">
        <ele>572</ele>
        <time>2019-05-24T10:56:56Z</time>
      </trkpt>
      <trkpt lat="44.3148" lon="5.82899">
        <ele>572</ele>
        <time>2019-05-24T10:56:57Z</time>
      </trkpt>
      <trkpt lat="44.31476" lon="5.82903">
        <ele>572</ele>
        <time>2019-05-24T10:56:58Z</time>
      </trkpt>
      <trkpt lat="44.31475" lon="5.82907">
        <ele>571</ele>
        <time>2019-05-24T10:56:59Z</time>
      </trkpt>
      <trkpt lat="44.31472" lon="5.82911">
        <ele>571</ele>
        <time>2019-05-24T10:57:00Z</time>
      </trkpt>
      <trkpt lat="44.3147" lon="5.82916">
        <ele>571</ele>
        <time>2019-05-24T10:57:01Z</time>
      </trkpt>
      <trkpt lat="44.31467" lon="5.82921">
        <ele>571</ele>
        <time>2019-05-24T10:57:02Z</time>
      </trkpt>
      <trkpt lat="44.31464" lon="5.82925">
        <ele>571</ele>
        <time>2019-05-24T10:57:03Z</time>
      </trkpt>
      <trkpt lat="44.31461" lon="5.82929">
        <ele>571</ele>
        <time>2019-05-24T10:57:04Z</time>
      </trkpt>
      <trkpt lat="44.31458" lon="5.82935">
        <ele>571</ele>
        <time>2019-05-24T10:57:05Z</time>
      </trkpt>
      <trkpt lat="44.31454" lon="5.8294">
        <ele>571</ele>
        <time>2019-05-24T10:57:06Z</time>
      </trkpt>
      <trkpt lat="44.3145" lon="5.82946">
        <ele>571</ele>
        <time>2019-05-24T10:57:07Z</time>
      </trkpt>
      <trkpt lat="44.31446" lon="5.82952">
        <ele>571</ele>
        <time>2019-05-24T10:57:08Z</time>
      </trkpt>
      <trkpt lat="44.31442" lon="5.82958">
        <ele>571</ele>
        <time>2019-05-24T10:57:09Z</time>
      </trkpt>
      <trkpt lat="44.31438" lon="5.82963">
        <ele>571</ele>
        <time>2019-05-24T10:57:10Z</time>
      </trkpt>
      <trkpt lat="44.31434" lon="5.82968">
        <ele>571</ele>
        <time>2019-05-24T10:57:11Z</time>
      </trkpt>
      <trkpt lat="44.3143" lon="5.82973">
        <ele>571</ele>
        <time>2019-05-24T10:57:12Z</time>
      </trkpt>
      <trkpt lat="44.31427" lon="5.82978">
        <ele>571</ele>
        <time>2019-05-24T10:57:13Z</time>
      </trkpt>
      <trkpt lat="44.31423" lon="5.82983">
        <ele>571</ele>
        <time>2019-05-24T10:57:14Z</time>
      </trkpt>
      <trkpt lat="44.3142" lon="5.82988">
        <ele>571</ele>
        <time>2019-05-24T10:57:15Z</time>
      </trkpt>
      <trkpt lat="44.31416" lon="5.82993">
        <ele>571</ele>
        <time>2019-05-24T10:57:16Z</time>
      </trkpt>
      <trkpt lat="44.31413" lon="5.82998">
        <ele>571</ele>
        <time>2019-05-24T10:57:17Z</time>
      </trkpt>
      <trkpt lat="44.3141" lon="5.83003">
        <ele>571</ele>
        <time>2019-05-24T10:57:18Z</time>
      </trkpt>
      <trkpt lat="44.31407" lon="5.83008">
        <ele>571</ele>
        <time>2019-05-24T10:57:19Z</time>
      </trkpt>
      <trkpt lat="44.31404" lon="5.83013">
        <ele>571</ele>
        <time>2019-05-24T10:57:20Z</time>
      </trkpt>
      <trkpt lat="44.31401" lon="5.83018">
        <ele>571</ele>
        <time>2019-05-24T10:57:21Z</time>
      </trkpt>
      <trkpt lat="44.31398" lon="5.83022">
        <ele>571</ele>
        <time>2019-05-24T10:57:22Z</time>
      </trkpt>
      <trkpt lat="44.31394" lon="5.83027">
        <ele>571</ele>
        <time>2019-05-24T10:57:23Z</time>
      </trkpt>
      <trkpt lat="44.31392" lon="5.83031">
        <ele>571</ele>
        <time>2019-05-24T10:57:24Z</time>
      </trkpt>
      <trkpt lat="44.31389" lon="5.83035">
        <ele>571</ele>
        <time>2019-05-24T10:57:25Z</time>
      </trkpt>
      <trkpt lat="44.31386" lon="5.8304">
        <ele>571</ele>
        <time>2019-05-24T10:57:26Z</time>
      </trkpt>
      <trkpt lat="44.31384" lon="5.83044">
        <ele>571</ele>
        <time>2019-05-24T10:57:27Z</time>
      </trkpt>
      <trkpt lat="44.31381" lon="5.83048">
        <ele>571</ele>
        <time>2019-05-24T10:57:28Z</time>
      </trkpt>
      <trkpt lat="44.31379" lon="5.83052">
        <ele>571</ele>
        <time>2019-05-24T10:57:29Z</time>
      </trkpt>
      <trkpt lat="44.31377" lon="5.83055">
        <ele>571</ele>
        <time>2019-05-24T10:57:30Z</time>
      </trkpt>
      <trkpt lat="44.31375" lon="5.83059">
        <ele>571</ele>
        <time>2019-05-24T10:57:31Z</time>
      </trkpt>
      <trkpt lat="44.31374" lon="5.83064">
        <ele>571</ele>
        <time>2019-05-24T10:57:32Z</time>
      </trkpt>
      <trkpt lat="44.31372" lon="5.83068">
        <ele>571</ele>
        <time>2019-05-24T10:57:33Z</time>
      </trkpt>
      <trkpt lat="44.31372" lon="5.83072">
        <ele>571</ele>
        <time>2019-05-24T10:57:34Z</time>
      </trkpt>
      <trkpt lat="44.3137" lon="5.83077">
        <ele>571</ele>
        <time>2019-05-24T10:57:35Z</time>
      </trkpt>
      <trkpt lat="44.31367" lon="5.83083">
        <ele>571</ele>
        <time>2019-05-24T10:57:36Z</time>
      </trkpt>
      <trkpt lat="44.31366" lon="5.83088">
        <ele>571</ele>
        <time>2019-05-24T10:57:37Z</time>
      </trkpt>
      <trkpt lat="44.31364" lon="5.83093">
        <ele>571</ele>
        <time>2019-05-24T10:57:38Z</time>
      </trkpt>
      <trkpt lat="44.31361" lon="5.83097">
        <ele>571</ele>
        <time>2019-05-24T10:57:39Z</time>
      </trkpt>
      <trkpt lat="44.31358" lon="5.83101">
        <ele>571</ele>
        <time>2019-05-24T10:57:40Z</time>
      </trkpt>
      <trkpt lat="44.31355" lon="5.83103">
        <ele>571</ele>
        <time>2019-05-24T10:57:41Z</time>
      </trkpt>
      <trkpt lat="44.31352" lon="5.83102">
        <ele>571</ele>
        <time>2019-05-24T10:57:42Z</time>
      </trkpt>
      <trkpt lat="44.3135" lon="5.831">
        <ele>571</ele>
        <time>2019-05-24T10:57:43Z</time>
      </trkpt>
      <trkpt lat="44.31348" lon="5.83097">
        <ele>571</ele>
        <time>2019-05-24T10:57:44Z</time>
      </trkpt>
      <trkpt lat="44.31348" lon="5.83092">
        <ele>571</ele>
        <time>2019-05-24T10:57:45Z</time>
      </trkpt>
      <trkpt lat="44.31348" lon="5.83088">
        <ele>571</ele>
        <time>2019-05-24T10:57:46Z</time>
      </trkpt>
      <trkpt lat="44.31347" lon="5.83083">
        <ele>571</ele>
        <time>2019-05-24T10:57:47Z</time>
      </trkpt>
      <trkpt lat="44.31347" lon="5.83078">
        <ele>571</ele>
        <time>2019-05-24T10:57:48Z</time>
      </trkpt>
      <trkpt lat="44.31348" lon="5.83073">
        <ele>570</ele>
        <time>2019-05-24T10:57:49Z</time>
      </trkpt>
      <trkpt lat="44.31348" lon="5.83068">
        <ele>570</ele>
        <time>2019-05-24T10:57:50Z</time>
      </trkpt>
      <trkpt lat="44.31349" lon="5.83063">
        <ele>570</ele>
        <time>2019-05-24T10:57:51Z</time>
      </trkpt>
      <trkpt lat="44.31351" lon="5.83057">
        <ele>570</ele>
        <time>2019-05-24T10:57:52Z</time>
      </trkpt>
      <trkpt lat="44.31352" lon="5.83051">
        <ele>569</ele>
        <time>2019-05-24T10:57:53Z</time>
      </trkpt>
      <trkpt lat="44.31353" lon="5.83045">
        <ele>569</ele>
        <time>2019-05-24T10:57:54Z</time>
      </trkpt>
      <trkpt lat="44.31355" lon="5.83038">
        <ele>569</ele>
        <time>2019-05-24T10:57:55Z</time>
      </trkpt>
      <trkpt lat="44.31355" lon="5.83031">
        <ele>568</ele>
        <time>2019-05-24T10:57:56Z</time>
      </trkpt>
      <trkpt lat="44.31356" lon="5.83023">
        <ele>568</ele>
        <time>2019-05-24T10:57:57Z</time>
      </trkpt>
      <trkpt lat="44.31357" lon="5.83016">
        <ele>568</ele>
        <time>2019-05-24T10:57:58Z</time>
      </trkpt>
      <trkpt lat="44.31358" lon="5.83007">
        <ele>568</ele>
        <time>2019-05-24T10:57:59Z</time>
      </trkpt>
      <trkpt lat="44.31359" lon="5.82999">
        <ele>568</ele>
        <time>2019-05-24T10:58:00Z</time>
      </trkpt>
      <trkpt lat="44.3136" lon="5.82991">
        <ele>568</ele>
        <time>2019-05-24T10:58:01Z</time>
      </trkpt>
      <trkpt lat="44.31361" lon="5.82982">
        <ele>568</ele>
        <time>2019-05-24T10:58:02Z</time>
      </trkpt>
      <trkpt lat="44.31362" lon="5.82973">
        <ele>568</ele>
        <time>2019-05-24T10:58:03Z</time>
      </trkpt>
      <trkpt lat="44.31363" lon="5.82963">
        <ele>568</ele>
        <time>2019-05-24T10:58:04Z</time>
      </trkpt>
      <trkpt lat="44.31364" lon="5.82955">
        <ele>568</ele>
        <time>2019-05-24T10:58:05Z</time>
      </trkpt>
      <trkpt lat="44.31365" lon="5.82946">
        <ele>568</ele>
        <time>2019-05-24T10:58:06Z</time>
      </trkpt>
      <trkpt lat="44.31366" lon="5.82936">
        <ele>568</ele>
        <time>2019-05-24T10:58:07Z</time>
      </trkpt>
      <trkpt lat="44.31367" lon="5.82927">
        <ele>568</ele>
        <time>2019-05-24T10:58:08Z</time>
      </trkpt>
      <trkpt lat="44.31368" lon="5.82918">
        <ele>568</ele>
        <time>2019-05-24T10:58:09Z</time>
      </trkpt>
      <trkpt lat="44.31369" lon="5.82908">
        <ele>568</ele>
        <time>2019-05-24T10:58:10Z</time>
      </trkpt>
      <trkpt lat="44.3137" lon="5.82899">
        <ele>568</ele>
        <time>2019-05-24T10:58:11Z</time>
      </trkpt>
      <trkpt lat="44.31371" lon="5.82891">
        <ele>568</ele>
        <time>2019-05-24T10:58:12Z</time>
      </trkpt>
      <trkpt lat="44.31372" lon="5.82881">
        <ele>568</ele>
        <time>2019-05-24T10:58:13Z</time>
      </trkpt>
      <trkpt lat="44.31373" lon="5.82873">
        <ele>568</ele>
        <time>2019-05-24T10:58:14Z</time>
      </trkpt>
      <trkpt lat="44.31374" lon="5.82864">
        <ele>568</ele>
        <time>2019-05-24T10:58:15Z</time>
      </trkpt>
      <trkpt lat="44.31374" lon="5.82855">
        <ele>567</ele>
        <time>2019-05-24T10:58:16Z</time>
      </trkpt>
      <trkpt lat="44.31375" lon="5.82846">
        <ele>567</ele>
        <time>2019-05-24T10:58:17Z</time>
      </trkpt>
      <trkpt lat="44.31376" lon="5.82836">
        <ele>567</ele>
        <time>2019-05-24T10:58:18Z</time>
      </trkpt>
      <trkpt lat="44.31376" lon="5.82828">
        <ele>567</ele>
        <time>2019-05-24T10:58:19Z</time>
      </trkpt>
      <trkpt lat="44.31376" lon="5.82819">
        <ele>567</ele>
        <time>2019-05-24T10:58:20Z</time>
      </trkpt>
      <trkpt lat="44.31377" lon="5.8281">
        <ele>567</ele>
        <time>2019-05-24T10:58:21Z</time>
      </trkpt>
      <trkpt lat="44.31377" lon="5.828">
        <ele>567</ele>
        <time>2019-05-24T10:58:22Z</time>
      </trkpt>
      <trkpt lat="44.31378" lon="5.82792">
        <ele>567</ele>
        <time>2019-05-24T10:58:23Z</time>
      </trkpt>
      <trkpt lat="44.31378" lon="5.82783">
        <ele>567</ele>
        <time>2019-05-24T10:58:24Z</time>
      </trkpt>
      <trkpt lat="44.31378" lon="5.82773">
        <ele>567</ele>
        <time>2019-05-24T10:58:25Z</time>
      </trkpt>
      <trkpt lat="44.31378" lon="5.82765">
        <ele>567</ele>
        <time>2019-05-24T10:58:26Z</time>
      </trkpt>
      <trkpt lat="44.31378" lon="5.82757">
        <ele>567</ele>
        <time>2019-05-24T10:58:27Z</time>
      </trkpt>
      <trkpt lat="44.31377" lon="5.82749">
        <ele>567</ele>
        <time>2019-05-24T10:58:28Z</time>
      </trkpt>
      <trkpt lat="44.31377" lon="5.82741">
        <ele>567</ele>
        <time>2019-05-24T10:58:29Z</time>
      </trkpt>
      <trkpt lat="44.31377" lon="5.82733">
        <ele>566</ele>
        <time>2019-05-24T10:58:30Z</time>
      </trkpt>
      <trkpt lat="44.31376" lon="5.82726">
        <ele>566</ele>
        <time>2019-05-24T10:58:31Z</time>
      </trkpt>
      <trkpt lat="44.31376" lon="5.82719">
        <ele>565</ele>
        <time>2019-05-24T10:58:32Z</time>
      </trkpt>
      <trkpt lat="44.31375" lon="5.82713">
        <ele>565</ele>
        <time>2019-05-24T10:58:33Z</time>
      </trkpt>
      <trkpt lat="44.31374" lon="5.82707">
        <ele>565</ele>
        <time>2019-05-24T10:58:34Z</time>
      </trkpt>
      <trkpt lat="44.31374" lon="5.82701">
        <ele>564</ele>
        <time>2019-05-24T10:58:35Z</time>
      </trkpt>
      <trkpt lat="44.31374" lon="5.82698">
        <ele>564</ele>
        <time>2019-05-24T10:58:36Z</time>
      </trkpt>
      <trkpt lat="44.31375" lon="5.82694">
        <ele>564</ele>
        <time>2019-05-24T10:58:37Z</time>
      </trkpt>
      <trkpt lat="44.31374" lon="5.82691">
        <ele>564</ele>
        <time>2019-05-24T10:58:38Z</time>
      </trkpt>
      <trkpt lat="44.31374" lon="5.82688">
        <ele>564</ele>
        <time>2019-05-24T10:58:39Z</time>
      </trkpt>
      <trkpt lat="44.31371" lon="5.82684">
        <ele>564</ele>
        <time>2019-05-24T10:58:40Z</time>
      </trkpt>
      <trkpt lat="44.31368" lon="5.82683">
        <ele>564</ele>
        <time>2019-05-24T10:58:41Z</time>
      </trkpt>
      <trkpt lat="44.31364" lon="5.82681">
        <ele>564</ele>
        <time>2019-05-24T10:58:42Z</time>
      </trkpt>
      <trkpt lat="44.31359" lon="5.8268">
        <ele>564</ele>
        <time>2019-05-24T10:58:43Z</time>
      </trkpt>
      <trkpt lat="44.31354" lon="5.82678">
        <ele>564</ele>
        <time>2019-05-24T10:58:44Z</time>
      </trkpt>
      <trkpt lat="44.31349" lon="5.82676">
        <ele>564</ele>
        <time>2019-05-24T10:58:45Z</time>
      </trkpt>
      <trkpt lat="44.31345" lon="5.82674">
        <ele>564</ele>
        <time>2019-05-24T10:58:46Z</time>
      </trkpt>
      <trkpt lat="44.3134" lon="5.82672">
        <ele>564</ele>
        <time>2019-05-24T10:58:47Z</time>
      </trkpt>
      <trkpt lat="44.31335" lon="5.82669">
        <ele>564</ele>
        <time>2019-05-24T10:58:48Z</time>
      </trkpt>
      <trkpt lat="44.3133" lon="5.82666">
        <ele>564</ele>
        <time>2019-05-24T10:58:49Z</time>
      </trkpt>
      <trkpt lat="44.31325" lon="5.82663">
        <ele>564</ele>
        <time>2019-05-24T10:58:50Z</time>
      </trkpt>
      <trkpt lat="44.31319" lon="5.8266">
        <ele>564</ele>
        <time>2019-05-24T10:58:51Z</time>
      </trkpt>
      <trkpt lat="44.31313" lon="5.82656">
        <ele>564</ele>
        <time>2019-05-24T10:58:52Z</time>
      </trkpt>
      <trkpt lat="44.31307" lon="5.82653">
        <ele>564</ele>
        <time>2019-05-24T10:58:53Z</time>
      </trkpt>
      <trkpt lat="44.313" lon="5.82648">
        <ele>564</ele>
        <time>2019-05-24T10:58:54Z</time>
      </trkpt>
      <trkpt lat="44.31293" lon="5.82643">
        <ele>564</ele>
        <time>2019-05-24T10:58:55Z</time>
      </trkpt>
      <trkpt lat="44.31286" lon="5.82638">
        <ele>564</ele>
        <time>2019-05-24T10:58:56Z</time>
      </trkpt>
      <trkpt lat="44.31278" lon="5.82633">
        <ele>564</ele>
        <time>2019-05-24T10:58:57Z</time>
      </trkpt>
      <trkpt lat="44.31271" lon="5.82628">
        <ele>564</ele>
        <time>2019-05-24T10:58:58Z</time>
      </trkpt>
      <trkpt lat="44.31263" lon="5.82623">
        <ele>564</ele>
        <time>2019-05-24T10:58:59Z</time>
      </trkpt>
      <trkpt lat="44.31255" lon="5.82619">
        <ele>564</ele>
        <time>2019-05-24T10:59:00Z</time>
      </trkpt>
      <trkpt lat="44.31247" lon="5.82615">
        <ele>564</ele>
        <time>2019-05-24T10:59:01Z</time>
      </trkpt>
      <trkpt lat="44.31239" lon="5.8261">
        <ele>564</ele>
        <time>2019-05-24T10:59:02Z</time>
      </trkpt>
      <trkpt lat="44.31231" lon="5.82606">
        <ele>563</ele>
        <time>2019-05-24T10:59:03Z</time>
      </trkpt>
      <trkpt lat="44.31223" lon="5.82601">
        <ele>563</ele>
        <time>2019-05-24T10:59:04Z</time>
      </trkpt>
      <trkpt lat="44.31215" lon="5.82597">
        <ele>563</ele>
        <time>2019-05-24T10:59:05Z</time>
      </trkpt>
      <trkpt lat="44.31207" lon="5.82593">
        <ele>562</ele>
        <time>2019-05-24T10:59:06Z</time>
      </trkpt>
      <trkpt lat="44.31199" lon="5.82588">
        <ele>562</ele>
        <time>2019-05-24T10:59:07Z</time>
      </trkpt>
      <trkpt lat="44.31191" lon="5.82584">
        <ele>562</ele>
        <time>2019-05-24T10:59:08Z</time>
      </trkpt>
      <trkpt lat="44.31183" lon="5.82579">
        <ele>562</ele>
        <time>2019-05-24T10:59:09Z</time>
      </trkpt>
      <trkpt lat="44.31175" lon="5.82575">
        <ele>562</ele>
        <time>2019-05-24T10:59:10Z</time>
      </trkpt>
      <trkpt lat="44.31167" lon="5.82571">
        <ele>562</ele>
        <time>2019-05-24T10:59:11Z</time>
      </trkpt>
      <trkpt lat="44.3116" lon="5.82566">
        <ele>562</ele>
        <time>2019-05-24T10:59:12Z</time>
      </trkpt>
      <trkpt lat="44.31152" lon="5.82562">
        <ele>562</ele>
        <time>2019-05-24T10:59:13Z</time>
      </trkpt>
      <trkpt lat="44.31145" lon="5.82558">
        <ele>562</ele>
        <time>2019-05-24T10:59:14Z</time>
      </trkpt>
      <trkpt lat="44.31137" lon="5.82554">
        <ele>562</ele>
        <time>2019-05-24T10:59:15Z</time>
      </trkpt>
      <trkpt lat="44.31131" lon="5.8255">
        <ele>562</ele>
        <time>2019-05-24T10:59:16Z</time>
      </trkpt>
      <trkpt lat="44.31123" lon="5.82546">
        <ele>562</ele>
        <time>2019-05-24T10:59:17Z</time>
      </trkpt>
      <trkpt lat="44.31117" lon="5.82543">
        <ele>562</ele>
        <time>2019-05-24T10:59:18Z</time>
      </trkpt>
      <trkpt lat="44.3111" lon="5.82539">
        <ele>562</ele>
        <time>2019-05-24T10:59:19Z</time>
      </trkpt>
      <trkpt lat="44.31103" lon="5.82535">
        <ele>562</ele>
        <time>2019-05-24T10:59:20Z</time>
      </trkpt>
      <trkpt lat="44.31097" lon="5.82531">
        <ele>562</ele>
        <time>2019-05-24T10:59:21Z</time>
      </trkpt>
      <trkpt lat="44.31091" lon="5.82527">
        <ele>562</ele>
        <time>2019-05-24T10:59:22Z</time>
      </trkpt>
      <trkpt lat="44.31086" lon="5.82523">
        <ele>562</ele>
        <time>2019-05-24T10:59:23Z</time>
      </trkpt>
      <trkpt lat="44.31081" lon="5.82517">
        <ele>562</ele>
        <time>2019-05-24T10:59:24Z</time>
      </trkpt>
      <trkpt lat="44.31077" lon="5.82511">
        <ele>562</ele>
        <time>2019-05-24T10:59:25Z</time>
      </trkpt>
      <trkpt lat="44.31075" lon="5.82503">
        <ele>562</ele>
        <time>2019-05-24T10:59:26Z</time>
      </trkpt>
      <trkpt lat="44.31074" lon="5.82495">
        <ele>562</ele>
        <time>2019-05-24T10:59:27Z</time>
      </trkpt>
      <trkpt lat="44.31075" lon="5.82487">
        <ele>562</ele>
        <time>2019-05-24T10:59:28Z</time>
      </trkpt>
      <trkpt lat="44.31076" lon="5.8248">
        <ele>562</ele>
        <time>2019-05-24T10:59:29Z</time>
      </trkpt>
      <trkpt lat="44.31079" lon="5.82472">
        <ele>562</ele>
        <time>2019-05-24T10:59:30Z</time>
      </trkpt>
      <trkpt lat="44.31082" lon="5.82466">
        <ele>562</ele>
        <time>2019-05-24T10:59:31Z</time>
      </trkpt>
      <trkpt lat="44.31084" lon="5.82459">
        <ele>562</ele>
        <time>2019-05-24T10:59:32Z</time>
      </trkpt>
      <trkpt lat="44.31087" lon="5.82453">
        <ele>562</ele>
        <time>2019-05-24T10:59:33Z</time>
      </trkpt>
      <trkpt lat="44.3109" lon="5.82447">
        <ele>562</ele>
        <time>2019-05-24T10:59:34Z</time>
      </trkpt>
      <trkpt lat="44.31092" lon="5.82442">
        <ele>562</ele>
        <time>2019-05-24T10:59:35Z</time>
      </trkpt>
      <trkpt lat="44.31095" lon="5.82436">
        <ele>562</ele>
        <time>2019-05-24T10:59:36Z</time>
      </trkpt>
      <trkpt lat="44.31098" lon="5.8243">
        <ele>562</ele>
        <time>2019-05-24T10:59:37Z</time>
      </trkpt>
      <trkpt lat="44.31101" lon="5.82423">
        <ele>562</ele>
        <time>2019-05-24T10:59:38Z</time>
      </trkpt>
      <trkpt lat="44.31104" lon="5.82416">
        <ele>562</ele>
        <time>2019-05-24T10:59:39Z</time>
      </trkpt>
      <trkpt lat="44.31107" lon="5.82408">
        <ele>562</ele>
        <time>2019-05-24T10:59:40Z</time>
      </trkpt>
      <trkpt lat="44.31109" lon="5.82399">
        <ele>562</ele>
        <time>2019-05-24T10:59:41Z</time>
      </trkpt>
      <trkpt lat="44.3111" lon="5.8239">
        <ele>562</ele>
        <time>2019-05-24T10:59:42Z</time>
      </trkpt>
      <trkpt lat="44.31109" lon="5.8238">
        <ele>562</ele>
        <time>2019-05-24T10:59:43Z</time>
      </trkpt>
      <trkpt lat="44.3111" lon="5.82371">
        <ele>561</ele>
        <time>2019-05-24T10:59:44Z</time>
      </trkpt>
      <trkpt lat="44.31111" lon="5.82362">
        <ele>561</ele>
        <time>2019-05-24T10:59:45Z</time>
      </trkpt>
      <trkpt lat="44.31114" lon="5.82353">
        <ele>561</ele>
        <time>2019-05-24T10:59:46Z</time>
      </trkpt>
      <trkpt lat="44.31118" lon="5.82346">
        <ele>561</ele>
        <time>2019-05-24T10:59:47Z</time>
      </trkpt>
      <trkpt lat="44.31123" lon="5.82339">
        <ele>561</ele>
        <time>2019-05-24T10:59:48Z</time>
      </trkpt>
      <trkpt lat="44.31128" lon="5.82332">
        <ele>561</ele>
        <time>2019-05-24T10:59:49Z</time>
      </trkpt>
      <trkpt lat="44.31133" lon="5.82326">
        <ele>561</ele>
        <time>2019-05-24T10:59:50Z</time>
      </trkpt>
      <trkpt lat="44.31137" lon="5.82319">
        <ele>561</ele>
        <time>2019-05-24T10:59:51Z</time>
      </trkpt>
      <trkpt lat="44.31142" lon="5.82313">
        <ele>561</ele>
        <time>2019-05-24T10:59:52Z</time>
      </trkpt>
      <trkpt lat="44.31146" lon="5.82306">
        <ele>561</ele>
        <time>2019-05-24T10:59:53Z</time>
      </trkpt>
      <trkpt lat="44.31148" lon="5.82299">
        <ele>561</ele>
        <time>2019-05-24T10:59:54Z</time>
      </trkpt>
      <trkpt lat="44.31149" lon="5.82293">
        <ele>561</ele>
        <time>2019-05-24T10:59:55Z</time>
      </trkpt>
      <trkpt lat="44.3115" lon="5.82288">
        <ele>561</ele>
        <time>2019-05-24T10:59:56Z</time>
      </trkpt>
      <trkpt lat="44.3115" lon="5.82285">
        <ele>561</ele>
        <time>2019-05-24T10:59:57Z</time>
      </trkpt>
      <trkpt lat="44.3115" lon="5.82283">
        <ele>561</ele>
        <time>2019-05-24T10:59:58Z</time>
      </trkpt>
      <trkpt lat="44.3115" lon="5.82285">
        <ele>561</ele>
        <time>2019-05-24T11:00:14Z</time>
      </trkpt>
      <trkpt lat="44.3115" lon="5.82283">
        <ele>561</ele>
        <time>2019-05-24T11:00:26Z</time>
      </trkpt>
      <trkpt lat="44.31149" lon="5.82282">
        <ele>561</ele>
        <time>2019-05-24T11:00:40Z</time>
      </trkpt>
      <trkpt lat="44.31148" lon="5.82281">
        <ele>561</ele>
        <time>2019-05-24T11:00:44Z</time>
      </trkpt>
      <trkpt lat="44.31148" lon="5.82279">
        <ele>561</ele>
        <time>2019-05-24T11:00:49Z</time>
      </trkpt>
      <trkpt lat="44.31147" lon="5.82277">
        <ele>561</ele>
        <time>2019-05-24T11:00:51Z</time>
      </trkpt>
      <trkpt lat="44.31147" lon="5.82275">
        <ele>561</ele>
        <time>2019-05-24T11:00:52Z</time>
      </trkpt>
      <trkpt lat="44.31147" lon="5.82274">
        <ele>561</ele>
        <time>2019-05-24T11:00:53Z</time>
      </trkpt>
      <trkpt lat="44.31146" lon="5.82272">
        <ele>561</ele>
        <time>2019-05-24T11:00:54Z</time>
      </trkpt>
      <trkpt lat="44.31145" lon="5.8227">
        <ele>561</ele>
        <time>2019-05-24T11:00:55Z</time>
      </trkpt>
      <trkpt lat="44.31144" lon="5.82268">
        <ele>561</ele>
        <time>2019-05-24T11:00:56Z</time>
      </trkpt>
      <trkpt lat="44.31142" lon="5.82265">
        <ele>561</ele>
        <time>2019-05-24T11:00:57Z</time>
      </trkpt>
      <trkpt lat="44.3114" lon="5.82262">
        <ele>561</ele>
        <time>2019-05-24T11:00:58Z</time>
      </trkpt>
      <trkpt lat="44.31139" lon="5.82259">
        <ele>561</ele>
        <time>2019-05-24T11:00:59Z</time>
      </trkpt>
      <trkpt lat="44.31136" lon="5.82256">
        <ele>561</ele>
        <time>2019-05-24T11:01:00Z</time>
      </trkpt>
      <trkpt lat="44.31134" lon="5.82253">
        <ele>561</ele>
        <time>2019-05-24T11:01:01Z</time>
      </trkpt>
      <trkpt lat="44.31131" lon="5.8225">
        <ele>561</ele>
        <time>2019-05-24T11:01:02Z</time>
      </trkpt>
      <trkpt lat="44.31129" lon="5.82247">
        <ele>561</ele>
        <time>2019-05-24T11:01:03Z</time>
      </trkpt>
      <trkpt lat="44.31126" lon="5.82243">
        <ele>561</ele>
        <time>2019-05-24T11:01:04Z</time>
      </trkpt>
      <trkpt lat="44.31123" lon="5.82239">
        <ele>561</ele>
        <time>2019-05-24T11:01:05Z</time>
      </trkpt>
      <trkpt lat="44.3112" lon="5.82235">
        <ele>561</ele>
        <time>2019-05-24T11:01:06Z</time>
      </trkpt>
      <trkpt lat="44.31117" lon="5.82231">
        <ele>561</ele>
        <time>2019-05-24T11:01:07Z</time>
      </trkpt>
      <trkpt lat="44.31113" lon="5.82228">
        <ele>561</ele>
        <time>2019-05-24T11:01:08Z</time>
      </trkpt>
      <trkpt lat="44.3111" lon="5.82223">
        <ele>561</ele>
        <time>2019-05-24T11:01:09Z</time>
      </trkpt>
      <trkpt lat="44.31107" lon="5.82219">
        <ele>561</ele>
        <time>2019-05-24T11:01:10Z</time>
      </trkpt>
      <trkpt lat="44.31104" lon="5.82215">
        <ele>561</ele>
        <time>2019-05-24T11:01:11Z</time>
      </trkpt>
      <trkpt lat="44.311" lon="5.8221">
        <ele>561</ele>
        <time>2019-05-24T11:01:12Z</time>
      </trkpt>
      <trkpt lat="44.31096" lon="5.82205">
        <ele>561</ele>
        <time>2019-05-24T11:01:13Z</time>
      </trkpt>
      <trkpt lat="44.31093" lon="5.822">
        <ele>561</ele>
        <time>2019-05-24T11:01:14Z</time>
      </trkpt>
      <trkpt lat="44.31089" lon="5.82195">
        <ele>561</ele>
        <time>2019-05-24T11:01:15Z</time>
      </trkpt>
      <trkpt lat="44.31085" lon="5.82191">
        <ele>561</ele>
        <time>2019-05-24T11:01:16Z</time>
      </trkpt>
      <trkpt lat="44.31081" lon="5.82186">
        <ele>561</ele>
        <time>2019-05-24T11:01:17Z</time>
      </trkpt>
      <trkpt lat="44.31076" lon="5.82182">
        <ele>561</ele>
        <time>2019-05-24T11:01:18Z</time>
      </trkpt>
      <trkpt lat="44.31072" lon="5.82178">
        <ele>561</ele>
        <time>2019-05-24T11:01:19Z</time>
      </trkpt>
      <trkpt lat="44.31067" lon="5.82173">
        <ele>561</ele>
        <time>2019-05-24T11:01:20Z</time>
      </trkpt>
      <trkpt lat="44.31063" lon="5.82168">
        <ele>561</ele>
        <time>2019-05-24T11:01:21Z</time>
      </trkpt>
      <trkpt lat="44.31059" lon="5.82163">
        <ele>561</ele>
        <time>2019-05-24T11:01:22Z</time>
      </trkpt>
      <trkpt lat="44.31055" lon="5.82158">
        <ele>561</ele>
        <time>2019-05-24T11:01:23Z</time>
      </trkpt>
      <trkpt lat="44.31052" lon="5.82152">
        <ele>560</ele>
        <time>2019-05-24T11:01:24Z</time>
      </trkpt>
      <trkpt lat="44.31047" lon="5.82147">
        <ele>560</ele>
        <time>2019-05-24T11:01:25Z</time>
      </trkpt>
      <trkpt lat="44.31044" lon="5.82142">
        <ele>560</ele>
        <time>2019-05-24T11:01:26Z</time>
      </trkpt>
      <trkpt lat="44.31039" lon="5.82136">
        <ele>560</ele>
        <time>2019-05-24T11:01:27Z</time>
      </trkpt>
      <trkpt lat="44.31035" lon="5.8213">
        <ele>560</ele>
        <time>2019-05-24T11:01:28Z</time>
      </trkpt>
      <trkpt lat="44.31031" lon="5.82125">
        <ele>560</ele>
        <time>2019-05-24T11:01:29Z</time>
      </trkpt>
      <trkpt lat="44.31027" lon="5.82119">
        <ele>559</ele>
        <time>2019-05-24T11:01:30Z</time>
      </trkpt>
      <trkpt lat="44.31023" lon="5.82113">
        <ele>559</ele>
        <time>2019-05-24T11:01:31Z</time>
      </trkpt>
      <trkpt lat="44.31019" lon="5.82107">
        <ele>559</ele>
        <time>2019-05-24T11:01:32Z</time>
      </trkpt>
      <trkpt lat="44.31015" lon="5.82101">
        <ele>559</ele>
        <time>2019-05-24T11:01:33Z</time>
      </trkpt>
      <trkpt lat="44.3101" lon="5.82096">
        <ele>559</ele>
        <time>2019-05-24T11:01:34Z</time>
      </trkpt>
      <trkpt lat="44.31006" lon="5.82091">
        <ele>559</ele>
        <time>2019-05-24T11:01:35Z</time>
      </trkpt>
      <trkpt lat="44.31002" lon="5.82086">
        <ele>559</ele>
        <time>2019-05-24T11:01:36Z</time>
      </trkpt>
      <trkpt lat="44.30997" lon="5.82081">
        <ele>559</ele>
        <time>2019-05-24T11:01:37Z</time>
      </trkpt>
      <trkpt lat="44.30993" lon="5.82076">
        <ele>559</ele>
        <time>2019-05-24T11:01:38Z</time>
      </trkpt>
      <trkpt lat="44.30988" lon="5.82072">
        <ele>559</ele>
        <time>2019-05-24T11:01:39Z</time>
      </trkpt>
      <trkpt lat="44.30984" lon="5.82067">
        <ele>559</ele>
        <time>2019-05-24T11:01:40Z</time>
      </trkpt>
      <trkpt lat="44.30979" lon="5.82064">
        <ele>559</ele>
        <time>2019-05-24T11:01:41Z</time>
      </trkpt>
      <trkpt lat="44.30975" lon="5.8206">
        <ele>559</ele>
        <time>2019-05-24T11:01:42Z</time>
      </trkpt>
      <trkpt lat="44.3097" lon="5.82056">
        <ele>559</ele>
        <time>2019-05-24T11:01:43Z</time>
      </trkpt>
      <trkpt lat="44.30965" lon="5.82053">
        <ele>559</ele>
        <time>2019-05-24T11:01:44Z</time>
      </trkpt>
      <trkpt lat="44.30961" lon="5.8205">
        <ele>559</ele>
        <time>2019-05-24T11:01:45Z</time>
      </trkpt>
      <trkpt lat="44.30956" lon="5.82047">
        <ele>559</ele>
        <time>2019-05-24T11:01:46Z</time>
      </trkpt>
      <trkpt lat="44.30951" lon="5.82044">
        <ele>559</ele>
        <time>2019-05-24T11:01:47Z</time>
      </trkpt>
      <trkpt lat="44.30946" lon="5.82042">
        <ele>559</ele>
        <time>2019-05-24T11:01:48Z</time>
      </trkpt>
      <trkpt lat="44.30941" lon="5.8204">
        <ele>559</ele>
        <time>2019-05-24T11:01:49Z</time>
      </trkpt>
      <trkpt lat="44.30936" lon="5.82039">
        <ele>559</ele>
        <time>2019-05-24T11:01:50Z</time>
      </trkpt>
      <trkpt lat="44.30931" lon="5.82037">
        <ele>559</ele>
        <time>2019-05-24T11:01:51Z</time>
      </trkpt>
      <trkpt lat="44.30926" lon="5.82037">
        <ele>559</ele>
        <time>2019-05-24T11:01:52Z</time>
      </trkpt>
      <trkpt lat="44.30921" lon="5.82037">
        <ele>559</ele>
        <time>2019-05-24T11:01:53Z</time>
      </trkpt>
      <trkpt lat="44.30917" lon="5.82037">
        <ele>558</ele>
        <time>2019-05-24T11:01:54Z</time>
      </trkpt>
      <trkpt lat="44.30912" lon="5.82037">
        <ele>558</ele>
        <time>2019-05-24T11:01:55Z</time>
      </trkpt>
      <trkpt lat="44.30908" lon="5.82038">
        <ele>558</ele>
        <time>2019-05-24T11:01:56Z</time>
      </trkpt>
      <trkpt lat="44.30903" lon="5.82039">
        <ele>558</ele>
        <time>2019-05-24T11:01:57Z</time>
      </trkpt>
      <trkpt lat="44.30899" lon="5.8204">
        <ele>558</ele>
        <time>2019-05-24T11:01:58Z</time>
      </trkpt>
      <trkpt lat="44.30894" lon="5.82041">
        <ele>558</ele>
        <time>2019-05-24T11:01:59Z</time>
      </trkpt>
      <trkpt lat="44.3089" lon="5.82043">
        <ele>558</ele>
        <time>2019-05-24T11:02:00Z</time>
      </trkpt>
      <trkpt lat="44.30886" lon="5.82045">
        <ele>558</ele>
        <time>2019-05-24T11:02:01Z</time>
      </trkpt>
      <trkpt lat="44.30881" lon="5.82047">
        <ele>558</ele>
        <time>2019-05-24T11:02:02Z</time>
      </trkpt>
      <trkpt lat="44.30877" lon="5.82049">
        <ele>558</ele>
        <time>2019-05-24T11:02:03Z</time>
      </trkpt>
      <trkpt lat="44.30872" lon="5.8205">
        <ele>558</ele>
        <time>2019-05-24T11:02:04Z</time>
      </trkpt>
      <trkpt lat="44.30868" lon="5.82052">
        <ele>558</ele>
        <time>2019-05-24T11:02:05Z</time>
      </trkpt>
      <trkpt lat="44.30864" lon="5.82054">
        <ele>558</ele>
        <time>2019-05-24T11:02:06Z</time>
      </trkpt>
      <trkpt lat="44.30859" lon="5.82055">
        <ele>558</ele>
        <time>2019-05-24T11:02:07Z</time>
      </trkpt>
      <trkpt lat="44.30855" lon="5.82057">
        <ele>558</ele>
        <time>2019-05-24T11:02:08Z</time>
      </trkpt>
      <trkpt lat="44.3085" lon="5.82058">
        <ele>558</ele>
        <time>2019-05-24T11:02:09Z</time>
      </trkpt>
      <trkpt lat="44.30846" lon="5.82059">
        <ele>558</ele>
        <time>2019-05-24T11:02:10Z</time>
      </trkpt>
      <trkpt lat="44.30841" lon="5.8206">
        <ele>558</ele>
        <time>2019-05-24T11:02:11Z</time>
      </trkpt>
      <trkpt lat="44.30836" lon="5.82061">
        <ele>558</ele>
        <time>2019-05-24T11:02:12Z</time>
      </trkpt>
      <trkpt lat="44.30831" lon="5.82063">
        <ele>558</ele>
        <time>2019-05-24T11:02:13Z</time>
      </trkpt>
      <trkpt lat="44.30826" lon="5.82064">
        <ele>558</ele>
        <time>2019-05-24T11:02:14Z</time>
      </trkpt>
      <trkpt lat="44.30821" lon="5.82065">
        <ele>558</ele>
        <time>2019-05-24T11:02:15Z</time>
      </trkpt>
      <trkpt lat="44.30816" lon="5.82066">
        <ele>558</ele>
        <time>2019-05-24T11:02:16Z</time>
      </trkpt>
      <trkpt lat="44.30811" lon="5.82068">
        <ele>558</ele>
        <time>2019-05-24T11:02:17Z</time>
      </trkpt>
      <trkpt lat="44.30806" lon="5.82069">
        <ele>558</ele>
        <time>2019-05-24T11:02:18Z</time>
      </trkpt>
      <trkpt lat="44.30801" lon="5.8207">
        <ele>558</ele>
        <time>2019-05-24T11:02:19Z</time>
      </trkpt>
      <trkpt lat="44.30796" lon="5.82071">
        <ele>558</ele>
        <time>2019-05-24T11:02:20Z</time>
      </trkpt>
      <trkpt lat="44.30791" lon="5.82073">
        <ele>558</ele>
        <time>2019-05-24T11:02:21Z</time>
      </trkpt>
      <trkpt lat="44.30785" lon="5.82075">
        <ele>558</ele>
        <time>2019-05-24T11:02:22Z</time>
      </trkpt>
      <trkpt lat="44.3078" lon="5.82077">
        <ele>558</ele>
        <time>2019-05-24T11:02:23Z</time>
      </trkpt>
      <trkpt lat="44.30775" lon="5.82079">
        <ele>558</ele>
        <time>2019-05-24T11:02:24Z</time>
      </trkpt>
      <trkpt lat="44.30771" lon="5.82082">
        <ele>558</ele>
        <time>2019-05-24T11:02:25Z</time>
      </trkpt>
      <trkpt lat="44.30766" lon="5.82085">
        <ele>558</ele>
        <time>2019-05-24T11:02:26Z</time>
      </trkpt>
      <trkpt lat="44.30762" lon="5.82089">
        <ele>558</ele>
        <time>2019-05-24T11:02:27Z</time>
      </trkpt>
      <trkpt lat="44.30758" lon="5.82093">
        <ele>558</ele>
        <time>2019-05-24T11:02:28Z</time>
      </trkpt>
      <trkpt lat="44.30754" lon="5.82097">
        <ele>558</ele>
        <time>2019-05-24T11:02:29Z</time>
      </trkpt>
      <trkpt lat="44.3075" lon="5.82102">
        <ele>558</ele>
        <time>2019-05-24T11:02:30Z</time>
      </trkpt>
      <trkpt lat="44.30746" lon="5.82107">
        <ele>558</ele>
        <time>2019-05-24T11:02:31Z</time>
      </trkpt>
      <trkpt lat="44.30744" lon="5.82113">
        <ele>558</ele>
        <time>2019-05-24T11:02:32Z</time>
      </trkpt>
      <trkpt lat="44.30741" lon="5.82119">
        <ele>558</ele>
        <time>2019-05-24T11:02:33Z</time>
      </trkpt>
      <trkpt lat="44.30738" lon="5.82125">
        <ele>558</ele>
        <time>2019-05-24T11:02:34Z</time>
      </trkpt>
      <trkpt lat="44.30735" lon="5.82131">
        <ele>558</ele>
        <time>2019-05-24T11:02:35Z</time>
      </trkpt>
      <trkpt lat="44.30733" lon="5.82138">
        <ele>558</ele>
        <time>2019-05-24T11:02:36Z</time>
      </trkpt>
      <trkpt lat="44.3073" lon="5.82144">
        <ele>558</ele>
        <time>2019-05-24T11:02:37Z</time>
      </trkpt>
      <trkpt lat="44.30728" lon="5.82151">
        <ele>558</ele>
        <time>2019-05-24T11:02:38Z</time>
      </trkpt>
      <trkpt lat="44.30726" lon="5.82157">
        <ele>558</ele>
        <time>2019-05-24T11:02:39Z</time>
      </trkpt>
      <trkpt lat="44.30724" lon="5.82163">
        <ele>558</ele>
        <time>2019-05-24T11:02:40Z</time>
      </trkpt>
      <trkpt lat="44.30722" lon="5.82169">
        <ele>558</ele>
        <time>2019-05-24T11:02:41Z</time>
      </trkpt>
      <trkpt lat="44.30719" lon="5.82175">
        <ele>558</ele>
        <time>2019-05-24T11:02:42Z</time>
      </trkpt>
      <trkpt lat="44.30716" lon="5.82181">
        <ele>558</ele>
        <time>2019-05-24T11:02:43Z</time>
      </trkpt>
      <trkpt lat="44.30714" lon="5.82187">
        <ele>558</ele>
        <time>2019-05-24T11:02:44Z</time>
      </trkpt>
      <trkpt lat="44.30711" lon="5.82193">
        <ele>558</ele>
        <time>2019-05-24T11:02:45Z</time>
      </trkpt>
      <trkpt lat="44.30708" lon="5.82199">
        <ele>558</ele>
        <time>2019-05-24T11:02:46Z</time>
      </trkpt>
      <trkpt lat="44.30706" lon="5.82205">
        <ele>558</ele>
        <time>2019-05-24T11:02:47Z</time>
      </trkpt>
      <trkpt lat="44.30703" lon="5.8221">
        <ele>558</ele>
        <time>2019-05-24T11:02:48Z</time>
      </trkpt>
      <trkpt lat="44.307" lon="5.82216">
        <ele>558</ele>
        <time>2019-05-24T11:02:49Z</time>
      </trkpt>
      <trkpt lat="44.30696" lon="5.82222">
        <ele>558</ele>
        <time>2019-05-24T11:02:50Z</time>
      </trkpt>
      <trkpt lat="44.30693" lon="5.82227">
        <ele>558</ele>
        <time>2019-05-24T11:02:51Z</time>
      </trkpt>
      <trkpt lat="44.3069" lon="5.82232">
        <ele>558</ele>
        <time>2019-05-24T11:02:52Z</time>
      </trkpt>
      <trkpt lat="44.30687" lon="5.82237">
        <ele>558</ele>
        <time>2019-05-24T11:02:53Z</time>
      </trkpt>
      <trkpt lat="44.30683" lon="5.82242">
        <ele>558</ele>
        <time>2019-05-24T11:02:54Z</time>
      </trkpt>
      <trkpt lat="44.30679" lon="5.82247">
        <ele>558</ele>
        <time>2019-05-24T11:02:55Z</time>
      </trkpt>
      <trkpt lat="44.30676" lon="5.82252">
        <ele>558</ele>
        <time>2019-05-24T11:02:56Z</time>
      </trkpt>
      <trkpt lat="44.30672" lon="5.82257">
        <ele>558</ele>
        <time>2019-05-24T11:02:57Z</time>
      </trkpt>
      <trkpt lat="44.30668" lon="5.82261">
        <ele>558</ele>
        <time>2019-05-24T11:02:58Z</time>
      </trkpt>
      <trkpt lat="44.30664" lon="5.82266">
        <ele>558</ele>
        <time>2019-05-24T11:02:59Z</time>
      </trkpt>
      <trkpt lat="44.30659" lon="5.8227">
        <ele>558</ele>
        <time>2019-05-24T11:03:00Z</time>
      </trkpt>
      <trkpt lat="44.30654" lon="5.82274">
        <ele>558</ele>
        <time>2019-05-24T11:03:01Z</time>
      </trkpt>
      <trkpt lat="44.3065" lon="5.82277">
        <ele>558</ele>
        <time>2019-05-24T11:03:02Z</time>
      </trkpt>
      <trkpt lat="44.30645" lon="5.82281">
        <ele>558</ele>
        <time>2019-05-24T11:03:03Z</time>
      </trkpt>
      <trkpt lat="44.3064" lon="5.82285">
        <ele>558</ele>
        <time>2019-05-24T11:03:04Z</time>
      </trkpt>
      <trkpt lat="44.30635" lon="5.82288">
        <ele>558</ele>
        <time>2019-05-24T11:03:05Z</time>
      </trkpt>
      <trkpt lat="44.3063" lon="5.82291">
        <ele>558</ele>
        <time>2019-05-24T11:03:06Z</time>
      </trkpt>
      <trkpt lat="44.30625" lon="5.82294">
        <ele>558</ele>
        <time>2019-05-24T11:03:07Z</time>
      </trkpt>
      <trkpt lat="44.3062" lon="5.82297">
        <ele>558</ele>
        <time>2019-05-24T11:03:08Z</time>
      </trkpt>
      <trkpt lat="44.30615" lon="5.82299">
        <ele>558</ele>
        <time>2019-05-24T11:03:09Z</time>
      </trkpt>
      <trkpt lat="44.30609" lon="5.82301">
        <ele>558</ele>
        <time>2019-05-24T11:03:10Z</time>
      </trkpt>
      <trkpt lat="44.30603" lon="5.82303">
        <ele>558</ele>
        <time>2019-05-24T11:03:11Z</time>
      </trkpt>
      <trkpt lat="44.30597" lon="5.82304">
        <ele>558</ele>
        <time>2019-05-24T11:03:12Z</time>
      </trkpt>
      <trkpt lat="44.30591" lon="5.82306">
        <ele>558</ele>
        <time>2019-05-24T11:03:13Z</time>
      </trkpt>
      <trkpt lat="44.30585" lon="5.82307">
        <ele>558</ele>
        <time>2019-05-24T11:03:14Z</time>
      </trkpt>
      <trkpt lat="44.3058" lon="5.82308">
        <ele>558</ele>
        <time>2019-05-24T11:03:15Z</time>
      </trkpt>
      <trkpt lat="44.30574" lon="5.82309">
        <ele>558</ele>
        <time>2019-05-24T11:03:16Z</time>
      </trkpt>
      <trkpt lat="44.30568" lon="5.8231">
        <ele>558</ele>
        <time>2019-05-24T11:03:17Z</time>
      </trkpt>
      <trkpt lat="44.30562" lon="5.82311">
        <ele>558</ele>
        <time>2019-05-24T11:03:18Z</time>
      </trkpt>
      <trkpt lat="44.30556" lon="5.82312">
        <ele>558</ele>
        <time>2019-05-24T11:03:19Z</time>
      </trkpt>
      <trkpt lat="44.3055" lon="5.82313">
        <ele>558</ele>
        <time>2019-05-24T11:03:20Z</time>
      </trkpt>
      <trkpt lat="44.30545" lon="5.82314">
        <ele>558</ele>
        <time>2019-05-24T11:03:21Z</time>
      </trkpt>
      <trkpt lat="44.30539" lon="5.82315">
        <ele>558</ele>
        <time>2019-05-24T11:03:22Z</time>
      </trkpt>
      <trkpt lat="44.30534" lon="5.82316">
        <ele>558</ele>
        <time>2019-05-24T11:03:23Z</time>
      </trkpt>
      <trkpt lat="44.30528" lon="5.82317">
        <ele>558</ele>
        <time>2019-05-24T11:03:24Z</time>
      </trkpt>
      <trkpt lat="44.30523" lon="5.82318">
        <ele>558</ele>
        <time>2019-05-24T11:03:25Z</time>
      </trkpt>
      <trkpt lat="44.30517" lon="5.82318">
        <ele>558</ele>
        <time>2019-05-24T11:03:26Z</time>
      </trkpt>
      <trkpt lat="44.30511" lon="5.82319">
        <ele>558</ele>
        <time>2019-05-24T11:03:27Z</time>
      </trkpt>
      <trkpt lat="44.30506" lon="5.82319">
        <ele>558</ele>
        <time>2019-05-24T11:03:28Z</time>
      </trkpt>
      <trkpt lat="44.305" lon="5.82319">
        <ele>558</ele>
        <time>2019-05-24T11:03:29Z</time>
      </trkpt>
      <trkpt lat="44.30495" lon="5.8232">
        <ele>558</ele>
        <time>2019-05-24T11:03:30Z</time>
      </trkpt>
      <trkpt lat="44.30489" lon="5.8232">
        <ele>558</ele>
        <time>2019-05-24T11:03:31Z</time>
      </trkpt>
      <trkpt lat="44.30484" lon="5.8232">
        <ele>558</ele>
        <time>2019-05-24T11:03:32Z</time>
      </trkpt>
      <trkpt lat="44.30478" lon="5.8232">
        <ele>558</ele>
        <time>2019-05-24T11:03:33Z</time>
      </trkpt>
      <trkpt lat="44.30473" lon="5.8232">
        <ele>558</ele>
        <time>2019-05-24T11:03:34Z</time>
      </trkpt>
      <trkpt lat="44.30467" lon="5.8232">
        <ele>558</ele>
        <time>2019-05-24T11:03:35Z</time>
      </trkpt>
      <trkpt lat="44.30461" lon="5.8232">
        <ele>558</ele>
        <time>2019-05-24T11:03:36Z</time>
      </trkpt>
      <trkpt lat="44.30455" lon="5.8232">
        <ele>558</ele>
        <time>2019-05-24T11:03:37Z</time>
      </trkpt>
      <trkpt lat="44.3045" lon="5.8232">
        <ele>558</ele>
        <time>2019-05-24T11:03:38Z</time>
      </trkpt>
      <trkpt lat="44.30444" lon="5.8232">
        <ele>558</ele>
        <time>2019-05-24T11:03:39Z</time>
      </trkpt>
      <trkpt lat="44.30438" lon="5.8232">
        <ele>558</ele>
        <time>2019-05-24T11:03:40Z</time>
      </trkpt>
      <trkpt lat="44.30433" lon="5.82321">
        <ele>558</ele>
        <time>2019-05-24T11:03:41Z</time>
      </trkpt>
      <trkpt lat="44.30427" lon="5.82321">
        <ele>558</ele>
        <time>2019-05-24T11:03:42Z</time>
      </trkpt>
      <trkpt lat="44.30421" lon="5.82321">
        <ele>558</ele>
        <time>2019-05-24T11:03:43Z</time>
      </trkpt>
      <trkpt lat="44.30415" lon="5.82322">
        <ele>558</ele>
        <time>2019-05-24T11:03:44Z</time>
      </trkpt>
      <trkpt lat="44.3041" lon="5.82322">
        <ele>558</ele>
        <time>2019-05-24T11:03:45Z</time>
      </trkpt>
      <trkpt lat="44.30405" lon="5.82322">
        <ele>558</ele>
        <time>2019-05-24T11:03:46Z</time>
      </trkpt>
      <trkpt lat="44.30399" lon="5.82323">
        <ele>558</ele>
        <time>2019-05-24T11:03:47Z</time>
      </trkpt>
      <trkpt lat="44.30394" lon="5.82324">
        <ele>558</ele>
        <time>2019-05-24T11:03:48Z</time>
      </trkpt>
      <trkpt lat="44.30388" lon="5.82324">
        <ele>558</ele>
        <time>2019-05-24T11:03:49Z</time>
      </trkpt>
      <trkpt lat="44.30382" lon="5.82325">
        <ele>558</ele>
        <time>2019-05-24T11:03:50Z</time>
      </trkpt>
      <trkpt lat="44.30377" lon="5.82326">
        <ele>558</ele>
        <time>2019-05-24T11:03:51Z</time>
      </trkpt>
      <trkpt lat="44.30371" lon="5.82327">
        <ele>558</ele>
        <time>2019-05-24T11:03:52Z</time>
      </trkpt>
      <trkpt lat="44.30366" lon="5.82328">
        <ele>558</ele>
        <time>2019-05-24T11:03:53Z</time>
      </trkpt>
      <trkpt lat="44.3036" lon="5.82328">
        <ele>558</ele>
        <time>2019-05-24T11:03:54Z</time>
      </trkpt>
      <trkpt lat="44.30355" lon="5.82329">
        <ele>558</ele>
        <time>2019-05-24T11:03:55Z</time>
      </trkpt>
      <trkpt lat="44.30349" lon="5.8233">
        <ele>558</ele>
        <time>2019-05-24T11:03:56Z</time>
      </trkpt>
      <trkpt lat="44.30344" lon="5.82331">
        <ele>558</ele>
        <time>2019-05-24T11:03:57Z</time>
      </trkpt>
      <trkpt lat="44.30338" lon="5.82332">
        <ele>558</ele>
        <time>2019-05-24T11:03:58Z</time>
      </trkpt>
      <trkpt lat="44.30333" lon="5.82334">
        <ele>558</ele>
        <time>2019-05-24T11:03:59Z</time>
      </trkpt>
      <trkpt lat="44.30327" lon="5.82335">
        <ele>558</ele>
        <time>2019-05-24T11:04:00Z</time>
      </trkpt>
      <trkpt lat="44.30321" lon="5.82336">
        <ele>558</ele>
        <time>2019-05-24T11:04:01Z</time>
      </trkpt>
      <trkpt lat="44.30316" lon="5.82338">
        <ele>558</ele>
        <time>2019-05-24T11:04:02Z</time>
      </trkpt>
      <trkpt lat="44.3031" lon="5.82339">
        <ele>558</ele>
        <time>2019-05-24T11:04:03Z</time>
      </trkpt>
      <trkpt lat="44.30305" lon="5.8234">
        <ele>558</ele>
        <time>2019-05-24T11:04:04Z</time>
      </trkpt>
      <trkpt lat="44.30299" lon="5.82341">
        <ele>558</ele>
        <time>2019-05-24T11:04:05Z</time>
      </trkpt>
      <trkpt lat="44.30294" lon="5.82342">
        <ele>558</ele>
        <time>2019-05-24T11:04:06Z</time>
      </trkpt>
      <trkpt lat="44.30288" lon="5.82343">
        <ele>558</ele>
        <time>2019-05-24T11:04:07Z</time>
      </trkpt>
      <trkpt lat="44.30283" lon="5.82344">
        <ele>559</ele>
        <time>2019-05-24T11:04:08Z</time>
      </trkpt>
      <trkpt lat="44.30277" lon="5.82345">
        <ele>559</ele>
        <time>2019-05-24T11:04:09Z</time>
      </trkpt>
      <trkpt lat="44.30271" lon="5.82346">
        <ele>559</ele>
        <time>2019-05-24T11:04:10Z</time>
      </trkpt>
      <trkpt lat="44.30266" lon="5.82348">
        <ele>559</ele>
        <time>2019-05-24T11:04:11Z</time>
      </trkpt>
      <trkpt lat="44.3026" lon="5.82349">
        <ele>559</ele>
        <time>2019-05-24T11:04:12Z</time>
      </trkpt>
      <trkpt lat="44.30254" lon="5.8235">
        <ele>559</ele>
        <time>2019-05-24T11:04:13Z</time>
      </trkpt>
      <trkpt lat="44.30248" lon="5.8235">
        <ele>559</ele>
        <time>2019-05-24T11:04:14Z</time>
      </trkpt>
      <trkpt lat="44.30242" lon="5.82351">
        <ele>559</ele>
        <time>2019-05-24T11:04:15Z</time>
      </trkpt>
      <trkpt lat="44.30236" lon="5.82352">
        <ele>559</ele>
        <time>2019-05-24T11:04:16Z</time>
      </trkpt>
      <trkpt lat="44.3023" lon="5.82353">
        <ele>559</ele>
        <time>2019-05-24T11:04:17Z</time>
      </trkpt>
      <trkpt lat="44.30224" lon="5.82353">
        <ele>560</ele>
        <time>2019-05-24T11:04:18Z</time>
      </trkpt>
      <trkpt lat="44.30218" lon="5.82353">
        <ele>560</ele>
        <time>2019-05-24T11:04:19Z</time>
      </trkpt>
      <trkpt lat="44.30212" lon="5.82353">
        <ele>560</ele>
        <time>2019-05-24T11:04:20Z</time>
      </trkpt>
      <trkpt lat="44.30207" lon="5.82353">
        <ele>560</ele>
        <time>2019-05-24T11:04:21Z</time>
      </trkpt>
      <trkpt lat="44.30201" lon="5.82353">
        <ele>560</ele>
        <time>2019-05-24T11:04:22Z</time>
      </trkpt>
      <trkpt lat="44.30195" lon="5.82353">
        <ele>560</ele>
        <time>2019-05-24T11:04:23Z</time>
      </trkpt>
      <trkpt lat="44.30189" lon="5.82353">
        <ele>560</ele>
        <time>2019-05-24T11:04:24Z</time>
      </trkpt>
      <trkpt lat="44.30183" lon="5.82352">
        <ele>560</ele>
        <time>2019-05-24T11:04:25Z</time>
      </trkpt>
      <trkpt lat="44.30177" lon="5.82352">
        <ele>560</ele>
        <time>2019-05-24T11:04:26Z</time>
      </trkpt>
      <trkpt lat="44.30172" lon="5.82351">
        <ele>560</ele>
        <time>2019-05-24T11:04:27Z</time>
      </trkpt>
      <trkpt lat="44.30166" lon="5.82351">
        <ele>560</ele>
        <time>2019-05-24T11:04:28Z</time>
      </trkpt>
      <trkpt lat="44.3016" lon="5.8235">
        <ele>560</ele>
        <time>2019-05-24T11:04:29Z</time>
      </trkpt>
      <trkpt lat="44.30154" lon="5.8235">
        <ele>560</ele>
        <time>2019-05-24T11:04:30Z</time>
      </trkpt>
      <trkpt lat="44.30148" lon="5.82349">
        <ele>560</ele>
        <time>2019-05-24T11:04:31Z</time>
      </trkpt>
      <trkpt lat="44.30143" lon="5.82349">
        <ele>560</ele>
        <time>2019-05-24T11:04:32Z</time>
      </trkpt>
      <trkpt lat="44.30137" lon="5.82349">
        <ele>560</ele>
        <time>2019-05-24T11:04:33Z</time>
      </trkpt>
      <trkpt lat="44.30131" lon="5.82348">
        <ele>560</ele>
        <time>2019-05-24T11:04:34Z</time>
      </trkpt>
      <trkpt lat="44.30125" lon="5.82348">
        <ele>560</ele>
        <time>2019-05-24T11:04:35Z</time>
      </trkpt>
      <trkpt lat="44.30119" lon="5.82348">
        <ele>560</ele>
        <time>2019-05-24T11:04:36Z</time>
      </trkpt>
      <trkpt lat="44.30114" lon="5.82347">
        <ele>560</ele>
        <time>2019-05-24T11:04:37Z</time>
      </trkpt>
      <trkpt lat="44.30108" lon="5.82347">
        <ele>560</ele>
        <time>2019-05-24T11:04:38Z</time>
      </trkpt>
      <trkpt lat="44.30103" lon="5.82347">
        <ele>560</ele>
        <time>2019-05-24T11:04:39Z</time>
      </trkpt>
      <trkpt lat="44.30097" lon="5.82347">
        <ele>560</ele>
        <time>2019-05-24T11:04:40Z</time>
      </trkpt>
      <trkpt lat="44.30091" lon="5.82347">
        <ele>560</ele>
        <time>2019-05-24T11:04:41Z</time>
      </trkpt>
      <trkpt lat="44.30085" lon="5.82346">
        <ele>560</ele>
        <time>2019-05-24T11:04:42Z</time>
      </trkpt>
      <trkpt lat="44.3008" lon="5.82346">
        <ele>560</ele>
        <time>2019-05-24T11:04:43Z</time>
      </trkpt>
      <trkpt lat="44.30074" lon="5.82346">
        <ele>560</ele>
        <time>2019-05-24T11:04:44Z</time>
      </trkpt>
      <trkpt lat="44.30068" lon="5.82345">
        <ele>560</ele>
        <time>2019-05-24T11:04:45Z</time>
      </trkpt>
      <trkpt lat="44.30062" lon="5.82345">
        <ele>560</ele>
        <time>2019-05-24T11:04:46Z</time>
      </trkpt>
      <trkpt lat="44.30057" lon="5.82344">
        <ele>560</ele>
        <time>2019-05-24T11:04:47Z</time>
      </trkpt>
      <trkpt lat="44.30051" lon="5.82343">
        <ele>560</ele>
        <time>2019-05-24T11:04:48Z</time>
      </trkpt>
      <trkpt lat="44.30045" lon="5.82342">
        <ele>560</ele>
        <time>2019-05-24T11:04:49Z</time>
      </trkpt>
      <trkpt lat="44.30039" lon="5.82341">
        <ele>560</ele>
        <time>2019-05-24T11:04:50Z</time>
      </trkpt>
      <trkpt lat="44.30033" lon="5.82339">
        <ele>560</ele>
        <time>2019-05-24T11:04:51Z</time>
      </trkpt>
      <trkpt lat="44.30027" lon="5.82338">
        <ele>560</ele>
        <time>2019-05-24T11:04:52Z</time>
      </trkpt>
      <trkpt lat="44.30021" lon="5.82337">
        <ele>560</ele>
        <time>2019-05-24T11:04:53Z</time>
      </trkpt>
      <trkpt lat="44.30015" lon="5.82335">
        <ele>560</ele>
        <time>2019-05-24T11:04:54Z</time>
      </trkpt>
      <trkpt lat="44.30009" lon="5.82334">
        <ele>560</ele>
        <time>2019-05-24T11:04:55Z</time>
      </trkpt>
      <trkpt lat="44.30002" lon="5.82332">
        <ele>560</ele>
        <time>2019-05-24T11:04:56Z</time>
      </trkpt>
      <trkpt lat="44.29996" lon="5.8233">
        <ele>560</ele>
        <time>2019-05-24T11:04:57Z</time>
      </trkpt>
      <trkpt lat="44.2999" lon="5.82329">
        <ele>560</ele>
        <time>2019-05-24T11:04:58Z</time>
      </trkpt>
      <trkpt lat="44.29984" lon="5.82327">
        <ele>560</ele>
        <time>2019-05-24T11:04:59Z</time>
      </trkpt>
      <trkpt lat="44.29977" lon="5.82325">
        <ele>560</ele>
        <time>2019-05-24T11:05:00Z</time>
      </trkpt>
      <trkpt lat="44.29971" lon="5.82323">
        <ele>560</ele>
        <time>2019-05-24T11:05:01Z</time>
      </trkpt>
      <trkpt lat="44.29965" lon="5.8232">
        <ele>560</ele>
        <time>2019-05-24T11:05:02Z</time>
      </trkpt>
      <trkpt lat="44.29959" lon="5.82318">
        <ele>560</ele>
        <time>2019-05-24T11:05:03Z</time>
      </trkpt>
      <trkpt lat="44.29953" lon="5.82316">
        <ele>560</ele>
        <time>2019-05-24T11:05:04Z</time>
      </trkpt>
      <trkpt lat="44.29947" lon="5.82313">
        <ele>560</ele>
        <time>2019-05-24T11:05:05Z</time>
      </trkpt>
      <trkpt lat="44.29941" lon="5.82311">
        <ele>560</ele>
        <time>2019-05-24T11:05:06Z</time>
      </trkpt>
      <trkpt lat="44.29935" lon="5.82308">
        <ele>560</ele>
        <time>2019-05-24T11:05:07Z</time>
      </trkpt>
      <trkpt lat="44.29929" lon="5.82305">
        <ele>560</ele>
        <time>2019-05-24T11:05:08Z</time>
      </trkpt>
      <trkpt lat="44.29924" lon="5.82303">
        <ele>560</ele>
        <time>2019-05-24T11:05:09Z</time>
      </trkpt>
      <trkpt lat="44.29918" lon="5.823">
        <ele>560</ele>
        <time>2019-05-24T11:05:10Z</time>
      </trkpt>
      <trkpt lat="44.29912" lon="5.82297">
        <ele>560</ele>
        <time>2019-05-24T11:05:11Z</time>
      </trkpt>
      <trkpt lat="44.29906" lon="5.82293">
        <ele>560</ele>
        <time>2019-05-24T11:05:12Z</time>
      </trkpt>
      <trkpt lat="44.299" lon="5.8229">
        <ele>560</ele>
        <time>2019-05-24T11:05:13Z</time>
      </trkpt>
      <trkpt lat="44.29895" lon="5.82287">
        <ele>560</ele>
        <time>2019-05-24T11:05:14Z</time>
      </trkpt>
      <trkpt lat="44.29889" lon="5.82283">
        <ele>560</ele>
        <time>2019-05-24T11:05:15Z</time>
      </trkpt>
      <trkpt lat="44.29883" lon="5.82279">
        <ele>560</ele>
        <time>2019-05-24T11:05:16Z</time>
      </trkpt>
      <trkpt lat="44.29877" lon="5.82276">
        <ele>560</ele>
        <time>2019-05-24T11:05:17Z</time>
      </trkpt>
      <trkpt lat="44.29871" lon="5.82272">
        <ele>560</ele>
        <time>2019-05-24T11:05:18Z</time>
      </trkpt>
      <trkpt lat="44.29865" lon="5.82269">
        <ele>560</ele>
        <time>2019-05-24T11:05:19Z</time>
      </trkpt>
      <trkpt lat="44.29859" lon="5.82267">
        <ele>560</ele>
        <time>2019-05-24T11:05:20Z</time>
      </trkpt>
      <trkpt lat="44.29853" lon="5.82264">
        <ele>560</ele>
        <time>2019-05-24T11:05:21Z</time>
      </trkpt>
      <trkpt lat="44.29847" lon="5.82262">
        <ele>560</ele>
        <time>2019-05-24T11:05:22Z</time>
      </trkpt>
      <trkpt lat="44.29841" lon="5.82259">
        <ele>560</ele>
        <time>2019-05-24T11:05:23Z</time>
      </trkpt>
      <trkpt lat="44.29835" lon="5.82257">
        <ele>560</ele>
        <time>2019-05-24T11:05:24Z</time>
      </trkpt>
      <trkpt lat="44.29829" lon="5.82256">
        <ele>560</ele>
        <time>2019-05-24T11:05:25Z</time>
      </trkpt>
      <trkpt lat="44.29823" lon="5.82254">
        <ele>560</ele>
        <time>2019-05-24T11:05:26Z</time>
      </trkpt>
      <trkpt lat="44.29816" lon="5.82253">
        <ele>560</ele>
        <time>2019-05-24T11:05:27Z</time>
      </trkpt>
      <trkpt lat="44.2981" lon="5.82251">
        <ele>560</ele>
        <time>2019-05-24T11:05:28Z</time>
      </trkpt>
      <trkpt lat="44.29804" lon="5.8225">
        <ele>560</ele>
        <time>2019-05-24T11:05:29Z</time>
      </trkpt>
      <trkpt lat="44.29798" lon="5.82249">
        <ele>560</ele>
        <time>2019-05-24T11:05:30Z</time>
      </trkpt>
      <trkpt lat="44.29792" lon="5.82248">
        <ele>560</ele>
        <time>2019-05-24T11:05:31Z</time>
      </trkpt>
      <trkpt lat="44.29787" lon="5.82247">
        <ele>560</ele>
        <time>2019-05-24T11:05:32Z</time>
      </trkpt>
      <trkpt lat="44.29781" lon="5.82246">
        <ele>560</ele>
        <time>2019-05-24T11:05:33Z</time>
      </trkpt>
      <trkpt lat="44.29775" lon="5.82245">
        <ele>560</ele>
        <time>2019-05-24T11:05:34Z</time>
      </trkpt>
      <trkpt lat="44.29769" lon="5.82243">
        <ele>560</ele>
        <time>2019-05-24T11:05:35Z</time>
      </trkpt>
      <trkpt lat="44.29763" lon="5.82242">
        <ele>560</ele>
        <time>2019-05-24T11:05:36Z</time>
      </trkpt>
      <trkpt lat="44.29757" lon="5.82241">
        <ele>560</ele>
        <time>2019-05-24T11:05:37Z</time>
      </trkpt>
      <trkpt lat="44.29752" lon="5.82239">
        <ele>560</ele>
        <time>2019-05-24T11:05:38Z</time>
      </trkpt>
      <trkpt lat="44.29746" lon="5.82237">
        <ele>560</ele>
        <time>2019-05-24T11:05:39Z</time>
      </trkpt>
      <trkpt lat="44.2974" lon="5.82235">
        <ele>560</ele>
        <time>2019-05-24T11:05:40Z</time>
      </trkpt>
      <trkpt lat="44.29735" lon="5.82233">
        <ele>560</ele>
        <time>2019-05-24T11:05:41Z</time>
      </trkpt>
      <trkpt lat="44.29729" lon="5.8223">
        <ele>560</ele>
        <time>2019-05-24T11:05:42Z</time>
      </trkpt>
      <trkpt lat="44.29724" lon="5.82227">
        <ele>560</ele>
        <time>2019-05-24T11:05:43Z</time>
      </trkpt>
      <trkpt lat="44.29718" lon="5.82223">
        <ele>560</ele>
        <time>2019-05-24T11:05:44Z</time>
      </trkpt>
      <trkpt lat="44.29713" lon="5.8222">
        <ele>560</ele>
        <time>2019-05-24T11:05:45Z</time>
      </trkpt>
      <trkpt lat="44.29707" lon="5.82217">
        <ele>560</ele>
        <time>2019-05-24T11:05:46Z</time>
      </trkpt>
      <trkpt lat="44.29702" lon="5.82213">
        <ele>560</ele>
        <time>2019-05-24T11:05:47Z</time>
      </trkpt>
      <trkpt lat="44.29696" lon="5.82209">
        <ele>560</ele>
        <time>2019-05-24T11:05:48Z</time>
      </trkpt>
      <trkpt lat="44.29691" lon="5.82204">
        <ele>560</ele>
        <time>2019-05-24T11:05:49Z</time>
      </trkpt>
      <trkpt lat="44.29686" lon="5.82199">
        <ele>561</ele>
        <time>2019-05-24T11:05:50Z</time>
      </trkpt>
      <trkpt lat="44.29681" lon="5.82195">
        <ele>561</ele>
        <time>2019-05-24T11:05:51Z</time>
      </trkpt>
      <trkpt lat="44.29676" lon="5.82189">
        <ele>561</ele>
        <time>2019-05-24T11:05:52Z</time>
      </trkpt>
      <trkpt lat="44.29671" lon="5.82184">
        <ele>561</ele>
        <time>2019-05-24T11:05:53Z</time>
      </trkpt>
      <trkpt lat="44.29666" lon="5.82178">
        <ele>561</ele>
        <time>2019-05-24T11:05:54Z</time>
      </trkpt>
      <trkpt lat="44.29661" lon="5.82173">
        <ele>561</ele>
        <time>2019-05-24T11:05:55Z</time>
      </trkpt>
      <trkpt lat="44.29657" lon="5.82168">
        <ele>561</ele>
        <time>2019-05-24T11:05:56Z</time>
      </trkpt>
      <trkpt lat="44.29651" lon="5.82163">
        <ele>561</ele>
        <time>2019-05-24T11:05:57Z</time>
      </trkpt>
      <trkpt lat="44.29647" lon="5.82158">
        <ele>561</ele>
        <time>2019-05-24T11:05:58Z</time>
      </trkpt>
      <trkpt lat="44.29642" lon="5.82153">
        <ele>561</ele>
        <time>2019-05-24T11:05:59Z</time>
      </trkpt>
      <trkpt lat="44.29637" lon="5.82149">
        <ele>561</ele>
        <time>2019-05-24T11:06:00Z</time>
      </trkpt>
      <trkpt lat="44.29632" lon="5.82144">
        <ele>561</ele>
        <time>2019-05-24T11:06:01Z</time>
      </trkpt>
      <trkpt lat="44.29627" lon="5.8214">
        <ele>561</ele>
        <time>2019-05-24T11:06:02Z</time>
      </trkpt>
      <trkpt lat="44.29622" lon="5.82137">
        <ele>561</ele>
        <time>2019-05-24T11:06:03Z</time>
      </trkpt>
      <trkpt lat="44.29616" lon="5.82133">
        <ele>561</ele>
        <time>2019-05-24T11:06:04Z</time>
      </trkpt>
      <trkpt lat="44.29611" lon="5.8213">
        <ele>561</ele>
        <time>2019-05-24T11:06:05Z</time>
      </trkpt>
      <trkpt lat="44.29606" lon="5.82126">
        <ele>561</ele>
        <time>2019-05-24T11:06:06Z</time>
      </trkpt>
      <trkpt lat="44.296" lon="5.82123">
        <ele>561</ele>
        <time>2019-05-24T11:06:07Z</time>
      </trkpt>
      <trkpt lat="44.29595" lon="5.8212">
        <ele>561</ele>
        <time>2019-05-24T11:06:08Z</time>
      </trkpt>
      <trkpt lat="44.29589" lon="5.82117">
        <ele>561</ele>
        <time>2019-05-24T11:06:09Z</time>
      </trkpt>
      <trkpt lat="44.29584" lon="5.82115">
        <ele>561</ele>
        <time>2019-05-24T11:06:10Z</time>
      </trkpt>
      <trkpt lat="44.29578" lon="5.82113">
        <ele>561</ele>
        <time>2019-05-24T11:06:11Z</time>
      </trkpt>
      <trkpt lat="44.29573" lon="5.82111">
        <ele>561</ele>
        <time>2019-05-24T11:06:12Z</time>
      </trkpt>
      <trkpt lat="44.29567" lon="5.82108">
        <ele>561</ele>
        <time>2019-05-24T11:06:13Z</time>
      </trkpt>
      <trkpt lat="44.29562" lon="5.82106">
        <ele>561</ele>
        <time>2019-05-24T11:06:14Z</time>
      </trkpt>
      <trkpt lat="44.29556" lon="5.82105">
        <ele>562</ele>
        <time>2019-05-24T11:06:15Z</time>
      </trkpt>
      <trkpt lat="44.2955" lon="5.82104">
        <ele>562</ele>
        <time>2019-05-24T11:06:16Z</time>
      </trkpt>
      <trkpt lat="44.29544" lon="5.82103">
        <ele>562</ele>
        <time>2019-05-24T11:06:17Z</time>
      </trkpt>
      <trkpt lat="44.29539" lon="5.82102">
        <ele>562</ele>
        <time>2019-05-24T11:06:18Z</time>
      </trkpt>
      <trkpt lat="44.29533" lon="5.82101">
        <ele>562</ele>
        <time>2019-05-24T11:06:19Z</time>
      </trkpt>
      <trkpt lat="44.29528" lon="5.821">
        <ele>562</ele>
        <time>2019-05-24T11:06:20Z</time>
      </trkpt>
      <trkpt lat="44.29522" lon="5.821">
        <ele>563</ele>
        <time>2019-05-24T11:06:21Z</time>
      </trkpt>
      <trkpt lat="44.29517" lon="5.82099">
        <ele>563</ele>
        <time>2019-05-24T11:06:22Z</time>
      </trkpt>
      <trkpt lat="44.29511" lon="5.82099">
        <ele>563</ele>
        <time>2019-05-24T11:06:23Z</time>
      </trkpt>
      <trkpt lat="44.29506" lon="5.82098">
        <ele>563</ele>
        <time>2019-05-24T11:06:24Z</time>
      </trkpt>
      <trkpt lat="44.29501" lon="5.82098">
        <ele>564</ele>
        <time>2019-05-24T11:06:25Z</time>
      </trkpt>
      <trkpt lat="44.29495" lon="5.82098">
        <ele>564</ele>
        <time>2019-05-24T11:06:26Z</time>
      </trkpt>
      <trkpt lat="44.2949" lon="5.82098">
        <ele>564</ele>
        <time>2019-05-24T11:06:27Z</time>
      </trkpt>
      <trkpt lat="44.29484" lon="5.82098">
        <ele>564</ele>
        <time>2019-05-24T11:06:28Z</time>
      </trkpt>
      <trkpt lat="44.29479" lon="5.82099">
        <ele>564</ele>
        <time>2019-05-24T11:06:29Z</time>
      </trkpt>
      <trkpt lat="44.29473" lon="5.821">
        <ele>564</ele>
        <time>2019-05-24T11:06:30Z</time>
      </trkpt>
      <trkpt lat="44.29468" lon="5.82103">
        <ele>564</ele>
        <time>2019-05-24T11:06:31Z</time>
      </trkpt>
      <trkpt lat="44.29463" lon="5.82105">
        <ele>564</ele>
        <time>2019-05-24T11:06:32Z</time>
      </trkpt>
      <trkpt lat="44.29457" lon="5.82108">
        <ele>564</ele>
        <time>2019-05-24T11:06:33Z</time>
      </trkpt>
      <trkpt lat="44.29452" lon="5.82111">
        <ele>564</ele>
        <time>2019-05-24T11:06:34Z</time>
      </trkpt>
      <trkpt lat="44.29447" lon="5.82114">
        <ele>564</ele>
        <time>2019-05-24T11:06:35Z</time>
      </trkpt>
      <trkpt lat="44.29442" lon="5.82119">
        <ele>564</ele>
        <time>2019-05-24T11:06:36Z</time>
      </trkpt>
      <trkpt lat="44.29437" lon="5.82123">
        <ele>564</ele>
        <time>2019-05-24T11:06:37Z</time>
      </trkpt>
      <trkpt lat="44.29431" lon="5.82129">
        <ele>564</ele>
        <time>2019-05-24T11:06:38Z</time>
      </trkpt>
      <trkpt lat="44.29426" lon="5.82134">
        <ele>564</ele>
        <time>2019-05-24T11:06:39Z</time>
      </trkpt>
      <trkpt lat="44.2942" lon="5.8214">
        <ele>564</ele>
        <time>2019-05-24T11:06:40Z</time>
      </trkpt>
      <trkpt lat="44.29416" lon="5.82145">
        <ele>564</ele>
        <time>2019-05-24T11:06:41Z</time>
      </trkpt>
      <trkpt lat="44.29411" lon="5.82151">
        <ele>564</ele>
        <time>2019-05-24T11:06:42Z</time>
      </trkpt>
      <trkpt lat="44.29407" lon="5.82156">
        <ele>564</ele>
        <time>2019-05-24T11:06:43Z</time>
      </trkpt>
      <trkpt lat="44.29403" lon="5.82161">
        <ele>564</ele>
        <time>2019-05-24T11:06:44Z</time>
      </trkpt>
      <trkpt lat="44.29398" lon="5.82166">
        <ele>564</ele>
        <time>2019-05-24T11:06:45Z</time>
      </trkpt>
      <trkpt lat="44.29394" lon="5.82171">
        <ele>564</ele>
        <time>2019-05-24T11:06:46Z</time>
      </trkpt>
      <trkpt lat="44.2939" lon="5.82177">
        <ele>564</ele>
        <time>2019-05-24T11:06:47Z</time>
      </trkpt>
      <trkpt lat="44.29385" lon="5.82182">
        <ele>564</ele>
        <time>2019-05-24T11:06:48Z</time>
      </trkpt>
      <trkpt lat="44.2938" lon="5.82186">
        <ele>564</ele>
        <time>2019-05-24T11:06:49Z</time>
      </trkpt>
      <trkpt lat="44.29376" lon="5.82191">
        <ele>564</ele>
        <time>2019-05-24T11:06:50Z</time>
      </trkpt>
      <trkpt lat="44.29372" lon="5.82196">
        <ele>564</ele>
        <time>2019-05-24T11:06:51Z</time>
      </trkpt>
      <trkpt lat="44.29367" lon="5.82201">
        <ele>564</ele>
        <time>2019-05-24T11:06:52Z</time>
      </trkpt>
      <trkpt lat="44.29362" lon="5.82205">
        <ele>564</ele>
        <time>2019-05-24T11:06:53Z</time>
      </trkpt>
      <trkpt lat="44.29357" lon="5.82209">
        <ele>564</ele>
        <time>2019-05-24T11:06:54Z</time>
      </trkpt>
      <trkpt lat="44.29351" lon="5.82212">
        <ele>564</ele>
        <time>2019-05-24T11:06:55Z</time>
      </trkpt>
      <trkpt lat="44.29346" lon="5.82215">
        <ele>564</ele>
        <time>2019-05-24T11:06:56Z</time>
      </trkpt>
      <trkpt lat="44.2934" lon="5.82218">
        <ele>564</ele>
        <time>2019-05-24T11:06:57Z</time>
      </trkpt>
      <trkpt lat="44.29335" lon="5.8222">
        <ele>564</ele>
        <time>2019-05-24T11:06:58Z</time>
      </trkpt>
      <trkpt lat="44.29329" lon="5.82223">
        <ele>564</ele>
        <time>2019-05-24T11:06:59Z</time>
      </trkpt>
      <trkpt lat="44.29324" lon="5.82226">
        <ele>564</ele>
        <time>2019-05-24T11:07:00Z</time>
      </trkpt>
      <trkpt lat="44.29318" lon="5.82228">
        <ele>564</ele>
        <time>2019-05-24T11:07:01Z</time>
      </trkpt>
      <trkpt lat="44.29312" lon="5.82231">
        <ele>564</ele>
        <time>2019-05-24T11:07:02Z</time>
      </trkpt>
      <trkpt lat="44.29306" lon="5.82233">
        <ele>564</ele>
        <time>2019-05-24T11:07:03Z</time>
      </trkpt>
      <trkpt lat="44.293" lon="5.82235">
        <ele>564</ele>
        <time>2019-05-24T11:07:04Z</time>
      </trkpt>
      <trkpt lat="44.29294" lon="5.82238">
        <ele>564</ele>
        <time>2019-05-24T11:07:05Z</time>
      </trkpt>
      <trkpt lat="44.29288" lon="5.8224">
        <ele>564</ele>
        <time>2019-05-24T11:07:06Z</time>
      </trkpt>
      <trkpt lat="44.29282" lon="5.82243">
        <ele>564</ele>
        <time>2019-05-24T11:07:07Z</time>
      </trkpt>
      <trkpt lat="44.29276" lon="5.82245">
        <ele>564</ele>
        <time>2019-05-24T11:07:08Z</time>
      </trkpt>
      <trkpt lat="44.29269" lon="5.82248">
        <ele>564</ele>
        <time>2019-05-24T11:07:09Z</time>
      </trkpt>
      <trkpt lat="44.29263" lon="5.82251">
        <ele>564</ele>
        <time>2019-05-24T11:07:10Z</time>
      </trkpt>
      <trkpt lat="44.29256" lon="5.82253">
        <ele>564</ele>
        <time>2019-05-24T11:07:11Z</time>
      </trkpt>
      <trkpt lat="44.2925" lon="5.82255">
        <ele>564</ele>
        <time>2019-05-24T11:07:12Z</time>
      </trkpt>
      <trkpt lat="44.29243" lon="5.82257">
        <ele>564</ele>
        <time>2019-05-24T11:07:13Z</time>
      </trkpt>
      <trkpt lat="44.29236" lon="5.82258">
        <ele>564</ele>
        <time>2019-05-24T11:07:14Z</time>
      </trkpt>
      <trkpt lat="44.29229" lon="5.8226">
        <ele>564</ele>
        <time>2019-05-24T11:07:15Z</time>
      </trkpt>
      <trkpt lat="44.29222" lon="5.82261">
        <ele>564</ele>
        <time>2019-05-24T11:07:16Z</time>
      </trkpt>
      <trkpt lat="44.29215" lon="5.82262">
        <ele>564</ele>
        <time>2019-05-24T11:07:17Z</time>
      </trkpt>
      <trkpt lat="44.29208" lon="5.82262">
        <ele>564</ele>
        <time>2019-05-24T11:07:18Z</time>
      </trkpt>
      <trkpt lat="44.29202" lon="5.82263">
        <ele>564</ele>
        <time>2019-05-24T11:07:19Z</time>
      </trkpt>
      <trkpt lat="44.29195" lon="5.82264">
        <ele>564</ele>
        <time>2019-05-24T11:07:20Z</time>
      </trkpt>
      <trkpt lat="44.29189" lon="5.82264">
        <ele>564</ele>
        <time>2019-05-24T11:07:21Z</time>
      </trkpt>
      <trkpt lat="44.29182" lon="5.82265">
        <ele>564</ele>
        <time>2019-05-24T11:07:22Z</time>
      </trkpt>
      <trkpt lat="44.29176" lon="5.82265">
        <ele>564</ele>
        <time>2019-05-24T11:07:23Z</time>
      </trkpt>
      <trkpt lat="44.29169" lon="5.82266">
        <ele>564</ele>
        <time>2019-05-24T11:07:24Z</time>
      </trkpt>
      <trkpt lat="44.29162" lon="5.82266">
        <ele>564</ele>
        <time>2019-05-24T11:07:25Z</time>
      </trkpt>
      <trkpt lat="44.29156" lon="5.82267">
        <ele>564</ele>
        <time>2019-05-24T11:07:26Z</time>
      </trkpt>
      <trkpt lat="44.29149" lon="5.82268">
        <ele>564</ele>
        <time>2019-05-24T11:07:27Z</time>
      </trkpt>
      <trkpt lat="44.29142" lon="5.82269">
        <ele>564</ele>
        <time>2019-05-24T11:07:28Z</time>
      </trkpt>
      <trkpt lat="44.29136" lon="5.8227">
        <ele>564</ele>
        <time>2019-05-24T11:07:29Z</time>
      </trkpt>
      <trkpt lat="44.29129" lon="5.8227">
        <ele>564</ele>
        <time>2019-05-24T11:07:30Z</time>
      </trkpt>
      <trkpt lat="44.29123" lon="5.82271">
        <ele>564</ele>
        <time>2019-05-24T11:07:31Z</time>
      </trkpt>
      <trkpt lat="44.29116" lon="5.82271">
        <ele>564</ele>
        <time>2019-05-24T11:07:32Z</time>
      </trkpt>
      <trkpt lat="44.2911" lon="5.82272">
        <ele>564</ele>
        <time>2019-05-24T11:07:33Z</time>
      </trkpt>
      <trkpt lat="44.29103" lon="5.82273">
        <ele>564</ele>
        <time>2019-05-24T11:07:34Z</time>
      </trkpt>
      <trkpt lat="44.29097" lon="5.82274">
        <ele>564</ele>
        <time>2019-05-24T11:07:35Z</time>
      </trkpt>
      <trkpt lat="44.2909" lon="5.82275">
        <ele>564</ele>
        <time>2019-05-24T11:07:36Z</time>
      </trkpt>
      <trkpt lat="44.29084" lon="5.82275">
        <ele>564</ele>
        <time>2019-05-24T11:07:37Z</time>
      </trkpt>
      <trkpt lat="44.29078" lon="5.82276">
        <ele>564</ele>
        <time>2019-05-24T11:07:38Z</time>
      </trkpt>
      <trkpt lat="44.29071" lon="5.82277">
        <ele>564</ele>
        <time>2019-05-24T11:07:39Z</time>
      </trkpt>
      <trkpt lat="44.29065" lon="5.82277">
        <ele>564</ele>
        <time>2019-05-24T11:07:40Z</time>
      </trkpt>
      <trkpt lat="44.29059" lon="5.82278">
        <ele>564</ele>
        <time>2019-05-24T11:07:41Z</time>
      </trkpt>
      <trkpt lat="44.29053" lon="5.82278">
        <ele>564</ele>
        <time>2019-05-24T11:07:42Z</time>
      </trkpt>
      <trkpt lat="44.29047" lon="5.82279">
        <ele>564</ele>
        <time>2019-05-24T11:07:43Z</time>
      </trkpt>
      <trkpt lat="44.29042" lon="5.82279">
        <ele>564</ele>
        <time>2019-05-24T11:07:44Z</time>
      </trkpt>
      <trkpt lat="44.29036" lon="5.8228">
        <ele>564</ele>
        <time>2019-05-24T11:07:45Z</time>
      </trkpt>
      <trkpt lat="44.29031" lon="5.8228">
        <ele>564</ele>
        <time>2019-05-24T11:07:46Z</time>
      </trkpt>
      <trkpt lat="44.29025" lon="5.8228">
        <ele>564</ele>
        <time>2019-05-24T11:07:47Z</time>
      </trkpt>
      <trkpt lat="44.2902" lon="5.82281">
        <ele>564</ele>
        <time>2019-05-24T11:07:48Z</time>
      </trkpt>
      <trkpt lat="44.29014" lon="5.82281">
        <ele>564</ele>
        <time>2019-05-24T11:07:49Z</time>
      </trkpt>
      <trkpt lat="44.29008" lon="5.82282">
        <ele>564</ele>
        <time>2019-05-24T11:07:50Z</time>
      </trkpt>
      <trkpt lat="44.29003" lon="5.82282">
        <ele>564</ele>
        <time>2019-05-24T11:07:51Z</time>
      </trkpt>
      <trkpt lat="44.28998" lon="5.82282">
        <ele>564</ele>
        <time>2019-05-24T11:07:52Z</time>
      </trkpt>
      <trkpt lat="44.28992" lon="5.82283">
        <ele>564</ele>
        <time>2019-05-24T11:07:53Z</time>
      </trkpt>
      <trkpt lat="44.28987" lon="5.82283">
        <ele>564</ele>
        <time>2019-05-24T11:07:54Z</time>
      </trkpt>
      <trkpt lat="44.28982" lon="5.82284">
        <ele>564</ele>
        <time>2019-05-24T11:07:55Z</time>
      </trkpt>
      <trkpt lat="44.28977" lon="5.82284">
        <ele>564</ele>
        <time>2019-05-24T11:07:56Z</time>
      </trkpt>
      <trkpt lat="44.28972" lon="5.82284">
        <ele>564</ele>
        <time>2019-05-24T11:07:57Z</time>
      </trkpt>
      <trkpt lat="44.28967" lon="5.82285">
        <ele>564</ele>
        <time>2019-05-24T11:07:58Z</time>
      </trkpt>
      <trkpt lat="44.28962" lon="5.82285">
        <ele>564</ele>
        <time>2019-05-24T11:07:59Z</time>
      </trkpt>
      <trkpt lat="44.28957" lon="5.82285">
        <ele>565</ele>
        <time>2019-05-24T11:08:00Z</time>
      </trkpt>
      <trkpt lat="44.28952" lon="5.82285">
        <ele>565</ele>
        <time>2019-05-24T11:08:01Z</time>
      </trkpt>
      <trkpt lat="44.28947" lon="5.82285">
        <ele>565</ele>
        <time>2019-05-24T11:08:02Z</time>
      </trkpt>
      <trkpt lat="44.28942" lon="5.82285">
        <ele>565</ele>
        <time>2019-05-24T11:08:03Z</time>
      </trkpt>
      <trkpt lat="44.28937" lon="5.82285">
        <ele>565</ele>
        <time>2019-05-24T11:08:04Z</time>
      </trkpt>
      <trkpt lat="44.28932" lon="5.82285">
        <ele>566</ele>
        <time>2019-05-24T11:08:05Z</time>
      </trkpt>
      <trkpt lat="44.28928" lon="5.82285">
        <ele>566</ele>
        <time>2019-05-24T11:08:06Z</time>
      </trkpt>
      <trkpt lat="44.28923" lon="5.82285">
        <ele>566</ele>
        <time>2019-05-24T11:08:07Z</time>
      </trkpt>
      <trkpt lat="44.28918" lon="5.82285">
        <ele>566</ele>
        <time>2019-05-24T11:08:08Z</time>
      </trkpt>
      <trkpt lat="44.28913" lon="5.82284">
        <ele>567</ele>
        <time>2019-05-24T11:08:09Z</time>
      </trkpt>
      <trkpt lat="44.28908" lon="5.82283">
        <ele>567</ele>
        <time>2019-05-24T11:08:10Z</time>
      </trkpt>
      <trkpt lat="44.28904" lon="5.82281">
        <ele>567</ele>
        <time>2019-05-24T11:08:11Z</time>
      </trkpt>
      <trkpt lat="44.28899" lon="5.82279">
        <ele>568</ele>
        <time>2019-05-24T11:08:12Z</time>
      </trkpt>
      <trkpt lat="44.28894" lon="5.82277">
        <ele>568</ele>
        <time>2019-05-24T11:08:13Z</time>
      </trkpt>
      <trkpt lat="44.28889" lon="5.82274">
        <ele>568</ele>
        <time>2019-05-24T11:08:14Z</time>
      </trkpt>
      <trkpt lat="44.28885" lon="5.82271">
        <ele>568</ele>
        <time>2019-05-24T11:08:15Z</time>
      </trkpt>
      <trkpt lat="44.2888" lon="5.82268">
        <ele>569</ele>
        <time>2019-05-24T11:08:16Z</time>
      </trkpt>
      <trkpt lat="44.28876" lon="5.82264">
        <ele>569</ele>
        <time>2019-05-24T11:08:17Z</time>
      </trkpt>
      <trkpt lat="44.28871" lon="5.8226">
        <ele>569</ele>
        <time>2019-05-24T11:08:18Z</time>
      </trkpt>
      <trkpt lat="44.28867" lon="5.82256">
        <ele>569</ele>
        <time>2019-05-24T11:08:19Z</time>
      </trkpt>
      <trkpt lat="44.28862" lon="5.82252">
        <ele>569</ele>
        <time>2019-05-24T11:08:20Z</time>
      </trkpt>
      <trkpt lat="44.28858" lon="5.82247">
        <ele>569</ele>
        <time>2019-05-24T11:08:21Z</time>
      </trkpt>
      <trkpt lat="44.28853" lon="5.82242">
        <ele>569</ele>
        <time>2019-05-24T11:08:22Z</time>
      </trkpt>
      <trkpt lat="44.28849" lon="5.82237">
        <ele>569</ele>
        <time>2019-05-24T11:08:23Z</time>
      </trkpt>
      <trkpt lat="44.28844" lon="5.82233">
        <ele>569</ele>
        <time>2019-05-24T11:08:24Z</time>
      </trkpt>
      <trkpt lat="44.28839" lon="5.82228">
        <ele>569</ele>
        <time>2019-05-24T11:08:25Z</time>
      </trkpt>
      <trkpt lat="44.28835" lon="5.82224">
        <ele>569</ele>
        <time>2019-05-24T11:08:26Z</time>
      </trkpt>
      <trkpt lat="44.2883" lon="5.82219">
        <ele>569</ele>
        <time>2019-05-24T11:08:27Z</time>
      </trkpt>
      <trkpt lat="44.28825" lon="5.82214">
        <ele>569</ele>
        <time>2019-05-24T11:08:28Z</time>
      </trkpt>
      <trkpt lat="44.2882" lon="5.8221">
        <ele>569</ele>
        <time>2019-05-24T11:08:29Z</time>
      </trkpt>
      <trkpt lat="44.28814" lon="5.82206">
        <ele>569</ele>
        <time>2019-05-24T11:08:30Z</time>
      </trkpt>
      <trkpt lat="44.28809" lon="5.82202">
        <ele>569</ele>
        <time>2019-05-24T11:08:31Z</time>
      </trkpt>
      <trkpt lat="44.28804" lon="5.82198">
        <ele>569</ele>
        <time>2019-05-24T11:08:32Z</time>
      </trkpt>
      <trkpt lat="44.28798" lon="5.82194">
        <ele>569</ele>
        <time>2019-05-24T11:08:33Z</time>
      </trkpt>
      <trkpt lat="44.28793" lon="5.8219">
        <ele>569</ele>
        <time>2019-05-24T11:08:34Z</time>
      </trkpt>
      <trkpt lat="44.28787" lon="5.82186">
        <ele>569</ele>
        <time>2019-05-24T11:08:35Z</time>
      </trkpt>
      <trkpt lat="44.28781" lon="5.82182">
        <ele>569</ele>
        <time>2019-05-24T11:08:36Z</time>
      </trkpt>
      <trkpt lat="44.28775" lon="5.82178">
        <ele>569</ele>
        <time>2019-05-24T11:08:37Z</time>
      </trkpt>
      <trkpt lat="44.28768" lon="5.82175">
        <ele>569</ele>
        <time>2019-05-24T11:08:38Z</time>
      </trkpt>
      <trkpt lat="44.28762" lon="5.82171">
        <ele>569</ele>
        <time>2019-05-24T11:08:39Z</time>
      </trkpt>
      <trkpt lat="44.28755" lon="5.82167">
        <ele>569</ele>
        <time>2019-05-24T11:08:40Z</time>
      </trkpt>
      <trkpt lat="44.28748" lon="5.82163">
        <ele>569</ele>
        <time>2019-05-24T11:08:41Z</time>
      </trkpt>
      <trkpt lat="44.28741" lon="5.8216">
        <ele>569</ele>
        <time>2019-05-24T11:08:42Z</time>
      </trkpt>
      <trkpt lat="44.28734" lon="5.82156">
        <ele>569</ele>
        <time>2019-05-24T11:08:43Z</time>
      </trkpt>
      <trkpt lat="44.28726" lon="5.82152">
        <ele>569</ele>
        <time>2019-05-24T11:08:44Z</time>
      </trkpt>
      <trkpt lat="44.28719" lon="5.82149">
        <ele>569</ele>
        <time>2019-05-24T11:08:45Z</time>
      </trkpt>
      <trkpt lat="44.28711" lon="5.82146">
        <ele>569</ele>
        <time>2019-05-24T11:08:46Z</time>
      </trkpt>
      <trkpt lat="44.28702" lon="5.82142">
        <ele>569</ele>
        <time>2019-05-24T11:08:47Z</time>
      </trkpt>
      <trkpt lat="44.28694" lon="5.8214">
        <ele>569</ele>
        <time>2019-05-24T11:08:48Z</time>
      </trkpt>
      <trkpt lat="44.28685" lon="5.82137">
        <ele>569</ele>
        <time>2019-05-24T11:08:49Z</time>
      </trkpt>
      <trkpt lat="44.28677" lon="5.82134">
        <ele>568</ele>
        <time>2019-05-24T11:08:50Z</time>
      </trkpt>
      <trkpt lat="44.28668" lon="5.8213">
        <ele>568</ele>
        <time>2019-05-24T11:08:51Z</time>
      </trkpt>
      <trkpt lat="44.28659" lon="5.82128">
        <ele>567</ele>
        <time>2019-05-24T11:08:52Z</time>
      </trkpt>
      <trkpt lat="44.28649" lon="5.82124">
        <ele>567</ele>
        <time>2019-05-24T11:08:53Z</time>
      </trkpt>
      <trkpt lat="44.2864" lon="5.82122">
        <ele>567</ele>
        <time>2019-05-24T11:08:54Z</time>
      </trkpt>
      <trkpt lat="44.28631" lon="5.82118">
        <ele>566</ele>
        <time>2019-05-24T11:08:55Z</time>
      </trkpt>
      <trkpt lat="44.28621" lon="5.82115">
        <ele>566</ele>
        <time>2019-05-24T11:08:56Z</time>
      </trkpt>
      <trkpt lat="44.28612" lon="5.82112">
        <ele>565</ele>
        <time>2019-05-24T11:08:57Z</time>
      </trkpt>
      <trkpt lat="44.28603" lon="5.82109">
        <ele>565</ele>
        <time>2019-05-24T11:08:58Z</time>
      </trkpt>
      <trkpt lat="44.28593" lon="5.82105">
        <ele>564</ele>
        <time>2019-05-24T11:08:59Z</time>
      </trkpt>
      <trkpt lat="44.28584" lon="5.82101">
        <ele>564</ele>
        <time>2019-05-24T11:09:00Z</time>
      </trkpt>
      <trkpt lat="44.28576" lon="5.82097">
        <ele>563</ele>
        <time>2019-05-24T11:09:01Z</time>
      </trkpt>
      <trkpt lat="44.28566" lon="5.82093">
        <ele>563</ele>
        <time>2019-05-24T11:09:02Z</time>
      </trkpt>
      <trkpt lat="44.28557" lon="5.82088">
        <ele>562</ele>
        <time>2019-05-24T11:09:03Z</time>
      </trkpt>
      <trkpt lat="44.28548" lon="5.82084">
        <ele>562</ele>
        <time>2019-05-24T11:09:04Z</time>
      </trkpt>
      <trkpt lat="44.28539" lon="5.82079">
        <ele>561</ele>
        <time>2019-05-24T11:09:05Z</time>
      </trkpt>
      <trkpt lat="44.28531" lon="5.82075">
        <ele>561</ele>
        <time>2019-05-24T11:09:06Z</time>
      </trkpt>
      <trkpt lat="44.28522" lon="5.8207">
        <ele>560</ele>
        <time>2019-05-24T11:09:07Z</time>
      </trkpt>
      <trkpt lat="44.28513" lon="5.82066">
        <ele>560</ele>
        <time>2019-05-24T11:09:08Z</time>
      </trkpt>
      <trkpt lat="44.28505" lon="5.82061">
        <ele>559</ele>
        <time>2019-05-24T11:09:09Z</time>
      </trkpt>
      <trkpt lat="44.28497" lon="5.82057">
        <ele>559</ele>
        <time>2019-05-24T11:09:10Z</time>
      </trkpt>
      <trkpt lat="44.28488" lon="5.82053">
        <ele>559</ele>
        <time>2019-05-24T11:09:11Z</time>
      </trkpt>
      <trkpt lat="44.2848" lon="5.82049">
        <ele>558</ele>
        <time>2019-05-24T11:09:12Z</time>
      </trkpt>
      <trkpt lat="44.28472" lon="5.82045">
        <ele>558</ele>
        <time>2019-05-24T11:09:13Z</time>
      </trkpt>
      <trkpt lat="44.28465" lon="5.82042">
        <ele>558</ele>
        <time>2019-05-24T11:09:14Z</time>
      </trkpt>
      <trkpt lat="44.28457" lon="5.82038">
        <ele>557</ele>
        <time>2019-05-24T11:09:15Z</time>
      </trkpt>
      <trkpt lat="44.28449" lon="5.82035">
        <ele>557</ele>
        <time>2019-05-24T11:09:16Z</time>
      </trkpt>
      <trkpt lat="44.28441" lon="5.82032">
        <ele>557</ele>
        <time>2019-05-24T11:09:17Z</time>
      </trkpt>
      <trkpt lat="44.28433" lon="5.82029">
        <ele>556</ele>
        <time>2019-05-24T11:09:18Z</time>
      </trkpt>
      <trkpt lat="44.28425" lon="5.82027">
        <ele>556</ele>
        <time>2019-05-24T11:09:19Z</time>
      </trkpt>
      <trkpt lat="44.28418" lon="5.82025">
        <ele>556</ele>
        <time>2019-05-24T11:09:20Z</time>
      </trkpt>
      <trkpt lat="44.2841" lon="5.82023">
        <ele>555</ele>
        <time>2019-05-24T11:09:21Z</time>
      </trkpt>
      <trkpt lat="44.28402" lon="5.82022">
        <ele>555</ele>
        <time>2019-05-24T11:09:22Z</time>
      </trkpt>
      <trkpt lat="44.28394" lon="5.82021">
        <ele>555</ele>
        <time>2019-05-24T11:09:23Z</time>
      </trkpt>
      <trkpt lat="44.28386" lon="5.8202">
        <ele>554</ele>
        <time>2019-05-24T11:09:24Z</time>
      </trkpt>
      <trkpt lat="44.28378" lon="5.8202">
        <ele>554</ele>
        <time>2019-05-24T11:09:25Z</time>
      </trkpt>
      <trkpt lat="44.2837" lon="5.82019">
        <ele>554</ele>
        <time>2019-05-24T11:09:26Z</time>
      </trkpt>
      <trkpt lat="44.28362" lon="5.82018">
        <ele>553</ele>
        <time>2019-05-24T11:09:27Z</time>
      </trkpt>
      <trkpt lat="44.28354" lon="5.82018">
        <ele>553</ele>
        <time>2019-05-24T11:09:28Z</time>
      </trkpt>
      <trkpt lat="44.28347" lon="5.82018">
        <ele>553</ele>
        <time>2019-05-24T11:09:29Z</time>
      </trkpt>
      <trkpt lat="44.2834" lon="5.82017">
        <ele>553</ele>
        <time>2019-05-24T11:09:30Z</time>
      </trkpt>
      <trkpt lat="44.28333" lon="5.82018">
        <ele>553</ele>
        <time>2019-05-24T11:09:31Z</time>
      </trkpt>
      <trkpt lat="44.28325" lon="5.82018">
        <ele>553</ele>
        <time>2019-05-24T11:09:32Z</time>
      </trkpt>
      <trkpt lat="44.28317" lon="5.82017">
        <ele>553</ele>
        <time>2019-05-24T11:09:33Z</time>
      </trkpt>
      <trkpt lat="44.28309" lon="5.82017">
        <ele>553</ele>
        <time>2019-05-24T11:09:34Z</time>
      </trkpt>
      <trkpt lat="44.28302" lon="5.82017">
        <ele>552</ele>
        <time>2019-05-24T11:09:35Z</time>
      </trkpt>
      <trkpt lat="44.28294" lon="5.82016">
        <ele>552</ele>
        <time>2019-05-24T11:09:36Z</time>
      </trkpt>
      <trkpt lat="44.28287" lon="5.82016">
        <ele>552</ele>
        <time>2019-05-24T11:09:37Z</time>
      </trkpt>
      <trkpt lat="44.28279" lon="5.82016">
        <ele>552</ele>
        <time>2019-05-24T11:09:38Z</time>
      </trkpt>
      <trkpt lat="44.28272" lon="5.82016">
        <ele>552</ele>
        <time>2019-05-24T11:09:39Z</time>
      </trkpt>
      <trkpt lat="44.28265" lon="5.82016">
        <ele>552</ele>
        <time>2019-05-24T11:09:40Z</time>
      </trkpt>
      <trkpt lat="44.28257" lon="5.82015">
        <ele>552</ele>
        <time>2019-05-24T11:09:41Z</time>
      </trkpt>
      <trkpt lat="44.28249" lon="5.82014">
        <ele>552</ele>
        <time>2019-05-24T11:09:42Z</time>
      </trkpt>
      <trkpt lat="44.28241" lon="5.82012">
        <ele>552</ele>
        <time>2019-05-24T11:09:43Z</time>
      </trkpt>
      <trkpt lat="44.28233" lon="5.8201">
        <ele>552</ele>
        <time>2019-05-24T11:09:44Z</time>
      </trkpt>
      <trkpt lat="44.28226" lon="5.82007">
        <ele>551</ele>
        <time>2019-05-24T11:09:45Z</time>
      </trkpt>
      <trkpt lat="44.28219" lon="5.82004">
        <ele>551</ele>
        <time>2019-05-24T11:09:46Z</time>
      </trkpt>
      <trkpt lat="44.28212" lon="5.82">
        <ele>551</ele>
        <time>2019-05-24T11:09:47Z</time>
      </trkpt>
      <trkpt lat="44.28204" lon="5.81996">
        <ele>551</ele>
        <time>2019-05-24T11:09:48Z</time>
      </trkpt>
      <trkpt lat="44.28197" lon="5.81992">
        <ele>551</ele>
        <time>2019-05-24T11:09:49Z</time>
      </trkpt>
      <trkpt lat="44.2819" lon="5.81987">
        <ele>551</ele>
        <time>2019-05-24T11:09:50Z</time>
      </trkpt>
      <trkpt lat="44.28183" lon="5.81983">
        <ele>551</ele>
        <time>2019-05-24T11:09:51Z</time>
      </trkpt>
      <trkpt lat="44.28177" lon="5.81978">
        <ele>551</ele>
        <time>2019-05-24T11:09:52Z</time>
      </trkpt>
      <trkpt lat="44.2817" lon="5.81974">
        <ele>551</ele>
        <time>2019-05-24T11:09:53Z</time>
      </trkpt>
      <trkpt lat="44.28163" lon="5.81969">
        <ele>551</ele>
        <time>2019-05-24T11:09:54Z</time>
      </trkpt>
      <trkpt lat="44.28157" lon="5.81965">
        <ele>551</ele>
        <time>2019-05-24T11:09:55Z</time>
      </trkpt>
      <trkpt lat="44.2815" lon="5.81961">
        <ele>551</ele>
        <time>2019-05-24T11:09:56Z</time>
      </trkpt>
      <trkpt lat="44.28143" lon="5.81957">
        <ele>551</ele>
        <time>2019-05-24T11:09:57Z</time>
      </trkpt>
      <trkpt lat="44.28137" lon="5.81952">
        <ele>551</ele>
        <time>2019-05-24T11:09:58Z</time>
      </trkpt>
      <trkpt lat="44.2813" lon="5.81948">
        <ele>551</ele>
        <time>2019-05-24T11:09:59Z</time>
      </trkpt>
      <trkpt lat="44.28123" lon="5.81944">
        <ele>551</ele>
        <time>2019-05-24T11:10:00Z</time>
      </trkpt>
      <trkpt lat="44.28117" lon="5.8194">
        <ele>551</ele>
        <time>2019-05-24T11:10:01Z</time>
      </trkpt>
      <trkpt lat="44.2811" lon="5.81935">
        <ele>551</ele>
        <time>2019-05-24T11:10:02Z</time>
      </trkpt>
      <trkpt lat="44.28103" lon="5.81931">
        <ele>551</ele>
        <time>2019-05-24T11:10:03Z</time>
      </trkpt>
      <trkpt lat="44.28096" lon="5.81926">
        <ele>551</ele>
        <time>2019-05-24T11:10:04Z</time>
      </trkpt>
      <trkpt lat="44.2809" lon="5.81922">
        <ele>551</ele>
        <time>2019-05-24T11:10:05Z</time>
      </trkpt>
      <trkpt lat="44.28083" lon="5.81917">
        <ele>551</ele>
        <time>2019-05-24T11:10:06Z</time>
      </trkpt>
      <trkpt lat="44.28076" lon="5.81913">
        <ele>551</ele>
        <time>2019-05-24T11:10:07Z</time>
      </trkpt>
      <trkpt lat="44.28069" lon="5.81909">
        <ele>551</ele>
        <time>2019-05-24T11:10:08Z</time>
      </trkpt>
      <trkpt lat="44.28062" lon="5.81904">
        <ele>551</ele>
        <time>2019-05-24T11:10:09Z</time>
      </trkpt>
      <trkpt lat="44.28056" lon="5.819">
        <ele>551</ele>
        <time>2019-05-24T11:10:10Z</time>
      </trkpt>
      <trkpt lat="44.28049" lon="5.81895">
        <ele>551</ele>
        <time>2019-05-24T11:10:11Z</time>
      </trkpt>
      <trkpt lat="44.28042" lon="5.81891">
        <ele>551</ele>
        <time>2019-05-24T11:10:12Z</time>
      </trkpt>
      <trkpt lat="44.28035" lon="5.81886">
        <ele>551</ele>
        <time>2019-05-24T11:10:13Z</time>
      </trkpt>
      <trkpt lat="44.28028" lon="5.81882">
        <ele>550</ele>
        <time>2019-05-24T11:10:14Z</time>
      </trkpt>
      <trkpt lat="44.28022" lon="5.81878">
        <ele>550</ele>
        <time>2019-05-24T11:10:15Z</time>
      </trkpt>
      <trkpt lat="44.28015" lon="5.81873">
        <ele>550</ele>
        <time>2019-05-24T11:10:16Z</time>
      </trkpt>
      <trkpt lat="44.28008" lon="5.81869">
        <ele>550</ele>
        <time>2019-05-24T11:10:17Z</time>
      </trkpt>
      <trkpt lat="44.28001" lon="5.81865">
        <ele>550</ele>
        <time>2019-05-24T11:10:18Z</time>
      </trkpt>
      <trkpt lat="44.27995" lon="5.81861">
        <ele>550</ele>
        <time>2019-05-24T11:10:19Z</time>
      </trkpt>
      <trkpt lat="44.27989" lon="5.81857">
        <ele>550</ele>
        <time>2019-05-24T11:10:20Z</time>
      </trkpt>
      <trkpt lat="44.27982" lon="5.81853">
        <ele>550</ele>
        <time>2019-05-24T11:10:21Z</time>
      </trkpt>
      <trkpt lat="44.27976" lon="5.81849">
        <ele>550</ele>
        <time>2019-05-24T11:10:22Z</time>
      </trkpt>
      <trkpt lat="44.2797" lon="5.81845">
        <ele>550</ele>
        <time>2019-05-24T11:10:23Z</time>
      </trkpt>
      <trkpt lat="44.27964" lon="5.81841">
        <ele>550</ele>
        <time>2019-05-24T11:10:24Z</time>
      </trkpt>
      <trkpt lat="44.27957" lon="5.81837">
        <ele>550</ele>
        <time>2019-05-24T11:10:25Z</time>
      </trkpt>
      <trkpt lat="44.27951" lon="5.81833">
        <ele>550</ele>
        <time>2019-05-24T11:10:26Z</time>
      </trkpt>
      <trkpt lat="44.27945" lon="5.81829">
        <ele>550</ele>
        <time>2019-05-24T11:10:27Z</time>
      </trkpt>
      <trkpt lat="44.27938" lon="5.81824">
        <ele>550</ele>
        <time>2019-05-24T11:10:28Z</time>
      </trkpt>
      <trkpt lat="44.27932" lon="5.8182">
        <ele>550</ele>
        <time>2019-05-24T11:10:29Z</time>
      </trkpt>
      <trkpt lat="44.27925" lon="5.81816">
        <ele>550</ele>
        <time>2019-05-24T11:10:30Z</time>
      </trkpt>
      <trkpt lat="44.27919" lon="5.81812">
        <ele>550</ele>
        <time>2019-05-24T11:10:31Z</time>
      </trkpt>
      <trkpt lat="44.27913" lon="5.81808">
        <ele>550</ele>
        <time>2019-05-24T11:10:32Z</time>
      </trkpt>
      <trkpt lat="44.27906" lon="5.81804">
        <ele>550</ele>
        <time>2019-05-24T11:10:33Z</time>
      </trkpt>
      <trkpt lat="44.279" lon="5.818">
        <ele>550</ele>
        <time>2019-05-24T11:10:34Z</time>
      </trkpt>
      <trkpt lat="44.27894" lon="5.81795">
        <ele>550</ele>
        <time>2019-05-24T11:10:35Z</time>
      </trkpt>
      <trkpt lat="44.27887" lon="5.81791">
        <ele>550</ele>
        <time>2019-05-24T11:10:36Z</time>
      </trkpt>
      <trkpt lat="44.27881" lon="5.81787">
        <ele>550</ele>
        <time>2019-05-24T11:10:37Z</time>
      </trkpt>
      <trkpt lat="44.27875" lon="5.81782">
        <ele>550</ele>
        <time>2019-05-24T11:10:38Z</time>
      </trkpt>
      <trkpt lat="44.27868" lon="5.81778">
        <ele>550</ele>
        <time>2019-05-24T11:10:39Z</time>
      </trkpt>
      <trkpt lat="44.27862" lon="5.81774">
        <ele>550</ele>
        <time>2019-05-24T11:10:40Z</time>
      </trkpt>
      <trkpt lat="44.27855" lon="5.8177">
        <ele>550</ele>
        <time>2019-05-24T11:10:41Z</time>
      </trkpt>
      <trkpt lat="44.27849" lon="5.81766">
        <ele>550</ele>
        <time>2019-05-24T11:10:42Z</time>
      </trkpt>
      <trkpt lat="44.27842" lon="5.81762">
        <ele>550</ele>
        <time>2019-05-24T11:10:43Z</time>
      </trkpt>
      <trkpt lat="44.27836" lon="5.81757">
        <ele>550</ele>
        <time>2019-05-24T11:10:44Z</time>
      </trkpt>
      <trkpt lat="44.27829" lon="5.81753">
        <ele>550</ele>
        <time>2019-05-24T11:10:45Z</time>
      </trkpt>
      <trkpt lat="44.27822" lon="5.81749">
        <ele>550</ele>
        <time>2019-05-24T11:10:46Z</time>
      </trkpt>
      <trkpt lat="44.27816" lon="5.81745">
        <ele>550</ele>
        <time>2019-05-24T11:10:47Z</time>
      </trkpt>
      <trkpt lat="44.27809" lon="5.81741">
        <ele>550</ele>
        <time>2019-05-24T11:10:48Z</time>
      </trkpt>
      <trkpt lat="44.27802" lon="5.81736">
        <ele>550</ele>
        <time>2019-05-24T11:10:49Z</time>
      </trkpt>
      <trkpt lat="44.27795" lon="5.81731">
        <ele>550</ele>
        <time>2019-05-24T11:10:50Z</time>
      </trkpt>
      <trkpt lat="44.27789" lon="5.81727">
        <ele>550</ele>
        <time>2019-05-24T11:10:51Z</time>
      </trkpt>
      <trkpt lat="44.27782" lon="5.81722">
        <ele>549</ele>
        <time>2019-05-24T11:10:52Z</time>
      </trkpt>
      <trkpt lat="44.27775" lon="5.81718">
        <ele>549</ele>
        <time>2019-05-24T11:10:53Z</time>
      </trkpt>
      <trkpt lat="44.27768" lon="5.81714">
        <ele>549</ele>
        <time>2019-05-24T11:10:54Z</time>
      </trkpt>
      <trkpt lat="44.27761" lon="5.81709">
        <ele>549</ele>
        <time>2019-05-24T11:10:55Z</time>
      </trkpt>
      <trkpt lat="44.27755" lon="5.81705">
        <ele>548</ele>
        <time>2019-05-24T11:10:56Z</time>
      </trkpt>
      <trkpt lat="44.27748" lon="5.817">
        <ele>548</ele>
        <time>2019-05-24T11:10:57Z</time>
      </trkpt>
      <trkpt lat="44.27741" lon="5.81695">
        <ele>548</ele>
        <time>2019-05-24T11:10:58Z</time>
      </trkpt>
      <trkpt lat="44.27734" lon="5.81689">
        <ele>548</ele>
        <time>2019-05-24T11:10:59Z</time>
      </trkpt>
      <trkpt lat="44.27728" lon="5.81683">
        <ele>548</ele>
        <time>2019-05-24T11:11:00Z</time>
      </trkpt>
      <trkpt lat="44.27721" lon="5.81676">
        <ele>547</ele>
        <time>2019-05-24T11:11:01Z</time>
      </trkpt>
      <trkpt lat="44.27715" lon="5.8167">
        <ele>547</ele>
        <time>2019-05-24T11:11:02Z</time>
      </trkpt>
      <trkpt lat="44.27709" lon="5.81663">
        <ele>547</ele>
        <time>2019-05-24T11:11:03Z</time>
      </trkpt>
      <trkpt lat="44.27703" lon="5.81656">
        <ele>547</ele>
        <time>2019-05-24T11:11:04Z</time>
      </trkpt>
      <trkpt lat="44.27697" lon="5.8165">
        <ele>547</ele>
        <time>2019-05-24T11:11:05Z</time>
      </trkpt>
      <trkpt lat="44.27692" lon="5.81643">
        <ele>547</ele>
        <time>2019-05-24T11:11:06Z</time>
      </trkpt>
      <trkpt lat="44.27686" lon="5.81637">
        <ele>547</ele>
        <time>2019-05-24T11:11:07Z</time>
      </trkpt>
      <trkpt lat="44.2768" lon="5.81631">
        <ele>546</ele>
        <time>2019-05-24T11:11:08Z</time>
      </trkpt>
      <trkpt lat="44.27674" lon="5.81624">
        <ele>546</ele>
        <time>2019-05-24T11:11:09Z</time>
      </trkpt>
      <trkpt lat="44.27669" lon="5.81617">
        <ele>546</ele>
        <time>2019-05-24T11:11:10Z</time>
      </trkpt>
      <trkpt lat="44.27664" lon="5.8161">
        <ele>546</ele>
        <time>2019-05-24T11:11:11Z</time>
      </trkpt>
      <trkpt lat="44.27658" lon="5.81603">
        <ele>546</ele>
        <time>2019-05-24T11:11:12Z</time>
      </trkpt>
      <trkpt lat="44.27653" lon="5.81597">
        <ele>546</ele>
        <time>2019-05-24T11:11:13Z</time>
      </trkpt>
      <trkpt lat="44.27648" lon="5.81591">
        <ele>546</ele>
        <time>2019-05-24T11:11:14Z</time>
      </trkpt>
      <trkpt lat="44.27643" lon="5.81584">
        <ele>546</ele>
        <time>2019-05-24T11:11:15Z</time>
      </trkpt>
      <trkpt lat="44.27637" lon="5.81577">
        <ele>546</ele>
        <time>2019-05-24T11:11:16Z</time>
      </trkpt>
      <trkpt lat="44.27632" lon="5.81571">
        <ele>546</ele>
        <time>2019-05-24T11:11:17Z</time>
      </trkpt>
      <trkpt lat="44.27627" lon="5.81565">
        <ele>546</ele>
        <time>2019-05-24T11:11:18Z</time>
      </trkpt>
      <trkpt lat="44.27621" lon="5.81559">
        <ele>546</ele>
        <time>2019-05-24T11:11:19Z</time>
      </trkpt>
      <trkpt lat="44.27616" lon="5.81552">
        <ele>546</ele>
        <time>2019-05-24T11:11:20Z</time>
      </trkpt>
      <trkpt lat="44.2761" lon="5.81545">
        <ele>546</ele>
        <time>2019-05-24T11:11:21Z</time>
      </trkpt>
      <trkpt lat="44.27605" lon="5.81539">
        <ele>546</ele>
        <time>2019-05-24T11:11:22Z</time>
      </trkpt>
      <trkpt lat="44.27599" lon="5.81532">
        <ele>546</ele>
        <time>2019-05-24T11:11:23Z</time>
      </trkpt>
      <trkpt lat="44.27593" lon="5.81525">
        <ele>546</ele>
        <time>2019-05-24T11:11:24Z</time>
      </trkpt>
      <trkpt lat="44.27588" lon="5.81518">
        <ele>546</ele>
        <time>2019-05-24T11:11:25Z</time>
      </trkpt>
      <trkpt lat="44.27582" lon="5.81511">
        <ele>546</ele>
        <time>2019-05-24T11:11:26Z</time>
      </trkpt>
      <trkpt lat="44.27576" lon="5.81504">
        <ele>546</ele>
        <time>2019-05-24T11:11:27Z</time>
      </trkpt>
      <trkpt lat="44.2757" lon="5.81497">
        <ele>546</ele>
        <time>2019-05-24T11:11:28Z</time>
      </trkpt>
      <trkpt lat="44.27565" lon="5.81491">
        <ele>545</ele>
        <time>2019-05-24T11:11:29Z</time>
      </trkpt>
      <trkpt lat="44.27559" lon="5.81483">
        <ele>545</ele>
        <time>2019-05-24T11:11:30Z</time>
      </trkpt>
      <trkpt lat="44.27553" lon="5.81475">
        <ele>544</ele>
        <time>2019-05-24T11:11:31Z</time>
      </trkpt>
      <trkpt lat="44.27547" lon="5.81468">
        <ele>544</ele>
        <time>2019-05-24T11:11:32Z</time>
      </trkpt>
      <trkpt lat="44.27541" lon="5.81461">
        <ele>544</ele>
        <time>2019-05-24T11:11:33Z</time>
      </trkpt>
      <trkpt lat="44.27535" lon="5.81454">
        <ele>544</ele>
        <time>2019-05-24T11:11:34Z</time>
      </trkpt>
      <trkpt lat="44.2753" lon="5.81447">
        <ele>543</ele>
        <time>2019-05-24T11:11:35Z</time>
      </trkpt>
      <trkpt lat="44.27523" lon="5.8144">
        <ele>543</ele>
        <time>2019-05-24T11:11:36Z</time>
      </trkpt>
      <trkpt lat="44.27518" lon="5.81433">
        <ele>543</ele>
        <time>2019-05-24T11:11:37Z</time>
      </trkpt>
      <trkpt lat="44.27512" lon="5.81426">
        <ele>543</ele>
        <time>2019-05-24T11:11:38Z</time>
      </trkpt>
      <trkpt lat="44.27506" lon="5.81419">
        <ele>543</ele>
        <time>2019-05-24T11:11:39Z</time>
      </trkpt>
      <trkpt lat="44.275" lon="5.81413">
        <ele>543</ele>
        <time>2019-05-24T11:11:40Z</time>
      </trkpt>
      <trkpt lat="44.27494" lon="5.81405">
        <ele>543</ele>
        <time>2019-05-24T11:11:41Z</time>
      </trkpt>
      <trkpt lat="44.27489" lon="5.81398">
        <ele>543</ele>
        <time>2019-05-24T11:11:42Z</time>
      </trkpt>
      <trkpt lat="44.27483" lon="5.81392">
        <ele>543</ele>
        <time>2019-05-24T11:11:43Z</time>
      </trkpt>
      <trkpt lat="44.27477" lon="5.81387">
        <ele>542</ele>
        <time>2019-05-24T11:11:44Z</time>
      </trkpt>
      <trkpt lat="44.27471" lon="5.81382">
        <ele>542</ele>
        <time>2019-05-24T11:11:45Z</time>
      </trkpt>
      <trkpt lat="44.27464" lon="5.81377">
        <ele>542</ele>
        <time>2019-05-24T11:11:46Z</time>
      </trkpt>
      <trkpt lat="44.27458" lon="5.81372">
        <ele>542</ele>
        <time>2019-05-24T11:11:47Z</time>
      </trkpt>
      <trkpt lat="44.27452" lon="5.81368">
        <ele>542</ele>
        <time>2019-05-24T11:11:48Z</time>
      </trkpt>
      <trkpt lat="44.27446" lon="5.81364">
        <ele>542</ele>
        <time>2019-05-24T11:11:49Z</time>
      </trkpt>
      <trkpt lat="44.27439" lon="5.8136">
        <ele>542</ele>
        <time>2019-05-24T11:11:50Z</time>
      </trkpt>
      <trkpt lat="44.27433" lon="5.81356">
        <ele>542</ele>
        <time>2019-05-24T11:11:51Z</time>
      </trkpt>
      <trkpt lat="44.27427" lon="5.81353">
        <ele>541</ele>
        <time>2019-05-24T11:11:52Z</time>
      </trkpt>
      <trkpt lat="44.27421" lon="5.81349">
        <ele>541</ele>
        <time>2019-05-24T11:11:53Z</time>
      </trkpt>
      <trkpt lat="44.27415" lon="5.81345">
        <ele>541</ele>
        <time>2019-05-24T11:11:54Z</time>
      </trkpt>
      <trkpt lat="44.27409" lon="5.81342">
        <ele>541</ele>
        <time>2019-05-24T11:11:55Z</time>
      </trkpt>
      <trkpt lat="44.27403" lon="5.81338">
        <ele>541</ele>
        <time>2019-05-24T11:11:56Z</time>
      </trkpt>
      <trkpt lat="44.27397" lon="5.81334">
        <ele>541</ele>
        <time>2019-05-24T11:11:57Z</time>
      </trkpt>
      <trkpt lat="44.27391" lon="5.8133">
        <ele>541</ele>
        <time>2019-05-24T11:11:58Z</time>
      </trkpt>
      <trkpt lat="44.27385" lon="5.81326">
        <ele>541</ele>
        <time>2019-05-24T11:11:59Z</time>
      </trkpt>
      <trkpt lat="44.2738" lon="5.81322">
        <ele>541</ele>
        <time>2019-05-24T11:12:00Z</time>
      </trkpt>
      <trkpt lat="44.27374" lon="5.81319">
        <ele>541</ele>
        <time>2019-05-24T11:12:01Z</time>
      </trkpt>
      <trkpt lat="44.27369" lon="5.81315">
        <ele>541</ele>
        <time>2019-05-24T11:12:02Z</time>
      </trkpt>
      <trkpt lat="44.27363" lon="5.81311">
        <ele>541</ele>
        <time>2019-05-24T11:12:03Z</time>
      </trkpt>
      <trkpt lat="44.27357" lon="5.81307">
        <ele>541</ele>
        <time>2019-05-24T11:12:04Z</time>
      </trkpt>
      <trkpt lat="44.27351" lon="5.81304">
        <ele>541</ele>
        <time>2019-05-24T11:12:05Z</time>
      </trkpt>
      <trkpt lat="44.27346" lon="5.81299">
        <ele>541</ele>
        <time>2019-05-24T11:12:06Z</time>
      </trkpt>
      <trkpt lat="44.27341" lon="5.81294">
        <ele>541</ele>
        <time>2019-05-24T11:12:07Z</time>
      </trkpt>
      <trkpt lat="44.27337" lon="5.81289">
        <ele>541</ele>
        <time>2019-05-24T11:12:08Z</time>
      </trkpt>
      <trkpt lat="44.27333" lon="5.81284">
        <ele>541</ele>
        <time>2019-05-24T11:12:09Z</time>
      </trkpt>
      <trkpt lat="44.27329" lon="5.81278">
        <ele>541</ele>
        <time>2019-05-24T11:12:10Z</time>
      </trkpt>
      <trkpt lat="44.27325" lon="5.81272">
        <ele>541</ele>
        <time>2019-05-24T11:12:11Z</time>
      </trkpt>
      <trkpt lat="44.27321" lon="5.81266">
        <ele>541</ele>
        <time>2019-05-24T11:12:12Z</time>
      </trkpt>
      <trkpt lat="44.27317" lon="5.81261">
        <ele>541</ele>
        <time>2019-05-24T11:12:13Z</time>
      </trkpt>
      <trkpt lat="44.27313" lon="5.81255">
        <ele>541</ele>
        <time>2019-05-24T11:12:14Z</time>
      </trkpt>
      <trkpt lat="44.27309" lon="5.8125">
        <ele>541</ele>
        <time>2019-05-24T11:12:15Z</time>
      </trkpt>
      <trkpt lat="44.27306" lon="5.81244">
        <ele>541</ele>
        <time>2019-05-24T11:12:16Z</time>
      </trkpt>
      <trkpt lat="44.27302" lon="5.81239">
        <ele>541</ele>
        <time>2019-05-24T11:12:17Z</time>
      </trkpt>
      <trkpt lat="44.27298" lon="5.81233">
        <ele>541</ele>
        <time>2019-05-24T11:12:18Z</time>
      </trkpt>
      <trkpt lat="44.27294" lon="5.81227">
        <ele>541</ele>
        <time>2019-05-24T11:12:19Z</time>
      </trkpt>
      <trkpt lat="44.2729" lon="5.81221">
        <ele>541</ele>
        <time>2019-05-24T11:12:20Z</time>
      </trkpt>
      <trkpt lat="44.27286" lon="5.81216">
        <ele>541</ele>
        <time>2019-05-24T11:12:21Z</time>
      </trkpt>
      <trkpt lat="44.27282" lon="5.81211">
        <ele>541</ele>
        <time>2019-05-24T11:12:22Z</time>
      </trkpt>
      <trkpt lat="44.27278" lon="5.81205">
        <ele>541</ele>
        <time>2019-05-24T11:12:23Z</time>
      </trkpt>
      <trkpt lat="44.27274" lon="5.812">
        <ele>541</ele>
        <time>2019-05-24T11:12:24Z</time>
      </trkpt>
      <trkpt lat="44.27271" lon="5.81195">
        <ele>541</ele>
        <time>2019-05-24T11:12:25Z</time>
      </trkpt>
      <trkpt lat="44.27267" lon="5.81191">
        <ele>541</ele>
        <time>2019-05-24T11:12:26Z</time>
      </trkpt>
      <trkpt lat="44.27263" lon="5.81186">
        <ele>541</ele>
        <time>2019-05-24T11:12:27Z</time>
      </trkpt>
      <trkpt lat="44.27259" lon="5.81181">
        <ele>541</ele>
        <time>2019-05-24T11:12:28Z</time>
      </trkpt>
      <trkpt lat="44.27254" lon="5.81176">
        <ele>541</ele>
        <time>2019-05-24T11:12:29Z</time>
      </trkpt>
      <trkpt lat="44.27249" lon="5.81172">
        <ele>541</ele>
        <time>2019-05-24T11:12:30Z</time>
      </trkpt>
      <trkpt lat="44.27245" lon="5.81167">
        <ele>541</ele>
        <time>2019-05-24T11:12:31Z</time>
      </trkpt>
      <trkpt lat="44.2724" lon="5.81164">
        <ele>541</ele>
        <time>2019-05-24T11:12:32Z</time>
      </trkpt>
      <trkpt lat="44.27235" lon="5.8116">
        <ele>541</ele>
        <time>2019-05-24T11:12:33Z</time>
      </trkpt>
      <trkpt lat="44.27231" lon="5.81156">
        <ele>541</ele>
        <time>2019-05-24T11:12:34Z</time>
      </trkpt>
      <trkpt lat="44.27227" lon="5.81151">
        <ele>541</ele>
        <time>2019-05-24T11:12:35Z</time>
      </trkpt>
      <trkpt lat="44.27224" lon="5.81146">
        <ele>541</ele>
        <time>2019-05-24T11:12:36Z</time>
      </trkpt>
      <trkpt lat="44.27222" lon="5.81139">
        <ele>541</ele>
        <time>2019-05-24T11:12:37Z</time>
      </trkpt>
      <trkpt lat="44.2722" lon="5.81132">
        <ele>541</ele>
        <time>2019-05-24T11:12:38Z</time>
      </trkpt>
      <trkpt lat="44.2722" lon="5.81125">
        <ele>541</ele>
        <time>2019-05-24T11:12:39Z</time>
      </trkpt>
      <trkpt lat="44.2722" lon="5.81118">
        <ele>541</ele>
        <time>2019-05-24T11:12:40Z</time>
      </trkpt>
      <trkpt lat="44.27219" lon="5.81111">
        <ele>541</ele>
        <time>2019-05-24T11:12:41Z</time>
      </trkpt>
      <trkpt lat="44.2722" lon="5.81103">
        <ele>541</ele>
        <time>2019-05-24T11:12:42Z</time>
      </trkpt>
      <trkpt lat="44.2722" lon="5.81095">
        <ele>541</ele>
        <time>2019-05-24T11:12:43Z</time>
      </trkpt>
      <trkpt lat="44.2722" lon="5.81088">
        <ele>541</ele>
        <time>2019-05-24T11:12:44Z</time>
      </trkpt>
      <trkpt lat="44.2722" lon="5.8108">
        <ele>541</ele>
        <time>2019-05-24T11:12:45Z</time>
      </trkpt>
      <trkpt lat="44.27221" lon="5.81072">
        <ele>541</ele>
        <time>2019-05-24T11:12:46Z</time>
      </trkpt>
      <trkpt lat="44.27221" lon="5.81064">
        <ele>541</ele>
        <time>2019-05-24T11:12:47Z</time>
      </trkpt>
      <trkpt lat="44.27222" lon="5.81055">
        <ele>541</ele>
        <time>2019-05-24T11:12:48Z</time>
      </trkpt>
      <trkpt lat="44.27223" lon="5.81048">
        <ele>541</ele>
        <time>2019-05-24T11:12:49Z</time>
      </trkpt>
      <trkpt lat="44.27224" lon="5.8104">
        <ele>541</ele>
        <time>2019-05-24T11:12:50Z</time>
      </trkpt>
      <trkpt lat="44.27224" lon="5.81032">
        <ele>541</ele>
        <time>2019-05-24T11:12:51Z</time>
      </trkpt>
      <trkpt lat="44.27225" lon="5.81022">
        <ele>541</ele>
        <time>2019-05-24T11:12:52Z</time>
      </trkpt>
      <trkpt lat="44.27226" lon="5.81013">
        <ele>541</ele>
        <time>2019-05-24T11:12:53Z</time>
      </trkpt>
      <trkpt lat="44.27227" lon="5.81004">
        <ele>541</ele>
        <time>2019-05-24T11:12:54Z</time>
      </trkpt>
      <trkpt lat="44.27228" lon="5.80995">
        <ele>541</ele>
        <time>2019-05-24T11:12:55Z</time>
      </trkpt>
      <trkpt lat="44.2723" lon="5.80987">
        <ele>541</ele>
        <time>2019-05-24T11:12:56Z</time>
      </trkpt>
      <trkpt lat="44.27231" lon="5.80978">
        <ele>541</ele>
        <time>2019-05-24T11:12:57Z</time>
      </trkpt>
      <trkpt lat="44.27233" lon="5.8097">
        <ele>541</ele>
        <time>2019-05-24T11:12:58Z</time>
      </trkpt>
      <trkpt lat="44.27235" lon="5.80962">
        <ele>541</ele>
        <time>2019-05-24T11:12:59Z</time>
      </trkpt>
      <trkpt lat="44.27237" lon="5.80954">
        <ele>541</ele>
        <time>2019-05-24T11:13:00Z</time>
      </trkpt>
      <trkpt lat="44.27239" lon="5.80945">
        <ele>541</ele>
        <time>2019-05-24T11:13:01Z</time>
      </trkpt>
      <trkpt lat="44.27241" lon="5.80937">
        <ele>541</ele>
        <time>2019-05-24T11:13:02Z</time>
      </trkpt>
      <trkpt lat="44.27243" lon="5.80929">
        <ele>541</ele>
        <time>2019-05-24T11:13:03Z</time>
      </trkpt>
      <trkpt lat="44.27245" lon="5.80921">
        <ele>541</ele>
        <time>2019-05-24T11:13:04Z</time>
      </trkpt>
      <trkpt lat="44.27247" lon="5.80912">
        <ele>541</ele>
        <time>2019-05-24T11:13:05Z</time>
      </trkpt>
      <trkpt lat="44.27249" lon="5.80904">
        <ele>541</ele>
        <time>2019-05-24T11:13:06Z</time>
      </trkpt>
      <trkpt lat="44.27251" lon="5.80896">
        <ele>541</ele>
        <time>2019-05-24T11:13:07Z</time>
      </trkpt>
      <trkpt lat="44.27253" lon="5.80888">
        <ele>541</ele>
        <time>2019-05-24T11:13:08Z</time>
      </trkpt>
      <trkpt lat="44.27255" lon="5.8088">
        <ele>542</ele>
        <time>2019-05-24T11:13:09Z</time>
      </trkpt>
      <trkpt lat="44.27257" lon="5.80872">
        <ele>542</ele>
        <time>2019-05-24T11:13:10Z</time>
      </trkpt>
      <trkpt lat="44.27259" lon="5.80865">
        <ele>542</ele>
        <time>2019-05-24T11:13:11Z</time>
      </trkpt>
      <trkpt lat="44.27261" lon="5.80857">
        <ele>543</ele>
        <time>2019-05-24T11:13:12Z</time>
      </trkpt>
      <trkpt lat="44.27263" lon="5.8085">
        <ele>543</ele>
        <time>2019-05-24T11:13:13Z</time>
      </trkpt>
      <trkpt lat="44.27265" lon="5.80842">
        <ele>543</ele>
        <time>2019-05-24T11:13:14Z</time>
      </trkpt>
      <trkpt lat="44.27267" lon="5.80834">
        <ele>543</ele>
        <time>2019-05-24T11:13:15Z</time>
      </trkpt>
      <trkpt lat="44.27269" lon="5.80827">
        <ele>544</ele>
        <time>2019-05-24T11:13:16Z</time>
      </trkpt>
      <trkpt lat="44.27272" lon="5.80819">
        <ele>544</ele>
        <time>2019-05-24T11:13:17Z</time>
      </trkpt>
      <trkpt lat="44.27274" lon="5.80812">
        <ele>544</ele>
        <time>2019-05-24T11:13:18Z</time>
      </trkpt>
      <trkpt lat="44.27276" lon="5.80804">
        <ele>544</ele>
        <time>2019-05-24T11:13:19Z</time>
      </trkpt>
      <trkpt lat="44.27279" lon="5.80796">
        <ele>544</ele>
        <time>2019-05-24T11:13:20Z</time>
      </trkpt>
      <trkpt lat="44.27281" lon="5.80789">
        <ele>545</ele>
        <time>2019-05-24T11:13:21Z</time>
      </trkpt>
      <trkpt lat="44.27283" lon="5.80781">
        <ele>545</ele>
        <time>2019-05-24T11:13:22Z</time>
      </trkpt>
      <trkpt lat="44.27286" lon="5.80774">
        <ele>545</ele>
        <time>2019-05-24T11:13:23Z</time>
      </trkpt>
      <trkpt lat="44.27289" lon="5.80766">
        <ele>545</ele>
        <time>2019-05-24T11:13:24Z</time>
      </trkpt>
      <trkpt lat="44.27291" lon="5.80758">
        <ele>545</ele>
        <time>2019-05-24T11:13:25Z</time>
      </trkpt>
      <trkpt lat="44.27294" lon="5.80751">
        <ele>545</ele>
        <time>2019-05-24T11:13:26Z</time>
      </trkpt>
      <trkpt lat="44.27296" lon="5.80743">
        <ele>545</ele>
        <time>2019-05-24T11:13:27Z</time>
      </trkpt>
      <trkpt lat="44.27299" lon="5.80736">
        <ele>545</ele>
        <time>2019-05-24T11:13:28Z</time>
      </trkpt>
      <trkpt lat="44.27301" lon="5.80729">
        <ele>545</ele>
        <time>2019-05-24T11:13:29Z</time>
      </trkpt>
      <trkpt lat="44.27305" lon="5.80722">
        <ele>546</ele>
        <time>2019-05-24T11:13:30Z</time>
      </trkpt>
      <trkpt lat="44.27308" lon="5.80716">
        <ele>546</ele>
        <time>2019-05-24T11:13:31Z</time>
      </trkpt>
      <trkpt lat="44.27311" lon="5.80711">
        <ele>546</ele>
        <time>2019-05-24T11:13:32Z</time>
      </trkpt>
      <trkpt lat="44.27315" lon="5.80705">
        <ele>546</ele>
        <time>2019-05-24T11:13:33Z</time>
      </trkpt>
      <trkpt lat="44.27318" lon="5.80699">
        <ele>546</ele>
        <time>2019-05-24T11:13:34Z</time>
      </trkpt>
      <trkpt lat="44.27321" lon="5.80693">
        <ele>547</ele>
        <time>2019-05-24T11:13:35Z</time>
      </trkpt>
      <trkpt lat="44.27324" lon="5.80688">
        <ele>547</ele>
        <time>2019-05-24T11:13:36Z</time>
      </trkpt>
      <trkpt lat="44.27327" lon="5.80681">
        <ele>547</ele>
        <time>2019-05-24T11:13:37Z</time>
      </trkpt>
      <trkpt lat="44.2733" lon="5.80674">
        <ele>547</ele>
        <time>2019-05-24T11:13:38Z</time>
      </trkpt>
      <trkpt lat="44.27331" lon="5.80667">
        <ele>547</ele>
        <time>2019-05-24T11:13:39Z</time>
      </trkpt>
      <trkpt lat="44.27332" lon="5.80659">
        <ele>547</ele>
        <time>2019-05-24T11:13:40Z</time>
      </trkpt>
      <trkpt lat="44.27333" lon="5.80652">
        <ele>547</ele>
        <time>2019-05-24T11:13:41Z</time>
      </trkpt>
      <trkpt lat="44.27333" lon="5.80645">
        <ele>547</ele>
        <time>2019-05-24T11:13:42Z</time>
      </trkpt>
      <trkpt lat="44.27333" lon="5.80638">
        <ele>547</ele>
        <time>2019-05-24T11:13:43Z</time>
      </trkpt>
      <trkpt lat="44.27333" lon="5.8063">
        <ele>547</ele>
        <time>2019-05-24T11:13:44Z</time>
      </trkpt>
      <trkpt lat="44.27333" lon="5.80623">
        <ele>547</ele>
        <time>2019-05-24T11:13:45Z</time>
      </trkpt>
      <trkpt lat="44.27333" lon="5.80615">
        <ele>548</ele>
        <time>2019-05-24T11:13:46Z</time>
      </trkpt>
      <trkpt lat="44.27334" lon="5.80607">
        <ele>548</ele>
        <time>2019-05-24T11:13:47Z</time>
      </trkpt>
      <trkpt lat="44.27335" lon="5.80599">
        <ele>548</ele>
        <time>2019-05-24T11:13:48Z</time>
      </trkpt>
      <trkpt lat="44.27337" lon="5.80592">
        <ele>548</ele>
        <time>2019-05-24T11:13:49Z</time>
      </trkpt>
      <trkpt lat="44.27339" lon="5.80584">
        <ele>548</ele>
        <time>2019-05-24T11:13:50Z</time>
      </trkpt>
      <trkpt lat="44.27341" lon="5.80577">
        <ele>548</ele>
        <time>2019-05-24T11:13:51Z</time>
      </trkpt>
      <trkpt lat="44.27345" lon="5.8057">
        <ele>548</ele>
        <time>2019-05-24T11:13:52Z</time>
      </trkpt>
      <trkpt lat="44.27348" lon="5.80563">
        <ele>548</ele>
        <time>2019-05-24T11:13:53Z</time>
      </trkpt>
      <trkpt lat="44.27352" lon="5.80557">
        <ele>549</ele>
        <time>2019-05-24T11:13:54Z</time>
      </trkpt>
      <trkpt lat="44.27356" lon="5.80551">
        <ele>549</ele>
        <time>2019-05-24T11:13:55Z</time>
      </trkpt>
      <trkpt lat="44.2736" lon="5.80545">
        <ele>549</ele>
        <time>2019-05-24T11:13:56Z</time>
      </trkpt>
      <trkpt lat="44.27364" lon="5.80539">
        <ele>549</ele>
        <time>2019-05-24T11:13:57Z</time>
      </trkpt>
      <trkpt lat="44.27367" lon="5.80533">
        <ele>549</ele>
        <time>2019-05-24T11:13:58Z</time>
      </trkpt>
      <trkpt lat="44.27372" lon="5.80526">
        <ele>549</ele>
        <time>2019-05-24T11:13:59Z</time>
      </trkpt>
      <trkpt lat="44.27375" lon="5.8052">
        <ele>549</ele>
        <time>2019-05-24T11:14:00Z</time>
      </trkpt>
      <trkpt lat="44.27379" lon="5.80513">
        <ele>549</ele>
        <time>2019-05-24T11:14:01Z</time>
      </trkpt>
      <trkpt lat="44.27383" lon="5.80506">
        <ele>549</ele>
        <time>2019-05-24T11:14:02Z</time>
      </trkpt>
      <trkpt lat="44.27386" lon="5.80499">
        <ele>549</ele>
        <time>2019-05-24T11:14:03Z</time>
      </trkpt>
      <trkpt lat="44.27389" lon="5.80491">
        <ele>549</ele>
        <time>2019-05-24T11:14:04Z</time>
      </trkpt>
      <trkpt lat="44.27393" lon="5.80484">
        <ele>549</ele>
        <time>2019-05-24T11:14:05Z</time>
      </trkpt>
      <trkpt lat="44.27396" lon="5.80477">
        <ele>549</ele>
        <time>2019-05-24T11:14:06Z</time>
      </trkpt>
      <trkpt lat="44.274" lon="5.8047">
        <ele>549</ele>
        <time>2019-05-24T11:14:07Z</time>
      </trkpt>
      <trkpt lat="44.27403" lon="5.80462">
        <ele>549</ele>
        <time>2019-05-24T11:14:08Z</time>
      </trkpt>
      <trkpt lat="44.27406" lon="5.80454">
        <ele>549</ele>
        <time>2019-05-24T11:14:09Z</time>
      </trkpt>
      <trkpt lat="44.27409" lon="5.80446">
        <ele>549</ele>
        <time>2019-05-24T11:14:10Z</time>
      </trkpt>
      <trkpt lat="44.27412" lon="5.80438">
        <ele>549</ele>
        <time>2019-05-24T11:14:11Z</time>
      </trkpt>
      <trkpt lat="44.27415" lon="5.8043">
        <ele>549</ele>
        <time>2019-05-24T11:14:12Z</time>
      </trkpt>
      <trkpt lat="44.27418" lon="5.80421">
        <ele>549</ele>
        <time>2019-05-24T11:14:13Z</time>
      </trkpt>
      <trkpt lat="44.27421" lon="5.80412">
        <ele>549</ele>
        <time>2019-05-24T11:14:14Z</time>
      </trkpt>
      <trkpt lat="44.27424" lon="5.80404">
        <ele>549</ele>
        <time>2019-05-24T11:14:15Z</time>
      </trkpt>
      <trkpt lat="44.27427" lon="5.80395">
        <ele>549</ele>
        <time>2019-05-24T11:14:16Z</time>
      </trkpt>
      <trkpt lat="44.2743" lon="5.80387">
        <ele>549</ele>
        <time>2019-05-24T11:14:17Z</time>
      </trkpt>
      <trkpt lat="44.27432" lon="5.80378">
        <ele>549</ele>
        <time>2019-05-24T11:14:18Z</time>
      </trkpt>
      <trkpt lat="44.27435" lon="5.8037">
        <ele>549</ele>
        <time>2019-05-24T11:14:19Z</time>
      </trkpt>
      <trkpt lat="44.27438" lon="5.80362">
        <ele>549</ele>
        <time>2019-05-24T11:14:20Z</time>
      </trkpt>
      <trkpt lat="44.2744" lon="5.80354">
        <ele>549</ele>
        <time>2019-05-24T11:14:21Z</time>
      </trkpt>
      <trkpt lat="44.27443" lon="5.80345">
        <ele>549</ele>
        <time>2019-05-24T11:14:22Z</time>
      </trkpt>
      <trkpt lat="44.27445" lon="5.80337">
        <ele>549</ele>
        <time>2019-05-24T11:14:23Z</time>
      </trkpt>
      <trkpt lat="44.27448" lon="5.80329">
        <ele>549</ele>
        <time>2019-05-24T11:14:24Z</time>
      </trkpt>
      <trkpt lat="44.2745" lon="5.80321">
        <ele>549</ele>
        <time>2019-05-24T11:14:25Z</time>
      </trkpt>
      <trkpt lat="44.27453" lon="5.80313">
        <ele>549</ele>
        <time>2019-05-24T11:14:26Z</time>
      </trkpt>
      <trkpt lat="44.27455" lon="5.80306">
        <ele>549</ele>
        <time>2019-05-24T11:14:27Z</time>
      </trkpt>
      <trkpt lat="44.27458" lon="5.80299">
        <ele>549</ele>
        <time>2019-05-24T11:14:28Z</time>
      </trkpt>
      <trkpt lat="44.2746" lon="5.80292">
        <ele>549</ele>
        <time>2019-05-24T11:14:29Z</time>
      </trkpt>
      <trkpt lat="44.27463" lon="5.80285">
        <ele>549</ele>
        <time>2019-05-24T11:14:30Z</time>
      </trkpt>
      <trkpt lat="44.27465" lon="5.80278">
        <ele>549</ele>
        <time>2019-05-24T11:14:31Z</time>
      </trkpt>
      <trkpt lat="44.27468" lon="5.80272">
        <ele>549</ele>
        <time>2019-05-24T11:14:32Z</time>
      </trkpt>
      <trkpt lat="44.2747" lon="5.80264">
        <ele>549</ele>
        <time>2019-05-24T11:14:33Z</time>
      </trkpt>
      <trkpt lat="44.27472" lon="5.80257">
        <ele>549</ele>
        <time>2019-05-24T11:14:34Z</time>
      </trkpt>
      <trkpt lat="44.27475" lon="5.8025">
        <ele>550</ele>
        <time>2019-05-24T11:14:35Z</time>
      </trkpt>
      <trkpt lat="44.27478" lon="5.80244">
        <ele>551</ele>
        <time>2019-05-24T11:14:36Z</time>
      </trkpt>
      <trkpt lat="44.2748" lon="5.80237">
        <ele>551</ele>
        <time>2019-05-24T11:14:37Z</time>
      </trkpt>
      <trkpt lat="44.27483" lon="5.80231">
        <ele>552</ele>
        <time>2019-05-24T11:14:38Z</time>
      </trkpt>
      <trkpt lat="44.27487" lon="5.80225">
        <ele>552</ele>
        <time>2019-05-24T11:14:39Z</time>
      </trkpt>
      <trkpt lat="44.27491" lon="5.80219">
        <ele>552</ele>
        <time>2019-05-24T11:14:40Z</time>
      </trkpt>
      <trkpt lat="44.27495" lon="5.80214">
        <ele>553</ele>
        <time>2019-05-24T11:14:41Z</time>
      </trkpt>
      <trkpt lat="44.27499" lon="5.80208">
        <ele>553</ele>
        <time>2019-05-24T11:14:42Z</time>
      </trkpt>
      <trkpt lat="44.27502" lon="5.802">
        <ele>553</ele>
        <time>2019-05-24T11:14:43Z</time>
      </trkpt>
      <trkpt lat="44.27505" lon="5.80194">
        <ele>553</ele>
        <time>2019-05-24T11:14:44Z</time>
      </trkpt>
      <trkpt lat="44.27509" lon="5.80188">
        <ele>554</ele>
        <time>2019-05-24T11:14:45Z</time>
      </trkpt>
      <trkpt lat="44.27514" lon="5.80183">
        <ele>554</ele>
        <time>2019-05-24T11:14:46Z</time>
      </trkpt>
      <trkpt lat="44.27518" lon="5.80177">
        <ele>554</ele>
        <time>2019-05-24T11:14:47Z</time>
      </trkpt>
      <trkpt lat="44.27523" lon="5.80172">
        <ele>554</ele>
        <time>2019-05-24T11:14:48Z</time>
      </trkpt>
      <trkpt lat="44.27527" lon="5.80166">
        <ele>554</ele>
        <time>2019-05-24T11:14:49Z</time>
      </trkpt>
      <trkpt lat="44.27531" lon="5.8016">
        <ele>554</ele>
        <time>2019-05-24T11:14:50Z</time>
      </trkpt>
      <trkpt lat="44.27535" lon="5.80154">
        <ele>554</ele>
        <time>2019-05-24T11:14:51Z</time>
      </trkpt>
      <trkpt lat="44.27539" lon="5.80148">
        <ele>554</ele>
        <time>2019-05-24T11:14:52Z</time>
      </trkpt>
      <trkpt lat="44.27542" lon="5.80141">
        <ele>554</ele>
        <time>2019-05-24T11:14:53Z</time>
      </trkpt>
      <trkpt lat="44.27545" lon="5.80133">
        <ele>554</ele>
        <time>2019-05-24T11:14:54Z</time>
      </trkpt>
      <trkpt lat="44.27548" lon="5.80126">
        <ele>554</ele>
        <time>2019-05-24T11:14:55Z</time>
      </trkpt>
      <trkpt lat="44.27551" lon="5.80119">
        <ele>554</ele>
        <time>2019-05-24T11:14:56Z</time>
      </trkpt>
      <trkpt lat="44.27555" lon="5.80113">
        <ele>554</ele>
        <time>2019-05-24T11:14:57Z</time>
      </trkpt>
      <trkpt lat="44.27559" lon="5.80108">
        <ele>554</ele>
        <time>2019-05-24T11:14:58Z</time>
      </trkpt>
      <trkpt lat="44.27562" lon="5.80102">
        <ele>554</ele>
        <time>2019-05-24T11:14:59Z</time>
      </trkpt>
      <trkpt lat="44.27565" lon="5.80095">
        <ele>554</ele>
        <time>2019-05-24T11:15:00Z</time>
      </trkpt>
      <trkpt lat="44.27568" lon="5.80087">
        <ele>554</ele>
        <time>2019-05-24T11:15:01Z</time>
      </trkpt>
      <trkpt lat="44.27571" lon="5.8008">
        <ele>554</ele>
        <time>2019-05-24T11:15:02Z</time>
      </trkpt>
      <trkpt lat="44.27575" lon="5.80073">
        <ele>554</ele>
        <time>2019-05-24T11:15:03Z</time>
      </trkpt>
      <trkpt lat="44.27578" lon="5.80066">
        <ele>554</ele>
        <time>2019-05-24T11:15:04Z</time>
      </trkpt>
      <trkpt lat="44.27581" lon="5.80058">
        <ele>554</ele>
        <time>2019-05-24T11:15:05Z</time>
      </trkpt>
      <trkpt lat="44.27584" lon="5.80051">
        <ele>554</ele>
        <time>2019-05-24T11:15:06Z</time>
      </trkpt>
      <trkpt lat="44.27588" lon="5.80045">
        <ele>555</ele>
        <time>2019-05-24T11:15:07Z</time>
      </trkpt>
      <trkpt lat="44.27592" lon="5.80038">
        <ele>555</ele>
        <time>2019-05-24T11:15:08Z</time>
      </trkpt>
      <trkpt lat="44.27596" lon="5.80032">
        <ele>555</ele>
        <time>2019-05-24T11:15:09Z</time>
      </trkpt>
      <trkpt lat="44.27599" lon="5.80025">
        <ele>555</ele>
        <time>2019-05-24T11:15:10Z</time>
      </trkpt>
      <trkpt lat="44.27602" lon="5.80018">
        <ele>555</ele>
        <time>2019-05-24T11:15:11Z</time>
      </trkpt>
      <trkpt lat="44.27605" lon="5.80011">
        <ele>555</ele>
        <time>2019-05-24T11:15:12Z</time>
      </trkpt>
      <trkpt lat="44.27608" lon="5.80003">
        <ele>555</ele>
        <time>2019-05-24T11:15:13Z</time>
      </trkpt>
      <trkpt lat="44.27611" lon="5.79995">
        <ele>555</ele>
        <time>2019-05-24T11:15:14Z</time>
      </trkpt>
      <trkpt lat="44.27613" lon="5.79987">
        <ele>555</ele>
        <time>2019-05-24T11:15:15Z</time>
      </trkpt>
      <trkpt lat="44.27616" lon="5.7998">
        <ele>555</ele>
        <time>2019-05-24T11:15:16Z</time>
      </trkpt>
      <trkpt lat="44.27619" lon="5.79972">
        <ele>555</ele>
        <time>2019-05-24T11:15:17Z</time>
      </trkpt>
      <trkpt lat="44.27621" lon="5.79964">
        <ele>555</ele>
        <time>2019-05-24T11:15:18Z</time>
      </trkpt>
      <trkpt lat="44.27624" lon="5.79956">
        <ele>555</ele>
        <time>2019-05-24T11:15:19Z</time>
      </trkpt>
      <trkpt lat="44.27626" lon="5.7995">
        <ele>555</ele>
        <time>2019-05-24T11:15:20Z</time>
      </trkpt>
      <trkpt lat="44.27629" lon="5.79942">
        <ele>555</ele>
        <time>2019-05-24T11:15:21Z</time>
      </trkpt>
      <trkpt lat="44.27631" lon="5.79934">
        <ele>555</ele>
        <time>2019-05-24T11:15:22Z</time>
      </trkpt>
      <trkpt lat="44.27633" lon="5.79924">
        <ele>555</ele>
        <time>2019-05-24T11:15:23Z</time>
      </trkpt>
      <trkpt lat="44.27634" lon="5.79915">
        <ele>555</ele>
        <time>2019-05-24T11:15:24Z</time>
      </trkpt>
      <trkpt lat="44.27636" lon="5.79907">
        <ele>555</ele>
        <time>2019-05-24T11:15:25Z</time>
      </trkpt>
      <trkpt lat="44.27638" lon="5.79898">
        <ele>555</ele>
        <time>2019-05-24T11:15:26Z</time>
      </trkpt>
      <trkpt lat="44.2764" lon="5.7989">
        <ele>555</ele>
        <time>2019-05-24T11:15:27Z</time>
      </trkpt>
      <trkpt lat="44.27642" lon="5.79882">
        <ele>555</ele>
        <time>2019-05-24T11:15:28Z</time>
      </trkpt>
      <trkpt lat="44.27644" lon="5.79874">
        <ele>555</ele>
        <time>2019-05-24T11:15:29Z</time>
      </trkpt>
      <trkpt lat="44.27646" lon="5.79866">
        <ele>555</ele>
        <time>2019-05-24T11:15:30Z</time>
      </trkpt>
      <trkpt lat="44.27648" lon="5.79857">
        <ele>555</ele>
        <time>2019-05-24T11:15:31Z</time>
      </trkpt>
      <trkpt lat="44.2765" lon="5.79849">
        <ele>555</ele>
        <time>2019-05-24T11:15:32Z</time>
      </trkpt>
      <trkpt lat="44.27652" lon="5.7984">
        <ele>555</ele>
        <time>2019-05-24T11:15:33Z</time>
      </trkpt>
      <trkpt lat="44.27655" lon="5.79832">
        <ele>555</ele>
        <time>2019-05-24T11:15:34Z</time>
      </trkpt>
      <trkpt lat="44.27657" lon="5.79823">
        <ele>555</ele>
        <time>2019-05-24T11:15:35Z</time>
      </trkpt>
      <trkpt lat="44.27659" lon="5.79814">
        <ele>555</ele>
        <time>2019-05-24T11:15:36Z</time>
      </trkpt>
      <trkpt lat="44.27662" lon="5.79805">
        <ele>555</ele>
        <time>2019-05-24T11:15:37Z</time>
      </trkpt>
      <trkpt lat="44.27664" lon="5.79796">
        <ele>555</ele>
        <time>2019-05-24T11:15:38Z</time>
      </trkpt>
      <trkpt lat="44.27666" lon="5.79787">
        <ele>555</ele>
        <time>2019-05-24T11:15:39Z</time>
      </trkpt>
      <trkpt lat="44.27668" lon="5.79778">
        <ele>555</ele>
        <time>2019-05-24T11:15:40Z</time>
      </trkpt>
      <trkpt lat="44.27671" lon="5.7977">
        <ele>555</ele>
        <time>2019-05-24T11:15:41Z</time>
      </trkpt>
      <trkpt lat="44.27673" lon="5.79761">
        <ele>555</ele>
        <time>2019-05-24T11:15:42Z</time>
      </trkpt>
      <trkpt lat="44.27674" lon="5.79752">
        <ele>555</ele>
        <time>2019-05-24T11:15:43Z</time>
      </trkpt>
      <trkpt lat="44.27676" lon="5.79743">
        <ele>555</ele>
        <time>2019-05-24T11:15:44Z</time>
      </trkpt>
      <trkpt lat="44.27677" lon="5.79734">
        <ele>555</ele>
        <time>2019-05-24T11:15:45Z</time>
      </trkpt>
      <trkpt lat="44.27677" lon="5.79726">
        <ele>555</ele>
        <time>2019-05-24T11:15:46Z</time>
      </trkpt>
      <trkpt lat="44.27677" lon="5.79716">
        <ele>555</ele>
        <time>2019-05-24T11:15:47Z</time>
      </trkpt>
      <trkpt lat="44.27677" lon="5.79708">
        <ele>555</ele>
        <time>2019-05-24T11:15:48Z</time>
      </trkpt>
      <trkpt lat="44.27676" lon="5.79699">
        <ele>555</ele>
        <time>2019-05-24T11:15:49Z</time>
      </trkpt>
      <trkpt lat="44.27676" lon="5.79691">
        <ele>555</ele>
        <time>2019-05-24T11:15:50Z</time>
      </trkpt>
      <trkpt lat="44.27675" lon="5.79682">
        <ele>555</ele>
        <time>2019-05-24T11:15:51Z</time>
      </trkpt>
      <trkpt lat="44.27675" lon="5.79673">
        <ele>555</ele>
        <time>2019-05-24T11:15:52Z</time>
      </trkpt>
      <trkpt lat="44.27675" lon="5.79665">
        <ele>555</ele>
        <time>2019-05-24T11:15:53Z</time>
      </trkpt>
      <trkpt lat="44.27676" lon="5.79656">
        <ele>555</ele>
        <time>2019-05-24T11:15:54Z</time>
      </trkpt>
      <trkpt lat="44.27676" lon="5.79647">
        <ele>555</ele>
        <time>2019-05-24T11:15:55Z</time>
      </trkpt>
      <trkpt lat="44.27677" lon="5.79639">
        <ele>555</ele>
        <time>2019-05-24T11:15:56Z</time>
      </trkpt>
      <trkpt lat="44.27678" lon="5.7963">
        <ele>555</ele>
        <time>2019-05-24T11:15:57Z</time>
      </trkpt>
      <trkpt lat="44.27678" lon="5.79622">
        <ele>555</ele>
        <time>2019-05-24T11:15:58Z</time>
      </trkpt>
      <trkpt lat="44.27679" lon="5.79614">
        <ele>555</ele>
        <time>2019-05-24T11:15:59Z</time>
      </trkpt>
      <trkpt lat="44.27679" lon="5.79605">
        <ele>555</ele>
        <time>2019-05-24T11:16:00Z</time>
      </trkpt>
      <trkpt lat="44.2768" lon="5.79597">
        <ele>555</ele>
        <time>2019-05-24T11:16:01Z</time>
      </trkpt>
      <trkpt lat="44.27681" lon="5.79589">
        <ele>555</ele>
        <time>2019-05-24T11:16:02Z</time>
      </trkpt>
      <trkpt lat="44.27681" lon="5.7958">
        <ele>555</ele>
        <time>2019-05-24T11:16:03Z</time>
      </trkpt>
      <trkpt lat="44.27682" lon="5.79572">
        <ele>555</ele>
        <time>2019-05-24T11:16:04Z</time>
      </trkpt>
      <trkpt lat="44.27683" lon="5.79564">
        <ele>555</ele>
        <time>2019-05-24T11:16:05Z</time>
      </trkpt>
      <trkpt lat="44.27684" lon="5.79556">
        <ele>556</ele>
        <time>2019-05-24T11:16:06Z</time>
      </trkpt>
      <trkpt lat="44.27685" lon="5.79549">
        <ele>556</ele>
        <time>2019-05-24T11:16:07Z</time>
      </trkpt>
      <trkpt lat="44.27686" lon="5.79542">
        <ele>556</ele>
        <time>2019-05-24T11:16:08Z</time>
      </trkpt>
      <trkpt lat="44.27687" lon="5.79534">
        <ele>557</ele>
        <time>2019-05-24T11:16:09Z</time>
      </trkpt>
      <trkpt lat="44.27689" lon="5.79526">
        <ele>557</ele>
        <time>2019-05-24T11:16:10Z</time>
      </trkpt>
      <trkpt lat="44.2769" lon="5.79518">
        <ele>557</ele>
        <time>2019-05-24T11:16:11Z</time>
      </trkpt>
      <trkpt lat="44.27691" lon="5.7951">
        <ele>557</ele>
        <time>2019-05-24T11:16:12Z</time>
      </trkpt>
      <trkpt lat="44.27692" lon="5.79502">
        <ele>558</ele>
        <time>2019-05-24T11:16:13Z</time>
      </trkpt>
      <trkpt lat="44.27693" lon="5.79495">
        <ele>559</ele>
        <time>2019-05-24T11:16:14Z</time>
      </trkpt>
      <trkpt lat="44.27694" lon="5.79488">
        <ele>559</ele>
        <time>2019-05-24T11:16:15Z</time>
      </trkpt>
      <trkpt lat="44.27696" lon="5.7948">
        <ele>559</ele>
        <time>2019-05-24T11:16:16Z</time>
      </trkpt>
      <trkpt lat="44.27697" lon="5.79472">
        <ele>559</ele>
        <time>2019-05-24T11:16:17Z</time>
      </trkpt>
      <trkpt lat="44.27698" lon="5.79465">
        <ele>559</ele>
        <time>2019-05-24T11:16:18Z</time>
      </trkpt>
      <trkpt lat="44.27699" lon="5.79457">
        <ele>559</ele>
        <time>2019-05-24T11:16:19Z</time>
      </trkpt>
      <trkpt lat="44.277" lon="5.7945">
        <ele>559</ele>
        <time>2019-05-24T11:16:20Z</time>
      </trkpt>
      <trkpt lat="44.27702" lon="5.79441">
        <ele>560</ele>
        <time>2019-05-24T11:16:21Z</time>
      </trkpt>
      <trkpt lat="44.27705" lon="5.79434">
        <ele>560</ele>
        <time>2019-05-24T11:16:22Z</time>
      </trkpt>
      <trkpt lat="44.27707" lon="5.79427">
        <ele>560</ele>
        <time>2019-05-24T11:16:23Z</time>
      </trkpt>
      <trkpt lat="44.2771" lon="5.79421">
        <ele>560</ele>
        <time>2019-05-24T11:16:24Z</time>
      </trkpt>
      <trkpt lat="44.27713" lon="5.79414">
        <ele>561</ele>
        <time>2019-05-24T11:16:25Z</time>
      </trkpt>
      <trkpt lat="44.27716" lon="5.79407">
        <ele>561</ele>
        <time>2019-05-24T11:16:26Z</time>
      </trkpt>
      <trkpt lat="44.27719" lon="5.794">
        <ele>561</ele>
        <time>2019-05-24T11:16:27Z</time>
      </trkpt>
      <trkpt lat="44.27722" lon="5.79394">
        <ele>561</ele>
        <time>2019-05-24T11:16:28Z</time>
      </trkpt>
      <trkpt lat="44.27724" lon="5.79388">
        <ele>561</ele>
        <time>2019-05-24T11:16:29Z</time>
      </trkpt>
      <trkpt lat="44.27726" lon="5.79383">
        <ele>561</ele>
        <time>2019-05-24T11:16:30Z</time>
      </trkpt>
      <trkpt lat="44.27729" lon="5.79377">
        <ele>561</ele>
        <time>2019-05-24T11:16:31Z</time>
      </trkpt>
      <trkpt lat="44.27732" lon="5.79371">
        <ele>561</ele>
        <time>2019-05-24T11:16:32Z</time>
      </trkpt>
      <trkpt lat="44.27735" lon="5.79365">
        <ele>561</ele>
        <time>2019-05-24T11:16:33Z</time>
      </trkpt>
      <trkpt lat="44.27739" lon="5.7936">
        <ele>561</ele>
        <time>2019-05-24T11:16:34Z</time>
      </trkpt>
      <trkpt lat="44.27744" lon="5.79355">
        <ele>561</ele>
        <time>2019-05-24T11:16:35Z</time>
      </trkpt>
      <trkpt lat="44.27748" lon="5.79352">
        <ele>561</ele>
        <time>2019-05-24T11:16:36Z</time>
      </trkpt>
      <trkpt lat="44.27753" lon="5.79348">
        <ele>561</ele>
        <time>2019-05-24T11:16:37Z</time>
      </trkpt>
      <trkpt lat="44.27758" lon="5.79345">
        <ele>561</ele>
        <time>2019-05-24T11:16:38Z</time>
      </trkpt>
      <trkpt lat="44.27763" lon="5.79342">
        <ele>561</ele>
        <time>2019-05-24T11:16:39Z</time>
      </trkpt>
      <trkpt lat="44.27769" lon="5.7934">
        <ele>561</ele>
        <time>2019-05-24T11:16:40Z</time>
      </trkpt>
      <trkpt lat="44.27774" lon="5.79338">
        <ele>561</ele>
        <time>2019-05-24T11:16:41Z</time>
      </trkpt>
      <trkpt lat="44.2778" lon="5.79337">
        <ele>561</ele>
        <time>2019-05-24T11:16:42Z</time>
      </trkpt>
      <trkpt lat="44.27785" lon="5.79337">
        <ele>561</ele>
        <time>2019-05-24T11:16:43Z</time>
      </trkpt>
      <trkpt lat="44.2779" lon="5.79336">
        <ele>562</ele>
        <time>2019-05-24T11:16:44Z</time>
      </trkpt>
      <trkpt lat="44.27795" lon="5.79335">
        <ele>562</ele>
        <time>2019-05-24T11:16:45Z</time>
      </trkpt>
      <trkpt lat="44.278" lon="5.79333">
        <ele>562</ele>
        <time>2019-05-24T11:16:46Z</time>
      </trkpt>
      <trkpt lat="44.27805" lon="5.7933">
        <ele>562</ele>
        <time>2019-05-24T11:16:47Z</time>
      </trkpt>
      <trkpt lat="44.2781" lon="5.79327">
        <ele>562</ele>
        <time>2019-05-24T11:16:48Z</time>
      </trkpt>
      <trkpt lat="44.27814" lon="5.79323">
        <ele>562</ele>
        <time>2019-05-24T11:16:49Z</time>
      </trkpt>
      <trkpt lat="44.27818" lon="5.79318">
        <ele>562</ele>
        <time>2019-05-24T11:16:50Z</time>
      </trkpt>
      <trkpt lat="44.27821" lon="5.79312">
        <ele>562</ele>
        <time>2019-05-24T11:16:51Z</time>
      </trkpt>
      <trkpt lat="44.27824" lon="5.79305">
        <ele>563</ele>
        <time>2019-05-24T11:16:52Z</time>
      </trkpt>
      <trkpt lat="44.27827" lon="5.79299">
        <ele>563</ele>
        <time>2019-05-24T11:16:53Z</time>
      </trkpt>
      <trkpt lat="44.27829" lon="5.79292">
        <ele>564</ele>
        <time>2019-05-24T11:16:54Z</time>
      </trkpt>
      <trkpt lat="44.27833" lon="5.79286">
        <ele>565</ele>
        <time>2019-05-24T11:16:55Z</time>
      </trkpt>
      <trkpt lat="44.27836" lon="5.79279">
        <ele>566</ele>
        <time>2019-05-24T11:16:56Z</time>
      </trkpt>
      <trkpt lat="44.27839" lon="5.79272">
        <ele>567</ele>
        <time>2019-05-24T11:16:57Z</time>
      </trkpt>
      <trkpt lat="44.27841" lon="5.79266">
        <ele>568</ele>
        <time>2019-05-24T11:16:58Z</time>
      </trkpt>
      <trkpt lat="44.27844" lon="5.7926">
        <ele>569</ele>
        <time>2019-05-24T11:16:59Z</time>
      </trkpt>
      <trkpt lat="44.27847" lon="5.79254">
        <ele>569</ele>
        <time>2019-05-24T11:17:00Z</time>
      </trkpt>
      <trkpt lat="44.2785" lon="5.79247">
        <ele>569</ele>
        <time>2019-05-24T11:17:01Z</time>
      </trkpt>
      <trkpt lat="44.27852" lon="5.79239">
        <ele>570</ele>
        <time>2019-05-24T11:17:02Z</time>
      </trkpt>
      <trkpt lat="44.27855" lon="5.79234">
        <ele>570</ele>
        <time>2019-05-24T11:17:03Z</time>
      </trkpt>
      <trkpt lat="44.27858" lon="5.79229">
        <ele>570</ele>
        <time>2019-05-24T11:17:04Z</time>
      </trkpt>
      <trkpt lat="44.2786" lon="5.79222">
        <ele>570</ele>
        <time>2019-05-24T11:17:05Z</time>
      </trkpt>
      <trkpt lat="44.27861" lon="5.79215">
        <ele>570</ele>
        <time>2019-05-24T11:17:06Z</time>
      </trkpt>
      <trkpt lat="44.27862" lon="5.79208">
        <ele>570</ele>
        <time>2019-05-24T11:17:07Z</time>
      </trkpt>
      <trkpt lat="44.27863" lon="5.79201">
        <ele>570</ele>
        <time>2019-05-24T11:17:08Z</time>
      </trkpt>
      <trkpt lat="44.27863" lon="5.79193">
        <ele>570</ele>
        <time>2019-05-24T11:17:09Z</time>
      </trkpt>
      <trkpt lat="44.27864" lon="5.79185">
        <ele>570</ele>
        <time>2019-05-24T11:17:10Z</time>
      </trkpt>
      <trkpt lat="44.27864" lon="5.79177">
        <ele>571</ele>
        <time>2019-05-24T11:17:11Z</time>
      </trkpt>
      <trkpt lat="44.27865" lon="5.7917">
        <ele>571</ele>
        <time>2019-05-24T11:17:12Z</time>
      </trkpt>
      <trkpt lat="44.27864" lon="5.79163">
        <ele>571</ele>
        <time>2019-05-24T11:17:13Z</time>
      </trkpt>
      <trkpt lat="44.27862" lon="5.79156">
        <ele>571</ele>
        <time>2019-05-24T11:17:14Z</time>
      </trkpt>
      <trkpt lat="44.27861" lon="5.79149">
        <ele>571</ele>
        <time>2019-05-24T11:17:15Z</time>
      </trkpt>
      <trkpt lat="44.27858" lon="5.79143">
        <ele>571</ele>
        <time>2019-05-24T11:17:16Z</time>
      </trkpt>
      <trkpt lat="44.27851" lon="5.79125">
        <ele>571</ele>
        <time>2019-05-24T11:17:19Z</time>
      </trkpt>
      <trkpt lat="44.27848" lon="5.79118">
        <ele>571</ele>
        <time>2019-05-24T11:17:20Z</time>
      </trkpt>
      <trkpt lat="44.27839" lon="5.79115">
        <ele>571</ele>
        <time>2019-05-24T11:17:21Z</time>
      </trkpt>
      <trkpt lat="44.27838" lon="5.79108">
        <ele>572</ele>
        <time>2019-05-24T11:17:22Z</time>
      </trkpt>
      <trkpt lat="44.27837" lon="5.79101">
        <ele>572</ele>
        <time>2019-05-24T11:17:23Z</time>
      </trkpt>
      <trkpt lat="44.27834" lon="5.79088">
        <ele>572</ele>
        <time>2019-05-24T11:17:25Z</time>
      </trkpt>
      <trkpt lat="44.27831" lon="5.79083">
        <ele>573</ele>
        <time>2019-05-24T11:17:26Z</time>
      </trkpt>
      <trkpt lat="44.27821" lon="5.79069">
        <ele>573</ele>
        <time>2019-05-24T11:17:29Z</time>
      </trkpt>
      <trkpt lat="44.27816" lon="5.79065">
        <ele>573</ele>
        <time>2019-05-24T11:17:30Z</time>
      </trkpt>
      <trkpt lat="44.27813" lon="5.7906">
        <ele>573</ele>
        <time>2019-05-24T11:17:31Z</time>
      </trkpt>
      <trkpt lat="44.2781" lon="5.79055">
        <ele>573</ele>
        <time>2019-05-24T11:17:32Z</time>
      </trkpt>
      <trkpt lat="44.27807" lon="5.7905">
        <ele>574</ele>
        <time>2019-05-24T11:17:33Z</time>
      </trkpt>
      <trkpt lat="44.27805" lon="5.79044">
        <ele>574</ele>
        <time>2019-05-24T11:17:34Z</time>
      </trkpt>
      <trkpt lat="44.27805" lon="5.79038">
        <ele>574</ele>
        <time>2019-05-24T11:17:35Z</time>
      </trkpt>
      <trkpt lat="44.27805" lon="5.79032">
        <ele>574</ele>
        <time>2019-05-24T11:17:36Z</time>
      </trkpt>
      <trkpt lat="44.27807" lon="5.79026">
        <ele>575</ele>
        <time>2019-05-24T11:17:37Z</time>
      </trkpt>
      <trkpt lat="44.27809" lon="5.78997">
        <ele>576</ele>
        <time>2019-05-24T11:17:42Z</time>
      </trkpt>
      <trkpt lat="44.27816" lon="5.78995">
        <ele>577</ele>
        <time>2019-05-24T11:17:43Z</time>
      </trkpt>
      <trkpt lat="44.27826" lon="5.79006">
        <ele>578</ele>
        <time>2019-05-24T11:17:44Z</time>
      </trkpt>
      <trkpt lat="44.27835" lon="5.79015">
        <ele>578</ele>
        <time>2019-05-24T11:17:45Z</time>
      </trkpt>
      <trkpt lat="44.27842" lon="5.79017">
        <ele>578</ele>
        <time>2019-05-24T11:17:46Z</time>
      </trkpt>
      <trkpt lat="44.2785" lon="5.79021">
        <ele>578</ele>
        <time>2019-05-24T11:17:47Z</time>
      </trkpt>
      <trkpt lat="44.27858" lon="5.79025">
        <ele>578</ele>
        <time>2019-05-24T11:17:48Z</time>
      </trkpt>
      <trkpt lat="44.27866" lon="5.79025">
        <ele>578</ele>
        <time>2019-05-24T11:17:49Z</time>
      </trkpt>
      <trkpt lat="44.27873" lon="5.79025">
        <ele>578</ele>
        <time>2019-05-24T11:17:50Z</time>
      </trkpt>
      <trkpt lat="44.2788" lon="5.79025">
        <ele>578</ele>
        <time>2019-05-24T11:17:51Z</time>
      </trkpt>
      <trkpt lat="44.27888" lon="5.79024">
        <ele>577</ele>
        <time>2019-05-24T11:17:52Z</time>
      </trkpt>
      <trkpt lat="44.27895" lon="5.79022">
        <ele>577</ele>
        <time>2019-05-24T11:17:53Z</time>
      </trkpt>
      <trkpt lat="44.27902" lon="5.79019">
        <ele>577</ele>
        <time>2019-05-24T11:17:54Z</time>
      </trkpt>
      <trkpt lat="44.27908" lon="5.79015">
        <ele>577</ele>
        <time>2019-05-24T11:17:55Z</time>
      </trkpt>
      <trkpt lat="44.27914" lon="5.7901">
        <ele>577</ele>
        <time>2019-05-24T11:17:56Z</time>
      </trkpt>
      <trkpt lat="44.27921" lon="5.79006">
        <ele>577</ele>
        <time>2019-05-24T11:17:57Z</time>
      </trkpt>
      <trkpt lat="44.27927" lon="5.79002">
        <ele>577</ele>
        <time>2019-05-24T11:17:58Z</time>
      </trkpt>
      <trkpt lat="44.27933" lon="5.78997">
        <ele>577</ele>
        <time>2019-05-24T11:17:59Z</time>
      </trkpt>
      <trkpt lat="44.27938" lon="5.78991">
        <ele>577</ele>
        <time>2019-05-24T11:18:00Z</time>
      </trkpt>
      <trkpt lat="44.27944" lon="5.78984">
        <ele>577</ele>
        <time>2019-05-24T11:18:01Z</time>
      </trkpt>
      <trkpt lat="44.27949" lon="5.78977">
        <ele>577</ele>
        <time>2019-05-24T11:18:02Z</time>
      </trkpt>
      <trkpt lat="44.27953" lon="5.78968">
        <ele>577</ele>
        <time>2019-05-24T11:18:03Z</time>
      </trkpt>
      <trkpt lat="44.27956" lon="5.78959">
        <ele>577</ele>
        <time>2019-05-24T11:18:04Z</time>
      </trkpt>
      <trkpt lat="44.27959" lon="5.7895">
        <ele>577</ele>
        <time>2019-05-24T11:18:05Z</time>
      </trkpt>
      <trkpt lat="44.27961" lon="5.78941">
        <ele>577</ele>
        <time>2019-05-24T11:18:06Z</time>
      </trkpt>
      <trkpt lat="44.27963" lon="5.78931">
        <ele>577</ele>
        <time>2019-05-24T11:18:07Z</time>
      </trkpt>
      <trkpt lat="44.27964" lon="5.78921">
        <ele>577</ele>
        <time>2019-05-24T11:18:08Z</time>
      </trkpt>
      <trkpt lat="44.27965" lon="5.78911">
        <ele>577</ele>
        <time>2019-05-24T11:18:09Z</time>
      </trkpt>
      <trkpt lat="44.27965" lon="5.78901">
        <ele>577</ele>
        <time>2019-05-24T11:18:10Z</time>
      </trkpt>
      <trkpt lat="44.27965" lon="5.78894">
        <ele>577</ele>
        <time>2019-05-24T11:18:11Z</time>
      </trkpt>
      <trkpt lat="44.27965" lon="5.78886">
        <ele>576</ele>
        <time>2019-05-24T11:18:12Z</time>
      </trkpt>
      <trkpt lat="44.27965" lon="5.78875">
        <ele>575</ele>
        <time>2019-05-24T11:18:13Z</time>
      </trkpt>
      <trkpt lat="44.27964" lon="5.78865">
        <ele>574</ele>
        <time>2019-05-24T11:18:14Z</time>
      </trkpt>
      <trkpt lat="44.27963" lon="5.78855">
        <ele>573</ele>
        <time>2019-05-24T11:18:15Z</time>
      </trkpt>
      <trkpt lat="44.27961" lon="5.78844">
        <ele>573</ele>
        <time>2019-05-24T11:18:16Z</time>
      </trkpt>
      <trkpt lat="44.27959" lon="5.78834">
        <ele>573</ele>
        <time>2019-05-24T11:18:17Z</time>
      </trkpt>
      <trkpt lat="44.27957" lon="5.78824">
        <ele>573</ele>
        <time>2019-05-24T11:18:18Z</time>
      </trkpt>
      <trkpt lat="44.27955" lon="5.78813">
        <ele>573</ele>
        <time>2019-05-24T11:18:19Z</time>
      </trkpt>
      <trkpt lat="44.27952" lon="5.78803">
        <ele>573</ele>
        <time>2019-05-24T11:18:20Z</time>
      </trkpt>
      <trkpt lat="44.2795" lon="5.78793">
        <ele>573</ele>
        <time>2019-05-24T11:18:21Z</time>
      </trkpt>
      <trkpt lat="44.27947" lon="5.78784">
        <ele>573</ele>
        <time>2019-05-24T11:18:22Z</time>
      </trkpt>
      <trkpt lat="44.27943" lon="5.78775">
        <ele>573</ele>
        <time>2019-05-24T11:18:23Z</time>
      </trkpt>
      <trkpt lat="44.2794" lon="5.78766">
        <ele>573</ele>
        <time>2019-05-24T11:18:24Z</time>
      </trkpt>
      <trkpt lat="44.27937" lon="5.78756">
        <ele>573</ele>
        <time>2019-05-24T11:18:25Z</time>
      </trkpt>
      <trkpt lat="44.27935" lon="5.78746">
        <ele>573</ele>
        <time>2019-05-24T11:18:26Z</time>
      </trkpt>
      <trkpt lat="44.27932" lon="5.78736">
        <ele>573</ele>
        <time>2019-05-24T11:18:27Z</time>
      </trkpt>
      <trkpt lat="44.2793" lon="5.78726">
        <ele>573</ele>
        <time>2019-05-24T11:18:28Z</time>
      </trkpt>
      <trkpt lat="44.27928" lon="5.78716">
        <ele>573</ele>
        <time>2019-05-24T11:18:29Z</time>
      </trkpt>
      <trkpt lat="44.27926" lon="5.78706">
        <ele>573</ele>
        <time>2019-05-24T11:18:30Z</time>
      </trkpt>
      <trkpt lat="44.27924" lon="5.78695">
        <ele>573</ele>
        <time>2019-05-24T11:18:31Z</time>
      </trkpt>
      <trkpt lat="44.27925" lon="5.78685">
        <ele>573</ele>
        <time>2019-05-24T11:18:32Z</time>
      </trkpt>
      <trkpt lat="44.27925" lon="5.78675">
        <ele>573</ele>
        <time>2019-05-24T11:18:33Z</time>
      </trkpt>
      <trkpt lat="44.27927" lon="5.78664">
        <ele>573</ele>
        <time>2019-05-24T11:18:34Z</time>
      </trkpt>
      <trkpt lat="44.27931" lon="5.78654">
        <ele>573</ele>
        <time>2019-05-24T11:18:35Z</time>
      </trkpt>
      <trkpt lat="44.27937" lon="5.78645">
        <ele>573</ele>
        <time>2019-05-24T11:18:36Z</time>
      </trkpt>
      <trkpt lat="44.27943" lon="5.78636">
        <ele>573</ele>
        <time>2019-05-24T11:18:37Z</time>
      </trkpt>
      <trkpt lat="44.27948" lon="5.78627">
        <ele>573</ele>
        <time>2019-05-24T11:18:38Z</time>
      </trkpt>
      <trkpt lat="44.27952" lon="5.78617">
        <ele>573</ele>
        <time>2019-05-24T11:18:39Z</time>
      </trkpt>
      <trkpt lat="44.27955" lon="5.78607">
        <ele>573</ele>
        <time>2019-05-24T11:18:40Z</time>
      </trkpt>
      <trkpt lat="44.27958" lon="5.78597">
        <ele>573</ele>
        <time>2019-05-24T11:18:41Z</time>
      </trkpt>
      <trkpt lat="44.2796" lon="5.78586">
        <ele>573</ele>
        <time>2019-05-24T11:18:42Z</time>
      </trkpt>
      <trkpt lat="44.27962" lon="5.78576">
        <ele>573</ele>
        <time>2019-05-24T11:18:43Z</time>
      </trkpt>
      <trkpt lat="44.27963" lon="5.78566">
        <ele>573</ele>
        <time>2019-05-24T11:18:44Z</time>
      </trkpt>
      <trkpt lat="44.27963" lon="5.78555">
        <ele>573</ele>
        <time>2019-05-24T11:18:45Z</time>
      </trkpt>
      <trkpt lat="44.27964" lon="5.78544">
        <ele>573</ele>
        <time>2019-05-24T11:18:46Z</time>
      </trkpt>
      <trkpt lat="44.27964" lon="5.78533">
        <ele>573</ele>
        <time>2019-05-24T11:18:47Z</time>
      </trkpt>
      <trkpt lat="44.27964" lon="5.78522">
        <ele>573</ele>
        <time>2019-05-24T11:18:48Z</time>
      </trkpt>
      <trkpt lat="44.27964" lon="5.78512">
        <ele>573</ele>
        <time>2019-05-24T11:18:49Z</time>
      </trkpt>
      <trkpt lat="44.27963" lon="5.78503">
        <ele>573</ele>
        <time>2019-05-24T11:18:50Z</time>
      </trkpt>
      <trkpt lat="44.27962" lon="5.78493">
        <ele>573</ele>
        <time>2019-05-24T11:18:51Z</time>
      </trkpt>
      <trkpt lat="44.27962" lon="5.78483">
        <ele>573</ele>
        <time>2019-05-24T11:18:52Z</time>
      </trkpt>
      <trkpt lat="44.27961" lon="5.78474">
        <ele>573</ele>
        <time>2019-05-24T11:18:53Z</time>
      </trkpt>
      <trkpt lat="44.2796" lon="5.78464">
        <ele>573</ele>
        <time>2019-05-24T11:18:54Z</time>
      </trkpt>
      <trkpt lat="44.27959" lon="5.78454">
        <ele>573</ele>
        <time>2019-05-24T11:18:55Z</time>
      </trkpt>
      <trkpt lat="44.27957" lon="5.78444">
        <ele>573</ele>
        <time>2019-05-24T11:18:56Z</time>
      </trkpt>
      <trkpt lat="44.27956" lon="5.78434">
        <ele>573</ele>
        <time>2019-05-24T11:18:57Z</time>
      </trkpt>
      <trkpt lat="44.27954" lon="5.78424">
        <ele>573</ele>
        <time>2019-05-24T11:18:58Z</time>
      </trkpt>
      <trkpt lat="44.27952" lon="5.78414">
        <ele>573</ele>
        <time>2019-05-24T11:18:59Z</time>
      </trkpt>
      <trkpt lat="44.27951" lon="5.78404">
        <ele>573</ele>
        <time>2019-05-24T11:19:00Z</time>
      </trkpt>
      <trkpt lat="44.2795" lon="5.78395">
        <ele>573</ele>
        <time>2019-05-24T11:19:01Z</time>
      </trkpt>
      <trkpt lat="44.27948" lon="5.78385">
        <ele>573</ele>
        <time>2019-05-24T11:19:02Z</time>
      </trkpt>
      <trkpt lat="44.27946" lon="5.78376">
        <ele>573</ele>
        <time>2019-05-24T11:19:03Z</time>
      </trkpt>
      <trkpt lat="44.27945" lon="5.78367">
        <ele>573</ele>
        <time>2019-05-24T11:19:04Z</time>
      </trkpt>
      <trkpt lat="44.27943" lon="5.78357">
        <ele>573</ele>
        <time>2019-05-24T11:19:05Z</time>
      </trkpt>
      <trkpt lat="44.27941" lon="5.78347">
        <ele>573</ele>
        <time>2019-05-24T11:19:06Z</time>
      </trkpt>
      <trkpt lat="44.27938" lon="5.78337">
        <ele>573</ele>
        <time>2019-05-24T11:19:07Z</time>
      </trkpt>
      <trkpt lat="44.27935" lon="5.78328">
        <ele>573</ele>
        <time>2019-05-24T11:19:08Z</time>
      </trkpt>
      <trkpt lat="44.27932" lon="5.78318">
        <ele>573</ele>
        <time>2019-05-24T11:19:09Z</time>
      </trkpt>
      <trkpt lat="44.27931" lon="5.78308">
        <ele>573</ele>
        <time>2019-05-24T11:19:10Z</time>
      </trkpt>
      <trkpt lat="44.27929" lon="5.78299">
        <ele>573</ele>
        <time>2019-05-24T11:19:11Z</time>
      </trkpt>
      <trkpt lat="44.27927" lon="5.7829">
        <ele>573</ele>
        <time>2019-05-24T11:19:12Z</time>
      </trkpt>
      <trkpt lat="44.27924" lon="5.7828">
        <ele>573</ele>
        <time>2019-05-24T11:19:13Z</time>
      </trkpt>
      <trkpt lat="44.27921" lon="5.78272">
        <ele>573</ele>
        <time>2019-05-24T11:19:14Z</time>
      </trkpt>
      <trkpt lat="44.27918" lon="5.78264">
        <ele>573</ele>
        <time>2019-05-24T11:19:15Z</time>
      </trkpt>
      <trkpt lat="44.27915" lon="5.78256">
        <ele>573</ele>
        <time>2019-05-24T11:19:16Z</time>
      </trkpt>
      <trkpt lat="44.27912" lon="5.7825">
        <ele>573</ele>
        <time>2019-05-24T11:19:17Z</time>
      </trkpt>
      <trkpt lat="44.27908" lon="5.78243">
        <ele>573</ele>
        <time>2019-05-24T11:19:18Z</time>
      </trkpt>
      <trkpt lat="44.27904" lon="5.78236">
        <ele>573</ele>
        <time>2019-05-24T11:19:19Z</time>
      </trkpt>
      <trkpt lat="44.27901" lon="5.78229">
        <ele>573</ele>
        <time>2019-05-24T11:19:20Z</time>
      </trkpt>
      <trkpt lat="44.27898" lon="5.78222">
        <ele>573</ele>
        <time>2019-05-24T11:19:21Z</time>
      </trkpt>
      <trkpt lat="44.27894" lon="5.78215">
        <ele>573</ele>
        <time>2019-05-24T11:19:22Z</time>
      </trkpt>
      <trkpt lat="44.2789" lon="5.78208">
        <ele>573</ele>
        <time>2019-05-24T11:19:23Z</time>
      </trkpt>
      <trkpt lat="44.27885" lon="5.78202">
        <ele>573</ele>
        <time>2019-05-24T11:19:24Z</time>
      </trkpt>
      <trkpt lat="44.27879" lon="5.78197">
        <ele>573</ele>
        <time>2019-05-24T11:19:25Z</time>
      </trkpt>
      <trkpt lat="44.27873" lon="5.78193">
        <ele>573</ele>
        <time>2019-05-24T11:19:26Z</time>
      </trkpt>
      <trkpt lat="44.27867" lon="5.7819">
        <ele>573</ele>
        <time>2019-05-24T11:19:27Z</time>
      </trkpt>
      <trkpt lat="44.2786" lon="5.78188">
        <ele>573</ele>
        <time>2019-05-24T11:19:28Z</time>
      </trkpt>
      <trkpt lat="44.27853" lon="5.78187">
        <ele>573</ele>
        <time>2019-05-24T11:19:29Z</time>
      </trkpt>
      <trkpt lat="44.27846" lon="5.78186">
        <ele>573</ele>
        <time>2019-05-24T11:19:30Z</time>
      </trkpt>
      <trkpt lat="44.2784" lon="5.78186">
        <ele>573</ele>
        <time>2019-05-24T11:19:31Z</time>
      </trkpt>
      <trkpt lat="44.27834" lon="5.78187">
        <ele>573</ele>
        <time>2019-05-24T11:19:32Z</time>
      </trkpt>
      <trkpt lat="44.27828" lon="5.78189">
        <ele>574</ele>
        <time>2019-05-24T11:19:33Z</time>
      </trkpt>
      <trkpt lat="44.27822" lon="5.78191">
        <ele>574</ele>
        <time>2019-05-24T11:19:34Z</time>
      </trkpt>
      <trkpt lat="44.27816" lon="5.78194">
        <ele>574</ele>
        <time>2019-05-24T11:19:35Z</time>
      </trkpt>
      <trkpt lat="44.2781" lon="5.78197">
        <ele>574</ele>
        <time>2019-05-24T11:19:36Z</time>
      </trkpt>
      <trkpt lat="44.27804" lon="5.782">
        <ele>574</ele>
        <time>2019-05-24T11:19:37Z</time>
      </trkpt>
      <trkpt lat="44.27799" lon="5.78204">
        <ele>574</ele>
        <time>2019-05-24T11:19:38Z</time>
      </trkpt>
      <trkpt lat="44.27794" lon="5.78209">
        <ele>574</ele>
        <time>2019-05-24T11:19:39Z</time>
      </trkpt>
      <trkpt lat="44.27789" lon="5.78214">
        <ele>574</ele>
        <time>2019-05-24T11:19:40Z</time>
      </trkpt>
      <trkpt lat="44.27784" lon="5.78218">
        <ele>575</ele>
        <time>2019-05-24T11:19:41Z</time>
      </trkpt>
      <trkpt lat="44.27778" lon="5.78223">
        <ele>575</ele>
        <time>2019-05-24T11:19:42Z</time>
      </trkpt>
      <trkpt lat="44.27773" lon="5.78228">
        <ele>575</ele>
        <time>2019-05-24T11:19:43Z</time>
      </trkpt>
      <trkpt lat="44.27768" lon="5.78233">
        <ele>575</ele>
        <time>2019-05-24T11:19:44Z</time>
      </trkpt>
      <trkpt lat="44.27763" lon="5.78238">
        <ele>575</ele>
        <time>2019-05-24T11:19:45Z</time>
      </trkpt>
      <trkpt lat="44.27759" lon="5.78243">
        <ele>575</ele>
        <time>2019-05-24T11:19:46Z</time>
      </trkpt>
      <trkpt lat="44.27753" lon="5.78249">
        <ele>575</ele>
        <time>2019-05-24T11:19:47Z</time>
      </trkpt>
      <trkpt lat="44.27749" lon="5.78254">
        <ele>576</ele>
        <time>2019-05-24T11:19:48Z</time>
      </trkpt>
      <trkpt lat="44.27744" lon="5.7826">
        <ele>576</ele>
        <time>2019-05-24T11:19:49Z</time>
      </trkpt>
      <trkpt lat="44.27739" lon="5.78265">
        <ele>576</ele>
        <time>2019-05-24T11:19:50Z</time>
      </trkpt>
      <trkpt lat="44.27734" lon="5.78271">
        <ele>576</ele>
        <time>2019-05-24T11:19:51Z</time>
      </trkpt>
      <trkpt lat="44.27729" lon="5.78276">
        <ele>576</ele>
        <time>2019-05-24T11:19:52Z</time>
      </trkpt>
      <trkpt lat="44.27724" lon="5.78281">
        <ele>576</ele>
        <time>2019-05-24T11:19:53Z</time>
      </trkpt>
      <trkpt lat="44.27719" lon="5.78286">
        <ele>576</ele>
        <time>2019-05-24T11:19:54Z</time>
      </trkpt>
      <trkpt lat="44.27714" lon="5.78291">
        <ele>576</ele>
        <time>2019-05-24T11:19:55Z</time>
      </trkpt>
      <trkpt lat="44.2771" lon="5.78296">
        <ele>576</ele>
        <time>2019-05-24T11:19:56Z</time>
      </trkpt>
      <trkpt lat="44.27705" lon="5.78302">
        <ele>576</ele>
        <time>2019-05-24T11:19:57Z</time>
      </trkpt>
      <trkpt lat="44.277" lon="5.78307">
        <ele>576</ele>
        <time>2019-05-24T11:19:58Z</time>
      </trkpt>
      <trkpt lat="44.27696" lon="5.78312">
        <ele>576</ele>
        <time>2019-05-24T11:19:59Z</time>
      </trkpt>
      <trkpt lat="44.27691" lon="5.78317">
        <ele>576</ele>
        <time>2019-05-24T11:20:00Z</time>
      </trkpt>
      <trkpt lat="44.27686" lon="5.78322">
        <ele>576</ele>
        <time>2019-05-24T11:20:01Z</time>
      </trkpt>
      <trkpt lat="44.27682" lon="5.78327">
        <ele>577</ele>
        <time>2019-05-24T11:20:02Z</time>
      </trkpt>
      <trkpt lat="44.27677" lon="5.78332">
        <ele>577</ele>
        <time>2019-05-24T11:20:03Z</time>
      </trkpt>
      <trkpt lat="44.27673" lon="5.78336">
        <ele>577</ele>
        <time>2019-05-24T11:20:04Z</time>
      </trkpt>
      <trkpt lat="44.27668" lon="5.7834">
        <ele>577</ele>
        <time>2019-05-24T11:20:05Z</time>
      </trkpt>
      <trkpt lat="44.27663" lon="5.78343">
        <ele>577</ele>
        <time>2019-05-24T11:20:06Z</time>
      </trkpt>
      <trkpt lat="44.27657" lon="5.78347">
        <ele>577</ele>
        <time>2019-05-24T11:20:07Z</time>
      </trkpt>
      <trkpt lat="44.27652" lon="5.7835">
        <ele>577</ele>
        <time>2019-05-24T11:20:08Z</time>
      </trkpt>
      <trkpt lat="44.27647" lon="5.78355">
        <ele>578</ele>
        <time>2019-05-24T11:20:09Z</time>
      </trkpt>
      <trkpt lat="44.27642" lon="5.78359">
        <ele>579</ele>
        <time>2019-05-24T11:20:10Z</time>
      </trkpt>
      <trkpt lat="44.27637" lon="5.78362">
        <ele>579</ele>
        <time>2019-05-24T11:20:11Z</time>
      </trkpt>
      <trkpt lat="44.27633" lon="5.78366">
        <ele>579</ele>
        <time>2019-05-24T11:20:12Z</time>
      </trkpt>
      <trkpt lat="44.27628" lon="5.7837">
        <ele>579</ele>
        <time>2019-05-24T11:20:13Z</time>
      </trkpt>
      <trkpt lat="44.27623" lon="5.78373">
        <ele>579</ele>
        <time>2019-05-24T11:20:14Z</time>
      </trkpt>
      <trkpt lat="44.27618" lon="5.78377">
        <ele>579</ele>
        <time>2019-05-24T11:20:15Z</time>
      </trkpt>
      <trkpt lat="44.27612" lon="5.78381">
        <ele>579</ele>
        <time>2019-05-24T11:20:16Z</time>
      </trkpt>
      <trkpt lat="44.27607" lon="5.78385">
        <ele>579</ele>
        <time>2019-05-24T11:20:17Z</time>
      </trkpt>
      <trkpt lat="44.27602" lon="5.78389">
        <ele>579</ele>
        <time>2019-05-24T11:20:18Z</time>
      </trkpt>
      <trkpt lat="44.27596" lon="5.78393">
        <ele>579</ele>
        <time>2019-05-24T11:20:19Z</time>
      </trkpt>
      <trkpt lat="44.27591" lon="5.78396">
        <ele>579</ele>
        <time>2019-05-24T11:20:20Z</time>
      </trkpt>
      <trkpt lat="44.27586" lon="5.784">
        <ele>579</ele>
        <time>2019-05-24T11:20:21Z</time>
      </trkpt>
      <trkpt lat="44.2758" lon="5.78402">
        <ele>579</ele>
        <time>2019-05-24T11:20:22Z</time>
      </trkpt>
      <trkpt lat="44.27575" lon="5.78405">
        <ele>579</ele>
        <time>2019-05-24T11:20:23Z</time>
      </trkpt>
      <trkpt lat="44.2757" lon="5.78407">
        <ele>579</ele>
        <time>2019-05-24T11:20:24Z</time>
      </trkpt>
      <trkpt lat="44.27565" lon="5.78409">
        <ele>579</ele>
        <time>2019-05-24T11:20:25Z</time>
      </trkpt>
      <trkpt lat="44.27559" lon="5.78411">
        <ele>579</ele>
        <time>2019-05-24T11:20:26Z</time>
      </trkpt>
      <trkpt lat="44.27554" lon="5.78413">
        <ele>579</ele>
        <time>2019-05-24T11:20:27Z</time>
      </trkpt>
      <trkpt lat="44.27547" lon="5.78415">
        <ele>579</ele>
        <time>2019-05-24T11:20:28Z</time>
      </trkpt>
      <trkpt lat="44.27541" lon="5.78417">
        <ele>579</ele>
        <time>2019-05-24T11:20:29Z</time>
      </trkpt>
      <trkpt lat="44.27536" lon="5.78416">
        <ele>579</ele>
        <time>2019-05-24T11:20:30Z</time>
      </trkpt>
      <trkpt lat="44.2753" lon="5.78415">
        <ele>579</ele>
        <time>2019-05-24T11:20:31Z</time>
      </trkpt>
      <trkpt lat="44.27524" lon="5.78413">
        <ele>579</ele>
        <time>2019-05-24T11:20:32Z</time>
      </trkpt>
      <trkpt lat="44.27518" lon="5.78411">
        <ele>579</ele>
        <time>2019-05-24T11:20:33Z</time>
      </trkpt>
      <trkpt lat="44.27512" lon="5.78408">
        <ele>579</ele>
        <time>2019-05-24T11:20:34Z</time>
      </trkpt>
      <trkpt lat="44.27507" lon="5.78405">
        <ele>580</ele>
        <time>2019-05-24T11:20:35Z</time>
      </trkpt>
      <trkpt lat="44.27502" lon="5.78402">
        <ele>580</ele>
        <time>2019-05-24T11:20:36Z</time>
      </trkpt>
      <trkpt lat="44.27496" lon="5.78398">
        <ele>580</ele>
        <time>2019-05-24T11:20:37Z</time>
      </trkpt>
      <trkpt lat="44.27491" lon="5.78394">
        <ele>580</ele>
        <time>2019-05-24T11:20:38Z</time>
      </trkpt>
      <trkpt lat="44.27486" lon="5.78389">
        <ele>580</ele>
        <time>2019-05-24T11:20:39Z</time>
      </trkpt>
      <trkpt lat="44.27482" lon="5.78384">
        <ele>581</ele>
        <time>2019-05-24T11:20:40Z</time>
      </trkpt>
      <trkpt lat="44.27478" lon="5.78378">
        <ele>581</ele>
        <time>2019-05-24T11:20:41Z</time>
      </trkpt>
      <trkpt lat="44.27474" lon="5.78372">
        <ele>581</ele>
        <time>2019-05-24T11:20:42Z</time>
      </trkpt>
      <trkpt lat="44.27471" lon="5.78366">
        <ele>581</ele>
        <time>2019-05-24T11:20:43Z</time>
      </trkpt>
      <trkpt lat="44.27469" lon="5.78359">
        <ele>581</ele>
        <time>2019-05-24T11:20:44Z</time>
      </trkpt>
      <trkpt lat="44.27468" lon="5.78351">
        <ele>581</ele>
        <time>2019-05-24T11:20:45Z</time>
      </trkpt>
      <trkpt lat="44.27469" lon="5.78344">
        <ele>581</ele>
        <time>2019-05-24T11:20:46Z</time>
      </trkpt>
      <trkpt lat="44.2747" lon="5.78338">
        <ele>582</ele>
        <time>2019-05-24T11:20:47Z</time>
      </trkpt>
      <trkpt lat="44.27472" lon="5.78332">
        <ele>582</ele>
        <time>2019-05-24T11:20:48Z</time>
      </trkpt>
      <trkpt lat="44.27476" lon="5.78325">
        <ele>583</ele>
        <time>2019-05-24T11:20:49Z</time>
      </trkpt>
      <trkpt lat="44.27479" lon="5.78319">
        <ele>584</ele>
        <time>2019-05-24T11:20:50Z</time>
      </trkpt>
      <trkpt lat="44.27483" lon="5.78312">
        <ele>585</ele>
        <time>2019-05-24T11:20:51Z</time>
      </trkpt>
      <trkpt lat="44.27488" lon="5.78305">
        <ele>586</ele>
        <time>2019-05-24T11:20:52Z</time>
      </trkpt>
      <trkpt lat="44.27493" lon="5.783">
        <ele>587</ele>
        <time>2019-05-24T11:20:53Z</time>
      </trkpt>
      <trkpt lat="44.27497" lon="5.78295">
        <ele>588</ele>
        <time>2019-05-24T11:20:54Z</time>
      </trkpt>
      <trkpt lat="44.27502" lon="5.78291">
        <ele>589</ele>
        <time>2019-05-24T11:20:55Z</time>
      </trkpt>
      <trkpt lat="44.27507" lon="5.78286">
        <ele>590</ele>
        <time>2019-05-24T11:20:56Z</time>
      </trkpt>
      <trkpt lat="44.27513" lon="5.78283">
        <ele>591</ele>
        <time>2019-05-24T11:20:57Z</time>
      </trkpt>
      <trkpt lat="44.27518" lon="5.7828">
        <ele>591</ele>
        <time>2019-05-24T11:20:58Z</time>
      </trkpt>
      <trkpt lat="44.27524" lon="5.78277">
        <ele>592</ele>
        <time>2019-05-24T11:20:59Z</time>
      </trkpt>
      <trkpt lat="44.27529" lon="5.78273">
        <ele>593</ele>
        <time>2019-05-24T11:21:00Z</time>
      </trkpt>
      <trkpt lat="44.27534" lon="5.78269">
        <ele>593</ele>
        <time>2019-05-24T11:21:01Z</time>
      </trkpt>
      <trkpt lat="44.27539" lon="5.78264">
        <ele>593</ele>
        <time>2019-05-24T11:21:02Z</time>
      </trkpt>
      <trkpt lat="44.27542" lon="5.78258">
        <ele>593</ele>
        <time>2019-05-24T11:21:03Z</time>
      </trkpt>
      <trkpt lat="44.27545" lon="5.78251">
        <ele>593</ele>
        <time>2019-05-24T11:21:04Z</time>
      </trkpt>
      <trkpt lat="44.27547" lon="5.78244">
        <ele>593</ele>
        <time>2019-05-24T11:21:05Z</time>
      </trkpt>
      <trkpt lat="44.27548" lon="5.78236">
        <ele>593</ele>
        <time>2019-05-24T11:21:06Z</time>
      </trkpt>
      <trkpt lat="44.27549" lon="5.78227">
        <ele>593</ele>
        <time>2019-05-24T11:21:07Z</time>
      </trkpt>
      <trkpt lat="44.27548" lon="5.78219">
        <ele>593</ele>
        <time>2019-05-24T11:21:08Z</time>
      </trkpt>
      <trkpt lat="44.27547" lon="5.78211">
        <ele>593</ele>
        <time>2019-05-24T11:21:09Z</time>
      </trkpt>
      <trkpt lat="44.27546" lon="5.78204">
        <ele>593</ele>
        <time>2019-05-24T11:21:10Z</time>
      </trkpt>
      <trkpt lat="44.27544" lon="5.78196">
        <ele>593</ele>
        <time>2019-05-24T11:21:11Z</time>
      </trkpt>
      <trkpt lat="44.27542" lon="5.78188">
        <ele>593</ele>
        <time>2019-05-24T11:21:12Z</time>
      </trkpt>
      <trkpt lat="44.27539" lon="5.78182">
        <ele>593</ele>
        <time>2019-05-24T11:21:13Z</time>
      </trkpt>
      <trkpt lat="44.27536" lon="5.78175">
        <ele>593</ele>
        <time>2019-05-24T11:21:14Z</time>
      </trkpt>
      <trkpt lat="44.27533" lon="5.78169">
        <ele>593</ele>
        <time>2019-05-24T11:21:15Z</time>
      </trkpt>
      <trkpt lat="44.2753" lon="5.78164">
        <ele>593</ele>
        <time>2019-05-24T11:21:16Z</time>
      </trkpt>
      <trkpt lat="44.27525" lon="5.78159">
        <ele>593</ele>
        <time>2019-05-24T11:21:17Z</time>
      </trkpt>
      <trkpt lat="44.27522" lon="5.78154">
        <ele>593</ele>
        <time>2019-05-24T11:21:18Z</time>
      </trkpt>
      <trkpt lat="44.27517" lon="5.78148">
        <ele>592</ele>
        <time>2019-05-24T11:21:19Z</time>
      </trkpt>
      <trkpt lat="44.27513" lon="5.78143">
        <ele>592</ele>
        <time>2019-05-24T11:21:20Z</time>
      </trkpt>
      <trkpt lat="44.27509" lon="5.78137">
        <ele>592</ele>
        <time>2019-05-24T11:21:21Z</time>
      </trkpt>
      <trkpt lat="44.27504" lon="5.78132">
        <ele>592</ele>
        <time>2019-05-24T11:21:22Z</time>
      </trkpt>
      <trkpt lat="44.275" lon="5.78127">
        <ele>592</ele>
        <time>2019-05-24T11:21:23Z</time>
      </trkpt>
      <trkpt lat="44.27496" lon="5.78121">
        <ele>592</ele>
        <time>2019-05-24T11:21:24Z</time>
      </trkpt>
      <trkpt lat="44.27491" lon="5.78116">
        <ele>592</ele>
        <time>2019-05-24T11:21:25Z</time>
      </trkpt>
      <trkpt lat="44.27487" lon="5.78111">
        <ele>592</ele>
        <time>2019-05-24T11:21:26Z</time>
      </trkpt>
      <trkpt lat="44.27481" lon="5.78105">
        <ele>592</ele>
        <time>2019-05-24T11:21:27Z</time>
      </trkpt>
      <trkpt lat="44.27476" lon="5.781">
        <ele>592</ele>
        <time>2019-05-24T11:21:28Z</time>
      </trkpt>
      <trkpt lat="44.27471" lon="5.78094">
        <ele>592</ele>
        <time>2019-05-24T11:21:29Z</time>
      </trkpt>
      <trkpt lat="44.27466" lon="5.78089">
        <ele>592</ele>
        <time>2019-05-24T11:21:30Z</time>
      </trkpt>
      <trkpt lat="44.27461" lon="5.78084">
        <ele>592</ele>
        <time>2019-05-24T11:21:31Z</time>
      </trkpt>
      <trkpt lat="44.27457" lon="5.78079">
        <ele>592</ele>
        <time>2019-05-24T11:21:32Z</time>
      </trkpt>
      <trkpt lat="44.27453" lon="5.78074">
        <ele>592</ele>
        <time>2019-05-24T11:21:33Z</time>
      </trkpt>
      <trkpt lat="44.27449" lon="5.78069">
        <ele>592</ele>
        <time>2019-05-24T11:21:34Z</time>
      </trkpt>
      <trkpt lat="44.27445" lon="5.78064">
        <ele>592</ele>
        <time>2019-05-24T11:21:35Z</time>
      </trkpt>
      <trkpt lat="44.27441" lon="5.78059">
        <ele>592</ele>
        <time>2019-05-24T11:21:36Z</time>
      </trkpt>
      <trkpt lat="44.27436" lon="5.78053">
        <ele>592</ele>
        <time>2019-05-24T11:21:37Z</time>
      </trkpt>
      <trkpt lat="44.27432" lon="5.78047">
        <ele>592</ele>
        <time>2019-05-24T11:21:38Z</time>
      </trkpt>
      <trkpt lat="44.27428" lon="5.7804">
        <ele>592</ele>
        <time>2019-05-24T11:21:39Z</time>
      </trkpt>
      <trkpt lat="44.27423" lon="5.78033">
        <ele>592</ele>
        <time>2019-05-24T11:21:40Z</time>
      </trkpt>
      <trkpt lat="44.2742" lon="5.78025">
        <ele>592</ele>
        <time>2019-05-24T11:21:41Z</time>
      </trkpt>
      <trkpt lat="44.27417" lon="5.78017">
        <ele>592</ele>
        <time>2019-05-24T11:21:42Z</time>
      </trkpt>
      <trkpt lat="44.27415" lon="5.78008">
        <ele>592</ele>
        <time>2019-05-24T11:21:43Z</time>
      </trkpt>
      <trkpt lat="44.27413" lon="5.77999">
        <ele>592</ele>
        <time>2019-05-24T11:21:44Z</time>
      </trkpt>
      <trkpt lat="44.27412" lon="5.7799">
        <ele>592</ele>
        <time>2019-05-24T11:21:45Z</time>
      </trkpt>
      <trkpt lat="44.27412" lon="5.77981">
        <ele>592</ele>
        <time>2019-05-24T11:21:46Z</time>
      </trkpt>
      <trkpt lat="44.27411" lon="5.77971">
        <ele>592</ele>
        <time>2019-05-24T11:21:47Z</time>
      </trkpt>
      <trkpt lat="44.27411" lon="5.77962">
        <ele>592</ele>
        <time>2019-05-24T11:21:48Z</time>
      </trkpt>
      <trkpt lat="44.27411" lon="5.77952">
        <ele>592</ele>
        <time>2019-05-24T11:21:49Z</time>
      </trkpt>
      <trkpt lat="44.2741" lon="5.77943">
        <ele>592</ele>
        <time>2019-05-24T11:21:50Z</time>
      </trkpt>
      <trkpt lat="44.27408" lon="5.77933">
        <ele>592</ele>
        <time>2019-05-24T11:21:51Z</time>
      </trkpt>
      <trkpt lat="44.27406" lon="5.77923">
        <ele>592</ele>
        <time>2019-05-24T11:21:52Z</time>
      </trkpt>
      <trkpt lat="44.27403" lon="5.77915">
        <ele>592</ele>
        <time>2019-05-24T11:21:53Z</time>
      </trkpt>
      <trkpt lat="44.274" lon="5.77907">
        <ele>592</ele>
        <time>2019-05-24T11:21:54Z</time>
      </trkpt>
      <trkpt lat="44.27397" lon="5.779">
        <ele>592</ele>
        <time>2019-05-24T11:21:55Z</time>
      </trkpt>
      <trkpt lat="44.27392" lon="5.77893">
        <ele>592</ele>
        <time>2019-05-24T11:21:56Z</time>
      </trkpt>
      <trkpt lat="44.27386" lon="5.77887">
        <ele>593</ele>
        <time>2019-05-24T11:21:57Z</time>
      </trkpt>
      <trkpt lat="44.27381" lon="5.7788">
        <ele>593</ele>
        <time>2019-05-24T11:21:58Z</time>
      </trkpt>
      <trkpt lat="44.27375" lon="5.77874">
        <ele>594</ele>
        <time>2019-05-24T11:21:59Z</time>
      </trkpt>
      <trkpt lat="44.27369" lon="5.77867">
        <ele>595</ele>
        <time>2019-05-24T11:22:00Z</time>
      </trkpt>
      <trkpt lat="44.27364" lon="5.77861">
        <ele>596</ele>
        <time>2019-05-24T11:22:01Z</time>
      </trkpt>
      <trkpt lat="44.27358" lon="5.77855">
        <ele>596</ele>
        <time>2019-05-24T11:22:02Z</time>
      </trkpt>
      <trkpt lat="44.27353" lon="5.77849">
        <ele>596</ele>
        <time>2019-05-24T11:22:03Z</time>
      </trkpt>
      <trkpt lat="44.27347" lon="5.77843">
        <ele>597</ele>
        <time>2019-05-24T11:22:04Z</time>
      </trkpt>
      <trkpt lat="44.2734" lon="5.77838">
        <ele>597</ele>
        <time>2019-05-24T11:22:05Z</time>
      </trkpt>
      <trkpt lat="44.27334" lon="5.77833">
        <ele>597</ele>
        <time>2019-05-24T11:22:06Z</time>
      </trkpt>
      <trkpt lat="44.27327" lon="5.77828">
        <ele>597</ele>
        <time>2019-05-24T11:22:07Z</time>
      </trkpt>
      <trkpt lat="44.27321" lon="5.77823">
        <ele>597</ele>
        <time>2019-05-24T11:22:08Z</time>
      </trkpt>
      <trkpt lat="44.27316" lon="5.77818">
        <ele>597</ele>
        <time>2019-05-24T11:22:09Z</time>
      </trkpt>
      <trkpt lat="44.2731" lon="5.77812">
        <ele>597</ele>
        <time>2019-05-24T11:22:10Z</time>
      </trkpt>
      <trkpt lat="44.27305" lon="5.77807">
        <ele>597</ele>
        <time>2019-05-24T11:22:11Z</time>
      </trkpt>
      <trkpt lat="44.27302" lon="5.778">
        <ele>597</ele>
        <time>2019-05-24T11:22:12Z</time>
      </trkpt>
      <trkpt lat="44.27298" lon="5.77792">
        <ele>597</ele>
        <time>2019-05-24T11:22:13Z</time>
      </trkpt>
      <trkpt lat="44.27296" lon="5.77782">
        <ele>597</ele>
        <time>2019-05-24T11:22:14Z</time>
      </trkpt>
      <trkpt lat="44.27296" lon="5.77771">
        <ele>597</ele>
        <time>2019-05-24T11:22:15Z</time>
      </trkpt>
      <trkpt lat="44.27295" lon="5.77761">
        <ele>597</ele>
        <time>2019-05-24T11:22:16Z</time>
      </trkpt>
      <trkpt lat="44.27292" lon="5.77751">
        <ele>597</ele>
        <time>2019-05-24T11:22:17Z</time>
      </trkpt>
      <trkpt lat="44.27288" lon="5.77742">
        <ele>597</ele>
        <time>2019-05-24T11:22:18Z</time>
      </trkpt>
      <trkpt lat="44.27284" lon="5.77736">
        <ele>597</ele>
        <time>2019-05-24T11:22:19Z</time>
      </trkpt>
      <trkpt lat="44.27278" lon="5.77732">
        <ele>597</ele>
        <time>2019-05-24T11:22:20Z</time>
      </trkpt>
      <trkpt lat="44.27272" lon="5.7773">
        <ele>596</ele>
        <time>2019-05-24T11:22:21Z</time>
      </trkpt>
      <trkpt lat="44.27265" lon="5.77731">
        <ele>595</ele>
        <time>2019-05-24T11:22:22Z</time>
      </trkpt>
      <trkpt lat="44.27259" lon="5.77733">
        <ele>595</ele>
        <time>2019-05-24T11:22:23Z</time>
      </trkpt>
      <trkpt lat="44.27253" lon="5.77735">
        <ele>595</ele>
        <time>2019-05-24T11:22:24Z</time>
      </trkpt>
      <trkpt lat="44.27246" lon="5.77737">
        <ele>595</ele>
        <time>2019-05-24T11:22:25Z</time>
      </trkpt>
      <trkpt lat="44.27241" lon="5.77739">
        <ele>595</ele>
        <time>2019-05-24T11:22:26Z</time>
      </trkpt>
      <trkpt lat="44.27235" lon="5.77741">
        <ele>595</ele>
        <time>2019-05-24T11:22:27Z</time>
      </trkpt>
      <trkpt lat="44.27229" lon="5.77743">
        <ele>594</ele>
        <time>2019-05-24T11:22:28Z</time>
      </trkpt>
      <trkpt lat="44.27223" lon="5.77744">
        <ele>594</ele>
        <time>2019-05-24T11:22:29Z</time>
      </trkpt>
      <trkpt lat="44.27217" lon="5.77743">
        <ele>594</ele>
        <time>2019-05-24T11:22:30Z</time>
      </trkpt>
      <trkpt lat="44.27211" lon="5.77741">
        <ele>594</ele>
        <time>2019-05-24T11:22:31Z</time>
      </trkpt>
      <trkpt lat="44.27205" lon="5.77737">
        <ele>594</ele>
        <time>2019-05-24T11:22:32Z</time>
      </trkpt>
      <trkpt lat="44.272" lon="5.77733">
        <ele>594</ele>
        <time>2019-05-24T11:22:33Z</time>
      </trkpt>
      <trkpt lat="44.27194" lon="5.7773">
        <ele>594</ele>
        <time>2019-05-24T11:22:34Z</time>
      </trkpt>
      <trkpt lat="44.27189" lon="5.77726">
        <ele>594</ele>
        <time>2019-05-24T11:22:35Z</time>
      </trkpt>
      <trkpt lat="44.27183" lon="5.77722">
        <ele>594</ele>
        <time>2019-05-24T11:22:36Z</time>
      </trkpt>
      <trkpt lat="44.27178" lon="5.77718">
        <ele>594</ele>
        <time>2019-05-24T11:22:37Z</time>
      </trkpt>
      <trkpt lat="44.27172" lon="5.77713">
        <ele>594</ele>
        <time>2019-05-24T11:22:38Z</time>
      </trkpt>
      <trkpt lat="44.27166" lon="5.77709">
        <ele>594</ele>
        <time>2019-05-24T11:22:39Z</time>
      </trkpt>
      <trkpt lat="44.27161" lon="5.77705">
        <ele>594</ele>
        <time>2019-05-24T11:22:40Z</time>
      </trkpt>
      <trkpt lat="44.27155" lon="5.77701">
        <ele>594</ele>
        <time>2019-05-24T11:22:41Z</time>
      </trkpt>
      <trkpt lat="44.2715" lon="5.77697">
        <ele>594</ele>
        <time>2019-05-24T11:22:42Z</time>
      </trkpt>
      <trkpt lat="44.27144" lon="5.77693">
        <ele>594</ele>
        <time>2019-05-24T11:22:43Z</time>
      </trkpt>
      <trkpt lat="44.27138" lon="5.77688">
        <ele>594</ele>
        <time>2019-05-24T11:22:44Z</time>
      </trkpt>
      <trkpt lat="44.27134" lon="5.77682">
        <ele>594</ele>
        <time>2019-05-24T11:22:45Z</time>
      </trkpt>
      <trkpt lat="44.27131" lon="5.77676">
        <ele>594</ele>
        <time>2019-05-24T11:22:46Z</time>
      </trkpt>
      <trkpt lat="44.27129" lon="5.77669">
        <ele>594</ele>
        <time>2019-05-24T11:22:47Z</time>
      </trkpt>
      <trkpt lat="44.27128" lon="5.77662">
        <ele>594</ele>
        <time>2019-05-24T11:22:48Z</time>
      </trkpt>
      <trkpt lat="44.27127" lon="5.77653">
        <ele>594</ele>
        <time>2019-05-24T11:22:49Z</time>
      </trkpt>
      <trkpt lat="44.27127" lon="5.77645">
        <ele>595</ele>
        <time>2019-05-24T11:22:50Z</time>
      </trkpt>
      <trkpt lat="44.27128" lon="5.77637">
        <ele>596</ele>
        <time>2019-05-24T11:22:51Z</time>
      </trkpt>
      <trkpt lat="44.27128" lon="5.77629">
        <ele>597</ele>
        <time>2019-05-24T11:22:52Z</time>
      </trkpt>
      <trkpt lat="44.27127" lon="5.77621">
        <ele>598</ele>
        <time>2019-05-24T11:22:53Z</time>
      </trkpt>
      <trkpt lat="44.27127" lon="5.77612">
        <ele>598</ele>
        <time>2019-05-24T11:22:54Z</time>
      </trkpt>
      <trkpt lat="44.27126" lon="5.77604">
        <ele>598</ele>
        <time>2019-05-24T11:22:55Z</time>
      </trkpt>
      <trkpt lat="44.27125" lon="5.77595">
        <ele>598</ele>
        <time>2019-05-24T11:22:56Z</time>
      </trkpt>
      <trkpt lat="44.27125" lon="5.77587">
        <ele>598</ele>
        <time>2019-05-24T11:22:57Z</time>
      </trkpt>
      <trkpt lat="44.27124" lon="5.77577">
        <ele>598</ele>
        <time>2019-05-24T11:22:58Z</time>
      </trkpt>
      <trkpt lat="44.27123" lon="5.77569">
        <ele>598</ele>
        <time>2019-05-24T11:22:59Z</time>
      </trkpt>
      <trkpt lat="44.27121" lon="5.7756">
        <ele>598</ele>
        <time>2019-05-24T11:23:00Z</time>
      </trkpt>
      <trkpt lat="44.27118" lon="5.77552">
        <ele>598</ele>
        <time>2019-05-24T11:23:01Z</time>
      </trkpt>
      <trkpt lat="44.27114" lon="5.77545">
        <ele>599</ele>
        <time>2019-05-24T11:23:02Z</time>
      </trkpt>
      <trkpt lat="44.2711" lon="5.77538">
        <ele>599</ele>
        <time>2019-05-24T11:23:03Z</time>
      </trkpt>
      <trkpt lat="44.27103" lon="5.77524">
        <ele>599</ele>
        <time>2019-05-24T11:23:05Z</time>
      </trkpt>
      <trkpt lat="44.27098" lon="5.77518">
        <ele>600</ele>
        <time>2019-05-24T11:23:06Z</time>
      </trkpt>
      <trkpt lat="44.27095" lon="5.77512">
        <ele>600</ele>
        <time>2019-05-24T11:23:07Z</time>
      </trkpt>
      <trkpt lat="44.2709" lon="5.77506">
        <ele>600</ele>
        <time>2019-05-24T11:23:08Z</time>
      </trkpt>
      <trkpt lat="44.27086" lon="5.77501">
        <ele>600</ele>
        <time>2019-05-24T11:23:09Z</time>
      </trkpt>
      <trkpt lat="44.27081" lon="5.77495">
        <ele>600</ele>
        <time>2019-05-24T11:23:10Z</time>
      </trkpt>
      <trkpt lat="44.27074" lon="5.7749">
        <ele>600</ele>
        <time>2019-05-24T11:23:11Z</time>
      </trkpt>
      <trkpt lat="44.27069" lon="5.77487">
        <ele>600</ele>
        <time>2019-05-24T11:23:12Z</time>
      </trkpt>
      <trkpt lat="44.27063" lon="5.77486">
        <ele>600</ele>
        <time>2019-05-24T11:23:13Z</time>
      </trkpt>
      <trkpt lat="44.27056" lon="5.77485">
        <ele>600</ele>
        <time>2019-05-24T11:23:14Z</time>
      </trkpt>
      <trkpt lat="44.2705" lon="5.77484">
        <ele>600</ele>
        <time>2019-05-24T11:23:15Z</time>
      </trkpt>
      <trkpt lat="44.27045" lon="5.77482">
        <ele>600</ele>
        <time>2019-05-24T11:23:16Z</time>
      </trkpt>
      <trkpt lat="44.27039" lon="5.77479">
        <ele>600</ele>
        <time>2019-05-24T11:23:17Z</time>
      </trkpt>
      <trkpt lat="44.27033" lon="5.77475">
        <ele>600</ele>
        <time>2019-05-24T11:23:18Z</time>
      </trkpt>
      <trkpt lat="44.27029" lon="5.77472">
        <ele>600</ele>
        <time>2019-05-24T11:23:19Z</time>
      </trkpt>
      <trkpt lat="44.27025" lon="5.77466">
        <ele>600</ele>
        <time>2019-05-24T11:23:20Z</time>
      </trkpt>
      <trkpt lat="44.27019" lon="5.77459">
        <ele>600</ele>
        <time>2019-05-24T11:23:21Z</time>
      </trkpt>
      <trkpt lat="44.27014" lon="5.77453">
        <ele>600</ele>
        <time>2019-05-24T11:23:22Z</time>
      </trkpt>
      <trkpt lat="44.27009" lon="5.77448">
        <ele>600</ele>
        <time>2019-05-24T11:23:23Z</time>
      </trkpt>
      <trkpt lat="44.27003" lon="5.77444">
        <ele>600</ele>
        <time>2019-05-24T11:23:24Z</time>
      </trkpt>
      <trkpt lat="44.26997" lon="5.77442">
        <ele>600</ele>
        <time>2019-05-24T11:23:25Z</time>
      </trkpt>
      <trkpt lat="44.2699" lon="5.77441">
        <ele>600</ele>
        <time>2019-05-24T11:23:26Z</time>
      </trkpt>
      <trkpt lat="44.26984" lon="5.77442">
        <ele>600</ele>
        <time>2019-05-24T11:23:27Z</time>
      </trkpt>
      <trkpt lat="44.26977" lon="5.77444">
        <ele>601</ele>
        <time>2019-05-24T11:23:28Z</time>
      </trkpt>
      <trkpt lat="44.2697" lon="5.77446">
        <ele>601</ele>
        <time>2019-05-24T11:23:29Z</time>
      </trkpt>
      <trkpt lat="44.26963" lon="5.77449">
        <ele>601</ele>
        <time>2019-05-24T11:23:30Z</time>
      </trkpt>
      <trkpt lat="44.26957" lon="5.77453">
        <ele>601</ele>
        <time>2019-05-24T11:23:31Z</time>
      </trkpt>
      <trkpt lat="44.2695" lon="5.77455">
        <ele>601</ele>
        <time>2019-05-24T11:23:32Z</time>
      </trkpt>
      <trkpt lat="44.26944" lon="5.77458">
        <ele>601</ele>
        <time>2019-05-24T11:23:33Z</time>
      </trkpt>
      <trkpt lat="44.26937" lon="5.77459">
        <ele>601</ele>
        <time>2019-05-24T11:23:34Z</time>
      </trkpt>
      <trkpt lat="44.2693" lon="5.77462">
        <ele>601</ele>
        <time>2019-05-24T11:23:35Z</time>
      </trkpt>
      <trkpt lat="44.26924" lon="5.77466">
        <ele>601</ele>
        <time>2019-05-24T11:23:36Z</time>
      </trkpt>
      <trkpt lat="44.26918" lon="5.77471">
        <ele>601</ele>
        <time>2019-05-24T11:23:37Z</time>
      </trkpt>
      <trkpt lat="44.26911" lon="5.77476">
        <ele>601</ele>
        <time>2019-05-24T11:23:38Z</time>
      </trkpt>
      <trkpt lat="44.26905" lon="5.77481">
        <ele>601</ele>
        <time>2019-05-24T11:23:39Z</time>
      </trkpt>
      <trkpt lat="44.26899" lon="5.77486">
        <ele>601</ele>
        <time>2019-05-24T11:23:40Z</time>
      </trkpt>
      <trkpt lat="44.26893" lon="5.77491">
        <ele>601</ele>
        <time>2019-05-24T11:23:41Z</time>
      </trkpt>
      <trkpt lat="44.26887" lon="5.77496">
        <ele>601</ele>
        <time>2019-05-24T11:23:42Z</time>
      </trkpt>
      <trkpt lat="44.26881" lon="5.77501">
        <ele>601</ele>
        <time>2019-05-24T11:23:43Z</time>
      </trkpt>
      <trkpt lat="44.26875" lon="5.77506">
        <ele>601</ele>
        <time>2019-05-24T11:23:44Z</time>
      </trkpt>
      <trkpt lat="44.26868" lon="5.77511">
        <ele>601</ele>
        <time>2019-05-24T11:23:45Z</time>
      </trkpt>
      <trkpt lat="44.26862" lon="5.77516">
        <ele>601</ele>
        <time>2019-05-24T11:23:46Z</time>
      </trkpt>
      <trkpt lat="44.26855" lon="5.77521">
        <ele>601</ele>
        <time>2019-05-24T11:23:47Z</time>
      </trkpt>
      <trkpt lat="44.26849" lon="5.77525">
        <ele>601</ele>
        <time>2019-05-24T11:23:48Z</time>
      </trkpt>
      <trkpt lat="44.26843" lon="5.77528">
        <ele>601</ele>
        <time>2019-05-24T11:23:49Z</time>
      </trkpt>
      <trkpt lat="44.26836" lon="5.77532">
        <ele>601</ele>
        <time>2019-05-24T11:23:50Z</time>
      </trkpt>
      <trkpt lat="44.26829" lon="5.77536">
        <ele>601</ele>
        <time>2019-05-24T11:23:51Z</time>
      </trkpt>
      <trkpt lat="44.26822" lon="5.77539">
        <ele>601</ele>
        <time>2019-05-24T11:23:52Z</time>
      </trkpt>
      <trkpt lat="44.26815" lon="5.77542">
        <ele>601</ele>
        <time>2019-05-24T11:23:53Z</time>
      </trkpt>
      <trkpt lat="44.26808" lon="5.77546">
        <ele>601</ele>
        <time>2019-05-24T11:23:54Z</time>
      </trkpt>
      <trkpt lat="44.26802" lon="5.77551">
        <ele>601</ele>
        <time>2019-05-24T11:23:55Z</time>
      </trkpt>
      <trkpt lat="44.26795" lon="5.77554">
        <ele>601</ele>
        <time>2019-05-24T11:23:56Z</time>
      </trkpt>
      <trkpt lat="44.26788" lon="5.77557">
        <ele>601</ele>
        <time>2019-05-24T11:23:57Z</time>
      </trkpt>
      <trkpt lat="44.2678" lon="5.77558">
        <ele>601</ele>
        <time>2019-05-24T11:23:58Z</time>
      </trkpt>
      <trkpt lat="44.26771" lon="5.77558">
        <ele>601</ele>
        <time>2019-05-24T11:23:59Z</time>
      </trkpt>
      <trkpt lat="44.26762" lon="5.77556">
        <ele>601</ele>
        <time>2019-05-24T11:24:00Z</time>
      </trkpt>
      <trkpt lat="44.26754" lon="5.77553">
        <ele>601</ele>
        <time>2019-05-24T11:24:01Z</time>
      </trkpt>
      <trkpt lat="44.26745" lon="5.7755">
        <ele>601</ele>
        <time>2019-05-24T11:24:02Z</time>
      </trkpt>
      <trkpt lat="44.26738" lon="5.77544">
        <ele>601</ele>
        <time>2019-05-24T11:24:03Z</time>
      </trkpt>
      <trkpt lat="44.26733" lon="5.77537">
        <ele>601</ele>
        <time>2019-05-24T11:24:04Z</time>
      </trkpt>
      <trkpt lat="44.26731" lon="5.77528">
        <ele>602</ele>
        <time>2019-05-24T11:24:05Z</time>
      </trkpt>
      <trkpt lat="44.26728" lon="5.77519">
        <ele>603</ele>
        <time>2019-05-24T11:24:06Z</time>
      </trkpt>
      <trkpt lat="44.26725" lon="5.7751">
        <ele>604</ele>
        <time>2019-05-24T11:24:07Z</time>
      </trkpt>
      <trkpt lat="44.26718" lon="5.77499">
        <ele>604</ele>
        <time>2019-05-24T11:24:08Z</time>
      </trkpt>
      <trkpt lat="44.26715" lon="5.77489">
        <ele>604</ele>
        <time>2019-05-24T11:24:09Z</time>
      </trkpt>
      <trkpt lat="44.26711" lon="5.77479">
        <ele>604</ele>
        <time>2019-05-24T11:24:10Z</time>
      </trkpt>
      <trkpt lat="44.26707" lon="5.7747">
        <ele>604</ele>
        <time>2019-05-24T11:24:11Z</time>
      </trkpt>
      <trkpt lat="44.26706" lon="5.7746">
        <ele>604</ele>
        <time>2019-05-24T11:24:12Z</time>
      </trkpt>
      <trkpt lat="44.26705" lon="5.7745">
        <ele>604</ele>
        <time>2019-05-24T11:24:13Z</time>
      </trkpt>
      <trkpt lat="44.26701" lon="5.77441">
        <ele>604</ele>
        <time>2019-05-24T11:24:14Z</time>
      </trkpt>
      <trkpt lat="44.26698" lon="5.77431">
        <ele>604</ele>
        <time>2019-05-24T11:24:15Z</time>
      </trkpt>
      <trkpt lat="44.26696" lon="5.77422">
        <ele>604</ele>
        <time>2019-05-24T11:24:16Z</time>
      </trkpt>
      <trkpt lat="44.26691" lon="5.77414">
        <ele>604</ele>
        <time>2019-05-24T11:24:17Z</time>
      </trkpt>
      <trkpt lat="44.26687" lon="5.77406">
        <ele>604</ele>
        <time>2019-05-24T11:24:18Z</time>
      </trkpt>
      <trkpt lat="44.26682" lon="5.77398">
        <ele>604</ele>
        <time>2019-05-24T11:24:19Z</time>
      </trkpt>
      <trkpt lat="44.26678" lon="5.77391">
        <ele>604</ele>
        <time>2019-05-24T11:24:20Z</time>
      </trkpt>
      <trkpt lat="44.26674" lon="5.77383">
        <ele>604</ele>
        <time>2019-05-24T11:24:21Z</time>
      </trkpt>
      <trkpt lat="44.26669" lon="5.77374">
        <ele>604</ele>
        <time>2019-05-24T11:24:22Z</time>
      </trkpt>
      <trkpt lat="44.26665" lon="5.77365">
        <ele>604</ele>
        <time>2019-05-24T11:24:23Z</time>
      </trkpt>
      <trkpt lat="44.26663" lon="5.77355">
        <ele>604</ele>
        <time>2019-05-24T11:24:24Z</time>
      </trkpt>
      <trkpt lat="44.26661" lon="5.77345">
        <ele>604</ele>
        <time>2019-05-24T11:24:25Z</time>
      </trkpt>
      <trkpt lat="44.26658" lon="5.77337">
        <ele>604</ele>
        <time>2019-05-24T11:24:26Z</time>
      </trkpt>
      <trkpt lat="44.26654" lon="5.7733">
        <ele>604</ele>
        <time>2019-05-24T11:24:27Z</time>
      </trkpt>
      <trkpt lat="44.26649" lon="5.77323">
        <ele>604</ele>
        <time>2019-05-24T11:24:28Z</time>
      </trkpt>
      <trkpt lat="44.26644" lon="5.77317">
        <ele>604</ele>
        <time>2019-05-24T11:24:29Z</time>
      </trkpt>
      <trkpt lat="44.26643" lon="5.77311">
        <ele>604</ele>
        <time>2019-05-24T11:24:30Z</time>
      </trkpt>
      <trkpt lat="44.26638" lon="5.77306">
        <ele>604</ele>
        <time>2019-05-24T11:24:31Z</time>
      </trkpt>
      <trkpt lat="44.26633" lon="5.77301">
        <ele>604</ele>
        <time>2019-05-24T11:24:32Z</time>
      </trkpt>
      <trkpt lat="44.26628" lon="5.77295">
        <ele>605</ele>
        <time>2019-05-24T11:24:33Z</time>
      </trkpt>
      <trkpt lat="44.26621" lon="5.77291">
        <ele>605</ele>
        <time>2019-05-24T11:24:34Z</time>
      </trkpt>
      <trkpt lat="44.26615" lon="5.77287">
        <ele>606</ele>
        <time>2019-05-24T11:24:35Z</time>
      </trkpt>
      <trkpt lat="44.26609" lon="5.77282">
        <ele>607</ele>
        <time>2019-05-24T11:24:36Z</time>
      </trkpt>
      <trkpt lat="44.26604" lon="5.77278">
        <ele>608</ele>
        <time>2019-05-24T11:24:37Z</time>
      </trkpt>
      <trkpt lat="44.266" lon="5.77273">
        <ele>609</ele>
        <time>2019-05-24T11:24:38Z</time>
      </trkpt>
      <trkpt lat="44.26593" lon="5.77264">
        <ele>610</ele>
        <time>2019-05-24T11:24:39Z</time>
      </trkpt>
      <trkpt lat="44.26588" lon="5.77254">
        <ele>610</ele>
        <time>2019-05-24T11:24:40Z</time>
      </trkpt>
      <trkpt lat="44.26585" lon="5.77245">
        <ele>610</ele>
        <time>2019-05-24T11:24:41Z</time>
      </trkpt>
      <trkpt lat="44.26585" lon="5.77235">
        <ele>610</ele>
        <time>2019-05-24T11:24:42Z</time>
      </trkpt>
      <trkpt lat="44.26586" lon="5.77226">
        <ele>610</ele>
        <time>2019-05-24T11:24:43Z</time>
      </trkpt>
      <trkpt lat="44.2659" lon="5.77218">
        <ele>610</ele>
        <time>2019-05-24T11:24:44Z</time>
      </trkpt>
      <trkpt lat="44.26595" lon="5.77211">
        <ele>610</ele>
        <time>2019-05-24T11:24:45Z</time>
      </trkpt>
      <trkpt lat="44.26603" lon="5.77206">
        <ele>610</ele>
        <time>2019-05-24T11:24:46Z</time>
      </trkpt>
      <trkpt lat="44.2661" lon="5.77201">
        <ele>610</ele>
        <time>2019-05-24T11:24:47Z</time>
      </trkpt>
      <trkpt lat="44.26617" lon="5.77195">
        <ele>610</ele>
        <time>2019-05-24T11:24:48Z</time>
      </trkpt>
      <trkpt lat="44.26623" lon="5.77189">
        <ele>610</ele>
        <time>2019-05-24T11:24:49Z</time>
      </trkpt>
      <trkpt lat="44.26629" lon="5.77183">
        <ele>610</ele>
        <time>2019-05-24T11:24:50Z</time>
      </trkpt>
      <trkpt lat="44.26635" lon="5.77176">
        <ele>610</ele>
        <time>2019-05-24T11:24:51Z</time>
      </trkpt>
      <trkpt lat="44.2664" lon="5.7717">
        <ele>610</ele>
        <time>2019-05-24T11:24:52Z</time>
      </trkpt>
      <trkpt lat="44.26646" lon="5.77163">
        <ele>610</ele>
        <time>2019-05-24T11:24:53Z</time>
      </trkpt>
      <trkpt lat="44.26651" lon="5.77156">
        <ele>610</ele>
        <time>2019-05-24T11:24:54Z</time>
      </trkpt>
      <trkpt lat="44.26656" lon="5.77149">
        <ele>610</ele>
        <time>2019-05-24T11:24:55Z</time>
      </trkpt>
      <trkpt lat="44.26662" lon="5.77142">
        <ele>610</ele>
        <time>2019-05-24T11:24:56Z</time>
      </trkpt>
      <trkpt lat="44.26667" lon="5.77136">
        <ele>610</ele>
        <time>2019-05-24T11:24:57Z</time>
      </trkpt>
      <trkpt lat="44.26672" lon="5.77129">
        <ele>610</ele>
        <time>2019-05-24T11:24:58Z</time>
      </trkpt>
      <trkpt lat="44.26677" lon="5.77122">
        <ele>610</ele>
        <time>2019-05-24T11:24:59Z</time>
      </trkpt>
      <trkpt lat="44.26683" lon="5.77115">
        <ele>610</ele>
        <time>2019-05-24T11:25:00Z</time>
      </trkpt>
      <trkpt lat="44.26687" lon="5.77108">
        <ele>610</ele>
        <time>2019-05-24T11:25:01Z</time>
      </trkpt>
      <trkpt lat="44.26692" lon="5.771">
        <ele>610</ele>
        <time>2019-05-24T11:25:02Z</time>
      </trkpt>
      <trkpt lat="44.26696" lon="5.77092">
        <ele>610</ele>
        <time>2019-05-24T11:25:03Z</time>
      </trkpt>
      <trkpt lat="44.267" lon="5.77084">
        <ele>609</ele>
        <time>2019-05-24T11:25:04Z</time>
      </trkpt>
      <trkpt lat="44.26703" lon="5.77076">
        <ele>609</ele>
        <time>2019-05-24T11:25:05Z</time>
      </trkpt>
      <trkpt lat="44.26706" lon="5.77067">
        <ele>609</ele>
        <time>2019-05-24T11:25:06Z</time>
      </trkpt>
      <trkpt lat="44.26708" lon="5.77058">
        <ele>609</ele>
        <time>2019-05-24T11:25:07Z</time>
      </trkpt>
      <trkpt lat="44.26709" lon="5.77049">
        <ele>609</ele>
        <time>2019-05-24T11:25:08Z</time>
      </trkpt>
      <trkpt lat="44.26712" lon="5.7703">
        <ele>609</ele>
        <time>2019-05-24T11:25:10Z</time>
      </trkpt>
      <trkpt lat="44.26712" lon="5.77018">
        <ele>609</ele>
        <time>2019-05-24T11:25:11Z</time>
      </trkpt>
      <trkpt lat="44.26713" lon="5.77009">
        <ele>609</ele>
        <time>2019-05-24T11:25:12Z</time>
      </trkpt>
      <trkpt lat="44.26715" lon="5.77001">
        <ele>609</ele>
        <time>2019-05-24T11:25:13Z</time>
      </trkpt>
      <trkpt lat="44.26715" lon="5.76994">
        <ele>609</ele>
        <time>2019-05-24T11:25:14Z</time>
      </trkpt>
      <trkpt lat="44.26715" lon="5.76987">
        <ele>609</ele>
        <time>2019-05-24T11:25:15Z</time>
      </trkpt>
      <trkpt lat="44.26709" lon="5.76964">
        <ele>609</ele>
        <time>2019-05-24T11:25:18Z</time>
      </trkpt>
      <trkpt lat="44.26654" lon="5.76927">
        <ele>609</ele>
        <time>2019-05-24T11:25:27Z</time>
      </trkpt>
      <trkpt lat="44.26637" lon="5.76927">
        <ele>609</ele>
        <time>2019-05-24T11:25:28Z</time>
      </trkpt>
      <trkpt lat="44.26624" lon="5.76925">
        <ele>609</ele>
        <time>2019-05-24T11:25:29Z</time>
      </trkpt>
      <trkpt lat="44.26608" lon="5.76922">
        <ele>609</ele>
        <time>2019-05-24T11:25:31Z</time>
      </trkpt>
      <trkpt lat="44.266" lon="5.76921">
        <ele>609</ele>
        <time>2019-05-24T11:25:31Z</time>
      </trkpt>
      <trkpt lat="44.26582" lon="5.7692">
        <ele>609</ele>
        <time>2019-05-24T11:25:34Z</time>
      </trkpt>
      <trkpt lat="44.26573" lon="5.7692">
        <ele>609</ele>
        <time>2019-05-24T11:25:35Z</time>
      </trkpt>
      <trkpt lat="44.26564" lon="5.76919">
        <ele>609</ele>
        <time>2019-05-24T11:25:36Z</time>
      </trkpt>
      <trkpt lat="44.26555" lon="5.76918">
        <ele>609</ele>
        <time>2019-05-24T11:25:37Z</time>
      </trkpt>
      <trkpt lat="44.26546" lon="5.76915">
        <ele>609</ele>
        <time>2019-05-24T11:25:38Z</time>
      </trkpt>
      <trkpt lat="44.26546" lon="5.76912">
        <ele>609</ele>
        <time>2019-05-24T11:25:39Z</time>
      </trkpt>
      <trkpt lat="44.26546" lon="5.76908">
        <ele>609</ele>
        <time>2019-05-24T11:25:40Z</time>
      </trkpt>
      <trkpt lat="44.26543" lon="5.76906">
        <ele>609</ele>
        <time>2019-05-24T11:25:41Z</time>
      </trkpt>
      <trkpt lat="44.26539" lon="5.76904">
        <ele>608</ele>
        <time>2019-05-24T11:25:42Z</time>
      </trkpt>
      <trkpt lat="44.26532" lon="5.76901">
        <ele>607</ele>
        <time>2019-05-24T11:25:43Z</time>
      </trkpt>
      <trkpt lat="44.26527" lon="5.76899">
        <ele>606</ele>
        <time>2019-05-24T11:25:44Z</time>
      </trkpt>
      <trkpt lat="44.2652" lon="5.76896">
        <ele>605</ele>
        <time>2019-05-24T11:25:45Z</time>
      </trkpt>
      <trkpt lat="44.26514" lon="5.76892">
        <ele>604</ele>
        <time>2019-05-24T11:25:46Z</time>
      </trkpt>
      <trkpt lat="44.26507" lon="5.76888">
        <ele>603</ele>
        <time>2019-05-24T11:25:47Z</time>
      </trkpt>
      <trkpt lat="44.26501" lon="5.76884">
        <ele>602</ele>
        <time>2019-05-24T11:25:48Z</time>
      </trkpt>
      <trkpt lat="44.26494" lon="5.7688">
        <ele>601</ele>
        <time>2019-05-24T11:25:49Z</time>
      </trkpt>
      <trkpt lat="44.26488" lon="5.76875">
        <ele>600</ele>
        <time>2019-05-24T11:25:50Z</time>
      </trkpt>
      <trkpt lat="44.26483" lon="5.76874">
        <ele>598</ele>
        <time>2019-05-24T11:25:51Z</time>
      </trkpt>
      <trkpt lat="44.26477" lon="5.76873">
        <ele>596</ele>
        <time>2019-05-24T11:25:52Z</time>
      </trkpt>
      <trkpt lat="44.26472" lon="5.76871">
        <ele>595</ele>
        <time>2019-05-24T11:25:53Z</time>
      </trkpt>
      <trkpt lat="44.26467" lon="5.76869">
        <ele>594</ele>
        <time>2019-05-24T11:25:54Z</time>
      </trkpt>
      <trkpt lat="44.26462" lon="5.76867">
        <ele>593</ele>
        <time>2019-05-24T11:25:55Z</time>
      </trkpt>
      <trkpt lat="44.26457" lon="5.76863">
        <ele>592</ele>
        <time>2019-05-24T11:25:56Z</time>
      </trkpt>
      <trkpt lat="44.26452" lon="5.76857">
        <ele>591</ele>
        <time>2019-05-24T11:25:57Z</time>
      </trkpt>
      <trkpt lat="44.26449" lon="5.76852">
        <ele>590</ele>
        <time>2019-05-24T11:25:58Z</time>
      </trkpt>
      <trkpt lat="44.26447" lon="5.76852">
        <ele>589</ele>
        <time>2019-05-24T11:25:59Z</time>
      </trkpt>
      <trkpt lat="44.26442" lon="5.76856">
        <ele>589</ele>
        <time>2019-05-24T11:26:00Z</time>
      </trkpt>
      <trkpt lat="44.26436" lon="5.76851">
        <ele>589</ele>
        <time>2019-05-24T11:26:01Z</time>
      </trkpt>
      <trkpt lat="44.26431" lon="5.76846">
        <ele>590</ele>
        <time>2019-05-24T11:26:02Z</time>
      </trkpt>
      <trkpt lat="44.26424" lon="5.76839">
        <ele>591</ele>
        <time>2019-05-24T11:26:03Z</time>
      </trkpt>
      <trkpt lat="44.26421" lon="5.76834">
        <ele>592</ele>
        <time>2019-05-24T11:26:04Z</time>
      </trkpt>
      <trkpt lat="44.26424" lon="5.7683">
        <ele>593</ele>
        <time>2019-05-24T11:26:05Z</time>
      </trkpt>
      <trkpt lat="44.26424" lon="5.76826">
        <ele>594</ele>
        <time>2019-05-24T11:26:06Z</time>
      </trkpt>
      <trkpt lat="44.26422" lon="5.76823">
        <ele>594</ele>
        <time>2019-05-24T11:26:07Z</time>
      </trkpt>
      <trkpt lat="44.26421" lon="5.7682">
        <ele>594</ele>
        <time>2019-05-24T11:26:08Z</time>
      </trkpt>
      <trkpt lat="44.26432" lon="5.76819">
        <ele>594</ele>
        <time>2019-05-24T11:26:09Z</time>
      </trkpt>
      <trkpt lat="44.26439" lon="5.76817">
        <ele>594</ele>
        <time>2019-05-24T11:26:10Z</time>
      </trkpt>
      <trkpt lat="44.26444" lon="5.76814">
        <ele>594</ele>
        <time>2019-05-24T11:26:11Z</time>
      </trkpt>
      <trkpt lat="44.26451" lon="5.76811">
        <ele>594</ele>
        <time>2019-05-24T11:26:12Z</time>
      </trkpt>
      <trkpt lat="44.26455" lon="5.76806">
        <ele>594</ele>
        <time>2019-05-24T11:26:13Z</time>
      </trkpt>
      <trkpt lat="44.26462" lon="5.76803">
        <ele>594</ele>
        <time>2019-05-24T11:26:14Z</time>
      </trkpt>
      <trkpt lat="44.26468" lon="5.76799">
        <ele>594</ele>
        <time>2019-05-24T11:26:15Z</time>
      </trkpt>
      <trkpt lat="44.26475" lon="5.76795">
        <ele>595</ele>
        <time>2019-05-24T11:26:16Z</time>
      </trkpt>
      <trkpt lat="44.26481" lon="5.7679">
        <ele>595</ele>
        <time>2019-05-24T11:26:17Z</time>
      </trkpt>
      <trkpt lat="44.26488" lon="5.76785">
        <ele>596</ele>
        <time>2019-05-24T11:26:18Z</time>
      </trkpt>
      <trkpt lat="44.26498" lon="5.7678">
        <ele>597</ele>
        <time>2019-05-24T11:26:19Z</time>
      </trkpt>
      <trkpt lat="44.26506" lon="5.76775">
        <ele>598</ele>
        <time>2019-05-24T11:26:20Z</time>
      </trkpt>
      <trkpt lat="44.26524" lon="5.76771">
        <ele>599</ele>
        <time>2019-05-24T11:26:21Z</time>
      </trkpt>
      <trkpt lat="44.26534" lon="5.76766">
        <ele>600</ele>
        <time>2019-05-24T11:26:22Z</time>
      </trkpt>
      <trkpt lat="44.26539" lon="5.7676">
        <ele>601</ele>
        <time>2019-05-24T11:26:23Z</time>
      </trkpt>
      <trkpt lat="44.26543" lon="5.76755">
        <ele>602</ele>
        <time>2019-05-24T11:26:24Z</time>
      </trkpt>
      <trkpt lat="44.26547" lon="5.76749">
        <ele>604</ele>
        <time>2019-05-24T11:26:25Z</time>
      </trkpt>
      <trkpt lat="44.26551" lon="5.76744">
        <ele>605</ele>
        <time>2019-05-24T11:26:26Z</time>
      </trkpt>
      <trkpt lat="44.26554" lon="5.76738">
        <ele>607</ele>
        <time>2019-05-24T11:26:27Z</time>
      </trkpt>
      <trkpt lat="44.26558" lon="5.76732">
        <ele>608</ele>
        <time>2019-05-24T11:26:28Z</time>
      </trkpt>
      <trkpt lat="44.26561" lon="5.76726">
        <ele>609</ele>
        <time>2019-05-24T11:26:29Z</time>
      </trkpt>
      <trkpt lat="44.26565" lon="5.76721">
        <ele>611</ele>
        <time>2019-05-24T11:26:30Z</time>
      </trkpt>
      <trkpt lat="44.26569" lon="5.76717">
        <ele>612</ele>
        <time>2019-05-24T11:26:31Z</time>
      </trkpt>
      <trkpt lat="44.26573" lon="5.76711">
        <ele>613</ele>
        <time>2019-05-24T11:26:32Z</time>
      </trkpt>
      <trkpt lat="44.26577" lon="5.76706">
        <ele>614</ele>
        <time>2019-05-24T11:26:33Z</time>
      </trkpt>
      <trkpt lat="44.26582" lon="5.76701">
        <ele>615</ele>
        <time>2019-05-24T11:26:34Z</time>
      </trkpt>
      <trkpt lat="44.26586" lon="5.76697">
        <ele>616</ele>
        <time>2019-05-24T11:26:35Z</time>
      </trkpt>
      <trkpt lat="44.2659" lon="5.76693">
        <ele>617</ele>
        <time>2019-05-24T11:26:36Z</time>
      </trkpt>
      <trkpt lat="44.26594" lon="5.76688">
        <ele>618</ele>
        <time>2019-05-24T11:26:37Z</time>
      </trkpt>
      <trkpt lat="44.26598" lon="5.76683">
        <ele>619</ele>
        <time>2019-05-24T11:26:38Z</time>
      </trkpt>
      <trkpt lat="44.26601" lon="5.76678">
        <ele>621</ele>
        <time>2019-05-24T11:26:39Z</time>
      </trkpt>
      <trkpt lat="44.26605" lon="5.76673">
        <ele>622</ele>
        <time>2019-05-24T11:26:40Z</time>
      </trkpt>
      <trkpt lat="44.26608" lon="5.76668">
        <ele>623</ele>
        <time>2019-05-24T11:26:41Z</time>
      </trkpt>
      <trkpt lat="44.2661" lon="5.76663">
        <ele>624</ele>
        <time>2019-05-24T11:26:42Z</time>
      </trkpt>
      <trkpt lat="44.26612" lon="5.76659">
        <ele>625</ele>
        <time>2019-05-24T11:26:43Z</time>
      </trkpt>
      <trkpt lat="44.26614" lon="5.76654">
        <ele>626</ele>
        <time>2019-05-24T11:26:44Z</time>
      </trkpt>
      <trkpt lat="44.26615" lon="5.76649">
        <ele>627</ele>
        <time>2019-05-24T11:26:45Z</time>
      </trkpt>
      <trkpt lat="44.26615" lon="5.76644">
        <ele>628</ele>
        <time>2019-05-24T11:26:46Z</time>
      </trkpt>
      <trkpt lat="44.26617" lon="5.76637">
        <ele>629</ele>
        <time>2019-05-24T11:26:47Z</time>
      </trkpt>
      <trkpt lat="44.26619" lon="5.76631">
        <ele>630</ele>
        <time>2019-05-24T11:26:48Z</time>
      </trkpt>
      <trkpt lat="44.26622" lon="5.76613">
        <ele>631</ele>
        <time>2019-05-24T11:26:51Z</time>
      </trkpt>
      <trkpt lat="44.26623" lon="5.76608">
        <ele>631</ele>
        <time>2019-05-24T11:26:52Z</time>
      </trkpt>
      <trkpt lat="44.26624" lon="5.76604">
        <ele>631</ele>
        <time>2019-05-24T11:26:53Z</time>
      </trkpt>
      <trkpt lat="44.26624" lon="5.766">
        <ele>631</ele>
        <time>2019-05-24T11:26:54Z</time>
      </trkpt>
      <trkpt lat="44.26623" lon="5.76594">
        <ele>631</ele>
        <time>2019-05-24T11:26:55Z</time>
      </trkpt>
      <trkpt lat="44.26619" lon="5.76584">
        <ele>631</ele>
        <time>2019-05-24T11:26:56Z</time>
      </trkpt>
      <trkpt lat="44.26616" lon="5.76577">
        <ele>631</ele>
        <time>2019-05-24T11:26:57Z</time>
      </trkpt>
      <trkpt lat="44.26613" lon="5.76574">
        <ele>631</ele>
        <time>2019-05-24T11:26:58Z</time>
      </trkpt>
      <trkpt lat="44.2661" lon="5.76568">
        <ele>631</ele>
        <time>2019-05-24T11:26:59Z</time>
      </trkpt>
      <trkpt lat="44.26607" lon="5.76562">
        <ele>632</ele>
        <time>2019-05-24T11:27:00Z</time>
      </trkpt>
      <trkpt lat="44.26604" lon="5.76555">
        <ele>632</ele>
        <time>2019-05-24T11:27:01Z</time>
      </trkpt>
      <trkpt lat="44.26601" lon="5.76549">
        <ele>632</ele>
        <time>2019-05-24T11:27:02Z</time>
      </trkpt>
      <trkpt lat="44.26599" lon="5.76542">
        <ele>632</ele>
        <time>2019-05-24T11:27:03Z</time>
      </trkpt>
      <trkpt lat="44.26597" lon="5.76536">
        <ele>632</ele>
        <time>2019-05-24T11:27:04Z</time>
      </trkpt>
      <trkpt lat="44.26596" lon="5.76529">
        <ele>632</ele>
        <time>2019-05-24T11:27:05Z</time>
      </trkpt>
      <trkpt lat="44.26593" lon="5.76522">
        <ele>632</ele>
        <time>2019-05-24T11:27:06Z</time>
      </trkpt>
      <trkpt lat="44.2659" lon="5.76516">
        <ele>632</ele>
        <time>2019-05-24T11:27:07Z</time>
      </trkpt>
      <trkpt lat="44.26587" lon="5.76511">
        <ele>632</ele>
        <time>2019-05-24T11:27:08Z</time>
      </trkpt>
      <trkpt lat="44.26584" lon="5.76505">
        <ele>632</ele>
        <time>2019-05-24T11:27:09Z</time>
      </trkpt>
      <trkpt lat="44.26583" lon="5.765">
        <ele>631</ele>
        <time>2019-05-24T11:27:10Z</time>
      </trkpt>
      <trkpt lat="44.26579" lon="5.76496">
        <ele>631</ele>
        <time>2019-05-24T11:27:11Z</time>
      </trkpt>
      <trkpt lat="44.26575" lon="5.76492">
        <ele>630</ele>
        <time>2019-05-24T11:27:12Z</time>
      </trkpt>
      <trkpt lat="44.26572" lon="5.76488">
        <ele>629</ele>
        <time>2019-05-24T11:27:13Z</time>
      </trkpt>
      <trkpt lat="44.26567" lon="5.76486">
        <ele>629</ele>
        <time>2019-05-24T11:27:14Z</time>
      </trkpt>
      <trkpt lat="44.26562" lon="5.76484">
        <ele>629</ele>
        <time>2019-05-24T11:27:15Z</time>
      </trkpt>
      <trkpt lat="44.26557" lon="5.76481">
        <ele>629</ele>
        <time>2019-05-24T11:27:16Z</time>
      </trkpt>
      <trkpt lat="44.26553" lon="5.76478">
        <ele>628</ele>
        <time>2019-05-24T11:27:17Z</time>
      </trkpt>
      <trkpt lat="44.26548" lon="5.76474">
        <ele>628</ele>
        <time>2019-05-24T11:27:18Z</time>
      </trkpt>
      <trkpt lat="44.26545" lon="5.76469">
        <ele>628</ele>
        <time>2019-05-24T11:27:19Z</time>
      </trkpt>
      <trkpt lat="44.26541" lon="5.76463">
        <ele>628</ele>
        <time>2019-05-24T11:27:20Z</time>
      </trkpt>
      <trkpt lat="44.2654" lon="5.76455">
        <ele>627</ele>
        <time>2019-05-24T11:27:21Z</time>
      </trkpt>
      <trkpt lat="44.2654" lon="5.76448">
        <ele>627</ele>
        <time>2019-05-24T11:27:22Z</time>
      </trkpt>
      <trkpt lat="44.26542" lon="5.76441">
        <ele>626</ele>
        <time>2019-05-24T11:27:23Z</time>
      </trkpt>
      <trkpt lat="44.26545" lon="5.76433">
        <ele>626</ele>
        <time>2019-05-24T11:27:24Z</time>
      </trkpt>
      <trkpt lat="44.26548" lon="5.76426">
        <ele>626</ele>
        <time>2019-05-24T11:27:25Z</time>
      </trkpt>
      <trkpt lat="44.2655" lon="5.76417">
        <ele>626</ele>
        <time>2019-05-24T11:27:26Z</time>
      </trkpt>
      <trkpt lat="44.26554" lon="5.76409">
        <ele>626</ele>
        <time>2019-05-24T11:27:27Z</time>
      </trkpt>
      <trkpt lat="44.26558" lon="5.76402">
        <ele>626</ele>
        <time>2019-05-24T11:27:28Z</time>
      </trkpt>
      <trkpt lat="44.26563" lon="5.76395">
        <ele>626</ele>
        <time>2019-05-24T11:27:29Z</time>
      </trkpt>
      <trkpt lat="44.26568" lon="5.76388">
        <ele>626</ele>
        <time>2019-05-24T11:27:30Z</time>
      </trkpt>
      <trkpt lat="44.26574" lon="5.76383">
        <ele>626</ele>
        <time>2019-05-24T11:27:31Z</time>
      </trkpt>
      <trkpt lat="44.2658" lon="5.76378">
        <ele>626</ele>
        <time>2019-05-24T11:27:32Z</time>
      </trkpt>
      <trkpt lat="44.26588" lon="5.76375">
        <ele>626</ele>
        <time>2019-05-24T11:27:33Z</time>
      </trkpt>
      <trkpt lat="44.26595" lon="5.76372">
        <ele>626</ele>
        <time>2019-05-24T11:27:34Z</time>
      </trkpt>
      <trkpt lat="44.26602" lon="5.7637">
        <ele>626</ele>
        <time>2019-05-24T11:27:35Z</time>
      </trkpt>
      <trkpt lat="44.26609" lon="5.76368">
        <ele>626</ele>
        <time>2019-05-24T11:27:36Z</time>
      </trkpt>
      <trkpt lat="44.26616" lon="5.76365">
        <ele>626</ele>
        <time>2019-05-24T11:27:37Z</time>
      </trkpt>
      <trkpt lat="44.26622" lon="5.76363">
        <ele>626</ele>
        <time>2019-05-24T11:27:38Z</time>
      </trkpt>
      <trkpt lat="44.2663" lon="5.7636">
        <ele>626</ele>
        <time>2019-05-24T11:27:39Z</time>
      </trkpt>
      <trkpt lat="44.26636" lon="5.76357">
        <ele>626</ele>
        <time>2019-05-24T11:27:40Z</time>
      </trkpt>
      <trkpt lat="44.26643" lon="5.76354">
        <ele>626</ele>
        <time>2019-05-24T11:27:41Z</time>
      </trkpt>
      <trkpt lat="44.2665" lon="5.76351">
        <ele>627</ele>
        <time>2019-05-24T11:27:42Z</time>
      </trkpt>
      <trkpt lat="44.26656" lon="5.76349">
        <ele>627</ele>
        <time>2019-05-24T11:27:43Z</time>
      </trkpt>
      <trkpt lat="44.26663" lon="5.76346">
        <ele>627</ele>
        <time>2019-05-24T11:27:44Z</time>
      </trkpt>
      <trkpt lat="44.2667" lon="5.76343">
        <ele>628</ele>
        <time>2019-05-24T11:27:45Z</time>
      </trkpt>
      <trkpt lat="44.26676" lon="5.76339">
        <ele>629</ele>
        <time>2019-05-24T11:27:46Z</time>
      </trkpt>
      <trkpt lat="44.26683" lon="5.76336">
        <ele>629</ele>
        <time>2019-05-24T11:27:47Z</time>
      </trkpt>
      <trkpt lat="44.2669" lon="5.76332">
        <ele>630</ele>
        <time>2019-05-24T11:27:48Z</time>
      </trkpt>
      <trkpt lat="44.26696" lon="5.76328">
        <ele>631</ele>
        <time>2019-05-24T11:27:49Z</time>
      </trkpt>
      <trkpt lat="44.26703" lon="5.76325">
        <ele>631</ele>
        <time>2019-05-24T11:27:50Z</time>
      </trkpt>
      <trkpt lat="44.2671" lon="5.76321">
        <ele>631</ele>
        <time>2019-05-24T11:27:51Z</time>
      </trkpt>
      <trkpt lat="44.26717" lon="5.76317">
        <ele>631</ele>
        <time>2019-05-24T11:27:52Z</time>
      </trkpt>
      <trkpt lat="44.26725" lon="5.76314">
        <ele>631</ele>
        <time>2019-05-24T11:27:53Z</time>
      </trkpt>
      <trkpt lat="44.26732" lon="5.7631">
        <ele>631</ele>
        <time>2019-05-24T11:27:54Z</time>
      </trkpt>
      <trkpt lat="44.26739" lon="5.76307">
        <ele>631</ele>
        <time>2019-05-24T11:27:55Z</time>
      </trkpt>
      <trkpt lat="44.26746" lon="5.76304">
        <ele>631</ele>
        <time>2019-05-24T11:27:56Z</time>
      </trkpt>
      <trkpt lat="44.26753" lon="5.76301">
        <ele>631</ele>
        <time>2019-05-24T11:27:57Z</time>
      </trkpt>
      <trkpt lat="44.2676" lon="5.76299">
        <ele>631</ele>
        <time>2019-05-24T11:27:58Z</time>
      </trkpt>
      <trkpt lat="44.26767" lon="5.76297">
        <ele>631</ele>
        <time>2019-05-24T11:27:59Z</time>
      </trkpt>
      <trkpt lat="44.26774" lon="5.76295">
        <ele>631</ele>
        <time>2019-05-24T11:28:00Z</time>
      </trkpt>
      <trkpt lat="44.26781" lon="5.76293">
        <ele>631</ele>
        <time>2019-05-24T11:28:01Z</time>
      </trkpt>
      <trkpt lat="44.26788" lon="5.76291">
        <ele>632</ele>
        <time>2019-05-24T11:28:02Z</time>
      </trkpt>
      <trkpt lat="44.26795" lon="5.76288">
        <ele>632</ele>
        <time>2019-05-24T11:28:03Z</time>
      </trkpt>
      <trkpt lat="44.26802" lon="5.76286">
        <ele>632</ele>
        <time>2019-05-24T11:28:04Z</time>
      </trkpt>
      <trkpt lat="44.26809" lon="5.76283">
        <ele>632</ele>
        <time>2019-05-24T11:28:05Z</time>
      </trkpt>
      <trkpt lat="44.26816" lon="5.7628">
        <ele>632</ele>
        <time>2019-05-24T11:28:06Z</time>
      </trkpt>
      <trkpt lat="44.26822" lon="5.76277">
        <ele>632</ele>
        <time>2019-05-24T11:28:07Z</time>
      </trkpt>
      <trkpt lat="44.26829" lon="5.76273">
        <ele>632</ele>
        <time>2019-05-24T11:28:08Z</time>
      </trkpt>
      <trkpt lat="44.26835" lon="5.76268">
        <ele>632</ele>
        <time>2019-05-24T11:28:09Z</time>
      </trkpt>
      <trkpt lat="44.26841" lon="5.76263">
        <ele>632</ele>
        <time>2019-05-24T11:28:10Z</time>
      </trkpt>
      <trkpt lat="44.26846" lon="5.76256">
        <ele>632</ele>
        <time>2019-05-24T11:28:11Z</time>
      </trkpt>
      <trkpt lat="44.26851" lon="5.76249">
        <ele>632</ele>
        <time>2019-05-24T11:28:12Z</time>
      </trkpt>
      <trkpt lat="44.26855" lon="5.7624">
        <ele>632</ele>
        <time>2019-05-24T11:28:13Z</time>
      </trkpt>
      <trkpt lat="44.26859" lon="5.76232">
        <ele>632</ele>
        <time>2019-05-24T11:28:14Z</time>
      </trkpt>
      <trkpt lat="44.26862" lon="5.76223">
        <ele>632</ele>
        <time>2019-05-24T11:28:15Z</time>
      </trkpt>
      <trkpt lat="44.26864" lon="5.76213">
        <ele>632</ele>
        <time>2019-05-24T11:28:16Z</time>
      </trkpt>
      <trkpt lat="44.26866" lon="5.76203">
        <ele>632</ele>
        <time>2019-05-24T11:28:17Z</time>
      </trkpt>
      <trkpt lat="44.26867" lon="5.76193">
        <ele>632</ele>
        <time>2019-05-24T11:28:18Z</time>
      </trkpt>
      <trkpt lat="44.26867" lon="5.76183">
        <ele>632</ele>
        <time>2019-05-24T11:28:19Z</time>
      </trkpt>
      <trkpt lat="44.26866" lon="5.76172">
        <ele>632</ele>
        <time>2019-05-24T11:28:20Z</time>
      </trkpt>
      <trkpt lat="44.26865" lon="5.76162">
        <ele>632</ele>
        <time>2019-05-24T11:28:21Z</time>
      </trkpt>
      <trkpt lat="44.26864" lon="5.76153">
        <ele>632</ele>
        <time>2019-05-24T11:28:22Z</time>
      </trkpt>
      <trkpt lat="44.26862" lon="5.76143">
        <ele>632</ele>
        <time>2019-05-24T11:28:23Z</time>
      </trkpt>
      <trkpt lat="44.26861" lon="5.76134">
        <ele>632</ele>
        <time>2019-05-24T11:28:24Z</time>
      </trkpt>
      <trkpt lat="44.26859" lon="5.76125">
        <ele>631</ele>
        <time>2019-05-24T11:28:25Z</time>
      </trkpt>
      <trkpt lat="44.26855" lon="5.76116">
        <ele>630</ele>
        <time>2019-05-24T11:28:26Z</time>
      </trkpt>
      <trkpt lat="44.26852" lon="5.76108">
        <ele>629</ele>
        <time>2019-05-24T11:28:27Z</time>
      </trkpt>
      <trkpt lat="44.26848" lon="5.76099">
        <ele>628</ele>
        <time>2019-05-24T11:28:28Z</time>
      </trkpt>
      <trkpt lat="44.26844" lon="5.76091">
        <ele>628</ele>
        <time>2019-05-24T11:28:29Z</time>
      </trkpt>
      <trkpt lat="44.26839" lon="5.76082">
        <ele>627</ele>
        <time>2019-05-24T11:28:30Z</time>
      </trkpt>
      <trkpt lat="44.26834" lon="5.76074">
        <ele>627</ele>
        <time>2019-05-24T11:28:31Z</time>
      </trkpt>
      <trkpt lat="44.26829" lon="5.76066">
        <ele>627</ele>
        <time>2019-05-24T11:28:32Z</time>
      </trkpt>
      <trkpt lat="44.26824" lon="5.76059">
        <ele>627</ele>
        <time>2019-05-24T11:28:33Z</time>
      </trkpt>
      <trkpt lat="44.26818" lon="5.76052">
        <ele>627</ele>
        <time>2019-05-24T11:28:34Z</time>
      </trkpt>
      <trkpt lat="44.26813" lon="5.76046">
        <ele>627</ele>
        <time>2019-05-24T11:28:35Z</time>
      </trkpt>
      <trkpt lat="44.26807" lon="5.76039">
        <ele>626</ele>
        <time>2019-05-24T11:28:36Z</time>
      </trkpt>
      <trkpt lat="44.26801" lon="5.76033">
        <ele>626</ele>
        <time>2019-05-24T11:28:37Z</time>
      </trkpt>
      <trkpt lat="44.26795" lon="5.76027">
        <ele>626</ele>
        <time>2019-05-24T11:28:38Z</time>
      </trkpt>
      <trkpt lat="44.2679" lon="5.7602">
        <ele>626</ele>
        <time>2019-05-24T11:28:39Z</time>
      </trkpt>
      <trkpt lat="44.26784" lon="5.76013">
        <ele>626</ele>
        <time>2019-05-24T11:28:40Z</time>
      </trkpt>
      <trkpt lat="44.26778" lon="5.76007">
        <ele>625</ele>
        <time>2019-05-24T11:28:41Z</time>
      </trkpt>
      <trkpt lat="44.26773" lon="5.76">
        <ele>625</ele>
        <time>2019-05-24T11:28:42Z</time>
      </trkpt>
      <trkpt lat="44.26767" lon="5.75993">
        <ele>625</ele>
        <time>2019-05-24T11:28:43Z</time>
      </trkpt>
      <trkpt lat="44.26762" lon="5.75986">
        <ele>625</ele>
        <time>2019-05-24T11:28:44Z</time>
      </trkpt>
      <trkpt lat="44.26757" lon="5.75979">
        <ele>625</ele>
        <time>2019-05-24T11:28:45Z</time>
      </trkpt>
      <trkpt lat="44.26751" lon="5.75971">
        <ele>625</ele>
        <time>2019-05-24T11:28:46Z</time>
      </trkpt>
      <trkpt lat="44.26746" lon="5.75963">
        <ele>624</ele>
        <time>2019-05-24T11:28:47Z</time>
      </trkpt>
      <trkpt lat="44.26742" lon="5.75955">
        <ele>624</ele>
        <time>2019-05-24T11:28:48Z</time>
      </trkpt>
      <trkpt lat="44.26737" lon="5.75946">
        <ele>624</ele>
        <time>2019-05-24T11:28:49Z</time>
      </trkpt>
      <trkpt lat="44.26733" lon="5.75938">
        <ele>624</ele>
        <time>2019-05-24T11:28:50Z</time>
      </trkpt>
      <trkpt lat="44.26728" lon="5.75929">
        <ele>623</ele>
        <time>2019-05-24T11:28:51Z</time>
      </trkpt>
      <trkpt lat="44.26724" lon="5.7592">
        <ele>623</ele>
        <time>2019-05-24T11:28:52Z</time>
      </trkpt>
      <trkpt lat="44.2672" lon="5.7591">
        <ele>623</ele>
        <time>2019-05-24T11:28:53Z</time>
      </trkpt>
      <trkpt lat="44.26716" lon="5.75901">
        <ele>623</ele>
        <time>2019-05-24T11:28:54Z</time>
      </trkpt>
      <trkpt lat="44.26712" lon="5.75891">
        <ele>623</ele>
        <time>2019-05-24T11:28:55Z</time>
      </trkpt>
      <trkpt lat="44.26709" lon="5.75881">
        <ele>623</ele>
        <time>2019-05-24T11:28:56Z</time>
      </trkpt>
      <trkpt lat="44.26706" lon="5.75871">
        <ele>623</ele>
        <time>2019-05-24T11:28:57Z</time>
      </trkpt>
      <trkpt lat="44.26703" lon="5.75861">
        <ele>623</ele>
        <time>2019-05-24T11:28:58Z</time>
      </trkpt>
      <trkpt lat="44.267" lon="5.75851">
        <ele>623</ele>
        <time>2019-05-24T11:28:59Z</time>
      </trkpt>
      <trkpt lat="44.26698" lon="5.75841">
        <ele>623</ele>
        <time>2019-05-24T11:29:00Z</time>
      </trkpt>
      <trkpt lat="44.26695" lon="5.75831">
        <ele>623</ele>
        <time>2019-05-24T11:29:01Z</time>
      </trkpt>
      <trkpt lat="44.26694" lon="5.75821">
        <ele>623</ele>
        <time>2019-05-24T11:29:02Z</time>
      </trkpt>
      <trkpt lat="44.26692" lon="5.75811">
        <ele>623</ele>
        <time>2019-05-24T11:29:03Z</time>
      </trkpt>
      <trkpt lat="44.26691" lon="5.75801">
        <ele>623</ele>
        <time>2019-05-24T11:29:04Z</time>
      </trkpt>
      <trkpt lat="44.2669" lon="5.75791">
        <ele>623</ele>
        <time>2019-05-24T11:29:05Z</time>
      </trkpt>
      <trkpt lat="44.2669" lon="5.75781">
        <ele>623</ele>
        <time>2019-05-24T11:29:06Z</time>
      </trkpt>
      <trkpt lat="44.26689" lon="5.75771">
        <ele>623</ele>
        <time>2019-05-24T11:29:07Z</time>
      </trkpt>
      <trkpt lat="44.26689" lon="5.75761">
        <ele>623</ele>
        <time>2019-05-24T11:29:08Z</time>
      </trkpt>
      <trkpt lat="44.2669" lon="5.75751">
        <ele>623</ele>
        <time>2019-05-24T11:29:09Z</time>
      </trkpt>
      <trkpt lat="44.26691" lon="5.75741">
        <ele>623</ele>
        <time>2019-05-24T11:29:10Z</time>
      </trkpt>
      <trkpt lat="44.26693" lon="5.75731">
        <ele>623</ele>
        <time>2019-05-24T11:29:11Z</time>
      </trkpt>
      <trkpt lat="44.26695" lon="5.75722">
        <ele>623</ele>
        <time>2019-05-24T11:29:12Z</time>
      </trkpt>
      <trkpt lat="44.26699" lon="5.75713">
        <ele>623</ele>
        <time>2019-05-24T11:29:13Z</time>
      </trkpt>
      <trkpt lat="44.26702" lon="5.75705">
        <ele>623</ele>
        <time>2019-05-24T11:29:14Z</time>
      </trkpt>
      <trkpt lat="44.26707" lon="5.75698">
        <ele>623</ele>
        <time>2019-05-24T11:29:15Z</time>
      </trkpt>
      <trkpt lat="44.26712" lon="5.75692">
        <ele>623</ele>
        <time>2019-05-24T11:29:16Z</time>
      </trkpt>
      <trkpt lat="44.26717" lon="5.75685">
        <ele>623</ele>
        <time>2019-05-24T11:29:17Z</time>
      </trkpt>
      <trkpt lat="44.2672" lon="5.75677">
        <ele>623</ele>
        <time>2019-05-24T11:29:18Z</time>
      </trkpt>
      <trkpt lat="44.26722" lon="5.75669">
        <ele>623</ele>
        <time>2019-05-24T11:29:19Z</time>
      </trkpt>
      <trkpt lat="44.26722" lon="5.7566">
        <ele>623</ele>
        <time>2019-05-24T11:29:20Z</time>
      </trkpt>
      <trkpt lat="44.2672" lon="5.75652">
        <ele>623</ele>
        <time>2019-05-24T11:29:21Z</time>
      </trkpt>
      <trkpt lat="44.26716" lon="5.75645">
        <ele>623</ele>
        <time>2019-05-24T11:29:22Z</time>
      </trkpt>
      <trkpt lat="44.26711" lon="5.75639">
        <ele>623</ele>
        <time>2019-05-24T11:29:23Z</time>
      </trkpt>
      <trkpt lat="44.26706" lon="5.75634">
        <ele>623</ele>
        <time>2019-05-24T11:29:24Z</time>
      </trkpt>
      <trkpt lat="44.267" lon="5.75628">
        <ele>623</ele>
        <time>2019-05-24T11:29:25Z</time>
      </trkpt>
      <trkpt lat="44.26695" lon="5.75622">
        <ele>623</ele>
        <time>2019-05-24T11:29:26Z</time>
      </trkpt>
      <trkpt lat="44.26691" lon="5.75614">
        <ele>623</ele>
        <time>2019-05-24T11:29:27Z</time>
      </trkpt>
      <trkpt lat="44.26688" lon="5.75605">
        <ele>623</ele>
        <time>2019-05-24T11:29:28Z</time>
      </trkpt>
      <trkpt lat="44.26685" lon="5.75595">
        <ele>623</ele>
        <time>2019-05-24T11:29:29Z</time>
      </trkpt>
      <trkpt lat="44.26683" lon="5.75585">
        <ele>623</ele>
        <time>2019-05-24T11:29:30Z</time>
      </trkpt>
      <trkpt lat="44.26682" lon="5.75574">
        <ele>623</ele>
        <time>2019-05-24T11:29:31Z</time>
      </trkpt>
      <trkpt lat="44.2668" lon="5.75563">
        <ele>623</ele>
        <time>2019-05-24T11:29:32Z</time>
      </trkpt>
      <trkpt lat="44.26679" lon="5.75552">
        <ele>623</ele>
        <time>2019-05-24T11:29:33Z</time>
      </trkpt>
      <trkpt lat="44.26677" lon="5.7554">
        <ele>623</ele>
        <time>2019-05-24T11:29:34Z</time>
      </trkpt>
      <trkpt lat="44.26676" lon="5.75528">
        <ele>623</ele>
        <time>2019-05-24T11:29:35Z</time>
      </trkpt>
      <trkpt lat="44.26675" lon="5.75517">
        <ele>623</ele>
        <time>2019-05-24T11:29:36Z</time>
      </trkpt>
      <trkpt lat="44.26674" lon="5.75505">
        <ele>623</ele>
        <time>2019-05-24T11:29:37Z</time>
      </trkpt>
      <trkpt lat="44.26673" lon="5.75494">
        <ele>623</ele>
        <time>2019-05-24T11:29:38Z</time>
      </trkpt>
      <trkpt lat="44.26671" lon="5.75483">
        <ele>623</ele>
        <time>2019-05-24T11:29:39Z</time>
      </trkpt>
      <trkpt lat="44.26669" lon="5.75472">
        <ele>623</ele>
        <time>2019-05-24T11:29:40Z</time>
      </trkpt>
      <trkpt lat="44.26667" lon="5.75461">
        <ele>623</ele>
        <time>2019-05-24T11:29:41Z</time>
      </trkpt>
      <trkpt lat="44.26664" lon="5.7545">
        <ele>623</ele>
        <time>2019-05-24T11:29:42Z</time>
      </trkpt>
      <trkpt lat="44.26661" lon="5.75439">
        <ele>623</ele>
        <time>2019-05-24T11:29:43Z</time>
      </trkpt>
      <trkpt lat="44.26658" lon="5.75428">
        <ele>623</ele>
        <time>2019-05-24T11:29:44Z</time>
      </trkpt>
      <trkpt lat="44.26654" lon="5.75418">
        <ele>623</ele>
        <time>2019-05-24T11:29:45Z</time>
      </trkpt>
      <trkpt lat="44.2665" lon="5.75408">
        <ele>623</ele>
        <time>2019-05-24T11:29:46Z</time>
      </trkpt>
      <trkpt lat="44.26645" lon="5.75399">
        <ele>623</ele>
        <time>2019-05-24T11:29:47Z</time>
      </trkpt>
      <trkpt lat="44.2664" lon="5.7539">
        <ele>623</ele>
        <time>2019-05-24T11:29:48Z</time>
      </trkpt>
      <trkpt lat="44.26634" lon="5.75381">
        <ele>623</ele>
        <time>2019-05-24T11:29:49Z</time>
      </trkpt>
      <trkpt lat="44.26628" lon="5.75372">
        <ele>623</ele>
        <time>2019-05-24T11:29:50Z</time>
      </trkpt>
      <trkpt lat="44.26623" lon="5.75362">
        <ele>623</ele>
        <time>2019-05-24T11:29:51Z</time>
      </trkpt>
      <trkpt lat="44.26619" lon="5.75353">
        <ele>623</ele>
        <time>2019-05-24T11:29:52Z</time>
      </trkpt>
      <trkpt lat="44.26615" lon="5.75344">
        <ele>623</ele>
        <time>2019-05-24T11:29:53Z</time>
      </trkpt>
      <trkpt lat="44.26611" lon="5.75334">
        <ele>623</ele>
        <time>2019-05-24T11:29:54Z</time>
      </trkpt>
      <trkpt lat="44.26606" lon="5.75325">
        <ele>623</ele>
        <time>2019-05-24T11:29:55Z</time>
      </trkpt>
      <trkpt lat="44.26602" lon="5.75316">
        <ele>623</ele>
        <time>2019-05-24T11:29:56Z</time>
      </trkpt>
      <trkpt lat="44.26598" lon="5.75307">
        <ele>623</ele>
        <time>2019-05-24T11:29:57Z</time>
      </trkpt>
      <trkpt lat="44.26594" lon="5.75297">
        <ele>623</ele>
        <time>2019-05-24T11:29:58Z</time>
      </trkpt>
      <trkpt lat="44.2659" lon="5.75287">
        <ele>623</ele>
        <time>2019-05-24T11:29:58Z</time>
      </trkpt>
      <trkpt lat="44.26588" lon="5.75278">
        <ele>623</ele>
        <time>2019-05-24T11:30:00Z</time>
      </trkpt>
      <trkpt lat="44.26584" lon="5.75268">
        <ele>623</ele>
        <time>2019-05-24T11:30:01Z</time>
      </trkpt>
      <trkpt lat="44.26581" lon="5.75259">
        <ele>623</ele>
        <time>2019-05-24T11:30:02Z</time>
      </trkpt>
      <trkpt lat="44.26578" lon="5.7525">
        <ele>623</ele>
        <time>2019-05-24T11:30:03Z</time>
      </trkpt>
      <trkpt lat="44.26574" lon="5.75241">
        <ele>623</ele>
        <time>2019-05-24T11:30:04Z</time>
      </trkpt>
      <trkpt lat="44.2657" lon="5.75233">
        <ele>623</ele>
        <time>2019-05-24T11:30:05Z</time>
      </trkpt>
      <trkpt lat="44.26565" lon="5.75224">
        <ele>623</ele>
        <time>2019-05-24T11:30:06Z</time>
      </trkpt>
      <trkpt lat="44.26561" lon="5.75216">
        <ele>623</ele>
        <time>2019-05-24T11:30:07Z</time>
      </trkpt>
      <trkpt lat="44.26557" lon="5.75209">
        <ele>623</ele>
        <time>2019-05-24T11:30:08Z</time>
      </trkpt>
      <trkpt lat="44.26553" lon="5.75201">
        <ele>624</ele>
        <time>2019-05-24T11:30:09Z</time>
      </trkpt>
      <trkpt lat="44.26548" lon="5.75194">
        <ele>624</ele>
        <time>2019-05-24T11:30:10Z</time>
      </trkpt>
      <trkpt lat="44.26544" lon="5.75186">
        <ele>624</ele>
        <time>2019-05-24T11:30:11Z</time>
      </trkpt>
      <trkpt lat="44.2654" lon="5.75179">
        <ele>624</ele>
        <time>2019-05-24T11:30:12Z</time>
      </trkpt>
      <trkpt lat="44.26535" lon="5.75172">
        <ele>624</ele>
        <time>2019-05-24T11:30:13Z</time>
      </trkpt>
      <trkpt lat="44.2653" lon="5.75165">
        <ele>624</ele>
        <time>2019-05-24T11:30:14Z</time>
      </trkpt>
      <trkpt lat="44.26526" lon="5.75158">
        <ele>624</ele>
        <time>2019-05-24T11:30:15Z</time>
      </trkpt>
      <trkpt lat="44.26522" lon="5.75151">
        <ele>624</ele>
        <time>2019-05-24T11:30:16Z</time>
      </trkpt>
      <trkpt lat="44.26517" lon="5.75144">
        <ele>624</ele>
        <time>2019-05-24T11:30:17Z</time>
      </trkpt>
      <trkpt lat="44.26512" lon="5.75137">
        <ele>625</ele>
        <time>2019-05-24T11:30:18Z</time>
      </trkpt>
      <trkpt lat="44.26508" lon="5.75129">
        <ele>625</ele>
        <time>2019-05-24T11:30:19Z</time>
      </trkpt>
      <trkpt lat="44.26503" lon="5.75122">
        <ele>625</ele>
        <time>2019-05-24T11:30:20Z</time>
      </trkpt>
      <trkpt lat="44.26498" lon="5.75114">
        <ele>625</ele>
        <time>2019-05-24T11:30:21Z</time>
      </trkpt>
      <trkpt lat="44.26493" lon="5.75107">
        <ele>625</ele>
        <time>2019-05-24T11:30:22Z</time>
      </trkpt>
      <trkpt lat="44.26489" lon="5.751">
        <ele>625</ele>
        <time>2019-05-24T11:30:23Z</time>
      </trkpt>
      <trkpt lat="44.26484" lon="5.75092">
        <ele>625</ele>
        <time>2019-05-24T11:30:24Z</time>
      </trkpt>
      <trkpt lat="44.2648" lon="5.75084">
        <ele>625</ele>
        <time>2019-05-24T11:30:25Z</time>
      </trkpt>
      <trkpt lat="44.26475" lon="5.75076">
        <ele>625</ele>
        <time>2019-05-24T11:30:26Z</time>
      </trkpt>
      <trkpt lat="44.26471" lon="5.75069">
        <ele>625</ele>
        <time>2019-05-24T11:30:27Z</time>
      </trkpt>
      <trkpt lat="44.26466" lon="5.7506">
        <ele>625</ele>
        <time>2019-05-24T11:30:28Z</time>
      </trkpt>
      <trkpt lat="44.26462" lon="5.75052">
        <ele>625</ele>
        <time>2019-05-24T11:30:29Z</time>
      </trkpt>
      <trkpt lat="44.26458" lon="5.75044">
        <ele>625</ele>
        <time>2019-05-24T11:30:30Z</time>
      </trkpt>
      <trkpt lat="44.26453" lon="5.75036">
        <ele>625</ele>
        <time>2019-05-24T11:30:31Z</time>
      </trkpt>
      <trkpt lat="44.26449" lon="5.75028">
        <ele>625</ele>
        <time>2019-05-24T11:30:32Z</time>
      </trkpt>
      <trkpt lat="44.26444" lon="5.7502">
        <ele>625</ele>
        <time>2019-05-24T11:30:33Z</time>
      </trkpt>
      <trkpt lat="44.26439" lon="5.75012">
        <ele>625</ele>
        <time>2019-05-24T11:30:34Z</time>
      </trkpt>
      <trkpt lat="44.26434" lon="5.75004">
        <ele>625</ele>
        <time>2019-05-24T11:30:35Z</time>
      </trkpt>
      <trkpt lat="44.26429" lon="5.74995">
        <ele>625</ele>
        <time>2019-05-24T11:30:36Z</time>
      </trkpt>
      <trkpt lat="44.26425" lon="5.74987">
        <ele>625</ele>
        <time>2019-05-24T11:30:37Z</time>
      </trkpt>
      <trkpt lat="44.2642" lon="5.74979">
        <ele>625</ele>
        <time>2019-05-24T11:30:38Z</time>
      </trkpt>
      <trkpt lat="44.26416" lon="5.74971">
        <ele>625</ele>
        <time>2019-05-24T11:30:39Z</time>
      </trkpt>
      <trkpt lat="44.26412" lon="5.74964">
        <ele>626</ele>
        <time>2019-05-24T11:30:40Z</time>
      </trkpt>
      <trkpt lat="44.26408" lon="5.74956">
        <ele>626</ele>
        <time>2019-05-24T11:30:41Z</time>
      </trkpt>
      <trkpt lat="44.26405" lon="5.74948">
        <ele>626</ele>
        <time>2019-05-24T11:30:42Z</time>
      </trkpt>
      <trkpt lat="44.26402" lon="5.7494">
        <ele>626</ele>
        <time>2019-05-24T11:30:43Z</time>
      </trkpt>
      <trkpt lat="44.26399" lon="5.74932">
        <ele>627</ele>
        <time>2019-05-24T11:30:44Z</time>
      </trkpt>
      <trkpt lat="44.26396" lon="5.74925">
        <ele>627</ele>
        <time>2019-05-24T11:30:45Z</time>
      </trkpt>
      <trkpt lat="44.26394" lon="5.74917">
        <ele>628</ele>
        <time>2019-05-24T11:30:46Z</time>
      </trkpt>
      <trkpt lat="44.26391" lon="5.74909">
        <ele>628</ele>
        <time>2019-05-24T11:30:47Z</time>
      </trkpt>
      <trkpt lat="44.26389" lon="5.749">
        <ele>628</ele>
        <time>2019-05-24T11:30:48Z</time>
      </trkpt>
      <trkpt lat="44.26388" lon="5.74893">
        <ele>628</ele>
        <time>2019-05-24T11:30:49Z</time>
      </trkpt>
      <trkpt lat="44.26386" lon="5.74885">
        <ele>629</ele>
        <time>2019-05-24T11:30:50Z</time>
      </trkpt>
      <trkpt lat="44.26384" lon="5.74877">
        <ele>629</ele>
        <time>2019-05-24T11:30:51Z</time>
      </trkpt>
      <trkpt lat="44.26383" lon="5.74869">
        <ele>629</ele>
        <time>2019-05-24T11:30:52Z</time>
      </trkpt>
      <trkpt lat="44.26381" lon="5.74862">
        <ele>629</ele>
        <time>2019-05-24T11:30:53Z</time>
      </trkpt>
      <trkpt lat="44.26378" lon="5.74855">
        <ele>630</ele>
        <time>2019-05-24T11:30:54Z</time>
      </trkpt>
      <trkpt lat="44.26375" lon="5.74849">
        <ele>630</ele>
        <time>2019-05-24T11:30:55Z</time>
      </trkpt>
      <trkpt lat="44.26372" lon="5.74842">
        <ele>630</ele>
        <time>2019-05-24T11:30:56Z</time>
      </trkpt>
      <trkpt lat="44.26368" lon="5.74836">
        <ele>630</ele>
        <time>2019-05-24T11:30:57Z</time>
      </trkpt>
      <trkpt lat="44.26365" lon="5.7483">
        <ele>630</ele>
        <time>2019-05-24T11:30:58Z</time>
      </trkpt>
      <trkpt lat="44.26362" lon="5.74824">
        <ele>630</ele>
        <time>2019-05-24T11:30:59Z</time>
      </trkpt>
      <trkpt lat="44.26359" lon="5.74819">
        <ele>631</ele>
        <time>2019-05-24T11:31:00Z</time>
      </trkpt>
      <trkpt lat="44.26355" lon="5.74813">
        <ele>631</ele>
        <time>2019-05-24T11:31:01Z</time>
      </trkpt>
      <trkpt lat="44.26352" lon="5.74807">
        <ele>631</ele>
        <time>2019-05-24T11:31:02Z</time>
      </trkpt>
      <trkpt lat="44.26349" lon="5.74802">
        <ele>631</ele>
        <time>2019-05-24T11:31:03Z</time>
      </trkpt>
      <trkpt lat="44.26345" lon="5.74796">
        <ele>631</ele>
        <time>2019-05-24T11:31:04Z</time>
      </trkpt>
      <trkpt lat="44.26342" lon="5.7479">
        <ele>631</ele>
        <time>2019-05-24T11:31:05Z</time>
      </trkpt>
      <trkpt lat="44.26339" lon="5.74785">
        <ele>632</ele>
        <time>2019-05-24T11:31:06Z</time>
      </trkpt>
      <trkpt lat="44.26336" lon="5.74779">
        <ele>632</ele>
        <time>2019-05-24T11:31:07Z</time>
      </trkpt>
      <trkpt lat="44.26333" lon="5.74773">
        <ele>632</ele>
        <time>2019-05-24T11:31:08Z</time>
      </trkpt>
      <trkpt lat="44.26331" lon="5.74767">
        <ele>632</ele>
        <time>2019-05-24T11:31:09Z</time>
      </trkpt>
      <trkpt lat="44.26328" lon="5.74761">
        <ele>633</ele>
        <time>2019-05-24T11:31:10Z</time>
      </trkpt>
      <trkpt lat="44.26326" lon="5.74755">
        <ele>633</ele>
        <time>2019-05-24T11:31:11Z</time>
      </trkpt>
      <trkpt lat="44.26323" lon="5.7475">
        <ele>633</ele>
        <time>2019-05-24T11:31:12Z</time>
      </trkpt>
      <trkpt lat="44.26321" lon="5.74744">
        <ele>633</ele>
        <time>2019-05-24T11:31:13Z</time>
      </trkpt>
      <trkpt lat="44.26318" lon="5.74737">
        <ele>634</ele>
        <time>2019-05-24T11:31:14Z</time>
      </trkpt>
      <trkpt lat="44.26316" lon="5.74731">
        <ele>634</ele>
        <time>2019-05-24T11:31:15Z</time>
      </trkpt>
      <trkpt lat="44.26313" lon="5.74725">
        <ele>634</ele>
        <time>2019-05-24T11:31:16Z</time>
      </trkpt>
      <trkpt lat="44.26311" lon="5.74719">
        <ele>634</ele>
        <time>2019-05-24T11:31:17Z</time>
      </trkpt>
      <trkpt lat="44.26308" lon="5.74713">
        <ele>634</ele>
        <time>2019-05-24T11:31:18Z</time>
      </trkpt>
      <trkpt lat="44.26306" lon="5.74707">
        <ele>635</ele>
        <time>2019-05-24T11:31:19Z</time>
      </trkpt>
      <trkpt lat="44.26304" lon="5.74702">
        <ele>635</ele>
        <time>2019-05-24T11:31:20Z</time>
      </trkpt>
      <trkpt lat="44.26302" lon="5.74696">
        <ele>635</ele>
        <time>2019-05-24T11:31:21Z</time>
      </trkpt>
      <trkpt lat="44.263" lon="5.7469">
        <ele>635</ele>
        <time>2019-05-24T11:31:22Z</time>
      </trkpt>
      <trkpt lat="44.26297" lon="5.74685">
        <ele>635</ele>
        <time>2019-05-24T11:31:23Z</time>
      </trkpt>
      <trkpt lat="44.26295" lon="5.74679">
        <ele>635</ele>
        <time>2019-05-24T11:31:24Z</time>
      </trkpt>
      <trkpt lat="44.26293" lon="5.74673">
        <ele>635</ele>
        <time>2019-05-24T11:31:25Z</time>
      </trkpt>
      <trkpt lat="44.26291" lon="5.74668">
        <ele>635</ele>
        <time>2019-05-24T11:31:26Z</time>
      </trkpt>
      <trkpt lat="44.26289" lon="5.74661">
        <ele>635</ele>
        <time>2019-05-24T11:31:27Z</time>
      </trkpt>
      <trkpt lat="44.26286" lon="5.74655">
        <ele>635</ele>
        <time>2019-05-24T11:31:28Z</time>
      </trkpt>
      <trkpt lat="44.26284" lon="5.74649">
        <ele>635</ele>
        <time>2019-05-24T11:31:29Z</time>
      </trkpt>
      <trkpt lat="44.26283" lon="5.74643">
        <ele>635</ele>
        <time>2019-05-24T11:31:30Z</time>
      </trkpt>
      <trkpt lat="44.26281" lon="5.74636">
        <ele>635</ele>
        <time>2019-05-24T11:31:31Z</time>
      </trkpt>
      <trkpt lat="44.26281" lon="5.74629">
        <ele>635</ele>
        <time>2019-05-24T11:31:32Z</time>
      </trkpt>
      <trkpt lat="44.26281" lon="5.74622">
        <ele>635</ele>
        <time>2019-05-24T11:31:33Z</time>
      </trkpt>
      <trkpt lat="44.26281" lon="5.74616">
        <ele>635</ele>
        <time>2019-05-24T11:31:34Z</time>
      </trkpt>
      <trkpt lat="44.26283" lon="5.74609">
        <ele>635</ele>
        <time>2019-05-24T11:31:35Z</time>
      </trkpt>
      <trkpt lat="44.26284" lon="5.74603">
        <ele>636</ele>
        <time>2019-05-24T11:31:36Z</time>
      </trkpt>
      <trkpt lat="44.26286" lon="5.74596">
        <ele>636</ele>
        <time>2019-05-24T11:31:37Z</time>
      </trkpt>
      <trkpt lat="44.26289" lon="5.74589">
        <ele>636</ele>
        <time>2019-05-24T11:31:38Z</time>
      </trkpt>
      <trkpt lat="44.26291" lon="5.74583">
        <ele>636</ele>
        <time>2019-05-24T11:31:39Z</time>
      </trkpt>
      <trkpt lat="44.26294" lon="5.74576">
        <ele>636</ele>
        <time>2019-05-24T11:31:40Z</time>
      </trkpt>
      <trkpt lat="44.26297" lon="5.7457">
        <ele>637</ele>
        <time>2019-05-24T11:31:41Z</time>
      </trkpt>
      <trkpt lat="44.263" lon="5.74564">
        <ele>637</ele>
        <time>2019-05-24T11:31:42Z</time>
      </trkpt>
      <trkpt lat="44.26302" lon="5.74557">
        <ele>637</ele>
        <time>2019-05-24T11:31:43Z</time>
      </trkpt>
      <trkpt lat="44.26305" lon="5.74551">
        <ele>637</ele>
        <time>2019-05-24T11:31:44Z</time>
      </trkpt>
      <trkpt lat="44.26308" lon="5.74545">
        <ele>637</ele>
        <time>2019-05-24T11:31:45Z</time>
      </trkpt>
      <trkpt lat="44.26311" lon="5.74538">
        <ele>637</ele>
        <time>2019-05-24T11:31:46Z</time>
      </trkpt>
      <trkpt lat="44.26314" lon="5.74532">
        <ele>637</ele>
        <time>2019-05-24T11:31:47Z</time>
      </trkpt>
      <trkpt lat="44.26317" lon="5.74525">
        <ele>637</ele>
        <time>2019-05-24T11:31:48Z</time>
      </trkpt>
      <trkpt lat="44.2632" lon="5.74519">
        <ele>637</ele>
        <time>2019-05-24T11:31:49Z</time>
      </trkpt>
      <trkpt lat="44.26322" lon="5.74512">
        <ele>637</ele>
        <time>2019-05-24T11:31:50Z</time>
      </trkpt>
      <trkpt lat="44.26325" lon="5.74506">
        <ele>637</ele>
        <time>2019-05-24T11:31:51Z</time>
      </trkpt>
      <trkpt lat="44.26329" lon="5.745">
        <ele>638</ele>
        <time>2019-05-24T11:31:52Z</time>
      </trkpt>
      <trkpt lat="44.26332" lon="5.74493">
        <ele>638</ele>
        <time>2019-05-24T11:31:53Z</time>
      </trkpt>
      <trkpt lat="44.26336" lon="5.74486">
        <ele>638</ele>
        <time>2019-05-24T11:31:54Z</time>
      </trkpt>
      <trkpt lat="44.26339" lon="5.7448">
        <ele>638</ele>
        <time>2019-05-24T11:31:55Z</time>
      </trkpt>
      <trkpt lat="44.26343" lon="5.74474">
        <ele>638</ele>
        <time>2019-05-24T11:31:56Z</time>
      </trkpt>
      <trkpt lat="44.26347" lon="5.74469">
        <ele>638</ele>
        <time>2019-05-24T11:31:57Z</time>
      </trkpt>
      <trkpt lat="44.26351" lon="5.74462">
        <ele>638</ele>
        <time>2019-05-24T11:31:58Z</time>
      </trkpt>
      <trkpt lat="44.26354" lon="5.74456">
        <ele>638</ele>
        <time>2019-05-24T11:31:59Z</time>
      </trkpt>
      <trkpt lat="44.26357" lon="5.74449">
        <ele>638</ele>
        <time>2019-05-24T11:32:00Z</time>
      </trkpt>
      <trkpt lat="44.26359" lon="5.74442">
        <ele>638</ele>
        <time>2019-05-24T11:32:01Z</time>
      </trkpt>
      <trkpt lat="44.26361" lon="5.74434">
        <ele>638</ele>
        <time>2019-05-24T11:32:02Z</time>
      </trkpt>
      <trkpt lat="44.26362" lon="5.74427">
        <ele>638</ele>
        <time>2019-05-24T11:32:03Z</time>
      </trkpt>
      <trkpt lat="44.26363" lon="5.74418">
        <ele>639</ele>
        <time>2019-05-24T11:32:04Z</time>
      </trkpt>
      <trkpt lat="44.26363" lon="5.7441">
        <ele>639</ele>
        <time>2019-05-24T11:32:05Z</time>
      </trkpt>
      <trkpt lat="44.26362" lon="5.74403">
        <ele>639</ele>
        <time>2019-05-24T11:32:06Z</time>
      </trkpt>
      <trkpt lat="44.26361" lon="5.74395">
        <ele>639</ele>
        <time>2019-05-24T11:32:07Z</time>
      </trkpt>
      <trkpt lat="44.2636" lon="5.74388">
        <ele>639</ele>
        <time>2019-05-24T11:32:08Z</time>
      </trkpt>
      <trkpt lat="44.26359" lon="5.74381">
        <ele>640</ele>
        <time>2019-05-24T11:32:09Z</time>
      </trkpt>
      <trkpt lat="44.26357" lon="5.74374">
        <ele>640</ele>
        <time>2019-05-24T11:32:10Z</time>
      </trkpt>
      <trkpt lat="44.26355" lon="5.74367">
        <ele>640</ele>
        <time>2019-05-24T11:32:11Z</time>
      </trkpt>
      <trkpt lat="44.26353" lon="5.74361">
        <ele>640</ele>
        <time>2019-05-24T11:32:12Z</time>
      </trkpt>
      <trkpt lat="44.26352" lon="5.74354">
        <ele>640</ele>
        <time>2019-05-24T11:32:13Z</time>
      </trkpt>
      <trkpt lat="44.2635" lon="5.74346">
        <ele>640</ele>
        <time>2019-05-24T11:32:14Z</time>
      </trkpt>
      <trkpt lat="44.26349" lon="5.74339">
        <ele>641</ele>
        <time>2019-05-24T11:32:15Z</time>
      </trkpt>
      <trkpt lat="44.26347" lon="5.74332">
        <ele>641</ele>
        <time>2019-05-24T11:32:16Z</time>
      </trkpt>
      <trkpt lat="44.26346" lon="5.74325">
        <ele>641</ele>
        <time>2019-05-24T11:32:17Z</time>
      </trkpt>
      <trkpt lat="44.26345" lon="5.74317">
        <ele>642</ele>
        <time>2019-05-24T11:32:18Z</time>
      </trkpt>
      <trkpt lat="44.26345" lon="5.74309">
        <ele>642</ele>
        <time>2019-05-24T11:32:19Z</time>
      </trkpt>
      <trkpt lat="44.26344" lon="5.74301">
        <ele>642</ele>
        <time>2019-05-24T11:32:20Z</time>
      </trkpt>
      <trkpt lat="44.26344" lon="5.74294">
        <ele>643</ele>
        <time>2019-05-24T11:32:21Z</time>
      </trkpt>
      <trkpt lat="44.26343" lon="5.74286">
        <ele>643</ele>
        <time>2019-05-24T11:32:22Z</time>
      </trkpt>
      <trkpt lat="44.26343" lon="5.74278">
        <ele>643</ele>
        <time>2019-05-24T11:32:23Z</time>
      </trkpt>
      <trkpt lat="44.26342" lon="5.74271">
        <ele>643</ele>
        <time>2019-05-24T11:32:24Z</time>
      </trkpt>
      <trkpt lat="44.26342" lon="5.74263">
        <ele>643</ele>
        <time>2019-05-24T11:32:25Z</time>
      </trkpt>
      <trkpt lat="44.26341" lon="5.74255">
        <ele>643</ele>
        <time>2019-05-24T11:32:26Z</time>
      </trkpt>
      <trkpt lat="44.26341" lon="5.74247">
        <ele>643</ele>
        <time>2019-05-24T11:32:27Z</time>
      </trkpt>
      <trkpt lat="44.2634" lon="5.74239">
        <ele>643</ele>
        <time>2019-05-24T11:32:28Z</time>
      </trkpt>
      <trkpt lat="44.2634" lon="5.74231">
        <ele>643</ele>
        <time>2019-05-24T11:32:29Z</time>
      </trkpt>
      <trkpt lat="44.2634" lon="5.74222">
        <ele>643</ele>
        <time>2019-05-24T11:32:30Z</time>
      </trkpt>
      <trkpt lat="44.26339" lon="5.74214">
        <ele>643</ele>
        <time>2019-05-24T11:32:31Z</time>
      </trkpt>
      <trkpt lat="44.26339" lon="5.74206">
        <ele>643</ele>
        <time>2019-05-24T11:32:32Z</time>
      </trkpt>
      <trkpt lat="44.26338" lon="5.74197">
        <ele>643</ele>
        <time>2019-05-24T11:32:33Z</time>
      </trkpt>
      <trkpt lat="44.26337" lon="5.74189">
        <ele>643</ele>
        <time>2019-05-24T11:32:34Z</time>
      </trkpt>
      <trkpt lat="44.26337" lon="5.7418">
        <ele>643</ele>
        <time>2019-05-24T11:32:35Z</time>
      </trkpt>
      <trkpt lat="44.26337" lon="5.74172">
        <ele>643</ele>
        <time>2019-05-24T11:32:36Z</time>
      </trkpt>
      <trkpt lat="44.26336" lon="5.74163">
        <ele>643</ele>
        <time>2019-05-24T11:32:37Z</time>
      </trkpt>
      <trkpt lat="44.26336" lon="5.74154">
        <ele>643</ele>
        <time>2019-05-24T11:32:38Z</time>
      </trkpt>
      <trkpt lat="44.26335" lon="5.74145">
        <ele>643</ele>
        <time>2019-05-24T11:32:39Z</time>
      </trkpt>
      <trkpt lat="44.26334" lon="5.74136">
        <ele>643</ele>
        <time>2019-05-24T11:32:40Z</time>
      </trkpt>
      <trkpt lat="44.26334" lon="5.74128">
        <ele>643</ele>
        <time>2019-05-24T11:32:41Z</time>
      </trkpt>
      <trkpt lat="44.26334" lon="5.74119">
        <ele>644</ele>
        <time>2019-05-24T11:32:42Z</time>
      </trkpt>
      <trkpt lat="44.26333" lon="5.7411">
        <ele>644</ele>
        <time>2019-05-24T11:32:43Z</time>
      </trkpt>
      <trkpt lat="44.26333" lon="5.74101">
        <ele>644</ele>
        <time>2019-05-24T11:32:44Z</time>
      </trkpt>
      <trkpt lat="44.26333" lon="5.74092">
        <ele>644</ele>
        <time>2019-05-24T11:32:45Z</time>
      </trkpt>
      <trkpt lat="44.26332" lon="5.74083">
        <ele>644</ele>
        <time>2019-05-24T11:32:46Z</time>
      </trkpt>
      <trkpt lat="44.26332" lon="5.74074">
        <ele>644</ele>
        <time>2019-05-24T11:32:47Z</time>
      </trkpt>
      <trkpt lat="44.26331" lon="5.74065">
        <ele>644</ele>
        <time>2019-05-24T11:32:48Z</time>
      </trkpt>
      <trkpt lat="44.26331" lon="5.74056">
        <ele>644</ele>
        <time>2019-05-24T11:32:49Z</time>
      </trkpt>
      <trkpt lat="44.26331" lon="5.74048">
        <ele>644</ele>
        <time>2019-05-24T11:32:50Z</time>
      </trkpt>
      <trkpt lat="44.2633" lon="5.74039">
        <ele>644</ele>
        <time>2019-05-24T11:32:51Z</time>
      </trkpt>
      <trkpt lat="44.26329" lon="5.7403">
        <ele>644</ele>
        <time>2019-05-24T11:32:52Z</time>
      </trkpt>
      <trkpt lat="44.26329" lon="5.74022">
        <ele>644</ele>
        <time>2019-05-24T11:32:53Z</time>
      </trkpt>
      <trkpt lat="44.26328" lon="5.74014">
        <ele>644</ele>
        <time>2019-05-24T11:32:54Z</time>
      </trkpt>
      <trkpt lat="44.26328" lon="5.74005">
        <ele>644</ele>
        <time>2019-05-24T11:32:55Z</time>
      </trkpt>
      <trkpt lat="44.26328" lon="5.73997">
        <ele>644</ele>
        <time>2019-05-24T11:32:56Z</time>
      </trkpt>
      <trkpt lat="44.26327" lon="5.73988">
        <ele>644</ele>
        <time>2019-05-24T11:32:57Z</time>
      </trkpt>
      <trkpt lat="44.26327" lon="5.7398">
        <ele>644</ele>
        <time>2019-05-24T11:32:58Z</time>
      </trkpt>
      <trkpt lat="44.26326" lon="5.73971">
        <ele>644</ele>
        <time>2019-05-24T11:32:59Z</time>
      </trkpt>
      <trkpt lat="44.26326" lon="5.73962">
        <ele>644</ele>
        <time>2019-05-24T11:33:00Z</time>
      </trkpt>
      <trkpt lat="44.26326" lon="5.73953">
        <ele>644</ele>
        <time>2019-05-24T11:33:01Z</time>
      </trkpt>
      <trkpt lat="44.26325" lon="5.73944">
        <ele>644</ele>
        <time>2019-05-24T11:33:02Z</time>
      </trkpt>
      <trkpt lat="44.26325" lon="5.73935">
        <ele>644</ele>
        <time>2019-05-24T11:33:03Z</time>
      </trkpt>
      <trkpt lat="44.26324" lon="5.73925">
        <ele>644</ele>
        <time>2019-05-24T11:33:04Z</time>
      </trkpt>
      <trkpt lat="44.26323" lon="5.73915">
        <ele>644</ele>
        <time>2019-05-24T11:33:05Z</time>
      </trkpt>
      <trkpt lat="44.26323" lon="5.73906">
        <ele>644</ele>
        <time>2019-05-24T11:33:06Z</time>
      </trkpt>
      <trkpt lat="44.26323" lon="5.73896">
        <ele>644</ele>
        <time>2019-05-24T11:33:07Z</time>
      </trkpt>
      <trkpt lat="44.26322" lon="5.73886">
        <ele>644</ele>
        <time>2019-05-24T11:33:08Z</time>
      </trkpt>
      <trkpt lat="44.26321" lon="5.73876">
        <ele>644</ele>
        <time>2019-05-24T11:33:09Z</time>
      </trkpt>
      <trkpt lat="44.26321" lon="5.73865">
        <ele>644</ele>
        <time>2019-05-24T11:33:10Z</time>
      </trkpt>
      <trkpt lat="44.26321" lon="5.73855">
        <ele>644</ele>
        <time>2019-05-24T11:33:11Z</time>
      </trkpt>
      <trkpt lat="44.2632" lon="5.73844">
        <ele>644</ele>
        <time>2019-05-24T11:33:12Z</time>
      </trkpt>
      <trkpt lat="44.26319" lon="5.73833">
        <ele>644</ele>
        <time>2019-05-24T11:33:13Z</time>
      </trkpt>
      <trkpt lat="44.26318" lon="5.73822">
        <ele>644</ele>
        <time>2019-05-24T11:33:14Z</time>
      </trkpt>
      <trkpt lat="44.26317" lon="5.73811">
        <ele>644</ele>
        <time>2019-05-24T11:33:15Z</time>
      </trkpt>
      <trkpt lat="44.26316" lon="5.738">
        <ele>644</ele>
        <time>2019-05-24T11:33:16Z</time>
      </trkpt>
      <trkpt lat="44.26315" lon="5.73789">
        <ele>644</ele>
        <time>2019-05-24T11:33:17Z</time>
      </trkpt>
      <trkpt lat="44.26313" lon="5.73778">
        <ele>644</ele>
        <time>2019-05-24T11:33:18Z</time>
      </trkpt>
      <trkpt lat="44.26312" lon="5.73768">
        <ele>644</ele>
        <time>2019-05-24T11:33:19Z</time>
      </trkpt>
      <trkpt lat="44.2631" lon="5.73757">
        <ele>644</ele>
        <time>2019-05-24T11:33:20Z</time>
      </trkpt>
      <trkpt lat="44.26309" lon="5.73746">
        <ele>644</ele>
        <time>2019-05-24T11:33:21Z</time>
      </trkpt>
      <trkpt lat="44.26308" lon="5.73736">
        <ele>644</ele>
        <time>2019-05-24T11:33:22Z</time>
      </trkpt>
      <trkpt lat="44.26306" lon="5.73725">
        <ele>644</ele>
        <time>2019-05-24T11:33:23Z</time>
      </trkpt>
      <trkpt lat="44.26305" lon="5.73714">
        <ele>644</ele>
        <time>2019-05-24T11:33:24Z</time>
      </trkpt>
      <trkpt lat="44.26303" lon="5.73703">
        <ele>644</ele>
        <time>2019-05-24T11:33:25Z</time>
      </trkpt>
      <trkpt lat="44.26302" lon="5.73692">
        <ele>644</ele>
        <time>2019-05-24T11:33:26Z</time>
      </trkpt>
      <trkpt lat="44.263" lon="5.73681">
        <ele>644</ele>
        <time>2019-05-24T11:33:27Z</time>
      </trkpt>
      <trkpt lat="44.26298" lon="5.7367">
        <ele>644</ele>
        <time>2019-05-24T11:33:28Z</time>
      </trkpt>
      <trkpt lat="44.26296" lon="5.73659">
        <ele>644</ele>
        <time>2019-05-24T11:33:29Z</time>
      </trkpt>
      <trkpt lat="44.26294" lon="5.73649">
        <ele>644</ele>
        <time>2019-05-24T11:33:30Z</time>
      </trkpt>
      <trkpt lat="44.26293" lon="5.73638">
        <ele>644</ele>
        <time>2019-05-24T11:33:31Z</time>
      </trkpt>
      <trkpt lat="44.26291" lon="5.73629">
        <ele>644</ele>
        <time>2019-05-24T11:33:32Z</time>
      </trkpt>
      <trkpt lat="44.2629" lon="5.73619">
        <ele>644</ele>
        <time>2019-05-24T11:33:33Z</time>
      </trkpt>
      <trkpt lat="44.26289" lon="5.7361">
        <ele>644</ele>
        <time>2019-05-24T11:33:34Z</time>
      </trkpt>
      <trkpt lat="44.26288" lon="5.73602">
        <ele>644</ele>
        <time>2019-05-24T11:33:35Z</time>
      </trkpt>
      <trkpt lat="44.26287" lon="5.73594">
        <ele>644</ele>
        <time>2019-05-24T11:33:36Z</time>
      </trkpt>
      <trkpt lat="44.26286" lon="5.73586">
        <ele>644</ele>
        <time>2019-05-24T11:33:37Z</time>
      </trkpt>
      <trkpt lat="44.26285" lon="5.73578">
        <ele>644</ele>
        <time>2019-05-24T11:33:38Z</time>
      </trkpt>
      <trkpt lat="44.26284" lon="5.7357">
        <ele>644</ele>
        <time>2019-05-24T11:33:39Z</time>
      </trkpt>
      <trkpt lat="44.26283" lon="5.73561">
        <ele>644</ele>
        <time>2019-05-24T11:33:40Z</time>
      </trkpt>
      <trkpt lat="44.26281" lon="5.73553">
        <ele>644</ele>
        <time>2019-05-24T11:33:41Z</time>
      </trkpt>
      <trkpt lat="44.26281" lon="5.73544">
        <ele>644</ele>
        <time>2019-05-24T11:33:42Z</time>
      </trkpt>
      <trkpt lat="44.26279" lon="5.73535">
        <ele>644</ele>
        <time>2019-05-24T11:33:43Z</time>
      </trkpt>
      <trkpt lat="44.26278" lon="5.73527">
        <ele>644</ele>
        <time>2019-05-24T11:33:44Z</time>
      </trkpt>
      <trkpt lat="44.26277" lon="5.73518">
        <ele>644</ele>
        <time>2019-05-24T11:33:45Z</time>
      </trkpt>
      <trkpt lat="44.26276" lon="5.7351">
        <ele>644</ele>
        <time>2019-05-24T11:33:46Z</time>
      </trkpt>
      <trkpt lat="44.26274" lon="5.73501">
        <ele>644</ele>
        <time>2019-05-24T11:33:47Z</time>
      </trkpt>
      <trkpt lat="44.26273" lon="5.73492">
        <ele>644</ele>
        <time>2019-05-24T11:33:48Z</time>
      </trkpt>
      <trkpt lat="44.26273" lon="5.73484">
        <ele>644</ele>
        <time>2019-05-24T11:33:49Z</time>
      </trkpt>
      <trkpt lat="44.26272" lon="5.73475">
        <ele>644</ele>
        <time>2019-05-24T11:33:50Z</time>
      </trkpt>
      <trkpt lat="44.2627" lon="5.73467">
        <ele>644</ele>
        <time>2019-05-24T11:33:51Z</time>
      </trkpt>
      <trkpt lat="44.26268" lon="5.73459">
        <ele>644</ele>
        <time>2019-05-24T11:33:52Z</time>
      </trkpt>
      <trkpt lat="44.26267" lon="5.73451">
        <ele>644</ele>
        <time>2019-05-24T11:33:53Z</time>
      </trkpt>
      <trkpt lat="44.26266" lon="5.73444">
        <ele>644</ele>
        <time>2019-05-24T11:33:54Z</time>
      </trkpt>
      <trkpt lat="44.26264" lon="5.73437">
        <ele>644</ele>
        <time>2019-05-24T11:33:55Z</time>
      </trkpt>
      <trkpt lat="44.26263" lon="5.73429">
        <ele>644</ele>
        <time>2019-05-24T11:33:56Z</time>
      </trkpt>
      <trkpt lat="44.26261" lon="5.73422">
        <ele>644</ele>
        <time>2019-05-24T11:33:57Z</time>
      </trkpt>
      <trkpt lat="44.26259" lon="5.73415">
        <ele>644</ele>
        <time>2019-05-24T11:33:58Z</time>
      </trkpt>
      <trkpt lat="44.26257" lon="5.73408">
        <ele>644</ele>
        <time>2019-05-24T11:33:59Z</time>
      </trkpt>
      <trkpt lat="44.26255" lon="5.73401">
        <ele>644</ele>
        <time>2019-05-24T11:34:00Z</time>
      </trkpt>
      <trkpt lat="44.26252" lon="5.73394">
        <ele>644</ele>
        <time>2019-05-24T11:34:01Z</time>
      </trkpt>
      <trkpt lat="44.2625" lon="5.73387">
        <ele>644</ele>
        <time>2019-05-24T11:34:02Z</time>
      </trkpt>
      <trkpt lat="44.26248" lon="5.73381">
        <ele>644</ele>
        <time>2019-05-24T11:34:03Z</time>
      </trkpt>
      <trkpt lat="44.26246" lon="5.73374">
        <ele>644</ele>
        <time>2019-05-24T11:34:04Z</time>
      </trkpt>
      <trkpt lat="44.26244" lon="5.73367">
        <ele>645</ele>
        <time>2019-05-24T11:34:05Z</time>
      </trkpt>
      <trkpt lat="44.26242" lon="5.73361">
        <ele>645</ele>
        <time>2019-05-24T11:34:06Z</time>
      </trkpt>
      <trkpt lat="44.26239" lon="5.73354">
        <ele>645</ele>
        <time>2019-05-24T11:34:07Z</time>
      </trkpt>
      <trkpt lat="44.26237" lon="5.73347">
        <ele>646</ele>
        <time>2019-05-24T11:34:08Z</time>
      </trkpt>
      <trkpt lat="44.26236" lon="5.7334">
        <ele>646</ele>
        <time>2019-05-24T11:34:09Z</time>
      </trkpt>
      <trkpt lat="44.26234" lon="5.73333">
        <ele>646</ele>
        <time>2019-05-24T11:34:10Z</time>
      </trkpt>
      <trkpt lat="44.26232" lon="5.73327">
        <ele>647</ele>
        <time>2019-05-24T11:34:11Z</time>
      </trkpt>
      <trkpt lat="44.26229" lon="5.73319">
        <ele>647</ele>
        <time>2019-05-24T11:34:12Z</time>
      </trkpt>
      <trkpt lat="44.26227" lon="5.73312">
        <ele>647</ele>
        <time>2019-05-24T11:34:13Z</time>
      </trkpt>
      <trkpt lat="44.26224" lon="5.73305">
        <ele>647</ele>
        <time>2019-05-24T11:34:14Z</time>
      </trkpt>
      <trkpt lat="44.26222" lon="5.73298">
        <ele>648</ele>
        <time>2019-05-24T11:34:15Z</time>
      </trkpt>
      <trkpt lat="44.26219" lon="5.73291">
        <ele>648</ele>
        <time>2019-05-24T11:34:16Z</time>
      </trkpt>
      <trkpt lat="44.26217" lon="5.73284">
        <ele>648</ele>
        <time>2019-05-24T11:34:17Z</time>
      </trkpt>
      <trkpt lat="44.26214" lon="5.73277">
        <ele>648</ele>
        <time>2019-05-24T11:34:18Z</time>
      </trkpt>
      <trkpt lat="44.26211" lon="5.7327">
        <ele>649</ele>
        <time>2019-05-24T11:34:19Z</time>
      </trkpt>
      <trkpt lat="44.26208" lon="5.73262">
        <ele>649</ele>
        <time>2019-05-24T11:34:20Z</time>
      </trkpt>
      <trkpt lat="44.26206" lon="5.73254">
        <ele>649</ele>
        <time>2019-05-24T11:34:21Z</time>
      </trkpt>
      <trkpt lat="44.26204" lon="5.73247">
        <ele>649</ele>
        <time>2019-05-24T11:34:22Z</time>
      </trkpt>
      <trkpt lat="44.26202" lon="5.73239">
        <ele>649</ele>
        <time>2019-05-24T11:34:23Z</time>
      </trkpt>
      <trkpt lat="44.26201" lon="5.73232">
        <ele>649</ele>
        <time>2019-05-24T11:34:24Z</time>
      </trkpt>
      <trkpt lat="44.262" lon="5.73225">
        <ele>649</ele>
        <time>2019-05-24T11:34:25Z</time>
      </trkpt>
      <trkpt lat="44.26199" lon="5.73218">
        <ele>650</ele>
        <time>2019-05-24T11:34:26Z</time>
      </trkpt>
      <trkpt lat="44.26197" lon="5.73211">
        <ele>650</ele>
        <time>2019-05-24T11:34:27Z</time>
      </trkpt>
      <trkpt lat="44.26196" lon="5.73203">
        <ele>650</ele>
        <time>2019-05-24T11:34:28Z</time>
      </trkpt>
      <trkpt lat="44.26193" lon="5.73195">
        <ele>650</ele>
        <time>2019-05-24T11:34:29Z</time>
      </trkpt>
      <trkpt lat="44.2619" lon="5.73187">
        <ele>650</ele>
        <time>2019-05-24T11:34:30Z</time>
      </trkpt>
      <trkpt lat="44.26187" lon="5.73179">
        <ele>650</ele>
        <time>2019-05-24T11:34:31Z</time>
      </trkpt>
      <trkpt lat="44.26183" lon="5.73171">
        <ele>650</ele>
        <time>2019-05-24T11:34:32Z</time>
      </trkpt>
      <trkpt lat="44.26181" lon="5.73163">
        <ele>650</ele>
        <time>2019-05-24T11:34:33Z</time>
      </trkpt>
      <trkpt lat="44.26178" lon="5.73155">
        <ele>650</ele>
        <time>2019-05-24T11:34:34Z</time>
      </trkpt>
      <trkpt lat="44.26175" lon="5.73147">
        <ele>650</ele>
        <time>2019-05-24T11:34:35Z</time>
      </trkpt>
      <trkpt lat="44.26171" lon="5.7314">
        <ele>650</ele>
        <time>2019-05-24T11:34:36Z</time>
      </trkpt>
      <trkpt lat="44.2617" lon="5.73132">
        <ele>650</ele>
        <time>2019-05-24T11:34:37Z</time>
      </trkpt>
      <trkpt lat="44.26165" lon="5.73124">
        <ele>650</ele>
        <time>2019-05-24T11:34:38Z</time>
      </trkpt>
      <trkpt lat="44.26163" lon="5.73115">
        <ele>650</ele>
        <time>2019-05-24T11:34:39Z</time>
      </trkpt>
      <trkpt lat="44.26162" lon="5.73106">
        <ele>650</ele>
        <time>2019-05-24T11:34:39Z</time>
      </trkpt>
      <trkpt lat="44.2616" lon="5.73098">
        <ele>650</ele>
        <time>2019-05-24T11:34:41Z</time>
      </trkpt>
      <trkpt lat="44.26159" lon="5.7309">
        <ele>650</ele>
        <time>2019-05-24T11:34:42Z</time>
      </trkpt>
      <trkpt lat="44.26158" lon="5.73081">
        <ele>650</ele>
        <time>2019-05-24T11:34:43Z</time>
      </trkpt>
      <trkpt lat="44.26157" lon="5.73073">
        <ele>650</ele>
        <time>2019-05-24T11:34:44Z</time>
      </trkpt>
      <trkpt lat="44.26156" lon="5.73065">
        <ele>650</ele>
        <time>2019-05-24T11:34:45Z</time>
      </trkpt>
      <trkpt lat="44.26155" lon="5.73058">
        <ele>650</ele>
        <time>2019-05-24T11:34:46Z</time>
      </trkpt>
      <trkpt lat="44.26156" lon="5.7305">
        <ele>650</ele>
        <time>2019-05-24T11:34:47Z</time>
      </trkpt>
      <trkpt lat="44.26156" lon="5.73042">
        <ele>650</ele>
        <time>2019-05-24T11:34:48Z</time>
      </trkpt>
      <trkpt lat="44.26156" lon="5.73035">
        <ele>650</ele>
        <time>2019-05-24T11:34:49Z</time>
      </trkpt>
      <trkpt lat="44.26156" lon="5.73027">
        <ele>650</ele>
        <time>2019-05-24T11:34:50Z</time>
      </trkpt>
      <trkpt lat="44.26156" lon="5.7302">
        <ele>650</ele>
        <time>2019-05-24T11:34:51Z</time>
      </trkpt>
      <trkpt lat="44.26156" lon="5.73013">
        <ele>650</ele>
        <time>2019-05-24T11:34:52Z</time>
      </trkpt>
      <trkpt lat="44.26156" lon="5.73006">
        <ele>650</ele>
        <time>2019-05-24T11:34:53Z</time>
      </trkpt>
      <trkpt lat="44.26157" lon="5.72999">
        <ele>650</ele>
        <time>2019-05-24T11:34:54Z</time>
      </trkpt>
      <trkpt lat="44.26157" lon="5.72992">
        <ele>650</ele>
        <time>2019-05-24T11:34:55Z</time>
      </trkpt>
      <trkpt lat="44.26157" lon="5.72985">
        <ele>650</ele>
        <time>2019-05-24T11:34:55Z</time>
      </trkpt>
      <trkpt lat="44.26157" lon="5.72977">
        <ele>650</ele>
        <time>2019-05-24T11:34:57Z</time>
      </trkpt>
      <trkpt lat="44.26157" lon="5.7297">
        <ele>650</ele>
        <time>2019-05-24T11:34:58Z</time>
      </trkpt>
      <trkpt lat="44.26158" lon="5.72963">
        <ele>650</ele>
        <time>2019-05-24T11:34:59Z</time>
      </trkpt>
      <trkpt lat="44.26158" lon="5.72956">
        <ele>650</ele>
        <time>2019-05-24T11:35:00Z</time>
      </trkpt>
      <trkpt lat="44.26158" lon="5.72949">
        <ele>650</ele>
        <time>2019-05-24T11:35:01Z</time>
      </trkpt>
      <trkpt lat="44.26158" lon="5.72942">
        <ele>650</ele>
        <time>2019-05-24T11:35:02Z</time>
      </trkpt>
      <trkpt lat="44.26158" lon="5.72935">
        <ele>650</ele>
        <time>2019-05-24T11:35:03Z</time>
      </trkpt>
      <trkpt lat="44.26159" lon="5.72928">
        <ele>650</ele>
        <time>2019-05-24T11:35:04Z</time>
      </trkpt>
      <trkpt lat="44.2616" lon="5.72921">
        <ele>650</ele>
        <time>2019-05-24T11:35:05Z</time>
      </trkpt>
      <trkpt lat="44.2616" lon="5.72914">
        <ele>650</ele>
        <time>2019-05-24T11:35:06Z</time>
      </trkpt>
      <trkpt lat="44.2616" lon="5.72907">
        <ele>650</ele>
        <time>2019-05-24T11:35:07Z</time>
      </trkpt>
      <trkpt lat="44.26161" lon="5.729">
        <ele>650</ele>
        <time>2019-05-24T11:35:07Z</time>
      </trkpt>
      <trkpt lat="44.26161" lon="5.72893">
        <ele>650</ele>
        <time>2019-05-24T11:35:09Z</time>
      </trkpt>
      <trkpt lat="44.26161" lon="5.72886">
        <ele>650</ele>
        <time>2019-05-24T11:35:10Z</time>
      </trkpt>
      <trkpt lat="44.26161" lon="5.72879">
        <ele>651</ele>
        <time>2019-05-24T11:35:11Z</time>
      </trkpt>
      <trkpt lat="44.26161" lon="5.72872">
        <ele>651</ele>
        <time>2019-05-24T11:35:12Z</time>
      </trkpt>
      <trkpt lat="44.26161" lon="5.72865">
        <ele>652</ele>
        <time>2019-05-24T11:35:13Z</time>
      </trkpt>
      <trkpt lat="44.26162" lon="5.72858">
        <ele>652</ele>
        <time>2019-05-24T11:35:14Z</time>
      </trkpt>
      <trkpt lat="44.26162" lon="5.72851">
        <ele>652</ele>
        <time>2019-05-24T11:35:15Z</time>
      </trkpt>
      <trkpt lat="44.26162" lon="5.72844">
        <ele>653</ele>
        <time>2019-05-24T11:35:15Z</time>
      </trkpt>
      <trkpt lat="44.26162" lon="5.72837">
        <ele>653</ele>
        <time>2019-05-24T11:35:17Z</time>
      </trkpt>
      <trkpt lat="44.26162" lon="5.7283">
        <ele>653</ele>
        <time>2019-05-24T11:35:18Z</time>
      </trkpt>
      <trkpt lat="44.26162" lon="5.72823">
        <ele>654</ele>
        <time>2019-05-24T11:35:19Z</time>
      </trkpt>
      <trkpt lat="44.26162" lon="5.72816">
        <ele>654</ele>
        <time>2019-05-24T11:35:20Z</time>
      </trkpt>
      <trkpt lat="44.26163" lon="5.72809">
        <ele>654</ele>
        <time>2019-05-24T11:35:21Z</time>
      </trkpt>
      <trkpt lat="44.26163" lon="5.72802">
        <ele>654</ele>
        <time>2019-05-24T11:35:21Z</time>
      </trkpt>
      <trkpt lat="44.26163" lon="5.72795">
        <ele>654</ele>
        <time>2019-05-24T11:35:23Z</time>
      </trkpt>
      <trkpt lat="44.26163" lon="5.72788">
        <ele>654</ele>
        <time>2019-05-24T11:35:23Z</time>
      </trkpt>
      <trkpt lat="44.26162" lon="5.72781">
        <ele>654</ele>
        <time>2019-05-24T11:35:25Z</time>
      </trkpt>
      <trkpt lat="44.26162" lon="5.72774">
        <ele>655</ele>
        <time>2019-05-24T11:35:26Z</time>
      </trkpt>
      <trkpt lat="44.2616" lon="5.72767">
        <ele>655</ele>
        <time>2019-05-24T11:35:27Z</time>
      </trkpt>
      <trkpt lat="44.26159" lon="5.7276">
        <ele>655</ele>
        <time>2019-05-24T11:35:28Z</time>
      </trkpt>
      <trkpt lat="44.26159" lon="5.72754">
        <ele>655</ele>
        <time>2019-05-24T11:35:28Z</time>
      </trkpt>
      <trkpt lat="44.26157" lon="5.72747">
        <ele>656</ele>
        <time>2019-05-24T11:35:30Z</time>
      </trkpt>
      <trkpt lat="44.26156" lon="5.72741">
        <ele>656</ele>
        <time>2019-05-24T11:35:31Z</time>
      </trkpt>
      <trkpt lat="44.26154" lon="5.72734">
        <ele>656</ele>
        <time>2019-05-24T11:35:31Z</time>
      </trkpt>
      <trkpt lat="44.26152" lon="5.72727">
        <ele>656</ele>
        <time>2019-05-24T11:35:33Z</time>
      </trkpt>
      <trkpt lat="44.26151" lon="5.7272">
        <ele>656</ele>
        <time>2019-05-24T11:35:33Z</time>
      </trkpt>
      <trkpt lat="44.26149" lon="5.72714">
        <ele>656</ele>
        <time>2019-05-24T11:35:35Z</time>
      </trkpt>
      <trkpt lat="44.26148" lon="5.72707">
        <ele>657</ele>
        <time>2019-05-24T11:35:36Z</time>
      </trkpt>
      <trkpt lat="44.26146" lon="5.72701">
        <ele>657</ele>
        <time>2019-05-24T11:35:36Z</time>
      </trkpt>
      <trkpt lat="44.26144" lon="5.72694">
        <ele>657</ele>
        <time>2019-05-24T11:35:38Z</time>
      </trkpt>
      <trkpt lat="44.26143" lon="5.72687">
        <ele>657</ele>
        <time>2019-05-24T11:35:39Z</time>
      </trkpt>
      <trkpt lat="44.26141" lon="5.7268">
        <ele>657</ele>
        <time>2019-05-24T11:35:39Z</time>
      </trkpt>
      <trkpt lat="44.26139" lon="5.72673">
        <ele>657</ele>
        <time>2019-05-24T11:35:41Z</time>
      </trkpt>
      <trkpt lat="44.26138" lon="5.72666">
        <ele>657</ele>
        <time>2019-05-24T11:35:42Z</time>
      </trkpt>
      <trkpt lat="44.26136" lon="5.72659">
        <ele>657</ele>
        <time>2019-05-24T11:35:43Z</time>
      </trkpt>
      <trkpt lat="44.26134" lon="5.72652">
        <ele>658</ele>
        <time>2019-05-24T11:35:43Z</time>
      </trkpt>
      <trkpt lat="44.26133" lon="5.72645">
        <ele>658</ele>
        <time>2019-05-24T11:35:44Z</time>
      </trkpt>
      <trkpt lat="44.26131" lon="5.72638">
        <ele>659</ele>
        <time>2019-05-24T11:35:45Z</time>
      </trkpt>
      <trkpt lat="44.26129" lon="5.72631">
        <ele>659</ele>
        <time>2019-05-24T11:35:47Z</time>
      </trkpt>
      <trkpt lat="44.26128" lon="5.72624">
        <ele>659</ele>
        <time>2019-05-24T11:35:48Z</time>
      </trkpt>
      <trkpt lat="44.26126" lon="5.72617">
        <ele>660</ele>
        <time>2019-05-24T11:35:48Z</time>
      </trkpt>
      <trkpt lat="44.26124" lon="5.7261">
        <ele>660</ele>
        <time>2019-05-24T11:35:49Z</time>
      </trkpt>
      <trkpt lat="44.26123" lon="5.72604">
        <ele>660</ele>
        <time>2019-05-24T11:35:50Z</time>
      </trkpt>
      <trkpt lat="44.26121" lon="5.72597">
        <ele>660</ele>
        <time>2019-05-24T11:35:51Z</time>
      </trkpt>
      <trkpt lat="44.26119" lon="5.72589">
        <ele>660</ele>
        <time>2019-05-24T11:35:53Z</time>
      </trkpt>
      <trkpt lat="44.26117" lon="5.72581">
        <ele>660</ele>
        <time>2019-05-24T11:35:53Z</time>
      </trkpt>
      <trkpt lat="44.26115" lon="5.72574">
        <ele>660</ele>
        <time>2019-05-24T11:35:54Z</time>
      </trkpt>
      <trkpt lat="44.26114" lon="5.72566">
        <ele>660</ele>
        <time>2019-05-24T11:35:55Z</time>
      </trkpt>
      <trkpt lat="44.26112" lon="5.72558">
        <ele>660</ele>
        <time>2019-05-24T11:35:57Z</time>
      </trkpt>
      <trkpt lat="44.2611" lon="5.72549">
        <ele>660</ele>
        <time>2019-05-24T11:35:58Z</time>
      </trkpt>
      <trkpt lat="44.26107" lon="5.72541">
        <ele>660</ele>
        <time>2019-05-24T11:35:58Z</time>
      </trkpt>
      <trkpt lat="44.26106" lon="5.72532">
        <ele>660</ele>
        <time>2019-05-24T11:35:59Z</time>
      </trkpt>
      <trkpt lat="44.26104" lon="5.72523">
        <ele>660</ele>
        <time>2019-05-24T11:36:00Z</time>
      </trkpt>
      <trkpt lat="44.26102" lon="5.72514">
        <ele>660</ele>
        <time>2019-05-24T11:36:01Z</time>
      </trkpt>
      <trkpt lat="44.26101" lon="5.72505">
        <ele>660</ele>
        <time>2019-05-24T11:36:03Z</time>
      </trkpt>
      <trkpt lat="44.26098" lon="5.72496">
        <ele>660</ele>
        <time>2019-05-24T11:36:03Z</time>
      </trkpt>
      <trkpt lat="44.26096" lon="5.72486">
        <ele>660</ele>
        <time>2019-05-24T11:36:04Z</time>
      </trkpt>
      <trkpt lat="44.26093" lon="5.72477">
        <ele>660</ele>
        <time>2019-05-24T11:36:06Z</time>
      </trkpt>
      <trkpt lat="44.26091" lon="5.72468">
        <ele>660</ele>
        <time>2019-05-24T11:36:06Z</time>
      </trkpt>
      <trkpt lat="44.26089" lon="5.72459">
        <ele>660</ele>
        <time>2019-05-24T11:36:08Z</time>
      </trkpt>
      <trkpt lat="44.26087" lon="5.72449">
        <ele>660</ele>
        <time>2019-05-24T11:36:08Z</time>
      </trkpt>
      <trkpt lat="44.26085" lon="5.7244">
        <ele>660</ele>
        <time>2019-05-24T11:36:09Z</time>
      </trkpt>
      <trkpt lat="44.26083" lon="5.72431">
        <ele>660</ele>
        <time>2019-05-24T11:36:10Z</time>
      </trkpt>
      <trkpt lat="44.26081" lon="5.72422">
        <ele>660</ele>
        <time>2019-05-24T11:36:11Z</time>
      </trkpt>
      <trkpt lat="44.26078" lon="5.72412">
        <ele>660</ele>
        <time>2019-05-24T11:36:13Z</time>
      </trkpt>
      <trkpt lat="44.26075" lon="5.72404">
        <ele>660</ele>
        <time>2019-05-24T11:36:13Z</time>
      </trkpt>
      <trkpt lat="44.26072" lon="5.72396">
        <ele>660</ele>
        <time>2019-05-24T11:36:15Z</time>
      </trkpt>
      <trkpt lat="44.26068" lon="5.72388">
        <ele>660</ele>
        <time>2019-05-24T11:36:15Z</time>
      </trkpt>
      <trkpt lat="44.26065" lon="5.72379">
        <ele>660</ele>
        <time>2019-05-24T11:36:16Z</time>
      </trkpt>
      <trkpt lat="44.26061" lon="5.72372">
        <ele>660</ele>
        <time>2019-05-24T11:36:18Z</time>
      </trkpt>
      <trkpt lat="44.26057" lon="5.72364">
        <ele>660</ele>
        <time>2019-05-24T11:36:18Z</time>
      </trkpt>
      <trkpt lat="44.26053" lon="5.72356">
        <ele>660</ele>
        <time>2019-05-24T11:36:19Z</time>
      </trkpt>
      <trkpt lat="44.26049" lon="5.72348">
        <ele>660</ele>
        <time>2019-05-24T11:36:20Z</time>
      </trkpt>
      <trkpt lat="44.26046" lon="5.72341">
        <ele>660</ele>
        <time>2019-05-24T11:36:21Z</time>
      </trkpt>
      <trkpt lat="44.26042" lon="5.72333">
        <ele>660</ele>
        <time>2019-05-24T11:36:23Z</time>
      </trkpt>
      <trkpt lat="44.26038" lon="5.72326">
        <ele>660</ele>
        <time>2019-05-24T11:36:23Z</time>
      </trkpt>
      <trkpt lat="44.26035" lon="5.72318">
        <ele>659</ele>
        <time>2019-05-24T11:36:24Z</time>
      </trkpt>
      <trkpt lat="44.26031" lon="5.72311">
        <ele>659</ele>
        <time>2019-05-24T11:36:25Z</time>
      </trkpt>
      <trkpt lat="44.26027" lon="5.72304">
        <ele>659</ele>
        <time>2019-05-24T11:36:26Z</time>
      </trkpt>
      <trkpt lat="44.26024" lon="5.72296">
        <ele>659</ele>
        <time>2019-05-24T11:36:28Z</time>
      </trkpt>
      <trkpt lat="44.2602" lon="5.72289">
        <ele>659</ele>
        <time>2019-05-24T11:36:28Z</time>
      </trkpt>
      <trkpt lat="44.26017" lon="5.72281">
        <ele>659</ele>
        <time>2019-05-24T11:36:29Z</time>
      </trkpt>
      <trkpt lat="44.26013" lon="5.72273">
        <ele>659</ele>
        <time>2019-05-24T11:36:31Z</time>
      </trkpt>
      <trkpt lat="44.26009" lon="5.72265">
        <ele>659</ele>
        <time>2019-05-24T11:36:31Z</time>
      </trkpt>
      <trkpt lat="44.26005" lon="5.72258">
        <ele>659</ele>
        <time>2019-05-24T11:36:33Z</time>
      </trkpt>
      <trkpt lat="44.26001" lon="5.7225">
        <ele>659</ele>
        <time>2019-05-24T11:36:33Z</time>
      </trkpt>
      <trkpt lat="44.25998" lon="5.72242">
        <ele>659</ele>
        <time>2019-05-24T11:36:35Z</time>
      </trkpt>
      <trkpt lat="44.25994" lon="5.72235">
        <ele>659</ele>
        <time>2019-05-24T11:36:35Z</time>
      </trkpt>
      <trkpt lat="44.2599" lon="5.72227">
        <ele>659</ele>
        <time>2019-05-24T11:36:36Z</time>
      </trkpt>
      <trkpt lat="44.25986" lon="5.7222">
        <ele>659</ele>
        <time>2019-05-24T11:36:38Z</time>
      </trkpt>
      <trkpt lat="44.25983" lon="5.72213">
        <ele>659</ele>
        <time>2019-05-24T11:36:38Z</time>
      </trkpt>
      <trkpt lat="44.25979" lon="5.72205">
        <ele>659</ele>
        <time>2019-05-24T11:36:39Z</time>
      </trkpt>
      <trkpt lat="44.25975" lon="5.72197">
        <ele>659</ele>
        <time>2019-05-24T11:36:40Z</time>
      </trkpt>
      <trkpt lat="44.25971" lon="5.7219">
        <ele>659</ele>
        <time>2019-05-24T11:36:41Z</time>
      </trkpt>
      <trkpt lat="44.25967" lon="5.72182">
        <ele>659</ele>
        <time>2019-05-24T11:36:43Z</time>
      </trkpt>
      <trkpt lat="44.25963" lon="5.72174">
        <ele>659</ele>
        <time>2019-05-24T11:36:43Z</time>
      </trkpt>
      <trkpt lat="44.25958" lon="5.72165">
        <ele>659</ele>
        <time>2019-05-24T11:36:44Z</time>
      </trkpt>
      <trkpt lat="44.25954" lon="5.72157">
        <ele>659</ele>
        <time>2019-05-24T11:36:45Z</time>
      </trkpt>
      <trkpt lat="44.2595" lon="5.72149">
        <ele>659</ele>
        <time>2019-05-24T11:36:46Z</time>
      </trkpt>
      <trkpt lat="44.25946" lon="5.72141">
        <ele>659</ele>
        <time>2019-05-24T11:36:48Z</time>
      </trkpt>
      <trkpt lat="44.25941" lon="5.72133">
        <ele>659</ele>
        <time>2019-05-24T11:36:48Z</time>
      </trkpt>
      <trkpt lat="44.25936" lon="5.72125">
        <ele>659</ele>
        <time>2019-05-24T11:36:49Z</time>
      </trkpt>
      <trkpt lat="44.25931" lon="5.72116">
        <ele>659</ele>
        <time>2019-05-24T11:36:50Z</time>
      </trkpt>
      <trkpt lat="44.25926" lon="5.72108">
        <ele>659</ele>
        <time>2019-05-24T11:36:51Z</time>
      </trkpt>
      <trkpt lat="44.2592" lon="5.72099">
        <ele>659</ele>
        <time>2019-05-24T11:36:53Z</time>
      </trkpt>
      <trkpt lat="44.25914" lon="5.72091">
        <ele>659</ele>
        <time>2019-05-24T11:36:53Z</time>
      </trkpt>
      <trkpt lat="44.25909" lon="5.72082">
        <ele>659</ele>
        <time>2019-05-24T11:36:54Z</time>
      </trkpt>
      <trkpt lat="44.25903" lon="5.72075">
        <ele>659</ele>
        <time>2019-05-24T11:36:55Z</time>
      </trkpt>
      <trkpt lat="44.25896" lon="5.72067">
        <ele>659</ele>
        <time>2019-05-24T11:36:57Z</time>
      </trkpt>
      <trkpt lat="44.25889" lon="5.7206">
        <ele>659</ele>
        <time>2019-05-24T11:36:57Z</time>
      </trkpt>
      <trkpt lat="44.25882" lon="5.72055">
        <ele>659</ele>
        <time>2019-05-24T11:36:58Z</time>
      </trkpt>
      <trkpt lat="44.25875" lon="5.7205">
        <ele>659</ele>
        <time>2019-05-24T11:36:59Z</time>
      </trkpt>
      <trkpt lat="44.25868" lon="5.72045">
        <ele>659</ele>
        <time>2019-05-24T11:37:00Z</time>
      </trkpt>
      <trkpt lat="44.25861" lon="5.7204">
        <ele>659</ele>
        <time>2019-05-24T11:37:01Z</time>
      </trkpt>
      <trkpt lat="44.25854" lon="5.72035">
        <ele>659</ele>
        <time>2019-05-24T11:37:03Z</time>
      </trkpt>
      <trkpt lat="44.25847" lon="5.7203">
        <ele>659</ele>
        <time>2019-05-24T11:37:03Z</time>
      </trkpt>
      <trkpt lat="44.2584" lon="5.72025">
        <ele>659</ele>
        <time>2019-05-24T11:37:04Z</time>
      </trkpt>
      <trkpt lat="44.25834" lon="5.7202">
        <ele>659</ele>
        <time>2019-05-24T11:37:05Z</time>
      </trkpt>
      <trkpt lat="44.25827" lon="5.72015">
        <ele>659</ele>
        <time>2019-05-24T11:37:06Z</time>
      </trkpt>
      <trkpt lat="44.2582" lon="5.7201">
        <ele>659</ele>
        <time>2019-05-24T11:37:07Z</time>
      </trkpt>
      <trkpt lat="44.25814" lon="5.72005">
        <ele>659</ele>
        <time>2019-05-24T11:37:08Z</time>
      </trkpt>
      <trkpt lat="44.25807" lon="5.72001">
        <ele>659</ele>
        <time>2019-05-24T11:37:09Z</time>
      </trkpt>
      <trkpt lat="44.258" lon="5.71996">
        <ele>659</ele>
        <time>2019-05-24T11:37:10Z</time>
      </trkpt>
      <trkpt lat="44.25793" lon="5.71992">
        <ele>659</ele>
        <time>2019-05-24T11:37:11Z</time>
      </trkpt>
      <trkpt lat="44.25786" lon="5.71987">
        <ele>659</ele>
        <time>2019-05-24T11:37:12Z</time>
      </trkpt>
      <trkpt lat="44.25779" lon="5.71982">
        <ele>659</ele>
        <time>2019-05-24T11:37:13Z</time>
      </trkpt>
      <trkpt lat="44.25772" lon="5.71978">
        <ele>659</ele>
        <time>2019-05-24T11:37:14Z</time>
      </trkpt>
      <trkpt lat="44.25766" lon="5.71973">
        <ele>659</ele>
        <time>2019-05-24T11:37:15Z</time>
      </trkpt>
      <trkpt lat="44.2576" lon="5.71968">
        <ele>659</ele>
        <time>2019-05-24T11:37:16Z</time>
      </trkpt>
      <trkpt lat="44.25753" lon="5.71963">
        <ele>659</ele>
        <time>2019-05-24T11:37:17Z</time>
      </trkpt>
      <trkpt lat="44.25747" lon="5.71958">
        <ele>659</ele>
        <time>2019-05-24T11:37:18Z</time>
      </trkpt>
      <trkpt lat="44.25741" lon="5.71952">
        <ele>659</ele>
        <time>2019-05-24T11:37:19Z</time>
      </trkpt>
      <trkpt lat="44.25735" lon="5.71947">
        <ele>659</ele>
        <time>2019-05-24T11:37:20Z</time>
      </trkpt>
      <trkpt lat="44.25729" lon="5.71942">
        <ele>659</ele>
        <time>2019-05-24T11:37:21Z</time>
      </trkpt>
      <trkpt lat="44.25723" lon="5.71936">
        <ele>659</ele>
        <time>2019-05-24T11:37:22Z</time>
      </trkpt>
      <trkpt lat="44.25717" lon="5.7193">
        <ele>658</ele>
        <time>2019-05-24T11:37:23Z</time>
      </trkpt>
      <trkpt lat="44.25711" lon="5.71924">
        <ele>658</ele>
        <time>2019-05-24T11:37:24Z</time>
      </trkpt>
      <trkpt lat="44.25705" lon="5.71919">
        <ele>658</ele>
        <time>2019-05-24T11:37:25Z</time>
      </trkpt>
      <trkpt lat="44.25699" lon="5.71914">
        <ele>658</ele>
        <time>2019-05-24T11:37:26Z</time>
      </trkpt>
      <trkpt lat="44.25693" lon="5.71911">
        <ele>658</ele>
        <time>2019-05-24T11:37:27Z</time>
      </trkpt>
      <trkpt lat="44.25686" lon="5.71908">
        <ele>658</ele>
        <time>2019-05-24T11:37:28Z</time>
      </trkpt>
      <trkpt lat="44.25679" lon="5.71906">
        <ele>658</ele>
        <time>2019-05-24T11:37:29Z</time>
      </trkpt>
      <trkpt lat="44.25673" lon="5.71903">
        <ele>658</ele>
        <time>2019-05-24T11:37:30Z</time>
      </trkpt>
      <trkpt lat="44.25666" lon="5.719">
        <ele>658</ele>
        <time>2019-05-24T11:37:31Z</time>
      </trkpt>
      <trkpt lat="44.2566" lon="5.71895">
        <ele>657</ele>
        <time>2019-05-24T11:37:32Z</time>
      </trkpt>
      <trkpt lat="44.25654" lon="5.71892">
        <ele>657</ele>
        <time>2019-05-24T11:37:33Z</time>
      </trkpt>
      <trkpt lat="44.25647" lon="5.71888">
        <ele>657</ele>
        <time>2019-05-24T11:37:34Z</time>
      </trkpt>
      <trkpt lat="44.25641" lon="5.71884">
        <ele>657</ele>
        <time>2019-05-24T11:37:35Z</time>
      </trkpt>
      <trkpt lat="44.25635" lon="5.71879">
        <ele>657</ele>
        <time>2019-05-24T11:37:36Z</time>
      </trkpt>
      <trkpt lat="44.25629" lon="5.71875">
        <ele>657</ele>
        <time>2019-05-24T11:37:37Z</time>
      </trkpt>
      <trkpt lat="44.25623" lon="5.7187">
        <ele>657</ele>
        <time>2019-05-24T11:37:38Z</time>
      </trkpt>
      <trkpt lat="44.25617" lon="5.71865">
        <ele>657</ele>
        <time>2019-05-24T11:37:39Z</time>
      </trkpt>
      <trkpt lat="44.25611" lon="5.7186">
        <ele>657</ele>
        <time>2019-05-24T11:37:40Z</time>
      </trkpt>
      <trkpt lat="44.25606" lon="5.71855">
        <ele>657</ele>
        <time>2019-05-24T11:37:41Z</time>
      </trkpt>
      <trkpt lat="44.25601" lon="5.71849">
        <ele>657</ele>
        <time>2019-05-24T11:37:42Z</time>
      </trkpt>
      <trkpt lat="44.25595" lon="5.71844">
        <ele>657</ele>
        <time>2019-05-24T11:37:43Z</time>
      </trkpt>
      <trkpt lat="44.2559" lon="5.7184">
        <ele>657</ele>
        <time>2019-05-24T11:37:44Z</time>
      </trkpt>
      <trkpt lat="44.25585" lon="5.71835">
        <ele>657</ele>
        <time>2019-05-24T11:37:45Z</time>
      </trkpt>
      <trkpt lat="44.25579" lon="5.7183">
        <ele>657</ele>
        <time>2019-05-24T11:37:46Z</time>
      </trkpt>
      <trkpt lat="44.25574" lon="5.71825">
        <ele>657</ele>
        <time>2019-05-24T11:37:47Z</time>
      </trkpt>
      <trkpt lat="44.25568" lon="5.7182">
        <ele>657</ele>
        <time>2019-05-24T11:37:48Z</time>
      </trkpt>
      <trkpt lat="44.25563" lon="5.71815">
        <ele>657</ele>
        <time>2019-05-24T11:37:49Z</time>
      </trkpt>
      <trkpt lat="44.25557" lon="5.7181">
        <ele>657</ele>
        <time>2019-05-24T11:37:50Z</time>
      </trkpt>
      <trkpt lat="44.25552" lon="5.71805">
        <ele>657</ele>
        <time>2019-05-24T11:37:51Z</time>
      </trkpt>
      <trkpt lat="44.25547" lon="5.718">
        <ele>657</ele>
        <time>2019-05-24T11:37:52Z</time>
      </trkpt>
      <trkpt lat="44.25541" lon="5.71796">
        <ele>657</ele>
        <time>2019-05-24T11:37:53Z</time>
      </trkpt>
      <trkpt lat="44.25535" lon="5.71791">
        <ele>657</ele>
        <time>2019-05-24T11:37:54Z</time>
      </trkpt>
      <trkpt lat="44.25529" lon="5.71787">
        <ele>657</ele>
        <time>2019-05-24T11:37:55Z</time>
      </trkpt>
      <trkpt lat="44.25523" lon="5.71784">
        <ele>657</ele>
        <time>2019-05-24T11:37:57Z</time>
      </trkpt>
      <trkpt lat="44.25517" lon="5.7178">
        <ele>658</ele>
        <time>2019-05-24T11:37:57Z</time>
      </trkpt>
      <trkpt lat="44.25511" lon="5.71776">
        <ele>658</ele>
        <time>2019-05-24T11:37:58Z</time>
      </trkpt>
      <trkpt lat="44.25505" lon="5.71773">
        <ele>659</ele>
        <time>2019-05-24T11:37:59Z</time>
      </trkpt>
      <trkpt lat="44.25499" lon="5.71769">
        <ele>659</ele>
        <time>2019-05-24T11:38:00Z</time>
      </trkpt>
      <trkpt lat="44.25493" lon="5.71765">
        <ele>659</ele>
        <time>2019-05-24T11:38:01Z</time>
      </trkpt>
      <trkpt lat="44.25487" lon="5.71762">
        <ele>659</ele>
        <time>2019-05-24T11:38:02Z</time>
      </trkpt>
      <trkpt lat="44.25481" lon="5.71758">
        <ele>659</ele>
        <time>2019-05-24T11:38:03Z</time>
      </trkpt>
      <trkpt lat="44.25475" lon="5.71754">
        <ele>659</ele>
        <time>2019-05-24T11:38:04Z</time>
      </trkpt>
      <trkpt lat="44.25468" lon="5.7175">
        <ele>659</ele>
        <time>2019-05-24T11:38:05Z</time>
      </trkpt>
      <trkpt lat="44.25461" lon="5.71746">
        <ele>659</ele>
        <time>2019-05-24T11:38:06Z</time>
      </trkpt>
      <trkpt lat="44.25455" lon="5.71742">
        <ele>659</ele>
        <time>2019-05-24T11:38:07Z</time>
      </trkpt>
      <trkpt lat="44.25449" lon="5.71738">
        <ele>659</ele>
        <time>2019-05-24T11:38:08Z</time>
      </trkpt>
      <trkpt lat="44.25443" lon="5.71734">
        <ele>660</ele>
        <time>2019-05-24T11:38:09Z</time>
      </trkpt>
      <trkpt lat="44.25436" lon="5.71729">
        <ele>660</ele>
        <time>2019-05-24T11:38:10Z</time>
      </trkpt>
      <trkpt lat="44.2543" lon="5.71725">
        <ele>660</ele>
        <time>2019-05-24T11:38:11Z</time>
      </trkpt>
      <trkpt lat="44.25423" lon="5.71721">
        <ele>660</ele>
        <time>2019-05-24T11:38:12Z</time>
      </trkpt>
      <trkpt lat="44.25416" lon="5.71717">
        <ele>660</ele>
        <time>2019-05-24T11:38:13Z</time>
      </trkpt>
      <trkpt lat="44.25409" lon="5.71713">
        <ele>661</ele>
        <time>2019-05-24T11:38:14Z</time>
      </trkpt>
      <trkpt lat="44.25403" lon="5.7171">
        <ele>661</ele>
        <time>2019-05-24T11:38:15Z</time>
      </trkpt>
      <trkpt lat="44.25397" lon="5.71707">
        <ele>661</ele>
        <time>2019-05-24T11:38:16Z</time>
      </trkpt>
      <trkpt lat="44.25391" lon="5.71703">
        <ele>661</ele>
        <time>2019-05-24T11:38:17Z</time>
      </trkpt>
      <trkpt lat="44.25384" lon="5.717">
        <ele>661</ele>
        <time>2019-05-24T11:38:18Z</time>
      </trkpt>
      <trkpt lat="44.25378" lon="5.71696">
        <ele>661</ele>
        <time>2019-05-24T11:38:19Z</time>
      </trkpt>
      <trkpt lat="44.25371" lon="5.71692">
        <ele>661</ele>
        <time>2019-05-24T11:38:20Z</time>
      </trkpt>
      <trkpt lat="44.25365" lon="5.71687">
        <ele>661</ele>
        <time>2019-05-24T11:38:21Z</time>
      </trkpt>
      <trkpt lat="44.25359" lon="5.71682">
        <ele>661</ele>
        <time>2019-05-24T11:38:22Z</time>
      </trkpt>
      <trkpt lat="44.25352" lon="5.71677">
        <ele>661</ele>
        <time>2019-05-24T11:38:23Z</time>
      </trkpt>
      <trkpt lat="44.25346" lon="5.71672">
        <ele>661</ele>
        <time>2019-05-24T11:38:24Z</time>
      </trkpt>
      <trkpt lat="44.2534" lon="5.71666">
        <ele>661</ele>
        <time>2019-05-24T11:38:25Z</time>
      </trkpt>
      <trkpt lat="44.25335" lon="5.7166">
        <ele>661</ele>
        <time>2019-05-24T11:38:26Z</time>
      </trkpt>
      <trkpt lat="44.2533" lon="5.71654">
        <ele>661</ele>
        <time>2019-05-24T11:38:27Z</time>
      </trkpt>
      <trkpt lat="44.25324" lon="5.71648">
        <ele>661</ele>
        <time>2019-05-24T11:38:28Z</time>
      </trkpt>
      <trkpt lat="44.25319" lon="5.71642">
        <ele>661</ele>
        <time>2019-05-24T11:38:29Z</time>
      </trkpt>
      <trkpt lat="44.25314" lon="5.71636">
        <ele>661</ele>
        <time>2019-05-24T11:38:30Z</time>
      </trkpt>
      <trkpt lat="44.25308" lon="5.7163">
        <ele>661</ele>
        <time>2019-05-24T11:38:31Z</time>
      </trkpt>
      <trkpt lat="44.25303" lon="5.71624">
        <ele>661</ele>
        <time>2019-05-24T11:38:32Z</time>
      </trkpt>
      <trkpt lat="44.25298" lon="5.71617">
        <ele>661</ele>
        <time>2019-05-24T11:38:33Z</time>
      </trkpt>
      <trkpt lat="44.25292" lon="5.71611">
        <ele>661</ele>
        <time>2019-05-24T11:38:34Z</time>
      </trkpt>
      <trkpt lat="44.25287" lon="5.71605">
        <ele>661</ele>
        <time>2019-05-24T11:38:35Z</time>
      </trkpt>
      <trkpt lat="44.25282" lon="5.71599">
        <ele>661</ele>
        <time>2019-05-24T11:38:36Z</time>
      </trkpt>
      <trkpt lat="44.25277" lon="5.71593">
        <ele>661</ele>
        <time>2019-05-24T11:38:38Z</time>
      </trkpt>
      <trkpt lat="44.25272" lon="5.71587">
        <ele>661</ele>
        <time>2019-05-24T11:38:38Z</time>
      </trkpt>
      <trkpt lat="44.25267" lon="5.71581">
        <ele>661</ele>
        <time>2019-05-24T11:38:40Z</time>
      </trkpt>
      <trkpt lat="44.25262" lon="5.71575">
        <ele>661</ele>
        <time>2019-05-24T11:38:40Z</time>
      </trkpt>
      <trkpt lat="44.25257" lon="5.71569">
        <ele>661</ele>
        <time>2019-05-24T11:38:41Z</time>
      </trkpt>
      <trkpt lat="44.25252" lon="5.71564">
        <ele>661</ele>
        <time>2019-05-24T11:38:42Z</time>
      </trkpt>
      <trkpt lat="44.25247" lon="5.71558">
        <ele>661</ele>
        <time>2019-05-24T11:38:43Z</time>
      </trkpt>
      <trkpt lat="44.25242" lon="5.71553">
        <ele>661</ele>
        <time>2019-05-24T11:38:44Z</time>
      </trkpt>
      <trkpt lat="44.25236" lon="5.71548">
        <ele>662</ele>
        <time>2019-05-24T11:38:45Z</time>
      </trkpt>
      <trkpt lat="44.25231" lon="5.71543">
        <ele>662</ele>
        <time>2019-05-24T11:38:46Z</time>
      </trkpt>
      <trkpt lat="44.25226" lon="5.71537">
        <ele>662</ele>
        <time>2019-05-24T11:38:47Z</time>
      </trkpt>
      <trkpt lat="44.25221" lon="5.71532">
        <ele>663</ele>
        <time>2019-05-24T11:38:48Z</time>
      </trkpt>
      <trkpt lat="44.25216" lon="5.71527">
        <ele>663</ele>
        <time>2019-05-24T11:38:49Z</time>
      </trkpt>
      <trkpt lat="44.25211" lon="5.71521">
        <ele>663</ele>
        <time>2019-05-24T11:38:50Z</time>
      </trkpt>
      <trkpt lat="44.25205" lon="5.71516">
        <ele>663</ele>
        <time>2019-05-24T11:38:51Z</time>
      </trkpt>
      <trkpt lat="44.25199" lon="5.71511">
        <ele>663</ele>
        <time>2019-05-24T11:38:53Z</time>
      </trkpt>
      <trkpt lat="44.25193" lon="5.71505">
        <ele>663</ele>
        <time>2019-05-24T11:38:53Z</time>
      </trkpt>
      <trkpt lat="44.25188" lon="5.71499">
        <ele>663</ele>
        <time>2019-05-24T11:38:54Z</time>
      </trkpt>
      <trkpt lat="44.25182" lon="5.71493">
        <ele>664</ele>
        <time>2019-05-24T11:38:55Z</time>
      </trkpt>
      <trkpt lat="44.25177" lon="5.71487">
        <ele>664</ele>
        <time>2019-05-24T11:38:57Z</time>
      </trkpt>
      <trkpt lat="44.25171" lon="5.71482">
        <ele>664</ele>
        <time>2019-05-24T11:38:58Z</time>
      </trkpt>
      <trkpt lat="44.25166" lon="5.71476">
        <ele>664</ele>
        <time>2019-05-24T11:38:58Z</time>
      </trkpt>
      <trkpt lat="44.25161" lon="5.71471">
        <ele>664</ele>
        <time>2019-05-24T11:38:59Z</time>
      </trkpt>
      <trkpt lat="44.25155" lon="5.71465">
        <ele>664</ele>
        <time>2019-05-24T11:39:00Z</time>
      </trkpt>
      <trkpt lat="44.25149" lon="5.7146">
        <ele>664</ele>
        <time>2019-05-24T11:39:01Z</time>
      </trkpt>
      <trkpt lat="44.25143" lon="5.71454">
        <ele>664</ele>
        <time>2019-05-24T11:39:03Z</time>
      </trkpt>
      <trkpt lat="44.25138" lon="5.71448">
        <ele>664</ele>
        <time>2019-05-24T11:39:03Z</time>
      </trkpt>
      <trkpt lat="44.25132" lon="5.71442">
        <ele>664</ele>
        <time>2019-05-24T11:39:04Z</time>
      </trkpt>
      <trkpt lat="44.25127" lon="5.71434">
        <ele>664</ele>
        <time>2019-05-24T11:39:05Z</time>
      </trkpt>
      <trkpt lat="44.25122" lon="5.71427">
        <ele>664</ele>
        <time>2019-05-24T11:39:06Z</time>
      </trkpt>
      <trkpt lat="44.25118" lon="5.71418">
        <ele>664</ele>
        <time>2019-05-24T11:39:08Z</time>
      </trkpt>
      <trkpt lat="44.25113" lon="5.7141">
        <ele>664</ele>
        <time>2019-05-24T11:39:08Z</time>
      </trkpt>
      <trkpt lat="44.25109" lon="5.714">
        <ele>664</ele>
        <time>2019-05-24T11:39:09Z</time>
      </trkpt>
      <trkpt lat="44.25105" lon="5.71389">
        <ele>664</ele>
        <time>2019-05-24T11:39:10Z</time>
      </trkpt>
      <trkpt lat="44.251" lon="5.71378">
        <ele>664</ele>
        <time>2019-05-24T11:39:11Z</time>
      </trkpt>
      <trkpt lat="44.25095" lon="5.71367">
        <ele>664</ele>
        <time>2019-05-24T11:39:13Z</time>
      </trkpt>
      <trkpt lat="44.2509" lon="5.71356">
        <ele>664</ele>
        <time>2019-05-24T11:39:13Z</time>
      </trkpt>
      <trkpt lat="44.25085" lon="5.71345">
        <ele>664</ele>
        <time>2019-05-24T11:39:14Z</time>
      </trkpt>
      <trkpt lat="44.2508" lon="5.71334">
        <ele>664</ele>
        <time>2019-05-24T11:39:15Z</time>
      </trkpt>
      <trkpt lat="44.25076" lon="5.71323">
        <ele>664</ele>
        <time>2019-05-24T11:39:16Z</time>
      </trkpt>
      <trkpt lat="44.25071" lon="5.71312">
        <ele>664</ele>
        <time>2019-05-24T11:39:18Z</time>
      </trkpt>
      <trkpt lat="44.25067" lon="5.71302">
        <ele>664</ele>
        <time>2019-05-24T11:39:18Z</time>
      </trkpt>
      <trkpt lat="44.25063" lon="5.71292">
        <ele>664</ele>
        <time>2019-05-24T11:39:19Z</time>
      </trkpt>
      <trkpt lat="44.25058" lon="5.71283">
        <ele>664</ele>
        <time>2019-05-24T11:39:20Z</time>
      </trkpt>
      <trkpt lat="44.25055" lon="5.71274">
        <ele>664</ele>
        <time>2019-05-24T11:39:21Z</time>
      </trkpt>
      <trkpt lat="44.25051" lon="5.71265">
        <ele>664</ele>
        <time>2019-05-24T11:39:23Z</time>
      </trkpt>
      <trkpt lat="44.25048" lon="5.71256">
        <ele>664</ele>
        <time>2019-05-24T11:39:23Z</time>
      </trkpt>
      <trkpt lat="44.25045" lon="5.71247">
        <ele>664</ele>
        <time>2019-05-24T11:39:24Z</time>
      </trkpt>
      <trkpt lat="44.25042" lon="5.71238">
        <ele>664</ele>
        <time>2019-05-24T11:39:25Z</time>
      </trkpt>
      <trkpt lat="44.25039" lon="5.7123">
        <ele>664</ele>
        <time>2019-05-24T11:39:26Z</time>
      </trkpt>
      <trkpt lat="44.25036" lon="5.71222">
        <ele>664</ele>
        <time>2019-05-24T11:39:27Z</time>
      </trkpt>
      <trkpt lat="44.25032" lon="5.71214">
        <ele>664</ele>
        <time>2019-05-24T11:39:28Z</time>
      </trkpt>
      <trkpt lat="44.25029" lon="5.71208">
        <ele>664</ele>
        <time>2019-05-24T11:39:29Z</time>
      </trkpt>
      <trkpt lat="44.25025" lon="5.71201">
        <ele>664</ele>
        <time>2019-05-24T11:39:30Z</time>
      </trkpt>
      <trkpt lat="44.25021" lon="5.71195">
        <ele>664</ele>
        <time>2019-05-24T11:39:31Z</time>
      </trkpt>
      <trkpt lat="44.25017" lon="5.71189">
        <ele>664</ele>
        <time>2019-05-24T11:39:32Z</time>
      </trkpt>
      <trkpt lat="44.25013" lon="5.71183">
        <ele>664</ele>
        <time>2019-05-24T11:39:33Z</time>
      </trkpt>
      <trkpt lat="44.2501" lon="5.71177">
        <ele>664</ele>
        <time>2019-05-24T11:39:34Z</time>
      </trkpt>
      <trkpt lat="44.25006" lon="5.71172">
        <ele>664</ele>
        <time>2019-05-24T11:39:35Z</time>
      </trkpt>
      <trkpt lat="44.25002" lon="5.71166">
        <ele>664</ele>
        <time>2019-05-24T11:39:36Z</time>
      </trkpt>
      <trkpt lat="44.24998" lon="5.71161">
        <ele>664</ele>
        <time>2019-05-24T11:39:38Z</time>
      </trkpt>
      <trkpt lat="44.24995" lon="5.71156">
        <ele>664</ele>
        <time>2019-05-24T11:39:38Z</time>
      </trkpt>
      <trkpt lat="44.24991" lon="5.71151">
        <ele>664</ele>
        <time>2019-05-24T11:39:39Z</time>
      </trkpt>
      <trkpt lat="44.24987" lon="5.71146">
        <ele>664</ele>
        <time>2019-05-24T11:39:40Z</time>
      </trkpt>
      <trkpt lat="44.24984" lon="5.71142">
        <ele>664</ele>
        <time>2019-05-24T11:39:41Z</time>
      </trkpt>
      <trkpt lat="44.2498" lon="5.71137">
        <ele>664</ele>
        <time>2019-05-24T11:39:42Z</time>
      </trkpt>
      <trkpt lat="44.24976" lon="5.71133">
        <ele>664</ele>
        <time>2019-05-24T11:39:43Z</time>
      </trkpt>
      <trkpt lat="44.24973" lon="5.71129">
        <ele>664</ele>
        <time>2019-05-24T11:39:44Z</time>
      </trkpt>
      <trkpt lat="44.2497" lon="5.71124">
        <ele>664</ele>
        <time>2019-05-24T11:39:45Z</time>
      </trkpt>
      <trkpt lat="44.24967" lon="5.7112">
        <ele>664</ele>
        <time>2019-05-24T11:39:46Z</time>
      </trkpt>
      <trkpt lat="44.24964" lon="5.71115">
        <ele>665</ele>
        <time>2019-05-24T11:39:47Z</time>
      </trkpt>
      <trkpt lat="44.24961" lon="5.71111">
        <ele>665</ele>
        <time>2019-05-24T11:39:48Z</time>
      </trkpt>
      <trkpt lat="44.24957" lon="5.71107">
        <ele>665</ele>
        <time>2019-05-24T11:39:49Z</time>
      </trkpt>
      <trkpt lat="44.24954" lon="5.71103">
        <ele>666</ele>
        <time>2019-05-24T11:39:50Z</time>
      </trkpt>
      <trkpt lat="44.24951" lon="5.71099">
        <ele>666</ele>
        <time>2019-05-24T11:39:51Z</time>
      </trkpt>
      <trkpt lat="44.24948" lon="5.71095">
        <ele>667</ele>
        <time>2019-05-24T11:39:53Z</time>
      </trkpt>
      <trkpt lat="44.24945" lon="5.71091">
        <ele>667</ele>
        <time>2019-05-24T11:39:53Z</time>
      </trkpt>
      <trkpt lat="44.24943" lon="5.71086">
        <ele>667</ele>
        <time>2019-05-24T11:39:54Z</time>
      </trkpt>
      <trkpt lat="44.2494" lon="5.71082">
        <ele>667</ele>
        <time>2019-05-24T11:39:55Z</time>
      </trkpt>
      <trkpt lat="44.24937" lon="5.71078">
        <ele>667</ele>
        <time>2019-05-24T11:39:57Z</time>
      </trkpt>
      <trkpt lat="44.24934" lon="5.71074">
        <ele>667</ele>
        <time>2019-05-24T11:39:57Z</time>
      </trkpt>
      <trkpt lat="44.24932" lon="5.71069">
        <ele>667</ele>
        <time>2019-05-24T11:39:58Z</time>
      </trkpt>
      <trkpt lat="44.24929" lon="5.71065">
        <ele>667</ele>
        <time>2019-05-24T11:39:59Z</time>
      </trkpt>
      <trkpt lat="44.24926" lon="5.71061">
        <ele>667</ele>
        <time>2019-05-24T11:40:00Z</time>
      </trkpt>
      <trkpt lat="44.24923" lon="5.71056">
        <ele>667</ele>
        <time>2019-05-24T11:40:01Z</time>
      </trkpt>
      <trkpt lat="44.24921" lon="5.71052">
        <ele>667</ele>
        <time>2019-05-24T11:40:02Z</time>
      </trkpt>
      <trkpt lat="44.24918" lon="5.71048">
        <ele>667</ele>
        <time>2019-05-24T11:40:03Z</time>
      </trkpt>
      <trkpt lat="44.24915" lon="5.71044">
        <ele>667</ele>
        <time>2019-05-24T11:40:04Z</time>
      </trkpt>
      <trkpt lat="44.24912" lon="5.7104">
        <ele>667</ele>
        <time>2019-05-24T11:40:05Z</time>
      </trkpt>
      <trkpt lat="44.2491" lon="5.71036">
        <ele>667</ele>
        <time>2019-05-24T11:40:06Z</time>
      </trkpt>
      <trkpt lat="44.24907" lon="5.71032">
        <ele>667</ele>
        <time>2019-05-24T11:40:07Z</time>
      </trkpt>
      <trkpt lat="44.24904" lon="5.71028">
        <ele>667</ele>
        <time>2019-05-24T11:40:08Z</time>
      </trkpt>
      <trkpt lat="44.24901" lon="5.71025">
        <ele>668</ele>
        <time>2019-05-24T11:40:09Z</time>
      </trkpt>
      <trkpt lat="44.24898" lon="5.71021">
        <ele>668</ele>
        <time>2019-05-24T11:40:10Z</time>
      </trkpt>
      <trkpt lat="44.24894" lon="5.71017">
        <ele>668</ele>
        <time>2019-05-24T11:40:11Z</time>
      </trkpt>
      <trkpt lat="44.24891" lon="5.71013">
        <ele>669</ele>
        <time>2019-05-24T11:40:12Z</time>
      </trkpt>
      <trkpt lat="44.24888" lon="5.71008">
        <ele>669</ele>
        <time>2019-05-24T11:40:13Z</time>
      </trkpt>
      <trkpt lat="44.24884" lon="5.71004">
        <ele>669</ele>
        <time>2019-05-24T11:40:14Z</time>
      </trkpt>
      <trkpt lat="44.24881" lon="5.71">
        <ele>669</ele>
        <time>2019-05-24T11:40:15Z</time>
      </trkpt>
      <trkpt lat="44.24877" lon="5.70996">
        <ele>669</ele>
        <time>2019-05-24T11:40:16Z</time>
      </trkpt>
      <trkpt lat="44.24873" lon="5.70992">
        <ele>670</ele>
        <time>2019-05-24T11:40:18Z</time>
      </trkpt>
      <trkpt lat="44.24869" lon="5.70988">
        <ele>670</ele>
        <time>2019-05-24T11:40:18Z</time>
      </trkpt>
      <trkpt lat="44.24865" lon="5.70983">
        <ele>670</ele>
        <time>2019-05-24T11:40:19Z</time>
      </trkpt>
      <trkpt lat="44.24862" lon="5.70978">
        <ele>670</ele>
        <time>2019-05-24T11:40:20Z</time>
      </trkpt>
      <trkpt lat="44.24858" lon="5.70974">
        <ele>670</ele>
        <time>2019-05-24T11:40:21Z</time>
      </trkpt>
      <trkpt lat="44.24854" lon="5.7097">
        <ele>670</ele>
        <time>2019-05-24T11:40:22Z</time>
      </trkpt>
      <trkpt lat="44.24849" lon="5.70967">
        <ele>670</ele>
        <time>2019-05-24T11:40:23Z</time>
      </trkpt>
      <trkpt lat="44.24846" lon="5.70963">
        <ele>670</ele>
        <time>2019-05-24T11:40:24Z</time>
      </trkpt>
      <trkpt lat="44.24842" lon="5.70958">
        <ele>670</ele>
        <time>2019-05-24T11:40:25Z</time>
      </trkpt>
      <trkpt lat="44.24838" lon="5.70954">
        <ele>671</ele>
        <time>2019-05-24T11:40:26Z</time>
      </trkpt>
      <trkpt lat="44.24833" lon="5.70949">
        <ele>671</ele>
        <time>2019-05-24T11:40:27Z</time>
      </trkpt>
      <trkpt lat="44.24829" lon="5.70944">
        <ele>672</ele>
        <time>2019-05-24T11:40:28Z</time>
      </trkpt>
      <trkpt lat="44.24825" lon="5.70939">
        <ele>672</ele>
        <time>2019-05-24T11:40:29Z</time>
      </trkpt>
      <trkpt lat="44.24821" lon="5.70935">
        <ele>673</ele>
        <time>2019-05-24T11:40:30Z</time>
      </trkpt>
      <trkpt lat="44.24818" lon="5.7093">
        <ele>673</ele>
        <time>2019-05-24T11:40:31Z</time>
      </trkpt>
      <trkpt lat="44.24813" lon="5.70925">
        <ele>674</ele>
        <time>2019-05-24T11:40:32Z</time>
      </trkpt>
      <trkpt lat="44.24808" lon="5.7092">
        <ele>674</ele>
        <time>2019-05-24T11:40:33Z</time>
      </trkpt>
      <trkpt lat="44.24804" lon="5.70915">
        <ele>674</ele>
        <time>2019-05-24T11:40:34Z</time>
      </trkpt>
      <trkpt lat="44.24799" lon="5.7091">
        <ele>675</ele>
        <time>2019-05-24T11:40:35Z</time>
      </trkpt>
      <trkpt lat="44.24794" lon="5.70906">
        <ele>675</ele>
        <time>2019-05-24T11:40:36Z</time>
      </trkpt>
      <trkpt lat="44.2479" lon="5.70902">
        <ele>675</ele>
        <time>2019-05-24T11:40:38Z</time>
      </trkpt>
      <trkpt lat="44.24785" lon="5.70897">
        <ele>675</ele>
        <time>2019-05-24T11:40:38Z</time>
      </trkpt>
      <trkpt lat="44.2478" lon="5.70892">
        <ele>676</ele>
        <time>2019-05-24T11:40:39Z</time>
      </trkpt>
      <trkpt lat="44.24774" lon="5.70887">
        <ele>676</ele>
        <time>2019-05-24T11:40:40Z</time>
      </trkpt>
      <trkpt lat="44.2477" lon="5.70882">
        <ele>676</ele>
        <time>2019-05-24T11:40:41Z</time>
      </trkpt>
      <trkpt lat="44.24765" lon="5.70878">
        <ele>677</ele>
        <time>2019-05-24T11:40:43Z</time>
      </trkpt>
      <trkpt lat="44.24759" lon="5.70875">
        <ele>677</ele>
        <time>2019-05-24T11:40:43Z</time>
      </trkpt>
      <trkpt lat="44.24754" lon="5.70871">
        <ele>677</ele>
        <time>2019-05-24T11:40:44Z</time>
      </trkpt>
      <trkpt lat="44.24748" lon="5.70867">
        <ele>677</ele>
        <time>2019-05-24T11:40:45Z</time>
      </trkpt>
      <trkpt lat="44.24743" lon="5.70863">
        <ele>677</ele>
        <time>2019-05-24T11:40:46Z</time>
      </trkpt>
      <trkpt lat="44.24738" lon="5.70859">
        <ele>677</ele>
        <time>2019-05-24T11:40:47Z</time>
      </trkpt>
      <trkpt lat="44.24732" lon="5.70856">
        <ele>677</ele>
        <time>2019-05-24T11:40:48Z</time>
      </trkpt>
      <trkpt lat="44.24727" lon="5.70852">
        <ele>677</ele>
        <time>2019-05-24T11:40:49Z</time>
      </trkpt>
      <trkpt lat="44.24722" lon="5.70849">
        <ele>677</ele>
        <time>2019-05-24T11:40:50Z</time>
      </trkpt>
      <trkpt lat="44.24717" lon="5.70846">
        <ele>677</ele>
        <time>2019-05-24T11:40:51Z</time>
      </trkpt>
      <trkpt lat="44.24711" lon="5.70842">
        <ele>677</ele>
        <time>2019-05-24T11:40:53Z</time>
      </trkpt>
      <trkpt lat="44.24706" lon="5.70839">
        <ele>677</ele>
        <time>2019-05-24T11:40:53Z</time>
      </trkpt>
      <trkpt lat="44.24701" lon="5.70836">
        <ele>677</ele>
        <time>2019-05-24T11:40:54Z</time>
      </trkpt>
      <trkpt lat="44.24696" lon="5.70834">
        <ele>677</ele>
        <time>2019-05-24T11:40:55Z</time>
      </trkpt>
      <trkpt lat="44.2469" lon="5.70831">
        <ele>677</ele>
        <time>2019-05-24T11:40:57Z</time>
      </trkpt>
      <trkpt lat="44.24685" lon="5.70827">
        <ele>677</ele>
        <time>2019-05-24T11:40:57Z</time>
      </trkpt>
      <trkpt lat="44.2468" lon="5.70824">
        <ele>677</ele>
        <time>2019-05-24T11:40:58Z</time>
      </trkpt>
      <trkpt lat="44.24675" lon="5.70819">
        <ele>677</ele>
        <time>2019-05-24T11:40:59Z</time>
      </trkpt>
      <trkpt lat="44.2467" lon="5.70815">
        <ele>677</ele>
        <time>2019-05-24T11:41:00Z</time>
      </trkpt>
      <trkpt lat="44.24666" lon="5.70809">
        <ele>677</ele>
        <time>2019-05-24T11:41:01Z</time>
      </trkpt>
      <trkpt lat="44.24662" lon="5.70803">
        <ele>677</ele>
        <time>2019-05-24T11:41:02Z</time>
      </trkpt>
      <trkpt lat="44.24659" lon="5.70797">
        <ele>677</ele>
        <time>2019-05-24T11:41:03Z</time>
      </trkpt>
      <trkpt lat="44.24656" lon="5.70791">
        <ele>677</ele>
        <time>2019-05-24T11:41:04Z</time>
      </trkpt>
      <trkpt lat="44.24652" lon="5.70784">
        <ele>677</ele>
        <time>2019-05-24T11:41:05Z</time>
      </trkpt>
      <trkpt lat="44.24649" lon="5.70777">
        <ele>677</ele>
        <time>2019-05-24T11:41:06Z</time>
      </trkpt>
      <trkpt lat="44.24646" lon="5.7077">
        <ele>677</ele>
        <time>2019-05-24T11:41:07Z</time>
      </trkpt>
      <trkpt lat="44.24643" lon="5.70762">
        <ele>677</ele>
        <time>2019-05-24T11:41:08Z</time>
      </trkpt>
      <trkpt lat="44.2464" lon="5.70755">
        <ele>677</ele>
        <time>2019-05-24T11:41:09Z</time>
      </trkpt>
      <trkpt lat="44.24636" lon="5.70747">
        <ele>677</ele>
        <time>2019-05-24T11:41:10Z</time>
      </trkpt>
      <trkpt lat="44.24632" lon="5.70739">
        <ele>677</ele>
        <time>2019-05-24T11:41:11Z</time>
      </trkpt>
      <trkpt lat="44.24629" lon="5.70731">
        <ele>677</ele>
        <time>2019-05-24T11:41:12Z</time>
      </trkpt>
      <trkpt lat="44.24625" lon="5.70722">
        <ele>677</ele>
        <time>2019-05-24T11:41:13Z</time>
      </trkpt>
      <trkpt lat="44.24623" lon="5.70712">
        <ele>677</ele>
        <time>2019-05-24T11:41:14Z</time>
      </trkpt>
      <trkpt lat="44.24624" lon="5.70704">
        <ele>677</ele>
        <time>2019-05-24T11:41:15Z</time>
      </trkpt>
      <trkpt lat="44.24624" lon="5.70696">
        <ele>677</ele>
        <time>2019-05-24T11:41:16Z</time>
      </trkpt>
      <trkpt lat="44.24629" lon="5.70692">
        <ele>677</ele>
        <time>2019-05-24T11:41:17Z</time>
      </trkpt>
      <trkpt lat="44.24636" lon="5.70689">
        <ele>677</ele>
        <time>2019-05-24T11:41:18Z</time>
      </trkpt>
      <trkpt lat="44.24647" lon="5.7069">
        <ele>676</ele>
        <time>2019-05-24T11:41:19Z</time>
      </trkpt>
      <trkpt lat="44.24656" lon="5.7069">
        <ele>675</ele>
        <time>2019-05-24T11:41:20Z</time>
      </trkpt>
      <trkpt lat="44.24665" lon="5.70691">
        <ele>675</ele>
        <time>2019-05-24T11:41:21Z</time>
      </trkpt>
      <trkpt lat="44.24674" lon="5.70691">
        <ele>674</ele>
        <time>2019-05-24T11:41:23Z</time>
      </trkpt>
      <trkpt lat="44.24685" lon="5.70691">
        <ele>674</ele>
        <time>2019-05-24T11:41:23Z</time>
      </trkpt>
      <trkpt lat="44.24696" lon="5.7069">
        <ele>674</ele>
        <time>2019-05-24T11:41:24Z</time>
      </trkpt>
      <trkpt lat="44.24706" lon="5.70689">
        <ele>673</ele>
        <time>2019-05-24T11:41:25Z</time>
      </trkpt>
      <trkpt lat="44.24716" lon="5.70688">
        <ele>673</ele>
        <time>2019-05-24T11:41:26Z</time>
      </trkpt>
      <trkpt lat="44.24726" lon="5.70686">
        <ele>672</ele>
        <time>2019-05-24T11:41:27Z</time>
      </trkpt>
      <trkpt lat="44.24735" lon="5.70684">
        <ele>671</ele>
        <time>2019-05-24T11:41:28Z</time>
      </trkpt>
      <trkpt lat="44.24744" lon="5.70681">
        <ele>671</ele>
        <time>2019-05-24T11:41:29Z</time>
      </trkpt>
      <trkpt lat="44.24752" lon="5.70676">
        <ele>670</ele>
        <time>2019-05-24T11:41:30Z</time>
      </trkpt>
      <trkpt lat="44.24757" lon="5.70668">
        <ele>669</ele>
        <time>2019-05-24T11:41:31Z</time>
      </trkpt>
      <trkpt lat="44.24758" lon="5.70659">
        <ele>669</ele>
        <time>2019-05-24T11:41:32Z</time>
      </trkpt>
      <trkpt lat="44.24755" lon="5.70649">
        <ele>668</ele>
        <time>2019-05-24T11:41:33Z</time>
      </trkpt>
      <trkpt lat="44.2475" lon="5.70635">
        <ele>667</ele>
        <time>2019-05-24T11:41:34Z</time>
      </trkpt>
      <trkpt lat="44.24744" lon="5.70623">
        <ele>667</ele>
        <time>2019-05-24T11:41:35Z</time>
      </trkpt>
      <trkpt lat="44.24737" lon="5.70612">
        <ele>667</ele>
        <time>2019-05-24T11:41:36Z</time>
      </trkpt>
      <trkpt lat="44.24729" lon="5.70603">
        <ele>666</ele>
        <time>2019-05-24T11:41:37Z</time>
      </trkpt>
      <trkpt lat="44.24721" lon="5.70596">
        <ele>666</ele>
        <time>2019-05-24T11:41:38Z</time>
      </trkpt>
      <trkpt lat="44.24713" lon="5.70591">
        <ele>666</ele>
        <time>2019-05-24T11:41:39Z</time>
      </trkpt>
      <trkpt lat="44.24705" lon="5.70587">
        <ele>666</ele>
        <time>2019-05-24T11:41:40Z</time>
      </trkpt>
      <trkpt lat="44.24697" lon="5.70581">
        <ele>666</ele>
        <time>2019-05-24T11:41:41Z</time>
      </trkpt>
      <trkpt lat="44.24691" lon="5.70573">
        <ele>666</ele>
        <time>2019-05-24T11:41:42Z</time>
      </trkpt>
      <trkpt lat="44.24689" lon="5.70561">
        <ele>665</ele>
        <time>2019-05-24T11:41:43Z</time>
      </trkpt>
      <trkpt lat="44.24689" lon="5.7055">
        <ele>664</ele>
        <time>2019-05-24T11:41:44Z</time>
      </trkpt>
      <trkpt lat="44.24693" lon="5.7054">
        <ele>663</ele>
        <time>2019-05-24T11:41:45Z</time>
      </trkpt>
      <trkpt lat="44.24699" lon="5.70534">
        <ele>662</ele>
        <time>2019-05-24T11:41:46Z</time>
      </trkpt>
      <trkpt lat="44.24705" lon="5.70526">
        <ele>661</ele>
        <time>2019-05-24T11:41:47Z</time>
      </trkpt>
      <trkpt lat="44.24713" lon="5.7052">
        <ele>660</ele>
        <time>2019-05-24T11:41:48Z</time>
      </trkpt>
      <trkpt lat="44.2472" lon="5.70515">
        <ele>660</ele>
        <time>2019-05-24T11:41:49Z</time>
      </trkpt>
      <trkpt lat="44.24726" lon="5.70508">
        <ele>660</ele>
        <time>2019-05-24T11:41:50Z</time>
      </trkpt>
      <trkpt lat="44.24733" lon="5.70501">
        <ele>660</ele>
        <time>2019-05-24T11:41:51Z</time>
      </trkpt>
      <trkpt lat="44.24738" lon="5.70495">
        <ele>660</ele>
        <time>2019-05-24T11:41:52Z</time>
      </trkpt>
      <trkpt lat="44.24744" lon="5.70489">
        <ele>660</ele>
        <time>2019-05-24T11:41:53Z</time>
      </trkpt>
      <trkpt lat="44.24751" lon="5.70482">
        <ele>660</ele>
        <time>2019-05-24T11:41:54Z</time>
      </trkpt>
      <trkpt lat="44.24757" lon="5.70475">
        <ele>660</ele>
        <time>2019-05-24T11:41:55Z</time>
      </trkpt>
      <trkpt lat="44.24763" lon="5.70469">
        <ele>660</ele>
        <time>2019-05-24T11:41:57Z</time>
      </trkpt>
      <trkpt lat="44.2477" lon="5.70461">
        <ele>660</ele>
        <time>2019-05-24T11:41:57Z</time>
      </trkpt>
      <trkpt lat="44.24776" lon="5.70453">
        <ele>660</ele>
        <time>2019-05-24T11:41:58Z</time>
      </trkpt>
      <trkpt lat="44.2478" lon="5.70444">
        <ele>660</ele>
        <time>2019-05-24T11:41:59Z</time>
      </trkpt>
      <trkpt lat="44.24784" lon="5.70434">
        <ele>660</ele>
        <time>2019-05-24T11:42:00Z</time>
      </trkpt>
      <trkpt lat="44.24788" lon="5.70424">
        <ele>660</ele>
        <time>2019-05-24T11:42:01Z</time>
      </trkpt>
      <trkpt lat="44.24791" lon="5.70414">
        <ele>660</ele>
        <time>2019-05-24T11:42:02Z</time>
      </trkpt>
      <trkpt lat="44.24793" lon="5.70403">
        <ele>660</ele>
        <time>2019-05-24T11:42:03Z</time>
      </trkpt>
      <trkpt lat="44.24794" lon="5.70393">
        <ele>660</ele>
        <time>2019-05-24T11:42:04Z</time>
      </trkpt>
      <trkpt lat="44.24795" lon="5.70383">
        <ele>660</ele>
        <time>2019-05-24T11:42:05Z</time>
      </trkpt>
      <trkpt lat="44.24796" lon="5.70373">
        <ele>660</ele>
        <time>2019-05-24T11:42:06Z</time>
      </trkpt>
      <trkpt lat="44.24799" lon="5.70364">
        <ele>660</ele>
        <time>2019-05-24T11:42:07Z</time>
      </trkpt>
      <trkpt lat="44.24803" lon="5.70356">
        <ele>660</ele>
        <time>2019-05-24T11:42:08Z</time>
      </trkpt>
      <trkpt lat="44.24808" lon="5.70347">
        <ele>660</ele>
        <time>2019-05-24T11:42:09Z</time>
      </trkpt>
      <trkpt lat="44.24813" lon="5.7034">
        <ele>660</ele>
        <time>2019-05-24T11:42:10Z</time>
      </trkpt>
      <trkpt lat="44.24818" lon="5.70333">
        <ele>660</ele>
        <time>2019-05-24T11:42:11Z</time>
      </trkpt>
      <trkpt lat="44.24823" lon="5.70325">
        <ele>660</ele>
        <time>2019-05-24T11:42:12Z</time>
      </trkpt>
      <trkpt lat="44.24828" lon="5.70318">
        <ele>660</ele>
        <time>2019-05-24T11:42:13Z</time>
      </trkpt>
      <trkpt lat="44.24832" lon="5.70311">
        <ele>660</ele>
        <time>2019-05-24T11:42:14Z</time>
      </trkpt>
      <trkpt lat="44.24836" lon="5.70304">
        <ele>660</ele>
        <time>2019-05-24T11:42:15Z</time>
      </trkpt>
      <trkpt lat="44.2484" lon="5.70298">
        <ele>660</ele>
        <time>2019-05-24T11:42:16Z</time>
      </trkpt>
      <trkpt lat="44.24842" lon="5.7029">
        <ele>660</ele>
        <time>2019-05-24T11:42:17Z</time>
      </trkpt>
      <trkpt lat="44.24846" lon="5.70283">
        <ele>660</ele>
        <time>2019-05-24T11:42:18Z</time>
      </trkpt>
      <trkpt lat="44.24848" lon="5.70274">
        <ele>659</ele>
        <time>2019-05-24T11:42:19Z</time>
      </trkpt>
      <trkpt lat="44.2485" lon="5.70265">
        <ele>659</ele>
        <time>2019-05-24T11:42:20Z</time>
      </trkpt>
      <trkpt lat="44.24852" lon="5.70257">
        <ele>659</ele>
        <time>2019-05-24T11:42:21Z</time>
      </trkpt>
      <trkpt lat="44.24853" lon="5.70249">
        <ele>659</ele>
        <time>2019-05-24T11:42:22Z</time>
      </trkpt>
      <trkpt lat="44.24854" lon="5.70241">
        <ele>659</ele>
        <time>2019-05-24T11:42:23Z</time>
      </trkpt>
      <trkpt lat="44.24855" lon="5.70234">
        <ele>659</ele>
        <time>2019-05-24T11:42:24Z</time>
      </trkpt>
      <trkpt lat="44.24855" lon="5.70225">
        <ele>659</ele>
        <time>2019-05-24T11:42:25Z</time>
      </trkpt>
      <trkpt lat="44.24855" lon="5.70217">
        <ele>659</ele>
        <time>2019-05-24T11:42:26Z</time>
      </trkpt>
      <trkpt lat="44.24855" lon="5.70208">
        <ele>659</ele>
        <time>2019-05-24T11:42:27Z</time>
      </trkpt>
      <trkpt lat="44.24855" lon="5.70199">
        <ele>659</ele>
        <time>2019-05-24T11:42:28Z</time>
      </trkpt>
      <trkpt lat="44.24855" lon="5.7019">
        <ele>659</ele>
        <time>2019-05-24T11:42:29Z</time>
      </trkpt>
      <trkpt lat="44.24854" lon="5.70181">
        <ele>659</ele>
        <time>2019-05-24T11:42:30Z</time>
      </trkpt>
      <trkpt lat="44.24854" lon="5.70172">
        <ele>659</ele>
        <time>2019-05-24T11:42:31Z</time>
      </trkpt>
      <trkpt lat="44.24853" lon="5.70163">
        <ele>659</ele>
        <time>2019-05-24T11:42:32Z</time>
      </trkpt>
      <trkpt lat="44.24852" lon="5.70154">
        <ele>659</ele>
        <time>2019-05-24T11:42:33Z</time>
      </trkpt>
      <trkpt lat="44.24852" lon="5.70146">
        <ele>659</ele>
        <time>2019-05-24T11:42:34Z</time>
      </trkpt>
      <trkpt lat="44.24851" lon="5.70137">
        <ele>659</ele>
        <time>2019-05-24T11:42:35Z</time>
      </trkpt>
      <trkpt lat="44.2485" lon="5.70129">
        <ele>659</ele>
        <time>2019-05-24T11:42:36Z</time>
      </trkpt>
      <trkpt lat="44.24849" lon="5.70121">
        <ele>659</ele>
        <time>2019-05-24T11:42:37Z</time>
      </trkpt>
      <trkpt lat="44.24847" lon="5.70113">
        <ele>659</ele>
        <time>2019-05-24T11:42:38Z</time>
      </trkpt>
      <trkpt lat="44.24845" lon="5.70105">
        <ele>659</ele>
        <time>2019-05-24T11:42:39Z</time>
      </trkpt>
      <trkpt lat="44.24842" lon="5.70098">
        <ele>659</ele>
        <time>2019-05-24T11:42:40Z</time>
      </trkpt>
      <trkpt lat="44.24839" lon="5.70092">
        <ele>659</ele>
        <time>2019-05-24T11:42:41Z</time>
      </trkpt>
      <trkpt lat="44.24834" lon="5.70086">
        <ele>659</ele>
        <time>2019-05-24T11:42:42Z</time>
      </trkpt>
      <trkpt lat="44.2483" lon="5.70081">
        <ele>659</ele>
        <time>2019-05-24T11:42:43Z</time>
      </trkpt>
      <trkpt lat="44.24826" lon="5.70075">
        <ele>659</ele>
        <time>2019-05-24T11:42:44Z</time>
      </trkpt>
      <trkpt lat="44.24821" lon="5.70069">
        <ele>659</ele>
        <time>2019-05-24T11:42:45Z</time>
      </trkpt>
      <trkpt lat="44.24817" lon="5.70063">
        <ele>659</ele>
        <time>2019-05-24T11:42:46Z</time>
      </trkpt>
      <trkpt lat="44.24812" lon="5.70058">
        <ele>659</ele>
        <time>2019-05-24T11:42:47Z</time>
      </trkpt>
      <trkpt lat="44.24807" lon="5.70053">
        <ele>659</ele>
        <time>2019-05-24T11:42:48Z</time>
      </trkpt>
      <trkpt lat="44.24802" lon="5.70047">
        <ele>659</ele>
        <time>2019-05-24T11:42:49Z</time>
      </trkpt>
      <trkpt lat="44.24797" lon="5.70042">
        <ele>659</ele>
        <time>2019-05-24T11:42:50Z</time>
      </trkpt>
      <trkpt lat="44.24792" lon="5.70036">
        <ele>659</ele>
        <time>2019-05-24T11:42:51Z</time>
      </trkpt>
      <trkpt lat="44.24787" lon="5.70031">
        <ele>659</ele>
        <time>2019-05-24T11:42:52Z</time>
      </trkpt>
      <trkpt lat="44.24783" lon="5.70024">
        <ele>659</ele>
        <time>2019-05-24T11:42:53Z</time>
      </trkpt>
      <trkpt lat="44.24778" lon="5.70018">
        <ele>659</ele>
        <time>2019-05-24T11:42:54Z</time>
      </trkpt>
      <trkpt lat="44.24774" lon="5.70012">
        <ele>659</ele>
        <time>2019-05-24T11:42:55Z</time>
      </trkpt>
      <trkpt lat="44.2477" lon="5.70005">
        <ele>659</ele>
        <time>2019-05-24T11:42:57Z</time>
      </trkpt>
      <trkpt lat="44.24766" lon="5.69999">
        <ele>659</ele>
        <time>2019-05-24T11:42:57Z</time>
      </trkpt>
      <trkpt lat="44.24762" lon="5.69992">
        <ele>659</ele>
        <time>2019-05-24T11:42:58Z</time>
      </trkpt>
      <trkpt lat="44.24759" lon="5.69985">
        <ele>659</ele>
        <time>2019-05-24T11:42:59Z</time>
      </trkpt>
      <trkpt lat="44.24755" lon="5.69978">
        <ele>660</ele>
        <time>2019-05-24T11:43:00Z</time>
      </trkpt>
      <trkpt lat="44.24752" lon="5.6997">
        <ele>660</ele>
        <time>2019-05-24T11:43:01Z</time>
      </trkpt>
      <trkpt lat="44.24749" lon="5.69962">
        <ele>660</ele>
        <time>2019-05-24T11:43:02Z</time>
      </trkpt>
      <trkpt lat="44.24746" lon="5.69955">
        <ele>660</ele>
        <time>2019-05-24T11:43:03Z</time>
      </trkpt>
      <trkpt lat="44.24743" lon="5.69947">
        <ele>660</ele>
        <time>2019-05-24T11:43:04Z</time>
      </trkpt>
      <trkpt lat="44.2474" lon="5.6994">
        <ele>660</ele>
        <time>2019-05-24T11:43:05Z</time>
      </trkpt>
      <trkpt lat="44.24737" lon="5.69932">
        <ele>660</ele>
        <time>2019-05-24T11:43:06Z</time>
      </trkpt>
      <trkpt lat="44.24733" lon="5.69924">
        <ele>660</ele>
        <time>2019-05-24T11:43:07Z</time>
      </trkpt>
      <trkpt lat="44.24731" lon="5.69917">
        <ele>660</ele>
        <time>2019-05-24T11:43:08Z</time>
      </trkpt>
      <trkpt lat="44.24728" lon="5.6991">
        <ele>660</ele>
        <time>2019-05-24T11:43:09Z</time>
      </trkpt>
      <trkpt lat="44.24725" lon="5.69903">
        <ele>660</ele>
        <time>2019-05-24T11:43:10Z</time>
      </trkpt>
      <trkpt lat="44.24722" lon="5.69895">
        <ele>660</ele>
        <time>2019-05-24T11:43:11Z</time>
      </trkpt>
      <trkpt lat="44.2472" lon="5.69887">
        <ele>660</ele>
        <time>2019-05-24T11:43:12Z</time>
      </trkpt>
      <trkpt lat="44.24718" lon="5.69878">
        <ele>660</ele>
        <time>2019-05-24T11:43:13Z</time>
      </trkpt>
      <trkpt lat="44.24717" lon="5.6987">
        <ele>660</ele>
        <time>2019-05-24T11:43:14Z</time>
      </trkpt>
      <trkpt lat="44.24717" lon="5.6986">
        <ele>660</ele>
        <time>2019-05-24T11:43:15Z</time>
      </trkpt>
      <trkpt lat="44.24718" lon="5.69851">
        <ele>660</ele>
        <time>2019-05-24T11:43:16Z</time>
      </trkpt>
      <trkpt lat="44.24719" lon="5.69842">
        <ele>660</ele>
        <time>2019-05-24T11:43:17Z</time>
      </trkpt>
      <trkpt lat="44.2472" lon="5.69833">
        <ele>660</ele>
        <time>2019-05-24T11:43:18Z</time>
      </trkpt>
      <trkpt lat="44.24722" lon="5.69824">
        <ele>660</ele>
        <time>2019-05-24T11:43:19Z</time>
      </trkpt>
      <trkpt lat="44.24723" lon="5.69815">
        <ele>660</ele>
        <time>2019-05-24T11:43:20Z</time>
      </trkpt>
      <trkpt lat="44.24725" lon="5.69807">
        <ele>660</ele>
        <time>2019-05-24T11:43:21Z</time>
      </trkpt>
      <trkpt lat="44.24727" lon="5.69798">
        <ele>660</ele>
        <time>2019-05-24T11:43:22Z</time>
      </trkpt>
      <trkpt lat="44.24728" lon="5.6979">
        <ele>660</ele>
        <time>2019-05-24T11:43:23Z</time>
      </trkpt>
      <trkpt lat="44.24728" lon="5.69781">
        <ele>660</ele>
        <time>2019-05-24T11:43:24Z</time>
      </trkpt>
      <trkpt lat="44.2473" lon="5.69772">
        <ele>660</ele>
        <time>2019-05-24T11:43:25Z</time>
      </trkpt>
      <trkpt lat="44.24732" lon="5.69763">
        <ele>660</ele>
        <time>2019-05-24T11:43:26Z</time>
      </trkpt>
      <trkpt lat="44.24733" lon="5.69755">
        <ele>660</ele>
        <time>2019-05-24T11:43:27Z</time>
      </trkpt>
      <trkpt lat="44.24734" lon="5.69746">
        <ele>660</ele>
        <time>2019-05-24T11:43:28Z</time>
      </trkpt>
      <trkpt lat="44.24735" lon="5.69737">
        <ele>660</ele>
        <time>2019-05-24T11:43:29Z</time>
      </trkpt>
      <trkpt lat="44.24736" lon="5.69729">
        <ele>660</ele>
        <time>2019-05-24T11:43:30Z</time>
      </trkpt>
      <trkpt lat="44.24738" lon="5.6972">
        <ele>660</ele>
        <time>2019-05-24T11:43:31Z</time>
      </trkpt>
      <trkpt lat="44.2474" lon="5.69712">
        <ele>660</ele>
        <time>2019-05-24T11:43:32Z</time>
      </trkpt>
      <trkpt lat="44.24742" lon="5.69703">
        <ele>661</ele>
        <time>2019-05-24T11:43:33Z</time>
      </trkpt>
      <trkpt lat="44.24744" lon="5.69695">
        <ele>661</ele>
        <time>2019-05-24T11:43:34Z</time>
      </trkpt>
      <trkpt lat="44.24746" lon="5.69687">
        <ele>661</ele>
        <time>2019-05-24T11:43:35Z</time>
      </trkpt>
      <trkpt lat="44.24749" lon="5.69678">
        <ele>662</ele>
        <time>2019-05-24T11:43:36Z</time>
      </trkpt>
      <trkpt lat="44.24752" lon="5.6967">
        <ele>662</ele>
        <time>2019-05-24T11:43:37Z</time>
      </trkpt>
      <trkpt lat="44.24755" lon="5.69663">
        <ele>662</ele>
        <time>2019-05-24T11:43:38Z</time>
      </trkpt>
      <trkpt lat="44.24758" lon="5.69655">
        <ele>663</ele>
        <time>2019-05-24T11:43:39Z</time>
      </trkpt>
      <trkpt lat="44.2476" lon="5.69646">
        <ele>663</ele>
        <time>2019-05-24T11:43:40Z</time>
      </trkpt>
      <trkpt lat="44.24763" lon="5.69638">
        <ele>663</ele>
        <time>2019-05-24T11:43:41Z</time>
      </trkpt>
      <trkpt lat="44.24766" lon="5.6963">
        <ele>664</ele>
        <time>2019-05-24T11:43:42Z</time>
      </trkpt>
      <trkpt lat="44.2477" lon="5.69622">
        <ele>664</ele>
        <time>2019-05-24T11:43:43Z</time>
      </trkpt>
      <trkpt lat="44.24772" lon="5.69613">
        <ele>664</ele>
        <time>2019-05-24T11:43:44Z</time>
      </trkpt>
      <trkpt lat="44.24774" lon="5.69605">
        <ele>664</ele>
        <time>2019-05-24T11:43:45Z</time>
      </trkpt>
      <trkpt lat="44.24776" lon="5.69597">
        <ele>664</ele>
        <time>2019-05-24T11:43:46Z</time>
      </trkpt>
      <trkpt lat="44.24778" lon="5.6959">
        <ele>664</ele>
        <time>2019-05-24T11:43:47Z</time>
      </trkpt>
      <trkpt lat="44.24781" lon="5.69582">
        <ele>665</ele>
        <time>2019-05-24T11:43:48Z</time>
      </trkpt>
      <trkpt lat="44.24782" lon="5.69573">
        <ele>665</ele>
        <time>2019-05-24T11:43:49Z</time>
      </trkpt>
      <trkpt lat="44.24784" lon="5.69565">
        <ele>666</ele>
        <time>2019-05-24T11:43:50Z</time>
      </trkpt>
      <trkpt lat="44.24786" lon="5.69557">
        <ele>666</ele>
        <time>2019-05-24T11:43:51Z</time>
      </trkpt>
      <trkpt lat="44.24788" lon="5.69549">
        <ele>667</ele>
        <time>2019-05-24T11:43:52Z</time>
      </trkpt>
      <trkpt lat="44.24789" lon="5.6954">
        <ele>667</ele>
        <time>2019-05-24T11:43:53Z</time>
      </trkpt>
      <trkpt lat="44.24791" lon="5.69532">
        <ele>667</ele>
        <time>2019-05-24T11:43:54Z</time>
      </trkpt>
      <trkpt lat="44.24792" lon="5.69523">
        <ele>668</ele>
        <time>2019-05-24T11:43:55Z</time>
      </trkpt>
      <trkpt lat="44.24794" lon="5.69515">
        <ele>668</ele>
        <time>2019-05-24T11:43:57Z</time>
      </trkpt>
      <trkpt lat="44.24795" lon="5.69507">
        <ele>668</ele>
        <time>2019-05-24T11:43:57Z</time>
      </trkpt>
      <trkpt lat="44.24796" lon="5.69498">
        <ele>668</ele>
        <time>2019-05-24T11:43:58Z</time>
      </trkpt>
      <trkpt lat="44.24796" lon="5.6949">
        <ele>668</ele>
        <time>2019-05-24T11:43:59Z</time>
      </trkpt>
      <trkpt lat="44.24797" lon="5.69482">
        <ele>669</ele>
        <time>2019-05-24T11:44:00Z</time>
      </trkpt>
      <trkpt lat="44.24797" lon="5.69474">
        <ele>669</ele>
        <time>2019-05-24T11:44:01Z</time>
      </trkpt>
      <trkpt lat="44.24797" lon="5.69466">
        <ele>669</ele>
        <time>2019-05-24T11:44:02Z</time>
      </trkpt>
      <trkpt lat="44.24796" lon="5.69458">
        <ele>669</ele>
        <time>2019-05-24T11:44:03Z</time>
      </trkpt>
      <trkpt lat="44.24795" lon="5.69451">
        <ele>669</ele>
        <time>2019-05-24T11:44:04Z</time>
      </trkpt>
      <trkpt lat="44.24794" lon="5.69443">
        <ele>669</ele>
        <time>2019-05-24T11:44:05Z</time>
      </trkpt>
      <trkpt lat="44.24792" lon="5.69435">
        <ele>669</ele>
        <time>2019-05-24T11:44:06Z</time>
      </trkpt>
      <trkpt lat="44.24791" lon="5.69427">
        <ele>669</ele>
        <time>2019-05-24T11:44:07Z</time>
      </trkpt>
      <trkpt lat="44.2479" lon="5.69418">
        <ele>669</ele>
        <time>2019-05-24T11:44:08Z</time>
      </trkpt>
      <trkpt lat="44.24789" lon="5.6941">
        <ele>669</ele>
        <time>2019-05-24T11:44:09Z</time>
      </trkpt>
      <trkpt lat="44.24788" lon="5.69402">
        <ele>669</ele>
        <time>2019-05-24T11:44:10Z</time>
      </trkpt>
      <trkpt lat="44.24786" lon="5.69393">
        <ele>669</ele>
        <time>2019-05-24T11:44:11Z</time>
      </trkpt>
      <trkpt lat="44.24784" lon="5.69385">
        <ele>669</ele>
        <time>2019-05-24T11:44:12Z</time>
      </trkpt>
      <trkpt lat="44.24782" lon="5.69376">
        <ele>669</ele>
        <time>2019-05-24T11:44:13Z</time>
      </trkpt>
      <trkpt lat="44.2478" lon="5.69368">
        <ele>669</ele>
        <time>2019-05-24T11:44:14Z</time>
      </trkpt>
      <trkpt lat="44.24778" lon="5.69359">
        <ele>669</ele>
        <time>2019-05-24T11:44:15Z</time>
      </trkpt>
      <trkpt lat="44.24775" lon="5.69351">
        <ele>668</ele>
        <time>2019-05-24T11:44:16Z</time>
      </trkpt>
      <trkpt lat="44.24773" lon="5.69342">
        <ele>668</ele>
        <time>2019-05-24T11:44:17Z</time>
      </trkpt>
      <trkpt lat="44.2477" lon="5.69333">
        <ele>668</ele>
        <time>2019-05-24T11:44:18Z</time>
      </trkpt>
      <trkpt lat="44.24767" lon="5.69325">
        <ele>668</ele>
        <time>2019-05-24T11:44:19Z</time>
      </trkpt>
      <trkpt lat="44.24764" lon="5.69316">
        <ele>667</ele>
        <time>2019-05-24T11:44:20Z</time>
      </trkpt>
      <trkpt lat="44.24762" lon="5.69308">
        <ele>667</ele>
        <time>2019-05-24T11:44:21Z</time>
      </trkpt>
      <trkpt lat="44.24759" lon="5.693">
        <ele>667</ele>
        <time>2019-05-24T11:44:22Z</time>
      </trkpt>
      <trkpt lat="44.24756" lon="5.69292">
        <ele>666</ele>
        <time>2019-05-24T11:44:23Z</time>
      </trkpt>
      <trkpt lat="44.24753" lon="5.69283">
        <ele>666</ele>
        <time>2019-05-24T11:44:24Z</time>
      </trkpt>
      <trkpt lat="44.24749" lon="5.69275">
        <ele>666</ele>
        <time>2019-05-24T11:44:25Z</time>
      </trkpt>
      <trkpt lat="44.24745" lon="5.69268">
        <ele>666</ele>
        <time>2019-05-24T11:44:26Z</time>
      </trkpt>
      <trkpt lat="44.24741" lon="5.6926">
        <ele>666</ele>
        <time>2019-05-24T11:44:27Z</time>
      </trkpt>
      <trkpt lat="44.24737" lon="5.69252">
        <ele>666</ele>
        <time>2019-05-24T11:44:28Z</time>
      </trkpt>
      <trkpt lat="44.24733" lon="5.69244">
        <ele>666</ele>
        <time>2019-05-24T11:44:29Z</time>
      </trkpt>
      <trkpt lat="44.24731" lon="5.69236">
        <ele>665</ele>
        <time>2019-05-24T11:44:30Z</time>
      </trkpt>
      <trkpt lat="44.24727" lon="5.69228">
        <ele>665</ele>
        <time>2019-05-24T11:44:31Z</time>
      </trkpt>
      <trkpt lat="44.24723" lon="5.6922">
        <ele>665</ele>
        <time>2019-05-24T11:44:32Z</time>
      </trkpt>
      <trkpt lat="44.2472" lon="5.69212">
        <ele>664</ele>
        <time>2019-05-24T11:44:33Z</time>
      </trkpt>
      <trkpt lat="44.24717" lon="5.69205">
        <ele>663</ele>
        <time>2019-05-24T11:44:34Z</time>
      </trkpt>
      <trkpt lat="44.24713" lon="5.69198">
        <ele>663</ele>
        <time>2019-05-24T11:44:35Z</time>
      </trkpt>
      <trkpt lat="44.2471" lon="5.6919">
        <ele>663</ele>
        <time>2019-05-24T11:44:36Z</time>
      </trkpt>
      <trkpt lat="44.24707" lon="5.69182">
        <ele>663</ele>
        <time>2019-05-24T11:44:37Z</time>
      </trkpt>
      <trkpt lat="44.24703" lon="5.69174">
        <ele>663</ele>
        <time>2019-05-24T11:44:38Z</time>
      </trkpt>
      <trkpt lat="44.24699" lon="5.69167">
        <ele>663</ele>
        <time>2019-05-24T11:44:39Z</time>
      </trkpt>
      <trkpt lat="44.24696" lon="5.69159">
        <ele>663</ele>
        <time>2019-05-24T11:44:40Z</time>
      </trkpt>
      <trkpt lat="44.24693" lon="5.69151">
        <ele>663</ele>
        <time>2019-05-24T11:44:41Z</time>
      </trkpt>
      <trkpt lat="44.2469" lon="5.69143">
        <ele>663</ele>
        <time>2019-05-24T11:44:42Z</time>
      </trkpt>
      <trkpt lat="44.24688" lon="5.69136">
        <ele>663</ele>
        <time>2019-05-24T11:44:43Z</time>
      </trkpt>
      <trkpt lat="44.24685" lon="5.69128">
        <ele>663</ele>
        <time>2019-05-24T11:44:44Z</time>
      </trkpt>
      <trkpt lat="44.24683" lon="5.6912">
        <ele>663</ele>
        <time>2019-05-24T11:44:45Z</time>
      </trkpt>
      <trkpt lat="44.24681" lon="5.69112">
        <ele>663</ele>
        <time>2019-05-24T11:44:46Z</time>
      </trkpt>
      <trkpt lat="44.2468" lon="5.69104">
        <ele>663</ele>
        <time>2019-05-24T11:44:47Z</time>
      </trkpt>
      <trkpt lat="44.24678" lon="5.69096">
        <ele>663</ele>
        <time>2019-05-24T11:44:48Z</time>
      </trkpt>
      <trkpt lat="44.24677" lon="5.69088">
        <ele>663</ele>
        <time>2019-05-24T11:44:49Z</time>
      </trkpt>
      <trkpt lat="44.24675" lon="5.69079">
        <ele>663</ele>
        <time>2019-05-24T11:44:50Z</time>
      </trkpt>
      <trkpt lat="44.24674" lon="5.69071">
        <ele>663</ele>
        <time>2019-05-24T11:44:51Z</time>
      </trkpt>
      <trkpt lat="44.24673" lon="5.69062">
        <ele>663</ele>
        <time>2019-05-24T11:44:52Z</time>
      </trkpt>
      <trkpt lat="44.24672" lon="5.69054">
        <ele>663</ele>
        <time>2019-05-24T11:44:53Z</time>
      </trkpt>
      <trkpt lat="44.24671" lon="5.69045">
        <ele>663</ele>
        <time>2019-05-24T11:44:54Z</time>
      </trkpt>
      <trkpt lat="44.2467" lon="5.69037">
        <ele>663</ele>
        <time>2019-05-24T11:44:55Z</time>
      </trkpt>
      <trkpt lat="44.24669" lon="5.69029">
        <ele>663</ele>
        <time>2019-05-24T11:44:57Z</time>
      </trkpt>
      <trkpt lat="44.24668" lon="5.69021">
        <ele>663</ele>
        <time>2019-05-24T11:44:57Z</time>
      </trkpt>
      <trkpt lat="44.24667" lon="5.69012">
        <ele>663</ele>
        <time>2019-05-24T11:44:58Z</time>
      </trkpt>
      <trkpt lat="44.24665" lon="5.69004">
        <ele>663</ele>
        <time>2019-05-24T11:44:59Z</time>
      </trkpt>
      <trkpt lat="44.24664" lon="5.68995">
        <ele>663</ele>
        <time>2019-05-24T11:45:00Z</time>
      </trkpt>
      <trkpt lat="44.24663" lon="5.68986">
        <ele>663</ele>
        <time>2019-05-24T11:45:01Z</time>
      </trkpt>
      <trkpt lat="44.24662" lon="5.68977">
        <ele>663</ele>
        <time>2019-05-24T11:45:02Z</time>
      </trkpt>
      <trkpt lat="44.24661" lon="5.68968">
        <ele>663</ele>
        <time>2019-05-24T11:45:03Z</time>
      </trkpt>
      <trkpt lat="44.2466" lon="5.68959">
        <ele>663</ele>
        <time>2019-05-24T11:45:04Z</time>
      </trkpt>
      <trkpt lat="44.24659" lon="5.68951">
        <ele>663</ele>
        <time>2019-05-24T11:45:05Z</time>
      </trkpt>
      <trkpt lat="44.24658" lon="5.68942">
        <ele>663</ele>
        <time>2019-05-24T11:45:06Z</time>
      </trkpt>
      <trkpt lat="44.24657" lon="5.68933">
        <ele>663</ele>
        <time>2019-05-24T11:45:07Z</time>
      </trkpt>
      <trkpt lat="44.24656" lon="5.68924">
        <ele>663</ele>
        <time>2019-05-24T11:45:08Z</time>
      </trkpt>
      <trkpt lat="44.24655" lon="5.68915">
        <ele>663</ele>
        <time>2019-05-24T11:45:09Z</time>
      </trkpt>
      <trkpt lat="44.24654" lon="5.68906">
        <ele>663</ele>
        <time>2019-05-24T11:45:10Z</time>
      </trkpt>
      <trkpt lat="44.24653" lon="5.68897">
        <ele>663</ele>
        <time>2019-05-24T11:45:11Z</time>
      </trkpt>
      <trkpt lat="44.24652" lon="5.68888">
        <ele>663</ele>
        <time>2019-05-24T11:45:12Z</time>
      </trkpt>
      <trkpt lat="44.24651" lon="5.68879">
        <ele>663</ele>
        <time>2019-05-24T11:45:13Z</time>
      </trkpt>
      <trkpt lat="44.2465" lon="5.68871">
        <ele>663</ele>
        <time>2019-05-24T11:45:14Z</time>
      </trkpt>
      <trkpt lat="44.24649" lon="5.68862">
        <ele>663</ele>
        <time>2019-05-24T11:45:15Z</time>
      </trkpt>
      <trkpt lat="44.24648" lon="5.68853">
        <ele>663</ele>
        <time>2019-05-24T11:45:16Z</time>
      </trkpt>
      <trkpt lat="44.24647" lon="5.68844">
        <ele>663</ele>
        <time>2019-05-24T11:45:17Z</time>
      </trkpt>
      <trkpt lat="44.24646" lon="5.68835">
        <ele>663</ele>
        <time>2019-05-24T11:45:18Z</time>
      </trkpt>
      <trkpt lat="44.24645" lon="5.68826">
        <ele>663</ele>
        <time>2019-05-24T11:45:19Z</time>
      </trkpt>
      <trkpt lat="44.24644" lon="5.68818">
        <ele>663</ele>
        <time>2019-05-24T11:45:20Z</time>
      </trkpt>
      <trkpt lat="44.24643" lon="5.68809">
        <ele>663</ele>
        <time>2019-05-24T11:45:21Z</time>
      </trkpt>
      <trkpt lat="44.24642" lon="5.688">
        <ele>664</ele>
        <time>2019-05-24T11:45:22Z</time>
      </trkpt>
      <trkpt lat="44.24641" lon="5.68791">
        <ele>664</ele>
        <time>2019-05-24T11:45:23Z</time>
      </trkpt>
      <trkpt lat="44.2464" lon="5.68782">
        <ele>664</ele>
        <time>2019-05-24T11:45:24Z</time>
      </trkpt>
      <trkpt lat="44.24639" lon="5.68774">
        <ele>664</ele>
        <time>2019-05-24T11:45:25Z</time>
      </trkpt>
      <trkpt lat="44.24638" lon="5.68765">
        <ele>664</ele>
        <time>2019-05-24T11:45:26Z</time>
      </trkpt>
      <trkpt lat="44.24637" lon="5.68756">
        <ele>664</ele>
        <time>2019-05-24T11:45:27Z</time>
      </trkpt>
      <trkpt lat="44.24636" lon="5.68748">
        <ele>664</ele>
        <time>2019-05-24T11:45:28Z</time>
      </trkpt>
      <trkpt lat="44.24635" lon="5.6874">
        <ele>664</ele>
        <time>2019-05-24T11:45:29Z</time>
      </trkpt>
      <trkpt lat="44.24634" lon="5.68731">
        <ele>664</ele>
        <time>2019-05-24T11:45:30Z</time>
      </trkpt>
      <trkpt lat="44.24633" lon="5.68723">
        <ele>664</ele>
        <time>2019-05-24T11:45:31Z</time>
      </trkpt>
      <trkpt lat="44.24632" lon="5.68714">
        <ele>664</ele>
        <time>2019-05-24T11:45:32Z</time>
      </trkpt>
      <trkpt lat="44.24632" lon="5.68706">
        <ele>664</ele>
        <time>2019-05-24T11:45:33Z</time>
      </trkpt>
      <trkpt lat="44.24631" lon="5.68697">
        <ele>664</ele>
        <time>2019-05-24T11:45:34Z</time>
      </trkpt>
      <trkpt lat="44.2463" lon="5.68689">
        <ele>665</ele>
        <time>2019-05-24T11:45:35Z</time>
      </trkpt>
      <trkpt lat="44.24629" lon="5.6868">
        <ele>665</ele>
        <time>2019-05-24T11:45:36Z</time>
      </trkpt>
      <trkpt lat="44.24628" lon="5.68672">
        <ele>665</ele>
        <time>2019-05-24T11:45:37Z</time>
      </trkpt>
      <trkpt lat="44.24628" lon="5.68663">
        <ele>665</ele>
        <time>2019-05-24T11:45:38Z</time>
      </trkpt>
      <trkpt lat="44.24627" lon="5.68654">
        <ele>665</ele>
        <time>2019-05-24T11:45:39Z</time>
      </trkpt>
      <trkpt lat="44.24626" lon="5.68645">
        <ele>665</ele>
        <time>2019-05-24T11:45:40Z</time>
      </trkpt>
      <trkpt lat="44.24625" lon="5.68637">
        <ele>665</ele>
        <time>2019-05-24T11:45:41Z</time>
      </trkpt>
      <trkpt lat="44.24624" lon="5.68628">
        <ele>665</ele>
        <time>2019-05-24T11:45:42Z</time>
      </trkpt>
      <trkpt lat="44.24624" lon="5.68619">
        <ele>665</ele>
        <time>2019-05-24T11:45:43Z</time>
      </trkpt>
      <trkpt lat="44.24623" lon="5.6861">
        <ele>665</ele>
        <time>2019-05-24T11:45:44Z</time>
      </trkpt>
      <trkpt lat="44.24623" lon="5.68601">
        <ele>665</ele>
        <time>2019-05-24T11:45:45Z</time>
      </trkpt>
      <trkpt lat="44.24623" lon="5.68592">
        <ele>665</ele>
        <time>2019-05-24T11:45:46Z</time>
      </trkpt>
      <trkpt lat="44.24622" lon="5.68582">
        <ele>665</ele>
        <time>2019-05-24T11:45:47Z</time>
      </trkpt>
      <trkpt lat="44.24622" lon="5.68573">
        <ele>665</ele>
        <time>2019-05-24T11:45:48Z</time>
      </trkpt>
      <trkpt lat="44.24622" lon="5.68564">
        <ele>666</ele>
        <time>2019-05-24T11:45:49Z</time>
      </trkpt>
      <trkpt lat="44.24622" lon="5.68555">
        <ele>666</ele>
        <time>2019-05-24T11:45:50Z</time>
      </trkpt>
      <trkpt lat="44.24622" lon="5.68545">
        <ele>666</ele>
        <time>2019-05-24T11:45:51Z</time>
      </trkpt>
      <trkpt lat="44.24621" lon="5.68537">
        <ele>666</ele>
        <time>2019-05-24T11:45:52Z</time>
      </trkpt>
      <trkpt lat="44.2462" lon="5.68529">
        <ele>666</ele>
        <time>2019-05-24T11:45:53Z</time>
      </trkpt>
      <trkpt lat="44.2462" lon="5.6852">
        <ele>666</ele>
        <time>2019-05-24T11:45:54Z</time>
      </trkpt>
      <trkpt lat="44.2462" lon="5.68512">
        <ele>666</ele>
        <time>2019-05-24T11:45:55Z</time>
      </trkpt>
      <trkpt lat="44.2462" lon="5.68503">
        <ele>666</ele>
        <time>2019-05-24T11:45:57Z</time>
      </trkpt>
      <trkpt lat="44.24619" lon="5.68495">
        <ele>667</ele>
        <time>2019-05-24T11:45:57Z</time>
      </trkpt>
      <trkpt lat="44.24619" lon="5.68487">
        <ele>667</ele>
        <time>2019-05-24T11:45:58Z</time>
      </trkpt>
      <trkpt lat="44.24618" lon="5.68479">
        <ele>667</ele>
        <time>2019-05-24T11:45:59Z</time>
      </trkpt>
      <trkpt lat="44.24617" lon="5.68471">
        <ele>668</ele>
        <time>2019-05-24T11:46:00Z</time>
      </trkpt>
      <trkpt lat="44.24616" lon="5.68463">
        <ele>668</ele>
        <time>2019-05-24T11:46:01Z</time>
      </trkpt>
      <trkpt lat="44.24615" lon="5.68454">
        <ele>669</ele>
        <time>2019-05-24T11:46:02Z</time>
      </trkpt>
      <trkpt lat="44.24614" lon="5.68446">
        <ele>669</ele>
        <time>2019-05-24T11:46:03Z</time>
      </trkpt>
      <trkpt lat="44.24613" lon="5.68437">
        <ele>669</ele>
        <time>2019-05-24T11:46:04Z</time>
      </trkpt>
      <trkpt lat="44.24611" lon="5.68428">
        <ele>669</ele>
        <time>2019-05-24T11:46:05Z</time>
      </trkpt>
      <trkpt lat="44.2461" lon="5.6842">
        <ele>669</ele>
        <time>2019-05-24T11:46:06Z</time>
      </trkpt>
      <trkpt lat="44.24607" lon="5.68411">
        <ele>669</ele>
        <time>2019-05-24T11:46:07Z</time>
      </trkpt>
      <trkpt lat="44.24606" lon="5.68403">
        <ele>669</ele>
        <time>2019-05-24T11:46:08Z</time>
      </trkpt>
      <trkpt lat="44.24604" lon="5.68394">
        <ele>669</ele>
        <time>2019-05-24T11:46:09Z</time>
      </trkpt>
      <trkpt lat="44.24603" lon="5.68386">
        <ele>669</ele>
        <time>2019-05-24T11:46:10Z</time>
      </trkpt>
      <trkpt lat="44.24601" lon="5.68377">
        <ele>669</ele>
        <time>2019-05-24T11:46:11Z</time>
      </trkpt>
      <trkpt lat="44.24599" lon="5.68368">
        <ele>669</ele>
        <time>2019-05-24T11:46:12Z</time>
      </trkpt>
      <trkpt lat="44.24597" lon="5.6836">
        <ele>669</ele>
        <time>2019-05-24T11:46:13Z</time>
      </trkpt>
      <trkpt lat="44.24596" lon="5.68352">
        <ele>669</ele>
        <time>2019-05-24T11:46:14Z</time>
      </trkpt>
      <trkpt lat="44.24594" lon="5.68343">
        <ele>669</ele>
        <time>2019-05-24T11:46:15Z</time>
      </trkpt>
      <trkpt lat="44.24593" lon="5.68335">
        <ele>669</ele>
        <time>2019-05-24T11:46:16Z</time>
      </trkpt>
      <trkpt lat="44.24591" lon="5.68327">
        <ele>669</ele>
        <time>2019-05-24T11:46:17Z</time>
      </trkpt>
      <trkpt lat="44.24589" lon="5.68318">
        <ele>669</ele>
        <time>2019-05-24T11:46:18Z</time>
      </trkpt>
      <trkpt lat="44.24587" lon="5.6831">
        <ele>669</ele>
        <time>2019-05-24T11:46:19Z</time>
      </trkpt>
      <trkpt lat="44.24585" lon="5.68302">
        <ele>669</ele>
        <time>2019-05-24T11:46:20Z</time>
      </trkpt>
      <trkpt lat="44.24584" lon="5.68294">
        <ele>669</ele>
        <time>2019-05-24T11:46:21Z</time>
      </trkpt>
      <trkpt lat="44.24582" lon="5.68285">
        <ele>669</ele>
        <time>2019-05-24T11:46:22Z</time>
      </trkpt>
      <trkpt lat="44.24581" lon="5.68277">
        <ele>669</ele>
        <time>2019-05-24T11:46:23Z</time>
      </trkpt>
      <trkpt lat="44.24579" lon="5.68269">
        <ele>669</ele>
        <time>2019-05-24T11:46:24Z</time>
      </trkpt>
      <trkpt lat="44.24577" lon="5.6826">
        <ele>669</ele>
        <time>2019-05-24T11:46:25Z</time>
      </trkpt>
      <trkpt lat="44.24576" lon="5.68252">
        <ele>669</ele>
        <time>2019-05-24T11:46:26Z</time>
      </trkpt>
      <trkpt lat="44.24575" lon="5.68244">
        <ele>669</ele>
        <time>2019-05-24T11:46:27Z</time>
      </trkpt>
      <trkpt lat="44.24573" lon="5.68236">
        <ele>669</ele>
        <time>2019-05-24T11:46:28Z</time>
      </trkpt>
      <trkpt lat="44.24571" lon="5.68229">
        <ele>669</ele>
        <time>2019-05-24T11:46:29Z</time>
      </trkpt>
      <trkpt lat="44.24569" lon="5.68221">
        <ele>669</ele>
        <time>2019-05-24T11:46:30Z</time>
      </trkpt>
      <trkpt lat="44.24568" lon="5.68213">
        <ele>669</ele>
        <time>2019-05-24T11:46:31Z</time>
      </trkpt>
      <trkpt lat="44.24567" lon="5.68205">
        <ele>669</ele>
        <time>2019-05-24T11:46:32Z</time>
      </trkpt>
      <trkpt lat="44.24564" lon="5.68198">
        <ele>669</ele>
        <time>2019-05-24T11:46:33Z</time>
      </trkpt>
      <trkpt lat="44.24562" lon="5.6819">
        <ele>669</ele>
        <time>2019-05-24T11:46:34Z</time>
      </trkpt>
      <trkpt lat="44.2456" lon="5.68182">
        <ele>669</ele>
        <time>2019-05-24T11:46:35Z</time>
      </trkpt>
      <trkpt lat="44.24558" lon="5.68174">
        <ele>669</ele>
        <time>2019-05-24T11:46:36Z</time>
      </trkpt>
      <trkpt lat="44.24556" lon="5.68166">
        <ele>669</ele>
        <time>2019-05-24T11:46:37Z</time>
      </trkpt>
      <trkpt lat="44.24554" lon="5.68158">
        <ele>668</ele>
        <time>2019-05-24T11:46:38Z</time>
      </trkpt>
      <trkpt lat="44.24552" lon="5.6815">
        <ele>668</ele>
        <time>2019-05-24T11:46:39Z</time>
      </trkpt>
      <trkpt lat="44.24549" lon="5.68141">
        <ele>668</ele>
        <time>2019-05-24T11:46:40Z</time>
      </trkpt>
      <trkpt lat="44.24547" lon="5.68133">
        <ele>668</ele>
        <time>2019-05-24T11:46:41Z</time>
      </trkpt>
      <trkpt lat="44.24545" lon="5.68125">
        <ele>668</ele>
        <time>2019-05-24T11:46:42Z</time>
      </trkpt>
      <trkpt lat="44.24542" lon="5.68117">
        <ele>668</ele>
        <time>2019-05-24T11:46:43Z</time>
      </trkpt>
      <trkpt lat="44.2454" lon="5.68108">
        <ele>668</ele>
        <time>2019-05-24T11:46:44Z</time>
      </trkpt>
      <trkpt lat="44.24538" lon="5.681">
        <ele>668</ele>
        <time>2019-05-24T11:46:45Z</time>
      </trkpt>
      <trkpt lat="44.24536" lon="5.68092">
        <ele>668</ele>
        <time>2019-05-24T11:46:46Z</time>
      </trkpt>
      <trkpt lat="44.24534" lon="5.68083">
        <ele>668</ele>
        <time>2019-05-24T11:46:47Z</time>
      </trkpt>
      <trkpt lat="44.24532" lon="5.68075">
        <ele>668</ele>
        <time>2019-05-24T11:46:48Z</time>
      </trkpt>
      <trkpt lat="44.24532" lon="5.68066">
        <ele>668</ele>
        <time>2019-05-24T11:46:49Z</time>
      </trkpt>
      <trkpt lat="44.2453" lon="5.68058">
        <ele>668</ele>
        <time>2019-05-24T11:46:50Z</time>
      </trkpt>
      <trkpt lat="44.24529" lon="5.6805">
        <ele>668</ele>
        <time>2019-05-24T11:46:51Z</time>
      </trkpt>
      <trkpt lat="44.24529" lon="5.68041">
        <ele>668</ele>
        <time>2019-05-24T11:46:52Z</time>
      </trkpt>
      <trkpt lat="44.24528" lon="5.68033">
        <ele>668</ele>
        <time>2019-05-24T11:46:53Z</time>
      </trkpt>
      <trkpt lat="44.24527" lon="5.68025">
        <ele>668</ele>
        <time>2019-05-24T11:46:54Z</time>
      </trkpt>
      <trkpt lat="44.24526" lon="5.68016">
        <ele>668</ele>
        <time>2019-05-24T11:46:55Z</time>
      </trkpt>
      <trkpt lat="44.24526" lon="5.68008">
        <ele>668</ele>
        <time>2019-05-24T11:46:57Z</time>
      </trkpt>
      <trkpt lat="44.24525" lon="5.68">
        <ele>668</ele>
        <time>2019-05-24T11:46:57Z</time>
      </trkpt>
      <trkpt lat="44.24525" lon="5.67991">
        <ele>668</ele>
        <time>2019-05-24T11:46:58Z</time>
      </trkpt>
      <trkpt lat="44.24525" lon="5.67983">
        <ele>669</ele>
        <time>2019-05-24T11:46:59Z</time>
      </trkpt>
      <trkpt lat="44.24525" lon="5.67975">
        <ele>669</ele>
        <time>2019-05-24T11:47:00Z</time>
      </trkpt>
      <trkpt lat="44.24525" lon="5.67967">
        <ele>669</ele>
        <time>2019-05-24T11:47:01Z</time>
      </trkpt>
      <trkpt lat="44.24524" lon="5.67959">
        <ele>669</ele>
        <time>2019-05-24T11:47:02Z</time>
      </trkpt>
      <trkpt lat="44.24524" lon="5.67951">
        <ele>669</ele>
        <time>2019-05-24T11:47:03Z</time>
      </trkpt>
      <trkpt lat="44.24524" lon="5.67943">
        <ele>669</ele>
        <time>2019-05-24T11:47:04Z</time>
      </trkpt>
      <trkpt lat="44.24524" lon="5.67935">
        <ele>669</ele>
        <time>2019-05-24T11:47:05Z</time>
      </trkpt>
      <trkpt lat="44.24524" lon="5.67927">
        <ele>669</ele>
        <time>2019-05-24T11:47:06Z</time>
      </trkpt>
      <trkpt lat="44.24523" lon="5.67918">
        <ele>669</ele>
        <time>2019-05-24T11:47:07Z</time>
      </trkpt>
      <trkpt lat="44.24523" lon="5.6791">
        <ele>670</ele>
        <time>2019-05-24T11:47:08Z</time>
      </trkpt>
      <trkpt lat="44.24523" lon="5.67902">
        <ele>670</ele>
        <time>2019-05-24T11:47:09Z</time>
      </trkpt>
      <trkpt lat="44.24522" lon="5.67894">
        <ele>670</ele>
        <time>2019-05-24T11:47:10Z</time>
      </trkpt>
      <trkpt lat="44.24522" lon="5.67886">
        <ele>670</ele>
        <time>2019-05-24T11:47:11Z</time>
      </trkpt>
      <trkpt lat="44.24522" lon="5.67878">
        <ele>670</ele>
        <time>2019-05-24T11:47:12Z</time>
      </trkpt>
      <trkpt lat="44.24522" lon="5.6787">
        <ele>670</ele>
        <time>2019-05-24T11:47:13Z</time>
      </trkpt>
      <trkpt lat="44.24522" lon="5.67862">
        <ele>670</ele>
        <time>2019-05-24T11:47:14Z</time>
      </trkpt>
      <trkpt lat="44.24521" lon="5.67853">
        <ele>670</ele>
        <time>2019-05-24T11:47:15Z</time>
      </trkpt>
      <trkpt lat="44.24521" lon="5.67845">
        <ele>671</ele>
        <time>2019-05-24T11:47:16Z</time>
      </trkpt>
      <trkpt lat="44.24521" lon="5.67836">
        <ele>671</ele>
        <time>2019-05-24T11:47:17Z</time>
      </trkpt>
      <trkpt lat="44.24521" lon="5.67828">
        <ele>671</ele>
        <time>2019-05-24T11:47:18Z</time>
      </trkpt>
      <trkpt lat="44.24521" lon="5.6782">
        <ele>672</ele>
        <time>2019-05-24T11:47:19Z</time>
      </trkpt>
      <trkpt lat="44.24521" lon="5.67812">
        <ele>672</ele>
        <time>2019-05-24T11:47:20Z</time>
      </trkpt>
      <trkpt lat="44.24522" lon="5.67804">
        <ele>672</ele>
        <time>2019-05-24T11:47:21Z</time>
      </trkpt>
      <trkpt lat="44.24522" lon="5.67796">
        <ele>672</ele>
        <time>2019-05-24T11:47:22Z</time>
      </trkpt>
      <trkpt lat="44.24522" lon="5.67787">
        <ele>672</ele>
        <time>2019-05-24T11:47:23Z</time>
      </trkpt>
      <trkpt lat="44.24523" lon="5.67779">
        <ele>672</ele>
        <time>2019-05-24T11:47:24Z</time>
      </trkpt>
      <trkpt lat="44.24524" lon="5.6777">
        <ele>672</ele>
        <time>2019-05-24T11:47:25Z</time>
      </trkpt>
      <trkpt lat="44.24525" lon="5.67762">
        <ele>673</ele>
        <time>2019-05-24T11:47:26Z</time>
      </trkpt>
      <trkpt lat="44.24526" lon="5.67753">
        <ele>673</ele>
        <time>2019-05-24T11:47:27Z</time>
      </trkpt>
      <trkpt lat="44.24527" lon="5.67744">
        <ele>673</ele>
        <time>2019-05-24T11:47:28Z</time>
      </trkpt>
      <trkpt lat="44.24529" lon="5.67735">
        <ele>673</ele>
        <time>2019-05-24T11:47:29Z</time>
      </trkpt>
      <trkpt lat="44.2453" lon="5.67727">
        <ele>673</ele>
        <time>2019-05-24T11:47:30Z</time>
      </trkpt>
      <trkpt lat="44.24532" lon="5.67718">
        <ele>674</ele>
        <time>2019-05-24T11:47:31Z</time>
      </trkpt>
      <trkpt lat="44.24533" lon="5.67708">
        <ele>674</ele>
        <time>2019-05-24T11:47:32Z</time>
      </trkpt>
      <trkpt lat="44.24535" lon="5.67699">
        <ele>674</ele>
        <time>2019-05-24T11:47:33Z</time>
      </trkpt>
      <trkpt lat="44.24537" lon="5.6769">
        <ele>674</ele>
        <time>2019-05-24T11:47:34Z</time>
      </trkpt>
      <trkpt lat="44.24538" lon="5.67681">
        <ele>674</ele>
        <time>2019-05-24T11:47:35Z</time>
      </trkpt>
      <trkpt lat="44.2454" lon="5.67672">
        <ele>674</ele>
        <time>2019-05-24T11:47:36Z</time>
      </trkpt>
      <trkpt lat="44.24541" lon="5.67663">
        <ele>674</ele>
        <time>2019-05-24T11:47:37Z</time>
      </trkpt>
      <trkpt lat="44.24543" lon="5.67654">
        <ele>674</ele>
        <time>2019-05-24T11:47:38Z</time>
      </trkpt>
      <trkpt lat="44.24544" lon="5.67645">
        <ele>674</ele>
        <time>2019-05-24T11:47:39Z</time>
      </trkpt>
      <trkpt lat="44.24545" lon="5.67636">
        <ele>674</ele>
        <time>2019-05-24T11:47:40Z</time>
      </trkpt>
      <trkpt lat="44.24546" lon="5.67626">
        <ele>675</ele>
        <time>2019-05-24T11:47:41Z</time>
      </trkpt>
      <trkpt lat="44.24546" lon="5.67617">
        <ele>675</ele>
        <time>2019-05-24T11:47:42Z</time>
      </trkpt>
      <trkpt lat="44.24545" lon="5.67608">
        <ele>675</ele>
        <time>2019-05-24T11:47:43Z</time>
      </trkpt>
      <trkpt lat="44.24545" lon="5.67599">
        <ele>675</ele>
        <time>2019-05-24T11:47:44Z</time>
      </trkpt>
      <trkpt lat="44.24544" lon="5.6759">
        <ele>675</ele>
        <time>2019-05-24T11:47:45Z</time>
      </trkpt>
      <trkpt lat="44.24543" lon="5.67582">
        <ele>675</ele>
        <time>2019-05-24T11:47:46Z</time>
      </trkpt>
      <trkpt lat="44.24542" lon="5.67573">
        <ele>675</ele>
        <time>2019-05-24T11:47:47Z</time>
      </trkpt>
      <trkpt lat="44.24542" lon="5.67565">
        <ele>675</ele>
        <time>2019-05-24T11:47:48Z</time>
      </trkpt>
      <trkpt lat="44.24542" lon="5.67557">
        <ele>675</ele>
        <time>2019-05-24T11:47:49Z</time>
      </trkpt>
      <trkpt lat="44.24542" lon="5.67549">
        <ele>676</ele>
        <time>2019-05-24T11:47:50Z</time>
      </trkpt>
      <trkpt lat="44.24543" lon="5.67542">
        <ele>676</ele>
        <time>2019-05-24T11:47:51Z</time>
      </trkpt>
      <trkpt lat="44.24544" lon="5.67534">
        <ele>676</ele>
        <time>2019-05-24T11:47:52Z</time>
      </trkpt>
      <trkpt lat="44.24545" lon="5.67527">
        <ele>676</ele>
        <time>2019-05-24T11:47:53Z</time>
      </trkpt>
      <trkpt lat="44.24547" lon="5.6752">
        <ele>676</ele>
        <time>2019-05-24T11:47:54Z</time>
      </trkpt>
      <trkpt lat="44.24549" lon="5.67512">
        <ele>676</ele>
        <time>2019-05-24T11:47:55Z</time>
      </trkpt>
      <trkpt lat="44.24552" lon="5.67505">
        <ele>677</ele>
        <time>2019-05-24T11:47:57Z</time>
      </trkpt>
      <trkpt lat="44.24555" lon="5.67497">
        <ele>677</ele>
        <time>2019-05-24T11:47:57Z</time>
      </trkpt>
      <trkpt lat="44.24559" lon="5.6749">
        <ele>677</ele>
        <time>2019-05-24T11:47:58Z</time>
      </trkpt>
      <trkpt lat="44.24563" lon="5.67483">
        <ele>677</ele>
        <time>2019-05-24T11:47:59Z</time>
      </trkpt>
      <trkpt lat="44.24567" lon="5.67475">
        <ele>677</ele>
        <time>2019-05-24T11:48:00Z</time>
      </trkpt>
      <trkpt lat="44.24571" lon="5.67468">
        <ele>677</ele>
        <time>2019-05-24T11:48:01Z</time>
      </trkpt>
      <trkpt lat="44.24576" lon="5.67461">
        <ele>677</ele>
        <time>2019-05-24T11:48:02Z</time>
      </trkpt>
      <trkpt lat="44.2458" lon="5.67453">
        <ele>677</ele>
        <time>2019-05-24T11:48:03Z</time>
      </trkpt>
      <trkpt lat="44.24585" lon="5.67446">
        <ele>677</ele>
        <time>2019-05-24T11:48:04Z</time>
      </trkpt>
      <trkpt lat="44.24589" lon="5.67438">
        <ele>677</ele>
        <time>2019-05-24T11:48:05Z</time>
      </trkpt>
      <trkpt lat="44.24593" lon="5.6743">
        <ele>677</ele>
        <time>2019-05-24T11:48:06Z</time>
      </trkpt>
      <trkpt lat="44.24598" lon="5.67422">
        <ele>677</ele>
        <time>2019-05-24T11:48:07Z</time>
      </trkpt>
      <trkpt lat="44.24603" lon="5.67415">
        <ele>677</ele>
        <time>2019-05-24T11:48:08Z</time>
      </trkpt>
      <trkpt lat="44.24607" lon="5.67408">
        <ele>677</ele>
        <time>2019-05-24T11:48:09Z</time>
      </trkpt>
      <trkpt lat="44.24612" lon="5.67401">
        <ele>677</ele>
        <time>2019-05-24T11:48:10Z</time>
      </trkpt>
      <trkpt lat="44.24617" lon="5.67393">
        <ele>677</ele>
        <time>2019-05-24T11:48:11Z</time>
      </trkpt>
      <trkpt lat="44.24622" lon="5.67385">
        <ele>677</ele>
        <time>2019-05-24T11:48:12Z</time>
      </trkpt>
      <trkpt lat="44.24625" lon="5.67377">
        <ele>677</ele>
        <time>2019-05-24T11:48:13Z</time>
      </trkpt>
      <trkpt lat="44.24628" lon="5.67369">
        <ele>677</ele>
        <time>2019-05-24T11:48:14Z</time>
      </trkpt>
      <trkpt lat="44.24631" lon="5.6736">
        <ele>677</ele>
        <time>2019-05-24T11:48:15Z</time>
      </trkpt>
      <trkpt lat="44.24633" lon="5.67351">
        <ele>677</ele>
        <time>2019-05-24T11:48:16Z</time>
      </trkpt>
      <trkpt lat="44.24635" lon="5.67343">
        <ele>677</ele>
        <time>2019-05-24T11:48:17Z</time>
      </trkpt>
      <trkpt lat="44.24637" lon="5.67334">
        <ele>677</ele>
        <time>2019-05-24T11:48:18Z</time>
      </trkpt>
      <trkpt lat="44.24638" lon="5.67325">
        <ele>677</ele>
        <time>2019-05-24T11:48:19Z</time>
      </trkpt>
      <trkpt lat="44.2464" lon="5.67316">
        <ele>677</ele>
        <time>2019-05-24T11:48:20Z</time>
      </trkpt>
      <trkpt lat="44.24642" lon="5.67307">
        <ele>677</ele>
        <time>2019-05-24T11:48:21Z</time>
      </trkpt>
      <trkpt lat="44.24643" lon="5.67298">
        <ele>677</ele>
        <time>2019-05-24T11:48:22Z</time>
      </trkpt>
      <trkpt lat="44.24644" lon="5.67289">
        <ele>677</ele>
        <time>2019-05-24T11:48:23Z</time>
      </trkpt>
      <trkpt lat="44.24646" lon="5.67281">
        <ele>677</ele>
        <time>2019-05-24T11:48:24Z</time>
      </trkpt>
      <trkpt lat="44.24648" lon="5.67272">
        <ele>677</ele>
        <time>2019-05-24T11:48:25Z</time>
      </trkpt>
      <trkpt lat="44.2465" lon="5.67264">
        <ele>677</ele>
        <time>2019-05-24T11:48:26Z</time>
      </trkpt>
      <trkpt lat="44.24652" lon="5.67255">
        <ele>677</ele>
        <time>2019-05-24T11:48:27Z</time>
      </trkpt>
      <trkpt lat="44.24655" lon="5.67247">
        <ele>677</ele>
        <time>2019-05-24T11:48:28Z</time>
      </trkpt>
      <trkpt lat="44.24658" lon="5.67239">
        <ele>677</ele>
        <time>2019-05-24T11:48:29Z</time>
      </trkpt>
      <trkpt lat="44.24662" lon="5.67231">
        <ele>677</ele>
        <time>2019-05-24T11:48:30Z</time>
      </trkpt>
      <trkpt lat="44.24665" lon="5.67222">
        <ele>677</ele>
        <time>2019-05-24T11:48:31Z</time>
      </trkpt>
      <trkpt lat="44.24669" lon="5.67214">
        <ele>677</ele>
        <time>2019-05-24T11:48:32Z</time>
      </trkpt>
      <trkpt lat="44.24673" lon="5.67207">
        <ele>677</ele>
        <time>2019-05-24T11:48:33Z</time>
      </trkpt>
      <trkpt lat="44.24678" lon="5.67199">
        <ele>677</ele>
        <time>2019-05-24T11:48:34Z</time>
      </trkpt>
      <trkpt lat="44.24682" lon="5.67192">
        <ele>677</ele>
        <time>2019-05-24T11:48:35Z</time>
      </trkpt>
      <trkpt lat="44.24686" lon="5.67184">
        <ele>677</ele>
        <time>2019-05-24T11:48:36Z</time>
      </trkpt>
      <trkpt lat="44.24691" lon="5.67177">
        <ele>677</ele>
        <time>2019-05-24T11:48:37Z</time>
      </trkpt>
      <trkpt lat="44.24694" lon="5.67169">
        <ele>677</ele>
        <time>2019-05-24T11:48:38Z</time>
      </trkpt>
      <trkpt lat="44.24698" lon="5.67161">
        <ele>677</ele>
        <time>2019-05-24T11:48:39Z</time>
      </trkpt>
      <trkpt lat="44.24701" lon="5.67153">
        <ele>677</ele>
        <time>2019-05-24T11:48:40Z</time>
      </trkpt>
      <trkpt lat="44.24703" lon="5.67145">
        <ele>677</ele>
        <time>2019-05-24T11:48:41Z</time>
      </trkpt>
      <trkpt lat="44.24705" lon="5.67136">
        <ele>677</ele>
        <time>2019-05-24T11:48:42Z</time>
      </trkpt>
      <trkpt lat="44.24706" lon="5.67127">
        <ele>677</ele>
        <time>2019-05-24T11:48:43Z</time>
      </trkpt>
      <trkpt lat="44.24707" lon="5.67118">
        <ele>677</ele>
        <time>2019-05-24T11:48:44Z</time>
      </trkpt>
      <trkpt lat="44.24708" lon="5.67109">
        <ele>677</ele>
        <time>2019-05-24T11:48:45Z</time>
      </trkpt>
      <trkpt lat="44.24709" lon="5.671">
        <ele>677</ele>
        <time>2019-05-24T11:48:46Z</time>
      </trkpt>
      <trkpt lat="44.24709" lon="5.67091">
        <ele>677</ele>
        <time>2019-05-24T11:48:47Z</time>
      </trkpt>
      <trkpt lat="44.2471" lon="5.67081">
        <ele>677</ele>
        <time>2019-05-24T11:48:48Z</time>
      </trkpt>
      <trkpt lat="44.2471" lon="5.67072">
        <ele>677</ele>
        <time>2019-05-24T11:48:49Z</time>
      </trkpt>
      <trkpt lat="44.24711" lon="5.67063">
        <ele>677</ele>
        <time>2019-05-24T11:48:50Z</time>
      </trkpt>
      <trkpt lat="44.24712" lon="5.67054">
        <ele>677</ele>
        <time>2019-05-24T11:48:51Z</time>
      </trkpt>
      <trkpt lat="44.24713" lon="5.67044">
        <ele>677</ele>
        <time>2019-05-24T11:48:52Z</time>
      </trkpt>
      <trkpt lat="44.24715" lon="5.67035">
        <ele>677</ele>
        <time>2019-05-24T11:48:53Z</time>
      </trkpt>
      <trkpt lat="44.24716" lon="5.67026">
        <ele>677</ele>
        <time>2019-05-24T11:48:54Z</time>
      </trkpt>
      <trkpt lat="44.24718" lon="5.67017">
        <ele>677</ele>
        <time>2019-05-24T11:48:55Z</time>
      </trkpt>
      <trkpt lat="44.2472" lon="5.67008">
        <ele>677</ele>
        <time>2019-05-24T11:48:57Z</time>
      </trkpt>
      <trkpt lat="44.24722" lon="5.66999">
        <ele>677</ele>
        <time>2019-05-24T11:48:57Z</time>
      </trkpt>
      <trkpt lat="44.24725" lon="5.6699">
        <ele>677</ele>
        <time>2019-05-24T11:48:58Z</time>
      </trkpt>
      <trkpt lat="44.24728" lon="5.66982">
        <ele>677</ele>
        <time>2019-05-24T11:48:59Z</time>
      </trkpt>
      <trkpt lat="44.24731" lon="5.66973">
        <ele>677</ele>
        <time>2019-05-24T11:49:00Z</time>
      </trkpt>
      <trkpt lat="44.24734" lon="5.66965">
        <ele>677</ele>
        <time>2019-05-24T11:49:01Z</time>
      </trkpt>
      <trkpt lat="44.24737" lon="5.66957">
        <ele>677</ele>
        <time>2019-05-24T11:49:02Z</time>
      </trkpt>
      <trkpt lat="44.2474" lon="5.66949">
        <ele>677</ele>
        <time>2019-05-24T11:49:03Z</time>
      </trkpt>
      <trkpt lat="44.24743" lon="5.66941">
        <ele>677</ele>
        <time>2019-05-24T11:49:04Z</time>
      </trkpt>
      <trkpt lat="44.24746" lon="5.66934">
        <ele>677</ele>
        <time>2019-05-24T11:49:05Z</time>
      </trkpt>
      <trkpt lat="44.24749" lon="5.66926">
        <ele>677</ele>
        <time>2019-05-24T11:49:06Z</time>
      </trkpt>
      <trkpt lat="44.24752" lon="5.66918">
        <ele>677</ele>
        <time>2019-05-24T11:49:07Z</time>
      </trkpt>
      <trkpt lat="44.24754" lon="5.6691">
        <ele>678</ele>
        <time>2019-05-24T11:49:08Z</time>
      </trkpt>
      <trkpt lat="44.24758" lon="5.66903">
        <ele>679</ele>
        <time>2019-05-24T11:49:09Z</time>
      </trkpt>
      <trkpt lat="44.24762" lon="5.66895">
        <ele>680</ele>
        <time>2019-05-24T11:49:10Z</time>
      </trkpt>
      <trkpt lat="44.24765" lon="5.66888">
        <ele>680</ele>
        <time>2019-05-24T11:49:11Z</time>
      </trkpt>
      <trkpt lat="44.24768" lon="5.6688">
        <ele>681</ele>
        <time>2019-05-24T11:49:12Z</time>
      </trkpt>
      <trkpt lat="44.2477" lon="5.66872">
        <ele>681</ele>
        <time>2019-05-24T11:49:13Z</time>
      </trkpt>
      <trkpt lat="44.24773" lon="5.66864">
        <ele>681</ele>
        <time>2019-05-24T11:49:14Z</time>
      </trkpt>
      <trkpt lat="44.24776" lon="5.66856">
        <ele>681</ele>
        <time>2019-05-24T11:49:15Z</time>
      </trkpt>
      <trkpt lat="44.24779" lon="5.66848">
        <ele>681</ele>
        <time>2019-05-24T11:49:16Z</time>
      </trkpt>
      <trkpt lat="44.24781" lon="5.6684">
        <ele>682</ele>
        <time>2019-05-24T11:49:17Z</time>
      </trkpt>
      <trkpt lat="44.24784" lon="5.66833">
        <ele>682</ele>
        <time>2019-05-24T11:49:18Z</time>
      </trkpt>
      <trkpt lat="44.24786" lon="5.66825">
        <ele>682</ele>
        <time>2019-05-24T11:49:19Z</time>
      </trkpt>
      <trkpt lat="44.24788" lon="5.66817">
        <ele>682</ele>
        <time>2019-05-24T11:49:20Z</time>
      </trkpt>
      <trkpt lat="44.24789" lon="5.66809">
        <ele>682</ele>
        <time>2019-05-24T11:49:21Z</time>
      </trkpt>
      <trkpt lat="44.2479" lon="5.668">
        <ele>682</ele>
        <time>2019-05-24T11:49:22Z</time>
      </trkpt>
      <trkpt lat="44.24791" lon="5.66791">
        <ele>683</ele>
        <time>2019-05-24T11:49:23Z</time>
      </trkpt>
      <trkpt lat="44.24791" lon="5.66783">
        <ele>683</ele>
        <time>2019-05-24T11:49:24Z</time>
      </trkpt>
      <trkpt lat="44.24791" lon="5.66774">
        <ele>683</ele>
        <time>2019-05-24T11:49:25Z</time>
      </trkpt>
      <trkpt lat="44.2479" lon="5.66765">
        <ele>683</ele>
        <time>2019-05-24T11:49:26Z</time>
      </trkpt>
      <trkpt lat="44.24789" lon="5.66756">
        <ele>683</ele>
        <time>2019-05-24T11:49:27Z</time>
      </trkpt>
      <trkpt lat="44.24788" lon="5.66748">
        <ele>683</ele>
        <time>2019-05-24T11:49:28Z</time>
      </trkpt>
      <trkpt lat="44.24786" lon="5.6674">
        <ele>683</ele>
        <time>2019-05-24T11:49:29Z</time>
      </trkpt>
      <trkpt lat="44.24784" lon="5.66732">
        <ele>683</ele>
        <time>2019-05-24T11:49:30Z</time>
      </trkpt>
      <trkpt lat="44.24781" lon="5.66725">
        <ele>683</ele>
        <time>2019-05-24T11:49:31Z</time>
      </trkpt>
      <trkpt lat="44.24777" lon="5.66718">
        <ele>683</ele>
        <time>2019-05-24T11:49:32Z</time>
      </trkpt>
      <trkpt lat="44.24774" lon="5.66711">
        <ele>683</ele>
        <time>2019-05-24T11:49:33Z</time>
      </trkpt>
      <trkpt lat="44.2477" lon="5.66704">
        <ele>683</ele>
        <time>2019-05-24T11:49:34Z</time>
      </trkpt>
      <trkpt lat="44.24766" lon="5.66698">
        <ele>683</ele>
        <time>2019-05-24T11:49:35Z</time>
      </trkpt>
      <trkpt lat="44.24762" lon="5.66692">
        <ele>683</ele>
        <time>2019-05-24T11:49:36Z</time>
      </trkpt>
      <trkpt lat="44.24757" lon="5.66687">
        <ele>683</ele>
        <time>2019-05-24T11:49:37Z</time>
      </trkpt>
      <trkpt lat="44.24751" lon="5.66683">
        <ele>683</ele>
        <time>2019-05-24T11:49:38Z</time>
      </trkpt>
      <trkpt lat="44.24746" lon="5.66679">
        <ele>683</ele>
        <time>2019-05-24T11:49:39Z</time>
      </trkpt>
      <trkpt lat="44.2474" lon="5.66676">
        <ele>683</ele>
        <time>2019-05-24T11:49:40Z</time>
      </trkpt>
      <trkpt lat="44.24735" lon="5.66674">
        <ele>683</ele>
        <time>2019-05-24T11:49:41Z</time>
      </trkpt>
      <trkpt lat="44.2473" lon="5.66672">
        <ele>683</ele>
        <time>2019-05-24T11:49:42Z</time>
      </trkpt>
      <trkpt lat="44.24724" lon="5.6667">
        <ele>683</ele>
        <time>2019-05-24T11:49:43Z</time>
      </trkpt>
      <trkpt lat="44.24717" lon="5.66669">
        <ele>683</ele>
        <time>2019-05-24T11:49:44Z</time>
      </trkpt>
      <trkpt lat="44.24712" lon="5.66667">
        <ele>682</ele>
        <time>2019-05-24T11:49:45Z</time>
      </trkpt>
      <trkpt lat="44.24706" lon="5.66666">
        <ele>681</ele>
        <time>2019-05-24T11:49:46Z</time>
      </trkpt>
      <trkpt lat="44.24699" lon="5.66665">
        <ele>681</ele>
        <time>2019-05-24T11:49:47Z</time>
      </trkpt>
      <trkpt lat="44.24693" lon="5.66664">
        <ele>680</ele>
        <time>2019-05-24T11:49:48Z</time>
      </trkpt>
      <trkpt lat="44.24687" lon="5.66663">
        <ele>680</ele>
        <time>2019-05-24T11:49:49Z</time>
      </trkpt>
      <trkpt lat="44.24681" lon="5.66661">
        <ele>679</ele>
        <time>2019-05-24T11:49:50Z</time>
      </trkpt>
      <trkpt lat="44.24675" lon="5.6666">
        <ele>679</ele>
        <time>2019-05-24T11:49:51Z</time>
      </trkpt>
      <trkpt lat="44.24669" lon="5.66658">
        <ele>678</ele>
        <time>2019-05-24T11:49:52Z</time>
      </trkpt>
      <trkpt lat="44.24663" lon="5.66656">
        <ele>678</ele>
        <time>2019-05-24T11:49:53Z</time>
      </trkpt>
      <trkpt lat="44.24658" lon="5.66653">
        <ele>678</ele>
        <time>2019-05-24T11:49:54Z</time>
      </trkpt>
      <trkpt lat="44.24653" lon="5.66649">
        <ele>678</ele>
        <time>2019-05-24T11:49:55Z</time>
      </trkpt>
      <trkpt lat="44.24648" lon="5.66642">
        <ele>678</ele>
        <time>2019-05-24T11:49:57Z</time>
      </trkpt>
      <trkpt lat="44.24645" lon="5.66634">
        <ele>678</ele>
        <time>2019-05-24T11:49:57Z</time>
      </trkpt>
      <trkpt lat="44.24643" lon="5.66625">
        <ele>678</ele>
        <time>2019-05-24T11:49:58Z</time>
      </trkpt>
      <trkpt lat="44.24644" lon="5.66616">
        <ele>678</ele>
        <time>2019-05-24T11:49:59Z</time>
      </trkpt>
      <trkpt lat="44.24647" lon="5.66608">
        <ele>678</ele>
        <time>2019-05-24T11:50:00Z</time>
      </trkpt>
      <trkpt lat="44.24651" lon="5.66601">
        <ele>678</ele>
        <time>2019-05-24T11:50:01Z</time>
      </trkpt>
      <trkpt lat="44.24655" lon="5.66594">
        <ele>678</ele>
        <time>2019-05-24T11:50:02Z</time>
      </trkpt>
      <trkpt lat="44.24659" lon="5.66587">
        <ele>678</ele>
        <time>2019-05-24T11:50:03Z</time>
      </trkpt>
      <trkpt lat="44.24664" lon="5.6658">
        <ele>678</ele>
        <time>2019-05-24T11:50:04Z</time>
      </trkpt>
      <trkpt lat="44.24668" lon="5.66574">
        <ele>678</ele>
        <time>2019-05-24T11:50:05Z</time>
      </trkpt>
      <trkpt lat="44.24673" lon="5.66568">
        <ele>678</ele>
        <time>2019-05-24T11:50:06Z</time>
      </trkpt>
      <trkpt lat="44.24678" lon="5.66562">
        <ele>678</ele>
        <time>2019-05-24T11:50:07Z</time>
      </trkpt>
      <trkpt lat="44.24683" lon="5.66555">
        <ele>678</ele>
        <time>2019-05-24T11:50:08Z</time>
      </trkpt>
      <trkpt lat="44.24687" lon="5.66548">
        <ele>678</ele>
        <time>2019-05-24T11:50:09Z</time>
      </trkpt>
      <trkpt lat="44.24691" lon="5.66541">
        <ele>678</ele>
        <time>2019-05-24T11:50:10Z</time>
      </trkpt>
      <trkpt lat="44.24695" lon="5.66533">
        <ele>678</ele>
        <time>2019-05-24T11:50:11Z</time>
      </trkpt>
      <trkpt lat="44.24698" lon="5.66524">
        <ele>678</ele>
        <time>2019-05-24T11:50:12Z</time>
      </trkpt>
      <trkpt lat="44.24701" lon="5.66516">
        <ele>678</ele>
        <time>2019-05-24T11:50:13Z</time>
      </trkpt>
      <trkpt lat="44.24704" lon="5.66507">
        <ele>678</ele>
        <time>2019-05-24T11:50:14Z</time>
      </trkpt>
      <trkpt lat="44.24706" lon="5.66498">
        <ele>678</ele>
        <time>2019-05-24T11:50:15Z</time>
      </trkpt>
      <trkpt lat="44.24707" lon="5.66489">
        <ele>678</ele>
        <time>2019-05-24T11:50:16Z</time>
      </trkpt>
      <trkpt lat="44.24709" lon="5.66479">
        <ele>678</ele>
        <time>2019-05-24T11:50:17Z</time>
      </trkpt>
      <trkpt lat="44.24709" lon="5.6647">
        <ele>679</ele>
        <time>2019-05-24T11:50:18Z</time>
      </trkpt>
      <trkpt lat="44.2471" lon="5.66462">
        <ele>680</ele>
        <time>2019-05-24T11:50:19Z</time>
      </trkpt>
      <trkpt lat="44.2471" lon="5.66454">
        <ele>680</ele>
        <time>2019-05-24T11:50:20Z</time>
      </trkpt>
      <trkpt lat="44.2471" lon="5.66444">
        <ele>680</ele>
        <time>2019-05-24T11:50:21Z</time>
      </trkpt>
      <trkpt lat="44.24709" lon="5.66435">
        <ele>680</ele>
        <time>2019-05-24T11:50:22Z</time>
      </trkpt>
      <trkpt lat="44.24708" lon="5.66426">
        <ele>680</ele>
        <time>2019-05-24T11:50:23Z</time>
      </trkpt>
      <trkpt lat="44.24706" lon="5.66417">
        <ele>680</ele>
        <time>2019-05-24T11:50:24Z</time>
      </trkpt>
      <trkpt lat="44.24704" lon="5.66408">
        <ele>680</ele>
        <time>2019-05-24T11:50:25Z</time>
      </trkpt>
      <trkpt lat="44.247" lon="5.664">
        <ele>680</ele>
        <time>2019-05-24T11:50:26Z</time>
      </trkpt>
      <trkpt lat="44.24696" lon="5.66393">
        <ele>680</ele>
        <time>2019-05-24T11:50:27Z</time>
      </trkpt>
      <trkpt lat="44.24692" lon="5.66386">
        <ele>680</ele>
        <time>2019-05-24T11:50:28Z</time>
      </trkpt>
      <trkpt lat="44.24687" lon="5.6638">
        <ele>680</ele>
        <time>2019-05-24T11:50:29Z</time>
      </trkpt>
      <trkpt lat="44.2468" lon="5.66375">
        <ele>681</ele>
        <time>2019-05-24T11:50:30Z</time>
      </trkpt>
      <trkpt lat="44.24674" lon="5.6637">
        <ele>681</ele>
        <time>2019-05-24T11:50:31Z</time>
      </trkpt>
      <trkpt lat="44.24668" lon="5.66367">
        <ele>681</ele>
        <time>2019-05-24T11:50:32Z</time>
      </trkpt>
      <trkpt lat="44.24662" lon="5.66365">
        <ele>682</ele>
        <time>2019-05-24T11:50:33Z</time>
      </trkpt>
      <trkpt lat="44.24655" lon="5.66364">
        <ele>682</ele>
        <time>2019-05-24T11:50:34Z</time>
      </trkpt>
      <trkpt lat="44.24649" lon="5.66363">
        <ele>682</ele>
        <time>2019-05-24T11:50:35Z</time>
      </trkpt>
      <trkpt lat="44.24642" lon="5.66363">
        <ele>682</ele>
        <time>2019-05-24T11:50:36Z</time>
      </trkpt>
      <trkpt lat="44.24635" lon="5.66363">
        <ele>682</ele>
        <time>2019-05-24T11:50:37Z</time>
      </trkpt>
      <trkpt lat="44.24629" lon="5.66363">
        <ele>682</ele>
        <time>2019-05-24T11:50:38Z</time>
      </trkpt>
      <trkpt lat="44.24623" lon="5.66364">
        <ele>682</ele>
        <time>2019-05-24T11:50:39Z</time>
      </trkpt>
      <trkpt lat="44.24616" lon="5.66364">
        <ele>682</ele>
        <time>2019-05-24T11:50:40Z</time>
      </trkpt>
      <trkpt lat="44.2461" lon="5.66364">
        <ele>682</ele>
        <time>2019-05-24T11:50:41Z</time>
      </trkpt>
      <trkpt lat="44.24604" lon="5.66364">
        <ele>682</ele>
        <time>2019-05-24T11:50:42Z</time>
      </trkpt>
      <trkpt lat="44.24598" lon="5.66364">
        <ele>682</ele>
        <time>2019-05-24T11:50:43Z</time>
      </trkpt>
      <trkpt lat="44.24592" lon="5.66365">
        <ele>682</ele>
        <time>2019-05-24T11:50:44Z</time>
      </trkpt>
      <trkpt lat="44.24587" lon="5.66366">
        <ele>682</ele>
        <time>2019-05-24T11:50:45Z</time>
      </trkpt>
      <trkpt lat="44.24581" lon="5.66366">
        <ele>682</ele>
        <time>2019-05-24T11:50:46Z</time>
      </trkpt>
      <trkpt lat="44.24575" lon="5.66366">
        <ele>682</ele>
        <time>2019-05-24T11:50:47Z</time>
      </trkpt>
      <trkpt lat="44.24568" lon="5.66365">
        <ele>682</ele>
        <time>2019-05-24T11:50:48Z</time>
      </trkpt>
      <trkpt lat="44.24562" lon="5.66364">
        <ele>682</ele>
        <time>2019-05-24T11:50:49Z</time>
      </trkpt>
      <trkpt lat="44.24556" lon="5.66362">
        <ele>682</ele>
        <time>2019-05-24T11:50:50Z</time>
      </trkpt>
      <trkpt lat="44.2455" lon="5.6636">
        <ele>682</ele>
        <time>2019-05-24T11:50:51Z</time>
      </trkpt>
      <trkpt lat="44.24544" lon="5.66357">
        <ele>682</ele>
        <time>2019-05-24T11:50:52Z</time>
      </trkpt>
      <trkpt lat="44.24538" lon="5.66354">
        <ele>682</ele>
        <time>2019-05-24T11:50:53Z</time>
      </trkpt>
      <trkpt lat="44.24533" lon="5.66349">
        <ele>682</ele>
        <time>2019-05-24T11:50:54Z</time>
      </trkpt>
      <trkpt lat="44.24528" lon="5.66344">
        <ele>682</ele>
        <time>2019-05-24T11:50:55Z</time>
      </trkpt>
      <trkpt lat="44.24523" lon="5.66339">
        <ele>682</ele>
        <time>2019-05-24T11:50:57Z</time>
      </trkpt>
      <trkpt lat="44.24519" lon="5.66333">
        <ele>682</ele>
        <time>2019-05-24T11:50:57Z</time>
      </trkpt>
      <trkpt lat="44.24514" lon="5.66327">
        <ele>682</ele>
        <time>2019-05-24T11:50:58Z</time>
      </trkpt>
      <trkpt lat="44.24511" lon="5.6632">
        <ele>682</ele>
        <time>2019-05-24T11:50:59Z</time>
      </trkpt>
      <trkpt lat="44.24507" lon="5.66313">
        <ele>682</ele>
        <time>2019-05-24T11:51:00Z</time>
      </trkpt>
      <trkpt lat="44.24504" lon="5.66306">
        <ele>682</ele>
        <time>2019-05-24T11:51:01Z</time>
      </trkpt>
      <trkpt lat="44.245" lon="5.66299">
        <ele>682</ele>
        <time>2019-05-24T11:51:02Z</time>
      </trkpt>
      <trkpt lat="44.24497" lon="5.66292">
        <ele>682</ele>
        <time>2019-05-24T11:51:03Z</time>
      </trkpt>
      <trkpt lat="44.24493" lon="5.66285">
        <ele>682</ele>
        <time>2019-05-24T11:51:04Z</time>
      </trkpt>
      <trkpt lat="44.24489" lon="5.66278">
        <ele>682</ele>
        <time>2019-05-24T11:51:05Z</time>
      </trkpt>
      <trkpt lat="44.24485" lon="5.66271">
        <ele>682</ele>
        <time>2019-05-24T11:51:06Z</time>
      </trkpt>
      <trkpt lat="44.24481" lon="5.66264">
        <ele>682</ele>
        <time>2019-05-24T11:51:07Z</time>
      </trkpt>
      <trkpt lat="44.24477" lon="5.66257">
        <ele>682</ele>
        <time>2019-05-24T11:51:08Z</time>
      </trkpt>
      <trkpt lat="44.24473" lon="5.6625">
        <ele>682</ele>
        <time>2019-05-24T11:51:09Z</time>
      </trkpt>
      <trkpt lat="44.24469" lon="5.66244">
        <ele>682</ele>
        <time>2019-05-24T11:51:10Z</time>
      </trkpt>
      <trkpt lat="44.24464" lon="5.66238">
        <ele>682</ele>
        <time>2019-05-24T11:51:11Z</time>
      </trkpt>
      <trkpt lat="44.24459" lon="5.66231">
        <ele>682</ele>
        <time>2019-05-24T11:51:12Z</time>
      </trkpt>
      <trkpt lat="44.24455" lon="5.66223">
        <ele>682</ele>
        <time>2019-05-24T11:51:13Z</time>
      </trkpt>
      <trkpt lat="44.24451" lon="5.66216">
        <ele>682</ele>
        <time>2019-05-24T11:51:14Z</time>
      </trkpt>
      <trkpt lat="44.24448" lon="5.66209">
        <ele>682</ele>
        <time>2019-05-24T11:51:15Z</time>
      </trkpt>
      <trkpt lat="44.24445" lon="5.66201">
        <ele>682</ele>
        <time>2019-05-24T11:51:16Z</time>
      </trkpt>
      <trkpt lat="44.24441" lon="5.66194">
        <ele>682</ele>
        <time>2019-05-24T11:51:17Z</time>
      </trkpt>
      <trkpt lat="44.24437" lon="5.66186">
        <ele>682</ele>
        <time>2019-05-24T11:51:18Z</time>
      </trkpt>
      <trkpt lat="44.24433" lon="5.66179">
        <ele>682</ele>
        <time>2019-05-24T11:51:19Z</time>
      </trkpt>
      <trkpt lat="44.24428" lon="5.66171">
        <ele>682</ele>
        <time>2019-05-24T11:51:20Z</time>
      </trkpt>
      <trkpt lat="44.24426" lon="5.66162">
        <ele>682</ele>
        <time>2019-05-24T11:51:21Z</time>
      </trkpt>
      <trkpt lat="44.24424" lon="5.66153">
        <ele>682</ele>
        <time>2019-05-24T11:51:22Z</time>
      </trkpt>
      <trkpt lat="44.24422" lon="5.66145">
        <ele>682</ele>
        <time>2019-05-24T11:51:23Z</time>
      </trkpt>
      <trkpt lat="44.2442" lon="5.66136">
        <ele>682</ele>
        <time>2019-05-24T11:51:24Z</time>
      </trkpt>
      <trkpt lat="44.24419" lon="5.66127">
        <ele>682</ele>
        <time>2019-05-24T11:51:25Z</time>
      </trkpt>
      <trkpt lat="44.24418" lon="5.66118">
        <ele>682</ele>
        <time>2019-05-24T11:51:26Z</time>
      </trkpt>
      <trkpt lat="44.24419" lon="5.66108">
        <ele>682</ele>
        <time>2019-05-24T11:51:27Z</time>
      </trkpt>
      <trkpt lat="44.24416" lon="5.661">
        <ele>682</ele>
        <time>2019-05-24T11:51:28Z</time>
      </trkpt>
      <trkpt lat="44.24417" lon="5.66091">
        <ele>682</ele>
        <time>2019-05-24T11:51:29Z</time>
      </trkpt>
      <trkpt lat="44.24417" lon="5.66083">
        <ele>682</ele>
        <time>2019-05-24T11:51:30Z</time>
      </trkpt>
      <trkpt lat="44.24417" lon="5.66075">
        <ele>682</ele>
        <time>2019-05-24T11:51:31Z</time>
      </trkpt>
      <trkpt lat="44.24417" lon="5.66066">
        <ele>682</ele>
        <time>2019-05-24T11:51:32Z</time>
      </trkpt>
      <trkpt lat="44.24416" lon="5.66058">
        <ele>683</ele>
        <time>2019-05-24T11:51:33Z</time>
      </trkpt>
      <trkpt lat="44.24414" lon="5.6605">
        <ele>683</ele>
        <time>2019-05-24T11:51:34Z</time>
      </trkpt>
      <trkpt lat="44.24412" lon="5.66042">
        <ele>684</ele>
        <time>2019-05-24T11:51:35Z</time>
      </trkpt>
      <trkpt lat="44.2441" lon="5.66035">
        <ele>684</ele>
        <time>2019-05-24T11:51:36Z</time>
      </trkpt>
      <trkpt lat="44.24407" lon="5.66028">
        <ele>684</ele>
        <time>2019-05-24T11:51:37Z</time>
      </trkpt>
      <trkpt lat="44.24405" lon="5.66022">
        <ele>684</ele>
        <time>2019-05-24T11:51:38Z</time>
      </trkpt>
      <trkpt lat="44.24401" lon="5.66016">
        <ele>684</ele>
        <time>2019-05-24T11:51:39Z</time>
      </trkpt>
      <trkpt lat="44.24398" lon="5.6601">
        <ele>684</ele>
        <time>2019-05-24T11:51:40Z</time>
      </trkpt>
      <trkpt lat="44.24395" lon="5.66004">
        <ele>684</ele>
        <time>2019-05-24T11:51:41Z</time>
      </trkpt>
      <trkpt lat="44.24392" lon="5.65998">
        <ele>684</ele>
        <time>2019-05-24T11:51:42Z</time>
      </trkpt>
      <trkpt lat="44.24389" lon="5.65992">
        <ele>684</ele>
        <time>2019-05-24T11:51:43Z</time>
      </trkpt>
      <trkpt lat="44.24386" lon="5.65986">
        <ele>684</ele>
        <time>2019-05-24T11:51:44Z</time>
      </trkpt>
      <trkpt lat="44.24384" lon="5.6598">
        <ele>684</ele>
        <time>2019-05-24T11:51:45Z</time>
      </trkpt>
      <trkpt lat="44.24381" lon="5.65973">
        <ele>684</ele>
        <time>2019-05-24T11:51:46Z</time>
      </trkpt>
      <trkpt lat="44.24379" lon="5.65968">
        <ele>684</ele>
        <time>2019-05-24T11:51:47Z</time>
      </trkpt>
      <trkpt lat="44.24377" lon="5.65962">
        <ele>684</ele>
        <time>2019-05-24T11:51:48Z</time>
      </trkpt>
      <trkpt lat="44.24375" lon="5.65956">
        <ele>684</ele>
        <time>2019-05-24T11:51:49Z</time>
      </trkpt>
      <trkpt lat="44.24373" lon="5.6595">
        <ele>684</ele>
        <time>2019-05-24T11:51:50Z</time>
      </trkpt>
      <trkpt lat="44.24371" lon="5.65944">
        <ele>684</ele>
        <time>2019-05-24T11:51:51Z</time>
      </trkpt>
      <trkpt lat="44.24371" lon="5.65938">
        <ele>684</ele>
        <time>2019-05-24T11:51:52Z</time>
      </trkpt>
      <trkpt lat="44.24372" lon="5.65932">
        <ele>684</ele>
        <time>2019-05-24T11:51:53Z</time>
      </trkpt>
      <trkpt lat="44.24373" lon="5.65926">
        <ele>684</ele>
        <time>2019-05-24T11:51:54Z</time>
      </trkpt>
      <trkpt lat="44.24373" lon="5.65919">
        <ele>684</ele>
        <time>2019-05-24T11:51:55Z</time>
      </trkpt>
      <trkpt lat="44.24374" lon="5.65912">
        <ele>684</ele>
        <time>2019-05-24T11:51:57Z</time>
      </trkpt>
      <trkpt lat="44.24374" lon="5.65906">
        <ele>685</ele>
        <time>2019-05-24T11:51:57Z</time>
      </trkpt>
      <trkpt lat="44.24375" lon="5.659">
        <ele>685</ele>
        <time>2019-05-24T11:51:58Z</time>
      </trkpt>
      <trkpt lat="44.24376" lon="5.65894">
        <ele>686</ele>
        <time>2019-05-24T11:51:59Z</time>
      </trkpt>
      <trkpt lat="44.24378" lon="5.65888">
        <ele>686</ele>
        <time>2019-05-24T11:52:00Z</time>
      </trkpt>
      <trkpt lat="44.24381" lon="5.65882">
        <ele>687</ele>
        <time>2019-05-24T11:52:01Z</time>
      </trkpt>
      <trkpt lat="44.24383" lon="5.65877">
        <ele>688</ele>
        <time>2019-05-24T11:52:02Z</time>
      </trkpt>
      <trkpt lat="44.24386" lon="5.65872">
        <ele>688</ele>
        <time>2019-05-24T11:52:03Z</time>
      </trkpt>
      <trkpt lat="44.24389" lon="5.65868">
        <ele>688</ele>
        <time>2019-05-24T11:52:04Z</time>
      </trkpt>
      <trkpt lat="44.24392" lon="5.65863">
        <ele>688</ele>
        <time>2019-05-24T11:52:05Z</time>
      </trkpt>
      <trkpt lat="44.24395" lon="5.65859">
        <ele>688</ele>
        <time>2019-05-24T11:52:06Z</time>
      </trkpt>
      <trkpt lat="44.24399" lon="5.65854">
        <ele>689</ele>
        <time>2019-05-24T11:52:07Z</time>
      </trkpt>
      <trkpt lat="44.24403" lon="5.65851">
        <ele>689</ele>
        <time>2019-05-24T11:52:08Z</time>
      </trkpt>
      <trkpt lat="44.24407" lon="5.65847">
        <ele>689</ele>
        <time>2019-05-24T11:52:09Z</time>
      </trkpt>
      <trkpt lat="44.24411" lon="5.65844">
        <ele>689</ele>
        <time>2019-05-24T11:52:10Z</time>
      </trkpt>
      <trkpt lat="44.24415" lon="5.65841">
        <ele>689</ele>
        <time>2019-05-24T11:52:11Z</time>
      </trkpt>
      <trkpt lat="44.24419" lon="5.65836">
        <ele>689</ele>
        <time>2019-05-24T11:52:12Z</time>
      </trkpt>
      <trkpt lat="44.24424" lon="5.65833">
        <ele>689</ele>
        <time>2019-05-24T11:52:13Z</time>
      </trkpt>
      <trkpt lat="44.24428" lon="5.65829">
        <ele>689</ele>
        <time>2019-05-24T11:52:14Z</time>
      </trkpt>
      <trkpt lat="44.24432" lon="5.65825">
        <ele>689</ele>
        <time>2019-05-24T11:52:15Z</time>
      </trkpt>
      <trkpt lat="44.24436" lon="5.65821">
        <ele>689</ele>
        <time>2019-05-24T11:52:16Z</time>
      </trkpt>
      <trkpt lat="44.2444" lon="5.65816">
        <ele>689</ele>
        <time>2019-05-24T11:52:17Z</time>
      </trkpt>
      <trkpt lat="44.24443" lon="5.65812">
        <ele>689</ele>
        <time>2019-05-24T11:52:18Z</time>
      </trkpt>
      <trkpt lat="44.24447" lon="5.65806">
        <ele>690</ele>
        <time>2019-05-24T11:52:19Z</time>
      </trkpt>
      <trkpt lat="44.2445" lon="5.65801">
        <ele>690</ele>
        <time>2019-05-24T11:52:20Z</time>
      </trkpt>
      <trkpt lat="44.24454" lon="5.65797">
        <ele>690</ele>
        <time>2019-05-24T11:52:21Z</time>
      </trkpt>
      <trkpt lat="44.24458" lon="5.65792">
        <ele>690</ele>
        <time>2019-05-24T11:52:22Z</time>
      </trkpt>
      <trkpt lat="44.24461" lon="5.65788">
        <ele>691</ele>
        <time>2019-05-24T11:52:23Z</time>
      </trkpt>
      <trkpt lat="44.24464" lon="5.65783">
        <ele>691</ele>
        <time>2019-05-24T11:52:24Z</time>
      </trkpt>
      <trkpt lat="44.24468" lon="5.65777">
        <ele>691</ele>
        <time>2019-05-24T11:52:25Z</time>
      </trkpt>
      <trkpt lat="44.24472" lon="5.65772">
        <ele>691</ele>
        <time>2019-05-24T11:52:26Z</time>
      </trkpt>
      <trkpt lat="44.24476" lon="5.65768">
        <ele>691</ele>
        <time>2019-05-24T11:52:27Z</time>
      </trkpt>
      <trkpt lat="44.24479" lon="5.65763">
        <ele>691</ele>
        <time>2019-05-24T11:52:28Z</time>
      </trkpt>
      <trkpt lat="44.24482" lon="5.65757">
        <ele>691</ele>
        <time>2019-05-24T11:52:29Z</time>
      </trkpt>
      <trkpt lat="44.24485" lon="5.65751">
        <ele>691</ele>
        <time>2019-05-24T11:52:30Z</time>
      </trkpt>
      <trkpt lat="44.24487" lon="5.65745">
        <ele>691</ele>
        <time>2019-05-24T11:52:31Z</time>
      </trkpt>
      <trkpt lat="44.24489" lon="5.65737">
        <ele>692</ele>
        <time>2019-05-24T11:52:32Z</time>
      </trkpt>
      <trkpt lat="44.2449" lon="5.6573">
        <ele>692</ele>
        <time>2019-05-24T11:52:33Z</time>
      </trkpt>
      <trkpt lat="44.24491" lon="5.65723">
        <ele>692</ele>
        <time>2019-05-24T11:52:34Z</time>
      </trkpt>
      <trkpt lat="44.2449" lon="5.65716">
        <ele>692</ele>
        <time>2019-05-24T11:52:35Z</time>
      </trkpt>
      <trkpt lat="44.2449" lon="5.65708">
        <ele>692</ele>
        <time>2019-05-24T11:52:36Z</time>
      </trkpt>
      <trkpt lat="44.24488" lon="5.657">
        <ele>692</ele>
        <time>2019-05-24T11:52:37Z</time>
      </trkpt>
      <trkpt lat="44.24487" lon="5.65693">
        <ele>692</ele>
        <time>2019-05-24T11:52:38Z</time>
      </trkpt>
      <trkpt lat="44.24485" lon="5.65685">
        <ele>692</ele>
        <time>2019-05-24T11:52:39Z</time>
      </trkpt>
      <trkpt lat="44.24484" lon="5.65678">
        <ele>692</ele>
        <time>2019-05-24T11:52:40Z</time>
      </trkpt>
      <trkpt lat="44.24483" lon="5.65671">
        <ele>692</ele>
        <time>2019-05-24T11:52:41Z</time>
      </trkpt>
      <trkpt lat="44.24481" lon="5.65664">
        <ele>692</ele>
        <time>2019-05-24T11:52:42Z</time>
      </trkpt>
      <trkpt lat="44.2448" lon="5.65658">
        <ele>692</ele>
        <time>2019-05-24T11:52:43Z</time>
      </trkpt>
      <trkpt lat="44.24478" lon="5.6565">
        <ele>692</ele>
        <time>2019-05-24T11:52:44Z</time>
      </trkpt>
      <trkpt lat="44.24476" lon="5.65643">
        <ele>692</ele>
        <time>2019-05-24T11:52:45Z</time>
      </trkpt>
      <trkpt lat="44.24474" lon="5.65636">
        <ele>692</ele>
        <time>2019-05-24T11:52:46Z</time>
      </trkpt>
      <trkpt lat="44.24472" lon="5.65629">
        <ele>692</ele>
        <time>2019-05-24T11:52:47Z</time>
      </trkpt>
      <trkpt lat="44.2447" lon="5.65622">
        <ele>692</ele>
        <time>2019-05-24T11:52:48Z</time>
      </trkpt>
      <trkpt lat="44.24468" lon="5.65615">
        <ele>692</ele>
        <time>2019-05-24T11:52:49Z</time>
      </trkpt>
      <trkpt lat="44.24465" lon="5.65608">
        <ele>692</ele>
        <time>2019-05-24T11:52:50Z</time>
      </trkpt>
      <trkpt lat="44.24463" lon="5.65601">
        <ele>692</ele>
        <time>2019-05-24T11:52:51Z</time>
      </trkpt>
      <trkpt lat="44.24461" lon="5.65595">
        <ele>692</ele>
        <time>2019-05-24T11:52:52Z</time>
      </trkpt>
      <trkpt lat="44.24458" lon="5.65589">
        <ele>692</ele>
        <time>2019-05-24T11:52:53Z</time>
      </trkpt>
      <trkpt lat="44.24455" lon="5.65582">
        <ele>692</ele>
        <time>2019-05-24T11:52:54Z</time>
      </trkpt>
      <trkpt lat="44.24451" lon="5.65576">
        <ele>692</ele>
        <time>2019-05-24T11:52:55Z</time>
      </trkpt>
      <trkpt lat="44.24448" lon="5.6557">
        <ele>692</ele>
        <time>2019-05-24T11:52:57Z</time>
      </trkpt>
      <trkpt lat="44.24445" lon="5.65563">
        <ele>692</ele>
        <time>2019-05-24T11:52:57Z</time>
      </trkpt>
      <trkpt lat="44.24443" lon="5.65556">
        <ele>692</ele>
        <time>2019-05-24T11:52:58Z</time>
      </trkpt>
      <trkpt lat="44.24439" lon="5.6555">
        <ele>692</ele>
        <time>2019-05-24T11:52:59Z</time>
      </trkpt>
      <trkpt lat="44.24436" lon="5.65543">
        <ele>692</ele>
        <time>2019-05-24T11:53:00Z</time>
      </trkpt>
      <trkpt lat="44.24434" lon="5.65536">
        <ele>692</ele>
        <time>2019-05-24T11:53:01Z</time>
      </trkpt>
      <trkpt lat="44.24431" lon="5.6553">
        <ele>692</ele>
        <time>2019-05-24T11:53:02Z</time>
      </trkpt>
      <trkpt lat="44.24427" lon="5.65524">
        <ele>692</ele>
        <time>2019-05-24T11:53:03Z</time>
      </trkpt>
      <trkpt lat="44.24423" lon="5.65518">
        <ele>692</ele>
        <time>2019-05-24T11:53:04Z</time>
      </trkpt>
      <trkpt lat="44.24419" lon="5.65512">
        <ele>692</ele>
        <time>2019-05-24T11:53:05Z</time>
      </trkpt>
      <trkpt lat="44.24415" lon="5.65505">
        <ele>692</ele>
        <time>2019-05-24T11:53:06Z</time>
      </trkpt>
      <trkpt lat="44.24412" lon="5.65499">
        <ele>692</ele>
        <time>2019-05-24T11:53:07Z</time>
      </trkpt>
      <trkpt lat="44.24409" lon="5.65493">
        <ele>692</ele>
        <time>2019-05-24T11:53:08Z</time>
      </trkpt>
      <trkpt lat="44.24406" lon="5.65486">
        <ele>692</ele>
        <time>2019-05-24T11:53:09Z</time>
      </trkpt>
      <trkpt lat="44.24402" lon="5.6548">
        <ele>692</ele>
        <time>2019-05-24T11:53:10Z</time>
      </trkpt>
      <trkpt lat="44.24398" lon="5.65474">
        <ele>692</ele>
        <time>2019-05-24T11:53:11Z</time>
      </trkpt>
      <trkpt lat="44.24395" lon="5.65468">
        <ele>693</ele>
        <time>2019-05-24T11:53:12Z</time>
      </trkpt>
      <trkpt lat="44.24392" lon="5.65461">
        <ele>693</ele>
        <time>2019-05-24T11:53:13Z</time>
      </trkpt>
      <trkpt lat="44.24389" lon="5.65456">
        <ele>694</ele>
        <time>2019-05-24T11:53:14Z</time>
      </trkpt>
      <trkpt lat="44.24386" lon="5.6545">
        <ele>694</ele>
        <time>2019-05-24T11:53:15Z</time>
      </trkpt>
      <trkpt lat="44.24384" lon="5.65444">
        <ele>694</ele>
        <time>2019-05-24T11:53:16Z</time>
      </trkpt>
      <trkpt lat="44.2438" lon="5.65438">
        <ele>694</ele>
        <time>2019-05-24T11:53:17Z</time>
      </trkpt>
      <trkpt lat="44.24377" lon="5.65432">
        <ele>694</ele>
        <time>2019-05-24T11:53:18Z</time>
      </trkpt>
      <trkpt lat="44.24374" lon="5.65425">
        <ele>694</ele>
        <time>2019-05-24T11:53:19Z</time>
      </trkpt>
      <trkpt lat="44.24371" lon="5.65418">
        <ele>694</ele>
        <time>2019-05-24T11:53:20Z</time>
      </trkpt>
      <trkpt lat="44.24368" lon="5.65412">
        <ele>694</ele>
        <time>2019-05-24T11:53:21Z</time>
      </trkpt>
      <trkpt lat="44.24365" lon="5.65405">
        <ele>694</ele>
        <time>2019-05-24T11:53:22Z</time>
      </trkpt>
      <trkpt lat="44.24361" lon="5.65398">
        <ele>694</ele>
        <time>2019-05-24T11:53:23Z</time>
      </trkpt>
      <trkpt lat="44.24358" lon="5.65391">
        <ele>694</ele>
        <time>2019-05-24T11:53:24Z</time>
      </trkpt>
      <trkpt lat="44.24355" lon="5.65385">
        <ele>694</ele>
        <time>2019-05-24T11:53:25Z</time>
      </trkpt>
      <trkpt lat="44.24352" lon="5.65379">
        <ele>694</ele>
        <time>2019-05-24T11:53:26Z</time>
      </trkpt>
      <trkpt lat="44.24349" lon="5.65373">
        <ele>694</ele>
        <time>2019-05-24T11:53:27Z</time>
      </trkpt>
      <trkpt lat="44.24346" lon="5.65366">
        <ele>694</ele>
        <time>2019-05-24T11:53:28Z</time>
      </trkpt>
      <trkpt lat="44.24343" lon="5.6536">
        <ele>694</ele>
        <time>2019-05-24T11:53:29Z</time>
      </trkpt>
      <trkpt lat="44.2434" lon="5.65353">
        <ele>694</ele>
        <time>2019-05-24T11:53:30Z</time>
      </trkpt>
      <trkpt lat="44.24337" lon="5.65346">
        <ele>694</ele>
        <time>2019-05-24T11:53:31Z</time>
      </trkpt>
      <trkpt lat="44.24336" lon="5.65339">
        <ele>694</ele>
        <time>2019-05-24T11:53:32Z</time>
      </trkpt>
      <trkpt lat="44.24334" lon="5.65332">
        <ele>694</ele>
        <time>2019-05-24T11:53:33Z</time>
      </trkpt>
      <trkpt lat="44.24333" lon="5.65325">
        <ele>694</ele>
        <time>2019-05-24T11:53:34Z</time>
      </trkpt>
      <trkpt lat="44.24332" lon="5.65317">
        <ele>694</ele>
        <time>2019-05-24T11:53:35Z</time>
      </trkpt>
      <trkpt lat="44.24331" lon="5.65309">
        <ele>694</ele>
        <time>2019-05-24T11:53:36Z</time>
      </trkpt>
      <trkpt lat="44.24331" lon="5.65302">
        <ele>694</ele>
        <time>2019-05-24T11:53:37Z</time>
      </trkpt>
      <trkpt lat="44.24331" lon="5.65295">
        <ele>694</ele>
        <time>2019-05-24T11:53:38Z</time>
      </trkpt>
      <trkpt lat="44.24332" lon="5.65288">
        <ele>694</ele>
        <time>2019-05-24T11:53:39Z</time>
      </trkpt>
      <trkpt lat="44.24332" lon="5.6528">
        <ele>694</ele>
        <time>2019-05-24T11:53:40Z</time>
      </trkpt>
      <trkpt lat="44.24333" lon="5.65273">
        <ele>694</ele>
        <time>2019-05-24T11:53:41Z</time>
      </trkpt>
      <trkpt lat="44.24334" lon="5.65266">
        <ele>694</ele>
        <time>2019-05-24T11:53:42Z</time>
      </trkpt>
      <trkpt lat="44.24333" lon="5.65258">
        <ele>695</ele>
        <time>2019-05-24T11:53:43Z</time>
      </trkpt>
      <trkpt lat="44.24334" lon="5.65251">
        <ele>695</ele>
        <time>2019-05-24T11:53:44Z</time>
      </trkpt>
      <trkpt lat="44.24335" lon="5.65243">
        <ele>696</ele>
        <time>2019-05-24T11:53:45Z</time>
      </trkpt>
      <trkpt lat="44.24337" lon="5.65236">
        <ele>697</ele>
        <time>2019-05-24T11:53:46Z</time>
      </trkpt>
      <trkpt lat="44.24339" lon="5.65228">
        <ele>698</ele>
        <time>2019-05-24T11:53:47Z</time>
      </trkpt>
      <trkpt lat="44.2434" lon="5.6522">
        <ele>699</ele>
        <time>2019-05-24T11:53:48Z</time>
      </trkpt>
      <trkpt lat="44.24342" lon="5.65213">
        <ele>699</ele>
        <time>2019-05-24T11:53:49Z</time>
      </trkpt>
      <trkpt lat="44.24343" lon="5.65205">
        <ele>700</ele>
        <time>2019-05-24T11:53:50Z</time>
      </trkpt>
      <trkpt lat="44.24345" lon="5.65197">
        <ele>700</ele>
        <time>2019-05-24T11:53:51Z</time>
      </trkpt>
      <trkpt lat="44.24346" lon="5.6519">
        <ele>700</ele>
        <time>2019-05-24T11:53:52Z</time>
      </trkpt>
      <trkpt lat="44.24347" lon="5.65182">
        <ele>701</ele>
        <time>2019-05-24T11:53:53Z</time>
      </trkpt>
      <trkpt lat="44.24348" lon="5.65175">
        <ele>701</ele>
        <time>2019-05-24T11:53:54Z</time>
      </trkpt>
      <trkpt lat="44.24349" lon="5.65168">
        <ele>701</ele>
        <time>2019-05-24T11:53:55Z</time>
      </trkpt>
      <trkpt lat="44.2435" lon="5.6516">
        <ele>701</ele>
        <time>2019-05-24T11:53:57Z</time>
      </trkpt>
      <trkpt lat="44.24351" lon="5.65152">
        <ele>702</ele>
        <time>2019-05-24T11:53:57Z</time>
      </trkpt>
      <trkpt lat="44.24351" lon="5.65143">
        <ele>702</ele>
        <time>2019-05-24T11:53:58Z</time>
      </trkpt>
      <trkpt lat="44.24352" lon="5.65135">
        <ele>702</ele>
        <time>2019-05-24T11:53:59Z</time>
      </trkpt>
      <trkpt lat="44.24352" lon="5.65126">
        <ele>702</ele>
        <time>2019-05-24T11:54:00Z</time>
      </trkpt>
      <trkpt lat="44.24352" lon="5.65118">
        <ele>702</ele>
        <time>2019-05-24T11:54:01Z</time>
      </trkpt>
      <trkpt lat="44.24353" lon="5.65109">
        <ele>702</ele>
        <time>2019-05-24T11:54:02Z</time>
      </trkpt>
      <trkpt lat="44.24353" lon="5.65101">
        <ele>702</ele>
        <time>2019-05-24T11:54:03Z</time>
      </trkpt>
      <trkpt lat="44.24353" lon="5.65093">
        <ele>702</ele>
        <time>2019-05-24T11:54:04Z</time>
      </trkpt>
      <trkpt lat="44.24353" lon="5.65085">
        <ele>702</ele>
        <time>2019-05-24T11:54:05Z</time>
      </trkpt>
      <trkpt lat="44.24353" lon="5.65076">
        <ele>702</ele>
        <time>2019-05-24T11:54:06Z</time>
      </trkpt>
      <trkpt lat="44.24353" lon="5.65068">
        <ele>702</ele>
        <time>2019-05-24T11:54:07Z</time>
      </trkpt>
      <trkpt lat="44.24353" lon="5.65059">
        <ele>702</ele>
        <time>2019-05-24T11:54:08Z</time>
      </trkpt>
      <trkpt lat="44.24352" lon="5.65051">
        <ele>702</ele>
        <time>2019-05-24T11:54:09Z</time>
      </trkpt>
      <trkpt lat="44.2435" lon="5.65042">
        <ele>702</ele>
        <time>2019-05-24T11:54:10Z</time>
      </trkpt>
      <trkpt lat="44.24349" lon="5.65034">
        <ele>702</ele>
        <time>2019-05-24T11:54:11Z</time>
      </trkpt>
      <trkpt lat="44.24347" lon="5.65025">
        <ele>702</ele>
        <time>2019-05-24T11:54:12Z</time>
      </trkpt>
      <trkpt lat="44.24345" lon="5.65017">
        <ele>702</ele>
        <time>2019-05-24T11:54:13Z</time>
      </trkpt>
      <trkpt lat="44.24343" lon="5.65008">
        <ele>702</ele>
        <time>2019-05-24T11:54:14Z</time>
      </trkpt>
      <trkpt lat="44.24341" lon="5.65">
        <ele>702</ele>
        <time>2019-05-24T11:54:15Z</time>
      </trkpt>
      <trkpt lat="44.24339" lon="5.64992">
        <ele>702</ele>
        <time>2019-05-24T11:54:16Z</time>
      </trkpt>
      <trkpt lat="44.24337" lon="5.64984">
        <ele>702</ele>
        <time>2019-05-24T11:54:17Z</time>
      </trkpt>
      <trkpt lat="44.24335" lon="5.64976">
        <ele>702</ele>
        <time>2019-05-24T11:54:18Z</time>
      </trkpt>
      <trkpt lat="44.24334" lon="5.64968">
        <ele>702</ele>
        <time>2019-05-24T11:54:19Z</time>
      </trkpt>
      <trkpt lat="44.24331" lon="5.6496">
        <ele>702</ele>
        <time>2019-05-24T11:54:20Z</time>
      </trkpt>
      <trkpt lat="44.24329" lon="5.64953">
        <ele>702</ele>
        <time>2019-05-24T11:54:21Z</time>
      </trkpt>
      <trkpt lat="44.24326" lon="5.64945">
        <ele>702</ele>
        <time>2019-05-24T11:54:22Z</time>
      </trkpt>
      <trkpt lat="44.24324" lon="5.64937">
        <ele>702</ele>
        <time>2019-05-24T11:54:23Z</time>
      </trkpt>
      <trkpt lat="44.24322" lon="5.6493">
        <ele>701</ele>
        <time>2019-05-24T11:54:24Z</time>
      </trkpt>
      <trkpt lat="44.24319" lon="5.64922">
        <ele>701</ele>
        <time>2019-05-24T11:54:25Z</time>
      </trkpt>
      <trkpt lat="44.24317" lon="5.64915">
        <ele>700</ele>
        <time>2019-05-24T11:54:26Z</time>
      </trkpt>
      <trkpt lat="44.24314" lon="5.64907">
        <ele>700</ele>
        <time>2019-05-24T11:54:27Z</time>
      </trkpt>
      <trkpt lat="44.24312" lon="5.64899">
        <ele>699</ele>
        <time>2019-05-24T11:54:28Z</time>
      </trkpt>
      <trkpt lat="44.24309" lon="5.64891">
        <ele>699</ele>
        <time>2019-05-24T11:54:29Z</time>
      </trkpt>
      <trkpt lat="44.24306" lon="5.64883">
        <ele>699</ele>
        <time>2019-05-24T11:54:30Z</time>
      </trkpt>
      <trkpt lat="44.24303" lon="5.64876">
        <ele>699</ele>
        <time>2019-05-24T11:54:31Z</time>
      </trkpt>
      <trkpt lat="44.243" lon="5.64868">
        <ele>698</ele>
        <time>2019-05-24T11:54:32Z</time>
      </trkpt>
      <trkpt lat="44.24297" lon="5.6486">
        <ele>698</ele>
        <time>2019-05-24T11:54:33Z</time>
      </trkpt>
      <trkpt lat="44.24293" lon="5.64852">
        <ele>698</ele>
        <time>2019-05-24T11:54:34Z</time>
      </trkpt>
      <trkpt lat="44.24289" lon="5.64845">
        <ele>697</ele>
        <time>2019-05-24T11:54:35Z</time>
      </trkpt>
      <trkpt lat="44.24286" lon="5.64838">
        <ele>697</ele>
        <time>2019-05-24T11:54:36Z</time>
      </trkpt>
      <trkpt lat="44.24281" lon="5.64832">
        <ele>696</ele>
        <time>2019-05-24T11:54:37Z</time>
      </trkpt>
      <trkpt lat="44.24277" lon="5.64825">
        <ele>696</ele>
        <time>2019-05-24T11:54:38Z</time>
      </trkpt>
      <trkpt lat="44.24273" lon="5.64818">
        <ele>696</ele>
        <time>2019-05-24T11:54:39Z</time>
      </trkpt>
      <trkpt lat="44.2427" lon="5.64811">
        <ele>696</ele>
        <time>2019-05-24T11:54:40Z</time>
      </trkpt>
      <trkpt lat="44.24266" lon="5.64803">
        <ele>695</ele>
        <time>2019-05-24T11:54:41Z</time>
      </trkpt>
      <trkpt lat="44.24264" lon="5.64796">
        <ele>695</ele>
        <time>2019-05-24T11:54:42Z</time>
      </trkpt>
      <trkpt lat="44.24261" lon="5.64788">
        <ele>695</ele>
        <time>2019-05-24T11:54:43Z</time>
      </trkpt>
      <trkpt lat="44.2426" lon="5.6478">
        <ele>695</ele>
        <time>2019-05-24T11:54:44Z</time>
      </trkpt>
      <trkpt lat="44.24258" lon="5.64773">
        <ele>695</ele>
        <time>2019-05-24T11:54:45Z</time>
      </trkpt>
      <trkpt lat="44.24257" lon="5.64765">
        <ele>695</ele>
        <time>2019-05-24T11:54:46Z</time>
      </trkpt>
      <trkpt lat="44.24256" lon="5.64757">
        <ele>695</ele>
        <time>2019-05-24T11:54:47Z</time>
      </trkpt>
      <trkpt lat="44.24255" lon="5.6475">
        <ele>695</ele>
        <time>2019-05-24T11:54:48Z</time>
      </trkpt>
      <trkpt lat="44.24255" lon="5.64742">
        <ele>695</ele>
        <time>2019-05-24T11:54:49Z</time>
      </trkpt>
      <trkpt lat="44.24253" lon="5.64735">
        <ele>695</ele>
        <time>2019-05-24T11:54:50Z</time>
      </trkpt>
      <trkpt lat="44.24253" lon="5.64728">
        <ele>695</ele>
        <time>2019-05-24T11:54:51Z</time>
      </trkpt>
      <trkpt lat="44.24253" lon="5.64721">
        <ele>695</ele>
        <time>2019-05-24T11:54:52Z</time>
      </trkpt>
      <trkpt lat="44.24252" lon="5.64713">
        <ele>695</ele>
        <time>2019-05-24T11:54:53Z</time>
      </trkpt>
      <trkpt lat="44.24251" lon="5.64706">
        <ele>695</ele>
        <time>2019-05-24T11:54:54Z</time>
      </trkpt>
      <trkpt lat="44.2425" lon="5.64698">
        <ele>696</ele>
        <time>2019-05-24T11:54:55Z</time>
      </trkpt>
      <trkpt lat="44.24248" lon="5.6469">
        <ele>696</ele>
        <time>2019-05-24T11:54:57Z</time>
      </trkpt>
      <trkpt lat="44.24246" lon="5.64683">
        <ele>696</ele>
        <time>2019-05-24T11:54:57Z</time>
      </trkpt>
      <trkpt lat="44.24244" lon="5.64675">
        <ele>697</ele>
        <time>2019-05-24T11:54:58Z</time>
      </trkpt>
      <trkpt lat="44.24241" lon="5.64667">
        <ele>697</ele>
        <time>2019-05-24T11:54:59Z</time>
      </trkpt>
      <trkpt lat="44.24238" lon="5.64659">
        <ele>697</ele>
        <time>2019-05-24T11:55:00Z</time>
      </trkpt>
      <trkpt lat="44.24235" lon="5.64651">
        <ele>697</ele>
        <time>2019-05-24T11:55:01Z</time>
      </trkpt>
      <trkpt lat="44.24232" lon="5.64643">
        <ele>697</ele>
        <time>2019-05-24T11:55:02Z</time>
      </trkpt>
      <trkpt lat="44.24229" lon="5.64635">
        <ele>697</ele>
        <time>2019-05-24T11:55:03Z</time>
      </trkpt>
      <trkpt lat="44.24226" lon="5.64628">
        <ele>697</ele>
        <time>2019-05-24T11:55:04Z</time>
      </trkpt>
      <trkpt lat="44.24223" lon="5.64619">
        <ele>697</ele>
        <time>2019-05-24T11:55:05Z</time>
      </trkpt>
      <trkpt lat="44.2422" lon="5.64611">
        <ele>697</ele>
        <time>2019-05-24T11:55:06Z</time>
      </trkpt>
      <trkpt lat="44.24218" lon="5.64603">
        <ele>697</ele>
        <time>2019-05-24T11:55:07Z</time>
      </trkpt>
      <trkpt lat="44.24214" lon="5.64595">
        <ele>697</ele>
        <time>2019-05-24T11:55:08Z</time>
      </trkpt>
      <trkpt lat="44.24211" lon="5.64588">
        <ele>697</ele>
        <time>2019-05-24T11:55:09Z</time>
      </trkpt>
      <trkpt lat="44.24208" lon="5.6458">
        <ele>697</ele>
        <time>2019-05-24T11:55:10Z</time>
      </trkpt>
      <trkpt lat="44.24204" lon="5.64573">
        <ele>697</ele>
        <time>2019-05-24T11:55:11Z</time>
      </trkpt>
      <trkpt lat="44.242" lon="5.64567">
        <ele>697</ele>
        <time>2019-05-24T11:55:12Z</time>
      </trkpt>
      <trkpt lat="44.24195" lon="5.6456">
        <ele>697</ele>
        <time>2019-05-24T11:55:13Z</time>
      </trkpt>
      <trkpt lat="44.24191" lon="5.64553">
        <ele>697</ele>
        <time>2019-05-24T11:55:14Z</time>
      </trkpt>
      <trkpt lat="44.24186" lon="5.64547">
        <ele>697</ele>
        <time>2019-05-24T11:55:15Z</time>
      </trkpt>
      <trkpt lat="44.24182" lon="5.64541">
        <ele>697</ele>
        <time>2019-05-24T11:55:16Z</time>
      </trkpt>
      <trkpt lat="44.24177" lon="5.64535">
        <ele>697</ele>
        <time>2019-05-24T11:55:17Z</time>
      </trkpt>
      <trkpt lat="44.24171" lon="5.64529">
        <ele>697</ele>
        <time>2019-05-24T11:55:18Z</time>
      </trkpt>
      <trkpt lat="44.24166" lon="5.64522">
        <ele>697</ele>
        <time>2019-05-24T11:55:19Z</time>
      </trkpt>
      <trkpt lat="44.24162" lon="5.64516">
        <ele>697</ele>
        <time>2019-05-24T11:55:20Z</time>
      </trkpt>
      <trkpt lat="44.24156" lon="5.64509">
        <ele>698</ele>
        <time>2019-05-24T11:55:21Z</time>
      </trkpt>
      <trkpt lat="44.24152" lon="5.64503">
        <ele>698</ele>
        <time>2019-05-24T11:55:22Z</time>
      </trkpt>
      <trkpt lat="44.24147" lon="5.64496">
        <ele>698</ele>
        <time>2019-05-24T11:55:23Z</time>
      </trkpt>
      <trkpt lat="44.24143" lon="5.64489">
        <ele>698</ele>
        <time>2019-05-24T11:55:24Z</time>
      </trkpt>
      <trkpt lat="44.24139" lon="5.64481">
        <ele>698</ele>
        <time>2019-05-24T11:55:25Z</time>
      </trkpt>
      <trkpt lat="44.24134" lon="5.64476">
        <ele>698</ele>
        <time>2019-05-24T11:55:26Z</time>
      </trkpt>
      <trkpt lat="44.24128" lon="5.6447">
        <ele>698</ele>
        <time>2019-05-24T11:55:27Z</time>
      </trkpt>
      <trkpt lat="44.24123" lon="5.64466">
        <ele>698</ele>
        <time>2019-05-24T11:55:28Z</time>
      </trkpt>
      <trkpt lat="44.24117" lon="5.64461">
        <ele>698</ele>
        <time>2019-05-24T11:55:29Z</time>
      </trkpt>
      <trkpt lat="44.24112" lon="5.64456">
        <ele>698</ele>
        <time>2019-05-24T11:55:30Z</time>
      </trkpt>
      <trkpt lat="44.24106" lon="5.6445">
        <ele>698</ele>
        <time>2019-05-24T11:55:31Z</time>
      </trkpt>
      <trkpt lat="44.241" lon="5.64445">
        <ele>698</ele>
        <time>2019-05-24T11:55:32Z</time>
      </trkpt>
      <trkpt lat="44.24095" lon="5.64439">
        <ele>698</ele>
        <time>2019-05-24T11:55:33Z</time>
      </trkpt>
      <trkpt lat="44.2409" lon="5.64432">
        <ele>698</ele>
        <time>2019-05-24T11:55:34Z</time>
      </trkpt>
      <trkpt lat="44.24085" lon="5.64426">
        <ele>698</ele>
        <time>2019-05-24T11:55:35Z</time>
      </trkpt>
      <trkpt lat="44.2408" lon="5.6442">
        <ele>699</ele>
        <time>2019-05-24T11:55:36Z</time>
      </trkpt>
      <trkpt lat="44.24075" lon="5.64413">
        <ele>699</ele>
        <time>2019-05-24T11:55:37Z</time>
      </trkpt>
      <trkpt lat="44.24071" lon="5.64406">
        <ele>699</ele>
        <time>2019-05-24T11:55:38Z</time>
      </trkpt>
      <trkpt lat="44.24066" lon="5.64399">
        <ele>700</ele>
        <time>2019-05-24T11:55:39Z</time>
      </trkpt>
      <trkpt lat="44.24062" lon="5.64392">
        <ele>700</ele>
        <time>2019-05-24T11:55:40Z</time>
      </trkpt>
      <trkpt lat="44.24058" lon="5.64384">
        <ele>700</ele>
        <time>2019-05-24T11:55:41Z</time>
      </trkpt>
      <trkpt lat="44.24055" lon="5.64376">
        <ele>700</ele>
        <time>2019-05-24T11:55:42Z</time>
      </trkpt>
      <trkpt lat="44.24052" lon="5.64367">
        <ele>701</ele>
        <time>2019-05-24T11:55:43Z</time>
      </trkpt>
      <trkpt lat="44.24049" lon="5.64358">
        <ele>701</ele>
        <time>2019-05-24T11:55:44Z</time>
      </trkpt>
      <trkpt lat="44.24046" lon="5.6435">
        <ele>701</ele>
        <time>2019-05-24T11:55:45Z</time>
      </trkpt>
      <trkpt lat="44.24044" lon="5.64341">
        <ele>701</ele>
        <time>2019-05-24T11:55:46Z</time>
      </trkpt>
      <trkpt lat="44.24041" lon="5.64332">
        <ele>701</ele>
        <time>2019-05-24T11:55:47Z</time>
      </trkpt>
      <trkpt lat="44.24039" lon="5.64323">
        <ele>701</ele>
        <time>2019-05-24T11:55:48Z</time>
      </trkpt>
      <trkpt lat="44.24036" lon="5.64314">
        <ele>702</ele>
        <time>2019-05-24T11:55:49Z</time>
      </trkpt>
      <trkpt lat="44.24034" lon="5.64305">
        <ele>702</ele>
        <time>2019-05-24T11:55:50Z</time>
      </trkpt>
      <trkpt lat="44.24032" lon="5.64296">
        <ele>702</ele>
        <time>2019-05-24T11:55:51Z</time>
      </trkpt>
      <trkpt lat="44.2403" lon="5.64287">
        <ele>702</ele>
        <time>2019-05-24T11:55:52Z</time>
      </trkpt>
      <trkpt lat="44.24029" lon="5.64278">
        <ele>702</ele>
        <time>2019-05-24T11:55:53Z</time>
      </trkpt>
      <trkpt lat="44.24028" lon="5.64269">
        <ele>702</ele>
        <time>2019-05-24T11:55:54Z</time>
      </trkpt>
      <trkpt lat="44.24027" lon="5.64259">
        <ele>702</ele>
        <time>2019-05-24T11:55:55Z</time>
      </trkpt>
      <trkpt lat="44.24027" lon="5.64249">
        <ele>702</ele>
        <time>2019-05-24T11:55:57Z</time>
      </trkpt>
      <trkpt lat="44.24027" lon="5.6424">
        <ele>702</ele>
        <time>2019-05-24T11:55:57Z</time>
      </trkpt>
      <trkpt lat="44.24028" lon="5.6423">
        <ele>702</ele>
        <time>2019-05-24T11:55:58Z</time>
      </trkpt>
      <trkpt lat="44.24031" lon="5.64222">
        <ele>702</ele>
        <time>2019-05-24T11:55:59Z</time>
      </trkpt>
      <trkpt lat="44.24034" lon="5.64213">
        <ele>702</ele>
        <time>2019-05-24T11:56:00Z</time>
      </trkpt>
      <trkpt lat="44.24038" lon="5.64205">
        <ele>703</ele>
        <time>2019-05-24T11:56:01Z</time>
      </trkpt>
      <trkpt lat="44.24042" lon="5.64196">
        <ele>703</ele>
        <time>2019-05-24T11:56:02Z</time>
      </trkpt>
      <trkpt lat="44.24046" lon="5.64189">
        <ele>703</ele>
        <time>2019-05-24T11:56:03Z</time>
      </trkpt>
      <trkpt lat="44.2405" lon="5.64181">
        <ele>703</ele>
        <time>2019-05-24T11:56:04Z</time>
      </trkpt>
      <trkpt lat="44.24053" lon="5.64173">
        <ele>703</ele>
        <time>2019-05-24T11:56:05Z</time>
      </trkpt>
      <trkpt lat="44.24057" lon="5.64165">
        <ele>703</ele>
        <time>2019-05-24T11:56:06Z</time>
      </trkpt>
      <trkpt lat="44.24061" lon="5.64158">
        <ele>703</ele>
        <time>2019-05-24T11:56:07Z</time>
      </trkpt>
      <trkpt lat="44.24065" lon="5.6415">
        <ele>703</ele>
        <time>2019-05-24T11:56:08Z</time>
      </trkpt>
      <trkpt lat="44.24068" lon="5.64143">
        <ele>703</ele>
        <time>2019-05-24T11:56:09Z</time>
      </trkpt>
      <trkpt lat="44.24072" lon="5.64134">
        <ele>703</ele>
        <time>2019-05-24T11:56:10Z</time>
      </trkpt>
      <trkpt lat="44.24075" lon="5.64126">
        <ele>703</ele>
        <time>2019-05-24T11:56:11Z</time>
      </trkpt>
      <trkpt lat="44.24078" lon="5.64117">
        <ele>703</ele>
        <time>2019-05-24T11:56:12Z</time>
      </trkpt>
      <trkpt lat="44.24081" lon="5.64109">
        <ele>703</ele>
        <time>2019-05-24T11:56:13Z</time>
      </trkpt>
      <trkpt lat="44.24084" lon="5.641">
        <ele>703</ele>
        <time>2019-05-24T11:56:14Z</time>
      </trkpt>
      <trkpt lat="44.24087" lon="5.64092">
        <ele>703</ele>
        <time>2019-05-24T11:56:15Z</time>
      </trkpt>
      <trkpt lat="44.24089" lon="5.64083">
        <ele>703</ele>
        <time>2019-05-24T11:56:16Z</time>
      </trkpt>
      <trkpt lat="44.24091" lon="5.64075">
        <ele>703</ele>
        <time>2019-05-24T11:56:17Z</time>
      </trkpt>
      <trkpt lat="44.24094" lon="5.64067">
        <ele>703</ele>
        <time>2019-05-24T11:56:18Z</time>
      </trkpt>
      <trkpt lat="44.24096" lon="5.64058">
        <ele>703</ele>
        <time>2019-05-24T11:56:19Z</time>
      </trkpt>
      <trkpt lat="44.24099" lon="5.6405">
        <ele>703</ele>
        <time>2019-05-24T11:56:20Z</time>
      </trkpt>
      <trkpt lat="44.24103" lon="5.64041">
        <ele>703</ele>
        <time>2019-05-24T11:56:21Z</time>
      </trkpt>
      <trkpt lat="44.24106" lon="5.64032">
        <ele>703</ele>
        <time>2019-05-24T11:56:22Z</time>
      </trkpt>
      <trkpt lat="44.24108" lon="5.64023">
        <ele>703</ele>
        <time>2019-05-24T11:56:23Z</time>
      </trkpt>
      <trkpt lat="44.24112" lon="5.64015">
        <ele>703</ele>
        <time>2019-05-24T11:56:24Z</time>
      </trkpt>
      <trkpt lat="44.24116" lon="5.64007">
        <ele>703</ele>
        <time>2019-05-24T11:56:25Z</time>
      </trkpt>
      <trkpt lat="44.2412" lon="5.63999">
        <ele>703</ele>
        <time>2019-05-24T11:56:26Z</time>
      </trkpt>
      <trkpt lat="44.24123" lon="5.6399">
        <ele>703</ele>
        <time>2019-05-24T11:56:27Z</time>
      </trkpt>
      <trkpt lat="44.24127" lon="5.63983">
        <ele>703</ele>
        <time>2019-05-24T11:56:28Z</time>
      </trkpt>
      <trkpt lat="44.24131" lon="5.63976">
        <ele>703</ele>
        <time>2019-05-24T11:56:29Z</time>
      </trkpt>
      <trkpt lat="44.24135" lon="5.63969">
        <ele>703</ele>
        <time>2019-05-24T11:56:30Z</time>
      </trkpt>
      <trkpt lat="44.24139" lon="5.63963">
        <ele>703</ele>
        <time>2019-05-24T11:56:31Z</time>
      </trkpt>
      <trkpt lat="44.24144" lon="5.63956">
        <ele>703</ele>
        <time>2019-05-24T11:56:32Z</time>
      </trkpt>
      <trkpt lat="44.24148" lon="5.63949">
        <ele>703</ele>
        <time>2019-05-24T11:56:33Z</time>
      </trkpt>
      <trkpt lat="44.24152" lon="5.63943">
        <ele>703</ele>
        <time>2019-05-24T11:56:34Z</time>
      </trkpt>
      <trkpt lat="44.24157" lon="5.63936">
        <ele>703</ele>
        <time>2019-05-24T11:56:35Z</time>
      </trkpt>
      <trkpt lat="44.24162" lon="5.6393">
        <ele>703</ele>
        <time>2019-05-24T11:56:36Z</time>
      </trkpt>
      <trkpt lat="44.24167" lon="5.63924">
        <ele>703</ele>
        <time>2019-05-24T11:56:37Z</time>
      </trkpt>
      <trkpt lat="44.24171" lon="5.63917">
        <ele>703</ele>
        <time>2019-05-24T11:56:38Z</time>
      </trkpt>
      <trkpt lat="44.24174" lon="5.6391">
        <ele>703</ele>
        <time>2019-05-24T11:56:39Z</time>
      </trkpt>
      <trkpt lat="44.24178" lon="5.63903">
        <ele>703</ele>
        <time>2019-05-24T11:56:40Z</time>
      </trkpt>
      <trkpt lat="44.24183" lon="5.63896">
        <ele>703</ele>
        <time>2019-05-24T11:56:41Z</time>
      </trkpt>
      <trkpt lat="44.24186" lon="5.63888">
        <ele>703</ele>
        <time>2019-05-24T11:56:42Z</time>
      </trkpt>
      <trkpt lat="44.2419" lon="5.63881">
        <ele>703</ele>
        <time>2019-05-24T11:56:43Z</time>
      </trkpt>
      <trkpt lat="44.24193" lon="5.63872">
        <ele>703</ele>
        <time>2019-05-24T11:56:44Z</time>
      </trkpt>
      <trkpt lat="44.24196" lon="5.63863">
        <ele>703</ele>
        <time>2019-05-24T11:56:45Z</time>
      </trkpt>
      <trkpt lat="44.24199" lon="5.63856">
        <ele>703</ele>
        <time>2019-05-24T11:56:46Z</time>
      </trkpt>
      <trkpt lat="44.242" lon="5.63847">
        <ele>703</ele>
        <time>2019-05-24T11:56:47Z</time>
      </trkpt>
      <trkpt lat="44.24201" lon="5.63837">
        <ele>703</ele>
        <time>2019-05-24T11:56:48Z</time>
      </trkpt>
      <trkpt lat="44.242" lon="5.63828">
        <ele>703</ele>
        <time>2019-05-24T11:56:49Z</time>
      </trkpt>
      <trkpt lat="44.242" lon="5.63819">
        <ele>703</ele>
        <time>2019-05-24T11:56:50Z</time>
      </trkpt>
      <trkpt lat="44.24198" lon="5.6381">
        <ele>703</ele>
        <time>2019-05-24T11:56:51Z</time>
      </trkpt>
      <trkpt lat="44.24196" lon="5.63801">
        <ele>703</ele>
        <time>2019-05-24T11:56:52Z</time>
      </trkpt>
      <trkpt lat="44.24194" lon="5.63793">
        <ele>703</ele>
        <time>2019-05-24T11:56:53Z</time>
      </trkpt>
      <trkpt lat="44.24192" lon="5.63785">
        <ele>703</ele>
        <time>2019-05-24T11:56:54Z</time>
      </trkpt>
      <trkpt lat="44.24189" lon="5.63776">
        <ele>703</ele>
        <time>2019-05-24T11:56:55Z</time>
      </trkpt>
      <trkpt lat="44.24186" lon="5.63768">
        <ele>703</ele>
        <time>2019-05-24T11:56:56Z</time>
      </trkpt>
      <trkpt lat="44.24183" lon="5.6376">
        <ele>703</ele>
        <time>2019-05-24T11:56:57Z</time>
      </trkpt>
      <trkpt lat="44.24179" lon="5.63751">
        <ele>703</ele>
        <time>2019-05-24T11:56:58Z</time>
      </trkpt>
      <trkpt lat="44.24176" lon="5.63743">
        <ele>704</ele>
        <time>2019-05-24T11:56:59Z</time>
      </trkpt>
      <trkpt lat="44.24173" lon="5.63736">
        <ele>704</ele>
        <time>2019-05-24T11:57:00Z</time>
      </trkpt>
      <trkpt lat="44.24171" lon="5.63728">
        <ele>705</ele>
        <time>2019-05-24T11:57:01Z</time>
      </trkpt>
      <trkpt lat="44.24168" lon="5.63721">
        <ele>705</ele>
        <time>2019-05-24T11:57:02Z</time>
      </trkpt>
      <trkpt lat="44.24165" lon="5.63713">
        <ele>705</ele>
        <time>2019-05-24T11:57:03Z</time>
      </trkpt>
      <trkpt lat="44.24163" lon="5.63706">
        <ele>705</ele>
        <time>2019-05-24T11:57:04Z</time>
      </trkpt>
      <trkpt lat="44.2416" lon="5.63698">
        <ele>705</ele>
        <time>2019-05-24T11:57:05Z</time>
      </trkpt>
      <trkpt lat="44.24158" lon="5.63691">
        <ele>705</ele>
        <time>2019-05-24T11:57:06Z</time>
      </trkpt>
      <trkpt lat="44.24155" lon="5.63683">
        <ele>705</ele>
        <time>2019-05-24T11:57:07Z</time>
      </trkpt>
      <trkpt lat="44.24153" lon="5.63676">
        <ele>705</ele>
        <time>2019-05-24T11:57:08Z</time>
      </trkpt>
      <trkpt lat="44.2415" lon="5.63668">
        <ele>705</ele>
        <time>2019-05-24T11:57:09Z</time>
      </trkpt>
      <trkpt lat="44.24147" lon="5.6366">
        <ele>705</ele>
        <time>2019-05-24T11:57:10Z</time>
      </trkpt>
      <trkpt lat="44.24144" lon="5.63652">
        <ele>705</ele>
        <time>2019-05-24T11:57:11Z</time>
      </trkpt>
      <trkpt lat="44.24141" lon="5.63645">
        <ele>705</ele>
        <time>2019-05-24T11:57:12Z</time>
      </trkpt>
      <trkpt lat="44.24137" lon="5.63637">
        <ele>705</ele>
        <time>2019-05-24T11:57:13Z</time>
      </trkpt>
      <trkpt lat="44.24134" lon="5.63629">
        <ele>705</ele>
        <time>2019-05-24T11:57:14Z</time>
      </trkpt>
      <trkpt lat="44.24129" lon="5.63622">
        <ele>705</ele>
        <time>2019-05-24T11:57:15Z</time>
      </trkpt>
      <trkpt lat="44.24125" lon="5.63615">
        <ele>705</ele>
        <time>2019-05-24T11:57:16Z</time>
      </trkpt>
      <trkpt lat="44.2412" lon="5.63608">
        <ele>705</ele>
        <time>2019-05-24T11:57:17Z</time>
      </trkpt>
      <trkpt lat="44.24115" lon="5.63601">
        <ele>705</ele>
        <time>2019-05-24T11:57:18Z</time>
      </trkpt>
      <trkpt lat="44.2411" lon="5.63594">
        <ele>705</ele>
        <time>2019-05-24T11:57:19Z</time>
      </trkpt>
      <trkpt lat="44.24105" lon="5.63588">
        <ele>705</ele>
        <time>2019-05-24T11:57:20Z</time>
      </trkpt>
      <trkpt lat="44.241" lon="5.63582">
        <ele>705</ele>
        <time>2019-05-24T11:57:21Z</time>
      </trkpt>
      <trkpt lat="44.24095" lon="5.63576">
        <ele>705</ele>
        <time>2019-05-24T11:57:22Z</time>
      </trkpt>
      <trkpt lat="44.2409" lon="5.6357">
        <ele>705</ele>
        <time>2019-05-24T11:57:23Z</time>
      </trkpt>
      <trkpt lat="44.24084" lon="5.63564">
        <ele>705</ele>
        <time>2019-05-24T11:57:24Z</time>
      </trkpt>
      <trkpt lat="44.24078" lon="5.63558">
        <ele>705</ele>
        <time>2019-05-24T11:57:25Z</time>
      </trkpt>
      <trkpt lat="44.24072" lon="5.63552">
        <ele>705</ele>
        <time>2019-05-24T11:57:26Z</time>
      </trkpt>
      <trkpt lat="44.24066" lon="5.63546">
        <ele>706</ele>
        <time>2019-05-24T11:57:27Z</time>
      </trkpt>
      <trkpt lat="44.2406" lon="5.6354">
        <ele>706</ele>
        <time>2019-05-24T11:57:28Z</time>
      </trkpt>
      <trkpt lat="44.24054" lon="5.63534">
        <ele>706</ele>
        <time>2019-05-24T11:57:29Z</time>
      </trkpt>
      <trkpt lat="44.24048" lon="5.63528">
        <ele>706</ele>
        <time>2019-05-24T11:57:30Z</time>
      </trkpt>
      <trkpt lat="44.24042" lon="5.63522">
        <ele>706</ele>
        <time>2019-05-24T11:57:31Z</time>
      </trkpt>
      <trkpt lat="44.24037" lon="5.63516">
        <ele>706</ele>
        <time>2019-05-24T11:57:32Z</time>
      </trkpt>
      <trkpt lat="44.24031" lon="5.63511">
        <ele>706</ele>
        <time>2019-05-24T11:57:33Z</time>
      </trkpt>
      <trkpt lat="44.24025" lon="5.63505">
        <ele>706</ele>
        <time>2019-05-24T11:57:34Z</time>
      </trkpt>
      <trkpt lat="44.24019" lon="5.63499">
        <ele>706</ele>
        <time>2019-05-24T11:57:35Z</time>
      </trkpt>
      <trkpt lat="44.24014" lon="5.63493">
        <ele>706</ele>
        <time>2019-05-24T11:57:36Z</time>
      </trkpt>
      <trkpt lat="44.24008" lon="5.63488">
        <ele>706</ele>
        <time>2019-05-24T11:57:37Z</time>
      </trkpt>
      <trkpt lat="44.24003" lon="5.63483">
        <ele>706</ele>
        <time>2019-05-24T11:57:38Z</time>
      </trkpt>
      <trkpt lat="44.23997" lon="5.63477">
        <ele>706</ele>
        <time>2019-05-24T11:57:39Z</time>
      </trkpt>
      <trkpt lat="44.23992" lon="5.63472">
        <ele>706</ele>
        <time>2019-05-24T11:57:40Z</time>
      </trkpt>
      <trkpt lat="44.23987" lon="5.63467">
        <ele>706</ele>
        <time>2019-05-24T11:57:41Z</time>
      </trkpt>
      <trkpt lat="44.23981" lon="5.63461">
        <ele>706</ele>
        <time>2019-05-24T11:57:42Z</time>
      </trkpt>
      <trkpt lat="44.23976" lon="5.63456">
        <ele>706</ele>
        <time>2019-05-24T11:57:43Z</time>
      </trkpt>
      <trkpt lat="44.23971" lon="5.6345">
        <ele>706</ele>
        <time>2019-05-24T11:57:44Z</time>
      </trkpt>
      <trkpt lat="44.23965" lon="5.63445">
        <ele>706</ele>
        <time>2019-05-24T11:57:45Z</time>
      </trkpt>
      <trkpt lat="44.2396" lon="5.6344">
        <ele>706</ele>
        <time>2019-05-24T11:57:46Z</time>
      </trkpt>
      <trkpt lat="44.23955" lon="5.63434">
        <ele>706</ele>
        <time>2019-05-24T11:57:47Z</time>
      </trkpt>
      <trkpt lat="44.23949" lon="5.63429">
        <ele>707</ele>
        <time>2019-05-24T11:57:48Z</time>
      </trkpt>
      <trkpt lat="44.23944" lon="5.63424">
        <ele>707</ele>
        <time>2019-05-24T11:57:49Z</time>
      </trkpt>
      <trkpt lat="44.23939" lon="5.63419">
        <ele>707</ele>
        <time>2019-05-24T11:57:50Z</time>
      </trkpt>
      <trkpt lat="44.23934" lon="5.63413">
        <ele>708</ele>
        <time>2019-05-24T11:57:51Z</time>
      </trkpt>
      <trkpt lat="44.23929" lon="5.63408">
        <ele>708</ele>
        <time>2019-05-24T11:57:52Z</time>
      </trkpt>
      <trkpt lat="44.23924" lon="5.63403">
        <ele>708</ele>
        <time>2019-05-24T11:57:53Z</time>
      </trkpt>
      <trkpt lat="44.23919" lon="5.63397">
        <ele>708</ele>
        <time>2019-05-24T11:57:54Z</time>
      </trkpt>
      <trkpt lat="44.23914" lon="5.63392">
        <ele>709</ele>
        <time>2019-05-24T11:57:55Z</time>
      </trkpt>
      <trkpt lat="44.23909" lon="5.63388">
        <ele>709</ele>
        <time>2019-05-24T11:57:56Z</time>
      </trkpt>
      <trkpt lat="44.23904" lon="5.63383">
        <ele>709</ele>
        <time>2019-05-24T11:57:57Z</time>
      </trkpt>
      <trkpt lat="44.23899" lon="5.63378">
        <ele>709</ele>
        <time>2019-05-24T11:57:58Z</time>
      </trkpt>
      <trkpt lat="44.23894" lon="5.63373">
        <ele>709</ele>
        <time>2019-05-24T11:57:59Z</time>
      </trkpt>
      <trkpt lat="44.2389" lon="5.63367">
        <ele>709</ele>
        <time>2019-05-24T11:58:00Z</time>
      </trkpt>
      <trkpt lat="44.23885" lon="5.63362">
        <ele>709</ele>
        <time>2019-05-24T11:58:01Z</time>
      </trkpt>
      <trkpt lat="44.2388" lon="5.63357">
        <ele>709</ele>
        <time>2019-05-24T11:58:02Z</time>
      </trkpt>
      <trkpt lat="44.23875" lon="5.63352">
        <ele>709</ele>
        <time>2019-05-24T11:58:03Z</time>
      </trkpt>
      <trkpt lat="44.2387" lon="5.63347">
        <ele>709</ele>
        <time>2019-05-24T11:58:04Z</time>
      </trkpt>
      <trkpt lat="44.23866" lon="5.63342">
        <ele>709</ele>
        <time>2019-05-24T11:58:05Z</time>
      </trkpt>
      <trkpt lat="44.23861" lon="5.63337">
        <ele>709</ele>
        <time>2019-05-24T11:58:06Z</time>
      </trkpt>
      <trkpt lat="44.23856" lon="5.63332">
        <ele>709</ele>
        <time>2019-05-24T11:58:07Z</time>
      </trkpt>
      <trkpt lat="44.23851" lon="5.63327">
        <ele>709</ele>
        <time>2019-05-24T11:58:08Z</time>
      </trkpt>
      <trkpt lat="44.23846" lon="5.63322">
        <ele>709</ele>
        <time>2019-05-24T11:58:09Z</time>
      </trkpt>
      <trkpt lat="44.23842" lon="5.63317">
        <ele>709</ele>
        <time>2019-05-24T11:58:10Z</time>
      </trkpt>
      <trkpt lat="44.23837" lon="5.63312">
        <ele>709</ele>
        <time>2019-05-24T11:58:11Z</time>
      </trkpt>
      <trkpt lat="44.23832" lon="5.63308">
        <ele>709</ele>
        <time>2019-05-24T11:58:12Z</time>
      </trkpt>
      <trkpt lat="44.23828" lon="5.63303">
        <ele>709</ele>
        <time>2019-05-24T11:58:13Z</time>
      </trkpt>
      <trkpt lat="44.23823" lon="5.63298">
        <ele>709</ele>
        <time>2019-05-24T11:58:14Z</time>
      </trkpt>
      <trkpt lat="44.23819" lon="5.63293">
        <ele>709</ele>
        <time>2019-05-24T11:58:15Z</time>
      </trkpt>
      <trkpt lat="44.23814" lon="5.63288">
        <ele>709</ele>
        <time>2019-05-24T11:58:16Z</time>
      </trkpt>
      <trkpt lat="44.23809" lon="5.63283">
        <ele>709</ele>
        <time>2019-05-24T11:58:17Z</time>
      </trkpt>
      <trkpt lat="44.23804" lon="5.63279">
        <ele>709</ele>
        <time>2019-05-24T11:58:18Z</time>
      </trkpt>
      <trkpt lat="44.238" lon="5.63274">
        <ele>709</ele>
        <time>2019-05-24T11:58:19Z</time>
      </trkpt>
      <trkpt lat="44.23795" lon="5.63269">
        <ele>709</ele>
        <time>2019-05-24T11:58:20Z</time>
      </trkpt>
      <trkpt lat="44.2379" lon="5.63265">
        <ele>709</ele>
        <time>2019-05-24T11:58:21Z</time>
      </trkpt>
      <trkpt lat="44.23785" lon="5.63261">
        <ele>709</ele>
        <time>2019-05-24T11:58:22Z</time>
      </trkpt>
      <trkpt lat="44.23781" lon="5.63257">
        <ele>709</ele>
        <time>2019-05-24T11:58:23Z</time>
      </trkpt>
      <trkpt lat="44.23776" lon="5.63253">
        <ele>709</ele>
        <time>2019-05-24T11:58:24Z</time>
      </trkpt>
      <trkpt lat="44.23771" lon="5.63249">
        <ele>709</ele>
        <time>2019-05-24T11:58:25Z</time>
      </trkpt>
      <trkpt lat="44.23767" lon="5.63246">
        <ele>709</ele>
        <time>2019-05-24T11:58:26Z</time>
      </trkpt>
      <trkpt lat="44.23762" lon="5.63243">
        <ele>709</ele>
        <time>2019-05-24T11:58:27Z</time>
      </trkpt>
      <trkpt lat="44.23757" lon="5.6324">
        <ele>709</ele>
        <time>2019-05-24T11:58:28Z</time>
      </trkpt>
      <trkpt lat="44.23752" lon="5.63237">
        <ele>709</ele>
        <time>2019-05-24T11:58:29Z</time>
      </trkpt>
      <trkpt lat="44.23747" lon="5.63234">
        <ele>709</ele>
        <time>2019-05-24T11:58:30Z</time>
      </trkpt>
      <trkpt lat="44.23742" lon="5.63231">
        <ele>709</ele>
        <time>2019-05-24T11:58:31Z</time>
      </trkpt>
      <trkpt lat="44.23737" lon="5.63229">
        <ele>709</ele>
        <time>2019-05-24T11:58:32Z</time>
      </trkpt>
      <trkpt lat="44.23732" lon="5.63227">
        <ele>709</ele>
        <time>2019-05-24T11:58:33Z</time>
      </trkpt>
      <trkpt lat="44.23727" lon="5.63224">
        <ele>709</ele>
        <time>2019-05-24T11:58:34Z</time>
      </trkpt>
      <trkpt lat="44.23722" lon="5.63221">
        <ele>709</ele>
        <time>2019-05-24T11:58:35Z</time>
      </trkpt>
      <trkpt lat="44.23716" lon="5.63218">
        <ele>709</ele>
        <time>2019-05-24T11:58:36Z</time>
      </trkpt>
      <trkpt lat="44.23711" lon="5.63216">
        <ele>709</ele>
        <time>2019-05-24T11:58:37Z</time>
      </trkpt>
      <trkpt lat="44.23706" lon="5.63214">
        <ele>709</ele>
        <time>2019-05-24T11:58:38Z</time>
      </trkpt>
      <trkpt lat="44.237" lon="5.63213">
        <ele>709</ele>
        <time>2019-05-24T11:58:39Z</time>
      </trkpt>
      <trkpt lat="44.23695" lon="5.63211">
        <ele>709</ele>
        <time>2019-05-24T11:58:40Z</time>
      </trkpt>
      <trkpt lat="44.23689" lon="5.63209">
        <ele>709</ele>
        <time>2019-05-24T11:58:41Z</time>
      </trkpt>
      <trkpt lat="44.23684" lon="5.63208">
        <ele>709</ele>
        <time>2019-05-24T11:58:42Z</time>
      </trkpt>
      <trkpt lat="44.23678" lon="5.63206">
        <ele>709</ele>
        <time>2019-05-24T11:58:43Z</time>
      </trkpt>
      <trkpt lat="44.23672" lon="5.63205">
        <ele>709</ele>
        <time>2019-05-24T11:58:44Z</time>
      </trkpt>
      <trkpt lat="44.23666" lon="5.63204">
        <ele>709</ele>
        <time>2019-05-24T11:58:45Z</time>
      </trkpt>
      <trkpt lat="44.2366" lon="5.63202">
        <ele>709</ele>
        <time>2019-05-24T11:58:46Z</time>
      </trkpt>
      <trkpt lat="44.23653" lon="5.63201">
        <ele>709</ele>
        <time>2019-05-24T11:58:47Z</time>
      </trkpt>
      <trkpt lat="44.23647" lon="5.63199">
        <ele>709</ele>
        <time>2019-05-24T11:58:48Z</time>
      </trkpt>
      <trkpt lat="44.2364" lon="5.63198">
        <ele>709</ele>
        <time>2019-05-24T11:58:49Z</time>
      </trkpt>
      <trkpt lat="44.23634" lon="5.63196">
        <ele>709</ele>
        <time>2019-05-24T11:58:50Z</time>
      </trkpt>
      <trkpt lat="44.23627" lon="5.63195">
        <ele>709</ele>
        <time>2019-05-24T11:58:51Z</time>
      </trkpt>
      <trkpt lat="44.23621" lon="5.63193">
        <ele>709</ele>
        <time>2019-05-24T11:58:52Z</time>
      </trkpt>
      <trkpt lat="44.23615" lon="5.63192">
        <ele>709</ele>
        <time>2019-05-24T11:58:53Z</time>
      </trkpt>
      <trkpt lat="44.23609" lon="5.63191">
        <ele>709</ele>
        <time>2019-05-24T11:58:54Z</time>
      </trkpt>
      <trkpt lat="44.23603" lon="5.63189">
        <ele>709</ele>
        <time>2019-05-24T11:58:55Z</time>
      </trkpt>
      <trkpt lat="44.23597" lon="5.63188">
        <ele>709</ele>
        <time>2019-05-24T11:58:57Z</time>
      </trkpt>
      <trkpt lat="44.23591" lon="5.63186">
        <ele>709</ele>
        <time>2019-05-24T11:58:57Z</time>
      </trkpt>
      <trkpt lat="44.23585" lon="5.63184">
        <ele>709</ele>
        <time>2019-05-24T11:58:58Z</time>
      </trkpt>
      <trkpt lat="44.23579" lon="5.63183">
        <ele>709</ele>
        <time>2019-05-24T11:58:59Z</time>
      </trkpt>
      <trkpt lat="44.23574" lon="5.63181">
        <ele>709</ele>
        <time>2019-05-24T11:59:00Z</time>
      </trkpt>
      <trkpt lat="44.23568" lon="5.6318">
        <ele>709</ele>
        <time>2019-05-24T11:59:01Z</time>
      </trkpt>
      <trkpt lat="44.23563" lon="5.63179">
        <ele>709</ele>
        <time>2019-05-24T11:59:02Z</time>
      </trkpt>
      <trkpt lat="44.23557" lon="5.63177">
        <ele>709</ele>
        <time>2019-05-24T11:59:03Z</time>
      </trkpt>
      <trkpt lat="44.23552" lon="5.63176">
        <ele>709</ele>
        <time>2019-05-24T11:59:04Z</time>
      </trkpt>
      <trkpt lat="44.23546" lon="5.63175">
        <ele>709</ele>
        <time>2019-05-24T11:59:05Z</time>
      </trkpt>
      <trkpt lat="44.23541" lon="5.63174">
        <ele>710</ele>
        <time>2019-05-24T11:59:06Z</time>
      </trkpt>
      <trkpt lat="44.23536" lon="5.63173">
        <ele>710</ele>
        <time>2019-05-24T11:59:07Z</time>
      </trkpt>
      <trkpt lat="44.23531" lon="5.63171">
        <ele>710</ele>
        <time>2019-05-24T11:59:08Z</time>
      </trkpt>
      <trkpt lat="44.23525" lon="5.6317">
        <ele>710</ele>
        <time>2019-05-24T11:59:09Z</time>
      </trkpt>
      <trkpt lat="44.2352" lon="5.63169">
        <ele>710</ele>
        <time>2019-05-24T11:59:10Z</time>
      </trkpt>
      <trkpt lat="44.23515" lon="5.63167">
        <ele>710</ele>
        <time>2019-05-24T11:59:11Z</time>
      </trkpt>
      <trkpt lat="44.23509" lon="5.63166">
        <ele>710</ele>
        <time>2019-05-24T11:59:12Z</time>
      </trkpt>
      <trkpt lat="44.23503" lon="5.63164">
        <ele>710</ele>
        <time>2019-05-24T11:59:13Z</time>
      </trkpt>
      <trkpt lat="44.23498" lon="5.63163">
        <ele>710</ele>
        <time>2019-05-24T11:59:14Z</time>
      </trkpt>
      <trkpt lat="44.23492" lon="5.63161">
        <ele>710</ele>
        <time>2019-05-24T11:59:15Z</time>
      </trkpt>
      <trkpt lat="44.23486" lon="5.6316">
        <ele>710</ele>
        <time>2019-05-24T11:59:16Z</time>
      </trkpt>
      <trkpt lat="44.2348" lon="5.63158">
        <ele>710</ele>
        <time>2019-05-24T11:59:17Z</time>
      </trkpt>
      <trkpt lat="44.23473" lon="5.63156">
        <ele>710</ele>
        <time>2019-05-24T11:59:18Z</time>
      </trkpt>
      <trkpt lat="44.23467" lon="5.63155">
        <ele>710</ele>
        <time>2019-05-24T11:59:19Z</time>
      </trkpt>
      <trkpt lat="44.2346" lon="5.63153">
        <ele>710</ele>
        <time>2019-05-24T11:59:20Z</time>
      </trkpt>
      <trkpt lat="44.23453" lon="5.63151">
        <ele>710</ele>
        <time>2019-05-24T11:59:21Z</time>
      </trkpt>
      <trkpt lat="44.23447" lon="5.6315">
        <ele>710</ele>
        <time>2019-05-24T11:59:22Z</time>
      </trkpt>
      <trkpt lat="44.2344" lon="5.63148">
        <ele>710</ele>
        <time>2019-05-24T11:59:23Z</time>
      </trkpt>
      <trkpt lat="44.23433" lon="5.63146">
        <ele>710</ele>
        <time>2019-05-24T11:59:24Z</time>
      </trkpt>
      <trkpt lat="44.23426" lon="5.63144">
        <ele>710</ele>
        <time>2019-05-24T11:59:25Z</time>
      </trkpt>
      <trkpt lat="44.2342" lon="5.63143">
        <ele>710</ele>
        <time>2019-05-24T11:59:26Z</time>
      </trkpt>
      <trkpt lat="44.23413" lon="5.63141">
        <ele>710</ele>
        <time>2019-05-24T11:59:27Z</time>
      </trkpt>
      <trkpt lat="44.23406" lon="5.63139">
        <ele>710</ele>
        <time>2019-05-24T11:59:28Z</time>
      </trkpt>
      <trkpt lat="44.234" lon="5.63138">
        <ele>710</ele>
        <time>2019-05-24T11:59:29Z</time>
      </trkpt>
      <trkpt lat="44.23394" lon="5.63136">
        <ele>710</ele>
        <time>2019-05-24T11:59:30Z</time>
      </trkpt>
      <trkpt lat="44.23387" lon="5.63135">
        <ele>710</ele>
        <time>2019-05-24T11:59:31Z</time>
      </trkpt>
      <trkpt lat="44.23381" lon="5.63133">
        <ele>710</ele>
        <time>2019-05-24T11:59:32Z</time>
      </trkpt>
      <trkpt lat="44.23375" lon="5.63132">
        <ele>710</ele>
        <time>2019-05-24T11:59:33Z</time>
      </trkpt>
      <trkpt lat="44.23369" lon="5.6313">
        <ele>710</ele>
        <time>2019-05-24T11:59:34Z</time>
      </trkpt>
      <trkpt lat="44.23363" lon="5.63129">
        <ele>710</ele>
        <time>2019-05-24T11:59:35Z</time>
      </trkpt>
      <trkpt lat="44.23356" lon="5.63127">
        <ele>710</ele>
        <time>2019-05-24T11:59:36Z</time>
      </trkpt>
      <trkpt lat="44.23351" lon="5.63126">
        <ele>710</ele>
        <time>2019-05-24T11:59:37Z</time>
      </trkpt>
      <trkpt lat="44.23345" lon="5.63124">
        <ele>710</ele>
        <time>2019-05-24T11:59:38Z</time>
      </trkpt>
      <trkpt lat="44.23339" lon="5.63123">
        <ele>710</ele>
        <time>2019-05-24T11:59:39Z</time>
      </trkpt>
      <trkpt lat="44.23333" lon="5.63122">
        <ele>710</ele>
        <time>2019-05-24T11:59:40Z</time>
      </trkpt>
      <trkpt lat="44.23327" lon="5.6312">
        <ele>710</ele>
        <time>2019-05-24T11:59:41Z</time>
      </trkpt>
      <trkpt lat="44.23321" lon="5.63119">
        <ele>710</ele>
        <time>2019-05-24T11:59:42Z</time>
      </trkpt>
      <trkpt lat="44.23315" lon="5.63117">
        <ele>710</ele>
        <time>2019-05-24T11:59:43Z</time>
      </trkpt>
      <trkpt lat="44.23309" lon="5.63116">
        <ele>710</ele>
        <time>2019-05-24T11:59:44Z</time>
      </trkpt>
      <trkpt lat="44.23303" lon="5.63114">
        <ele>710</ele>
        <time>2019-05-24T11:59:45Z</time>
      </trkpt>
      <trkpt lat="44.23297" lon="5.63113">
        <ele>710</ele>
        <time>2019-05-24T11:59:46Z</time>
      </trkpt>
      <trkpt lat="44.23292" lon="5.63112">
        <ele>710</ele>
        <time>2019-05-24T11:59:47Z</time>
      </trkpt>
      <trkpt lat="44.23286" lon="5.6311">
        <ele>710</ele>
        <time>2019-05-24T11:59:48Z</time>
      </trkpt>
      <trkpt lat="44.2328" lon="5.63109">
        <ele>710</ele>
        <time>2019-05-24T11:59:49Z</time>
      </trkpt>
      <trkpt lat="44.23274" lon="5.63107">
        <ele>710</ele>
        <time>2019-05-24T11:59:50Z</time>
      </trkpt>
      <trkpt lat="44.23269" lon="5.63106">
        <ele>710</ele>
        <time>2019-05-24T11:59:51Z</time>
      </trkpt>
      <trkpt lat="44.23263" lon="5.63104">
        <ele>710</ele>
        <time>2019-05-24T11:59:52Z</time>
      </trkpt>
      <trkpt lat="44.23257" lon="5.63103">
        <ele>710</ele>
        <time>2019-05-24T11:59:53Z</time>
      </trkpt>
      <trkpt lat="44.23251" lon="5.63101">
        <ele>710</ele>
        <time>2019-05-24T11:59:54Z</time>
      </trkpt>
      <trkpt lat="44.23245" lon="5.631">
        <ele>710</ele>
        <time>2019-05-24T11:59:55Z</time>
      </trkpt>
      <trkpt lat="44.2324" lon="5.63099">
        <ele>710</ele>
        <time>2019-05-24T11:59:56Z</time>
      </trkpt>
      <trkpt lat="44.23233" lon="5.63097">
        <ele>710</ele>
        <time>2019-05-24T11:59:57Z</time>
      </trkpt>
      <trkpt lat="44.23227" lon="5.63096">
        <ele>710</ele>
        <time>2019-05-24T11:59:58Z</time>
      </trkpt>
      <trkpt lat="44.23222" lon="5.63094">
        <ele>710</ele>
        <time>2019-05-24T11:59:59Z</time>
      </trkpt>
      <trkpt lat="44.23216" lon="5.63093">
        <ele>710</ele>
        <time>2019-05-24T12:00:00Z</time>
      </trkpt>
      <trkpt lat="44.2321" lon="5.63091">
        <ele>710</ele>
        <time>2019-05-24T12:00:01Z</time>
      </trkpt>
      <trkpt lat="44.23204" lon="5.6309">
        <ele>710</ele>
        <time>2019-05-24T12:00:02Z</time>
      </trkpt>
      <trkpt lat="44.23199" lon="5.63089">
        <ele>710</ele>
        <time>2019-05-24T12:00:03Z</time>
      </trkpt>
      <trkpt lat="44.23193" lon="5.63088">
        <ele>710</ele>
        <time>2019-05-24T12:00:04Z</time>
      </trkpt>
      <trkpt lat="44.23186" lon="5.63086">
        <ele>710</ele>
        <time>2019-05-24T12:00:05Z</time>
      </trkpt>
      <trkpt lat="44.2318" lon="5.63084">
        <ele>710</ele>
        <time>2019-05-24T12:00:06Z</time>
      </trkpt>
      <trkpt lat="44.23174" lon="5.63083">
        <ele>710</ele>
        <time>2019-05-24T12:00:07Z</time>
      </trkpt>
      <trkpt lat="44.23168" lon="5.63081">
        <ele>710</ele>
        <time>2019-05-24T12:00:08Z</time>
      </trkpt>
      <trkpt lat="44.23163" lon="5.6308">
        <ele>710</ele>
        <time>2019-05-24T12:00:09Z</time>
      </trkpt>
      <trkpt lat="44.23157" lon="5.63079">
        <ele>710</ele>
        <time>2019-05-24T12:00:10Z</time>
      </trkpt>
      <trkpt lat="44.23151" lon="5.63077">
        <ele>710</ele>
        <time>2019-05-24T12:00:11Z</time>
      </trkpt>
      <trkpt lat="44.23145" lon="5.63076">
        <ele>710</ele>
        <time>2019-05-24T12:00:12Z</time>
      </trkpt>
      <trkpt lat="44.23139" lon="5.63074">
        <ele>710</ele>
        <time>2019-05-24T12:00:13Z</time>
      </trkpt>
      <trkpt lat="44.23134" lon="5.63073">
        <ele>710</ele>
        <time>2019-05-24T12:00:14Z</time>
      </trkpt>
      <trkpt lat="44.23128" lon="5.63071">
        <ele>710</ele>
        <time>2019-05-24T12:00:15Z</time>
      </trkpt>
      <trkpt lat="44.23123" lon="5.6307">
        <ele>710</ele>
        <time>2019-05-24T12:00:16Z</time>
      </trkpt>
      <trkpt lat="44.23118" lon="5.63069">
        <ele>710</ele>
        <time>2019-05-24T12:00:17Z</time>
      </trkpt>
      <trkpt lat="44.23114" lon="5.63068">
        <ele>710</ele>
        <time>2019-05-24T12:00:18Z</time>
      </trkpt>
      <trkpt lat="44.23109" lon="5.63067">
        <ele>710</ele>
        <time>2019-05-24T12:00:19Z</time>
      </trkpt>
      <trkpt lat="44.23105" lon="5.63065">
        <ele>710</ele>
        <time>2019-05-24T12:00:20Z</time>
      </trkpt>
      <trkpt lat="44.231" lon="5.63063">
        <ele>711</ele>
        <time>2019-05-24T12:00:21Z</time>
      </trkpt>
      <trkpt lat="44.23095" lon="5.63061">
        <ele>711</ele>
        <time>2019-05-24T12:00:22Z</time>
      </trkpt>
      <trkpt lat="44.2309" lon="5.63059">
        <ele>711</ele>
        <time>2019-05-24T12:00:23Z</time>
      </trkpt>
      <trkpt lat="44.23085" lon="5.63057">
        <ele>712</ele>
        <time>2019-05-24T12:00:24Z</time>
      </trkpt>
      <trkpt lat="44.2308" lon="5.63054">
        <ele>712</ele>
        <time>2019-05-24T12:00:25Z</time>
      </trkpt>
      <trkpt lat="44.23076" lon="5.63052">
        <ele>712</ele>
        <time>2019-05-24T12:00:26Z</time>
      </trkpt>
      <trkpt lat="44.23071" lon="5.63049">
        <ele>712</ele>
        <time>2019-05-24T12:00:27Z</time>
      </trkpt>
      <trkpt lat="44.23067" lon="5.63046">
        <ele>712</ele>
        <time>2019-05-24T12:00:28Z</time>
      </trkpt>
      <trkpt lat="44.23063" lon="5.63042">
        <ele>712</ele>
        <time>2019-05-24T12:00:29Z</time>
      </trkpt>
      <trkpt lat="44.23059" lon="5.63039">
        <ele>712</ele>
        <time>2019-05-24T12:00:30Z</time>
      </trkpt>
      <trkpt lat="44.23056" lon="5.63036">
        <ele>712</ele>
        <time>2019-05-24T12:00:31Z</time>
      </trkpt>
      <trkpt lat="44.23052" lon="5.63033">
        <ele>712</ele>
        <time>2019-05-24T12:00:32Z</time>
      </trkpt>
      <trkpt lat="44.23048" lon="5.6303">
        <ele>712</ele>
        <time>2019-05-24T12:00:33Z</time>
      </trkpt>
      <trkpt lat="44.23045" lon="5.63026">
        <ele>712</ele>
        <time>2019-05-24T12:00:34Z</time>
      </trkpt>
      <trkpt lat="44.23042" lon="5.63022">
        <ele>712</ele>
        <time>2019-05-24T12:00:35Z</time>
      </trkpt>
      <trkpt lat="44.23039" lon="5.63019">
        <ele>712</ele>
        <time>2019-05-24T12:00:36Z</time>
      </trkpt>
      <trkpt lat="44.23036" lon="5.63015">
        <ele>712</ele>
        <time>2019-05-24T12:00:37Z</time>
      </trkpt>
      <trkpt lat="44.23034" lon="5.63012">
        <ele>712</ele>
        <time>2019-05-24T12:00:38Z</time>
      </trkpt>
      <trkpt lat="44.23031" lon="5.63008">
        <ele>712</ele>
        <time>2019-05-24T12:00:39Z</time>
      </trkpt>
      <trkpt lat="44.23028" lon="5.63004">
        <ele>712</ele>
        <time>2019-05-24T12:00:40Z</time>
      </trkpt>
      <trkpt lat="44.23024" lon="5.63001">
        <ele>712</ele>
        <time>2019-05-24T12:00:41Z</time>
      </trkpt>
      <trkpt lat="44.23021" lon="5.62997">
        <ele>712</ele>
        <time>2019-05-24T12:00:42Z</time>
      </trkpt>
      <trkpt lat="44.23018" lon="5.62993">
        <ele>712</ele>
        <time>2019-05-24T12:00:43Z</time>
      </trkpt>
      <trkpt lat="44.23015" lon="5.6299">
        <ele>712</ele>
        <time>2019-05-24T12:00:44Z</time>
      </trkpt>
      <trkpt lat="44.23012" lon="5.62986">
        <ele>713</ele>
        <time>2019-05-24T12:00:45Z</time>
      </trkpt>
      <trkpt lat="44.23009" lon="5.62982">
        <ele>713</ele>
        <time>2019-05-24T12:00:46Z</time>
      </trkpt>
      <trkpt lat="44.23007" lon="5.62978">
        <ele>713</ele>
        <time>2019-05-24T12:00:47Z</time>
      </trkpt>
      <trkpt lat="44.23003" lon="5.62975">
        <ele>713</ele>
        <time>2019-05-24T12:00:48Z</time>
      </trkpt>
      <trkpt lat="44.23" lon="5.62972">
        <ele>713</ele>
        <time>2019-05-24T12:00:49Z</time>
      </trkpt>
      <trkpt lat="44.22996" lon="5.62969">
        <ele>713</ele>
        <time>2019-05-24T12:00:50Z</time>
      </trkpt>
      <trkpt lat="44.22993" lon="5.62966">
        <ele>713</ele>
        <time>2019-05-24T12:00:51Z</time>
      </trkpt>
      <trkpt lat="44.22989" lon="5.62964">
        <ele>713</ele>
        <time>2019-05-24T12:00:52Z</time>
      </trkpt>
      <trkpt lat="44.22985" lon="5.62961">
        <ele>713</ele>
        <time>2019-05-24T12:00:53Z</time>
      </trkpt>
      <trkpt lat="44.22981" lon="5.62958">
        <ele>713</ele>
        <time>2019-05-24T12:00:54Z</time>
      </trkpt>
      <trkpt lat="44.22977" lon="5.62956">
        <ele>714</ele>
        <time>2019-05-24T12:00:55Z</time>
      </trkpt>
      <trkpt lat="44.22974" lon="5.62954">
        <ele>714</ele>
        <time>2019-05-24T12:00:56Z</time>
      </trkpt>
      <trkpt lat="44.22969" lon="5.62952">
        <ele>714</ele>
        <time>2019-05-24T12:00:57Z</time>
      </trkpt>
      <trkpt lat="44.22966" lon="5.6295">
        <ele>714</ele>
        <time>2019-05-24T12:00:58Z</time>
      </trkpt>
      <trkpt lat="44.22962" lon="5.62947">
        <ele>715</ele>
        <time>2019-05-24T12:00:59Z</time>
      </trkpt>
      <trkpt lat="44.22958" lon="5.62945">
        <ele>715</ele>
        <time>2019-05-24T12:01:00Z</time>
      </trkpt>
      <trkpt lat="44.22954" lon="5.62943">
        <ele>715</ele>
        <time>2019-05-24T12:01:01Z</time>
      </trkpt>
      <trkpt lat="44.2295" lon="5.6294">
        <ele>715</ele>
        <time>2019-05-24T12:01:02Z</time>
      </trkpt>
      <trkpt lat="44.22947" lon="5.62937">
        <ele>716</ele>
        <time>2019-05-24T12:01:03Z</time>
      </trkpt>
      <trkpt lat="44.22943" lon="5.62934">
        <ele>716</ele>
        <time>2019-05-24T12:01:04Z</time>
      </trkpt>
      <trkpt lat="44.2294" lon="5.6293">
        <ele>716</ele>
        <time>2019-05-24T12:01:05Z</time>
      </trkpt>
      <trkpt lat="44.22936" lon="5.62927">
        <ele>716</ele>
        <time>2019-05-24T12:01:06Z</time>
      </trkpt>
      <trkpt lat="44.22933" lon="5.62924">
        <ele>716</ele>
        <time>2019-05-24T12:01:07Z</time>
      </trkpt>
      <trkpt lat="44.22929" lon="5.62921">
        <ele>717</ele>
        <time>2019-05-24T12:01:08Z</time>
      </trkpt>
      <trkpt lat="44.22926" lon="5.62917">
        <ele>717</ele>
        <time>2019-05-24T12:01:09Z</time>
      </trkpt>
      <trkpt lat="44.22923" lon="5.62914">
        <ele>717</ele>
        <time>2019-05-24T12:01:10Z</time>
      </trkpt>
      <trkpt lat="44.2292" lon="5.6291">
        <ele>718</ele>
        <time>2019-05-24T12:01:11Z</time>
      </trkpt>
      <trkpt lat="44.22916" lon="5.62907">
        <ele>718</ele>
        <time>2019-05-24T12:01:12Z</time>
      </trkpt>
      <trkpt lat="44.22913" lon="5.62904">
        <ele>719</ele>
        <time>2019-05-24T12:01:13Z</time>
      </trkpt>
      <trkpt lat="44.2291" lon="5.62901">
        <ele>719</ele>
        <time>2019-05-24T12:01:14Z</time>
      </trkpt>
      <trkpt lat="44.22907" lon="5.62898">
        <ele>720</ele>
        <time>2019-05-24T12:01:15Z</time>
      </trkpt>
      <trkpt lat="44.22904" lon="5.62895">
        <ele>721</ele>
        <time>2019-05-24T12:01:16Z</time>
      </trkpt>
      <trkpt lat="44.22902" lon="5.62892">
        <ele>721</ele>
        <time>2019-05-24T12:01:17Z</time>
      </trkpt>
      <trkpt lat="44.22898" lon="5.62888">
        <ele>721</ele>
        <time>2019-05-24T12:01:18Z</time>
      </trkpt>
      <trkpt lat="44.22895" lon="5.62885">
        <ele>722</ele>
        <time>2019-05-24T12:01:19Z</time>
      </trkpt>
      <trkpt lat="44.22892" lon="5.62882">
        <ele>722</ele>
        <time>2019-05-24T12:01:20Z</time>
      </trkpt>
      <trkpt lat="44.22888" lon="5.62878">
        <ele>722</ele>
        <time>2019-05-24T12:01:21Z</time>
      </trkpt>
      <trkpt lat="44.22885" lon="5.62874">
        <ele>722</ele>
        <time>2019-05-24T12:01:22Z</time>
      </trkpt>
      <trkpt lat="44.22882" lon="5.6287">
        <ele>722</ele>
        <time>2019-05-24T12:01:23Z</time>
      </trkpt>
      <trkpt lat="44.22879" lon="5.62866">
        <ele>722</ele>
        <time>2019-05-24T12:01:24Z</time>
      </trkpt>
      <trkpt lat="44.22875" lon="5.62862">
        <ele>722</ele>
        <time>2019-05-24T12:01:25Z</time>
      </trkpt>
      <trkpt lat="44.22872" lon="5.62858">
        <ele>722</ele>
        <time>2019-05-24T12:01:26Z</time>
      </trkpt>
      <trkpt lat="44.22869" lon="5.62854">
        <ele>722</ele>
        <time>2019-05-24T12:01:27Z</time>
      </trkpt>
      <trkpt lat="44.22866" lon="5.6285">
        <ele>722</ele>
        <time>2019-05-24T12:01:28Z</time>
      </trkpt>
      <trkpt lat="44.22863" lon="5.62847">
        <ele>722</ele>
        <time>2019-05-24T12:01:29Z</time>
      </trkpt>
      <trkpt lat="44.2286" lon="5.62843">
        <ele>722</ele>
        <time>2019-05-24T12:01:30Z</time>
      </trkpt>
      <trkpt lat="44.22857" lon="5.62839">
        <ele>722</ele>
        <time>2019-05-24T12:01:31Z</time>
      </trkpt>
      <trkpt lat="44.22853" lon="5.62834">
        <ele>722</ele>
        <time>2019-05-24T12:01:32Z</time>
      </trkpt>
      <trkpt lat="44.2285" lon="5.6283">
        <ele>722</ele>
        <time>2019-05-24T12:01:33Z</time>
      </trkpt>
      <trkpt lat="44.22847" lon="5.62826">
        <ele>722</ele>
        <time>2019-05-24T12:01:34Z</time>
      </trkpt>
      <trkpt lat="44.22844" lon="5.62822">
        <ele>722</ele>
        <time>2019-05-24T12:01:35Z</time>
      </trkpt>
      <trkpt lat="44.2284" lon="5.62818">
        <ele>722</ele>
        <time>2019-05-24T12:01:36Z</time>
      </trkpt>
      <trkpt lat="44.22837" lon="5.62814">
        <ele>722</ele>
        <time>2019-05-24T12:01:37Z</time>
      </trkpt>
      <trkpt lat="44.22834" lon="5.6281">
        <ele>722</ele>
        <time>2019-05-24T12:01:38Z</time>
      </trkpt>
      <trkpt lat="44.2283" lon="5.62806">
        <ele>722</ele>
        <time>2019-05-24T12:01:39Z</time>
      </trkpt>
      <trkpt lat="44.22827" lon="5.62801">
        <ele>722</ele>
        <time>2019-05-24T12:01:40Z</time>
      </trkpt>
      <trkpt lat="44.22824" lon="5.62797">
        <ele>722</ele>
        <time>2019-05-24T12:01:41Z</time>
      </trkpt>
      <trkpt lat="44.2282" lon="5.62792">
        <ele>723</ele>
        <time>2019-05-24T12:01:42Z</time>
      </trkpt>
      <trkpt lat="44.22816" lon="5.62788">
        <ele>723</ele>
        <time>2019-05-24T12:01:43Z</time>
      </trkpt>
      <trkpt lat="44.22812" lon="5.62784">
        <ele>723</ele>
        <time>2019-05-24T12:01:44Z</time>
      </trkpt>
      <trkpt lat="44.22808" lon="5.62781">
        <ele>723</ele>
        <time>2019-05-24T12:01:45Z</time>
      </trkpt>
      <trkpt lat="44.22804" lon="5.62776">
        <ele>723</ele>
        <time>2019-05-24T12:01:46Z</time>
      </trkpt>
      <trkpt lat="44.228" lon="5.62772">
        <ele>723</ele>
        <time>2019-05-24T12:01:47Z</time>
      </trkpt>
      <trkpt lat="44.22796" lon="5.62768">
        <ele>723</ele>
        <time>2019-05-24T12:01:48Z</time>
      </trkpt>
      <trkpt lat="44.22792" lon="5.62764">
        <ele>724</ele>
        <time>2019-05-24T12:01:49Z</time>
      </trkpt>
      <trkpt lat="44.22788" lon="5.6276">
        <ele>724</ele>
        <time>2019-05-24T12:01:50Z</time>
      </trkpt>
      <trkpt lat="44.22784" lon="5.62756">
        <ele>724</ele>
        <time>2019-05-24T12:01:51Z</time>
      </trkpt>
      <trkpt lat="44.2278" lon="5.62751">
        <ele>724</ele>
        <time>2019-05-24T12:01:52Z</time>
      </trkpt>
      <trkpt lat="44.22776" lon="5.62747">
        <ele>724</ele>
        <time>2019-05-24T12:01:53Z</time>
      </trkpt>
      <trkpt lat="44.22771" lon="5.62743">
        <ele>724</ele>
        <time>2019-05-24T12:01:54Z</time>
      </trkpt>
      <trkpt lat="44.22768" lon="5.62738">
        <ele>724</ele>
        <time>2019-05-24T12:01:55Z</time>
      </trkpt>
      <trkpt lat="44.22763" lon="5.62734">
        <ele>724</ele>
        <time>2019-05-24T12:01:56Z</time>
      </trkpt>
      <trkpt lat="44.2276" lon="5.62729">
        <ele>724</ele>
        <time>2019-05-24T12:01:57Z</time>
      </trkpt>
      <trkpt lat="44.22756" lon="5.62724">
        <ele>724</ele>
        <time>2019-05-24T12:01:58Z</time>
      </trkpt>
      <trkpt lat="44.22752" lon="5.62718">
        <ele>724</ele>
        <time>2019-05-24T12:01:59Z</time>
      </trkpt>
      <trkpt lat="44.22748" lon="5.62712">
        <ele>724</ele>
        <time>2019-05-24T12:02:00Z</time>
      </trkpt>
      <trkpt lat="44.22744" lon="5.62707">
        <ele>724</ele>
        <time>2019-05-24T12:02:01Z</time>
      </trkpt>
      <trkpt lat="44.22741" lon="5.62701">
        <ele>724</ele>
        <time>2019-05-24T12:02:02Z</time>
      </trkpt>
      <trkpt lat="44.22737" lon="5.62696">
        <ele>725</ele>
        <time>2019-05-24T12:02:03Z</time>
      </trkpt>
      <trkpt lat="44.22733" lon="5.6269">
        <ele>725</ele>
        <time>2019-05-24T12:02:04Z</time>
      </trkpt>
      <trkpt lat="44.22729" lon="5.62684">
        <ele>725</ele>
        <time>2019-05-24T12:02:05Z</time>
      </trkpt>
      <trkpt lat="44.22726" lon="5.62678">
        <ele>725</ele>
        <time>2019-05-24T12:02:06Z</time>
      </trkpt>
      <trkpt lat="44.22722" lon="5.62672">
        <ele>726</ele>
        <time>2019-05-24T12:02:07Z</time>
      </trkpt>
      <trkpt lat="44.22718" lon="5.62666">
        <ele>726</ele>
        <time>2019-05-24T12:02:08Z</time>
      </trkpt>
      <trkpt lat="44.22715" lon="5.62659">
        <ele>726</ele>
        <time>2019-05-24T12:02:09Z</time>
      </trkpt>
      <trkpt lat="44.22712" lon="5.62653">
        <ele>726</ele>
        <time>2019-05-24T12:02:10Z</time>
      </trkpt>
      <trkpt lat="44.22708" lon="5.62646">
        <ele>726</ele>
        <time>2019-05-24T12:02:11Z</time>
      </trkpt>
      <trkpt lat="44.22704" lon="5.6264">
        <ele>726</ele>
        <time>2019-05-24T12:02:12Z</time>
      </trkpt>
      <trkpt lat="44.227" lon="5.62633">
        <ele>726</ele>
        <time>2019-05-24T12:02:13Z</time>
      </trkpt>
      <trkpt lat="44.22697" lon="5.62626">
        <ele>726</ele>
        <time>2019-05-24T12:02:14Z</time>
      </trkpt>
      <trkpt lat="44.22693" lon="5.62619">
        <ele>726</ele>
        <time>2019-05-24T12:02:15Z</time>
      </trkpt>
      <trkpt lat="44.22689" lon="5.62613">
        <ele>726</ele>
        <time>2019-05-24T12:02:16Z</time>
      </trkpt>
      <trkpt lat="44.22685" lon="5.62606">
        <ele>726</ele>
        <time>2019-05-24T12:02:17Z</time>
      </trkpt>
      <trkpt lat="44.22681" lon="5.62599">
        <ele>726</ele>
        <time>2019-05-24T12:02:18Z</time>
      </trkpt>
      <trkpt lat="44.22678" lon="5.62592">
        <ele>726</ele>
        <time>2019-05-24T12:02:19Z</time>
      </trkpt>
      <trkpt lat="44.22674" lon="5.62585">
        <ele>726</ele>
        <time>2019-05-24T12:02:20Z</time>
      </trkpt>
      <trkpt lat="44.2267" lon="5.62578">
        <ele>726</ele>
        <time>2019-05-24T12:02:21Z</time>
      </trkpt>
      <trkpt lat="44.22665" lon="5.62571">
        <ele>726</ele>
        <time>2019-05-24T12:02:22Z</time>
      </trkpt>
      <trkpt lat="44.22662" lon="5.62564">
        <ele>726</ele>
        <time>2019-05-24T12:02:23Z</time>
      </trkpt>
      <trkpt lat="44.22657" lon="5.62558">
        <ele>726</ele>
        <time>2019-05-24T12:02:24Z</time>
      </trkpt>
      <trkpt lat="44.22654" lon="5.6255">
        <ele>726</ele>
        <time>2019-05-24T12:02:25Z</time>
      </trkpt>
      <trkpt lat="44.22649" lon="5.62544">
        <ele>726</ele>
        <time>2019-05-24T12:02:26Z</time>
      </trkpt>
      <trkpt lat="44.22645" lon="5.62537">
        <ele>726</ele>
        <time>2019-05-24T12:02:27Z</time>
      </trkpt>
      <trkpt lat="44.22641" lon="5.6253">
        <ele>726</ele>
        <time>2019-05-24T12:02:28Z</time>
      </trkpt>
      <trkpt lat="44.22637" lon="5.62523">
        <ele>726</ele>
        <time>2019-05-24T12:02:29Z</time>
      </trkpt>
      <trkpt lat="44.22633" lon="5.62516">
        <ele>726</ele>
        <time>2019-05-24T12:02:30Z</time>
      </trkpt>
      <trkpt lat="44.22628" lon="5.6251">
        <ele>726</ele>
        <time>2019-05-24T12:02:31Z</time>
      </trkpt>
      <trkpt lat="44.22624" lon="5.62503">
        <ele>726</ele>
        <time>2019-05-24T12:02:32Z</time>
      </trkpt>
      <trkpt lat="44.2262" lon="5.62496">
        <ele>726</ele>
        <time>2019-05-24T12:02:33Z</time>
      </trkpt>
      <trkpt lat="44.22616" lon="5.62489">
        <ele>726</ele>
        <time>2019-05-24T12:02:34Z</time>
      </trkpt>
      <trkpt lat="44.22612" lon="5.62482">
        <ele>726</ele>
        <time>2019-05-24T12:02:35Z</time>
      </trkpt>
      <trkpt lat="44.22608" lon="5.62475">
        <ele>726</ele>
        <time>2019-05-24T12:02:36Z</time>
      </trkpt>
      <trkpt lat="44.22604" lon="5.62468">
        <ele>726</ele>
        <time>2019-05-24T12:02:37Z</time>
      </trkpt>
      <trkpt lat="44.226" lon="5.62461">
        <ele>726</ele>
        <time>2019-05-24T12:02:38Z</time>
      </trkpt>
      <trkpt lat="44.22597" lon="5.62453">
        <ele>726</ele>
        <time>2019-05-24T12:02:39Z</time>
      </trkpt>
      <trkpt lat="44.22593" lon="5.62446">
        <ele>726</ele>
        <time>2019-05-24T12:02:40Z</time>
      </trkpt>
      <trkpt lat="44.22589" lon="5.62438">
        <ele>726</ele>
        <time>2019-05-24T12:02:41Z</time>
      </trkpt>
      <trkpt lat="44.22585" lon="5.62431">
        <ele>726</ele>
        <time>2019-05-24T12:02:42Z</time>
      </trkpt>
      <trkpt lat="44.22582" lon="5.62423">
        <ele>726</ele>
        <time>2019-05-24T12:02:43Z</time>
      </trkpt>
      <trkpt lat="44.22578" lon="5.62415">
        <ele>726</ele>
        <time>2019-05-24T12:02:44Z</time>
      </trkpt>
      <trkpt lat="44.22575" lon="5.62407">
        <ele>726</ele>
        <time>2019-05-24T12:02:45Z</time>
      </trkpt>
      <trkpt lat="44.22571" lon="5.62399">
        <ele>726</ele>
        <time>2019-05-24T12:02:46Z</time>
      </trkpt>
      <trkpt lat="44.22568" lon="5.62391">
        <ele>726</ele>
        <time>2019-05-24T12:02:47Z</time>
      </trkpt>
      <trkpt lat="44.22564" lon="5.62382">
        <ele>726</ele>
        <time>2019-05-24T12:02:48Z</time>
      </trkpt>
      <trkpt lat="44.22561" lon="5.62373">
        <ele>726</ele>
        <time>2019-05-24T12:02:49Z</time>
      </trkpt>
      <trkpt lat="44.22557" lon="5.62364">
        <ele>726</ele>
        <time>2019-05-24T12:02:50Z</time>
      </trkpt>
      <trkpt lat="44.22555" lon="5.62355">
        <ele>726</ele>
        <time>2019-05-24T12:02:51Z</time>
      </trkpt>
      <trkpt lat="44.22551" lon="5.62346">
        <ele>726</ele>
        <time>2019-05-24T12:02:52Z</time>
      </trkpt>
      <trkpt lat="44.22548" lon="5.62336">
        <ele>726</ele>
        <time>2019-05-24T12:02:53Z</time>
      </trkpt>
      <trkpt lat="44.22546" lon="5.62326">
        <ele>726</ele>
        <time>2019-05-24T12:02:54Z</time>
      </trkpt>
      <trkpt lat="44.22543" lon="5.62316">
        <ele>726</ele>
        <time>2019-05-24T12:02:55Z</time>
      </trkpt>
      <trkpt lat="44.22541" lon="5.62306">
        <ele>726</ele>
        <time>2019-05-24T12:02:56Z</time>
      </trkpt>
      <trkpt lat="44.22539" lon="5.62296">
        <ele>726</ele>
        <time>2019-05-24T12:02:57Z</time>
      </trkpt>
      <trkpt lat="44.22537" lon="5.62286">
        <ele>726</ele>
        <time>2019-05-24T12:02:58Z</time>
      </trkpt>
      <trkpt lat="44.22536" lon="5.62277">
        <ele>726</ele>
        <time>2019-05-24T12:02:59Z</time>
      </trkpt>
      <trkpt lat="44.22535" lon="5.62267">
        <ele>726</ele>
        <time>2019-05-24T12:03:00Z</time>
      </trkpt>
      <trkpt lat="44.22533" lon="5.62258">
        <ele>726</ele>
        <time>2019-05-24T12:03:01Z</time>
      </trkpt>
      <trkpt lat="44.22532" lon="5.62249">
        <ele>726</ele>
        <time>2019-05-24T12:03:02Z</time>
      </trkpt>
      <trkpt lat="44.22531" lon="5.6224">
        <ele>726</ele>
        <time>2019-05-24T12:03:03Z</time>
      </trkpt>
      <trkpt lat="44.22531" lon="5.62231">
        <ele>726</ele>
        <time>2019-05-24T12:03:04Z</time>
      </trkpt>
      <trkpt lat="44.2253" lon="5.62222">
        <ele>726</ele>
        <time>2019-05-24T12:03:05Z</time>
      </trkpt>
      <trkpt lat="44.22529" lon="5.62214">
        <ele>726</ele>
        <time>2019-05-24T12:03:06Z</time>
      </trkpt>
      <trkpt lat="44.22529" lon="5.62205">
        <ele>726</ele>
        <time>2019-05-24T12:03:07Z</time>
      </trkpt>
      <trkpt lat="44.22528" lon="5.62197">
        <ele>726</ele>
        <time>2019-05-24T12:03:08Z</time>
      </trkpt>
      <trkpt lat="44.22527" lon="5.6219">
        <ele>726</ele>
        <time>2019-05-24T12:03:09Z</time>
      </trkpt>
      <trkpt lat="44.22527" lon="5.62182">
        <ele>726</ele>
        <time>2019-05-24T12:03:10Z</time>
      </trkpt>
      <trkpt lat="44.22526" lon="5.62174">
        <ele>726</ele>
        <time>2019-05-24T12:03:11Z</time>
      </trkpt>
      <trkpt lat="44.22525" lon="5.62167">
        <ele>726</ele>
        <time>2019-05-24T12:03:12Z</time>
      </trkpt>
      <trkpt lat="44.22524" lon="5.62159">
        <ele>726</ele>
        <time>2019-05-24T12:03:13Z</time>
      </trkpt>
      <trkpt lat="44.22522" lon="5.62152">
        <ele>726</ele>
        <time>2019-05-24T12:03:14Z</time>
      </trkpt>
      <trkpt lat="44.22521" lon="5.62146">
        <ele>726</ele>
        <time>2019-05-24T12:03:15Z</time>
      </trkpt>
      <trkpt lat="44.22519" lon="5.62139">
        <ele>726</ele>
        <time>2019-05-24T12:03:16Z</time>
      </trkpt>
      <trkpt lat="44.22517" lon="5.62132">
        <ele>726</ele>
        <time>2019-05-24T12:03:17Z</time>
      </trkpt>
      <trkpt lat="44.22515" lon="5.62125">
        <ele>726</ele>
        <time>2019-05-24T12:03:18Z</time>
      </trkpt>
      <trkpt lat="44.22513" lon="5.62119">
        <ele>726</ele>
        <time>2019-05-24T12:03:19Z</time>
      </trkpt>
      <trkpt lat="44.22511" lon="5.62112">
        <ele>726</ele>
        <time>2019-05-24T12:03:20Z</time>
      </trkpt>
      <trkpt lat="44.22508" lon="5.62106">
        <ele>726</ele>
        <time>2019-05-24T12:03:21Z</time>
      </trkpt>
      <trkpt lat="44.22505" lon="5.62099">
        <ele>726</ele>
        <time>2019-05-24T12:03:22Z</time>
      </trkpt>
      <trkpt lat="44.22502" lon="5.62092">
        <ele>726</ele>
        <time>2019-05-24T12:03:23Z</time>
      </trkpt>
      <trkpt lat="44.22498" lon="5.62086">
        <ele>726</ele>
        <time>2019-05-24T12:03:24Z</time>
      </trkpt>
      <trkpt lat="44.22495" lon="5.62079">
        <ele>726</ele>
        <time>2019-05-24T12:03:25Z</time>
      </trkpt>
      <trkpt lat="44.22492" lon="5.62072">
        <ele>726</ele>
        <time>2019-05-24T12:03:26Z</time>
      </trkpt>
      <trkpt lat="44.2249" lon="5.62066">
        <ele>726</ele>
        <time>2019-05-24T12:03:27Z</time>
      </trkpt>
      <trkpt lat="44.22487" lon="5.62059">
        <ele>726</ele>
        <time>2019-05-24T12:03:28Z</time>
      </trkpt>
      <trkpt lat="44.22483" lon="5.62053">
        <ele>726</ele>
        <time>2019-05-24T12:03:29Z</time>
      </trkpt>
      <trkpt lat="44.22481" lon="5.62047">
        <ele>726</ele>
        <time>2019-05-24T12:03:30Z</time>
      </trkpt>
      <trkpt lat="44.22478" lon="5.6204">
        <ele>726</ele>
        <time>2019-05-24T12:03:31Z</time>
      </trkpt>
      <trkpt lat="44.22475" lon="5.62034">
        <ele>726</ele>
        <time>2019-05-24T12:03:32Z</time>
      </trkpt>
      <trkpt lat="44.22471" lon="5.62028">
        <ele>726</ele>
        <time>2019-05-24T12:03:33Z</time>
      </trkpt>
      <trkpt lat="44.22468" lon="5.62022">
        <ele>726</ele>
        <time>2019-05-24T12:03:34Z</time>
      </trkpt>
      <trkpt lat="44.22464" lon="5.62016">
        <ele>726</ele>
        <time>2019-05-24T12:03:35Z</time>
      </trkpt>
      <trkpt lat="44.22461" lon="5.6201">
        <ele>726</ele>
        <time>2019-05-24T12:03:36Z</time>
      </trkpt>
      <trkpt lat="44.22458" lon="5.62004">
        <ele>726</ele>
        <time>2019-05-24T12:03:37Z</time>
      </trkpt>
      <trkpt lat="44.22456" lon="5.61997">
        <ele>726</ele>
        <time>2019-05-24T12:03:38Z</time>
      </trkpt>
      <trkpt lat="44.22453" lon="5.6199">
        <ele>726</ele>
        <time>2019-05-24T12:03:39Z</time>
      </trkpt>
      <trkpt lat="44.2245" lon="5.61984">
        <ele>726</ele>
        <time>2019-05-24T12:03:40Z</time>
      </trkpt>
      <trkpt lat="44.22447" lon="5.61977">
        <ele>726</ele>
        <time>2019-05-24T12:03:41Z</time>
      </trkpt>
      <trkpt lat="44.22444" lon="5.61971">
        <ele>726</ele>
        <time>2019-05-24T12:03:42Z</time>
      </trkpt>
      <trkpt lat="44.22441" lon="5.61964">
        <ele>726</ele>
        <time>2019-05-24T12:03:43Z</time>
      </trkpt>
      <trkpt lat="44.22438" lon="5.61958">
        <ele>726</ele>
        <time>2019-05-24T12:03:44Z</time>
      </trkpt>
      <trkpt lat="44.22435" lon="5.61951">
        <ele>726</ele>
        <time>2019-05-24T12:03:45Z</time>
      </trkpt>
      <trkpt lat="44.22432" lon="5.61944">
        <ele>726</ele>
        <time>2019-05-24T12:03:46Z</time>
      </trkpt>
      <trkpt lat="44.22429" lon="5.61938">
        <ele>726</ele>
        <time>2019-05-24T12:03:47Z</time>
      </trkpt>
      <trkpt lat="44.22425" lon="5.61932">
        <ele>726</ele>
        <time>2019-05-24T12:03:48Z</time>
      </trkpt>
      <trkpt lat="44.22422" lon="5.61925">
        <ele>726</ele>
        <time>2019-05-24T12:03:49Z</time>
      </trkpt>
      <trkpt lat="44.22419" lon="5.61918">
        <ele>726</ele>
        <time>2019-05-24T12:03:50Z</time>
      </trkpt>
      <trkpt lat="44.22416" lon="5.61912">
        <ele>726</ele>
        <time>2019-05-24T12:03:51Z</time>
      </trkpt>
      <trkpt lat="44.22413" lon="5.61905">
        <ele>726</ele>
        <time>2019-05-24T12:03:52Z</time>
      </trkpt>
      <trkpt lat="44.22411" lon="5.61898">
        <ele>726</ele>
        <time>2019-05-24T12:03:53Z</time>
      </trkpt>
      <trkpt lat="44.22408" lon="5.61891">
        <ele>726</ele>
        <time>2019-05-24T12:03:54Z</time>
      </trkpt>
      <trkpt lat="44.22406" lon="5.61884">
        <ele>726</ele>
        <time>2019-05-24T12:03:55Z</time>
      </trkpt>
      <trkpt lat="44.22404" lon="5.61877">
        <ele>726</ele>
        <time>2019-05-24T12:03:56Z</time>
      </trkpt>
      <trkpt lat="44.22402" lon="5.61869">
        <ele>726</ele>
        <time>2019-05-24T12:03:57Z</time>
      </trkpt>
      <trkpt lat="44.224" lon="5.61862">
        <ele>726</ele>
        <time>2019-05-24T12:03:58Z</time>
      </trkpt>
      <trkpt lat="44.22398" lon="5.61855">
        <ele>726</ele>
        <time>2019-05-24T12:03:59Z</time>
      </trkpt>
      <trkpt lat="44.22397" lon="5.61847">
        <ele>726</ele>
        <time>2019-05-24T12:04:00Z</time>
      </trkpt>
      <trkpt lat="44.22395" lon="5.6184">
        <ele>726</ele>
        <time>2019-05-24T12:04:01Z</time>
      </trkpt>
      <trkpt lat="44.22393" lon="5.61833">
        <ele>726</ele>
        <time>2019-05-24T12:04:02Z</time>
      </trkpt>
      <trkpt lat="44.22391" lon="5.61825">
        <ele>726</ele>
        <time>2019-05-24T12:04:03Z</time>
      </trkpt>
      <trkpt lat="44.22389" lon="5.61818">
        <ele>726</ele>
        <time>2019-05-24T12:04:04Z</time>
      </trkpt>
      <trkpt lat="44.22387" lon="5.61811">
        <ele>726</ele>
        <time>2019-05-24T12:04:05Z</time>
      </trkpt>
      <trkpt lat="44.22384" lon="5.61804">
        <ele>726</ele>
        <time>2019-05-24T12:04:06Z</time>
      </trkpt>
      <trkpt lat="44.22382" lon="5.61797">
        <ele>726</ele>
        <time>2019-05-24T12:04:07Z</time>
      </trkpt>
      <trkpt lat="44.22379" lon="5.6179">
        <ele>726</ele>
        <time>2019-05-24T12:04:08Z</time>
      </trkpt>
      <trkpt lat="44.22377" lon="5.61783">
        <ele>726</ele>
        <time>2019-05-24T12:04:09Z</time>
      </trkpt>
      <trkpt lat="44.22374" lon="5.61776">
        <ele>726</ele>
        <time>2019-05-24T12:04:10Z</time>
      </trkpt>
      <trkpt lat="44.22371" lon="5.61769">
        <ele>726</ele>
        <time>2019-05-24T12:04:11Z</time>
      </trkpt>
      <trkpt lat="44.22368" lon="5.61762">
        <ele>726</ele>
        <time>2019-05-24T12:04:12Z</time>
      </trkpt>
      <trkpt lat="44.22366" lon="5.61755">
        <ele>726</ele>
        <time>2019-05-24T12:04:13Z</time>
      </trkpt>
      <trkpt lat="44.22363" lon="5.61748">
        <ele>726</ele>
        <time>2019-05-24T12:04:14Z</time>
      </trkpt>
      <trkpt lat="44.2236" lon="5.61741">
        <ele>726</ele>
        <time>2019-05-24T12:04:15Z</time>
      </trkpt>
      <trkpt lat="44.22358" lon="5.61734">
        <ele>726</ele>
        <time>2019-05-24T12:04:16Z</time>
      </trkpt>
      <trkpt lat="44.22355" lon="5.61727">
        <ele>726</ele>
        <time>2019-05-24T12:04:17Z</time>
      </trkpt>
      <trkpt lat="44.22353" lon="5.6172">
        <ele>726</ele>
        <time>2019-05-24T12:04:18Z</time>
      </trkpt>
      <trkpt lat="44.2235" lon="5.61713">
        <ele>726</ele>
        <time>2019-05-24T12:04:19Z</time>
      </trkpt>
      <trkpt lat="44.22347" lon="5.61705">
        <ele>726</ele>
        <time>2019-05-24T12:04:20Z</time>
      </trkpt>
      <trkpt lat="44.22344" lon="5.61698">
        <ele>726</ele>
        <time>2019-05-24T12:04:21Z</time>
      </trkpt>
      <trkpt lat="44.22341" lon="5.61692">
        <ele>726</ele>
        <time>2019-05-24T12:04:22Z</time>
      </trkpt>
      <trkpt lat="44.22338" lon="5.61685">
        <ele>726</ele>
        <time>2019-05-24T12:04:23Z</time>
      </trkpt>
      <trkpt lat="44.22335" lon="5.61678">
        <ele>726</ele>
        <time>2019-05-24T12:04:24Z</time>
      </trkpt>
      <trkpt lat="44.22332" lon="5.61671">
        <ele>726</ele>
        <time>2019-05-24T12:04:25Z</time>
      </trkpt>
      <trkpt lat="44.22329" lon="5.61664">
        <ele>726</ele>
        <time>2019-05-24T12:04:26Z</time>
      </trkpt>
      <trkpt lat="44.22326" lon="5.61657">
        <ele>726</ele>
        <time>2019-05-24T12:04:27Z</time>
      </trkpt>
      <trkpt lat="44.22324" lon="5.6165">
        <ele>726</ele>
        <time>2019-05-24T12:04:28Z</time>
      </trkpt>
      <trkpt lat="44.22321" lon="5.61643">
        <ele>726</ele>
        <time>2019-05-24T12:04:29Z</time>
      </trkpt>
      <trkpt lat="44.22319" lon="5.61636">
        <ele>726</ele>
        <time>2019-05-24T12:04:30Z</time>
      </trkpt>
      <trkpt lat="44.22316" lon="5.61629">
        <ele>726</ele>
        <time>2019-05-24T12:04:31Z</time>
      </trkpt>
      <trkpt lat="44.22313" lon="5.61622">
        <ele>726</ele>
        <time>2019-05-24T12:04:32Z</time>
      </trkpt>
      <trkpt lat="44.22309" lon="5.61615">
        <ele>726</ele>
        <time>2019-05-24T12:04:33Z</time>
      </trkpt>
      <trkpt lat="44.22306" lon="5.61608">
        <ele>726</ele>
        <time>2019-05-24T12:04:34Z</time>
      </trkpt>
      <trkpt lat="44.22303" lon="5.61601">
        <ele>726</ele>
        <time>2019-05-24T12:04:35Z</time>
      </trkpt>
      <trkpt lat="44.223" lon="5.61594">
        <ele>726</ele>
        <time>2019-05-24T12:04:36Z</time>
      </trkpt>
      <trkpt lat="44.22297" lon="5.61587">
        <ele>726</ele>
        <time>2019-05-24T12:04:37Z</time>
      </trkpt>
      <trkpt lat="44.22295" lon="5.61579">
        <ele>726</ele>
        <time>2019-05-24T12:04:38Z</time>
      </trkpt>
      <trkpt lat="44.22292" lon="5.61572">
        <ele>726</ele>
        <time>2019-05-24T12:04:39Z</time>
      </trkpt>
      <trkpt lat="44.22289" lon="5.61564">
        <ele>726</ele>
        <time>2019-05-24T12:04:40Z</time>
      </trkpt>
      <trkpt lat="44.22286" lon="5.61557">
        <ele>726</ele>
        <time>2019-05-24T12:04:41Z</time>
      </trkpt>
      <trkpt lat="44.22283" lon="5.6155">
        <ele>727</ele>
        <time>2019-05-24T12:04:42Z</time>
      </trkpt>
      <trkpt lat="44.22279" lon="5.61543">
        <ele>727</ele>
        <time>2019-05-24T12:04:43Z</time>
      </trkpt>
      <trkpt lat="44.22277" lon="5.61536">
        <ele>727</ele>
        <time>2019-05-24T12:04:44Z</time>
      </trkpt>
      <trkpt lat="44.22274" lon="5.61528">
        <ele>727</ele>
        <time>2019-05-24T12:04:45Z</time>
      </trkpt>
      <trkpt lat="44.22271" lon="5.6152">
        <ele>727</ele>
        <time>2019-05-24T12:04:46Z</time>
      </trkpt>
      <trkpt lat="44.22269" lon="5.61512">
        <ele>727</ele>
        <time>2019-05-24T12:04:47Z</time>
      </trkpt>
      <trkpt lat="44.22266" lon="5.61503">
        <ele>727</ele>
        <time>2019-05-24T12:04:48Z</time>
      </trkpt>
      <trkpt lat="44.22264" lon="5.61495">
        <ele>727</ele>
        <time>2019-05-24T12:04:49Z</time>
      </trkpt>
      <trkpt lat="44.22262" lon="5.61486">
        <ele>727</ele>
        <time>2019-05-24T12:04:50Z</time>
      </trkpt>
      <trkpt lat="44.2226" lon="5.61478">
        <ele>727</ele>
        <time>2019-05-24T12:04:51Z</time>
      </trkpt>
      <trkpt lat="44.22257" lon="5.61469">
        <ele>727</ele>
        <time>2019-05-24T12:04:52Z</time>
      </trkpt>
      <trkpt lat="44.22255" lon="5.61461">
        <ele>727</ele>
        <time>2019-05-24T12:04:53Z</time>
      </trkpt>
      <trkpt lat="44.22252" lon="5.61453">
        <ele>727</ele>
        <time>2019-05-24T12:04:54Z</time>
      </trkpt>
      <trkpt lat="44.2225" lon="5.61445">
        <ele>727</ele>
        <time>2019-05-24T12:04:55Z</time>
      </trkpt>
      <trkpt lat="44.22248" lon="5.61437">
        <ele>727</ele>
        <time>2019-05-24T12:04:56Z</time>
      </trkpt>
      <trkpt lat="44.22246" lon="5.61429">
        <ele>727</ele>
        <time>2019-05-24T12:04:57Z</time>
      </trkpt>
      <trkpt lat="44.22244" lon="5.6142">
        <ele>728</ele>
        <time>2019-05-24T12:04:58Z</time>
      </trkpt>
      <trkpt lat="44.22242" lon="5.61412">
        <ele>728</ele>
        <time>2019-05-24T12:04:59Z</time>
      </trkpt>
      <trkpt lat="44.2224" lon="5.61404">
        <ele>728</ele>
        <time>2019-05-24T12:05:00Z</time>
      </trkpt>
      <trkpt lat="44.22239" lon="5.61397">
        <ele>728</ele>
        <time>2019-05-24T12:05:01Z</time>
      </trkpt>
      <trkpt lat="44.22237" lon="5.61389">
        <ele>728</ele>
        <time>2019-05-24T12:05:02Z</time>
      </trkpt>
      <trkpt lat="44.22236" lon="5.61381">
        <ele>728</ele>
        <time>2019-05-24T12:05:03Z</time>
      </trkpt>
      <trkpt lat="44.22234" lon="5.61373">
        <ele>728</ele>
        <time>2019-05-24T12:05:04Z</time>
      </trkpt>
      <trkpt lat="44.22233" lon="5.61365">
        <ele>728</ele>
        <time>2019-05-24T12:05:05Z</time>
      </trkpt>
      <trkpt lat="44.22231" lon="5.61357">
        <ele>728</ele>
        <time>2019-05-24T12:05:06Z</time>
      </trkpt>
      <trkpt lat="44.22229" lon="5.61349">
        <ele>728</ele>
        <time>2019-05-24T12:05:07Z</time>
      </trkpt>
      <trkpt lat="44.22228" lon="5.61342">
        <ele>728</ele>
        <time>2019-05-24T12:05:08Z</time>
      </trkpt>
      <trkpt lat="44.22226" lon="5.61334">
        <ele>728</ele>
        <time>2019-05-24T12:05:09Z</time>
      </trkpt>
      <trkpt lat="44.22224" lon="5.61326">
        <ele>728</ele>
        <time>2019-05-24T12:05:10Z</time>
      </trkpt>
      <trkpt lat="44.22222" lon="5.61318">
        <ele>728</ele>
        <time>2019-05-24T12:05:11Z</time>
      </trkpt>
      <trkpt lat="44.2222" lon="5.61311">
        <ele>729</ele>
        <time>2019-05-24T12:05:12Z</time>
      </trkpt>
      <trkpt lat="44.22218" lon="5.61303">
        <ele>729</ele>
        <time>2019-05-24T12:05:13Z</time>
      </trkpt>
      <trkpt lat="44.22216" lon="5.61295">
        <ele>729</ele>
        <time>2019-05-24T12:05:14Z</time>
      </trkpt>
      <trkpt lat="44.22214" lon="5.61287">
        <ele>729</ele>
        <time>2019-05-24T12:05:15Z</time>
      </trkpt>
      <trkpt lat="44.22212" lon="5.61279">
        <ele>729</ele>
        <time>2019-05-24T12:05:16Z</time>
      </trkpt>
      <trkpt lat="44.2221" lon="5.61271">
        <ele>729</ele>
        <time>2019-05-24T12:05:17Z</time>
      </trkpt>
      <trkpt lat="44.22209" lon="5.61263">
        <ele>729</ele>
        <time>2019-05-24T12:05:18Z</time>
      </trkpt>
      <trkpt lat="44.22207" lon="5.61255">
        <ele>729</ele>
        <time>2019-05-24T12:05:19Z</time>
      </trkpt>
      <trkpt lat="44.22205" lon="5.61247">
        <ele>729</ele>
        <time>2019-05-24T12:05:20Z</time>
      </trkpt>
      <trkpt lat="44.22203" lon="5.61239">
        <ele>729</ele>
        <time>2019-05-24T12:05:21Z</time>
      </trkpt>
      <trkpt lat="44.22201" lon="5.61232">
        <ele>729</ele>
        <time>2019-05-24T12:05:22Z</time>
      </trkpt>
      <trkpt lat="44.22199" lon="5.61224">
        <ele>729</ele>
        <time>2019-05-24T12:05:23Z</time>
      </trkpt>
      <trkpt lat="44.22197" lon="5.61215">
        <ele>729</ele>
        <time>2019-05-24T12:05:24Z</time>
      </trkpt>
      <trkpt lat="44.22196" lon="5.61207">
        <ele>729</ele>
        <time>2019-05-24T12:05:25Z</time>
      </trkpt>
      <trkpt lat="44.22194" lon="5.61199">
        <ele>729</ele>
        <time>2019-05-24T12:05:26Z</time>
      </trkpt>
      <trkpt lat="44.22192" lon="5.61191">
        <ele>729</ele>
        <time>2019-05-24T12:05:27Z</time>
      </trkpt>
      <trkpt lat="44.2219" lon="5.61183">
        <ele>729</ele>
        <time>2019-05-24T12:05:28Z</time>
      </trkpt>
      <trkpt lat="44.22189" lon="5.61175">
        <ele>730</ele>
        <time>2019-05-24T12:05:29Z</time>
      </trkpt>
      <trkpt lat="44.22187" lon="5.61167">
        <ele>730</ele>
        <time>2019-05-24T12:05:30Z</time>
      </trkpt>
      <trkpt lat="44.22185" lon="5.61159">
        <ele>730</ele>
        <time>2019-05-24T12:05:31Z</time>
      </trkpt>
      <trkpt lat="44.22184" lon="5.61151">
        <ele>730</ele>
        <time>2019-05-24T12:05:32Z</time>
      </trkpt>
      <trkpt lat="44.22182" lon="5.61142">
        <ele>730</ele>
        <time>2019-05-24T12:05:33Z</time>
      </trkpt>
      <trkpt lat="44.22181" lon="5.61134">
        <ele>730</ele>
        <time>2019-05-24T12:05:34Z</time>
      </trkpt>
      <trkpt lat="44.2218" lon="5.61126">
        <ele>730</ele>
        <time>2019-05-24T12:05:35Z</time>
      </trkpt>
      <trkpt lat="44.22178" lon="5.61118">
        <ele>730</ele>
        <time>2019-05-24T12:05:36Z</time>
      </trkpt>
      <trkpt lat="44.22176" lon="5.61109">
        <ele>730</ele>
        <time>2019-05-24T12:05:37Z</time>
      </trkpt>
      <trkpt lat="44.22175" lon="5.61101">
        <ele>730</ele>
        <time>2019-05-24T12:05:38Z</time>
      </trkpt>
      <trkpt lat="44.22174" lon="5.61093">
        <ele>730</ele>
        <time>2019-05-24T12:05:39Z</time>
      </trkpt>
      <trkpt lat="44.22173" lon="5.61085">
        <ele>730</ele>
        <time>2019-05-24T12:05:40Z</time>
      </trkpt>
      <trkpt lat="44.22171" lon="5.61076">
        <ele>730</ele>
        <time>2019-05-24T12:05:41Z</time>
      </trkpt>
      <trkpt lat="44.2217" lon="5.61069">
        <ele>730</ele>
        <time>2019-05-24T12:05:42Z</time>
      </trkpt>
      <trkpt lat="44.22168" lon="5.61061">
        <ele>730</ele>
        <time>2019-05-24T12:05:43Z</time>
      </trkpt>
      <trkpt lat="44.22167" lon="5.61053">
        <ele>730</ele>
        <time>2019-05-24T12:05:44Z</time>
      </trkpt>
      <trkpt lat="44.22166" lon="5.61045">
        <ele>730</ele>
        <time>2019-05-24T12:05:45Z</time>
      </trkpt>
      <trkpt lat="44.22165" lon="5.61037">
        <ele>730</ele>
        <time>2019-05-24T12:05:46Z</time>
      </trkpt>
      <trkpt lat="44.22163" lon="5.61029">
        <ele>730</ele>
        <time>2019-05-24T12:05:47Z</time>
      </trkpt>
      <trkpt lat="44.22161" lon="5.61021">
        <ele>730</ele>
        <time>2019-05-24T12:05:48Z</time>
      </trkpt>
      <trkpt lat="44.2216" lon="5.61013">
        <ele>730</ele>
        <time>2019-05-24T12:05:49Z</time>
      </trkpt>
      <trkpt lat="44.22159" lon="5.61005">
        <ele>730</ele>
        <time>2019-05-24T12:05:50Z</time>
      </trkpt>
      <trkpt lat="44.22158" lon="5.60997">
        <ele>730</ele>
        <time>2019-05-24T12:05:51Z</time>
      </trkpt>
      <trkpt lat="44.22157" lon="5.60989">
        <ele>730</ele>
        <time>2019-05-24T12:05:52Z</time>
      </trkpt>
      <trkpt lat="44.22155" lon="5.60981">
        <ele>730</ele>
        <time>2019-05-24T12:05:53Z</time>
      </trkpt>
      <trkpt lat="44.22154" lon="5.60973">
        <ele>730</ele>
        <time>2019-05-24T12:05:54Z</time>
      </trkpt>
      <trkpt lat="44.22152" lon="5.60965">
        <ele>730</ele>
        <time>2019-05-24T12:05:55Z</time>
      </trkpt>
      <trkpt lat="44.22151" lon="5.60957">
        <ele>730</ele>
        <time>2019-05-24T12:05:56Z</time>
      </trkpt>
      <trkpt lat="44.2215" lon="5.60949">
        <ele>730</ele>
        <time>2019-05-24T12:05:57Z</time>
      </trkpt>
      <trkpt lat="44.22148" lon="5.60941">
        <ele>730</ele>
        <time>2019-05-24T12:05:58Z</time>
      </trkpt>
      <trkpt lat="44.22147" lon="5.60933">
        <ele>730</ele>
        <time>2019-05-24T12:05:59Z</time>
      </trkpt>
      <trkpt lat="44.22145" lon="5.60925">
        <ele>730</ele>
        <time>2019-05-24T12:06:00Z</time>
      </trkpt>
      <trkpt lat="44.22143" lon="5.60917">
        <ele>730</ele>
        <time>2019-05-24T12:06:01Z</time>
      </trkpt>
      <trkpt lat="44.22142" lon="5.60909">
        <ele>730</ele>
        <time>2019-05-24T12:06:02Z</time>
      </trkpt>
      <trkpt lat="44.22141" lon="5.60902">
        <ele>730</ele>
        <time>2019-05-24T12:06:03Z</time>
      </trkpt>
      <trkpt lat="44.22139" lon="5.60894">
        <ele>730</ele>
        <time>2019-05-24T12:06:04Z</time>
      </trkpt>
      <trkpt lat="44.22139" lon="5.60887">
        <ele>730</ele>
        <time>2019-05-24T12:06:05Z</time>
      </trkpt>
      <trkpt lat="44.22137" lon="5.60881">
        <ele>730</ele>
        <time>2019-05-24T12:06:06Z</time>
      </trkpt>
      <trkpt lat="44.22135" lon="5.60875">
        <ele>730</ele>
        <time>2019-05-24T12:06:07Z</time>
      </trkpt>
      <trkpt lat="44.22133" lon="5.6087">
        <ele>730</ele>
        <time>2019-05-24T12:06:08Z</time>
      </trkpt>
      <trkpt lat="44.22131" lon="5.60864">
        <ele>730</ele>
        <time>2019-05-24T12:06:09Z</time>
      </trkpt>
      <trkpt lat="44.22129" lon="5.60858">
        <ele>730</ele>
        <time>2019-05-24T12:06:10Z</time>
      </trkpt>
      <trkpt lat="44.22127" lon="5.60851">
        <ele>730</ele>
        <time>2019-05-24T12:06:11Z</time>
      </trkpt>
      <trkpt lat="44.22124" lon="5.60845">
        <ele>730</ele>
        <time>2019-05-24T12:06:12Z</time>
      </trkpt>
      <trkpt lat="44.22122" lon="5.60838">
        <ele>730</ele>
        <time>2019-05-24T12:06:13Z</time>
      </trkpt>
      <trkpt lat="44.2212" lon="5.60831">
        <ele>730</ele>
        <time>2019-05-24T12:06:14Z</time>
      </trkpt>
      <trkpt lat="44.22118" lon="5.60824">
        <ele>730</ele>
        <time>2019-05-24T12:06:15Z</time>
      </trkpt>
      <trkpt lat="44.22116" lon="5.60817">
        <ele>730</ele>
        <time>2019-05-24T12:06:16Z</time>
      </trkpt>
      <trkpt lat="44.22114" lon="5.6081">
        <ele>730</ele>
        <time>2019-05-24T12:06:17Z</time>
      </trkpt>
      <trkpt lat="44.22113" lon="5.60803">
        <ele>730</ele>
        <time>2019-05-24T12:06:18Z</time>
      </trkpt>
      <trkpt lat="44.22112" lon="5.60795">
        <ele>730</ele>
        <time>2019-05-24T12:06:19Z</time>
      </trkpt>
      <trkpt lat="44.22111" lon="5.60787">
        <ele>730</ele>
        <time>2019-05-24T12:06:20Z</time>
      </trkpt>
      <trkpt lat="44.2211" lon="5.6078">
        <ele>730</ele>
        <time>2019-05-24T12:06:21Z</time>
      </trkpt>
      <trkpt lat="44.2211" lon="5.60772">
        <ele>730</ele>
        <time>2019-05-24T12:06:22Z</time>
      </trkpt>
      <trkpt lat="44.2211" lon="5.60765">
        <ele>730</ele>
        <time>2019-05-24T12:06:23Z</time>
      </trkpt>
      <trkpt lat="44.2211" lon="5.60757">
        <ele>730</ele>
        <time>2019-05-24T12:06:24Z</time>
      </trkpt>
      <trkpt lat="44.22111" lon="5.6075">
        <ele>730</ele>
        <time>2019-05-24T12:06:25Z</time>
      </trkpt>
      <trkpt lat="44.22112" lon="5.60743">
        <ele>730</ele>
        <time>2019-05-24T12:06:26Z</time>
      </trkpt>
      <trkpt lat="44.22113" lon="5.60735">
        <ele>730</ele>
        <time>2019-05-24T12:06:27Z</time>
      </trkpt>
      <trkpt lat="44.22113" lon="5.60728">
        <ele>730</ele>
        <time>2019-05-24T12:06:28Z</time>
      </trkpt>
      <trkpt lat="44.22115" lon="5.60719">
        <ele>730</ele>
        <time>2019-05-24T12:06:29Z</time>
      </trkpt>
      <trkpt lat="44.22116" lon="5.60711">
        <ele>730</ele>
        <time>2019-05-24T12:06:30Z</time>
      </trkpt>
      <trkpt lat="44.22118" lon="5.60703">
        <ele>730</ele>
        <time>2019-05-24T12:06:31Z</time>
      </trkpt>
      <trkpt lat="44.2212" lon="5.60694">
        <ele>730</ele>
        <time>2019-05-24T12:06:32Z</time>
      </trkpt>
      <trkpt lat="44.22122" lon="5.60684">
        <ele>730</ele>
        <time>2019-05-24T12:06:33Z</time>
      </trkpt>
      <trkpt lat="44.22124" lon="5.60675">
        <ele>730</ele>
        <time>2019-05-24T12:06:34Z</time>
      </trkpt>
      <trkpt lat="44.22126" lon="5.60666">
        <ele>730</ele>
        <time>2019-05-24T12:06:35Z</time>
      </trkpt>
      <trkpt lat="44.22128" lon="5.60656">
        <ele>730</ele>
        <time>2019-05-24T12:06:36Z</time>
      </trkpt>
      <trkpt lat="44.22129" lon="5.60647">
        <ele>730</ele>
        <time>2019-05-24T12:06:37Z</time>
      </trkpt>
      <trkpt lat="44.22131" lon="5.60638">
        <ele>730</ele>
        <time>2019-05-24T12:06:38Z</time>
      </trkpt>
      <trkpt lat="44.22132" lon="5.60628">
        <ele>730</ele>
        <time>2019-05-24T12:06:39Z</time>
      </trkpt>
      <trkpt lat="44.22134" lon="5.60619">
        <ele>730</ele>
        <time>2019-05-24T12:06:40Z</time>
      </trkpt>
      <trkpt lat="44.22135" lon="5.6061">
        <ele>730</ele>
        <time>2019-05-24T12:06:41Z</time>
      </trkpt>
      <trkpt lat="44.22136" lon="5.60601">
        <ele>730</ele>
        <time>2019-05-24T12:06:42Z</time>
      </trkpt>
      <trkpt lat="44.22137" lon="5.60592">
        <ele>730</ele>
        <time>2019-05-24T12:06:43Z</time>
      </trkpt>
      <trkpt lat="44.22137" lon="5.60584">
        <ele>730</ele>
        <time>2019-05-24T12:06:44Z</time>
      </trkpt>
      <trkpt lat="44.22138" lon="5.60576">
        <ele>730</ele>
        <time>2019-05-24T12:06:45Z</time>
      </trkpt>
      <trkpt lat="44.22139" lon="5.60568">
        <ele>730</ele>
        <time>2019-05-24T12:06:46Z</time>
      </trkpt>
      <trkpt lat="44.22139" lon="5.60561">
        <ele>730</ele>
        <time>2019-05-24T12:06:47Z</time>
      </trkpt>
      <trkpt lat="44.2214" lon="5.60554">
        <ele>730</ele>
        <time>2019-05-24T12:06:48Z</time>
      </trkpt>
      <trkpt lat="44.22141" lon="5.60547">
        <ele>730</ele>
        <time>2019-05-24T12:06:49Z</time>
      </trkpt>
      <trkpt lat="44.22141" lon="5.60539">
        <ele>730</ele>
        <time>2019-05-24T12:06:50Z</time>
      </trkpt>
      <trkpt lat="44.22141" lon="5.60532">
        <ele>730</ele>
        <time>2019-05-24T12:06:51Z</time>
      </trkpt>
      <trkpt lat="44.22141" lon="5.60524">
        <ele>730</ele>
        <time>2019-05-24T12:06:52Z</time>
      </trkpt>
      <trkpt lat="44.22141" lon="5.60517">
        <ele>730</ele>
        <time>2019-05-24T12:06:53Z</time>
      </trkpt>
      <trkpt lat="44.22141" lon="5.60509">
        <ele>730</ele>
        <time>2019-05-24T12:06:54Z</time>
      </trkpt>
      <trkpt lat="44.22141" lon="5.60501">
        <ele>730</ele>
        <time>2019-05-24T12:06:55Z</time>
      </trkpt>
      <trkpt lat="44.22141" lon="5.60493">
        <ele>730</ele>
        <time>2019-05-24T12:06:57Z</time>
      </trkpt>
      <trkpt lat="44.2214" lon="5.60485">
        <ele>730</ele>
        <time>2019-05-24T12:06:57Z</time>
      </trkpt>
      <trkpt lat="44.22139" lon="5.60477">
        <ele>730</ele>
        <time>2019-05-24T12:06:58Z</time>
      </trkpt>
      <trkpt lat="44.22139" lon="5.60469">
        <ele>730</ele>
        <time>2019-05-24T12:06:59Z</time>
      </trkpt>
      <trkpt lat="44.22138" lon="5.60461">
        <ele>730</ele>
        <time>2019-05-24T12:07:00Z</time>
      </trkpt>
      <trkpt lat="44.22136" lon="5.60454">
        <ele>730</ele>
        <time>2019-05-24T12:07:01Z</time>
      </trkpt>
      <trkpt lat="44.22135" lon="5.60446">
        <ele>730</ele>
        <time>2019-05-24T12:07:02Z</time>
      </trkpt>
      <trkpt lat="44.22134" lon="5.60438">
        <ele>730</ele>
        <time>2019-05-24T12:07:03Z</time>
      </trkpt>
      <trkpt lat="44.22132" lon="5.60431">
        <ele>730</ele>
        <time>2019-05-24T12:07:04Z</time>
      </trkpt>
      <trkpt lat="44.22131" lon="5.60423">
        <ele>730</ele>
        <time>2019-05-24T12:07:05Z</time>
      </trkpt>
      <trkpt lat="44.22129" lon="5.60415">
        <ele>730</ele>
        <time>2019-05-24T12:07:06Z</time>
      </trkpt>
      <trkpt lat="44.22128" lon="5.60408">
        <ele>730</ele>
        <time>2019-05-24T12:07:07Z</time>
      </trkpt>
      <trkpt lat="44.22127" lon="5.604">
        <ele>730</ele>
        <time>2019-05-24T12:07:08Z</time>
      </trkpt>
      <trkpt lat="44.22125" lon="5.60393">
        <ele>730</ele>
        <time>2019-05-24T12:07:09Z</time>
      </trkpt>
      <trkpt lat="44.22124" lon="5.60385">
        <ele>730</ele>
        <time>2019-05-24T12:07:10Z</time>
      </trkpt>
      <trkpt lat="44.22123" lon="5.60378">
        <ele>730</ele>
        <time>2019-05-24T12:07:11Z</time>
      </trkpt>
      <trkpt lat="44.22121" lon="5.6037">
        <ele>730</ele>
        <time>2019-05-24T12:07:12Z</time>
      </trkpt>
      <trkpt lat="44.2212" lon="5.60363">
        <ele>730</ele>
        <time>2019-05-24T12:07:13Z</time>
      </trkpt>
      <trkpt lat="44.2212" lon="5.60356">
        <ele>730</ele>
        <time>2019-05-24T12:07:14Z</time>
      </trkpt>
      <trkpt lat="44.2212" lon="5.60348">
        <ele>730</ele>
        <time>2019-05-24T12:07:15Z</time>
      </trkpt>
      <trkpt lat="44.2212" lon="5.60341">
        <ele>730</ele>
        <time>2019-05-24T12:07:16Z</time>
      </trkpt>
      <trkpt lat="44.2212" lon="5.60333">
        <ele>730</ele>
        <time>2019-05-24T12:07:17Z</time>
      </trkpt>
      <trkpt lat="44.22121" lon="5.60325">
        <ele>730</ele>
        <time>2019-05-24T12:07:18Z</time>
      </trkpt>
      <trkpt lat="44.22121" lon="5.60317">
        <ele>730</ele>
        <time>2019-05-24T12:07:19Z</time>
      </trkpt>
      <trkpt lat="44.22122" lon="5.6031">
        <ele>730</ele>
        <time>2019-05-24T12:07:20Z</time>
      </trkpt>
      <trkpt lat="44.22123" lon="5.60302">
        <ele>730</ele>
        <time>2019-05-24T12:07:21Z</time>
      </trkpt>
      <trkpt lat="44.22124" lon="5.60294">
        <ele>730</ele>
        <time>2019-05-24T12:07:22Z</time>
      </trkpt>
      <trkpt lat="44.22124" lon="5.60286">
        <ele>730</ele>
        <time>2019-05-24T12:07:23Z</time>
      </trkpt>
      <trkpt lat="44.22125" lon="5.60278">
        <ele>730</ele>
        <time>2019-05-24T12:07:24Z</time>
      </trkpt>
      <trkpt lat="44.22126" lon="5.60271">
        <ele>730</ele>
        <time>2019-05-24T12:07:25Z</time>
      </trkpt>
      <trkpt lat="44.22127" lon="5.60263">
        <ele>730</ele>
        <time>2019-05-24T12:07:26Z</time>
      </trkpt>
      <trkpt lat="44.22128" lon="5.60255">
        <ele>730</ele>
        <time>2019-05-24T12:07:27Z</time>
      </trkpt>
      <trkpt lat="44.22128" lon="5.60248">
        <ele>730</ele>
        <time>2019-05-24T12:07:28Z</time>
      </trkpt>
      <trkpt lat="44.22129" lon="5.6024">
        <ele>730</ele>
        <time>2019-05-24T12:07:29Z</time>
      </trkpt>
      <trkpt lat="44.22129" lon="5.60232">
        <ele>730</ele>
        <time>2019-05-24T12:07:30Z</time>
      </trkpt>
      <trkpt lat="44.2213" lon="5.60225">
        <ele>730</ele>
        <time>2019-05-24T12:07:31Z</time>
      </trkpt>
      <trkpt lat="44.22131" lon="5.60218">
        <ele>730</ele>
        <time>2019-05-24T12:07:32Z</time>
      </trkpt>
      <trkpt lat="44.22131" lon="5.6021">
        <ele>730</ele>
        <time>2019-05-24T12:07:33Z</time>
      </trkpt>
      <trkpt lat="44.22132" lon="5.60202">
        <ele>730</ele>
        <time>2019-05-24T12:07:34Z</time>
      </trkpt>
      <trkpt lat="44.22133" lon="5.60194">
        <ele>730</ele>
        <time>2019-05-24T12:07:35Z</time>
      </trkpt>
      <trkpt lat="44.22134" lon="5.60186">
        <ele>730</ele>
        <time>2019-05-24T12:07:36Z</time>
      </trkpt>
      <trkpt lat="44.22134" lon="5.60179">
        <ele>730</ele>
        <time>2019-05-24T12:07:37Z</time>
      </trkpt>
      <trkpt lat="44.22135" lon="5.60172">
        <ele>730</ele>
        <time>2019-05-24T12:07:38Z</time>
      </trkpt>
      <trkpt lat="44.22135" lon="5.60164">
        <ele>730</ele>
        <time>2019-05-24T12:07:39Z</time>
      </trkpt>
      <trkpt lat="44.22136" lon="5.60156">
        <ele>730</ele>
        <time>2019-05-24T12:07:40Z</time>
      </trkpt>
      <trkpt lat="44.22136" lon="5.60149">
        <ele>730</ele>
        <time>2019-05-24T12:07:41Z</time>
      </trkpt>
      <trkpt lat="44.22137" lon="5.60142">
        <ele>730</ele>
        <time>2019-05-24T12:07:42Z</time>
      </trkpt>
      <trkpt lat="44.22137" lon="5.60134">
        <ele>730</ele>
        <time>2019-05-24T12:07:43Z</time>
      </trkpt>
      <trkpt lat="44.22137" lon="5.60126">
        <ele>730</ele>
        <time>2019-05-24T12:07:44Z</time>
      </trkpt>
      <trkpt lat="44.22137" lon="5.60119">
        <ele>730</ele>
        <time>2019-05-24T12:07:45Z</time>
      </trkpt>
      <trkpt lat="44.22138" lon="5.60111">
        <ele>730</ele>
        <time>2019-05-24T12:07:46Z</time>
      </trkpt>
      <trkpt lat="44.22138" lon="5.60104">
        <ele>730</ele>
        <time>2019-05-24T12:07:47Z</time>
      </trkpt>
      <trkpt lat="44.22138" lon="5.60096">
        <ele>730</ele>
        <time>2019-05-24T12:07:48Z</time>
      </trkpt>
      <trkpt lat="44.22138" lon="5.60088">
        <ele>730</ele>
        <time>2019-05-24T12:07:49Z</time>
      </trkpt>
      <trkpt lat="44.22138" lon="5.6008">
        <ele>730</ele>
        <time>2019-05-24T12:07:50Z</time>
      </trkpt>
      <trkpt lat="44.22139" lon="5.60072">
        <ele>730</ele>
        <time>2019-05-24T12:07:51Z</time>
      </trkpt>
      <trkpt lat="44.22139" lon="5.60064">
        <ele>730</ele>
        <time>2019-05-24T12:07:52Z</time>
      </trkpt>
      <trkpt lat="44.22139" lon="5.60055">
        <ele>730</ele>
        <time>2019-05-24T12:07:53Z</time>
      </trkpt>
      <trkpt lat="44.22139" lon="5.60047">
        <ele>730</ele>
        <time>2019-05-24T12:07:54Z</time>
      </trkpt>
      <trkpt lat="44.22139" lon="5.6004">
        <ele>730</ele>
        <time>2019-05-24T12:07:55Z</time>
      </trkpt>
      <trkpt lat="44.22138" lon="5.60032">
        <ele>730</ele>
        <time>2019-05-24T12:07:56Z</time>
      </trkpt>
      <trkpt lat="44.22138" lon="5.60024">
        <ele>730</ele>
        <time>2019-05-24T12:07:57Z</time>
      </trkpt>
      <trkpt lat="44.22138" lon="5.60016">
        <ele>731</ele>
        <time>2019-05-24T12:07:58Z</time>
      </trkpt>
      <trkpt lat="44.22138" lon="5.60008">
        <ele>731</ele>
        <time>2019-05-24T12:07:59Z</time>
      </trkpt>
      <trkpt lat="44.22139" lon="5.6">
        <ele>731</ele>
        <time>2019-05-24T12:08:00Z</time>
      </trkpt>
      <trkpt lat="44.22139" lon="5.59992">
        <ele>732</ele>
        <time>2019-05-24T12:08:01Z</time>
      </trkpt>
      <trkpt lat="44.22139" lon="5.59984">
        <ele>732</ele>
        <time>2019-05-24T12:08:02Z</time>
      </trkpt>
      <trkpt lat="44.22139" lon="5.59976">
        <ele>732</ele>
        <time>2019-05-24T12:08:03Z</time>
      </trkpt>
      <trkpt lat="44.22139" lon="5.59968">
        <ele>732</ele>
        <time>2019-05-24T12:08:04Z</time>
      </trkpt>
      <trkpt lat="44.22139" lon="5.5996">
        <ele>732</ele>
        <time>2019-05-24T12:08:05Z</time>
      </trkpt>
      <trkpt lat="44.22139" lon="5.59952">
        <ele>732</ele>
        <time>2019-05-24T12:08:06Z</time>
      </trkpt>
      <trkpt lat="44.22139" lon="5.59944">
        <ele>732</ele>
        <time>2019-05-24T12:08:07Z</time>
      </trkpt>
      <trkpt lat="44.22139" lon="5.59936">
        <ele>732</ele>
        <time>2019-05-24T12:08:08Z</time>
      </trkpt>
      <trkpt lat="44.22139" lon="5.59928">
        <ele>732</ele>
        <time>2019-05-24T12:08:09Z</time>
      </trkpt>
      <trkpt lat="44.22138" lon="5.5992">
        <ele>733</ele>
        <time>2019-05-24T12:08:10Z</time>
      </trkpt>
      <trkpt lat="44.22138" lon="5.59912">
        <ele>733</ele>
        <time>2019-05-24T12:08:11Z</time>
      </trkpt>
      <trkpt lat="44.22138" lon="5.59904">
        <ele>733</ele>
        <time>2019-05-24T12:08:12Z</time>
      </trkpt>
      <trkpt lat="44.22137" lon="5.59896">
        <ele>733</ele>
        <time>2019-05-24T12:08:13Z</time>
      </trkpt>
      <trkpt lat="44.22137" lon="5.59888">
        <ele>733</ele>
        <time>2019-05-24T12:08:14Z</time>
      </trkpt>
      <trkpt lat="44.22136" lon="5.59879">
        <ele>733</ele>
        <time>2019-05-24T12:08:15Z</time>
      </trkpt>
      <trkpt lat="44.22136" lon="5.59871">
        <ele>733</ele>
        <time>2019-05-24T12:08:16Z</time>
      </trkpt>
      <trkpt lat="44.22136" lon="5.59863">
        <ele>733</ele>
        <time>2019-05-24T12:08:17Z</time>
      </trkpt>
      <trkpt lat="44.22135" lon="5.59854">
        <ele>734</ele>
        <time>2019-05-24T12:08:18Z</time>
      </trkpt>
      <trkpt lat="44.22134" lon="5.59846">
        <ele>734</ele>
        <time>2019-05-24T12:08:19Z</time>
      </trkpt>
      <trkpt lat="44.22134" lon="5.59837">
        <ele>734</ele>
        <time>2019-05-24T12:08:20Z</time>
      </trkpt>
      <trkpt lat="44.22134" lon="5.59829">
        <ele>734</ele>
        <time>2019-05-24T12:08:21Z</time>
      </trkpt>
      <trkpt lat="44.22134" lon="5.5982">
        <ele>734</ele>
        <time>2019-05-24T12:08:22Z</time>
      </trkpt>
      <trkpt lat="44.22134" lon="5.59811">
        <ele>734</ele>
        <time>2019-05-24T12:08:23Z</time>
      </trkpt>
      <trkpt lat="44.22134" lon="5.59803">
        <ele>734</ele>
        <time>2019-05-24T12:08:24Z</time>
      </trkpt>
      <trkpt lat="44.22134" lon="5.59794">
        <ele>734</ele>
        <time>2019-05-24T12:08:25Z</time>
      </trkpt>
      <trkpt lat="44.22134" lon="5.59785">
        <ele>734</ele>
        <time>2019-05-24T12:08:26Z</time>
      </trkpt>
      <trkpt lat="44.22134" lon="5.59776">
        <ele>734</ele>
        <time>2019-05-24T12:08:27Z</time>
      </trkpt>
      <trkpt lat="44.22134" lon="5.59768">
        <ele>734</ele>
        <time>2019-05-24T12:08:28Z</time>
      </trkpt>
      <trkpt lat="44.22135" lon="5.5976">
        <ele>734</ele>
        <time>2019-05-24T12:08:29Z</time>
      </trkpt>
      <trkpt lat="44.22136" lon="5.59751">
        <ele>735</ele>
        <time>2019-05-24T12:08:30Z</time>
      </trkpt>
      <trkpt lat="44.22137" lon="5.59743">
        <ele>735</ele>
        <time>2019-05-24T12:08:31Z</time>
      </trkpt>
      <trkpt lat="44.22138" lon="5.59735">
        <ele>735</ele>
        <time>2019-05-24T12:08:32Z</time>
      </trkpt>
      <trkpt lat="44.22139" lon="5.59727">
        <ele>736</ele>
        <time>2019-05-24T12:08:33Z</time>
      </trkpt>
      <trkpt lat="44.2214" lon="5.59719">
        <ele>736</ele>
        <time>2019-05-24T12:08:34Z</time>
      </trkpt>
      <trkpt lat="44.22141" lon="5.59712">
        <ele>736</ele>
        <time>2019-05-24T12:08:35Z</time>
      </trkpt>
      <trkpt lat="44.22142" lon="5.59704">
        <ele>736</ele>
        <time>2019-05-24T12:08:36Z</time>
      </trkpt>
      <trkpt lat="44.22144" lon="5.59696">
        <ele>736</ele>
        <time>2019-05-24T12:08:37Z</time>
      </trkpt>
      <trkpt lat="44.22145" lon="5.59688">
        <ele>736</ele>
        <time>2019-05-24T12:08:38Z</time>
      </trkpt>
      <trkpt lat="44.22146" lon="5.59681">
        <ele>736</ele>
        <time>2019-05-24T12:08:39Z</time>
      </trkpt>
      <trkpt lat="44.22147" lon="5.59673">
        <ele>736</ele>
        <time>2019-05-24T12:08:40Z</time>
      </trkpt>
      <trkpt lat="44.22148" lon="5.59665">
        <ele>736</ele>
        <time>2019-05-24T12:08:41Z</time>
      </trkpt>
      <trkpt lat="44.22149" lon="5.59656">
        <ele>736</ele>
        <time>2019-05-24T12:08:42Z</time>
      </trkpt>
      <trkpt lat="44.22149" lon="5.59649">
        <ele>736</ele>
        <time>2019-05-24T12:08:43Z</time>
      </trkpt>
      <trkpt lat="44.22149" lon="5.5964">
        <ele>736</ele>
        <time>2019-05-24T12:08:44Z</time>
      </trkpt>
      <trkpt lat="44.22149" lon="5.59632">
        <ele>736</ele>
        <time>2019-05-24T12:08:45Z</time>
      </trkpt>
      <trkpt lat="44.22149" lon="5.59624">
        <ele>736</ele>
        <time>2019-05-24T12:08:46Z</time>
      </trkpt>
      <trkpt lat="44.22148" lon="5.59617">
        <ele>736</ele>
        <time>2019-05-24T12:08:47Z</time>
      </trkpt>
      <trkpt lat="44.22147" lon="5.59609">
        <ele>736</ele>
        <time>2019-05-24T12:08:48Z</time>
      </trkpt>
      <trkpt lat="44.22146" lon="5.59601">
        <ele>736</ele>
        <time>2019-05-24T12:08:49Z</time>
      </trkpt>
      <trkpt lat="44.22145" lon="5.59592">
        <ele>736</ele>
        <time>2019-05-24T12:08:50Z</time>
      </trkpt>
      <trkpt lat="44.22144" lon="5.59585">
        <ele>736</ele>
        <time>2019-05-24T12:08:51Z</time>
      </trkpt>
      <trkpt lat="44.22142" lon="5.59577">
        <ele>736</ele>
        <time>2019-05-24T12:08:52Z</time>
      </trkpt>
      <trkpt lat="44.22141" lon="5.59569">
        <ele>736</ele>
        <time>2019-05-24T12:08:53Z</time>
      </trkpt>
      <trkpt lat="44.2214" lon="5.5956">
        <ele>736</ele>
        <time>2019-05-24T12:08:54Z</time>
      </trkpt>
      <trkpt lat="44.22138" lon="5.59552">
        <ele>736</ele>
        <time>2019-05-24T12:08:55Z</time>
      </trkpt>
      <trkpt lat="44.22137" lon="5.59544">
        <ele>736</ele>
        <time>2019-05-24T12:08:56Z</time>
      </trkpt>
      <trkpt lat="44.22135" lon="5.59536">
        <ele>736</ele>
        <time>2019-05-24T12:08:57Z</time>
      </trkpt>
      <trkpt lat="44.22134" lon="5.59528">
        <ele>736</ele>
        <time>2019-05-24T12:08:58Z</time>
      </trkpt>
      <trkpt lat="44.22133" lon="5.5952">
        <ele>736</ele>
        <time>2019-05-24T12:08:59Z</time>
      </trkpt>
      <trkpt lat="44.22132" lon="5.59513">
        <ele>736</ele>
        <time>2019-05-24T12:09:00Z</time>
      </trkpt>
      <trkpt lat="44.2213" lon="5.59505">
        <ele>736</ele>
        <time>2019-05-24T12:09:01Z</time>
      </trkpt>
      <trkpt lat="44.22129" lon="5.59497">
        <ele>736</ele>
        <time>2019-05-24T12:09:02Z</time>
      </trkpt>
      <trkpt lat="44.22128" lon="5.5949">
        <ele>736</ele>
        <time>2019-05-24T12:09:03Z</time>
      </trkpt>
      <trkpt lat="44.22126" lon="5.59482">
        <ele>736</ele>
        <time>2019-05-24T12:09:04Z</time>
      </trkpt>
      <trkpt lat="44.22125" lon="5.59475">
        <ele>736</ele>
        <time>2019-05-24T12:09:05Z</time>
      </trkpt>
      <trkpt lat="44.22124" lon="5.59467">
        <ele>736</ele>
        <time>2019-05-24T12:09:06Z</time>
      </trkpt>
      <trkpt lat="44.22123" lon="5.5946">
        <ele>736</ele>
        <time>2019-05-24T12:09:07Z</time>
      </trkpt>
      <trkpt lat="44.22121" lon="5.59452">
        <ele>736</ele>
        <time>2019-05-24T12:09:08Z</time>
      </trkpt>
      <trkpt lat="44.2212" lon="5.59445">
        <ele>736</ele>
        <time>2019-05-24T12:09:09Z</time>
      </trkpt>
      <trkpt lat="44.22119" lon="5.59438">
        <ele>736</ele>
        <time>2019-05-24T12:09:10Z</time>
      </trkpt>
      <trkpt lat="44.22118" lon="5.5943">
        <ele>736</ele>
        <time>2019-05-24T12:09:11Z</time>
      </trkpt>
      <trkpt lat="44.22117" lon="5.59423">
        <ele>736</ele>
        <time>2019-05-24T12:09:12Z</time>
      </trkpt>
      <trkpt lat="44.22115" lon="5.59416">
        <ele>736</ele>
        <time>2019-05-24T12:09:13Z</time>
      </trkpt>
      <trkpt lat="44.22114" lon="5.59409">
        <ele>736</ele>
        <time>2019-05-24T12:09:14Z</time>
      </trkpt>
      <trkpt lat="44.22113" lon="5.59402">
        <ele>736</ele>
        <time>2019-05-24T12:09:15Z</time>
      </trkpt>
      <trkpt lat="44.22112" lon="5.59394">
        <ele>736</ele>
        <time>2019-05-24T12:09:16Z</time>
      </trkpt>
      <trkpt lat="44.2211" lon="5.59386">
        <ele>736</ele>
        <time>2019-05-24T12:09:17Z</time>
      </trkpt>
      <trkpt lat="44.22109" lon="5.59378">
        <ele>736</ele>
        <time>2019-05-24T12:09:18Z</time>
      </trkpt>
      <trkpt lat="44.22108" lon="5.5937">
        <ele>736</ele>
        <time>2019-05-24T12:09:19Z</time>
      </trkpt>
      <trkpt lat="44.22106" lon="5.59362">
        <ele>736</ele>
        <time>2019-05-24T12:09:20Z</time>
      </trkpt>
      <trkpt lat="44.22105" lon="5.59354">
        <ele>736</ele>
        <time>2019-05-24T12:09:21Z</time>
      </trkpt>
      <trkpt lat="44.22103" lon="5.59346">
        <ele>736</ele>
        <time>2019-05-24T12:09:22Z</time>
      </trkpt>
      <trkpt lat="44.22102" lon="5.59338">
        <ele>736</ele>
        <time>2019-05-24T12:09:23Z</time>
      </trkpt>
      <trkpt lat="44.221" lon="5.5933">
        <ele>736</ele>
        <time>2019-05-24T12:09:24Z</time>
      </trkpt>
      <trkpt lat="44.22099" lon="5.59322">
        <ele>736</ele>
        <time>2019-05-24T12:09:25Z</time>
      </trkpt>
      <trkpt lat="44.22098" lon="5.59314">
        <ele>737</ele>
        <time>2019-05-24T12:09:26Z</time>
      </trkpt>
      <trkpt lat="44.22097" lon="5.59306">
        <ele>737</ele>
        <time>2019-05-24T12:09:27Z</time>
      </trkpt>
      <trkpt lat="44.22095" lon="5.59298">
        <ele>737</ele>
        <time>2019-05-24T12:09:28Z</time>
      </trkpt>
      <trkpt lat="44.22094" lon="5.5929">
        <ele>737</ele>
        <time>2019-05-24T12:09:29Z</time>
      </trkpt>
      <trkpt lat="44.22092" lon="5.59282">
        <ele>737</ele>
        <time>2019-05-24T12:09:30Z</time>
      </trkpt>
      <trkpt lat="44.22091" lon="5.59274">
        <ele>737</ele>
        <time>2019-05-24T12:09:31Z</time>
      </trkpt>
      <trkpt lat="44.2209" lon="5.59266">
        <ele>737</ele>
        <time>2019-05-24T12:09:32Z</time>
      </trkpt>
      <trkpt lat="44.22089" lon="5.59259">
        <ele>738</ele>
        <time>2019-05-24T12:09:33Z</time>
      </trkpt>
      <trkpt lat="44.22087" lon="5.59251">
        <ele>738</ele>
        <time>2019-05-24T12:09:34Z</time>
      </trkpt>
      <trkpt lat="44.22086" lon="5.59243">
        <ele>738</ele>
        <time>2019-05-24T12:09:35Z</time>
      </trkpt>
      <trkpt lat="44.22085" lon="5.59235">
        <ele>738</ele>
        <time>2019-05-24T12:09:36Z</time>
      </trkpt>
      <trkpt lat="44.22083" lon="5.59227">
        <ele>738</ele>
        <time>2019-05-24T12:09:37Z</time>
      </trkpt>
      <trkpt lat="44.22082" lon="5.59219">
        <ele>738</ele>
        <time>2019-05-24T12:09:38Z</time>
      </trkpt>
      <trkpt lat="44.22081" lon="5.59212">
        <ele>738</ele>
        <time>2019-05-24T12:09:39Z</time>
      </trkpt>
      <trkpt lat="44.2208" lon="5.59204">
        <ele>739</ele>
        <time>2019-05-24T12:09:40Z</time>
      </trkpt>
      <trkpt lat="44.22079" lon="5.59196">
        <ele>739</ele>
        <time>2019-05-24T12:09:41Z</time>
      </trkpt>
      <trkpt lat="44.22079" lon="5.59188">
        <ele>739</ele>
        <time>2019-05-24T12:09:42Z</time>
      </trkpt>
      <trkpt lat="44.22078" lon="5.5918">
        <ele>739</ele>
        <time>2019-05-24T12:09:43Z</time>
      </trkpt>
      <trkpt lat="44.22078" lon="5.59173">
        <ele>739</ele>
        <time>2019-05-24T12:09:44Z</time>
      </trkpt>
      <trkpt lat="44.22078" lon="5.59165">
        <ele>739</ele>
        <time>2019-05-24T12:09:45Z</time>
      </trkpt>
      <trkpt lat="44.22078" lon="5.59157">
        <ele>739</ele>
        <time>2019-05-24T12:09:46Z</time>
      </trkpt>
      <trkpt lat="44.22078" lon="5.5915">
        <ele>740</ele>
        <time>2019-05-24T12:09:47Z</time>
      </trkpt>
      <trkpt lat="44.22078" lon="5.59142">
        <ele>740</ele>
        <time>2019-05-24T12:09:48Z</time>
      </trkpt>
      <trkpt lat="44.22078" lon="5.59135">
        <ele>740</ele>
        <time>2019-05-24T12:09:49Z</time>
      </trkpt>
      <trkpt lat="44.22079" lon="5.59127">
        <ele>740</ele>
        <time>2019-05-24T12:09:50Z</time>
      </trkpt>
      <trkpt lat="44.22079" lon="5.5912">
        <ele>740</ele>
        <time>2019-05-24T12:09:51Z</time>
      </trkpt>
      <trkpt lat="44.2208" lon="5.59112">
        <ele>740</ele>
        <time>2019-05-24T12:09:52Z</time>
      </trkpt>
      <trkpt lat="44.22081" lon="5.59104">
        <ele>740</ele>
        <time>2019-05-24T12:09:53Z</time>
      </trkpt>
      <trkpt lat="44.22082" lon="5.59097">
        <ele>741</ele>
        <time>2019-05-24T12:09:54Z</time>
      </trkpt>
      <trkpt lat="44.22083" lon="5.5909">
        <ele>741</ele>
        <time>2019-05-24T12:09:55Z</time>
      </trkpt>
      <trkpt lat="44.22084" lon="5.59082">
        <ele>741</ele>
        <time>2019-05-24T12:09:56Z</time>
      </trkpt>
      <trkpt lat="44.22086" lon="5.59075">
        <ele>741</ele>
        <time>2019-05-24T12:09:57Z</time>
      </trkpt>
      <trkpt lat="44.22087" lon="5.59068">
        <ele>741</ele>
        <time>2019-05-24T12:09:58Z</time>
      </trkpt>
      <trkpt lat="44.22089" lon="5.59061">
        <ele>741</ele>
        <time>2019-05-24T12:09:59Z</time>
      </trkpt>
      <trkpt lat="44.2209" lon="5.59054">
        <ele>741</ele>
        <time>2019-05-24T12:10:00Z</time>
      </trkpt>
      <trkpt lat="44.22092" lon="5.59047">
        <ele>741</ele>
        <time>2019-05-24T12:10:01Z</time>
      </trkpt>
      <trkpt lat="44.22093" lon="5.5904">
        <ele>741</ele>
        <time>2019-05-24T12:10:02Z</time>
      </trkpt>
      <trkpt lat="44.22095" lon="5.59033">
        <ele>741</ele>
        <time>2019-05-24T12:10:03Z</time>
      </trkpt>
      <trkpt lat="44.22097" lon="5.59026">
        <ele>741</ele>
        <time>2019-05-24T12:10:04Z</time>
      </trkpt>
      <trkpt lat="44.22098" lon="5.59019">
        <ele>742</ele>
        <time>2019-05-24T12:10:05Z</time>
      </trkpt>
      <trkpt lat="44.221" lon="5.59013">
        <ele>742</ele>
        <time>2019-05-24T12:10:06Z</time>
      </trkpt>
      <trkpt lat="44.22101" lon="5.59006">
        <ele>742</ele>
        <time>2019-05-24T12:10:07Z</time>
      </trkpt>
      <trkpt lat="44.22102" lon="5.58999">
        <ele>742</ele>
        <time>2019-05-24T12:10:08Z</time>
      </trkpt>
      <trkpt lat="44.22104" lon="5.58992">
        <ele>742</ele>
        <time>2019-05-24T12:10:09Z</time>
      </trkpt>
      <trkpt lat="44.22104" lon="5.58985">
        <ele>742</ele>
        <time>2019-05-24T12:10:10Z</time>
      </trkpt>
      <trkpt lat="44.22105" lon="5.58978">
        <ele>742</ele>
        <time>2019-05-24T12:10:11Z</time>
      </trkpt>
      <trkpt lat="44.22106" lon="5.5897">
        <ele>742</ele>
        <time>2019-05-24T12:10:12Z</time>
      </trkpt>
      <trkpt lat="44.22107" lon="5.58963">
        <ele>742</ele>
        <time>2019-05-24T12:10:13Z</time>
      </trkpt>
      <trkpt lat="44.22107" lon="5.58956">
        <ele>742</ele>
        <time>2019-05-24T12:10:14Z</time>
      </trkpt>
      <trkpt lat="44.22107" lon="5.58949">
        <ele>743</ele>
        <time>2019-05-24T12:10:15Z</time>
      </trkpt>
      <trkpt lat="44.22107" lon="5.58942">
        <ele>743</ele>
        <time>2019-05-24T12:10:16Z</time>
      </trkpt>
      <trkpt lat="44.22107" lon="5.58935">
        <ele>743</ele>
        <time>2019-05-24T12:10:17Z</time>
      </trkpt>
      <trkpt lat="44.22107" lon="5.58927">
        <ele>743</ele>
        <time>2019-05-24T12:10:18Z</time>
      </trkpt>
      <trkpt lat="44.22107" lon="5.5892">
        <ele>743</ele>
        <time>2019-05-24T12:10:19Z</time>
      </trkpt>
      <trkpt lat="44.22108" lon="5.58913">
        <ele>743</ele>
        <time>2019-05-24T12:10:20Z</time>
      </trkpt>
      <trkpt lat="44.22107" lon="5.58905">
        <ele>743</ele>
        <time>2019-05-24T12:10:21Z</time>
      </trkpt>
      <trkpt lat="44.22107" lon="5.58898">
        <ele>743</ele>
        <time>2019-05-24T12:10:22Z</time>
      </trkpt>
      <trkpt lat="44.22107" lon="5.58891">
        <ele>743</ele>
        <time>2019-05-24T12:10:23Z</time>
      </trkpt>
      <trkpt lat="44.22107" lon="5.58884">
        <ele>744</ele>
        <time>2019-05-24T12:10:24Z</time>
      </trkpt>
      <trkpt lat="44.22107" lon="5.58877">
        <ele>744</ele>
        <time>2019-05-24T12:10:25Z</time>
      </trkpt>
      <trkpt lat="44.22107" lon="5.5887">
        <ele>744</ele>
        <time>2019-05-24T12:10:26Z</time>
      </trkpt>
      <trkpt lat="44.22107" lon="5.58862">
        <ele>744</ele>
        <time>2019-05-24T12:10:27Z</time>
      </trkpt>
      <trkpt lat="44.22107" lon="5.58855">
        <ele>744</ele>
        <time>2019-05-24T12:10:28Z</time>
      </trkpt>
      <trkpt lat="44.22107" lon="5.58849">
        <ele>744</ele>
        <time>2019-05-24T12:10:29Z</time>
      </trkpt>
      <trkpt lat="44.22107" lon="5.58843">
        <ele>744</ele>
        <time>2019-05-24T12:10:30Z</time>
      </trkpt>
      <trkpt lat="44.22106" lon="5.58836">
        <ele>745</ele>
        <time>2019-05-24T12:10:31Z</time>
      </trkpt>
      <trkpt lat="44.22106" lon="5.58829">
        <ele>745</ele>
        <time>2019-05-24T12:10:32Z</time>
      </trkpt>
      <trkpt lat="44.22106" lon="5.58822">
        <ele>745</ele>
        <time>2019-05-24T12:10:33Z</time>
      </trkpt>
      <trkpt lat="44.22106" lon="5.58815">
        <ele>745</ele>
        <time>2019-05-24T12:10:34Z</time>
      </trkpt>
      <trkpt lat="44.22107" lon="5.58808">
        <ele>746</ele>
        <time>2019-05-24T12:10:35Z</time>
      </trkpt>
      <trkpt lat="44.22107" lon="5.58802">
        <ele>746</ele>
        <time>2019-05-24T12:10:36Z</time>
      </trkpt>
      <trkpt lat="44.22107" lon="5.58795">
        <ele>746</ele>
        <time>2019-05-24T12:10:37Z</time>
      </trkpt>
      <trkpt lat="44.22107" lon="5.58788">
        <ele>746</ele>
        <time>2019-05-24T12:10:38Z</time>
      </trkpt>
      <trkpt lat="44.22107" lon="5.5878">
        <ele>746</ele>
        <time>2019-05-24T12:10:39Z</time>
      </trkpt>
      <trkpt lat="44.22107" lon="5.58773">
        <ele>746</ele>
        <time>2019-05-24T12:10:40Z</time>
      </trkpt>
      <trkpt lat="44.22106" lon="5.58766">
        <ele>746</ele>
        <time>2019-05-24T12:10:41Z</time>
      </trkpt>
      <trkpt lat="44.22106" lon="5.58758">
        <ele>746</ele>
        <time>2019-05-24T12:10:42Z</time>
      </trkpt>
      <trkpt lat="44.22106" lon="5.58751">
        <ele>746</ele>
        <time>2019-05-24T12:10:43Z</time>
      </trkpt>
      <trkpt lat="44.22106" lon="5.58743">
        <ele>746</ele>
        <time>2019-05-24T12:10:44Z</time>
      </trkpt>
      <trkpt lat="44.22106" lon="5.58736">
        <ele>746</ele>
        <time>2019-05-24T12:10:45Z</time>
      </trkpt>
      <trkpt lat="44.22106" lon="5.58729">
        <ele>746</ele>
        <time>2019-05-24T12:10:46Z</time>
      </trkpt>
      <trkpt lat="44.22105" lon="5.58721">
        <ele>746</ele>
        <time>2019-05-24T12:10:47Z</time>
      </trkpt>
      <trkpt lat="44.22105" lon="5.58714">
        <ele>746</ele>
        <time>2019-05-24T12:10:48Z</time>
      </trkpt>
      <trkpt lat="44.22105" lon="5.58707">
        <ele>746</ele>
        <time>2019-05-24T12:10:49Z</time>
      </trkpt>
      <trkpt lat="44.22105" lon="5.587">
        <ele>746</ele>
        <time>2019-05-24T12:10:50Z</time>
      </trkpt>
      <trkpt lat="44.22105" lon="5.58692">
        <ele>747</ele>
        <time>2019-05-24T12:10:51Z</time>
      </trkpt>
      <trkpt lat="44.22105" lon="5.58685">
        <ele>747</ele>
        <time>2019-05-24T12:10:52Z</time>
      </trkpt>
      <trkpt lat="44.22105" lon="5.58678">
        <ele>747</ele>
        <time>2019-05-24T12:10:53Z</time>
      </trkpt>
      <trkpt lat="44.22105" lon="5.58671">
        <ele>747</ele>
        <time>2019-05-24T12:10:54Z</time>
      </trkpt>
      <trkpt lat="44.22105" lon="5.58664">
        <ele>747</ele>
        <time>2019-05-24T12:10:55Z</time>
      </trkpt>
      <trkpt lat="44.22105" lon="5.58657">
        <ele>747</ele>
        <time>2019-05-24T12:10:56Z</time>
      </trkpt>
      <trkpt lat="44.22105" lon="5.5865">
        <ele>748</ele>
        <time>2019-05-24T12:10:57Z</time>
      </trkpt>
      <trkpt lat="44.22105" lon="5.58643">
        <ele>748</ele>
        <time>2019-05-24T12:10:58Z</time>
      </trkpt>
      <trkpt lat="44.22105" lon="5.58637">
        <ele>748</ele>
        <time>2019-05-24T12:10:59Z</time>
      </trkpt>
      <trkpt lat="44.22104" lon="5.5863">
        <ele>748</ele>
        <time>2019-05-24T12:11:00Z</time>
      </trkpt>
      <trkpt lat="44.22104" lon="5.58624">
        <ele>748</ele>
        <time>2019-05-24T12:11:01Z</time>
      </trkpt>
      <trkpt lat="44.22104" lon="5.58617">
        <ele>748</ele>
        <time>2019-05-24T12:11:02Z</time>
      </trkpt>
      <trkpt lat="44.22104" lon="5.5861">
        <ele>748</ele>
        <time>2019-05-24T12:11:03Z</time>
      </trkpt>
      <trkpt lat="44.22104" lon="5.58603">
        <ele>748</ele>
        <time>2019-05-24T12:11:04Z</time>
      </trkpt>
      <trkpt lat="44.22104" lon="5.58597">
        <ele>748</ele>
        <time>2019-05-24T12:11:05Z</time>
      </trkpt>
      <trkpt lat="44.22104" lon="5.5859">
        <ele>749</ele>
        <time>2019-05-24T12:11:06Z</time>
      </trkpt>
      <trkpt lat="44.22104" lon="5.58583">
        <ele>749</ele>
        <time>2019-05-24T12:11:07Z</time>
      </trkpt>
      <trkpt lat="44.22104" lon="5.58577">
        <ele>749</ele>
        <time>2019-05-24T12:11:08Z</time>
      </trkpt>
      <trkpt lat="44.22104" lon="5.5857">
        <ele>749</ele>
        <time>2019-05-24T12:11:09Z</time>
      </trkpt>
      <trkpt lat="44.22104" lon="5.58564">
        <ele>749</ele>
        <time>2019-05-24T12:11:10Z</time>
      </trkpt>
      <trkpt lat="44.22103" lon="5.58557">
        <ele>749</ele>
        <time>2019-05-24T12:11:11Z</time>
      </trkpt>
      <trkpt lat="44.22103" lon="5.5855">
        <ele>749</ele>
        <time>2019-05-24T12:11:12Z</time>
      </trkpt>
      <trkpt lat="44.22103" lon="5.58543">
        <ele>749</ele>
        <time>2019-05-24T12:11:13Z</time>
      </trkpt>
      <trkpt lat="44.22103" lon="5.58536">
        <ele>749</ele>
        <time>2019-05-24T12:11:14Z</time>
      </trkpt>
      <trkpt lat="44.22103" lon="5.5853">
        <ele>749</ele>
        <time>2019-05-24T12:11:15Z</time>
      </trkpt>
      <trkpt lat="44.22103" lon="5.58523">
        <ele>749</ele>
        <time>2019-05-24T12:11:16Z</time>
      </trkpt>
      <trkpt lat="44.22103" lon="5.58516">
        <ele>750</ele>
        <time>2019-05-24T12:11:17Z</time>
      </trkpt>
      <trkpt lat="44.22102" lon="5.58508">
        <ele>750</ele>
        <time>2019-05-24T12:11:18Z</time>
      </trkpt>
      <trkpt lat="44.22102" lon="5.58501">
        <ele>750</ele>
        <time>2019-05-24T12:11:19Z</time>
      </trkpt>
      <trkpt lat="44.22103" lon="5.58495">
        <ele>750</ele>
        <time>2019-05-24T12:11:20Z</time>
      </trkpt>
      <trkpt lat="44.22103" lon="5.58487">
        <ele>750</ele>
        <time>2019-05-24T12:11:21Z</time>
      </trkpt>
      <trkpt lat="44.22103" lon="5.5848">
        <ele>750</ele>
        <time>2019-05-24T12:11:22Z</time>
      </trkpt>
      <trkpt lat="44.22102" lon="5.58473">
        <ele>750</ele>
        <time>2019-05-24T12:11:23Z</time>
      </trkpt>
      <trkpt lat="44.22102" lon="5.58466">
        <ele>750</ele>
        <time>2019-05-24T12:11:24Z</time>
      </trkpt>
      <trkpt lat="44.22102" lon="5.58459">
        <ele>750</ele>
        <time>2019-05-24T12:11:25Z</time>
      </trkpt>
      <trkpt lat="44.22102" lon="5.58452">
        <ele>750</ele>
        <time>2019-05-24T12:11:26Z</time>
      </trkpt>
      <trkpt lat="44.22102" lon="5.58445">
        <ele>750</ele>
        <time>2019-05-24T12:11:27Z</time>
      </trkpt>
      <trkpt lat="44.22102" lon="5.58438">
        <ele>751</ele>
        <time>2019-05-24T12:11:28Z</time>
      </trkpt>
      <trkpt lat="44.22102" lon="5.58431">
        <ele>751</ele>
        <time>2019-05-24T12:11:29Z</time>
      </trkpt>
      <trkpt lat="44.22101" lon="5.58424">
        <ele>751</ele>
        <time>2019-05-24T12:11:30Z</time>
      </trkpt>
      <trkpt lat="44.22101" lon="5.58417">
        <ele>751</ele>
        <time>2019-05-24T12:11:31Z</time>
      </trkpt>
      <trkpt lat="44.22101" lon="5.58411">
        <ele>751</ele>
        <time>2019-05-24T12:11:32Z</time>
      </trkpt>
      <trkpt lat="44.22101" lon="5.58404">
        <ele>751</ele>
        <time>2019-05-24T12:11:33Z</time>
      </trkpt>
      <trkpt lat="44.22101" lon="5.58397">
        <ele>751</ele>
        <time>2019-05-24T12:11:34Z</time>
      </trkpt>
      <trkpt lat="44.22101" lon="5.5839">
        <ele>752</ele>
        <time>2019-05-24T12:11:35Z</time>
      </trkpt>
      <trkpt lat="44.22101" lon="5.58383">
        <ele>752</ele>
        <time>2019-05-24T12:11:36Z</time>
      </trkpt>
      <trkpt lat="44.22101" lon="5.58375">
        <ele>752</ele>
        <time>2019-05-24T12:11:37Z</time>
      </trkpt>
      <trkpt lat="44.221" lon="5.58368">
        <ele>752</ele>
        <time>2019-05-24T12:11:38Z</time>
      </trkpt>
      <trkpt lat="44.221" lon="5.58361">
        <ele>752</ele>
        <time>2019-05-24T12:11:39Z</time>
      </trkpt>
      <trkpt lat="44.221" lon="5.58354">
        <ele>752</ele>
        <time>2019-05-24T12:11:40Z</time>
      </trkpt>
      <trkpt lat="44.221" lon="5.58347">
        <ele>752</ele>
        <time>2019-05-24T12:11:41Z</time>
      </trkpt>
      <trkpt lat="44.221" lon="5.5834">
        <ele>752</ele>
        <time>2019-05-24T12:11:42Z</time>
      </trkpt>
      <trkpt lat="44.221" lon="5.58333">
        <ele>752</ele>
        <time>2019-05-24T12:11:43Z</time>
      </trkpt>
      <trkpt lat="44.221" lon="5.58325">
        <ele>752</ele>
        <time>2019-05-24T12:11:44Z</time>
      </trkpt>
      <trkpt lat="44.221" lon="5.58318">
        <ele>752</ele>
        <time>2019-05-24T12:11:45Z</time>
      </trkpt>
      <trkpt lat="44.221" lon="5.5831">
        <ele>752</ele>
        <time>2019-05-24T12:11:46Z</time>
      </trkpt>
      <trkpt lat="44.221" lon="5.58302">
        <ele>753</ele>
        <time>2019-05-24T12:11:47Z</time>
      </trkpt>
      <trkpt lat="44.22099" lon="5.58294">
        <ele>753</ele>
        <time>2019-05-24T12:11:48Z</time>
      </trkpt>
      <trkpt lat="44.22099" lon="5.58286">
        <ele>753</ele>
        <time>2019-05-24T12:11:49Z</time>
      </trkpt>
      <trkpt lat="44.22099" lon="5.58277">
        <ele>753</ele>
        <time>2019-05-24T12:11:50Z</time>
      </trkpt>
      <trkpt lat="44.22099" lon="5.58269">
        <ele>753</ele>
        <time>2019-05-24T12:11:51Z</time>
      </trkpt>
      <trkpt lat="44.22099" lon="5.58261">
        <ele>753</ele>
        <time>2019-05-24T12:11:52Z</time>
      </trkpt>
      <trkpt lat="44.22099" lon="5.58253">
        <ele>753</ele>
        <time>2019-05-24T12:11:53Z</time>
      </trkpt>
      <trkpt lat="44.221" lon="5.58244">
        <ele>753</ele>
        <time>2019-05-24T12:11:54Z</time>
      </trkpt>
      <trkpt lat="44.221" lon="5.58236">
        <ele>753</ele>
        <time>2019-05-24T12:11:55Z</time>
      </trkpt>
      <trkpt lat="44.22101" lon="5.58228">
        <ele>753</ele>
        <time>2019-05-24T12:11:56Z</time>
      </trkpt>
      <trkpt lat="44.22102" lon="5.58219">
        <ele>753</ele>
        <time>2019-05-24T12:11:57Z</time>
      </trkpt>
      <trkpt lat="44.22103" lon="5.58211">
        <ele>753</ele>
        <time>2019-05-24T12:11:58Z</time>
      </trkpt>
      <trkpt lat="44.22104" lon="5.58202">
        <ele>753</ele>
        <time>2019-05-24T12:11:59Z</time>
      </trkpt>
      <trkpt lat="44.22105" lon="5.58194">
        <ele>753</ele>
        <time>2019-05-24T12:12:00Z</time>
      </trkpt>
      <trkpt lat="44.22106" lon="5.58185">
        <ele>753</ele>
        <time>2019-05-24T12:12:01Z</time>
      </trkpt>
      <trkpt lat="44.22107" lon="5.58177">
        <ele>753</ele>
        <time>2019-05-24T12:12:02Z</time>
      </trkpt>
      <trkpt lat="44.22107" lon="5.58168">
        <ele>753</ele>
        <time>2019-05-24T12:12:03Z</time>
      </trkpt>
      <trkpt lat="44.22108" lon="5.5816">
        <ele>753</ele>
        <time>2019-05-24T12:12:04Z</time>
      </trkpt>
      <trkpt lat="44.22109" lon="5.58151">
        <ele>753</ele>
        <time>2019-05-24T12:12:05Z</time>
      </trkpt>
      <trkpt lat="44.2211" lon="5.58143">
        <ele>753</ele>
        <time>2019-05-24T12:12:06Z</time>
      </trkpt>
      <trkpt lat="44.22111" lon="5.58134">
        <ele>753</ele>
        <time>2019-05-24T12:12:07Z</time>
      </trkpt>
      <trkpt lat="44.22112" lon="5.58126">
        <ele>753</ele>
        <time>2019-05-24T12:12:08Z</time>
      </trkpt>
      <trkpt lat="44.22113" lon="5.58117">
        <ele>753</ele>
        <time>2019-05-24T12:12:09Z</time>
      </trkpt>
      <trkpt lat="44.22113" lon="5.58109">
        <ele>753</ele>
        <time>2019-05-24T12:12:10Z</time>
      </trkpt>
      <trkpt lat="44.22114" lon="5.581">
        <ele>753</ele>
        <time>2019-05-24T12:12:11Z</time>
      </trkpt>
      <trkpt lat="44.22115" lon="5.58091">
        <ele>753</ele>
        <time>2019-05-24T12:12:12Z</time>
      </trkpt>
      <trkpt lat="44.22117" lon="5.58082">
        <ele>753</ele>
        <time>2019-05-24T12:12:13Z</time>
      </trkpt>
      <trkpt lat="44.22118" lon="5.58073">
        <ele>753</ele>
        <time>2019-05-24T12:12:14Z</time>
      </trkpt>
      <trkpt lat="44.22119" lon="5.58064">
        <ele>753</ele>
        <time>2019-05-24T12:12:15Z</time>
      </trkpt>
      <trkpt lat="44.2212" lon="5.58055">
        <ele>753</ele>
        <time>2019-05-24T12:12:16Z</time>
      </trkpt>
      <trkpt lat="44.22121" lon="5.58045">
        <ele>753</ele>
        <time>2019-05-24T12:12:17Z</time>
      </trkpt>
      <trkpt lat="44.22122" lon="5.58036">
        <ele>753</ele>
        <time>2019-05-24T12:12:18Z</time>
      </trkpt>
      <trkpt lat="44.22123" lon="5.58027">
        <ele>753</ele>
        <time>2019-05-24T12:12:19Z</time>
      </trkpt>
      <trkpt lat="44.22124" lon="5.58017">
        <ele>753</ele>
        <time>2019-05-24T12:12:20Z</time>
      </trkpt>
      <trkpt lat="44.22125" lon="5.58008">
        <ele>753</ele>
        <time>2019-05-24T12:12:21Z</time>
      </trkpt>
      <trkpt lat="44.22126" lon="5.57999">
        <ele>753</ele>
        <time>2019-05-24T12:12:22Z</time>
      </trkpt>
      <trkpt lat="44.22126" lon="5.57989">
        <ele>753</ele>
        <time>2019-05-24T12:12:23Z</time>
      </trkpt>
      <trkpt lat="44.22127" lon="5.5798">
        <ele>753</ele>
        <time>2019-05-24T12:12:24Z</time>
      </trkpt>
      <trkpt lat="44.22128" lon="5.57971">
        <ele>753</ele>
        <time>2019-05-24T12:12:25Z</time>
      </trkpt>
      <trkpt lat="44.22129" lon="5.57962">
        <ele>753</ele>
        <time>2019-05-24T12:12:26Z</time>
      </trkpt>
      <trkpt lat="44.2213" lon="5.57953">
        <ele>753</ele>
        <time>2019-05-24T12:12:27Z</time>
      </trkpt>
      <trkpt lat="44.22131" lon="5.57944">
        <ele>753</ele>
        <time>2019-05-24T12:12:28Z</time>
      </trkpt>
      <trkpt lat="44.22131" lon="5.57935">
        <ele>753</ele>
        <time>2019-05-24T12:12:29Z</time>
      </trkpt>
      <trkpt lat="44.22132" lon="5.57926">
        <ele>753</ele>
        <time>2019-05-24T12:12:30Z</time>
      </trkpt>
      <trkpt lat="44.22133" lon="5.57917">
        <ele>753</ele>
        <time>2019-05-24T12:12:31Z</time>
      </trkpt>
      <trkpt lat="44.22134" lon="5.57909">
        <ele>753</ele>
        <time>2019-05-24T12:12:32Z</time>
      </trkpt>
      <trkpt lat="44.22135" lon="5.579">
        <ele>753</ele>
        <time>2019-05-24T12:12:33Z</time>
      </trkpt>
      <trkpt lat="44.22136" lon="5.57891">
        <ele>753</ele>
        <time>2019-05-24T12:12:34Z</time>
      </trkpt>
      <trkpt lat="44.22137" lon="5.57882">
        <ele>753</ele>
        <time>2019-05-24T12:12:35Z</time>
      </trkpt>
      <trkpt lat="44.22137" lon="5.57874">
        <ele>753</ele>
        <time>2019-05-24T12:12:36Z</time>
      </trkpt>
      <trkpt lat="44.22138" lon="5.57865">
        <ele>753</ele>
        <time>2019-05-24T12:12:37Z</time>
      </trkpt>
      <trkpt lat="44.22139" lon="5.57856">
        <ele>753</ele>
        <time>2019-05-24T12:12:38Z</time>
      </trkpt>
      <trkpt lat="44.22139" lon="5.57847">
        <ele>753</ele>
        <time>2019-05-24T12:12:39Z</time>
      </trkpt>
      <trkpt lat="44.2214" lon="5.57838">
        <ele>753</ele>
        <time>2019-05-24T12:12:40Z</time>
      </trkpt>
      <trkpt lat="44.22141" lon="5.5783">
        <ele>753</ele>
        <time>2019-05-24T12:12:41Z</time>
      </trkpt>
      <trkpt lat="44.22142" lon="5.57821">
        <ele>753</ele>
        <time>2019-05-24T12:12:42Z</time>
      </trkpt>
      <trkpt lat="44.22142" lon="5.57813">
        <ele>753</ele>
        <time>2019-05-24T12:12:43Z</time>
      </trkpt>
      <trkpt lat="44.22142" lon="5.57804">
        <ele>753</ele>
        <time>2019-05-24T12:12:44Z</time>
      </trkpt>
      <trkpt lat="44.22143" lon="5.57796">
        <ele>753</ele>
        <time>2019-05-24T12:12:45Z</time>
      </trkpt>
      <trkpt lat="44.22143" lon="5.57789">
        <ele>753</ele>
        <time>2019-05-24T12:12:46Z</time>
      </trkpt>
      <trkpt lat="44.22142" lon="5.5778">
        <ele>753</ele>
        <time>2019-05-24T12:12:47Z</time>
      </trkpt>
      <trkpt lat="44.22142" lon="5.57772">
        <ele>753</ele>
        <time>2019-05-24T12:12:48Z</time>
      </trkpt>
      <trkpt lat="44.22142" lon="5.57764">
        <ele>753</ele>
        <time>2019-05-24T12:12:49Z</time>
      </trkpt>
      <trkpt lat="44.22142" lon="5.57756">
        <ele>753</ele>
        <time>2019-05-24T12:12:50Z</time>
      </trkpt>
      <trkpt lat="44.22142" lon="5.57748">
        <ele>753</ele>
        <time>2019-05-24T12:12:51Z</time>
      </trkpt>
      <trkpt lat="44.22142" lon="5.57739">
        <ele>753</ele>
        <time>2019-05-24T12:12:52Z</time>
      </trkpt>
      <trkpt lat="44.22142" lon="5.57731">
        <ele>753</ele>
        <time>2019-05-24T12:12:53Z</time>
      </trkpt>
      <trkpt lat="44.22141" lon="5.57722">
        <ele>754</ele>
        <time>2019-05-24T12:12:54Z</time>
      </trkpt>
      <trkpt lat="44.22141" lon="5.57714">
        <ele>754</ele>
        <time>2019-05-24T12:12:55Z</time>
      </trkpt>
      <trkpt lat="44.22141" lon="5.57705">
        <ele>754</ele>
        <time>2019-05-24T12:12:56Z</time>
      </trkpt>
      <trkpt lat="44.2214" lon="5.57697">
        <ele>754</ele>
        <time>2019-05-24T12:12:57Z</time>
      </trkpt>
      <trkpt lat="44.2214" lon="5.57688">
        <ele>754</ele>
        <time>2019-05-24T12:12:58Z</time>
      </trkpt>
      <trkpt lat="44.22139" lon="5.5768">
        <ele>754</ele>
        <time>2019-05-24T12:12:59Z</time>
      </trkpt>
      <trkpt lat="44.22139" lon="5.57672">
        <ele>754</ele>
        <time>2019-05-24T12:13:00Z</time>
      </trkpt>
      <trkpt lat="44.22139" lon="5.57663">
        <ele>754</ele>
        <time>2019-05-24T12:13:01Z</time>
      </trkpt>
      <trkpt lat="44.22139" lon="5.57655">
        <ele>754</ele>
        <time>2019-05-24T12:13:02Z</time>
      </trkpt>
      <trkpt lat="44.22138" lon="5.57647">
        <ele>754</ele>
        <time>2019-05-24T12:13:03Z</time>
      </trkpt>
      <trkpt lat="44.22138" lon="5.57639">
        <ele>754</ele>
        <time>2019-05-24T12:13:04Z</time>
      </trkpt>
      <trkpt lat="44.22137" lon="5.5763">
        <ele>754</ele>
        <time>2019-05-24T12:13:05Z</time>
      </trkpt>
      <trkpt lat="44.22137" lon="5.57622">
        <ele>755</ele>
        <time>2019-05-24T12:13:06Z</time>
      </trkpt>
      <trkpt lat="44.22137" lon="5.57614">
        <ele>755</ele>
        <time>2019-05-24T12:13:07Z</time>
      </trkpt>
      <trkpt lat="44.22137" lon="5.57606">
        <ele>755</ele>
        <time>2019-05-24T12:13:08Z</time>
      </trkpt>
      <trkpt lat="44.22136" lon="5.57598">
        <ele>755</ele>
        <time>2019-05-24T12:13:09Z</time>
      </trkpt>
      <trkpt lat="44.22136" lon="5.57589">
        <ele>755</ele>
        <time>2019-05-24T12:13:10Z</time>
      </trkpt>
      <trkpt lat="44.22136" lon="5.57582">
        <ele>755</ele>
        <time>2019-05-24T12:13:11Z</time>
      </trkpt>
      <trkpt lat="44.22136" lon="5.57573">
        <ele>755</ele>
        <time>2019-05-24T12:13:12Z</time>
      </trkpt>
      <trkpt lat="44.22135" lon="5.57565">
        <ele>755</ele>
        <time>2019-05-24T12:13:13Z</time>
      </trkpt>
      <trkpt lat="44.22135" lon="5.57557">
        <ele>755</ele>
        <time>2019-05-24T12:13:14Z</time>
      </trkpt>
      <trkpt lat="44.22135" lon="5.57549">
        <ele>755</ele>
        <time>2019-05-24T12:13:15Z</time>
      </trkpt>
      <trkpt lat="44.22134" lon="5.57541">
        <ele>755</ele>
        <time>2019-05-24T12:13:16Z</time>
      </trkpt>
      <trkpt lat="44.22134" lon="5.57533">
        <ele>755</ele>
        <time>2019-05-24T12:13:17Z</time>
      </trkpt>
      <trkpt lat="44.22134" lon="5.57524">
        <ele>755</ele>
        <time>2019-05-24T12:13:18Z</time>
      </trkpt>
      <trkpt lat="44.22133" lon="5.57516">
        <ele>755</ele>
        <time>2019-05-24T12:13:19Z</time>
      </trkpt>
      <trkpt lat="44.22133" lon="5.57508">
        <ele>755</ele>
        <time>2019-05-24T12:13:20Z</time>
      </trkpt>
      <trkpt lat="44.22133" lon="5.57499">
        <ele>755</ele>
        <time>2019-05-24T12:13:21Z</time>
      </trkpt>
      <trkpt lat="44.22133" lon="5.57491">
        <ele>755</ele>
        <time>2019-05-24T12:13:22Z</time>
      </trkpt>
      <trkpt lat="44.22132" lon="5.57483">
        <ele>755</ele>
        <time>2019-05-24T12:13:23Z</time>
      </trkpt>
      <trkpt lat="44.22132" lon="5.57475">
        <ele>755</ele>
        <time>2019-05-24T12:13:24Z</time>
      </trkpt>
      <trkpt lat="44.22132" lon="5.57466">
        <ele>755</ele>
        <time>2019-05-24T12:13:25Z</time>
      </trkpt>
      <trkpt lat="44.22131" lon="5.57458">
        <ele>755</ele>
        <time>2019-05-24T12:13:26Z</time>
      </trkpt>
      <trkpt lat="44.22131" lon="5.5745">
        <ele>755</ele>
        <time>2019-05-24T12:13:27Z</time>
      </trkpt>
      <trkpt lat="44.22131" lon="5.57442">
        <ele>755</ele>
        <time>2019-05-24T12:13:28Z</time>
      </trkpt>
      <trkpt lat="44.22131" lon="5.57434">
        <ele>755</ele>
        <time>2019-05-24T12:13:29Z</time>
      </trkpt>
      <trkpt lat="44.22131" lon="5.57425">
        <ele>756</ele>
        <time>2019-05-24T12:13:30Z</time>
      </trkpt>
      <trkpt lat="44.22131" lon="5.57417">
        <ele>756</ele>
        <time>2019-05-24T12:13:31Z</time>
      </trkpt>
      <trkpt lat="44.2213" lon="5.57409">
        <ele>756</ele>
        <time>2019-05-24T12:13:32Z</time>
      </trkpt>
      <trkpt lat="44.2213" lon="5.57401">
        <ele>756</ele>
        <time>2019-05-24T12:13:33Z</time>
      </trkpt>
      <trkpt lat="44.2213" lon="5.57393">
        <ele>756</ele>
        <time>2019-05-24T12:13:34Z</time>
      </trkpt>
      <trkpt lat="44.22129" lon="5.57385">
        <ele>756</ele>
        <time>2019-05-24T12:13:35Z</time>
      </trkpt>
      <trkpt lat="44.22129" lon="5.57377">
        <ele>756</ele>
        <time>2019-05-24T12:13:36Z</time>
      </trkpt>
      <trkpt lat="44.22129" lon="5.57369">
        <ele>756</ele>
        <time>2019-05-24T12:13:37Z</time>
      </trkpt>
      <trkpt lat="44.22129" lon="5.57361">
        <ele>756</ele>
        <time>2019-05-24T12:13:38Z</time>
      </trkpt>
      <trkpt lat="44.22129" lon="5.57352">
        <ele>757</ele>
        <time>2019-05-24T12:13:39Z</time>
      </trkpt>
      <trkpt lat="44.22129" lon="5.57345">
        <ele>757</ele>
        <time>2019-05-24T12:13:40Z</time>
      </trkpt>
      <trkpt lat="44.22129" lon="5.57337">
        <ele>757</ele>
        <time>2019-05-24T12:13:41Z</time>
      </trkpt>
      <trkpt lat="44.22128" lon="5.57329">
        <ele>757</ele>
        <time>2019-05-24T12:13:42Z</time>
      </trkpt>
      <trkpt lat="44.22128" lon="5.57321">
        <ele>757</ele>
        <time>2019-05-24T12:13:43Z</time>
      </trkpt>
      <trkpt lat="44.22128" lon="5.57313">
        <ele>757</ele>
        <time>2019-05-24T12:13:44Z</time>
      </trkpt>
      <trkpt lat="44.22127" lon="5.57305">
        <ele>758</ele>
        <time>2019-05-24T12:13:45Z</time>
      </trkpt>
      <trkpt lat="44.22127" lon="5.57297">
        <ele>758</ele>
        <time>2019-05-24T12:13:46Z</time>
      </trkpt>
      <trkpt lat="44.22127" lon="5.57289">
        <ele>758</ele>
        <time>2019-05-24T12:13:47Z</time>
      </trkpt>
      <trkpt lat="44.22127" lon="5.57281">
        <ele>758</ele>
        <time>2019-05-24T12:13:48Z</time>
      </trkpt>
      <trkpt lat="44.22126" lon="5.57273">
        <ele>758</ele>
        <time>2019-05-24T12:13:49Z</time>
      </trkpt>
      <trkpt lat="44.22126" lon="5.57265">
        <ele>758</ele>
        <time>2019-05-24T12:13:50Z</time>
      </trkpt>
      <trkpt lat="44.22126" lon="5.57257">
        <ele>758</ele>
        <time>2019-05-24T12:13:51Z</time>
      </trkpt>
      <trkpt lat="44.22126" lon="5.57248">
        <ele>758</ele>
        <time>2019-05-24T12:13:52Z</time>
      </trkpt>
      <trkpt lat="44.22126" lon="5.5724">
        <ele>758</ele>
        <time>2019-05-24T12:13:53Z</time>
      </trkpt>
      <trkpt lat="44.22126" lon="5.57232">
        <ele>758</ele>
        <time>2019-05-24T12:13:54Z</time>
      </trkpt>
      <trkpt lat="44.22126" lon="5.57223">
        <ele>758</ele>
        <time>2019-05-24T12:13:55Z</time>
      </trkpt>
      <trkpt lat="44.22125" lon="5.57215">
        <ele>758</ele>
        <time>2019-05-24T12:13:56Z</time>
      </trkpt>
      <trkpt lat="44.22125" lon="5.57206">
        <ele>758</ele>
        <time>2019-05-24T12:13:57Z</time>
      </trkpt>
      <trkpt lat="44.22124" lon="5.57198">
        <ele>758</ele>
        <time>2019-05-24T12:13:58Z</time>
      </trkpt>
      <trkpt lat="44.22124" lon="5.57189">
        <ele>758</ele>
        <time>2019-05-24T12:13:59Z</time>
      </trkpt>
      <trkpt lat="44.22124" lon="5.5718">
        <ele>758</ele>
        <time>2019-05-24T12:14:00Z</time>
      </trkpt>
      <trkpt lat="44.22124" lon="5.57171">
        <ele>758</ele>
        <time>2019-05-24T12:14:01Z</time>
      </trkpt>
      <trkpt lat="44.22123" lon="5.57163">
        <ele>758</ele>
        <time>2019-05-24T12:14:02Z</time>
      </trkpt>
      <trkpt lat="44.22123" lon="5.57154">
        <ele>758</ele>
        <time>2019-05-24T12:14:03Z</time>
      </trkpt>
      <trkpt lat="44.22123" lon="5.57146">
        <ele>758</ele>
        <time>2019-05-24T12:14:04Z</time>
      </trkpt>
      <trkpt lat="44.22122" lon="5.57137">
        <ele>758</ele>
        <time>2019-05-24T12:14:05Z</time>
      </trkpt>
      <trkpt lat="44.22122" lon="5.57129">
        <ele>758</ele>
        <time>2019-05-24T12:14:06Z</time>
      </trkpt>
      <trkpt lat="44.22122" lon="5.57121">
        <ele>759</ele>
        <time>2019-05-24T12:14:07Z</time>
      </trkpt>
      <trkpt lat="44.22122" lon="5.57112">
        <ele>759</ele>
        <time>2019-05-24T12:14:08Z</time>
      </trkpt>
      <trkpt lat="44.22122" lon="5.57104">
        <ele>759</ele>
        <time>2019-05-24T12:14:09Z</time>
      </trkpt>
      <trkpt lat="44.22122" lon="5.57096">
        <ele>759</ele>
        <time>2019-05-24T12:14:10Z</time>
      </trkpt>
      <trkpt lat="44.22121" lon="5.57087">
        <ele>759</ele>
        <time>2019-05-24T12:14:11Z</time>
      </trkpt>
      <trkpt lat="44.22121" lon="5.57079">
        <ele>759</ele>
        <time>2019-05-24T12:14:12Z</time>
      </trkpt>
      <trkpt lat="44.22121" lon="5.57071">
        <ele>759</ele>
        <time>2019-05-24T12:14:13Z</time>
      </trkpt>
      <trkpt lat="44.22121" lon="5.57062">
        <ele>760</ele>
        <time>2019-05-24T12:14:14Z</time>
      </trkpt>
      <trkpt lat="44.22121" lon="5.57054">
        <ele>760</ele>
        <time>2019-05-24T12:14:15Z</time>
      </trkpt>
      <trkpt lat="44.22121" lon="5.57046">
        <ele>760</ele>
        <time>2019-05-24T12:14:16Z</time>
      </trkpt>
      <trkpt lat="44.2212" lon="5.57038">
        <ele>760</ele>
        <time>2019-05-24T12:14:17Z</time>
      </trkpt>
      <trkpt lat="44.2212" lon="5.5703">
        <ele>760</ele>
        <time>2019-05-24T12:14:18Z</time>
      </trkpt>
      <trkpt lat="44.2212" lon="5.57023">
        <ele>760</ele>
        <time>2019-05-24T12:14:19Z</time>
      </trkpt>
      <trkpt lat="44.2212" lon="5.57015">
        <ele>760</ele>
        <time>2019-05-24T12:14:20Z</time>
      </trkpt>
      <trkpt lat="44.2212" lon="5.57007">
        <ele>760</ele>
        <time>2019-05-24T12:14:21Z</time>
      </trkpt>
      <trkpt lat="44.2212" lon="5.56999">
        <ele>761</ele>
        <time>2019-05-24T12:14:22Z</time>
      </trkpt>
      <trkpt lat="44.22119" lon="5.56991">
        <ele>761</ele>
        <time>2019-05-24T12:14:23Z</time>
      </trkpt>
      <trkpt lat="44.22119" lon="5.56984">
        <ele>761</ele>
        <time>2019-05-24T12:14:24Z</time>
      </trkpt>
      <trkpt lat="44.22119" lon="5.56976">
        <ele>761</ele>
        <time>2019-05-24T12:14:25Z</time>
      </trkpt>
      <trkpt lat="44.22118" lon="5.56968">
        <ele>761</ele>
        <time>2019-05-24T12:14:26Z</time>
      </trkpt>
      <trkpt lat="44.22118" lon="5.5696">
        <ele>761</ele>
        <time>2019-05-24T12:14:27Z</time>
      </trkpt>
      <trkpt lat="44.22118" lon="5.56952">
        <ele>761</ele>
        <time>2019-05-24T12:14:28Z</time>
      </trkpt>
      <trkpt lat="44.22117" lon="5.56944">
        <ele>761</ele>
        <time>2019-05-24T12:14:29Z</time>
      </trkpt>
      <trkpt lat="44.22117" lon="5.56937">
        <ele>762</ele>
        <time>2019-05-24T12:14:30Z</time>
      </trkpt>
      <trkpt lat="44.22117" lon="5.56929">
        <ele>762</ele>
        <time>2019-05-24T12:14:31Z</time>
      </trkpt>
      <trkpt lat="44.22117" lon="5.56921">
        <ele>762</ele>
        <time>2019-05-24T12:14:32Z</time>
      </trkpt>
      <trkpt lat="44.22117" lon="5.56913">
        <ele>762</ele>
        <time>2019-05-24T12:14:33Z</time>
      </trkpt>
      <trkpt lat="44.22117" lon="5.56906">
        <ele>762</ele>
        <time>2019-05-24T12:14:34Z</time>
      </trkpt>
      <trkpt lat="44.22117" lon="5.56898">
        <ele>762</ele>
        <time>2019-05-24T12:14:35Z</time>
      </trkpt>
      <trkpt lat="44.22116" lon="5.5689">
        <ele>762</ele>
        <time>2019-05-24T12:14:36Z</time>
      </trkpt>
      <trkpt lat="44.22116" lon="5.56882">
        <ele>762</ele>
        <time>2019-05-24T12:14:37Z</time>
      </trkpt>
      <trkpt lat="44.22116" lon="5.56875">
        <ele>762</ele>
        <time>2019-05-24T12:14:38Z</time>
      </trkpt>
      <trkpt lat="44.22116" lon="5.56867">
        <ele>763</ele>
        <time>2019-05-24T12:14:39Z</time>
      </trkpt>
      <trkpt lat="44.22116" lon="5.56859">
        <ele>763</ele>
        <time>2019-05-24T12:14:40Z</time>
      </trkpt>
      <trkpt lat="44.22115" lon="5.56852">
        <ele>763</ele>
        <time>2019-05-24T12:14:41Z</time>
      </trkpt>
      <trkpt lat="44.22115" lon="5.56844">
        <ele>763</ele>
        <time>2019-05-24T12:14:42Z</time>
      </trkpt>
      <trkpt lat="44.22115" lon="5.56837">
        <ele>763</ele>
        <time>2019-05-24T12:14:43Z</time>
      </trkpt>
      <trkpt lat="44.22115" lon="5.56829">
        <ele>763</ele>
        <time>2019-05-24T12:14:44Z</time>
      </trkpt>
      <trkpt lat="44.22115" lon="5.56821">
        <ele>763</ele>
        <time>2019-05-24T12:14:45Z</time>
      </trkpt>
      <trkpt lat="44.22115" lon="5.56813">
        <ele>763</ele>
        <time>2019-05-24T12:14:46Z</time>
      </trkpt>
      <trkpt lat="44.22115" lon="5.56805">
        <ele>763</ele>
        <time>2019-05-24T12:14:47Z</time>
      </trkpt>
      <trkpt lat="44.22114" lon="5.56797">
        <ele>763</ele>
        <time>2019-05-24T12:14:48Z</time>
      </trkpt>
      <trkpt lat="44.22114" lon="5.56789">
        <ele>764</ele>
        <time>2019-05-24T12:14:49Z</time>
      </trkpt>
      <trkpt lat="44.22114" lon="5.56781">
        <ele>764</ele>
        <time>2019-05-24T12:14:50Z</time>
      </trkpt>
      <trkpt lat="44.22114" lon="5.56773">
        <ele>764</ele>
        <time>2019-05-24T12:14:51Z</time>
      </trkpt>
      <trkpt lat="44.22114" lon="5.56766">
        <ele>764</ele>
        <time>2019-05-24T12:14:52Z</time>
      </trkpt>
      <trkpt lat="44.22113" lon="5.56758">
        <ele>764</ele>
        <time>2019-05-24T12:14:53Z</time>
      </trkpt>
      <trkpt lat="44.22113" lon="5.5675">
        <ele>764</ele>
        <time>2019-05-24T12:14:54Z</time>
      </trkpt>
      <trkpt lat="44.22113" lon="5.56743">
        <ele>764</ele>
        <time>2019-05-24T12:14:55Z</time>
      </trkpt>
      <trkpt lat="44.22113" lon="5.56735">
        <ele>764</ele>
        <time>2019-05-24T12:14:56Z</time>
      </trkpt>
      <trkpt lat="44.22113" lon="5.56728">
        <ele>764</ele>
        <time>2019-05-24T12:14:57Z</time>
      </trkpt>
      <trkpt lat="44.22113" lon="5.5672">
        <ele>764</ele>
        <time>2019-05-24T12:14:58Z</time>
      </trkpt>
      <trkpt lat="44.22113" lon="5.56713">
        <ele>764</ele>
        <time>2019-05-24T12:14:59Z</time>
      </trkpt>
      <trkpt lat="44.22113" lon="5.56706">
        <ele>764</ele>
        <time>2019-05-24T12:15:00Z</time>
      </trkpt>
      <trkpt lat="44.22112" lon="5.56698">
        <ele>765</ele>
        <time>2019-05-24T12:15:01Z</time>
      </trkpt>
      <trkpt lat="44.22112" lon="5.5669">
        <ele>765</ele>
        <time>2019-05-24T12:15:02Z</time>
      </trkpt>
      <trkpt lat="44.22112" lon="5.56683">
        <ele>765</ele>
        <time>2019-05-24T12:15:03Z</time>
      </trkpt>
      <trkpt lat="44.22111" lon="5.56675">
        <ele>765</ele>
        <time>2019-05-24T12:15:04Z</time>
      </trkpt>
      <trkpt lat="44.22111" lon="5.56667">
        <ele>765</ele>
        <time>2019-05-24T12:15:05Z</time>
      </trkpt>
      <trkpt lat="44.22111" lon="5.5666">
        <ele>766</ele>
        <time>2019-05-24T12:15:06Z</time>
      </trkpt>
      <trkpt lat="44.2211" lon="5.56652">
        <ele>766</ele>
        <time>2019-05-24T12:15:07Z</time>
      </trkpt>
      <trkpt lat="44.2211" lon="5.56644">
        <ele>766</ele>
        <time>2019-05-24T12:15:08Z</time>
      </trkpt>
      <trkpt lat="44.2211" lon="5.56636">
        <ele>766</ele>
        <time>2019-05-24T12:15:09Z</time>
      </trkpt>
      <trkpt lat="44.2211" lon="5.56629">
        <ele>766</ele>
        <time>2019-05-24T12:15:10Z</time>
      </trkpt>
      <trkpt lat="44.2211" lon="5.56621">
        <ele>766</ele>
        <time>2019-05-24T12:15:11Z</time>
      </trkpt>
      <trkpt lat="44.2211" lon="5.56613">
        <ele>766</ele>
        <time>2019-05-24T12:15:12Z</time>
      </trkpt>
      <trkpt lat="44.2211" lon="5.56605">
        <ele>766</ele>
        <time>2019-05-24T12:15:13Z</time>
      </trkpt>
      <trkpt lat="44.2211" lon="5.56598">
        <ele>766</ele>
        <time>2019-05-24T12:15:14Z</time>
      </trkpt>
      <trkpt lat="44.2211" lon="5.5659">
        <ele>766</ele>
        <time>2019-05-24T12:15:15Z</time>
      </trkpt>
      <trkpt lat="44.2211" lon="5.56582">
        <ele>767</ele>
        <time>2019-05-24T12:15:16Z</time>
      </trkpt>
      <trkpt lat="44.2211" lon="5.56574">
        <ele>767</ele>
        <time>2019-05-24T12:15:17Z</time>
      </trkpt>
      <trkpt lat="44.2211" lon="5.56567">
        <ele>767</ele>
        <time>2019-05-24T12:15:18Z</time>
      </trkpt>
      <trkpt lat="44.2211" lon="5.5656">
        <ele>767</ele>
        <time>2019-05-24T12:15:19Z</time>
      </trkpt>
      <trkpt lat="44.2211" lon="5.56552">
        <ele>767</ele>
        <time>2019-05-24T12:15:20Z</time>
      </trkpt>
      <trkpt lat="44.22109" lon="5.56544">
        <ele>767</ele>
        <time>2019-05-24T12:15:21Z</time>
      </trkpt>
      <trkpt lat="44.22109" lon="5.56536">
        <ele>767</ele>
        <time>2019-05-24T12:15:22Z</time>
      </trkpt>
      <trkpt lat="44.22109" lon="5.56529">
        <ele>767</ele>
        <time>2019-05-24T12:15:23Z</time>
      </trkpt>
      <trkpt lat="44.22108" lon="5.56521">
        <ele>767</ele>
        <time>2019-05-24T12:15:24Z</time>
      </trkpt>
      <trkpt lat="44.22108" lon="5.56513">
        <ele>767</ele>
        <time>2019-05-24T12:15:25Z</time>
      </trkpt>
      <trkpt lat="44.22108" lon="5.56505">
        <ele>767</ele>
        <time>2019-05-24T12:15:26Z</time>
      </trkpt>
      <trkpt lat="44.22107" lon="5.56497">
        <ele>767</ele>
        <time>2019-05-24T12:15:27Z</time>
      </trkpt>
      <trkpt lat="44.22107" lon="5.5649">
        <ele>767</ele>
        <time>2019-05-24T12:15:28Z</time>
      </trkpt>
      <trkpt lat="44.22107" lon="5.56481">
        <ele>767</ele>
        <time>2019-05-24T12:15:29Z</time>
      </trkpt>
      <trkpt lat="44.22106" lon="5.56473">
        <ele>767</ele>
        <time>2019-05-24T12:15:30Z</time>
      </trkpt>
      <trkpt lat="44.22106" lon="5.56465">
        <ele>767</ele>
        <time>2019-05-24T12:15:31Z</time>
      </trkpt>
      <trkpt lat="44.22106" lon="5.56457">
        <ele>767</ele>
        <time>2019-05-24T12:15:32Z</time>
      </trkpt>
      <trkpt lat="44.22105" lon="5.56448">
        <ele>768</ele>
        <time>2019-05-24T12:15:33Z</time>
      </trkpt>
      <trkpt lat="44.22105" lon="5.5644">
        <ele>768</ele>
        <time>2019-05-24T12:15:34Z</time>
      </trkpt>
      <trkpt lat="44.22104" lon="5.56432">
        <ele>768</ele>
        <time>2019-05-24T12:15:35Z</time>
      </trkpt>
      <trkpt lat="44.22104" lon="5.56423">
        <ele>768</ele>
        <time>2019-05-24T12:15:36Z</time>
      </trkpt>
      <trkpt lat="44.22103" lon="5.56415">
        <ele>768</ele>
        <time>2019-05-24T12:15:37Z</time>
      </trkpt>
      <trkpt lat="44.22102" lon="5.56407">
        <ele>768</ele>
        <time>2019-05-24T12:15:38Z</time>
      </trkpt>
      <trkpt lat="44.22101" lon="5.56398">
        <ele>768</ele>
        <time>2019-05-24T12:15:39Z</time>
      </trkpt>
      <trkpt lat="44.221" lon="5.5639">
        <ele>768</ele>
        <time>2019-05-24T12:15:40Z</time>
      </trkpt>
      <trkpt lat="44.221" lon="5.56382">
        <ele>768</ele>
        <time>2019-05-24T12:15:41Z</time>
      </trkpt>
      <trkpt lat="44.221" lon="5.56374">
        <ele>768</ele>
        <time>2019-05-24T12:15:42Z</time>
      </trkpt>
      <trkpt lat="44.22099" lon="5.56366">
        <ele>768</ele>
        <time>2019-05-24T12:15:43Z</time>
      </trkpt>
      <trkpt lat="44.22098" lon="5.56358">
        <ele>768</ele>
        <time>2019-05-24T12:15:44Z</time>
      </trkpt>
      <trkpt lat="44.22097" lon="5.5635">
        <ele>768</ele>
        <time>2019-05-24T12:15:45Z</time>
      </trkpt>
      <trkpt lat="44.22096" lon="5.56342">
        <ele>768</ele>
        <time>2019-05-24T12:15:46Z</time>
      </trkpt>
      <trkpt lat="44.22095" lon="5.56334">
        <ele>768</ele>
        <time>2019-05-24T12:15:47Z</time>
      </trkpt>
      <trkpt lat="44.22094" lon="5.56326">
        <ele>768</ele>
        <time>2019-05-24T12:15:48Z</time>
      </trkpt>
      <trkpt lat="44.22094" lon="5.56319">
        <ele>768</ele>
        <time>2019-05-24T12:15:49Z</time>
      </trkpt>
      <trkpt lat="44.22093" lon="5.56311">
        <ele>769</ele>
        <time>2019-05-24T12:15:50Z</time>
      </trkpt>
      <trkpt lat="44.22092" lon="5.56303">
        <ele>769</ele>
        <time>2019-05-24T12:15:51Z</time>
      </trkpt>
      <trkpt lat="44.22091" lon="5.56295">
        <ele>769</ele>
        <time>2019-05-24T12:15:52Z</time>
      </trkpt>
      <trkpt lat="44.22091" lon="5.56287">
        <ele>769</ele>
        <time>2019-05-24T12:15:53Z</time>
      </trkpt>
      <trkpt lat="44.2209" lon="5.56279">
        <ele>769</ele>
        <time>2019-05-24T12:15:54Z</time>
      </trkpt>
      <trkpt lat="44.22089" lon="5.5627">
        <ele>769</ele>
        <time>2019-05-24T12:15:55Z</time>
      </trkpt>
      <trkpt lat="44.22088" lon="5.56262">
        <ele>769</ele>
        <time>2019-05-24T12:15:56Z</time>
      </trkpt>
      <trkpt lat="44.22087" lon="5.56254">
        <ele>769</ele>
        <time>2019-05-24T12:15:57Z</time>
      </trkpt>
      <trkpt lat="44.22086" lon="5.56246">
        <ele>769</ele>
        <time>2019-05-24T12:15:58Z</time>
      </trkpt>
      <trkpt lat="44.22086" lon="5.56238">
        <ele>769</ele>
        <time>2019-05-24T12:15:59Z</time>
      </trkpt>
      <trkpt lat="44.22085" lon="5.5623">
        <ele>769</ele>
        <time>2019-05-24T12:16:00Z</time>
      </trkpt>
      <trkpt lat="44.22084" lon="5.56222">
        <ele>769</ele>
        <time>2019-05-24T12:16:01Z</time>
      </trkpt>
      <trkpt lat="44.22083" lon="5.56214">
        <ele>769</ele>
        <time>2019-05-24T12:16:02Z</time>
      </trkpt>
      <trkpt lat="44.22082" lon="5.56206">
        <ele>769</ele>
        <time>2019-05-24T12:16:03Z</time>
      </trkpt>
      <trkpt lat="44.22081" lon="5.56197">
        <ele>769</ele>
        <time>2019-05-24T12:16:04Z</time>
      </trkpt>
      <trkpt lat="44.2208" lon="5.56189">
        <ele>769</ele>
        <time>2019-05-24T12:16:05Z</time>
      </trkpt>
      <trkpt lat="44.22079" lon="5.56181">
        <ele>769</ele>
        <time>2019-05-24T12:16:06Z</time>
      </trkpt>
      <trkpt lat="44.22078" lon="5.56173">
        <ele>769</ele>
        <time>2019-05-24T12:16:07Z</time>
      </trkpt>
      <trkpt lat="44.22077" lon="5.56164">
        <ele>769</ele>
        <time>2019-05-24T12:16:08Z</time>
      </trkpt>
      <trkpt lat="44.22076" lon="5.56156">
        <ele>769</ele>
        <time>2019-05-24T12:16:09Z</time>
      </trkpt>
      <trkpt lat="44.22075" lon="5.56148">
        <ele>769</ele>
        <time>2019-05-24T12:16:10Z</time>
      </trkpt>
      <trkpt lat="44.22075" lon="5.5614">
        <ele>769</ele>
        <time>2019-05-24T12:16:11Z</time>
      </trkpt>
      <trkpt lat="44.22074" lon="5.56131">
        <ele>769</ele>
        <time>2019-05-24T12:16:12Z</time>
      </trkpt>
      <trkpt lat="44.22073" lon="5.56122">
        <ele>769</ele>
        <time>2019-05-24T12:16:13Z</time>
      </trkpt>
      <trkpt lat="44.22072" lon="5.56113">
        <ele>769</ele>
        <time>2019-05-24T12:16:14Z</time>
      </trkpt>
      <trkpt lat="44.22071" lon="5.56105">
        <ele>769</ele>
        <time>2019-05-24T12:16:15Z</time>
      </trkpt>
      <trkpt lat="44.2207" lon="5.56096">
        <ele>769</ele>
        <time>2019-05-24T12:16:16Z</time>
      </trkpt>
      <trkpt lat="44.22069" lon="5.56087">
        <ele>769</ele>
        <time>2019-05-24T12:16:17Z</time>
      </trkpt>
      <trkpt lat="44.22068" lon="5.56079">
        <ele>769</ele>
        <time>2019-05-24T12:16:18Z</time>
      </trkpt>
      <trkpt lat="44.22068" lon="5.56071">
        <ele>769</ele>
        <time>2019-05-24T12:16:19Z</time>
      </trkpt>
      <trkpt lat="44.22067" lon="5.56062">
        <ele>769</ele>
        <time>2019-05-24T12:16:20Z</time>
      </trkpt>
      <trkpt lat="44.22066" lon="5.56053">
        <ele>769</ele>
        <time>2019-05-24T12:16:21Z</time>
      </trkpt>
      <trkpt lat="44.22065" lon="5.56045">
        <ele>769</ele>
        <time>2019-05-24T12:16:22Z</time>
      </trkpt>
      <trkpt lat="44.22064" lon="5.56036">
        <ele>769</ele>
        <time>2019-05-24T12:16:23Z</time>
      </trkpt>
      <trkpt lat="44.22063" lon="5.56028">
        <ele>769</ele>
        <time>2019-05-24T12:16:24Z</time>
      </trkpt>
      <trkpt lat="44.22062" lon="5.56019">
        <ele>769</ele>
        <time>2019-05-24T12:16:25Z</time>
      </trkpt>
      <trkpt lat="44.22062" lon="5.5601">
        <ele>769</ele>
        <time>2019-05-24T12:16:26Z</time>
      </trkpt>
      <trkpt lat="44.2206" lon="5.56001">
        <ele>769</ele>
        <time>2019-05-24T12:16:27Z</time>
      </trkpt>
      <trkpt lat="44.2206" lon="5.55992">
        <ele>769</ele>
        <time>2019-05-24T12:16:28Z</time>
      </trkpt>
      <trkpt lat="44.22059" lon="5.55984">
        <ele>769</ele>
        <time>2019-05-24T12:16:29Z</time>
      </trkpt>
      <trkpt lat="44.22058" lon="5.55975">
        <ele>769</ele>
        <time>2019-05-24T12:16:30Z</time>
      </trkpt>
      <trkpt lat="44.22057" lon="5.55966">
        <ele>769</ele>
        <time>2019-05-24T12:16:31Z</time>
      </trkpt>
      <trkpt lat="44.22056" lon="5.55958">
        <ele>769</ele>
        <time>2019-05-24T12:16:32Z</time>
      </trkpt>
      <trkpt lat="44.22055" lon="5.55949">
        <ele>769</ele>
        <time>2019-05-24T12:16:33Z</time>
      </trkpt>
      <trkpt lat="44.22054" lon="5.55941">
        <ele>769</ele>
        <time>2019-05-24T12:16:34Z</time>
      </trkpt>
      <trkpt lat="44.22053" lon="5.55933">
        <ele>769</ele>
        <time>2019-05-24T12:16:35Z</time>
      </trkpt>
      <trkpt lat="44.22052" lon="5.55925">
        <ele>769</ele>
        <time>2019-05-24T12:16:36Z</time>
      </trkpt>
      <trkpt lat="44.22052" lon="5.55917">
        <ele>769</ele>
        <time>2019-05-24T12:16:37Z</time>
      </trkpt>
      <trkpt lat="44.22051" lon="5.55908">
        <ele>769</ele>
        <time>2019-05-24T12:16:38Z</time>
      </trkpt>
      <trkpt lat="44.2205" lon="5.559">
        <ele>769</ele>
        <time>2019-05-24T12:16:39Z</time>
      </trkpt>
      <trkpt lat="44.22049" lon="5.55892">
        <ele>769</ele>
        <time>2019-05-24T12:16:40Z</time>
      </trkpt>
      <trkpt lat="44.22048" lon="5.55885">
        <ele>769</ele>
        <time>2019-05-24T12:16:41Z</time>
      </trkpt>
      <trkpt lat="44.22047" lon="5.55876">
        <ele>769</ele>
        <time>2019-05-24T12:16:42Z</time>
      </trkpt>
      <trkpt lat="44.22046" lon="5.55869">
        <ele>769</ele>
        <time>2019-05-24T12:16:43Z</time>
      </trkpt>
      <trkpt lat="44.22045" lon="5.55861">
        <ele>769</ele>
        <time>2019-05-24T12:16:44Z</time>
      </trkpt>
      <trkpt lat="44.22044" lon="5.55853">
        <ele>769</ele>
        <time>2019-05-24T12:16:45Z</time>
      </trkpt>
      <trkpt lat="44.22044" lon="5.55845">
        <ele>769</ele>
        <time>2019-05-24T12:16:46Z</time>
      </trkpt>
      <trkpt lat="44.22043" lon="5.55837">
        <ele>769</ele>
        <time>2019-05-24T12:16:47Z</time>
      </trkpt>
      <trkpt lat="44.22042" lon="5.55829">
        <ele>769</ele>
        <time>2019-05-24T12:16:48Z</time>
      </trkpt>
      <trkpt lat="44.22041" lon="5.55821">
        <ele>769</ele>
        <time>2019-05-24T12:16:49Z</time>
      </trkpt>
      <trkpt lat="44.2204" lon="5.55813">
        <ele>769</ele>
        <time>2019-05-24T12:16:50Z</time>
      </trkpt>
      <trkpt lat="44.22039" lon="5.55805">
        <ele>769</ele>
        <time>2019-05-24T12:16:51Z</time>
      </trkpt>
      <trkpt lat="44.22039" lon="5.55797">
        <ele>769</ele>
        <time>2019-05-24T12:16:52Z</time>
      </trkpt>
      <trkpt lat="44.22038" lon="5.55789">
        <ele>769</ele>
        <time>2019-05-24T12:16:53Z</time>
      </trkpt>
      <trkpt lat="44.22037" lon="5.55781">
        <ele>769</ele>
        <time>2019-05-24T12:16:54Z</time>
      </trkpt>
      <trkpt lat="44.22036" lon="5.55773">
        <ele>769</ele>
        <time>2019-05-24T12:16:55Z</time>
      </trkpt>
      <trkpt lat="44.22035" lon="5.55765">
        <ele>769</ele>
        <time>2019-05-24T12:16:56Z</time>
      </trkpt>
      <trkpt lat="44.22034" lon="5.55757">
        <ele>769</ele>
        <time>2019-05-24T12:16:57Z</time>
      </trkpt>
      <trkpt lat="44.22033" lon="5.55749">
        <ele>769</ele>
        <time>2019-05-24T12:16:58Z</time>
      </trkpt>
      <trkpt lat="44.22032" lon="5.5574">
        <ele>769</ele>
        <time>2019-05-24T12:16:59Z</time>
      </trkpt>
      <trkpt lat="44.22031" lon="5.55732">
        <ele>769</ele>
        <time>2019-05-24T12:17:00Z</time>
      </trkpt>
      <trkpt lat="44.22031" lon="5.55724">
        <ele>769</ele>
        <time>2019-05-24T12:17:01Z</time>
      </trkpt>
      <trkpt lat="44.2203" lon="5.55716">
        <ele>769</ele>
        <time>2019-05-24T12:17:02Z</time>
      </trkpt>
      <trkpt lat="44.22029" lon="5.55708">
        <ele>769</ele>
        <time>2019-05-24T12:17:03Z</time>
      </trkpt>
      <trkpt lat="44.22028" lon="5.557">
        <ele>769</ele>
        <time>2019-05-24T12:17:04Z</time>
      </trkpt>
      <trkpt lat="44.22027" lon="5.55692">
        <ele>769</ele>
        <time>2019-05-24T12:17:05Z</time>
      </trkpt>
      <trkpt lat="44.22026" lon="5.55684">
        <ele>769</ele>
        <time>2019-05-24T12:17:06Z</time>
      </trkpt>
      <trkpt lat="44.22026" lon="5.55676">
        <ele>769</ele>
        <time>2019-05-24T12:17:07Z</time>
      </trkpt>
      <trkpt lat="44.22025" lon="5.55668">
        <ele>769</ele>
        <time>2019-05-24T12:17:08Z</time>
      </trkpt>
      <trkpt lat="44.22024" lon="5.5566">
        <ele>769</ele>
        <time>2019-05-24T12:17:09Z</time>
      </trkpt>
      <trkpt lat="44.22023" lon="5.55652">
        <ele>769</ele>
        <time>2019-05-24T12:17:10Z</time>
      </trkpt>
      <trkpt lat="44.22022" lon="5.55644">
        <ele>769</ele>
        <time>2019-05-24T12:17:11Z</time>
      </trkpt>
      <trkpt lat="44.22021" lon="5.55636">
        <ele>769</ele>
        <time>2019-05-24T12:17:12Z</time>
      </trkpt>
      <trkpt lat="44.22021" lon="5.55628">
        <ele>769</ele>
        <time>2019-05-24T12:17:13Z</time>
      </trkpt>
      <trkpt lat="44.2202" lon="5.5562">
        <ele>769</ele>
        <time>2019-05-24T12:17:14Z</time>
      </trkpt>
      <trkpt lat="44.22019" lon="5.55612">
        <ele>769</ele>
        <time>2019-05-24T12:17:15Z</time>
      </trkpt>
      <trkpt lat="44.22018" lon="5.55605">
        <ele>769</ele>
        <time>2019-05-24T12:17:16Z</time>
      </trkpt>
      <trkpt lat="44.22018" lon="5.55597">
        <ele>769</ele>
        <time>2019-05-24T12:17:17Z</time>
      </trkpt>
      <trkpt lat="44.22017" lon="5.55589">
        <ele>769</ele>
        <time>2019-05-24T12:17:18Z</time>
      </trkpt>
      <trkpt lat="44.22016" lon="5.55581">
        <ele>769</ele>
        <time>2019-05-24T12:17:19Z</time>
      </trkpt>
      <trkpt lat="44.22015" lon="5.55573">
        <ele>769</ele>
        <time>2019-05-24T12:17:20Z</time>
      </trkpt>
      <trkpt lat="44.22015" lon="5.55566">
        <ele>769</ele>
        <time>2019-05-24T12:17:21Z</time>
      </trkpt>
      <trkpt lat="44.22014" lon="5.55558">
        <ele>769</ele>
        <time>2019-05-24T12:17:22Z</time>
      </trkpt>
      <trkpt lat="44.22013" lon="5.5555">
        <ele>769</ele>
        <time>2019-05-24T12:17:23Z</time>
      </trkpt>
      <trkpt lat="44.22012" lon="5.55543">
        <ele>769</ele>
        <time>2019-05-24T12:17:24Z</time>
      </trkpt>
      <trkpt lat="44.22011" lon="5.55535">
        <ele>769</ele>
        <time>2019-05-24T12:17:25Z</time>
      </trkpt>
      <trkpt lat="44.2201" lon="5.55527">
        <ele>769</ele>
        <time>2019-05-24T12:17:26Z</time>
      </trkpt>
      <trkpt lat="44.22009" lon="5.55519">
        <ele>769</ele>
        <time>2019-05-24T12:17:27Z</time>
      </trkpt>
      <trkpt lat="44.22009" lon="5.55512">
        <ele>769</ele>
        <time>2019-05-24T12:17:28Z</time>
      </trkpt>
      <trkpt lat="44.22008" lon="5.55504">
        <ele>769</ele>
        <time>2019-05-24T12:17:29Z</time>
      </trkpt>
      <trkpt lat="44.22007" lon="5.55496">
        <ele>769</ele>
        <time>2019-05-24T12:17:30Z</time>
      </trkpt>
      <trkpt lat="44.22006" lon="5.55488">
        <ele>769</ele>
        <time>2019-05-24T12:17:31Z</time>
      </trkpt>
      <trkpt lat="44.22005" lon="5.5548">
        <ele>769</ele>
        <time>2019-05-24T12:17:32Z</time>
      </trkpt>
      <trkpt lat="44.22004" lon="5.55472">
        <ele>769</ele>
        <time>2019-05-24T12:17:33Z</time>
      </trkpt>
      <trkpt lat="44.22004" lon="5.55464">
        <ele>769</ele>
        <time>2019-05-24T12:17:34Z</time>
      </trkpt>
      <trkpt lat="44.22002" lon="5.55455">
        <ele>769</ele>
        <time>2019-05-24T12:17:35Z</time>
      </trkpt>
      <trkpt lat="44.22002" lon="5.55447">
        <ele>769</ele>
        <time>2019-05-24T12:17:36Z</time>
      </trkpt>
      <trkpt lat="44.22001" lon="5.55438">
        <ele>769</ele>
        <time>2019-05-24T12:17:37Z</time>
      </trkpt>
      <trkpt lat="44.22" lon="5.5543">
        <ele>769</ele>
        <time>2019-05-24T12:17:38Z</time>
      </trkpt>
      <trkpt lat="44.21999" lon="5.55422">
        <ele>769</ele>
        <time>2019-05-24T12:17:39Z</time>
      </trkpt>
      <trkpt lat="44.21998" lon="5.55414">
        <ele>769</ele>
        <time>2019-05-24T12:17:40Z</time>
      </trkpt>
      <trkpt lat="44.21997" lon="5.55407">
        <ele>769</ele>
        <time>2019-05-24T12:17:41Z</time>
      </trkpt>
      <trkpt lat="44.21997" lon="5.55399">
        <ele>769</ele>
        <time>2019-05-24T12:17:42Z</time>
      </trkpt>
      <trkpt lat="44.21996" lon="5.55391">
        <ele>769</ele>
        <time>2019-05-24T12:17:43Z</time>
      </trkpt>
      <trkpt lat="44.21995" lon="5.55384">
        <ele>769</ele>
        <time>2019-05-24T12:17:44Z</time>
      </trkpt>
      <trkpt lat="44.21994" lon="5.55376">
        <ele>769</ele>
        <time>2019-05-24T12:17:45Z</time>
      </trkpt>
      <trkpt lat="44.21994" lon="5.55368">
        <ele>769</ele>
        <time>2019-05-24T12:17:46Z</time>
      </trkpt>
      <trkpt lat="44.21993" lon="5.55361">
        <ele>769</ele>
        <time>2019-05-24T12:17:47Z</time>
      </trkpt>
      <trkpt lat="44.21992" lon="5.55353">
        <ele>769</ele>
        <time>2019-05-24T12:17:48Z</time>
      </trkpt>
      <trkpt lat="44.21991" lon="5.55345">
        <ele>769</ele>
        <time>2019-05-24T12:17:49Z</time>
      </trkpt>
      <trkpt lat="44.2199" lon="5.55337">
        <ele>769</ele>
        <time>2019-05-24T12:17:50Z</time>
      </trkpt>
      <trkpt lat="44.21989" lon="5.55329">
        <ele>769</ele>
        <time>2019-05-24T12:17:51Z</time>
      </trkpt>
      <trkpt lat="44.21989" lon="5.55321">
        <ele>769</ele>
        <time>2019-05-24T12:17:52Z</time>
      </trkpt>
      <trkpt lat="44.21988" lon="5.55313">
        <ele>769</ele>
        <time>2019-05-24T12:17:53Z</time>
      </trkpt>
      <trkpt lat="44.21987" lon="5.55305">
        <ele>769</ele>
        <time>2019-05-24T12:17:54Z</time>
      </trkpt>
      <trkpt lat="44.21986" lon="5.55298">
        <ele>769</ele>
        <time>2019-05-24T12:17:55Z</time>
      </trkpt>
      <trkpt lat="44.21985" lon="5.5529">
        <ele>769</ele>
        <time>2019-05-24T12:17:56Z</time>
      </trkpt>
      <trkpt lat="44.21984" lon="5.55283">
        <ele>769</ele>
        <time>2019-05-24T12:17:57Z</time>
      </trkpt>
      <trkpt lat="44.21983" lon="5.55276">
        <ele>769</ele>
        <time>2019-05-24T12:17:58Z</time>
      </trkpt>
      <trkpt lat="44.21983" lon="5.55269">
        <ele>769</ele>
        <time>2019-05-24T12:17:59Z</time>
      </trkpt>
      <trkpt lat="44.21982" lon="5.55262">
        <ele>769</ele>
        <time>2019-05-24T12:18:00Z</time>
      </trkpt>
      <trkpt lat="44.21981" lon="5.55255">
        <ele>769</ele>
        <time>2019-05-24T12:18:01Z</time>
      </trkpt>
      <trkpt lat="44.2198" lon="5.55248">
        <ele>769</ele>
        <time>2019-05-24T12:18:02Z</time>
      </trkpt>
      <trkpt lat="44.21979" lon="5.55241">
        <ele>769</ele>
        <time>2019-05-24T12:18:03Z</time>
      </trkpt>
      <trkpt lat="44.21979" lon="5.55234">
        <ele>769</ele>
        <time>2019-05-24T12:18:04Z</time>
      </trkpt>
      <trkpt lat="44.21978" lon="5.55228">
        <ele>770</ele>
        <time>2019-05-24T12:18:05Z</time>
      </trkpt>
      <trkpt lat="44.21977" lon="5.55221">
        <ele>770</ele>
        <time>2019-05-24T12:18:06Z</time>
      </trkpt>
      <trkpt lat="44.21976" lon="5.55214">
        <ele>770</ele>
        <time>2019-05-24T12:18:07Z</time>
      </trkpt>
      <trkpt lat="44.21975" lon="5.55207">
        <ele>770</ele>
        <time>2019-05-24T12:18:08Z</time>
      </trkpt>
      <trkpt lat="44.21973" lon="5.552">
        <ele>770</ele>
        <time>2019-05-24T12:18:09Z</time>
      </trkpt>
      <trkpt lat="44.21972" lon="5.55194">
        <ele>770</ele>
        <time>2019-05-24T12:18:10Z</time>
      </trkpt>
      <trkpt lat="44.21972" lon="5.55187">
        <ele>770</ele>
        <time>2019-05-24T12:18:11Z</time>
      </trkpt>
      <trkpt lat="44.21971" lon="5.55181">
        <ele>770</ele>
        <time>2019-05-24T12:18:12Z</time>
      </trkpt>
      <trkpt lat="44.21969" lon="5.55174">
        <ele>770</ele>
        <time>2019-05-24T12:18:13Z</time>
      </trkpt>
      <trkpt lat="44.21968" lon="5.55168">
        <ele>771</ele>
        <time>2019-05-24T12:18:14Z</time>
      </trkpt>
      <trkpt lat="44.21966" lon="5.55162">
        <ele>771</ele>
        <time>2019-05-24T12:18:15Z</time>
      </trkpt>
      <trkpt lat="44.21965" lon="5.55156">
        <ele>771</ele>
        <time>2019-05-24T12:18:16Z</time>
      </trkpt>
      <trkpt lat="44.21963" lon="5.5515">
        <ele>771</ele>
        <time>2019-05-24T12:18:17Z</time>
      </trkpt>
      <trkpt lat="44.21961" lon="5.55144">
        <ele>771</ele>
        <time>2019-05-24T12:18:18Z</time>
      </trkpt>
      <trkpt lat="44.2196" lon="5.55138">
        <ele>772</ele>
        <time>2019-05-24T12:18:19Z</time>
      </trkpt>
      <trkpt lat="44.21958" lon="5.55132">
        <ele>772</ele>
        <time>2019-05-24T12:18:20Z</time>
      </trkpt>
      <trkpt lat="44.21956" lon="5.55126">
        <ele>772</ele>
        <time>2019-05-24T12:18:21Z</time>
      </trkpt>
      <trkpt lat="44.21954" lon="5.5512">
        <ele>772</ele>
        <time>2019-05-24T12:18:22Z</time>
      </trkpt>
      <trkpt lat="44.21953" lon="5.55115">
        <ele>772</ele>
        <time>2019-05-24T12:18:23Z</time>
      </trkpt>
      <trkpt lat="44.21951" lon="5.55109">
        <ele>772</ele>
        <time>2019-05-24T12:18:24Z</time>
      </trkpt>
      <trkpt lat="44.21948" lon="5.55103">
        <ele>772</ele>
        <time>2019-05-24T12:18:25Z</time>
      </trkpt>
      <trkpt lat="44.21946" lon="5.55097">
        <ele>772</ele>
        <time>2019-05-24T12:18:26Z</time>
      </trkpt>
      <trkpt lat="44.21944" lon="5.55092">
        <ele>772</ele>
        <time>2019-05-24T12:18:27Z</time>
      </trkpt>
      <trkpt lat="44.21942" lon="5.55087">
        <ele>772</ele>
        <time>2019-05-24T12:18:28Z</time>
      </trkpt>
      <trkpt lat="44.2194" lon="5.55081">
        <ele>772</ele>
        <time>2019-05-24T12:18:29Z</time>
      </trkpt>
      <trkpt lat="44.21938" lon="5.55075">
        <ele>772</ele>
        <time>2019-05-24T12:18:30Z</time>
      </trkpt>
      <trkpt lat="44.21936" lon="5.5507">
        <ele>773</ele>
        <time>2019-05-24T12:18:31Z</time>
      </trkpt>
      <trkpt lat="44.21935" lon="5.55065">
        <ele>773</ele>
        <time>2019-05-24T12:18:32Z</time>
      </trkpt>
      <trkpt lat="44.21933" lon="5.5506">
        <ele>773</ele>
        <time>2019-05-24T12:18:33Z</time>
      </trkpt>
      <trkpt lat="44.21931" lon="5.55055">
        <ele>773</ele>
        <time>2019-05-24T12:18:34Z</time>
      </trkpt>
      <trkpt lat="44.21929" lon="5.55049">
        <ele>774</ele>
        <time>2019-05-24T12:18:35Z</time>
      </trkpt>
      <trkpt lat="44.21928" lon="5.55044">
        <ele>774</ele>
        <time>2019-05-24T12:18:36Z</time>
      </trkpt>
      <trkpt lat="44.21926" lon="5.55039">
        <ele>774</ele>
        <time>2019-05-24T12:18:37Z</time>
      </trkpt>
      <trkpt lat="44.21923" lon="5.55033">
        <ele>774</ele>
        <time>2019-05-24T12:18:38Z</time>
      </trkpt>
      <trkpt lat="44.21921" lon="5.55028">
        <ele>774</ele>
        <time>2019-05-24T12:18:39Z</time>
      </trkpt>
      <trkpt lat="44.21919" lon="5.55023">
        <ele>774</ele>
        <time>2019-05-24T12:18:40Z</time>
      </trkpt>
      <trkpt lat="44.21918" lon="5.55018">
        <ele>774</ele>
        <time>2019-05-24T12:18:41Z</time>
      </trkpt>
      <trkpt lat="44.21916" lon="5.55013">
        <ele>774</ele>
        <time>2019-05-24T12:18:42Z</time>
      </trkpt>
      <trkpt lat="44.21914" lon="5.55008">
        <ele>774</ele>
        <time>2019-05-24T12:18:43Z</time>
      </trkpt>
      <trkpt lat="44.21912" lon="5.55003">
        <ele>774</ele>
        <time>2019-05-24T12:18:44Z</time>
      </trkpt>
      <trkpt lat="44.2191" lon="5.54998">
        <ele>774</ele>
        <time>2019-05-24T12:18:45Z</time>
      </trkpt>
      <trkpt lat="44.21909" lon="5.54993">
        <ele>774</ele>
        <time>2019-05-24T12:18:46Z</time>
      </trkpt>
      <trkpt lat="44.21907" lon="5.54988">
        <ele>774</ele>
        <time>2019-05-24T12:18:47Z</time>
      </trkpt>
      <trkpt lat="44.21905" lon="5.54983">
        <ele>774</ele>
        <time>2019-05-24T12:18:48Z</time>
      </trkpt>
      <trkpt lat="44.21903" lon="5.54978">
        <ele>774</ele>
        <time>2019-05-24T12:18:49Z</time>
      </trkpt>
      <trkpt lat="44.21901" lon="5.54973">
        <ele>775</ele>
        <time>2019-05-24T12:18:50Z</time>
      </trkpt>
      <trkpt lat="44.21899" lon="5.54968">
        <ele>775</ele>
        <time>2019-05-24T12:18:51Z</time>
      </trkpt>
      <trkpt lat="44.21898" lon="5.54963">
        <ele>775</ele>
        <time>2019-05-24T12:18:52Z</time>
      </trkpt>
      <trkpt lat="44.21896" lon="5.54958">
        <ele>775</ele>
        <time>2019-05-24T12:18:53Z</time>
      </trkpt>
      <trkpt lat="44.21894" lon="5.54953">
        <ele>775</ele>
        <time>2019-05-24T12:18:54Z</time>
      </trkpt>
      <trkpt lat="44.21892" lon="5.54949">
        <ele>775</ele>
        <time>2019-05-24T12:18:55Z</time>
      </trkpt>
      <trkpt lat="44.21891" lon="5.54944">
        <ele>775</ele>
        <time>2019-05-24T12:18:56Z</time>
      </trkpt>
      <trkpt lat="44.21888" lon="5.54939">
        <ele>775</ele>
        <time>2019-05-24T12:18:57Z</time>
      </trkpt>
      <trkpt lat="44.21887" lon="5.54934">
        <ele>775</ele>
        <time>2019-05-24T12:18:58Z</time>
      </trkpt>
      <trkpt lat="44.21885" lon="5.54929">
        <ele>775</ele>
        <time>2019-05-24T12:18:59Z</time>
      </trkpt>
      <trkpt lat="44.21883" lon="5.54924">
        <ele>775</ele>
        <time>2019-05-24T12:19:00Z</time>
      </trkpt>
      <trkpt lat="44.21881" lon="5.54919">
        <ele>775</ele>
        <time>2019-05-24T12:19:01Z</time>
      </trkpt>
      <trkpt lat="44.2188" lon="5.54915">
        <ele>775</ele>
        <time>2019-05-24T12:19:02Z</time>
      </trkpt>
      <trkpt lat="44.21878" lon="5.5491">
        <ele>775</ele>
        <time>2019-05-24T12:19:03Z</time>
      </trkpt>
      <trkpt lat="44.21876" lon="5.54905">
        <ele>776</ele>
        <time>2019-05-24T12:19:04Z</time>
      </trkpt>
      <trkpt lat="44.21874" lon="5.549">
        <ele>776</ele>
        <time>2019-05-24T12:19:05Z</time>
      </trkpt>
      <trkpt lat="44.21872" lon="5.54895">
        <ele>776</ele>
        <time>2019-05-24T12:19:06Z</time>
      </trkpt>
      <trkpt lat="44.2187" lon="5.5489">
        <ele>776</ele>
        <time>2019-05-24T12:19:07Z</time>
      </trkpt>
      <trkpt lat="44.21869" lon="5.54885">
        <ele>776</ele>
        <time>2019-05-24T12:19:08Z</time>
      </trkpt>
      <trkpt lat="44.21867" lon="5.5488">
        <ele>776</ele>
        <time>2019-05-24T12:19:09Z</time>
      </trkpt>
      <trkpt lat="44.21865" lon="5.54875">
        <ele>776</ele>
        <time>2019-05-24T12:19:10Z</time>
      </trkpt>
      <trkpt lat="44.21863" lon="5.5487">
        <ele>776</ele>
        <time>2019-05-24T12:19:11Z</time>
      </trkpt>
      <trkpt lat="44.21861" lon="5.54865">
        <ele>776</ele>
        <time>2019-05-24T12:19:12Z</time>
      </trkpt>
      <trkpt lat="44.21859" lon="5.5486">
        <ele>777</ele>
        <time>2019-05-24T12:19:13Z</time>
      </trkpt>
      <trkpt lat="44.21857" lon="5.54855">
        <ele>777</ele>
        <time>2019-05-24T12:19:14Z</time>
      </trkpt>
      <trkpt lat="44.21855" lon="5.5485">
        <ele>777</ele>
        <time>2019-05-24T12:19:15Z</time>
      </trkpt>
      <trkpt lat="44.21854" lon="5.54845">
        <ele>777</ele>
        <time>2019-05-24T12:19:16Z</time>
      </trkpt>
      <trkpt lat="44.21852" lon="5.5484">
        <ele>777</ele>
        <time>2019-05-24T12:19:17Z</time>
      </trkpt>
      <trkpt lat="44.2185" lon="5.54835">
        <ele>777</ele>
        <time>2019-05-24T12:19:18Z</time>
      </trkpt>
      <trkpt lat="44.21849" lon="5.5483">
        <ele>777</ele>
        <time>2019-05-24T12:19:19Z</time>
      </trkpt>
      <trkpt lat="44.21846" lon="5.54825">
        <ele>778</ele>
        <time>2019-05-24T12:19:20Z</time>
      </trkpt>
      <trkpt lat="44.21845" lon="5.5482">
        <ele>778</ele>
        <time>2019-05-24T12:19:21Z</time>
      </trkpt>
      <trkpt lat="44.21843" lon="5.54815">
        <ele>778</ele>
        <time>2019-05-24T12:19:22Z</time>
      </trkpt>
      <trkpt lat="44.21841" lon="5.5481">
        <ele>778</ele>
        <time>2019-05-24T12:19:23Z</time>
      </trkpt>
      <trkpt lat="44.21839" lon="5.54805">
        <ele>778</ele>
        <time>2019-05-24T12:19:24Z</time>
      </trkpt>
      <trkpt lat="44.21837" lon="5.548">
        <ele>778</ele>
        <time>2019-05-24T12:19:25Z</time>
      </trkpt>
      <trkpt lat="44.21835" lon="5.54795">
        <ele>778</ele>
        <time>2019-05-24T12:19:26Z</time>
      </trkpt>
      <trkpt lat="44.21833" lon="5.54789">
        <ele>778</ele>
        <time>2019-05-24T12:19:27Z</time>
      </trkpt>
      <trkpt lat="44.21832" lon="5.54784">
        <ele>778</ele>
        <time>2019-05-24T12:19:28Z</time>
      </trkpt>
      <trkpt lat="44.2183" lon="5.54778">
        <ele>779</ele>
        <time>2019-05-24T12:19:29Z</time>
      </trkpt>
      <trkpt lat="44.21827" lon="5.54773">
        <ele>779</ele>
        <time>2019-05-24T12:19:30Z</time>
      </trkpt>
      <trkpt lat="44.21825" lon="5.54767">
        <ele>779</ele>
        <time>2019-05-24T12:19:31Z</time>
      </trkpt>
      <trkpt lat="44.21823" lon="5.54761">
        <ele>779</ele>
        <time>2019-05-24T12:19:32Z</time>
      </trkpt>
      <trkpt lat="44.2182" lon="5.54755">
        <ele>780</ele>
        <time>2019-05-24T12:19:33Z</time>
      </trkpt>
      <trkpt lat="44.21818" lon="5.54748">
        <ele>780</ele>
        <time>2019-05-24T12:19:34Z</time>
      </trkpt>
      <trkpt lat="44.21815" lon="5.54742">
        <ele>780</ele>
        <time>2019-05-24T12:19:35Z</time>
      </trkpt>
      <trkpt lat="44.21813" lon="5.54735">
        <ele>780</ele>
        <time>2019-05-24T12:19:36Z</time>
      </trkpt>
      <trkpt lat="44.21811" lon="5.54728">
        <ele>780</ele>
        <time>2019-05-24T12:19:37Z</time>
      </trkpt>
      <trkpt lat="44.21808" lon="5.54722">
        <ele>780</ele>
        <time>2019-05-24T12:19:38Z</time>
      </trkpt>
      <trkpt lat="44.21806" lon="5.54715">
        <ele>780</ele>
        <time>2019-05-24T12:19:39Z</time>
      </trkpt>
      <trkpt lat="44.21803" lon="5.54708">
        <ele>780</ele>
        <time>2019-05-24T12:19:40Z</time>
      </trkpt>
      <trkpt lat="44.21801" lon="5.547">
        <ele>780</ele>
        <time>2019-05-24T12:19:41Z</time>
      </trkpt>
      <trkpt lat="44.21798" lon="5.54693">
        <ele>780</ele>
        <time>2019-05-24T12:19:43Z</time>
      </trkpt>
      <trkpt lat="44.21795" lon="5.54686">
        <ele>781</ele>
        <time>2019-05-24T12:19:43Z</time>
      </trkpt>
      <trkpt lat="44.21792" lon="5.54678">
        <ele>781</ele>
        <time>2019-05-24T12:19:44Z</time>
      </trkpt>
      <trkpt lat="44.21789" lon="5.54671">
        <ele>781</ele>
        <time>2019-05-24T12:19:45Z</time>
      </trkpt>
      <trkpt lat="44.21786" lon="5.54663">
        <ele>781</ele>
        <time>2019-05-24T12:19:46Z</time>
      </trkpt>
      <trkpt lat="44.21783" lon="5.54655">
        <ele>781</ele>
        <time>2019-05-24T12:19:47Z</time>
      </trkpt>
      <trkpt lat="44.2178" lon="5.54647">
        <ele>781</ele>
        <time>2019-05-24T12:19:48Z</time>
      </trkpt>
      <trkpt lat="44.21777" lon="5.5464">
        <ele>781</ele>
        <time>2019-05-24T12:19:49Z</time>
      </trkpt>
      <trkpt lat="44.21775" lon="5.54632">
        <ele>781</ele>
        <time>2019-05-24T12:19:50Z</time>
      </trkpt>
      <trkpt lat="44.21772" lon="5.54623">
        <ele>781</ele>
        <time>2019-05-24T12:19:51Z</time>
      </trkpt>
      <trkpt lat="44.21769" lon="5.54615">
        <ele>781</ele>
        <time>2019-05-24T12:19:52Z</time>
      </trkpt>
      <trkpt lat="44.21765" lon="5.54607">
        <ele>781</ele>
        <time>2019-05-24T12:19:53Z</time>
      </trkpt>
      <trkpt lat="44.21762" lon="5.54599">
        <ele>781</ele>
        <time>2019-05-24T12:19:54Z</time>
      </trkpt>
      <trkpt lat="44.21759" lon="5.54591">
        <ele>781</ele>
        <time>2019-05-24T12:19:55Z</time>
      </trkpt>
      <trkpt lat="44.21756" lon="5.54582">
        <ele>781</ele>
        <time>2019-05-24T12:19:56Z</time>
      </trkpt>
      <trkpt lat="44.21753" lon="5.54574">
        <ele>781</ele>
        <time>2019-05-24T12:19:57Z</time>
      </trkpt>
      <trkpt lat="44.21749" lon="5.54565">
        <ele>781</ele>
        <time>2019-05-24T12:19:58Z</time>
      </trkpt>
      <trkpt lat="44.21746" lon="5.54557">
        <ele>781</ele>
        <time>2019-05-24T12:19:59Z</time>
      </trkpt>
      <trkpt lat="44.21743" lon="5.54549">
        <ele>781</ele>
        <time>2019-05-24T12:20:00Z</time>
      </trkpt>
      <trkpt lat="44.2174" lon="5.5454">
        <ele>781</ele>
        <time>2019-05-24T12:20:01Z</time>
      </trkpt>
      <trkpt lat="44.21737" lon="5.54532">
        <ele>781</ele>
        <time>2019-05-24T12:20:02Z</time>
      </trkpt>
      <trkpt lat="44.21733" lon="5.54523">
        <ele>781</ele>
        <time>2019-05-24T12:20:03Z</time>
      </trkpt>
      <trkpt lat="44.2173" lon="5.54514">
        <ele>781</ele>
        <time>2019-05-24T12:20:04Z</time>
      </trkpt>
      <trkpt lat="44.21727" lon="5.54505">
        <ele>781</ele>
        <time>2019-05-24T12:20:05Z</time>
      </trkpt>
      <trkpt lat="44.21723" lon="5.54496">
        <ele>781</ele>
        <time>2019-05-24T12:20:06Z</time>
      </trkpt>
      <trkpt lat="44.21719" lon="5.54488">
        <ele>781</ele>
        <time>2019-05-24T12:20:07Z</time>
      </trkpt>
      <trkpt lat="44.21716" lon="5.54479">
        <ele>781</ele>
        <time>2019-05-24T12:20:08Z</time>
      </trkpt>
      <trkpt lat="44.21712" lon="5.54471">
        <ele>781</ele>
        <time>2019-05-24T12:20:09Z</time>
      </trkpt>
      <trkpt lat="44.21709" lon="5.54462">
        <ele>781</ele>
        <time>2019-05-24T12:20:10Z</time>
      </trkpt>
      <trkpt lat="44.21705" lon="5.54454">
        <ele>781</ele>
        <time>2019-05-24T12:20:11Z</time>
      </trkpt>
      <trkpt lat="44.21702" lon="5.54445">
        <ele>781</ele>
        <time>2019-05-24T12:20:12Z</time>
      </trkpt>
      <trkpt lat="44.21699" lon="5.54437">
        <ele>781</ele>
        <time>2019-05-24T12:20:13Z</time>
      </trkpt>
      <trkpt lat="44.21696" lon="5.5443">
        <ele>781</ele>
        <time>2019-05-24T12:20:14Z</time>
      </trkpt>
      <trkpt lat="44.21692" lon="5.54423">
        <ele>781</ele>
        <time>2019-05-24T12:20:15Z</time>
      </trkpt>
      <trkpt lat="44.21688" lon="5.54417">
        <ele>781</ele>
        <time>2019-05-24T12:20:16Z</time>
      </trkpt>
      <trkpt lat="44.21684" lon="5.5441">
        <ele>781</ele>
        <time>2019-05-24T12:20:17Z</time>
      </trkpt>
      <trkpt lat="44.21679" lon="5.54404">
        <ele>781</ele>
        <time>2019-05-24T12:20:18Z</time>
      </trkpt>
      <trkpt lat="44.21675" lon="5.54398">
        <ele>781</ele>
        <time>2019-05-24T12:20:19Z</time>
      </trkpt>
      <trkpt lat="44.2167" lon="5.54392">
        <ele>781</ele>
        <time>2019-05-24T12:20:20Z</time>
      </trkpt>
      <trkpt lat="44.21665" lon="5.54387">
        <ele>781</ele>
        <time>2019-05-24T12:20:21Z</time>
      </trkpt>
      <trkpt lat="44.2166" lon="5.54382">
        <ele>781</ele>
        <time>2019-05-24T12:20:22Z</time>
      </trkpt>
      <trkpt lat="44.21655" lon="5.54378">
        <ele>781</ele>
        <time>2019-05-24T12:20:23Z</time>
      </trkpt>
      <trkpt lat="44.2165" lon="5.54373">
        <ele>781</ele>
        <time>2019-05-24T12:20:24Z</time>
      </trkpt>
      <trkpt lat="44.21645" lon="5.54369">
        <ele>781</ele>
        <time>2019-05-24T12:20:25Z</time>
      </trkpt>
      <trkpt lat="44.21639" lon="5.54366">
        <ele>781</ele>
        <time>2019-05-24T12:20:26Z</time>
      </trkpt>
      <trkpt lat="44.21634" lon="5.54362">
        <ele>781</ele>
        <time>2019-05-24T12:20:27Z</time>
      </trkpt>
      <trkpt lat="44.21628" lon="5.54359">
        <ele>781</ele>
        <time>2019-05-24T12:20:28Z</time>
      </trkpt>
      <trkpt lat="44.21623" lon="5.54357">
        <ele>781</ele>
        <time>2019-05-24T12:20:29Z</time>
      </trkpt>
      <trkpt lat="44.21619" lon="5.54355">
        <ele>781</ele>
        <time>2019-05-24T12:20:30Z</time>
      </trkpt>
      <trkpt lat="44.21613" lon="5.54353">
        <ele>781</ele>
        <time>2019-05-24T12:20:31Z</time>
      </trkpt>
      <trkpt lat="44.21608" lon="5.54351">
        <ele>781</ele>
        <time>2019-05-24T12:20:32Z</time>
      </trkpt>
      <trkpt lat="44.21602" lon="5.54348">
        <ele>781</ele>
        <time>2019-05-24T12:20:33Z</time>
      </trkpt>
      <trkpt lat="44.21597" lon="5.54344">
        <ele>781</ele>
        <time>2019-05-24T12:20:34Z</time>
      </trkpt>
      <trkpt lat="44.21592" lon="5.5434">
        <ele>781</ele>
        <time>2019-05-24T12:20:35Z</time>
      </trkpt>
      <trkpt lat="44.21587" lon="5.54336">
        <ele>781</ele>
        <time>2019-05-24T12:20:36Z</time>
      </trkpt>
      <trkpt lat="44.21582" lon="5.54331">
        <ele>781</ele>
        <time>2019-05-24T12:20:37Z</time>
      </trkpt>
      <trkpt lat="44.21577" lon="5.54326">
        <ele>781</ele>
        <time>2019-05-24T12:20:38Z</time>
      </trkpt>
      <trkpt lat="44.21572" lon="5.54321">
        <ele>781</ele>
        <time>2019-05-24T12:20:39Z</time>
      </trkpt>
      <trkpt lat="44.21568" lon="5.54317">
        <ele>781</ele>
        <time>2019-05-24T12:20:40Z</time>
      </trkpt>
      <trkpt lat="44.21563" lon="5.54312">
        <ele>781</ele>
        <time>2019-05-24T12:20:41Z</time>
      </trkpt>
      <trkpt lat="44.21559" lon="5.54307">
        <ele>781</ele>
        <time>2019-05-24T12:20:42Z</time>
      </trkpt>
      <trkpt lat="44.21554" lon="5.54302">
        <ele>781</ele>
        <time>2019-05-24T12:20:43Z</time>
      </trkpt>
      <trkpt lat="44.2155" lon="5.54297">
        <ele>781</ele>
        <time>2019-05-24T12:20:44Z</time>
      </trkpt>
      <trkpt lat="44.21545" lon="5.54292">
        <ele>781</ele>
        <time>2019-05-24T12:20:45Z</time>
      </trkpt>
      <trkpt lat="44.21541" lon="5.54287">
        <ele>781</ele>
        <time>2019-05-24T12:20:46Z</time>
      </trkpt>
      <trkpt lat="44.21536" lon="5.54282">
        <ele>781</ele>
        <time>2019-05-24T12:20:47Z</time>
      </trkpt>
      <trkpt lat="44.21532" lon="5.54276">
        <ele>781</ele>
        <time>2019-05-24T12:20:48Z</time>
      </trkpt>
      <trkpt lat="44.21528" lon="5.54271">
        <ele>781</ele>
        <time>2019-05-24T12:20:49Z</time>
      </trkpt>
      <trkpt lat="44.21523" lon="5.54266">
        <ele>781</ele>
        <time>2019-05-24T12:20:50Z</time>
      </trkpt>
      <trkpt lat="44.21519" lon="5.54261">
        <ele>781</ele>
        <time>2019-05-24T12:20:51Z</time>
      </trkpt>
      <trkpt lat="44.21514" lon="5.54256">
        <ele>781</ele>
        <time>2019-05-24T12:20:52Z</time>
      </trkpt>
      <trkpt lat="44.2151" lon="5.5425">
        <ele>781</ele>
        <time>2019-05-24T12:20:53Z</time>
      </trkpt>
      <trkpt lat="44.21505" lon="5.54246">
        <ele>781</ele>
        <time>2019-05-24T12:20:54Z</time>
      </trkpt>
      <trkpt lat="44.215" lon="5.54241">
        <ele>780</ele>
        <time>2019-05-24T12:20:55Z</time>
      </trkpt>
      <trkpt lat="44.21495" lon="5.54236">
        <ele>780</ele>
        <time>2019-05-24T12:20:56Z</time>
      </trkpt>
      <trkpt lat="44.21491" lon="5.5423">
        <ele>780</ele>
        <time>2019-05-24T12:20:57Z</time>
      </trkpt>
      <trkpt lat="44.21486" lon="5.54225">
        <ele>780</ele>
        <time>2019-05-24T12:20:58Z</time>
      </trkpt>
      <trkpt lat="44.21482" lon="5.5422">
        <ele>779</ele>
        <time>2019-05-24T12:20:59Z</time>
      </trkpt>
      <trkpt lat="44.21477" lon="5.54215">
        <ele>779</ele>
        <time>2019-05-24T12:21:00Z</time>
      </trkpt>
      <trkpt lat="44.21473" lon="5.5421">
        <ele>779</ele>
        <time>2019-05-24T12:21:01Z</time>
      </trkpt>
      <trkpt lat="44.21468" lon="5.54205">
        <ele>779</ele>
        <time>2019-05-24T12:21:02Z</time>
      </trkpt>
      <trkpt lat="44.21464" lon="5.542">
        <ele>779</ele>
        <time>2019-05-24T12:21:03Z</time>
      </trkpt>
      <trkpt lat="44.21459" lon="5.54195">
        <ele>779</ele>
        <time>2019-05-24T12:21:04Z</time>
      </trkpt>
      <trkpt lat="44.21455" lon="5.54191">
        <ele>779</ele>
        <time>2019-05-24T12:21:05Z</time>
      </trkpt>
      <trkpt lat="44.2145" lon="5.54186">
        <ele>779</ele>
        <time>2019-05-24T12:21:06Z</time>
      </trkpt>
      <trkpt lat="44.21446" lon="5.54181">
        <ele>779</ele>
        <time>2019-05-24T12:21:07Z</time>
      </trkpt>
      <trkpt lat="44.21442" lon="5.54176">
        <ele>779</ele>
        <time>2019-05-24T12:21:08Z</time>
      </trkpt>
      <trkpt lat="44.21437" lon="5.54171">
        <ele>779</ele>
        <time>2019-05-24T12:21:09Z</time>
      </trkpt>
      <trkpt lat="44.21434" lon="5.54167">
        <ele>779</ele>
        <time>2019-05-24T12:21:10Z</time>
      </trkpt>
      <trkpt lat="44.21429" lon="5.54161">
        <ele>779</ele>
        <time>2019-05-24T12:21:11Z</time>
      </trkpt>
      <trkpt lat="44.21425" lon="5.54156">
        <ele>779</ele>
        <time>2019-05-24T12:21:12Z</time>
      </trkpt>
      <trkpt lat="44.21421" lon="5.54151">
        <ele>779</ele>
        <time>2019-05-24T12:21:13Z</time>
      </trkpt>
      <trkpt lat="44.21417" lon="5.54147">
        <ele>779</ele>
        <time>2019-05-24T12:21:14Z</time>
      </trkpt>
      <trkpt lat="44.21413" lon="5.54142">
        <ele>779</ele>
        <time>2019-05-24T12:21:15Z</time>
      </trkpt>
      <trkpt lat="44.21409" lon="5.54138">
        <ele>779</ele>
        <time>2019-05-24T12:21:16Z</time>
      </trkpt>
      <trkpt lat="44.21405" lon="5.54133">
        <ele>779</ele>
        <time>2019-05-24T12:21:17Z</time>
      </trkpt>
      <trkpt lat="44.21402" lon="5.54129">
        <ele>779</ele>
        <time>2019-05-24T12:21:18Z</time>
      </trkpt>
      <trkpt lat="44.21398" lon="5.54124">
        <ele>779</ele>
        <time>2019-05-24T12:21:19Z</time>
      </trkpt>
      <trkpt lat="44.21394" lon="5.5412">
        <ele>779</ele>
        <time>2019-05-24T12:21:20Z</time>
      </trkpt>
      <trkpt lat="44.2139" lon="5.54116">
        <ele>779</ele>
        <time>2019-05-24T12:21:21Z</time>
      </trkpt>
      <trkpt lat="44.21386" lon="5.54111">
        <ele>779</ele>
        <time>2019-05-24T12:21:22Z</time>
      </trkpt>
      <trkpt lat="44.21382" lon="5.54107">
        <ele>779</ele>
        <time>2019-05-24T12:21:23Z</time>
      </trkpt>
      <trkpt lat="44.21378" lon="5.54103">
        <ele>779</ele>
        <time>2019-05-24T12:21:24Z</time>
      </trkpt>
      <trkpt lat="44.21375" lon="5.54098">
        <ele>779</ele>
        <time>2019-05-24T12:21:25Z</time>
      </trkpt>
      <trkpt lat="44.21371" lon="5.54095">
        <ele>779</ele>
        <time>2019-05-24T12:21:26Z</time>
      </trkpt>
      <trkpt lat="44.21368" lon="5.5409">
        <ele>779</ele>
        <time>2019-05-24T12:21:27Z</time>
      </trkpt>
      <trkpt lat="44.21364" lon="5.54086">
        <ele>779</ele>
        <time>2019-05-24T12:21:28Z</time>
      </trkpt>
      <trkpt lat="44.2136" lon="5.54082">
        <ele>779</ele>
        <time>2019-05-24T12:21:29Z</time>
      </trkpt>
      <trkpt lat="44.21357" lon="5.54078">
        <ele>779</ele>
        <time>2019-05-24T12:21:30Z</time>
      </trkpt>
      <trkpt lat="44.21353" lon="5.54074">
        <ele>779</ele>
        <time>2019-05-24T12:21:31Z</time>
      </trkpt>
      <trkpt lat="44.2135" lon="5.5407">
        <ele>779</ele>
        <time>2019-05-24T12:21:32Z</time>
      </trkpt>
      <trkpt lat="44.21346" lon="5.54066">
        <ele>779</ele>
        <time>2019-05-24T12:21:33Z</time>
      </trkpt>
      <trkpt lat="44.21342" lon="5.54062">
        <ele>779</ele>
        <time>2019-05-24T12:21:34Z</time>
      </trkpt>
      <trkpt lat="44.21338" lon="5.54058">
        <ele>779</ele>
        <time>2019-05-24T12:21:35Z</time>
      </trkpt>
      <trkpt lat="44.21334" lon="5.54054">
        <ele>779</ele>
        <time>2019-05-24T12:21:36Z</time>
      </trkpt>
      <trkpt lat="44.2133" lon="5.5405">
        <ele>779</ele>
        <time>2019-05-24T12:21:37Z</time>
      </trkpt>
      <trkpt lat="44.21326" lon="5.54046">
        <ele>779</ele>
        <time>2019-05-24T12:21:38Z</time>
      </trkpt>
      <trkpt lat="44.21322" lon="5.54043">
        <ele>779</ele>
        <time>2019-05-24T12:21:39Z</time>
      </trkpt>
      <trkpt lat="44.21318" lon="5.54039">
        <ele>780</ele>
        <time>2019-05-24T12:21:40Z</time>
      </trkpt>
      <trkpt lat="44.21314" lon="5.54036">
        <ele>780</ele>
        <time>2019-05-24T12:21:41Z</time>
      </trkpt>
      <trkpt lat="44.2131" lon="5.54033">
        <ele>780</ele>
        <time>2019-05-24T12:21:42Z</time>
      </trkpt>
      <trkpt lat="44.21306" lon="5.54031">
        <ele>780</ele>
        <time>2019-05-24T12:21:43Z</time>
      </trkpt>
      <trkpt lat="44.21302" lon="5.54028">
        <ele>781</ele>
        <time>2019-05-24T12:21:44Z</time>
      </trkpt>
      <trkpt lat="44.21298" lon="5.54025">
        <ele>781</ele>
        <time>2019-05-24T12:21:45Z</time>
      </trkpt>
      <trkpt lat="44.21294" lon="5.54023">
        <ele>781</ele>
        <time>2019-05-24T12:21:46Z</time>
      </trkpt>
      <trkpt lat="44.2129" lon="5.5402">
        <ele>781</ele>
        <time>2019-05-24T12:21:47Z</time>
      </trkpt>
      <trkpt lat="44.21286" lon="5.54017">
        <ele>781</ele>
        <time>2019-05-24T12:21:48Z</time>
      </trkpt>
      <trkpt lat="44.21283" lon="5.54015">
        <ele>782</ele>
        <time>2019-05-24T12:21:49Z</time>
      </trkpt>
      <trkpt lat="44.21279" lon="5.54013">
        <ele>782</ele>
        <time>2019-05-24T12:21:50Z</time>
      </trkpt>
      <trkpt lat="44.21275" lon="5.5401">
        <ele>782</ele>
        <time>2019-05-24T12:21:51Z</time>
      </trkpt>
      <trkpt lat="44.21272" lon="5.54008">
        <ele>783</ele>
        <time>2019-05-24T12:21:52Z</time>
      </trkpt>
      <trkpt lat="44.21268" lon="5.54006">
        <ele>783</ele>
        <time>2019-05-24T12:21:53Z</time>
      </trkpt>
      <trkpt lat="44.21264" lon="5.54004">
        <ele>783</ele>
        <time>2019-05-24T12:21:54Z</time>
      </trkpt>
      <trkpt lat="44.2126" lon="5.54002">
        <ele>783</ele>
        <time>2019-05-24T12:21:55Z</time>
      </trkpt>
      <trkpt lat="44.21257" lon="5.54">
        <ele>784</ele>
        <time>2019-05-24T12:21:56Z</time>
      </trkpt>
      <trkpt lat="44.21253" lon="5.53998">
        <ele>784</ele>
        <time>2019-05-24T12:21:57Z</time>
      </trkpt>
      <trkpt lat="44.21249" lon="5.53995">
        <ele>784</ele>
        <time>2019-05-24T12:21:58Z</time>
      </trkpt>
      <trkpt lat="44.21245" lon="5.53993">
        <ele>784</ele>
        <time>2019-05-24T12:21:59Z</time>
      </trkpt>
      <trkpt lat="44.21241" lon="5.53991">
        <ele>784</ele>
        <time>2019-05-24T12:22:00Z</time>
      </trkpt>
      <trkpt lat="44.21237" lon="5.53989">
        <ele>784</ele>
        <time>2019-05-24T12:22:01Z</time>
      </trkpt>
      <trkpt lat="44.21233" lon="5.53987">
        <ele>785</ele>
        <time>2019-05-24T12:22:02Z</time>
      </trkpt>
      <trkpt lat="44.2123" lon="5.53985">
        <ele>785</ele>
        <time>2019-05-24T12:22:03Z</time>
      </trkpt>
      <trkpt lat="44.21226" lon="5.53983">
        <ele>785</ele>
        <time>2019-05-24T12:22:04Z</time>
      </trkpt>
      <trkpt lat="44.21222" lon="5.53981">
        <ele>785</ele>
        <time>2019-05-24T12:22:05Z</time>
      </trkpt>
      <trkpt lat="44.21218" lon="5.53979">
        <ele>786</ele>
        <time>2019-05-24T12:22:06Z</time>
      </trkpt>
      <trkpt lat="44.21214" lon="5.53977">
        <ele>786</ele>
        <time>2019-05-24T12:22:07Z</time>
      </trkpt>
      <trkpt lat="44.2121" lon="5.53975">
        <ele>786</ele>
        <time>2019-05-24T12:22:08Z</time>
      </trkpt>
      <trkpt lat="44.21206" lon="5.53973">
        <ele>786</ele>
        <time>2019-05-24T12:22:09Z</time>
      </trkpt>
      <trkpt lat="44.21202" lon="5.53971">
        <ele>787</ele>
        <time>2019-05-24T12:22:10Z</time>
      </trkpt>
      <trkpt lat="44.21198" lon="5.53969">
        <ele>787</ele>
        <time>2019-05-24T12:22:11Z</time>
      </trkpt>
      <trkpt lat="44.21194" lon="5.53967">
        <ele>787</ele>
        <time>2019-05-24T12:22:12Z</time>
      </trkpt>
      <trkpt lat="44.2119" lon="5.53964">
        <ele>787</ele>
        <time>2019-05-24T12:22:13Z</time>
      </trkpt>
      <trkpt lat="44.21186" lon="5.53962">
        <ele>787</ele>
        <time>2019-05-24T12:22:14Z</time>
      </trkpt>
      <trkpt lat="44.21182" lon="5.5396">
        <ele>787</ele>
        <time>2019-05-24T12:22:15Z</time>
      </trkpt>
      <trkpt lat="44.21178" lon="5.53958">
        <ele>787</ele>
        <time>2019-05-24T12:22:16Z</time>
      </trkpt>
      <trkpt lat="44.21173" lon="5.53955">
        <ele>787</ele>
        <time>2019-05-24T12:22:17Z</time>
      </trkpt>
      <trkpt lat="44.21169" lon="5.53953">
        <ele>788</ele>
        <time>2019-05-24T12:22:18Z</time>
      </trkpt>
      <trkpt lat="44.21165" lon="5.53951">
        <ele>788</ele>
        <time>2019-05-24T12:22:19Z</time>
      </trkpt>
      <trkpt lat="44.21161" lon="5.53949">
        <ele>788</ele>
        <time>2019-05-24T12:22:20Z</time>
      </trkpt>
      <trkpt lat="44.21157" lon="5.53947">
        <ele>788</ele>
        <time>2019-05-24T12:22:21Z</time>
      </trkpt>
      <trkpt lat="44.21153" lon="5.53944">
        <ele>788</ele>
        <time>2019-05-24T12:22:22Z</time>
      </trkpt>
      <trkpt lat="44.21149" lon="5.53942">
        <ele>788</ele>
        <time>2019-05-24T12:22:23Z</time>
      </trkpt>
      <trkpt lat="44.21144" lon="5.5394">
        <ele>788</ele>
        <time>2019-05-24T12:22:24Z</time>
      </trkpt>
      <trkpt lat="44.2114" lon="5.53938">
        <ele>789</ele>
        <time>2019-05-24T12:22:25Z</time>
      </trkpt>
      <trkpt lat="44.21136" lon="5.53936">
        <ele>789</ele>
        <time>2019-05-24T12:22:26Z</time>
      </trkpt>
      <trkpt lat="44.21132" lon="5.53934">
        <ele>789</ele>
        <time>2019-05-24T12:22:27Z</time>
      </trkpt>
      <trkpt lat="44.21128" lon="5.53932">
        <ele>789</ele>
        <time>2019-05-24T12:22:28Z</time>
      </trkpt>
      <trkpt lat="44.21124" lon="5.5393">
        <ele>789</ele>
        <time>2019-05-24T12:22:29Z</time>
      </trkpt>
      <trkpt lat="44.2112" lon="5.53927">
        <ele>790</ele>
        <time>2019-05-24T12:22:30Z</time>
      </trkpt>
      <trkpt lat="44.21116" lon="5.53925">
        <ele>790</ele>
        <time>2019-05-24T12:22:31Z</time>
      </trkpt>
      <trkpt lat="44.21112" lon="5.53923">
        <ele>790</ele>
        <time>2019-05-24T12:22:32Z</time>
      </trkpt>
      <trkpt lat="44.21107" lon="5.53921">
        <ele>790</ele>
        <time>2019-05-24T12:22:33Z</time>
      </trkpt>
      <trkpt lat="44.21103" lon="5.53918">
        <ele>790</ele>
        <time>2019-05-24T12:22:34Z</time>
      </trkpt>
      <trkpt lat="44.21099" lon="5.53916">
        <ele>790</ele>
        <time>2019-05-24T12:22:35Z</time>
      </trkpt>
      <trkpt lat="44.21096" lon="5.53914">
        <ele>790</ele>
        <time>2019-05-24T12:22:36Z</time>
      </trkpt>
      <trkpt lat="44.21091" lon="5.53911">
        <ele>791</ele>
        <time>2019-05-24T12:22:37Z</time>
      </trkpt>
      <trkpt lat="44.21087" lon="5.53909">
        <ele>791</ele>
        <time>2019-05-24T12:22:38Z</time>
      </trkpt>
      <trkpt lat="44.21083" lon="5.53907">
        <ele>792</ele>
        <time>2019-05-24T12:22:39Z</time>
      </trkpt>
      <trkpt lat="44.21079" lon="5.53904">
        <ele>792</ele>
        <time>2019-05-24T12:22:40Z</time>
      </trkpt>
      <trkpt lat="44.21075" lon="5.53901">
        <ele>793</ele>
        <time>2019-05-24T12:22:41Z</time>
      </trkpt>
      <trkpt lat="44.21071" lon="5.53898">
        <ele>793</ele>
        <time>2019-05-24T12:22:42Z</time>
      </trkpt>
      <trkpt lat="44.21067" lon="5.53896">
        <ele>793</ele>
        <time>2019-05-24T12:22:43Z</time>
      </trkpt>
      <trkpt lat="44.21063" lon="5.53892">
        <ele>793</ele>
        <time>2019-05-24T12:22:44Z</time>
      </trkpt>
      <trkpt lat="44.21059" lon="5.53889">
        <ele>794</ele>
        <time>2019-05-24T12:22:45Z</time>
      </trkpt>
      <trkpt lat="44.21055" lon="5.53886">
        <ele>794</ele>
        <time>2019-05-24T12:22:46Z</time>
      </trkpt>
      <trkpt lat="44.21051" lon="5.53882">
        <ele>794</ele>
        <time>2019-05-24T12:22:47Z</time>
      </trkpt>
      <trkpt lat="44.21047" lon="5.53879">
        <ele>794</ele>
        <time>2019-05-24T12:22:48Z</time>
      </trkpt>
      <trkpt lat="44.21043" lon="5.53875">
        <ele>794</ele>
        <time>2019-05-24T12:22:49Z</time>
      </trkpt>
      <trkpt lat="44.21039" lon="5.53872">
        <ele>794</ele>
        <time>2019-05-24T12:22:50Z</time>
      </trkpt>
      <trkpt lat="44.21035" lon="5.53868">
        <ele>794</ele>
        <time>2019-05-24T12:22:51Z</time>
      </trkpt>
      <trkpt lat="44.21032" lon="5.53864">
        <ele>794</ele>
        <time>2019-05-24T12:22:52Z</time>
      </trkpt>
      <trkpt lat="44.21028" lon="5.5386">
        <ele>794</ele>
        <time>2019-05-24T12:22:53Z</time>
      </trkpt>
      <trkpt lat="44.21024" lon="5.53855">
        <ele>794</ele>
        <time>2019-05-24T12:22:54Z</time>
      </trkpt>
      <trkpt lat="44.21021" lon="5.53851">
        <ele>794</ele>
        <time>2019-05-24T12:22:55Z</time>
      </trkpt>
      <trkpt lat="44.21017" lon="5.53847">
        <ele>794</ele>
        <time>2019-05-24T12:22:56Z</time>
      </trkpt>
      <trkpt lat="44.21014" lon="5.53842">
        <ele>794</ele>
        <time>2019-05-24T12:22:57Z</time>
      </trkpt>
      <trkpt lat="44.21011" lon="5.53837">
        <ele>794</ele>
        <time>2019-05-24T12:22:58Z</time>
      </trkpt>
      <trkpt lat="44.21008" lon="5.53832">
        <ele>794</ele>
        <time>2019-05-24T12:22:59Z</time>
      </trkpt>
      <trkpt lat="44.21004" lon="5.53827">
        <ele>794</ele>
        <time>2019-05-24T12:23:00Z</time>
      </trkpt>
      <trkpt lat="44.21001" lon="5.53822">
        <ele>794</ele>
        <time>2019-05-24T12:23:01Z</time>
      </trkpt>
      <trkpt lat="44.20998" lon="5.53817">
        <ele>794</ele>
        <time>2019-05-24T12:23:02Z</time>
      </trkpt>
      <trkpt lat="44.20995" lon="5.53812">
        <ele>794</ele>
        <time>2019-05-24T12:23:03Z</time>
      </trkpt>
      <trkpt lat="44.20991" lon="5.53806">
        <ele>794</ele>
        <time>2019-05-24T12:23:04Z</time>
      </trkpt>
      <trkpt lat="44.20988" lon="5.53801">
        <ele>794</ele>
        <time>2019-05-24T12:23:05Z</time>
      </trkpt>
      <trkpt lat="44.20985" lon="5.53795">
        <ele>794</ele>
        <time>2019-05-24T12:23:06Z</time>
      </trkpt>
      <trkpt lat="44.20982" lon="5.53789">
        <ele>794</ele>
        <time>2019-05-24T12:23:07Z</time>
      </trkpt>
      <trkpt lat="44.20979" lon="5.53783">
        <ele>794</ele>
        <time>2019-05-24T12:23:08Z</time>
      </trkpt>
      <trkpt lat="44.20977" lon="5.53777">
        <ele>794</ele>
        <time>2019-05-24T12:23:09Z</time>
      </trkpt>
      <trkpt lat="44.20974" lon="5.5377">
        <ele>794</ele>
        <time>2019-05-24T12:23:10Z</time>
      </trkpt>
      <trkpt lat="44.20971" lon="5.53764">
        <ele>794</ele>
        <time>2019-05-24T12:23:11Z</time>
      </trkpt>
      <trkpt lat="44.20969" lon="5.53757">
        <ele>794</ele>
        <time>2019-05-24T12:23:12Z</time>
      </trkpt>
      <trkpt lat="44.20966" lon="5.53751">
        <ele>794</ele>
        <time>2019-05-24T12:23:13Z</time>
      </trkpt>
      <trkpt lat="44.20964" lon="5.53744">
        <ele>794</ele>
        <time>2019-05-24T12:23:14Z</time>
      </trkpt>
      <trkpt lat="44.20961" lon="5.53737">
        <ele>794</ele>
        <time>2019-05-24T12:23:15Z</time>
      </trkpt>
      <trkpt lat="44.20959" lon="5.53731">
        <ele>794</ele>
        <time>2019-05-24T12:23:16Z</time>
      </trkpt>
      <trkpt lat="44.20957" lon="5.53724">
        <ele>794</ele>
        <time>2019-05-24T12:23:17Z</time>
      </trkpt>
      <trkpt lat="44.20954" lon="5.53717">
        <ele>794</ele>
        <time>2019-05-24T12:23:18Z</time>
      </trkpt>
      <trkpt lat="44.20952" lon="5.53711">
        <ele>794</ele>
        <time>2019-05-24T12:23:19Z</time>
      </trkpt>
      <trkpt lat="44.2095" lon="5.53704">
        <ele>794</ele>
        <time>2019-05-24T12:23:20Z</time>
      </trkpt>
      <trkpt lat="44.20947" lon="5.53697">
        <ele>794</ele>
        <time>2019-05-24T12:23:21Z</time>
      </trkpt>
      <trkpt lat="44.20945" lon="5.5369">
        <ele>794</ele>
        <time>2019-05-24T12:23:22Z</time>
      </trkpt>
      <trkpt lat="44.20942" lon="5.53684">
        <ele>794</ele>
        <time>2019-05-24T12:23:23Z</time>
      </trkpt>
      <trkpt lat="44.20939" lon="5.53678">
        <ele>794</ele>
        <time>2019-05-24T12:23:24Z</time>
      </trkpt>
      <trkpt lat="44.20936" lon="5.53671">
        <ele>794</ele>
        <time>2019-05-24T12:23:25Z</time>
      </trkpt>
      <trkpt lat="44.20933" lon="5.53665">
        <ele>794</ele>
        <time>2019-05-24T12:23:26Z</time>
      </trkpt>
      <trkpt lat="44.2093" lon="5.53659">
        <ele>794</ele>
        <time>2019-05-24T12:23:27Z</time>
      </trkpt>
      <trkpt lat="44.20926" lon="5.53654">
        <ele>794</ele>
        <time>2019-05-24T12:23:28Z</time>
      </trkpt>
      <trkpt lat="44.20921" lon="5.53649">
        <ele>794</ele>
        <time>2019-05-24T12:23:29Z</time>
      </trkpt>
      <trkpt lat="44.20916" lon="5.53646">
        <ele>794</ele>
        <time>2019-05-24T12:23:30Z</time>
      </trkpt>
      <trkpt lat="44.20911" lon="5.53644">
        <ele>794</ele>
        <time>2019-05-24T12:23:31Z</time>
      </trkpt>
      <trkpt lat="44.20905" lon="5.53643">
        <ele>794</ele>
        <time>2019-05-24T12:23:32Z</time>
      </trkpt>
      <trkpt lat="44.20899" lon="5.53643">
        <ele>794</ele>
        <time>2019-05-24T12:23:33Z</time>
      </trkpt>
      <trkpt lat="44.20893" lon="5.53643">
        <ele>794</ele>
        <time>2019-05-24T12:23:34Z</time>
      </trkpt>
      <trkpt lat="44.20888" lon="5.53644">
        <ele>794</ele>
        <time>2019-05-24T12:23:35Z</time>
      </trkpt>
      <trkpt lat="44.20882" lon="5.53645">
        <ele>794</ele>
        <time>2019-05-24T12:23:36Z</time>
      </trkpt>
      <trkpt lat="44.20876" lon="5.53646">
        <ele>794</ele>
        <time>2019-05-24T12:23:37Z</time>
      </trkpt>
      <trkpt lat="44.2087" lon="5.53647">
        <ele>794</ele>
        <time>2019-05-24T12:23:38Z</time>
      </trkpt>
      <trkpt lat="44.20864" lon="5.53648">
        <ele>794</ele>
        <time>2019-05-24T12:23:39Z</time>
      </trkpt>
      <trkpt lat="44.20858" lon="5.5365">
        <ele>794</ele>
        <time>2019-05-24T12:23:40Z</time>
      </trkpt>
      <trkpt lat="44.20853" lon="5.53651">
        <ele>794</ele>
        <time>2019-05-24T12:23:41Z</time>
      </trkpt>
      <trkpt lat="44.20847" lon="5.53652">
        <ele>794</ele>
        <time>2019-05-24T12:23:42Z</time>
      </trkpt>
      <trkpt lat="44.20841" lon="5.53654">
        <ele>794</ele>
        <time>2019-05-24T12:23:43Z</time>
      </trkpt>
      <trkpt lat="44.20836" lon="5.53655">
        <ele>794</ele>
        <time>2019-05-24T12:23:44Z</time>
      </trkpt>
      <trkpt lat="44.2083" lon="5.53656">
        <ele>794</ele>
        <time>2019-05-24T12:23:45Z</time>
      </trkpt>
      <trkpt lat="44.20825" lon="5.53658">
        <ele>794</ele>
        <time>2019-05-24T12:23:46Z</time>
      </trkpt>
      <trkpt lat="44.20819" lon="5.53659">
        <ele>794</ele>
        <time>2019-05-24T12:23:47Z</time>
      </trkpt>
      <trkpt lat="44.20814" lon="5.5366">
        <ele>794</ele>
        <time>2019-05-24T12:23:48Z</time>
      </trkpt>
      <trkpt lat="44.20809" lon="5.53661">
        <ele>794</ele>
        <time>2019-05-24T12:23:49Z</time>
      </trkpt>
      <trkpt lat="44.20803" lon="5.53662">
        <ele>794</ele>
        <time>2019-05-24T12:23:50Z</time>
      </trkpt>
      <trkpt lat="44.20798" lon="5.53663">
        <ele>794</ele>
        <time>2019-05-24T12:23:51Z</time>
      </trkpt>
      <trkpt lat="44.20793" lon="5.53663">
        <ele>794</ele>
        <time>2019-05-24T12:23:52Z</time>
      </trkpt>
      <trkpt lat="44.20787" lon="5.53663">
        <ele>794</ele>
        <time>2019-05-24T12:23:53Z</time>
      </trkpt>
      <trkpt lat="44.20782" lon="5.53662">
        <ele>794</ele>
        <time>2019-05-24T12:23:54Z</time>
      </trkpt>
      <trkpt lat="44.20777" lon="5.53661">
        <ele>794</ele>
        <time>2019-05-24T12:23:55Z</time>
      </trkpt>
      <trkpt lat="44.20772" lon="5.5366">
        <ele>794</ele>
        <time>2019-05-24T12:23:56Z</time>
      </trkpt>
      <trkpt lat="44.20767" lon="5.53658">
        <ele>794</ele>
        <time>2019-05-24T12:23:57Z</time>
      </trkpt>
      <trkpt lat="44.20762" lon="5.53656">
        <ele>794</ele>
        <time>2019-05-24T12:23:58Z</time>
      </trkpt>
      <trkpt lat="44.20757" lon="5.53654">
        <ele>794</ele>
        <time>2019-05-24T12:23:59Z</time>
      </trkpt>
      <trkpt lat="44.20752" lon="5.53653">
        <ele>794</ele>
        <time>2019-05-24T12:24:00Z</time>
      </trkpt>
      <trkpt lat="44.20748" lon="5.53652">
        <ele>794</ele>
        <time>2019-05-24T12:24:01Z</time>
      </trkpt>
      <trkpt lat="44.20743" lon="5.5365">
        <ele>794</ele>
        <time>2019-05-24T12:24:02Z</time>
      </trkpt>
      <trkpt lat="44.20739" lon="5.53648">
        <ele>794</ele>
        <time>2019-05-24T12:24:03Z</time>
      </trkpt>
      <trkpt lat="44.20734" lon="5.53647">
        <ele>795</ele>
        <time>2019-05-24T12:24:04Z</time>
      </trkpt>
      <trkpt lat="44.20729" lon="5.53646">
        <ele>795</ele>
        <time>2019-05-24T12:24:05Z</time>
      </trkpt>
      <trkpt lat="44.20725" lon="5.53645">
        <ele>796</ele>
        <time>2019-05-24T12:24:06Z</time>
      </trkpt>
      <trkpt lat="44.2072" lon="5.53644">
        <ele>796</ele>
        <time>2019-05-24T12:24:07Z</time>
      </trkpt>
      <trkpt lat="44.20715" lon="5.53643">
        <ele>797</ele>
        <time>2019-05-24T12:24:08Z</time>
      </trkpt>
      <trkpt lat="44.2071" lon="5.53643">
        <ele>797</ele>
        <time>2019-05-24T12:24:09Z</time>
      </trkpt>
      <trkpt lat="44.20705" lon="5.53642">
        <ele>798</ele>
        <time>2019-05-24T12:24:10Z</time>
      </trkpt>
      <trkpt lat="44.207" lon="5.53643">
        <ele>798</ele>
        <time>2019-05-24T12:24:11Z</time>
      </trkpt>
      <trkpt lat="44.20694" lon="5.53643">
        <ele>798</ele>
        <time>2019-05-24T12:24:12Z</time>
      </trkpt>
      <trkpt lat="44.20689" lon="5.53643">
        <ele>799</ele>
        <time>2019-05-24T12:24:13Z</time>
      </trkpt>
      <trkpt lat="44.20684" lon="5.53643">
        <ele>799</ele>
        <time>2019-05-24T12:24:14Z</time>
      </trkpt>
      <trkpt lat="44.20679" lon="5.53644">
        <ele>799</ele>
        <time>2019-05-24T12:24:15Z</time>
      </trkpt>
      <trkpt lat="44.20674" lon="5.53645">
        <ele>799</ele>
        <time>2019-05-24T12:24:16Z</time>
      </trkpt>
      <trkpt lat="44.20669" lon="5.53647">
        <ele>799</ele>
        <time>2019-05-24T12:24:17Z</time>
      </trkpt>
      <trkpt lat="44.20664" lon="5.53648">
        <ele>799</ele>
        <time>2019-05-24T12:24:18Z</time>
      </trkpt>
      <trkpt lat="44.20658" lon="5.5365">
        <ele>799</ele>
        <time>2019-05-24T12:24:19Z</time>
      </trkpt>
      <trkpt lat="44.20653" lon="5.53651">
        <ele>800</ele>
        <time>2019-05-24T12:24:20Z</time>
      </trkpt>
      <trkpt lat="44.20648" lon="5.53653">
        <ele>800</ele>
        <time>2019-05-24T12:24:21Z</time>
      </trkpt>
      <trkpt lat="44.20643" lon="5.53655">
        <ele>800</ele>
        <time>2019-05-24T12:24:22Z</time>
      </trkpt>
      <trkpt lat="44.20638" lon="5.53657">
        <ele>800</ele>
        <time>2019-05-24T12:24:23Z</time>
      </trkpt>
      <trkpt lat="44.20633" lon="5.53659">
        <ele>800</ele>
        <time>2019-05-24T12:24:24Z</time>
      </trkpt>
      <trkpt lat="44.20628" lon="5.53661">
        <ele>800</ele>
        <time>2019-05-24T12:24:25Z</time>
      </trkpt>
      <trkpt lat="44.20623" lon="5.53664">
        <ele>800</ele>
        <time>2019-05-24T12:24:26Z</time>
      </trkpt>
      <trkpt lat="44.20618" lon="5.53666">
        <ele>800</ele>
        <time>2019-05-24T12:24:27Z</time>
      </trkpt>
      <trkpt lat="44.20613" lon="5.53668">
        <ele>801</ele>
        <time>2019-05-24T12:24:28Z</time>
      </trkpt>
      <trkpt lat="44.20607" lon="5.53671">
        <ele>802</ele>
        <time>2019-05-24T12:24:29Z</time>
      </trkpt>
      <trkpt lat="44.20602" lon="5.53673">
        <ele>803</ele>
        <time>2019-05-24T12:24:30Z</time>
      </trkpt>
      <trkpt lat="44.20597" lon="5.53675">
        <ele>804</ele>
        <time>2019-05-24T12:24:31Z</time>
      </trkpt>
      <trkpt lat="44.20592" lon="5.53676">
        <ele>805</ele>
        <time>2019-05-24T12:24:32Z</time>
      </trkpt>
      <trkpt lat="44.20588" lon="5.53678">
        <ele>806</ele>
        <time>2019-05-24T12:24:33Z</time>
      </trkpt>
      <trkpt lat="44.20583" lon="5.5368">
        <ele>806</ele>
        <time>2019-05-24T12:24:34Z</time>
      </trkpt>
      <trkpt lat="44.20578" lon="5.53682">
        <ele>806</ele>
        <time>2019-05-24T12:24:35Z</time>
      </trkpt>
      <trkpt lat="44.20574" lon="5.53683">
        <ele>806</ele>
        <time>2019-05-24T12:24:36Z</time>
      </trkpt>
      <trkpt lat="44.20568" lon="5.53685">
        <ele>806</ele>
        <time>2019-05-24T12:24:37Z</time>
      </trkpt>
      <trkpt lat="44.20563" lon="5.53687">
        <ele>806</ele>
        <time>2019-05-24T12:24:38Z</time>
      </trkpt>
      <trkpt lat="44.20558" lon="5.53687">
        <ele>806</ele>
        <time>2019-05-24T12:24:39Z</time>
      </trkpt>
      <trkpt lat="44.20553" lon="5.53686">
        <ele>806</ele>
        <time>2019-05-24T12:24:40Z</time>
      </trkpt>
      <trkpt lat="44.20548" lon="5.53684">
        <ele>806</ele>
        <time>2019-05-24T12:24:41Z</time>
      </trkpt>
      <trkpt lat="44.20543" lon="5.53682">
        <ele>806</ele>
        <time>2019-05-24T12:24:42Z</time>
      </trkpt>
      <trkpt lat="44.20538" lon="5.53679">
        <ele>806</ele>
        <time>2019-05-24T12:24:43Z</time>
      </trkpt>
      <trkpt lat="44.20533" lon="5.53677">
        <ele>806</ele>
        <time>2019-05-24T12:24:44Z</time>
      </trkpt>
      <trkpt lat="44.20528" lon="5.53674">
        <ele>806</ele>
        <time>2019-05-24T12:24:45Z</time>
      </trkpt>
      <trkpt lat="44.20523" lon="5.53672">
        <ele>806</ele>
        <time>2019-05-24T12:24:46Z</time>
      </trkpt>
      <trkpt lat="44.20518" lon="5.53671">
        <ele>806</ele>
        <time>2019-05-24T12:24:47Z</time>
      </trkpt>
      <trkpt lat="44.20514" lon="5.53669">
        <ele>806</ele>
        <time>2019-05-24T12:24:48Z</time>
      </trkpt>
      <trkpt lat="44.2051" lon="5.53666">
        <ele>806</ele>
        <time>2019-05-24T12:24:49Z</time>
      </trkpt>
      <trkpt lat="44.20507" lon="5.53662">
        <ele>806</ele>
        <time>2019-05-24T12:24:50Z</time>
      </trkpt>
      <trkpt lat="44.20503" lon="5.53659">
        <ele>806</ele>
        <time>2019-05-24T12:24:51Z</time>
      </trkpt>
      <trkpt lat="44.205" lon="5.53656">
        <ele>806</ele>
        <time>2019-05-24T12:24:52Z</time>
      </trkpt>
      <trkpt lat="44.20497" lon="5.53653">
        <ele>806</ele>
        <time>2019-05-24T12:24:53Z</time>
      </trkpt>
      <trkpt lat="44.20494" lon="5.53651">
        <ele>806</ele>
        <time>2019-05-24T12:24:54Z</time>
      </trkpt>
      <trkpt lat="44.2049" lon="5.53649">
        <ele>807</ele>
        <time>2019-05-24T12:24:55Z</time>
      </trkpt>
      <trkpt lat="44.20487" lon="5.53646">
        <ele>807</ele>
        <time>2019-05-24T12:24:56Z</time>
      </trkpt>
      <trkpt lat="44.20484" lon="5.53643">
        <ele>808</ele>
        <time>2019-05-24T12:24:57Z</time>
      </trkpt>
      <trkpt lat="44.20482" lon="5.53641">
        <ele>808</ele>
        <time>2019-05-24T12:24:58Z</time>
      </trkpt>
      <trkpt lat="44.20478" lon="5.5364">
        <ele>808</ele>
        <time>2019-05-24T12:24:59Z</time>
      </trkpt>
      <trkpt lat="44.20475" lon="5.53639">
        <ele>808</ele>
        <time>2019-05-24T12:25:00Z</time>
      </trkpt>
      <trkpt lat="44.20471" lon="5.53637">
        <ele>809</ele>
        <time>2019-05-24T12:25:01Z</time>
      </trkpt>
      <trkpt lat="44.20468" lon="5.53636">
        <ele>810</ele>
        <time>2019-05-24T12:25:02Z</time>
      </trkpt>
      <trkpt lat="44.20464" lon="5.53635">
        <ele>811</ele>
        <time>2019-05-24T12:25:03Z</time>
      </trkpt>
      <trkpt lat="44.20462" lon="5.53635">
        <ele>812</ele>
        <time>2019-05-24T12:25:04Z</time>
      </trkpt>
      <trkpt lat="44.20458" lon="5.53635">
        <ele>813</ele>
        <time>2019-05-24T12:25:05Z</time>
      </trkpt>
      <trkpt lat="44.20454" lon="5.53634">
        <ele>813</ele>
        <time>2019-05-24T12:25:06Z</time>
      </trkpt>
      <trkpt lat="44.20451" lon="5.53634">
        <ele>813</ele>
        <time>2019-05-24T12:25:07Z</time>
      </trkpt>
      <trkpt lat="44.20447" lon="5.53634">
        <ele>813</ele>
        <time>2019-05-24T12:25:08Z</time>
      </trkpt>
      <trkpt lat="44.20444" lon="5.53633">
        <ele>813</ele>
        <time>2019-05-24T12:25:09Z</time>
      </trkpt>
      <trkpt lat="44.2044" lon="5.53633">
        <ele>813</ele>
        <time>2019-05-24T12:25:10Z</time>
      </trkpt>
      <trkpt lat="44.20435" lon="5.53633">
        <ele>814</ele>
        <time>2019-05-24T12:25:11Z</time>
      </trkpt>
      <trkpt lat="44.20431" lon="5.53633">
        <ele>814</ele>
        <time>2019-05-24T12:25:12Z</time>
      </trkpt>
      <trkpt lat="44.20427" lon="5.53633">
        <ele>815</ele>
        <time>2019-05-24T12:25:13Z</time>
      </trkpt>
      <trkpt lat="44.20423" lon="5.53634">
        <ele>816</ele>
        <time>2019-05-24T12:25:14Z</time>
      </trkpt>
      <trkpt lat="44.20418" lon="5.53635">
        <ele>817</ele>
        <time>2019-05-24T12:25:15Z</time>
      </trkpt>
      <trkpt lat="44.20413" lon="5.53636">
        <ele>818</ele>
        <time>2019-05-24T12:25:16Z</time>
      </trkpt>
      <trkpt lat="44.20409" lon="5.53636">
        <ele>818</ele>
        <time>2019-05-24T12:25:17Z</time>
      </trkpt>
      <trkpt lat="44.20406" lon="5.53636">
        <ele>819</ele>
        <time>2019-05-24T12:25:18Z</time>
      </trkpt>
      <trkpt lat="44.20404" lon="5.53636">
        <ele>819</ele>
        <time>2019-05-24T12:25:19Z</time>
      </trkpt>
      <trkpt lat="44.20401" lon="5.53636">
        <ele>819</ele>
        <time>2019-05-24T12:25:20Z</time>
      </trkpt>
      <trkpt lat="44.20398" lon="5.53636">
        <ele>819</ele>
        <time>2019-05-24T12:25:21Z</time>
      </trkpt>
      <trkpt lat="44.20394" lon="5.53636">
        <ele>819</ele>
        <time>2019-05-24T12:25:22Z</time>
      </trkpt>
      <trkpt lat="44.20391" lon="5.53636">
        <ele>819</ele>
        <time>2019-05-24T12:25:23Z</time>
      </trkpt>
      <trkpt lat="44.20387" lon="5.53637">
        <ele>819</ele>
        <time>2019-05-24T12:25:24Z</time>
      </trkpt>
      <trkpt lat="44.20383" lon="5.53638">
        <ele>819</ele>
        <time>2019-05-24T12:25:25Z</time>
      </trkpt>
      <trkpt lat="44.20379" lon="5.53639">
        <ele>819</ele>
        <time>2019-05-24T12:25:26Z</time>
      </trkpt>
      <trkpt lat="44.20375" lon="5.53639">
        <ele>819</ele>
        <time>2019-05-24T12:25:27Z</time>
      </trkpt>
      <trkpt lat="44.20371" lon="5.53638">
        <ele>818</ele>
        <time>2019-05-24T12:25:28Z</time>
      </trkpt>
      <trkpt lat="44.20367" lon="5.53639">
        <ele>818</ele>
        <time>2019-05-24T12:25:29Z</time>
      </trkpt>
      <trkpt lat="44.20363" lon="5.53641">
        <ele>817</ele>
        <time>2019-05-24T12:25:30Z</time>
      </trkpt>
      <trkpt lat="44.20359" lon="5.53644">
        <ele>817</ele>
        <time>2019-05-24T12:25:31Z</time>
      </trkpt>
      <trkpt lat="44.20355" lon="5.53646">
        <ele>816</ele>
        <time>2019-05-24T12:25:32Z</time>
      </trkpt>
      <trkpt lat="44.20351" lon="5.53649">
        <ele>816</ele>
        <time>2019-05-24T12:25:33Z</time>
      </trkpt>
      <trkpt lat="44.20346" lon="5.53652">
        <ele>815</ele>
        <time>2019-05-24T12:25:34Z</time>
      </trkpt>
      <trkpt lat="44.20343" lon="5.53655">
        <ele>814</ele>
        <time>2019-05-24T12:25:35Z</time>
      </trkpt>
      <trkpt lat="44.20339" lon="5.53658">
        <ele>813</ele>
        <time>2019-05-24T12:25:36Z</time>
      </trkpt>
      <trkpt lat="44.20335" lon="5.5366">
        <ele>812</ele>
        <time>2019-05-24T12:25:37Z</time>
      </trkpt>
      <trkpt lat="44.20329" lon="5.53662">
        <ele>811</ele>
        <time>2019-05-24T12:25:38Z</time>
      </trkpt>
      <trkpt lat="44.20324" lon="5.53662">
        <ele>810</ele>
        <time>2019-05-24T12:25:39Z</time>
      </trkpt>
      <trkpt lat="44.2032" lon="5.53662">
        <ele>809</ele>
        <time>2019-05-24T12:25:40Z</time>
      </trkpt>
      <trkpt lat="44.20317" lon="5.53662">
        <ele>808</ele>
        <time>2019-05-24T12:25:41Z</time>
      </trkpt>
      <trkpt lat="44.20315" lon="5.53662">
        <ele>807</ele>
        <time>2019-05-24T12:25:42Z</time>
      </trkpt>
      <trkpt lat="44.20314" lon="5.53663">
        <ele>807</ele>
        <time>2019-05-24T12:25:45Z</time>
      </trkpt>
      <trkpt lat="44.20316" lon="5.53664">
        <ele>807</ele>
        <time>2019-05-24T12:26:16Z</time>
      </trkpt>
      <trkpt lat="44.20317" lon="5.53665">
        <ele>807</ele>
        <time>2019-05-24T12:26:21Z</time>
      </trkpt>
      <trkpt lat="44.20319" lon="5.53665">
        <ele>807</ele>
        <time>2019-05-24T12:26:26Z</time>
      </trkpt>
      <trkpt lat="44.20318" lon="5.53663">
        <ele>806</ele>
        <time>2019-05-24T12:26:38Z</time>
      </trkpt>
      <trkpt lat="44.20317" lon="5.53662">
        <ele>804</ele>
        <time>2019-05-24T12:26:47Z</time>
      </trkpt>
      <trkpt lat="44.20316" lon="5.53662">
        <ele>804</ele>
        <time>2019-05-24T12:26:52Z</time>
      </trkpt>
      <trkpt lat="44.20315" lon="5.53664">
        <ele>804</ele>
        <time>2019-05-24T12:26:56Z</time>
      </trkpt>
      <trkpt lat="44.20314" lon="5.53664">
        <ele>804</ele>
        <time>2019-05-24T12:27:00Z</time>
      </trkpt>
      <trkpt lat="44.20313" lon="5.53664">
        <ele>804</ele>
        <time>2019-05-24T12:27:03Z</time>
      </trkpt>
      <trkpt lat="44.20314" lon="5.53665">
        <ele>804</ele>
        <time>2019-05-24T12:27:16Z</time>
      </trkpt>
      <trkpt lat="44.20312" lon="5.53666">
        <ele>804</ele>
        <time>2019-05-24T12:27:29Z</time>
      </trkpt>
      <trkpt lat="44.20311" lon="5.53667">
        <ele>805</ele>
        <time>2019-05-24T12:27:31Z</time>
      </trkpt>
      <trkpt lat="44.20309" lon="5.53668">
        <ele>806</ele>
        <time>2019-05-24T12:27:36Z</time>
      </trkpt>
      <trkpt lat="44.20309" lon="5.53666">
        <ele>808</ele>
        <time>2019-05-24T12:27:43Z</time>
      </trkpt>
      <trkpt lat="44.20311" lon="5.53665">
        <ele>808</ele>
        <time>2019-05-24T12:27:48Z</time>
      </trkpt>
      <trkpt lat="44.20311" lon="5.53663">
        <ele>808</ele>
        <time>2019-05-24T12:28:09Z</time>
      </trkpt>
      <trkpt lat="44.20312" lon="5.53662">
        <ele>806</ele>
        <time>2019-05-24T12:28:16Z</time>
      </trkpt>
      <trkpt lat="44.20314" lon="5.53663">
        <ele>806</ele>
        <time>2019-05-24T12:28:26Z</time>
      </trkpt>
      <trkpt lat="44.20315" lon="5.53661">
        <ele>806</ele>
        <time>2019-05-24T12:28:33Z</time>
      </trkpt>
      <trkpt lat="44.20316" lon="5.5366">
        <ele>806</ele>
        <time>2019-05-24T12:28:35Z</time>
      </trkpt>
      <trkpt lat="44.20317" lon="5.53659">
        <ele>806</ele>
        <time>2019-05-24T12:28:37Z</time>
      </trkpt>
      <trkpt lat="44.20319" lon="5.53658">
        <ele>806</ele>
        <time>2019-05-24T12:28:39Z</time>
      </trkpt>
      <trkpt lat="44.20319" lon="5.53657">
        <ele>806</ele>
        <time>2019-05-24T12:28:44Z</time>
      </trkpt>
      <trkpt lat="44.20319" lon="5.53658">
        <ele>806</ele>
        <time>2019-05-24T12:28:49Z</time>
      </trkpt>
      <trkpt lat="44.20317" lon="5.5366">
        <ele>806</ele>
        <time>2019-05-24T12:28:52Z</time>
      </trkpt>
      <trkpt lat="44.20316" lon="5.53662">
        <ele>806</ele>
        <time>2019-05-24T12:28:54Z</time>
      </trkpt>
      <trkpt lat="44.20314" lon="5.53662">
        <ele>806</ele>
        <time>2019-05-24T12:28:57Z</time>
      </trkpt>
      <trkpt lat="44.20313" lon="5.53662">
        <ele>806</ele>
        <time>2019-05-24T12:29:02Z</time>
      </trkpt>
      <trkpt lat="44.20311" lon="5.53663">
        <ele>806</ele>
        <time>2019-05-24T12:29:34Z</time>
      </trkpt>
      <trkpt lat="44.20311" lon="5.53661">
        <ele>806</ele>
        <time>2019-05-24T12:29:43Z</time>
      </trkpt>
      <trkpt lat="44.20309" lon="5.53659">
        <ele>806</ele>
        <time>2019-05-24T12:29:50Z</time>
      </trkpt>
      <trkpt lat="44.20311" lon="5.53659">
        <ele>806</ele>
        <time>2019-05-24T12:30:05Z</time>
      </trkpt>
      <trkpt lat="44.20311" lon="5.53657">
        <ele>806</ele>
        <time>2019-05-24T12:30:11Z</time>
      </trkpt>
      <trkpt lat="44.20311" lon="5.53656">
        <ele>806</ele>
        <time>2019-05-24T12:30:21Z</time>
      </trkpt>
      <trkpt lat="44.20311" lon="5.53654">
        <ele>806</ele>
        <time>2019-05-24T12:30:27Z</time>
      </trkpt>
      <trkpt lat="44.2031" lon="5.53655">
        <ele>806</ele>
        <time>2019-05-24T12:30:29Z</time>
      </trkpt>
      <trkpt lat="44.20309" lon="5.53655">
        <ele>806</ele>
        <time>2019-05-24T12:30:31Z</time>
      </trkpt>
      <trkpt lat="44.20311" lon="5.53654">
        <ele>804</ele>
        <time>2019-05-24T12:30:34Z</time>
      </trkpt>
      <trkpt lat="44.20309" lon="5.53654">
        <ele>804</ele>
        <time>2019-05-24T12:30:36Z</time>
      </trkpt>
      <trkpt lat="44.20309" lon="5.53656">
        <ele>803</ele>
        <time>2019-05-24T12:30:39Z</time>
      </trkpt>
      <trkpt lat="44.20307" lon="5.53658">
        <ele>803</ele>
        <time>2019-05-24T12:30:40Z</time>
      </trkpt>
      <trkpt lat="44.20306" lon="5.5366">
        <ele>803</ele>
        <time>2019-05-24T12:30:43Z</time>
      </trkpt>
      <trkpt lat="44.20306" lon="5.53663">
        <ele>803</ele>
        <time>2019-05-24T12:30:44Z</time>
      </trkpt>
      <trkpt lat="44.20305" lon="5.53665">
        <ele>803</ele>
        <time>2019-05-24T12:30:45Z</time>
      </trkpt>
      <trkpt lat="44.20305" lon="5.53666">
        <ele>803</ele>
        <time>2019-05-24T12:30:48Z</time>
      </trkpt>
      <trkpt lat="44.20306" lon="5.53664">
        <ele>803</ele>
        <time>2019-05-24T12:30:49Z</time>
      </trkpt>
      <trkpt lat="44.20307" lon="5.53662">
        <ele>803</ele>
        <time>2019-05-24T12:30:51Z</time>
      </trkpt>
      <trkpt lat="44.20308" lon="5.5366">
        <ele>803</ele>
        <time>2019-05-24T12:30:53Z</time>
      </trkpt>
      <trkpt lat="44.20308" lon="5.53658">
        <ele>803</ele>
        <time>2019-05-24T12:30:54Z</time>
      </trkpt>
      <trkpt lat="44.20309" lon="5.53656">
        <ele>802</ele>
        <time>2019-05-24T12:30:56Z</time>
      </trkpt>
      <trkpt lat="44.20311" lon="5.53655">
        <ele>801</ele>
        <time>2019-05-24T12:30:57Z</time>
      </trkpt>
      <trkpt lat="44.20311" lon="5.53653">
        <ele>800</ele>
        <time>2019-05-24T12:30:59Z</time>
      </trkpt>
      <trkpt lat="44.20312" lon="5.53653">
        <ele>799</ele>
        <time>2019-05-24T12:31:02Z</time>
      </trkpt>
      <trkpt lat="44.20314" lon="5.53651">
        <ele>798</ele>
        <time>2019-05-24T12:31:04Z</time>
      </trkpt>
      <trkpt lat="44.20314" lon="5.53649">
        <ele>797</ele>
        <time>2019-05-24T12:31:06Z</time>
      </trkpt>
      <trkpt lat="44.20316" lon="5.53648">
        <ele>797</ele>
        <time>2019-05-24T12:31:07Z</time>
      </trkpt>
      <trkpt lat="44.20317" lon="5.53646">
        <ele>796</ele>
        <time>2019-05-24T12:31:08Z</time>
      </trkpt>
      <trkpt lat="44.20317" lon="5.53644">
        <ele>796</ele>
        <time>2019-05-24T12:31:09Z</time>
      </trkpt>
      <trkpt lat="44.20316" lon="5.53645">
        <ele>795</ele>
        <time>2019-05-24T12:31:12Z</time>
      </trkpt>
      <trkpt lat="44.20315" lon="5.53646">
        <ele>795</ele>
        <time>2019-05-24T12:31:16Z</time>
      </trkpt>
      <trkpt lat="44.20315" lon="5.53647">
        <ele>795</ele>
        <time>2019-05-24T12:31:17Z</time>
      </trkpt>
      <trkpt lat="44.20315" lon="5.53649">
        <ele>795</ele>
        <time>2019-05-24T12:31:18Z</time>
      </trkpt>
      <trkpt lat="44.20315" lon="5.53652">
        <ele>795</ele>
        <time>2019-05-24T12:31:19Z</time>
      </trkpt>
      <trkpt lat="44.20315" lon="5.53654">
        <ele>795</ele>
        <time>2019-05-24T12:31:20Z</time>
      </trkpt>
      <trkpt lat="44.20315" lon="5.53655">
        <ele>795</ele>
        <time>2019-05-24T12:31:21Z</time>
      </trkpt>
      <trkpt lat="44.20313" lon="5.53656">
        <ele>795</ele>
        <time>2019-05-24T12:31:25Z</time>
      </trkpt>
      <trkpt lat="44.20313" lon="5.53658">
        <ele>797</ele>
        <time>2019-05-24T12:31:31Z</time>
      </trkpt>
      <trkpt lat="44.20313" lon="5.53659">
        <ele>798</ele>
        <time>2019-05-24T12:31:35Z</time>
      </trkpt>
      <trkpt lat="44.20313" lon="5.53661">
        <ele>799</ele>
        <time>2019-05-24T12:31:39Z</time>
      </trkpt>
      <trkpt lat="44.20314" lon="5.53662">
        <ele>800</ele>
        <time>2019-05-24T12:32:00Z</time>
      </trkpt>
      <trkpt lat="44.20313" lon="5.53664">
        <ele>800</ele>
        <time>2019-05-24T12:32:46Z</time>
      </trkpt>
      <trkpt lat="44.20311" lon="5.53664">
        <ele>800</ele>
        <time>2019-05-24T12:32:56Z</time>
      </trkpt>
      <trkpt lat="44.2031" lon="5.53666">
        <ele>800</ele>
        <time>2019-05-24T12:33:08Z</time>
      </trkpt>
      <trkpt lat="44.20311" lon="5.53664">
        <ele>802</ele>
        <time>2019-05-24T12:33:27Z</time>
      </trkpt>
      <trkpt lat="44.20311" lon="5.53663">
        <ele>802</ele>
        <time>2019-05-24T12:33:33Z</time>
      </trkpt>
      <trkpt lat="44.20312" lon="5.53661">
        <ele>802</ele>
        <time>2019-05-24T12:33:46Z</time>
      </trkpt>
      <trkpt lat="44.20311" lon="5.53661">
        <ele>802</ele>
        <time>2019-05-24T12:34:18Z</time>
      </trkpt>
      <trkpt lat="44.20312" lon="5.53663">
        <ele>802</ele>
        <time>2019-05-24T12:34:38Z</time>
      </trkpt>
      <trkpt lat="44.20314" lon="5.53664">
        <ele>802</ele>
        <time>2019-05-24T12:34:40Z</time>
      </trkpt>
      <trkpt lat="44.20316" lon="5.53665">
        <ele>802</ele>
        <time>2019-05-24T12:34:42Z</time>
      </trkpt>
      <trkpt lat="44.20317" lon="5.53665">
        <ele>802</ele>
        <time>2019-05-24T12:34:43Z</time>
      </trkpt>
      <trkpt lat="44.20318" lon="5.53665">
        <ele>802</ele>
        <time>2019-05-24T12:34:44Z</time>
      </trkpt>
      <trkpt lat="44.2032" lon="5.53665">
        <ele>802</ele>
        <time>2019-05-24T12:34:45Z</time>
      </trkpt>
      <trkpt lat="44.20322" lon="5.53665">
        <ele>802</ele>
        <time>2019-05-24T12:34:46Z</time>
      </trkpt>
      <trkpt lat="44.20324" lon="5.53666">
        <ele>802</ele>
        <time>2019-05-24T12:34:47Z</time>
      </trkpt>
      <trkpt lat="44.20326" lon="5.53666">
        <ele>802</ele>
        <time>2019-05-24T12:34:48Z</time>
      </trkpt>
      <trkpt lat="44.20329" lon="5.53665">
        <ele>802</ele>
        <time>2019-05-24T12:34:49Z</time>
      </trkpt>
      <trkpt lat="44.20331" lon="5.53663">
        <ele>802</ele>
        <time>2019-05-24T12:34:50Z</time>
      </trkpt>
      <trkpt lat="44.20334" lon="5.53662">
        <ele>802</ele>
        <time>2019-05-24T12:34:51Z</time>
      </trkpt>
      <trkpt lat="44.20336" lon="5.53659">
        <ele>803</ele>
        <time>2019-05-24T12:34:52Z</time>
      </trkpt>
      <trkpt lat="44.20339" lon="5.53657">
        <ele>803</ele>
        <time>2019-05-24T12:34:53Z</time>
      </trkpt>
      <trkpt lat="44.20343" lon="5.53654">
        <ele>803</ele>
        <time>2019-05-24T12:34:54Z</time>
      </trkpt>
      <trkpt lat="44.20346" lon="5.53652">
        <ele>803</ele>
        <time>2019-05-24T12:34:55Z</time>
      </trkpt>
      <trkpt lat="44.2035" lon="5.53649">
        <ele>803</ele>
        <time>2019-05-24T12:34:56Z</time>
      </trkpt>
      <trkpt lat="44.20353" lon="5.53647">
        <ele>803</ele>
        <time>2019-05-24T12:34:57Z</time>
      </trkpt>
      <trkpt lat="44.20355" lon="5.53645">
        <ele>803</ele>
        <time>2019-05-24T12:34:58Z</time>
      </trkpt>
      <trkpt lat="44.20359" lon="5.53643">
        <ele>803</ele>
        <time>2019-05-24T12:34:59Z</time>
      </trkpt>
      <trkpt lat="44.20363" lon="5.53642">
        <ele>803</ele>
        <time>2019-05-24T12:35:00Z</time>
      </trkpt>
      <trkpt lat="44.20367" lon="5.5364">
        <ele>803</ele>
        <time>2019-05-24T12:35:01Z</time>
      </trkpt>
      <trkpt lat="44.20371" lon="5.53638">
        <ele>802</ele>
        <time>2019-05-24T12:35:02Z</time>
      </trkpt>
      <trkpt lat="44.20375" lon="5.53637">
        <ele>802</ele>
        <time>2019-05-24T12:35:03Z</time>
      </trkpt>
      <trkpt lat="44.20379" lon="5.53636">
        <ele>802</ele>
        <time>2019-05-24T12:35:04Z</time>
      </trkpt>
      <trkpt lat="44.2039" lon="5.53633">
        <ele>801</ele>
        <time>2019-05-24T12:35:07Z</time>
      </trkpt>
      <trkpt lat="44.20395" lon="5.53633">
        <ele>801</ele>
        <time>2019-05-24T12:35:08Z</time>
      </trkpt>
      <trkpt lat="44.20399" lon="5.53632">
        <ele>801</ele>
        <time>2019-05-24T12:35:09Z</time>
      </trkpt>
      <trkpt lat="44.20404" lon="5.53632">
        <ele>801</ele>
        <time>2019-05-24T12:35:10Z</time>
      </trkpt>
      <trkpt lat="44.20408" lon="5.53632">
        <ele>801</ele>
        <time>2019-05-24T12:35:11Z</time>
      </trkpt>
      <trkpt lat="44.20412" lon="5.53631">
        <ele>801</ele>
        <time>2019-05-24T12:35:12Z</time>
      </trkpt>
      <trkpt lat="44.20418" lon="5.53631">
        <ele>802</ele>
        <time>2019-05-24T12:35:13Z</time>
      </trkpt>
      <trkpt lat="44.20423" lon="5.53629">
        <ele>803</ele>
        <time>2019-05-24T12:35:14Z</time>
      </trkpt>
      <trkpt lat="44.20428" lon="5.5363">
        <ele>804</ele>
        <time>2019-05-24T12:35:15Z</time>
      </trkpt>
      <trkpt lat="44.20433" lon="5.5363">
        <ele>805</ele>
        <time>2019-05-24T12:35:16Z</time>
      </trkpt>
      <trkpt lat="44.20439" lon="5.53631">
        <ele>806</ele>
        <time>2019-05-24T12:35:17Z</time>
      </trkpt>
      <trkpt lat="44.20445" lon="5.53632">
        <ele>807</ele>
        <time>2019-05-24T12:35:18Z</time>
      </trkpt>
      <trkpt lat="44.20451" lon="5.53632">
        <ele>808</ele>
        <time>2019-05-24T12:35:19Z</time>
      </trkpt>
      <trkpt lat="44.20457" lon="5.53634">
        <ele>809</ele>
        <time>2019-05-24T12:35:20Z</time>
      </trkpt>
      <trkpt lat="44.20467" lon="5.53639">
        <ele>811</ele>
        <time>2019-05-24T12:35:22Z</time>
      </trkpt>
      <trkpt lat="44.20472" lon="5.53641">
        <ele>813</ele>
        <time>2019-05-24T12:35:23Z</time>
      </trkpt>
      <trkpt lat="44.20478" lon="5.53644">
        <ele>815</ele>
        <time>2019-05-24T12:35:24Z</time>
      </trkpt>
      <trkpt lat="44.20483" lon="5.53646">
        <ele>817</ele>
        <time>2019-05-24T12:35:25Z</time>
      </trkpt>
      <trkpt lat="44.2049" lon="5.53647">
        <ele>819</ele>
        <time>2019-05-24T12:35:26Z</time>
      </trkpt>
      <trkpt lat="44.20495" lon="5.53651">
        <ele>820</ele>
        <time>2019-05-24T12:35:27Z</time>
      </trkpt>
      <trkpt lat="44.20501" lon="5.53655">
        <ele>821</ele>
        <time>2019-05-24T12:35:28Z</time>
      </trkpt>
      <trkpt lat="44.20507" lon="5.5366">
        <ele>823</ele>
        <time>2019-05-24T12:35:29Z</time>
      </trkpt>
      <trkpt lat="44.20513" lon="5.53664">
        <ele>824</ele>
        <time>2019-05-24T12:35:30Z</time>
      </trkpt>
      <trkpt lat="44.20521" lon="5.53667">
        <ele>825</ele>
        <time>2019-05-24T12:35:31Z</time>
      </trkpt>
      <trkpt lat="44.20528" lon="5.53671">
        <ele>826</ele>
        <time>2019-05-24T12:35:32Z</time>
      </trkpt>
      <trkpt lat="44.20537" lon="5.53675">
        <ele>827</ele>
        <time>2019-05-24T12:35:33Z</time>
      </trkpt>
      <trkpt lat="44.20544" lon="5.53679">
        <ele>827</ele>
        <time>2019-05-24T12:35:34Z</time>
      </trkpt>
      <trkpt lat="44.20552" lon="5.53683">
        <ele>827</ele>
        <time>2019-05-24T12:35:35Z</time>
      </trkpt>
      <trkpt lat="44.20559" lon="5.53684">
        <ele>827</ele>
        <time>2019-05-24T12:35:36Z</time>
      </trkpt>
      <trkpt lat="44.20565" lon="5.53684">
        <ele>827</ele>
        <time>2019-05-24T12:35:37Z</time>
      </trkpt>
      <trkpt lat="44.20572" lon="5.53683">
        <ele>827</ele>
        <time>2019-05-24T12:35:38Z</time>
      </trkpt>
      <trkpt lat="44.20577" lon="5.53681">
        <ele>826</ele>
        <time>2019-05-24T12:35:39Z</time>
      </trkpt>
      <trkpt lat="44.20583" lon="5.53679">
        <ele>825</ele>
        <time>2019-05-24T12:35:40Z</time>
      </trkpt>
      <trkpt lat="44.20589" lon="5.53676">
        <ele>824</ele>
        <time>2019-05-24T12:35:41Z</time>
      </trkpt>
      <trkpt lat="44.20595" lon="5.53674">
        <ele>823</ele>
        <time>2019-05-24T12:35:42Z</time>
      </trkpt>
      <trkpt lat="44.20601" lon="5.53672">
        <ele>822</ele>
        <time>2019-05-24T12:35:43Z</time>
      </trkpt>
      <trkpt lat="44.20607" lon="5.5367">
        <ele>821</ele>
        <time>2019-05-24T12:35:44Z</time>
      </trkpt>
      <trkpt lat="44.20613" lon="5.53667">
        <ele>820</ele>
        <time>2019-05-24T12:35:45Z</time>
      </trkpt>
      <trkpt lat="44.2062" lon="5.53665">
        <ele>819</ele>
        <time>2019-05-24T12:35:46Z</time>
      </trkpt>
      <trkpt lat="44.20626" lon="5.53662">
        <ele>818</ele>
        <time>2019-05-24T12:35:47Z</time>
      </trkpt>
      <trkpt lat="44.20633" lon="5.5366">
        <ele>817</ele>
        <time>2019-05-24T12:35:48Z</time>
      </trkpt>
      <trkpt lat="44.20639" lon="5.53657">
        <ele>816</ele>
        <time>2019-05-24T12:35:49Z</time>
      </trkpt>
      <trkpt lat="44.20646" lon="5.53654">
        <ele>815</ele>
        <time>2019-05-24T12:35:50Z</time>
      </trkpt>
      <trkpt lat="44.20652" lon="5.5365">
        <ele>814</ele>
        <time>2019-05-24T12:35:51Z</time>
      </trkpt>
      <trkpt lat="44.20658" lon="5.53648">
        <ele>813</ele>
        <time>2019-05-24T12:35:52Z</time>
      </trkpt>
      <trkpt lat="44.20665" lon="5.53645">
        <ele>812</ele>
        <time>2019-05-24T12:35:53Z</time>
      </trkpt>
      <trkpt lat="44.20672" lon="5.53643">
        <ele>811</ele>
        <time>2019-05-24T12:35:54Z</time>
      </trkpt>
      <trkpt lat="44.20678" lon="5.53641">
        <ele>810</ele>
        <time>2019-05-24T12:35:55Z</time>
      </trkpt>
      <trkpt lat="44.20686" lon="5.53641">
        <ele>810</ele>
        <time>2019-05-24T12:35:56Z</time>
      </trkpt>
      <trkpt lat="44.20692" lon="5.5364">
        <ele>810</ele>
        <time>2019-05-24T12:35:57Z</time>
      </trkpt>
      <trkpt lat="44.20699" lon="5.53641">
        <ele>810</ele>
        <time>2019-05-24T12:35:58Z</time>
      </trkpt>
      <trkpt lat="44.20706" lon="5.53641">
        <ele>810</ele>
        <time>2019-05-24T12:35:59Z</time>
      </trkpt>
      <trkpt lat="44.20713" lon="5.53642">
        <ele>810</ele>
        <time>2019-05-24T12:36:00Z</time>
      </trkpt>
      <trkpt lat="44.2072" lon="5.53643">
        <ele>810</ele>
        <time>2019-05-24T12:36:01Z</time>
      </trkpt>
      <trkpt lat="44.20727" lon="5.53644">
        <ele>810</ele>
        <time>2019-05-24T12:36:02Z</time>
      </trkpt>
      <trkpt lat="44.20734" lon="5.53646">
        <ele>810</ele>
        <time>2019-05-24T12:36:03Z</time>
      </trkpt>
      <trkpt lat="44.20741" lon="5.53649">
        <ele>810</ele>
        <time>2019-05-24T12:36:04Z</time>
      </trkpt>
      <trkpt lat="44.20747" lon="5.53652">
        <ele>810</ele>
        <time>2019-05-24T12:36:05Z</time>
      </trkpt>
      <trkpt lat="44.20755" lon="5.53654">
        <ele>810</ele>
        <time>2019-05-24T12:36:06Z</time>
      </trkpt>
      <trkpt lat="44.20763" lon="5.53657">
        <ele>810</ele>
        <time>2019-05-24T12:36:07Z</time>
      </trkpt>
      <trkpt lat="44.2077" lon="5.5366">
        <ele>809</ele>
        <time>2019-05-24T12:36:08Z</time>
      </trkpt>
      <trkpt lat="44.20777" lon="5.53662">
        <ele>809</ele>
        <time>2019-05-24T12:36:09Z</time>
      </trkpt>
      <trkpt lat="44.20784" lon="5.53664">
        <ele>808</ele>
        <time>2019-05-24T12:36:10Z</time>
      </trkpt>
      <trkpt lat="44.20791" lon="5.53664">
        <ele>807</ele>
        <time>2019-05-24T12:36:11Z</time>
      </trkpt>
      <trkpt lat="44.20798" lon="5.53663">
        <ele>806</ele>
        <time>2019-05-24T12:36:12Z</time>
      </trkpt>
      <trkpt lat="44.20805" lon="5.53662">
        <ele>805</ele>
        <time>2019-05-24T12:36:13Z</time>
      </trkpt>
      <trkpt lat="44.20812" lon="5.5366">
        <ele>803</ele>
        <time>2019-05-24T12:36:14Z</time>
      </trkpt>
      <trkpt lat="44.20819" lon="5.53658">
        <ele>801</ele>
        <time>2019-05-24T12:36:15Z</time>
      </trkpt>
      <trkpt lat="44.20827" lon="5.53656">
        <ele>800</ele>
        <time>2019-05-24T12:36:16Z</time>
      </trkpt>
      <trkpt lat="44.20834" lon="5.53653">
        <ele>799</ele>
        <time>2019-05-24T12:36:17Z</time>
      </trkpt>
      <trkpt lat="44.20841" lon="5.53652">
        <ele>798</ele>
        <time>2019-05-24T12:36:18Z</time>
      </trkpt>
      <trkpt lat="44.20848" lon="5.5365">
        <ele>797</ele>
        <time>2019-05-24T12:36:19Z</time>
      </trkpt>
      <trkpt lat="44.20855" lon="5.53648">
        <ele>796</ele>
        <time>2019-05-24T12:36:20Z</time>
      </trkpt>
      <trkpt lat="44.20862" lon="5.53648">
        <ele>795</ele>
        <time>2019-05-24T12:36:21Z</time>
      </trkpt>
      <trkpt lat="44.20869" lon="5.53646">
        <ele>794</ele>
        <time>2019-05-24T12:36:22Z</time>
      </trkpt>
      <trkpt lat="44.20876" lon="5.53645">
        <ele>793</ele>
        <time>2019-05-24T12:36:23Z</time>
      </trkpt>
      <trkpt lat="44.20883" lon="5.53644">
        <ele>793</ele>
        <time>2019-05-24T12:36:24Z</time>
      </trkpt>
      <trkpt lat="44.2089" lon="5.53643">
        <ele>793</ele>
        <time>2019-05-24T12:36:25Z</time>
      </trkpt>
      <trkpt lat="44.20898" lon="5.53643">
        <ele>793</ele>
        <time>2019-05-24T12:36:26Z</time>
      </trkpt>
      <trkpt lat="44.20905" lon="5.53645">
        <ele>793</ele>
        <time>2019-05-24T12:36:27Z</time>
      </trkpt>
      <trkpt lat="44.20912" lon="5.53649">
        <ele>793</ele>
        <time>2019-05-24T12:36:28Z</time>
      </trkpt>
      <trkpt lat="44.20919" lon="5.53654">
        <ele>793</ele>
        <time>2019-05-24T12:36:29Z</time>
      </trkpt>
      <trkpt lat="44.20925" lon="5.53661">
        <ele>793</ele>
        <time>2019-05-24T12:36:30Z</time>
      </trkpt>
      <trkpt lat="44.2093" lon="5.53668">
        <ele>793</ele>
        <time>2019-05-24T12:36:31Z</time>
      </trkpt>
      <trkpt lat="44.20934" lon="5.53676">
        <ele>793</ele>
        <time>2019-05-24T12:36:32Z</time>
      </trkpt>
      <trkpt lat="44.20938" lon="5.53684">
        <ele>793</ele>
        <time>2019-05-24T12:36:33Z</time>
      </trkpt>
      <trkpt lat="44.20941" lon="5.53692">
        <ele>793</ele>
        <time>2019-05-24T12:36:34Z</time>
      </trkpt>
      <trkpt lat="44.20945" lon="5.53701">
        <ele>793</ele>
        <time>2019-05-24T12:36:35Z</time>
      </trkpt>
      <trkpt lat="44.20948" lon="5.5371">
        <ele>793</ele>
        <time>2019-05-24T12:36:36Z</time>
      </trkpt>
      <trkpt lat="44.20951" lon="5.53719">
        <ele>793</ele>
        <time>2019-05-24T12:36:37Z</time>
      </trkpt>
      <trkpt lat="44.20954" lon="5.53728">
        <ele>793</ele>
        <time>2019-05-24T12:36:38Z</time>
      </trkpt>
      <trkpt lat="44.20957" lon="5.53737">
        <ele>793</ele>
        <time>2019-05-24T12:36:39Z</time>
      </trkpt>
      <trkpt lat="44.2096" lon="5.53745">
        <ele>793</ele>
        <time>2019-05-24T12:36:40Z</time>
      </trkpt>
      <trkpt lat="44.20963" lon="5.53754">
        <ele>793</ele>
        <time>2019-05-24T12:36:41Z</time>
      </trkpt>
      <trkpt lat="44.20966" lon="5.53762">
        <ele>793</ele>
        <time>2019-05-24T12:36:42Z</time>
      </trkpt>
      <trkpt lat="44.2097" lon="5.5377">
        <ele>793</ele>
        <time>2019-05-24T12:36:43Z</time>
      </trkpt>
      <trkpt lat="44.20973" lon="5.53779">
        <ele>793</ele>
        <time>2019-05-24T12:36:44Z</time>
      </trkpt>
      <trkpt lat="44.20977" lon="5.53787">
        <ele>793</ele>
        <time>2019-05-24T12:36:45Z</time>
      </trkpt>
      <trkpt lat="44.20981" lon="5.53794">
        <ele>793</ele>
        <time>2019-05-24T12:36:46Z</time>
      </trkpt>
      <trkpt lat="44.20985" lon="5.53802">
        <ele>793</ele>
        <time>2019-05-24T12:36:47Z</time>
      </trkpt>
      <trkpt lat="44.2099" lon="5.5381">
        <ele>793</ele>
        <time>2019-05-24T12:36:48Z</time>
      </trkpt>
      <trkpt lat="44.20994" lon="5.53818">
        <ele>793</ele>
        <time>2019-05-24T12:36:49Z</time>
      </trkpt>
      <trkpt lat="44.20998" lon="5.53825">
        <ele>793</ele>
        <time>2019-05-24T12:36:50Z</time>
      </trkpt>
      <trkpt lat="44.21003" lon="5.53832">
        <ele>793</ele>
        <time>2019-05-24T12:36:51Z</time>
      </trkpt>
      <trkpt lat="44.21008" lon="5.53839">
        <ele>793</ele>
        <time>2019-05-24T12:36:52Z</time>
      </trkpt>
      <trkpt lat="44.21013" lon="5.53846">
        <ele>793</ele>
        <time>2019-05-24T12:36:53Z</time>
      </trkpt>
      <trkpt lat="44.21018" lon="5.53852">
        <ele>793</ele>
        <time>2019-05-24T12:36:54Z</time>
      </trkpt>
      <trkpt lat="44.21024" lon="5.53859">
        <ele>793</ele>
        <time>2019-05-24T12:36:55Z</time>
      </trkpt>
      <trkpt lat="44.2103" lon="5.53865">
        <ele>793</ele>
        <time>2019-05-24T12:36:56Z</time>
      </trkpt>
      <trkpt lat="44.21036" lon="5.53871">
        <ele>793</ele>
        <time>2019-05-24T12:36:57Z</time>
      </trkpt>
      <trkpt lat="44.21042" lon="5.53877">
        <ele>793</ele>
        <time>2019-05-24T12:36:58Z</time>
      </trkpt>
      <trkpt lat="44.21048" lon="5.53883">
        <ele>793</ele>
        <time>2019-05-24T12:36:59Z</time>
      </trkpt>
      <trkpt lat="44.21054" lon="5.53889">
        <ele>793</ele>
        <time>2019-05-24T12:37:00Z</time>
      </trkpt>
      <trkpt lat="44.21061" lon="5.53894">
        <ele>793</ele>
        <time>2019-05-24T12:37:01Z</time>
      </trkpt>
      <trkpt lat="44.21067" lon="5.53899">
        <ele>793</ele>
        <time>2019-05-24T12:37:02Z</time>
      </trkpt>
      <trkpt lat="44.21073" lon="5.53904">
        <ele>793</ele>
        <time>2019-05-24T12:37:03Z</time>
      </trkpt>
      <trkpt lat="44.2108" lon="5.53908">
        <ele>793</ele>
        <time>2019-05-24T12:37:04Z</time>
      </trkpt>
      <trkpt lat="44.21087" lon="5.53912">
        <ele>793</ele>
        <time>2019-05-24T12:37:05Z</time>
      </trkpt>
      <trkpt lat="44.21094" lon="5.53916">
        <ele>793</ele>
        <time>2019-05-24T12:37:06Z</time>
      </trkpt>
      <trkpt lat="44.21101" lon="5.53919">
        <ele>793</ele>
        <time>2019-05-24T12:37:07Z</time>
      </trkpt>
      <trkpt lat="44.21108" lon="5.53923">
        <ele>793</ele>
        <time>2019-05-24T12:37:08Z</time>
      </trkpt>
      <trkpt lat="44.21115" lon="5.53927">
        <ele>793</ele>
        <time>2019-05-24T12:37:09Z</time>
      </trkpt>
      <trkpt lat="44.21123" lon="5.5393">
        <ele>793</ele>
        <time>2019-05-24T12:37:10Z</time>
      </trkpt>
      <trkpt lat="44.2113" lon="5.53934">
        <ele>793</ele>
        <time>2019-05-24T12:37:11Z</time>
      </trkpt>
      <trkpt lat="44.21137" lon="5.53938">
        <ele>793</ele>
        <time>2019-05-24T12:37:12Z</time>
      </trkpt>
      <trkpt lat="44.21145" lon="5.53942">
        <ele>793</ele>
        <time>2019-05-24T12:37:13Z</time>
      </trkpt>
      <trkpt lat="44.21152" lon="5.53946">
        <ele>793</ele>
        <time>2019-05-24T12:37:14Z</time>
      </trkpt>
      <trkpt lat="44.21159" lon="5.53951">
        <ele>793</ele>
        <time>2019-05-24T12:37:15Z</time>
      </trkpt>
      <trkpt lat="44.21167" lon="5.53955">
        <ele>793</ele>
        <time>2019-05-24T12:37:16Z</time>
      </trkpt>
      <trkpt lat="44.21175" lon="5.53959">
        <ele>793</ele>
        <time>2019-05-24T12:37:17Z</time>
      </trkpt>
      <trkpt lat="44.21182" lon="5.53963">
        <ele>793</ele>
        <time>2019-05-24T12:37:18Z</time>
      </trkpt>
      <trkpt lat="44.2119" lon="5.53967">
        <ele>792</ele>
        <time>2019-05-24T12:37:19Z</time>
      </trkpt>
      <trkpt lat="44.21197" lon="5.53971">
        <ele>792</ele>
        <time>2019-05-24T12:37:20Z</time>
      </trkpt>
      <trkpt lat="44.21205" lon="5.53976">
        <ele>791</ele>
        <time>2019-05-24T12:37:21Z</time>
      </trkpt>
      <trkpt lat="44.21212" lon="5.5398">
        <ele>791</ele>
        <time>2019-05-24T12:37:22Z</time>
      </trkpt>
      <trkpt lat="44.2122" lon="5.53984">
        <ele>791</ele>
        <time>2019-05-24T12:37:23Z</time>
      </trkpt>
      <trkpt lat="44.21228" lon="5.53989">
        <ele>791</ele>
        <time>2019-05-24T12:37:24Z</time>
      </trkpt>
      <trkpt lat="44.21236" lon="5.53993">
        <ele>791</ele>
        <time>2019-05-24T12:37:25Z</time>
      </trkpt>
      <trkpt lat="44.21244" lon="5.53997">
        <ele>790</ele>
        <time>2019-05-24T12:37:26Z</time>
      </trkpt>
      <trkpt lat="44.21251" lon="5.54001">
        <ele>790</ele>
        <time>2019-05-24T12:37:27Z</time>
      </trkpt>
      <trkpt lat="44.21259" lon="5.54006">
        <ele>790</ele>
        <time>2019-05-24T12:37:28Z</time>
      </trkpt>
      <trkpt lat="44.21267" lon="5.5401">
        <ele>790</ele>
        <time>2019-05-24T12:37:29Z</time>
      </trkpt>
      <trkpt lat="44.21275" lon="5.54015">
        <ele>789</ele>
        <time>2019-05-24T12:37:30Z</time>
      </trkpt>
      <trkpt lat="44.21283" lon="5.5402">
        <ele>789</ele>
        <time>2019-05-24T12:37:31Z</time>
      </trkpt>
      <trkpt lat="44.21291" lon="5.54025">
        <ele>789</ele>
        <time>2019-05-24T12:37:32Z</time>
      </trkpt>
      <trkpt lat="44.21299" lon="5.54031">
        <ele>789</ele>
        <time>2019-05-24T12:37:33Z</time>
      </trkpt>
      <trkpt lat="44.21307" lon="5.54037">
        <ele>789</ele>
        <time>2019-05-24T12:37:34Z</time>
      </trkpt>
      <trkpt lat="44.21315" lon="5.54043">
        <ele>789</ele>
        <time>2019-05-24T12:37:35Z</time>
      </trkpt>
      <trkpt lat="44.21323" lon="5.5405">
        <ele>789</ele>
        <time>2019-05-24T12:37:36Z</time>
      </trkpt>
      <trkpt lat="44.21331" lon="5.54057">
        <ele>789</ele>
        <time>2019-05-24T12:37:37Z</time>
      </trkpt>
      <trkpt lat="44.21339" lon="5.54065">
        <ele>789</ele>
        <time>2019-05-24T12:37:38Z</time>
      </trkpt>
      <trkpt lat="44.21346" lon="5.54073">
        <ele>789</ele>
        <time>2019-05-24T12:37:39Z</time>
      </trkpt>
      <trkpt lat="44.21354" lon="5.54081">
        <ele>789</ele>
        <time>2019-05-24T12:37:40Z</time>
      </trkpt>
      <trkpt lat="44.21361" lon="5.54089">
        <ele>789</ele>
        <time>2019-05-24T12:37:41Z</time>
      </trkpt>
      <trkpt lat="44.21368" lon="5.54098">
        <ele>788</ele>
        <time>2019-05-24T12:37:42Z</time>
      </trkpt>
      <trkpt lat="44.21376" lon="5.54106">
        <ele>788</ele>
        <time>2019-05-24T12:37:43Z</time>
      </trkpt>
      <trkpt lat="44.21383" lon="5.54114">
        <ele>788</ele>
        <time>2019-05-24T12:37:44Z</time>
      </trkpt>
      <trkpt lat="44.2139" lon="5.54122">
        <ele>788</ele>
        <time>2019-05-24T12:37:45Z</time>
      </trkpt>
      <trkpt lat="44.21398" lon="5.54131">
        <ele>788</ele>
        <time>2019-05-24T12:37:46Z</time>
      </trkpt>
      <trkpt lat="44.21405" lon="5.5414">
        <ele>787</ele>
        <time>2019-05-24T12:37:47Z</time>
      </trkpt>
      <trkpt lat="44.21413" lon="5.54148">
        <ele>787</ele>
        <time>2019-05-24T12:37:48Z</time>
      </trkpt>
      <trkpt lat="44.2142" lon="5.54157">
        <ele>787</ele>
        <time>2019-05-24T12:37:49Z</time>
      </trkpt>
      <trkpt lat="44.21428" lon="5.54166">
        <ele>787</ele>
        <time>2019-05-24T12:37:50Z</time>
      </trkpt>
      <trkpt lat="44.21435" lon="5.54174">
        <ele>787</ele>
        <time>2019-05-24T12:37:51Z</time>
      </trkpt>
      <trkpt lat="44.21443" lon="5.54183">
        <ele>787</ele>
        <time>2019-05-24T12:37:52Z</time>
      </trkpt>
      <trkpt lat="44.2145" lon="5.54192">
        <ele>787</ele>
        <time>2019-05-24T12:37:53Z</time>
      </trkpt>
      <trkpt lat="44.21458" lon="5.54201">
        <ele>786</ele>
        <time>2019-05-24T12:37:54Z</time>
      </trkpt>
      <trkpt lat="44.21465" lon="5.54211">
        <ele>786</ele>
        <time>2019-05-24T12:37:55Z</time>
      </trkpt>
      <trkpt lat="44.21473" lon="5.54219">
        <ele>786</ele>
        <time>2019-05-24T12:37:56Z</time>
      </trkpt>
      <trkpt lat="44.2148" lon="5.54228">
        <ele>785</ele>
        <time>2019-05-24T12:37:57Z</time>
      </trkpt>
      <trkpt lat="44.21487" lon="5.54237">
        <ele>785</ele>
        <time>2019-05-24T12:37:58Z</time>
      </trkpt>
      <trkpt lat="44.21494" lon="5.54246">
        <ele>785</ele>
        <time>2019-05-24T12:37:59Z</time>
      </trkpt>
      <trkpt lat="44.21501" lon="5.54255">
        <ele>785</ele>
        <time>2019-05-24T12:38:00Z</time>
      </trkpt>
      <trkpt lat="44.21508" lon="5.54264">
        <ele>784</ele>
        <time>2019-05-24T12:38:01Z</time>
      </trkpt>
      <trkpt lat="44.21515" lon="5.54273">
        <ele>784</ele>
        <time>2019-05-24T12:38:02Z</time>
      </trkpt>
      <trkpt lat="44.21522" lon="5.54281">
        <ele>784</ele>
        <time>2019-05-24T12:38:03Z</time>
      </trkpt>
      <trkpt lat="44.21529" lon="5.54289">
        <ele>784</ele>
        <time>2019-05-24T12:38:04Z</time>
      </trkpt>
      <trkpt lat="44.21536" lon="5.54297">
        <ele>784</ele>
        <time>2019-05-24T12:38:05Z</time>
      </trkpt>
      <trkpt lat="44.21543" lon="5.54306">
        <ele>784</ele>
        <time>2019-05-24T12:38:06Z</time>
      </trkpt>
      <trkpt lat="44.2155" lon="5.54314">
        <ele>784</ele>
        <time>2019-05-24T12:38:07Z</time>
      </trkpt>
      <trkpt lat="44.21557" lon="5.54322">
        <ele>784</ele>
        <time>2019-05-24T12:38:08Z</time>
      </trkpt>
      <trkpt lat="44.21564" lon="5.54329">
        <ele>784</ele>
        <time>2019-05-24T12:38:09Z</time>
      </trkpt>
      <trkpt lat="44.21571" lon="5.54337">
        <ele>784</ele>
        <time>2019-05-24T12:38:10Z</time>
      </trkpt>
      <trkpt lat="44.21578" lon="5.54343">
        <ele>784</ele>
        <time>2019-05-24T12:38:11Z</time>
      </trkpt>
      <trkpt lat="44.21585" lon="5.54348">
        <ele>784</ele>
        <time>2019-05-24T12:38:12Z</time>
      </trkpt>
      <trkpt lat="44.21594" lon="5.54352">
        <ele>784</ele>
        <time>2019-05-24T12:38:13Z</time>
      </trkpt>
      <trkpt lat="44.21602" lon="5.54355">
        <ele>784</ele>
        <time>2019-05-24T12:38:14Z</time>
      </trkpt>
      <trkpt lat="44.2161" lon="5.54359">
        <ele>784</ele>
        <time>2019-05-24T12:38:15Z</time>
      </trkpt>
      <trkpt lat="44.21619" lon="5.54362">
        <ele>784</ele>
        <time>2019-05-24T12:38:16Z</time>
      </trkpt>
      <trkpt lat="44.21627" lon="5.54365">
        <ele>784</ele>
        <time>2019-05-24T12:38:17Z</time>
      </trkpt>
      <trkpt lat="44.21636" lon="5.54369">
        <ele>784</ele>
        <time>2019-05-24T12:38:18Z</time>
      </trkpt>
      <trkpt lat="44.21645" lon="5.54375">
        <ele>784</ele>
        <time>2019-05-24T12:38:19Z</time>
      </trkpt>
      <trkpt lat="44.21653" lon="5.54381">
        <ele>784</ele>
        <time>2019-05-24T12:38:20Z</time>
      </trkpt>
      <trkpt lat="44.21661" lon="5.54388">
        <ele>784</ele>
        <time>2019-05-24T12:38:21Z</time>
      </trkpt>
      <trkpt lat="44.21669" lon="5.54396">
        <ele>784</ele>
        <time>2019-05-24T12:38:22Z</time>
      </trkpt>
      <trkpt lat="44.21676" lon="5.54405">
        <ele>784</ele>
        <time>2019-05-24T12:38:23Z</time>
      </trkpt>
      <trkpt lat="44.21683" lon="5.54415">
        <ele>784</ele>
        <time>2019-05-24T12:38:24Z</time>
      </trkpt>
      <trkpt lat="44.2169" lon="5.54425">
        <ele>784</ele>
        <time>2019-05-24T12:38:25Z</time>
      </trkpt>
      <trkpt lat="44.21695" lon="5.54436">
        <ele>784</ele>
        <time>2019-05-24T12:38:26Z</time>
      </trkpt>
      <trkpt lat="44.217" lon="5.54448">
        <ele>784</ele>
        <time>2019-05-24T12:38:27Z</time>
      </trkpt>
      <trkpt lat="44.21704" lon="5.54459">
        <ele>783</ele>
        <time>2019-05-24T12:38:28Z</time>
      </trkpt>
      <trkpt lat="44.21709" lon="5.54471">
        <ele>783</ele>
        <time>2019-05-24T12:38:29Z</time>
      </trkpt>
      <trkpt lat="44.21713" lon="5.54483">
        <ele>783</ele>
        <time>2019-05-24T12:38:30Z</time>
      </trkpt>
      <trkpt lat="44.21717" lon="5.54495">
        <ele>782</ele>
        <time>2019-05-24T12:38:31Z</time>
      </trkpt>
      <trkpt lat="44.21721" lon="5.54506">
        <ele>782</ele>
        <time>2019-05-24T12:38:32Z</time>
      </trkpt>
      <trkpt lat="44.21725" lon="5.54517">
        <ele>782</ele>
        <time>2019-05-24T12:38:33Z</time>
      </trkpt>
      <trkpt lat="44.21728" lon="5.54527">
        <ele>782</ele>
        <time>2019-05-24T12:38:34Z</time>
      </trkpt>
      <trkpt lat="44.21732" lon="5.54537">
        <ele>782</ele>
        <time>2019-05-24T12:38:35Z</time>
      </trkpt>
      <trkpt lat="44.21735" lon="5.54546">
        <ele>781</ele>
        <time>2019-05-24T12:38:36Z</time>
      </trkpt>
      <trkpt lat="44.21739" lon="5.54556">
        <ele>781</ele>
        <time>2019-05-24T12:38:37Z</time>
      </trkpt>
      <trkpt lat="44.21742" lon="5.54565">
        <ele>781</ele>
        <time>2019-05-24T12:38:38Z</time>
      </trkpt>
      <trkpt lat="44.21745" lon="5.54574">
        <ele>780</ele>
        <time>2019-05-24T12:38:39Z</time>
      </trkpt>
      <trkpt lat="44.21748" lon="5.54584">
        <ele>780</ele>
        <time>2019-05-24T12:38:40Z</time>
      </trkpt>
      <trkpt lat="44.21751" lon="5.54593">
        <ele>780</ele>
        <time>2019-05-24T12:38:41Z</time>
      </trkpt>
      <trkpt lat="44.21755" lon="5.54601">
        <ele>780</ele>
        <time>2019-05-24T12:38:42Z</time>
      </trkpt>
      <trkpt lat="44.21759" lon="5.5461">
        <ele>780</ele>
        <time>2019-05-24T12:38:43Z</time>
      </trkpt>
      <trkpt lat="44.21762" lon="5.54619">
        <ele>780</ele>
        <time>2019-05-24T12:38:44Z</time>
      </trkpt>
      <trkpt lat="44.21766" lon="5.54628">
        <ele>780</ele>
        <time>2019-05-24T12:38:45Z</time>
      </trkpt>
      <trkpt lat="44.21769" lon="5.54636">
        <ele>780</ele>
        <time>2019-05-24T12:38:46Z</time>
      </trkpt>
      <trkpt lat="44.21772" lon="5.54645">
        <ele>780</ele>
        <time>2019-05-24T12:38:47Z</time>
      </trkpt>
      <trkpt lat="44.21776" lon="5.54653">
        <ele>780</ele>
        <time>2019-05-24T12:38:48Z</time>
      </trkpt>
      <trkpt lat="44.2178" lon="5.54662">
        <ele>780</ele>
        <time>2019-05-24T12:38:49Z</time>
      </trkpt>
      <trkpt lat="44.21783" lon="5.5467">
        <ele>780</ele>
        <time>2019-05-24T12:38:50Z</time>
      </trkpt>
      <trkpt lat="44.21786" lon="5.54679">
        <ele>780</ele>
        <time>2019-05-24T12:38:51Z</time>
      </trkpt>
      <trkpt lat="44.21789" lon="5.54688">
        <ele>780</ele>
        <time>2019-05-24T12:38:52Z</time>
      </trkpt>
      <trkpt lat="44.21793" lon="5.54696">
        <ele>780</ele>
        <time>2019-05-24T12:38:53Z</time>
      </trkpt>
      <trkpt lat="44.21796" lon="5.54705">
        <ele>780</ele>
        <time>2019-05-24T12:38:54Z</time>
      </trkpt>
      <trkpt lat="44.21799" lon="5.54713">
        <ele>780</ele>
        <time>2019-05-24T12:38:55Z</time>
      </trkpt>
      <trkpt lat="44.21802" lon="5.54722">
        <ele>780</ele>
        <time>2019-05-24T12:38:56Z</time>
      </trkpt>
      <trkpt lat="44.21805" lon="5.5473">
        <ele>780</ele>
        <time>2019-05-24T12:38:57Z</time>
      </trkpt>
      <trkpt lat="44.21808" lon="5.54738">
        <ele>780</ele>
        <time>2019-05-24T12:38:58Z</time>
      </trkpt>
      <trkpt lat="44.21811" lon="5.54747">
        <ele>780</ele>
        <time>2019-05-24T12:38:59Z</time>
      </trkpt>
      <trkpt lat="44.21814" lon="5.54755">
        <ele>780</ele>
        <time>2019-05-24T12:39:00Z</time>
      </trkpt>
      <trkpt lat="44.21817" lon="5.54763">
        <ele>780</ele>
        <time>2019-05-24T12:39:01Z</time>
      </trkpt>
      <trkpt lat="44.2182" lon="5.54772">
        <ele>780</ele>
        <time>2019-05-24T12:39:02Z</time>
      </trkpt>
      <trkpt lat="44.21824" lon="5.5478">
        <ele>780</ele>
        <time>2019-05-24T12:39:03Z</time>
      </trkpt>
      <trkpt lat="44.21827" lon="5.54788">
        <ele>780</ele>
        <time>2019-05-24T12:39:04Z</time>
      </trkpt>
      <trkpt lat="44.2183" lon="5.54796">
        <ele>780</ele>
        <time>2019-05-24T12:39:05Z</time>
      </trkpt>
      <trkpt lat="44.21833" lon="5.54804">
        <ele>780</ele>
        <time>2019-05-24T12:39:06Z</time>
      </trkpt>
      <trkpt lat="44.21836" lon="5.54813">
        <ele>780</ele>
        <time>2019-05-24T12:39:07Z</time>
      </trkpt>
      <trkpt lat="44.21839" lon="5.54821">
        <ele>780</ele>
        <time>2019-05-24T12:39:08Z</time>
      </trkpt>
      <trkpt lat="44.21843" lon="5.5483">
        <ele>780</ele>
        <time>2019-05-24T12:39:09Z</time>
      </trkpt>
      <trkpt lat="44.21846" lon="5.5484">
        <ele>780</ele>
        <time>2019-05-24T12:39:10Z</time>
      </trkpt>
      <trkpt lat="44.2185" lon="5.54849">
        <ele>780</ele>
        <time>2019-05-24T12:39:11Z</time>
      </trkpt>
      <trkpt lat="44.21853" lon="5.54858">
        <ele>779</ele>
        <time>2019-05-24T12:39:12Z</time>
      </trkpt>
      <trkpt lat="44.21857" lon="5.54869">
        <ele>779</ele>
        <time>2019-05-24T12:39:13Z</time>
      </trkpt>
      <trkpt lat="44.21861" lon="5.54879">
        <ele>779</ele>
        <time>2019-05-24T12:39:14Z</time>
      </trkpt>
      <trkpt lat="44.21864" lon="5.54889">
        <ele>779</ele>
        <time>2019-05-24T12:39:15Z</time>
      </trkpt>
      <trkpt lat="44.21868" lon="5.549">
        <ele>778</ele>
        <time>2019-05-24T12:39:16Z</time>
      </trkpt>
      <trkpt lat="44.21872" lon="5.5491">
        <ele>778</ele>
        <time>2019-05-24T12:39:17Z</time>
      </trkpt>
      <trkpt lat="44.21876" lon="5.54921">
        <ele>778</ele>
        <time>2019-05-24T12:39:18Z</time>
      </trkpt>
      <trkpt lat="44.2188" lon="5.54932">
        <ele>778</ele>
        <time>2019-05-24T12:39:19Z</time>
      </trkpt>
      <trkpt lat="44.21884" lon="5.54943">
        <ele>777</ele>
        <time>2019-05-24T12:39:20Z</time>
      </trkpt>
      <trkpt lat="44.21888" lon="5.54953">
        <ele>777</ele>
        <time>2019-05-24T12:39:21Z</time>
      </trkpt>
      <trkpt lat="44.21893" lon="5.54964">
        <ele>777</ele>
        <time>2019-05-24T12:39:22Z</time>
      </trkpt>
      <trkpt lat="44.21897" lon="5.54976">
        <ele>777</ele>
        <time>2019-05-24T12:39:23Z</time>
      </trkpt>
      <trkpt lat="44.21901" lon="5.54987">
        <ele>777</ele>
        <time>2019-05-24T12:39:24Z</time>
      </trkpt>
      <trkpt lat="44.21906" lon="5.54998">
        <ele>777</ele>
        <time>2019-05-24T12:39:25Z</time>
      </trkpt>
      <trkpt lat="44.2191" lon="5.5501">
        <ele>777</ele>
        <time>2019-05-24T12:39:26Z</time>
      </trkpt>
      <trkpt lat="44.21915" lon="5.55022">
        <ele>777</ele>
        <time>2019-05-24T12:39:27Z</time>
      </trkpt>
      <trkpt lat="44.21919" lon="5.55034">
        <ele>777</ele>
        <time>2019-05-24T12:39:28Z</time>
      </trkpt>
      <trkpt lat="44.21923" lon="5.55046">
        <ele>777</ele>
        <time>2019-05-24T12:39:29Z</time>
      </trkpt>
      <trkpt lat="44.21928" lon="5.55058">
        <ele>777</ele>
        <time>2019-05-24T12:39:30Z</time>
      </trkpt>
      <trkpt lat="44.21933" lon="5.5507">
        <ele>777</ele>
        <time>2019-05-24T12:39:31Z</time>
      </trkpt>
      <trkpt lat="44.21938" lon="5.55083">
        <ele>777</ele>
        <time>2019-05-24T12:39:32Z</time>
      </trkpt>
      <trkpt lat="44.21943" lon="5.55095">
        <ele>776</ele>
        <time>2019-05-24T12:39:33Z</time>
      </trkpt>
      <trkpt lat="44.21948" lon="5.55108">
        <ele>776</ele>
        <time>2019-05-24T12:39:34Z</time>
      </trkpt>
      <trkpt lat="44.21952" lon="5.55121">
        <ele>776</ele>
        <time>2019-05-24T12:39:35Z</time>
      </trkpt>
      <trkpt lat="44.21957" lon="5.55134">
        <ele>775</ele>
        <time>2019-05-24T12:39:36Z</time>
      </trkpt>
      <trkpt lat="44.2196" lon="5.55147">
        <ele>775</ele>
        <time>2019-05-24T12:39:37Z</time>
      </trkpt>
      <trkpt lat="44.21964" lon="5.5516">
        <ele>774</ele>
        <time>2019-05-24T12:39:38Z</time>
      </trkpt>
      <trkpt lat="44.21967" lon="5.55174">
        <ele>774</ele>
        <time>2019-05-24T12:39:39Z</time>
      </trkpt>
      <trkpt lat="44.2197" lon="5.55188">
        <ele>773</ele>
        <time>2019-05-24T12:39:40Z</time>
      </trkpt>
      <trkpt lat="44.21973" lon="5.55201">
        <ele>773</ele>
        <time>2019-05-24T12:39:41Z</time>
      </trkpt>
      <trkpt lat="44.21975" lon="5.55216">
        <ele>772</ele>
        <time>2019-05-24T12:39:42Z</time>
      </trkpt>
      <trkpt lat="44.21977" lon="5.5523">
        <ele>772</ele>
        <time>2019-05-24T12:39:43Z</time>
      </trkpt>
      <trkpt lat="44.21979" lon="5.55245">
        <ele>771</ele>
        <time>2019-05-24T12:39:44Z</time>
      </trkpt>
      <trkpt lat="44.21981" lon="5.55259">
        <ele>771</ele>
        <time>2019-05-24T12:39:45Z</time>
      </trkpt>
      <trkpt lat="44.21982" lon="5.55273">
        <ele>771</ele>
        <time>2019-05-24T12:39:46Z</time>
      </trkpt>
      <trkpt lat="44.21984" lon="5.55288">
        <ele>770</ele>
        <time>2019-05-24T12:39:47Z</time>
      </trkpt>
      <trkpt lat="44.21985" lon="5.55303">
        <ele>770</ele>
        <time>2019-05-24T12:39:48Z</time>
      </trkpt>
      <trkpt lat="44.21987" lon="5.55317">
        <ele>770</ele>
        <time>2019-05-24T12:39:49Z</time>
      </trkpt>
      <trkpt lat="44.21988" lon="5.55331">
        <ele>769</ele>
        <time>2019-05-24T12:39:50Z</time>
      </trkpt>
      <trkpt lat="44.2199" lon="5.55345">
        <ele>769</ele>
        <time>2019-05-24T12:39:51Z</time>
      </trkpt>
      <trkpt lat="44.21991" lon="5.55359">
        <ele>769</ele>
        <time>2019-05-24T12:39:52Z</time>
      </trkpt>
      <trkpt lat="44.21992" lon="5.55372">
        <ele>769</ele>
        <time>2019-05-24T12:39:53Z</time>
      </trkpt>
      <trkpt lat="44.21994" lon="5.55386">
        <ele>769</ele>
        <time>2019-05-24T12:39:54Z</time>
      </trkpt>
      <trkpt lat="44.21995" lon="5.55399">
        <ele>769</ele>
        <time>2019-05-24T12:39:55Z</time>
      </trkpt>
      <trkpt lat="44.21997" lon="5.55413">
        <ele>769</ele>
        <time>2019-05-24T12:39:56Z</time>
      </trkpt>
      <trkpt lat="44.21998" lon="5.55426">
        <ele>769</ele>
        <time>2019-05-24T12:39:57Z</time>
      </trkpt>
      <trkpt lat="44.21999" lon="5.5544">
        <ele>769</ele>
        <time>2019-05-24T12:39:58Z</time>
      </trkpt>
      <trkpt lat="44.22001" lon="5.55453">
        <ele>769</ele>
        <time>2019-05-24T12:39:59Z</time>
      </trkpt>
      <trkpt lat="44.22003" lon="5.55466">
        <ele>769</ele>
        <time>2019-05-24T12:40:00Z</time>
      </trkpt>
      <trkpt lat="44.22004" lon="5.55479">
        <ele>769</ele>
        <time>2019-05-24T12:40:01Z</time>
      </trkpt>
      <trkpt lat="44.22005" lon="5.55492">
        <ele>769</ele>
        <time>2019-05-24T12:40:02Z</time>
      </trkpt>
      <trkpt lat="44.22007" lon="5.55504">
        <ele>769</ele>
        <time>2019-05-24T12:40:03Z</time>
      </trkpt>
      <trkpt lat="44.22008" lon="5.55516">
        <ele>769</ele>
        <time>2019-05-24T12:40:04Z</time>
      </trkpt>
      <trkpt lat="44.2201" lon="5.55529">
        <ele>769</ele>
        <time>2019-05-24T12:40:05Z</time>
      </trkpt>
      <trkpt lat="44.22011" lon="5.55541">
        <ele>769</ele>
        <time>2019-05-24T12:40:06Z</time>
      </trkpt>
      <trkpt lat="44.22012" lon="5.55553">
        <ele>769</ele>
        <time>2019-05-24T12:40:07Z</time>
      </trkpt>
      <trkpt lat="44.22014" lon="5.55565">
        <ele>769</ele>
        <time>2019-05-24T12:40:08Z</time>
      </trkpt>
      <trkpt lat="44.22015" lon="5.55577">
        <ele>769</ele>
        <time>2019-05-24T12:40:09Z</time>
      </trkpt>
      <trkpt lat="44.22016" lon="5.55589">
        <ele>769</ele>
        <time>2019-05-24T12:40:10Z</time>
      </trkpt>
      <trkpt lat="44.22018" lon="5.55601">
        <ele>769</ele>
        <time>2019-05-24T12:40:11Z</time>
      </trkpt>
      <trkpt lat="44.22019" lon="5.55613">
        <ele>769</ele>
        <time>2019-05-24T12:40:12Z</time>
      </trkpt>
      <trkpt lat="44.2202" lon="5.55625">
        <ele>769</ele>
        <time>2019-05-24T12:40:13Z</time>
      </trkpt>
      <trkpt lat="44.22021" lon="5.55638">
        <ele>769</ele>
        <time>2019-05-24T12:40:14Z</time>
      </trkpt>
      <trkpt lat="44.22023" lon="5.5565">
        <ele>769</ele>
        <time>2019-05-24T12:40:15Z</time>
      </trkpt>
      <trkpt lat="44.22025" lon="5.55662">
        <ele>769</ele>
        <time>2019-05-24T12:40:16Z</time>
      </trkpt>
      <trkpt lat="44.22026" lon="5.55674">
        <ele>769</ele>
        <time>2019-05-24T12:40:17Z</time>
      </trkpt>
      <trkpt lat="44.22027" lon="5.55687">
        <ele>769</ele>
        <time>2019-05-24T12:40:18Z</time>
      </trkpt>
      <trkpt lat="44.22028" lon="5.55699">
        <ele>769</ele>
        <time>2019-05-24T12:40:19Z</time>
      </trkpt>
      <trkpt lat="44.2203" lon="5.55711">
        <ele>769</ele>
        <time>2019-05-24T12:40:20Z</time>
      </trkpt>
      <trkpt lat="44.22031" lon="5.55723">
        <ele>769</ele>
        <time>2019-05-24T12:40:21Z</time>
      </trkpt>
      <trkpt lat="44.22032" lon="5.55735">
        <ele>769</ele>
        <time>2019-05-24T12:40:22Z</time>
      </trkpt>
      <trkpt lat="44.22033" lon="5.55747">
        <ele>769</ele>
        <time>2019-05-24T12:40:23Z</time>
      </trkpt>
      <trkpt lat="44.22035" lon="5.55759">
        <ele>769</ele>
        <time>2019-05-24T12:40:24Z</time>
      </trkpt>
      <trkpt lat="44.22036" lon="5.5577">
        <ele>769</ele>
        <time>2019-05-24T12:40:25Z</time>
      </trkpt>
      <trkpt lat="44.22036" lon="5.55782">
        <ele>769</ele>
        <time>2019-05-24T12:40:26Z</time>
      </trkpt>
      <trkpt lat="44.22038" lon="5.55794">
        <ele>769</ele>
        <time>2019-05-24T12:40:27Z</time>
      </trkpt>
      <trkpt lat="44.22039" lon="5.55805">
        <ele>769</ele>
        <time>2019-05-24T12:40:28Z</time>
      </trkpt>
      <trkpt lat="44.2204" lon="5.55817">
        <ele>769</ele>
        <time>2019-05-24T12:40:29Z</time>
      </trkpt>
      <trkpt lat="44.22041" lon="5.55829">
        <ele>769</ele>
        <time>2019-05-24T12:40:30Z</time>
      </trkpt>
      <trkpt lat="44.22042" lon="5.5584">
        <ele>769</ele>
        <time>2019-05-24T12:40:31Z</time>
      </trkpt>
      <trkpt lat="44.22044" lon="5.55852">
        <ele>769</ele>
        <time>2019-05-24T12:40:32Z</time>
      </trkpt>
      <trkpt lat="44.22045" lon="5.55864">
        <ele>769</ele>
        <time>2019-05-24T12:40:33Z</time>
      </trkpt>
      <trkpt lat="44.22046" lon="5.55876">
        <ele>769</ele>
        <time>2019-05-24T12:40:34Z</time>
      </trkpt>
      <trkpt lat="44.22048" lon="5.55888">
        <ele>769</ele>
        <time>2019-05-24T12:40:35Z</time>
      </trkpt>
      <trkpt lat="44.22049" lon="5.559">
        <ele>769</ele>
        <time>2019-05-24T12:40:36Z</time>
      </trkpt>
      <trkpt lat="44.2205" lon="5.55912">
        <ele>769</ele>
        <time>2019-05-24T12:40:37Z</time>
      </trkpt>
      <trkpt lat="44.22052" lon="5.55924">
        <ele>769</ele>
        <time>2019-05-24T12:40:38Z</time>
      </trkpt>
      <trkpt lat="44.22053" lon="5.55936">
        <ele>768</ele>
        <time>2019-05-24T12:40:39Z</time>
      </trkpt>
      <trkpt lat="44.22054" lon="5.55948">
        <ele>768</ele>
        <time>2019-05-24T12:40:40Z</time>
      </trkpt>
      <trkpt lat="44.22056" lon="5.5596">
        <ele>768</ele>
        <time>2019-05-24T12:40:41Z</time>
      </trkpt>
      <trkpt lat="44.22057" lon="5.55972">
        <ele>768</ele>
        <time>2019-05-24T12:40:42Z</time>
      </trkpt>
      <trkpt lat="44.22058" lon="5.55984">
        <ele>768</ele>
        <time>2019-05-24T12:40:43Z</time>
      </trkpt>
      <trkpt lat="44.2206" lon="5.55996">
        <ele>768</ele>
        <time>2019-05-24T12:40:44Z</time>
      </trkpt>
      <trkpt lat="44.22061" lon="5.56007">
        <ele>768</ele>
        <time>2019-05-24T12:40:45Z</time>
      </trkpt>
      <trkpt lat="44.22062" lon="5.56019">
        <ele>768</ele>
        <time>2019-05-24T12:40:46Z</time>
      </trkpt>
      <trkpt lat="44.22063" lon="5.56032">
        <ele>768</ele>
        <time>2019-05-24T12:40:47Z</time>
      </trkpt>
      <trkpt lat="44.22064" lon="5.56044">
        <ele>768</ele>
        <time>2019-05-24T12:40:48Z</time>
      </trkpt>
      <trkpt lat="44.22065" lon="5.56056">
        <ele>768</ele>
        <time>2019-05-24T12:40:49Z</time>
      </trkpt>
      <trkpt lat="44.22066" lon="5.56068">
        <ele>768</ele>
        <time>2019-05-24T12:40:50Z</time>
      </trkpt>
      <trkpt lat="44.22068" lon="5.56079">
        <ele>768</ele>
        <time>2019-05-24T12:40:51Z</time>
      </trkpt>
      <trkpt lat="44.22069" lon="5.56091">
        <ele>768</ele>
        <time>2019-05-24T12:40:52Z</time>
      </trkpt>
      <trkpt lat="44.2207" lon="5.56102">
        <ele>768</ele>
        <time>2019-05-24T12:40:53Z</time>
      </trkpt>
      <trkpt lat="44.22071" lon="5.56112">
        <ele>768</ele>
        <time>2019-05-24T12:40:54Z</time>
      </trkpt>
      <trkpt lat="44.22073" lon="5.56123">
        <ele>768</ele>
        <time>2019-05-24T12:40:55Z</time>
      </trkpt>
      <trkpt lat="44.22073" lon="5.56134">
        <ele>768</ele>
        <time>2019-05-24T12:40:56Z</time>
      </trkpt>
      <trkpt lat="44.22075" lon="5.56145">
        <ele>768</ele>
        <time>2019-05-24T12:40:57Z</time>
      </trkpt>
      <trkpt lat="44.22076" lon="5.56155">
        <ele>768</ele>
        <time>2019-05-24T12:40:58Z</time>
      </trkpt>
      <trkpt lat="44.22077" lon="5.56166">
        <ele>768</ele>
        <time>2019-05-24T12:40:59Z</time>
      </trkpt>
      <trkpt lat="44.22078" lon="5.56176">
        <ele>768</ele>
        <time>2019-05-24T12:41:00Z</time>
      </trkpt>
      <trkpt lat="44.22079" lon="5.56187">
        <ele>768</ele>
        <time>2019-05-24T12:41:01Z</time>
      </trkpt>
      <trkpt lat="44.22081" lon="5.56198">
        <ele>768</ele>
        <time>2019-05-24T12:41:02Z</time>
      </trkpt>
      <trkpt lat="44.22082" lon="5.56209">
        <ele>768</ele>
        <time>2019-05-24T12:41:03Z</time>
      </trkpt>
      <trkpt lat="44.22083" lon="5.5622">
        <ele>768</ele>
        <time>2019-05-24T12:41:04Z</time>
      </trkpt>
      <trkpt lat="44.22084" lon="5.56231">
        <ele>768</ele>
        <time>2019-05-24T12:41:05Z</time>
      </trkpt>
      <trkpt lat="44.22085" lon="5.56242">
        <ele>768</ele>
        <time>2019-05-24T12:41:06Z</time>
      </trkpt>
      <trkpt lat="44.22086" lon="5.56252">
        <ele>768</ele>
        <time>2019-05-24T12:41:07Z</time>
      </trkpt>
      <trkpt lat="44.22087" lon="5.56263">
        <ele>768</ele>
        <time>2019-05-24T12:41:08Z</time>
      </trkpt>
      <trkpt lat="44.22089" lon="5.56274">
        <ele>768</ele>
        <time>2019-05-24T12:41:09Z</time>
      </trkpt>
      <trkpt lat="44.2209" lon="5.56284">
        <ele>768</ele>
        <time>2019-05-24T12:41:10Z</time>
      </trkpt>
      <trkpt lat="44.22091" lon="5.56295">
        <ele>768</ele>
        <time>2019-05-24T12:41:11Z</time>
      </trkpt>
      <trkpt lat="44.22092" lon="5.56305">
        <ele>768</ele>
        <time>2019-05-24T12:41:12Z</time>
      </trkpt>
      <trkpt lat="44.22093" lon="5.56316">
        <ele>768</ele>
        <time>2019-05-24T12:41:13Z</time>
      </trkpt>
      <trkpt lat="44.22094" lon="5.56326">
        <ele>768</ele>
        <time>2019-05-24T12:41:14Z</time>
      </trkpt>
      <trkpt lat="44.22095" lon="5.56336">
        <ele>768</ele>
        <time>2019-05-24T12:41:15Z</time>
      </trkpt>
      <trkpt lat="44.22096" lon="5.56347">
        <ele>768</ele>
        <time>2019-05-24T12:41:16Z</time>
      </trkpt>
      <trkpt lat="44.22097" lon="5.56357">
        <ele>768</ele>
        <time>2019-05-24T12:41:17Z</time>
      </trkpt>
      <trkpt lat="44.22097" lon="5.56368">
        <ele>768</ele>
        <time>2019-05-24T12:41:18Z</time>
      </trkpt>
      <trkpt lat="44.22098" lon="5.56379">
        <ele>768</ele>
        <time>2019-05-24T12:41:19Z</time>
      </trkpt>
      <trkpt lat="44.22099" lon="5.56389">
        <ele>768</ele>
        <time>2019-05-24T12:41:20Z</time>
      </trkpt>
      <trkpt lat="44.221" lon="5.564">
        <ele>768</ele>
        <time>2019-05-24T12:41:21Z</time>
      </trkpt>
      <trkpt lat="44.22102" lon="5.56411">
        <ele>768</ele>
        <time>2019-05-24T12:41:22Z</time>
      </trkpt>
      <trkpt lat="44.22102" lon="5.56422">
        <ele>768</ele>
        <time>2019-05-24T12:41:23Z</time>
      </trkpt>
      <trkpt lat="44.22104" lon="5.56433">
        <ele>768</ele>
        <time>2019-05-24T12:41:24Z</time>
      </trkpt>
      <trkpt lat="44.22105" lon="5.56444">
        <ele>768</ele>
        <time>2019-05-24T12:41:25Z</time>
      </trkpt>
      <trkpt lat="44.22105" lon="5.56455">
        <ele>768</ele>
        <time>2019-05-24T12:41:26Z</time>
      </trkpt>
      <trkpt lat="44.22106" lon="5.56466">
        <ele>768</ele>
        <time>2019-05-24T12:41:27Z</time>
      </trkpt>
      <trkpt lat="44.22107" lon="5.56478">
        <ele>768</ele>
        <time>2019-05-24T12:41:28Z</time>
      </trkpt>
      <trkpt lat="44.22107" lon="5.56489">
        <ele>768</ele>
        <time>2019-05-24T12:41:29Z</time>
      </trkpt>
      <trkpt lat="44.22108" lon="5.56501">
        <ele>768</ele>
        <time>2019-05-24T12:41:30Z</time>
      </trkpt>
      <trkpt lat="44.22108" lon="5.56512">
        <ele>768</ele>
        <time>2019-05-24T12:41:31Z</time>
      </trkpt>
      <trkpt lat="44.22108" lon="5.56523">
        <ele>768</ele>
        <time>2019-05-24T12:41:32Z</time>
      </trkpt>
      <trkpt lat="44.22108" lon="5.56534">
        <ele>768</ele>
        <time>2019-05-24T12:41:33Z</time>
      </trkpt>
      <trkpt lat="44.22109" lon="5.56545">
        <ele>768</ele>
        <time>2019-05-24T12:41:34Z</time>
      </trkpt>
      <trkpt lat="44.22109" lon="5.56557">
        <ele>768</ele>
        <time>2019-05-24T12:41:35Z</time>
      </trkpt>
      <trkpt lat="44.2211" lon="5.56568">
        <ele>768</ele>
        <time>2019-05-24T12:41:36Z</time>
      </trkpt>
      <trkpt lat="44.2211" lon="5.56579">
        <ele>768</ele>
        <time>2019-05-24T12:41:37Z</time>
      </trkpt>
      <trkpt lat="44.2211" lon="5.56591">
        <ele>768</ele>
        <time>2019-05-24T12:41:38Z</time>
      </trkpt>
      <trkpt lat="44.22111" lon="5.56602">
        <ele>768</ele>
        <time>2019-05-24T12:41:39Z</time>
      </trkpt>
      <trkpt lat="44.22111" lon="5.56614">
        <ele>768</ele>
        <time>2019-05-24T12:41:40Z</time>
      </trkpt>
      <trkpt lat="44.22111" lon="5.56626">
        <ele>768</ele>
        <time>2019-05-24T12:41:41Z</time>
      </trkpt>
      <trkpt lat="44.22112" lon="5.56637">
        <ele>768</ele>
        <time>2019-05-24T12:41:42Z</time>
      </trkpt>
      <trkpt lat="44.22112" lon="5.56649">
        <ele>768</ele>
        <time>2019-05-24T12:41:43Z</time>
      </trkpt>
      <trkpt lat="44.22112" lon="5.5666">
        <ele>768</ele>
        <time>2019-05-24T12:41:44Z</time>
      </trkpt>
      <trkpt lat="44.22112" lon="5.56672">
        <ele>768</ele>
        <time>2019-05-24T12:41:45Z</time>
      </trkpt>
      <trkpt lat="44.22112" lon="5.56683">
        <ele>768</ele>
        <time>2019-05-24T12:41:46Z</time>
      </trkpt>
      <trkpt lat="44.22113" lon="5.56695">
        <ele>768</ele>
        <time>2019-05-24T12:41:47Z</time>
      </trkpt>
      <trkpt lat="44.22113" lon="5.56707">
        <ele>768</ele>
        <time>2019-05-24T12:41:48Z</time>
      </trkpt>
      <trkpt lat="44.22113" lon="5.56719">
        <ele>768</ele>
        <time>2019-05-24T12:41:49Z</time>
      </trkpt>
      <trkpt lat="44.22114" lon="5.56731">
        <ele>768</ele>
        <time>2019-05-24T12:41:50Z</time>
      </trkpt>
      <trkpt lat="44.22114" lon="5.56743">
        <ele>767</ele>
        <time>2019-05-24T12:41:51Z</time>
      </trkpt>
      <trkpt lat="44.22114" lon="5.56755">
        <ele>767</ele>
        <time>2019-05-24T12:41:52Z</time>
      </trkpt>
      <trkpt lat="44.22115" lon="5.56767">
        <ele>767</ele>
        <time>2019-05-24T12:41:53Z</time>
      </trkpt>
      <trkpt lat="44.22115" lon="5.56779">
        <ele>767</ele>
        <time>2019-05-24T12:41:54Z</time>
      </trkpt>
      <trkpt lat="44.22115" lon="5.56792">
        <ele>767</ele>
        <time>2019-05-24T12:41:55Z</time>
      </trkpt>
      <trkpt lat="44.22116" lon="5.56804">
        <ele>766</ele>
        <time>2019-05-24T12:41:56Z</time>
      </trkpt>
      <trkpt lat="44.22116" lon="5.56816">
        <ele>766</ele>
        <time>2019-05-24T12:41:57Z</time>
      </trkpt>
      <trkpt lat="44.22116" lon="5.56829">
        <ele>766</ele>
        <time>2019-05-24T12:41:58Z</time>
      </trkpt>
      <trkpt lat="44.22117" lon="5.56841">
        <ele>766</ele>
        <time>2019-05-24T12:41:59Z</time>
      </trkpt>
      <trkpt lat="44.22117" lon="5.56854">
        <ele>766</ele>
        <time>2019-05-24T12:42:00Z</time>
      </trkpt>
      <trkpt lat="44.22118" lon="5.56866">
        <ele>766</ele>
        <time>2019-05-24T12:42:01Z</time>
      </trkpt>
      <trkpt lat="44.22118" lon="5.56879">
        <ele>765</ele>
        <time>2019-05-24T12:42:02Z</time>
      </trkpt>
      <trkpt lat="44.22118" lon="5.56891">
        <ele>765</ele>
        <time>2019-05-24T12:42:03Z</time>
      </trkpt>
      <trkpt lat="44.22118" lon="5.56903">
        <ele>765</ele>
        <time>2019-05-24T12:42:04Z</time>
      </trkpt>
      <trkpt lat="44.22119" lon="5.56916">
        <ele>765</ele>
        <time>2019-05-24T12:42:05Z</time>
      </trkpt>
      <trkpt lat="44.22119" lon="5.56928">
        <ele>765</ele>
        <time>2019-05-24T12:42:06Z</time>
      </trkpt>
      <trkpt lat="44.2212" lon="5.56941">
        <ele>764</ele>
        <time>2019-05-24T12:42:07Z</time>
      </trkpt>
      <trkpt lat="44.2212" lon="5.56953">
        <ele>764</ele>
        <time>2019-05-24T12:42:08Z</time>
      </trkpt>
      <trkpt lat="44.2212" lon="5.56965">
        <ele>764</ele>
        <time>2019-05-24T12:42:09Z</time>
      </trkpt>
      <trkpt lat="44.22121" lon="5.56978">
        <ele>764</ele>
        <time>2019-05-24T12:42:10Z</time>
      </trkpt>
      <trkpt lat="44.22121" lon="5.5699">
        <ele>764</ele>
        <time>2019-05-24T12:42:11Z</time>
      </trkpt>
      <trkpt lat="44.22121" lon="5.57003">
        <ele>764</ele>
        <time>2019-05-24T12:42:12Z</time>
      </trkpt>
      <trkpt lat="44.22121" lon="5.57015">
        <ele>763</ele>
        <time>2019-05-24T12:42:13Z</time>
      </trkpt>
      <trkpt lat="44.22122" lon="5.57027">
        <ele>763</ele>
        <time>2019-05-24T12:42:14Z</time>
      </trkpt>
      <trkpt lat="44.22122" lon="5.57039">
        <ele>763</ele>
        <time>2019-05-24T12:42:15Z</time>
      </trkpt>
      <trkpt lat="44.22122" lon="5.57051">
        <ele>763</ele>
        <time>2019-05-24T12:42:16Z</time>
      </trkpt>
      <trkpt lat="44.22123" lon="5.57063">
        <ele>763</ele>
        <time>2019-05-24T12:42:17Z</time>
      </trkpt>
      <trkpt lat="44.22123" lon="5.57075">
        <ele>763</ele>
        <time>2019-05-24T12:42:18Z</time>
      </trkpt>
      <trkpt lat="44.22123" lon="5.57087">
        <ele>763</ele>
        <time>2019-05-24T12:42:19Z</time>
      </trkpt>
      <trkpt lat="44.22123" lon="5.57099">
        <ele>763</ele>
        <time>2019-05-24T12:42:20Z</time>
      </trkpt>
      <trkpt lat="44.22124" lon="5.57111">
        <ele>762</ele>
        <time>2019-05-24T12:42:21Z</time>
      </trkpt>
      <trkpt lat="44.22124" lon="5.57123">
        <ele>762</ele>
        <time>2019-05-24T12:42:22Z</time>
      </trkpt>
      <trkpt lat="44.22124" lon="5.57135">
        <ele>762</ele>
        <time>2019-05-24T12:42:23Z</time>
      </trkpt>
      <trkpt lat="44.22125" lon="5.57147">
        <ele>762</ele>
        <time>2019-05-24T12:42:24Z</time>
      </trkpt>
      <trkpt lat="44.22125" lon="5.57159">
        <ele>762</ele>
        <time>2019-05-24T12:42:25Z</time>
      </trkpt>
      <trkpt lat="44.22126" lon="5.57171">
        <ele>762</ele>
        <time>2019-05-24T12:42:26Z</time>
      </trkpt>
      <trkpt lat="44.22126" lon="5.57184">
        <ele>762</ele>
        <time>2019-05-24T12:42:27Z</time>
      </trkpt>
      <trkpt lat="44.22126" lon="5.57196">
        <ele>762</ele>
        <time>2019-05-24T12:42:28Z</time>
      </trkpt>
      <trkpt lat="44.22126" lon="5.57208">
        <ele>762</ele>
        <time>2019-05-24T12:42:29Z</time>
      </trkpt>
      <trkpt lat="44.22127" lon="5.5722">
        <ele>762</ele>
        <time>2019-05-24T12:42:30Z</time>
      </trkpt>
      <trkpt lat="44.22127" lon="5.57232">
        <ele>762</ele>
        <time>2019-05-24T12:42:31Z</time>
      </trkpt>
      <trkpt lat="44.22127" lon="5.57244">
        <ele>761</ele>
        <time>2019-05-24T12:42:32Z</time>
      </trkpt>
      <trkpt lat="44.22127" lon="5.57255">
        <ele>761</ele>
        <time>2019-05-24T12:42:33Z</time>
      </trkpt>
      <trkpt lat="44.22128" lon="5.57267">
        <ele>761</ele>
        <time>2019-05-24T12:42:34Z</time>
      </trkpt>
      <trkpt lat="44.22128" lon="5.57278">
        <ele>761</ele>
        <time>2019-05-24T12:42:35Z</time>
      </trkpt>
      <trkpt lat="44.22128" lon="5.5729">
        <ele>761</ele>
        <time>2019-05-24T12:42:36Z</time>
      </trkpt>
      <trkpt lat="44.22129" lon="5.57302">
        <ele>761</ele>
        <time>2019-05-24T12:42:37Z</time>
      </trkpt>
      <trkpt lat="44.22129" lon="5.57313">
        <ele>761</ele>
        <time>2019-05-24T12:42:38Z</time>
      </trkpt>
      <trkpt lat="44.22129" lon="5.57324">
        <ele>761</ele>
        <time>2019-05-24T12:42:39Z</time>
      </trkpt>
      <trkpt lat="44.22129" lon="5.57336">
        <ele>761</ele>
        <time>2019-05-24T12:42:40Z</time>
      </trkpt>
      <trkpt lat="44.2213" lon="5.57347">
        <ele>761</ele>
        <time>2019-05-24T12:42:41Z</time>
      </trkpt>
      <trkpt lat="44.22131" lon="5.57359">
        <ele>761</ele>
        <time>2019-05-24T12:42:42Z</time>
      </trkpt>
      <trkpt lat="44.22131" lon="5.5737">
        <ele>761</ele>
        <time>2019-05-24T12:42:43Z</time>
      </trkpt>
      <trkpt lat="44.22131" lon="5.57382">
        <ele>761</ele>
        <time>2019-05-24T12:42:44Z</time>
      </trkpt>
      <trkpt lat="44.22131" lon="5.57394">
        <ele>761</ele>
        <time>2019-05-24T12:42:45Z</time>
      </trkpt>
      <trkpt lat="44.22131" lon="5.57406">
        <ele>761</ele>
        <time>2019-05-24T12:42:46Z</time>
      </trkpt>
      <trkpt lat="44.22131" lon="5.57418">
        <ele>761</ele>
        <time>2019-05-24T12:42:47Z</time>
      </trkpt>
      <trkpt lat="44.22132" lon="5.57429">
        <ele>761</ele>
        <time>2019-05-24T12:42:48Z</time>
      </trkpt>
      <trkpt lat="44.22132" lon="5.57441">
        <ele>761</ele>
        <time>2019-05-24T12:42:49Z</time>
      </trkpt>
      <trkpt lat="44.22133" lon="5.57452">
        <ele>761</ele>
        <time>2019-05-24T12:42:50Z</time>
      </trkpt>
      <trkpt lat="44.22133" lon="5.57464">
        <ele>761</ele>
        <time>2019-05-24T12:42:51Z</time>
      </trkpt>
      <trkpt lat="44.22133" lon="5.57475">
        <ele>761</ele>
        <time>2019-05-24T12:42:52Z</time>
      </trkpt>
      <trkpt lat="44.22134" lon="5.57486">
        <ele>761</ele>
        <time>2019-05-24T12:42:53Z</time>
      </trkpt>
      <trkpt lat="44.22134" lon="5.57498">
        <ele>761</ele>
        <time>2019-05-24T12:42:54Z</time>
      </trkpt>
      <trkpt lat="44.22134" lon="5.57509">
        <ele>761</ele>
        <time>2019-05-24T12:42:55Z</time>
      </trkpt>
      <trkpt lat="44.22134" lon="5.5752">
        <ele>761</ele>
        <time>2019-05-24T12:42:56Z</time>
      </trkpt>
      <trkpt lat="44.22135" lon="5.57531">
        <ele>760</ele>
        <time>2019-05-24T12:42:57Z</time>
      </trkpt>
      <trkpt lat="44.22135" lon="5.57543">
        <ele>760</ele>
        <time>2019-05-24T12:42:58Z</time>
      </trkpt>
      <trkpt lat="44.22136" lon="5.57555">
        <ele>760</ele>
        <time>2019-05-24T12:42:59Z</time>
      </trkpt>
      <trkpt lat="44.22136" lon="5.57566">
        <ele>760</ele>
        <time>2019-05-24T12:43:00Z</time>
      </trkpt>
      <trkpt lat="44.22136" lon="5.57578">
        <ele>760</ele>
        <time>2019-05-24T12:43:01Z</time>
      </trkpt>
      <trkpt lat="44.22136" lon="5.57589">
        <ele>760</ele>
        <time>2019-05-24T12:43:02Z</time>
      </trkpt>
      <trkpt lat="44.22137" lon="5.576">
        <ele>760</ele>
        <time>2019-05-24T12:43:03Z</time>
      </trkpt>
      <trkpt lat="44.22137" lon="5.57612">
        <ele>760</ele>
        <time>2019-05-24T12:43:04Z</time>
      </trkpt>
      <trkpt lat="44.22137" lon="5.57623">
        <ele>760</ele>
        <time>2019-05-24T12:43:05Z</time>
      </trkpt>
      <trkpt lat="44.22138" lon="5.57634">
        <ele>760</ele>
        <time>2019-05-24T12:43:06Z</time>
      </trkpt>
      <trkpt lat="44.22138" lon="5.57646">
        <ele>760</ele>
        <time>2019-05-24T12:43:07Z</time>
      </trkpt>
      <trkpt lat="44.22139" lon="5.57657">
        <ele>760</ele>
        <time>2019-05-24T12:43:08Z</time>
      </trkpt>
      <trkpt lat="44.22139" lon="5.57668">
        <ele>760</ele>
        <time>2019-05-24T12:43:09Z</time>
      </trkpt>
      <trkpt lat="44.2214" lon="5.5768">
        <ele>760</ele>
        <time>2019-05-24T12:43:10Z</time>
      </trkpt>
      <trkpt lat="44.2214" lon="5.57691">
        <ele>760</ele>
        <time>2019-05-24T12:43:11Z</time>
      </trkpt>
      <trkpt lat="44.22141" lon="5.57702">
        <ele>760</ele>
        <time>2019-05-24T12:43:12Z</time>
      </trkpt>
      <trkpt lat="44.22141" lon="5.57714">
        <ele>760</ele>
        <time>2019-05-24T12:43:13Z</time>
      </trkpt>
      <trkpt lat="44.22142" lon="5.57725">
        <ele>760</ele>
        <time>2019-05-24T12:43:14Z</time>
      </trkpt>
      <trkpt lat="44.22143" lon="5.57737">
        <ele>760</ele>
        <time>2019-05-24T12:43:15Z</time>
      </trkpt>
      <trkpt lat="44.22143" lon="5.57748">
        <ele>760</ele>
        <time>2019-05-24T12:43:16Z</time>
      </trkpt>
      <trkpt lat="44.22144" lon="5.5776">
        <ele>759</ele>
        <time>2019-05-24T12:43:17Z</time>
      </trkpt>
      <trkpt lat="44.22144" lon="5.57772">
        <ele>759</ele>
        <time>2019-05-24T12:43:18Z</time>
      </trkpt>
      <trkpt lat="44.22144" lon="5.57784">
        <ele>759</ele>
        <time>2019-05-24T12:43:19Z</time>
      </trkpt>
      <trkpt lat="44.22144" lon="5.57795">
        <ele>759</ele>
        <time>2019-05-24T12:43:20Z</time>
      </trkpt>
      <trkpt lat="44.22144" lon="5.57807">
        <ele>759</ele>
        <time>2019-05-24T12:43:21Z</time>
      </trkpt>
      <trkpt lat="44.22143" lon="5.5782">
        <ele>759</ele>
        <time>2019-05-24T12:43:22Z</time>
      </trkpt>
      <trkpt lat="44.22142" lon="5.57831">
        <ele>758</ele>
        <time>2019-05-24T12:43:23Z</time>
      </trkpt>
      <trkpt lat="44.22142" lon="5.57843">
        <ele>758</ele>
        <time>2019-05-24T12:43:24Z</time>
      </trkpt>
      <trkpt lat="44.2214" lon="5.57855">
        <ele>758</ele>
        <time>2019-05-24T12:43:25Z</time>
      </trkpt>
      <trkpt lat="44.22139" lon="5.57867">
        <ele>758</ele>
        <time>2019-05-24T12:43:26Z</time>
      </trkpt>
      <trkpt lat="44.22138" lon="5.57878">
        <ele>758</ele>
        <time>2019-05-24T12:43:27Z</time>
      </trkpt>
      <trkpt lat="44.22137" lon="5.5789">
        <ele>757</ele>
        <time>2019-05-24T12:43:28Z</time>
      </trkpt>
      <trkpt lat="44.22136" lon="5.57902">
        <ele>757</ele>
        <time>2019-05-24T12:43:29Z</time>
      </trkpt>
      <trkpt lat="44.22135" lon="5.57913">
        <ele>757</ele>
        <time>2019-05-24T12:43:30Z</time>
      </trkpt>
      <trkpt lat="44.22134" lon="5.57925">
        <ele>757</ele>
        <time>2019-05-24T12:43:31Z</time>
      </trkpt>
      <trkpt lat="44.22132" lon="5.57936">
        <ele>757</ele>
        <time>2019-05-24T12:43:32Z</time>
      </trkpt>
      <trkpt lat="44.22131" lon="5.57948">
        <ele>757</ele>
        <time>2019-05-24T12:43:33Z</time>
      </trkpt>
      <trkpt lat="44.2213" lon="5.5796">
        <ele>757</ele>
        <time>2019-05-24T12:43:34Z</time>
      </trkpt>
      <trkpt lat="44.22129" lon="5.57971">
        <ele>757</ele>
        <time>2019-05-24T12:43:35Z</time>
      </trkpt>
      <trkpt lat="44.22128" lon="5.57981">
        <ele>757</ele>
        <time>2019-05-24T12:43:36Z</time>
      </trkpt>
      <trkpt lat="44.22126" lon="5.57992">
        <ele>757</ele>
        <time>2019-05-24T12:43:37Z</time>
      </trkpt>
      <trkpt lat="44.22125" lon="5.58004">
        <ele>757</ele>
        <time>2019-05-24T12:43:38Z</time>
      </trkpt>
      <trkpt lat="44.22124" lon="5.58015">
        <ele>757</ele>
        <time>2019-05-24T12:43:39Z</time>
      </trkpt>
      <trkpt lat="44.22123" lon="5.58026">
        <ele>757</ele>
        <time>2019-05-24T12:43:40Z</time>
      </trkpt>
      <trkpt lat="44.22121" lon="5.58038">
        <ele>757</ele>
        <time>2019-05-24T12:43:41Z</time>
      </trkpt>
      <trkpt lat="44.2212" lon="5.58049">
        <ele>757</ele>
        <time>2019-05-24T12:43:42Z</time>
      </trkpt>
      <trkpt lat="44.22119" lon="5.5806">
        <ele>757</ele>
        <time>2019-05-24T12:43:43Z</time>
      </trkpt>
      <trkpt lat="44.22118" lon="5.58071">
        <ele>757</ele>
        <time>2019-05-24T12:43:44Z</time>
      </trkpt>
      <trkpt lat="44.22116" lon="5.58082">
        <ele>757</ele>
        <time>2019-05-24T12:43:45Z</time>
      </trkpt>
      <trkpt lat="44.22115" lon="5.58093">
        <ele>757</ele>
        <time>2019-05-24T12:43:46Z</time>
      </trkpt>
      <trkpt lat="44.22114" lon="5.58103">
        <ele>757</ele>
        <time>2019-05-24T12:43:47Z</time>
      </trkpt>
      <trkpt lat="44.22113" lon="5.58113">
        <ele>757</ele>
        <time>2019-05-24T12:43:48Z</time>
      </trkpt>
      <trkpt lat="44.22112" lon="5.58124">
        <ele>757</ele>
        <time>2019-05-24T12:43:49Z</time>
      </trkpt>
      <trkpt lat="44.22111" lon="5.58134">
        <ele>757</ele>
        <time>2019-05-24T12:43:50Z</time>
      </trkpt>
      <trkpt lat="44.2211" lon="5.58145">
        <ele>757</ele>
        <time>2019-05-24T12:43:51Z</time>
      </trkpt>
      <trkpt lat="44.22108" lon="5.58156">
        <ele>757</ele>
        <time>2019-05-24T12:43:52Z</time>
      </trkpt>
      <trkpt lat="44.22107" lon="5.58166">
        <ele>757</ele>
        <time>2019-05-24T12:43:53Z</time>
      </trkpt>
      <trkpt lat="44.22106" lon="5.58177">
        <ele>757</ele>
        <time>2019-05-24T12:43:54Z</time>
      </trkpt>
      <trkpt lat="44.22105" lon="5.58188">
        <ele>757</ele>
        <time>2019-05-24T12:43:55Z</time>
      </trkpt>
      <trkpt lat="44.22104" lon="5.58199">
        <ele>757</ele>
        <time>2019-05-24T12:43:56Z</time>
      </trkpt>
      <trkpt lat="44.22102" lon="5.58209">
        <ele>757</ele>
        <time>2019-05-24T12:43:57Z</time>
      </trkpt>
      <trkpt lat="44.22101" lon="5.5822">
        <ele>757</ele>
        <time>2019-05-24T12:43:58Z</time>
      </trkpt>
      <trkpt lat="44.221" lon="5.5823">
        <ele>757</ele>
        <time>2019-05-24T12:43:59Z</time>
      </trkpt>
      <trkpt lat="44.22099" lon="5.58241">
        <ele>757</ele>
        <time>2019-05-24T12:44:00Z</time>
      </trkpt>
      <trkpt lat="44.22099" lon="5.58251">
        <ele>757</ele>
        <time>2019-05-24T12:44:01Z</time>
      </trkpt>
      <trkpt lat="44.22098" lon="5.58262">
        <ele>757</ele>
        <time>2019-05-24T12:44:02Z</time>
      </trkpt>
      <trkpt lat="44.22098" lon="5.58272">
        <ele>757</ele>
        <time>2019-05-24T12:44:03Z</time>
      </trkpt>
      <trkpt lat="44.22098" lon="5.58282">
        <ele>757</ele>
        <time>2019-05-24T12:44:04Z</time>
      </trkpt>
      <trkpt lat="44.22098" lon="5.58292">
        <ele>757</ele>
        <time>2019-05-24T12:44:05Z</time>
      </trkpt>
      <trkpt lat="44.22098" lon="5.58302">
        <ele>757</ele>
        <time>2019-05-24T12:44:06Z</time>
      </trkpt>
      <trkpt lat="44.22098" lon="5.58313">
        <ele>757</ele>
        <time>2019-05-24T12:44:07Z</time>
      </trkpt>
      <trkpt lat="44.22098" lon="5.58323">
        <ele>757</ele>
        <time>2019-05-24T12:44:08Z</time>
      </trkpt>
      <trkpt lat="44.22098" lon="5.58333">
        <ele>757</ele>
        <time>2019-05-24T12:44:09Z</time>
      </trkpt>
      <trkpt lat="44.22098" lon="5.58344">
        <ele>757</ele>
        <time>2019-05-24T12:44:10Z</time>
      </trkpt>
      <trkpt lat="44.22098" lon="5.58354">
        <ele>757</ele>
        <time>2019-05-24T12:44:11Z</time>
      </trkpt>
      <trkpt lat="44.22099" lon="5.58364">
        <ele>757</ele>
        <time>2019-05-24T12:44:12Z</time>
      </trkpt>
      <trkpt lat="44.22099" lon="5.58375">
        <ele>757</ele>
        <time>2019-05-24T12:44:13Z</time>
      </trkpt>
      <trkpt lat="44.22099" lon="5.58386">
        <ele>757</ele>
        <time>2019-05-24T12:44:14Z</time>
      </trkpt>
      <trkpt lat="44.221" lon="5.58397">
        <ele>757</ele>
        <time>2019-05-24T12:44:15Z</time>
      </trkpt>
      <trkpt lat="44.221" lon="5.58408">
        <ele>757</ele>
        <time>2019-05-24T12:44:16Z</time>
      </trkpt>
      <trkpt lat="44.221" lon="5.5842">
        <ele>757</ele>
        <time>2019-05-24T12:44:17Z</time>
      </trkpt>
      <trkpt lat="44.221" lon="5.58431">
        <ele>757</ele>
        <time>2019-05-24T12:44:18Z</time>
      </trkpt>
      <trkpt lat="44.22101" lon="5.58442">
        <ele>757</ele>
        <time>2019-05-24T12:44:19Z</time>
      </trkpt>
      <trkpt lat="44.22101" lon="5.58454">
        <ele>757</ele>
        <time>2019-05-24T12:44:20Z</time>
      </trkpt>
      <trkpt lat="44.22101" lon="5.58466">
        <ele>757</ele>
        <time>2019-05-24T12:44:21Z</time>
      </trkpt>
      <trkpt lat="44.22101" lon="5.58478">
        <ele>757</ele>
        <time>2019-05-24T12:44:22Z</time>
      </trkpt>
      <trkpt lat="44.22102" lon="5.5849">
        <ele>757</ele>
        <time>2019-05-24T12:44:23Z</time>
      </trkpt>
      <trkpt lat="44.22102" lon="5.58501">
        <ele>757</ele>
        <time>2019-05-24T12:44:24Z</time>
      </trkpt>
      <trkpt lat="44.22102" lon="5.58513">
        <ele>757</ele>
        <time>2019-05-24T12:44:25Z</time>
      </trkpt>
      <trkpt lat="44.22102" lon="5.58526">
        <ele>757</ele>
        <time>2019-05-24T12:44:26Z</time>
      </trkpt>
      <trkpt lat="44.22103" lon="5.58537">
        <ele>757</ele>
        <time>2019-05-24T12:44:27Z</time>
      </trkpt>
      <trkpt lat="44.22103" lon="5.58549">
        <ele>756</ele>
        <time>2019-05-24T12:44:28Z</time>
      </trkpt>
      <trkpt lat="44.22103" lon="5.58561">
        <ele>756</ele>
        <time>2019-05-24T12:44:29Z</time>
      </trkpt>
      <trkpt lat="44.22103" lon="5.58573">
        <ele>756</ele>
        <time>2019-05-24T12:44:30Z</time>
      </trkpt>
      <trkpt lat="44.22103" lon="5.58586">
        <ele>755</ele>
        <time>2019-05-24T12:44:31Z</time>
      </trkpt>
      <trkpt lat="44.22103" lon="5.58599">
        <ele>755</ele>
        <time>2019-05-24T12:44:32Z</time>
      </trkpt>
      <trkpt lat="44.22104" lon="5.58611">
        <ele>754</ele>
        <time>2019-05-24T12:44:33Z</time>
      </trkpt>
      <trkpt lat="44.22104" lon="5.58624">
        <ele>754</ele>
        <time>2019-05-24T12:44:34Z</time>
      </trkpt>
      <trkpt lat="44.22104" lon="5.58636">
        <ele>754</ele>
        <time>2019-05-24T12:44:35Z</time>
      </trkpt>
      <trkpt lat="44.22104" lon="5.58649">
        <ele>754</ele>
        <time>2019-05-24T12:44:36Z</time>
      </trkpt>
      <trkpt lat="44.22104" lon="5.58662">
        <ele>753</ele>
        <time>2019-05-24T12:44:37Z</time>
      </trkpt>
      <trkpt lat="44.22104" lon="5.58675">
        <ele>753</ele>
        <time>2019-05-24T12:44:38Z</time>
      </trkpt>
      <trkpt lat="44.22104" lon="5.58688">
        <ele>753</ele>
        <time>2019-05-24T12:44:39Z</time>
      </trkpt>
      <trkpt lat="44.22105" lon="5.58701">
        <ele>752</ele>
        <time>2019-05-24T12:44:40Z</time>
      </trkpt>
      <trkpt lat="44.22105" lon="5.58714">
        <ele>752</ele>
        <time>2019-05-24T12:44:41Z</time>
      </trkpt>
      <trkpt lat="44.22105" lon="5.58728">
        <ele>751</ele>
        <time>2019-05-24T12:44:42Z</time>
      </trkpt>
      <trkpt lat="44.22105" lon="5.58741">
        <ele>751</ele>
        <time>2019-05-24T12:44:43Z</time>
      </trkpt>
      <trkpt lat="44.22105" lon="5.58755">
        <ele>751</ele>
        <time>2019-05-24T12:44:44Z</time>
      </trkpt>
      <trkpt lat="44.22105" lon="5.58768">
        <ele>751</ele>
        <time>2019-05-24T12:44:45Z</time>
      </trkpt>
      <trkpt lat="44.22106" lon="5.58781">
        <ele>751</ele>
        <time>2019-05-24T12:44:46Z</time>
      </trkpt>
      <trkpt lat="44.22106" lon="5.58795">
        <ele>750</ele>
        <time>2019-05-24T12:44:47Z</time>
      </trkpt>
      <trkpt lat="44.22106" lon="5.58809">
        <ele>750</ele>
        <time>2019-05-24T12:44:48Z</time>
      </trkpt>
      <trkpt lat="44.22106" lon="5.58823">
        <ele>750</ele>
        <time>2019-05-24T12:44:49Z</time>
      </trkpt>
      <trkpt lat="44.22106" lon="5.58836">
        <ele>750</ele>
        <time>2019-05-24T12:44:50Z</time>
      </trkpt>
      <trkpt lat="44.22106" lon="5.5885">
        <ele>749</ele>
        <time>2019-05-24T12:44:51Z</time>
      </trkpt>
      <trkpt lat="44.22106" lon="5.58864">
        <ele>749</ele>
        <time>2019-05-24T12:44:52Z</time>
      </trkpt>
      <trkpt lat="44.22106" lon="5.58879">
        <ele>749</ele>
        <time>2019-05-24T12:44:53Z</time>
      </trkpt>
      <trkpt lat="44.22106" lon="5.58893">
        <ele>749</ele>
        <time>2019-05-24T12:44:54Z</time>
      </trkpt>
      <trkpt lat="44.22106" lon="5.58907">
        <ele>748</ele>
        <time>2019-05-24T12:44:55Z</time>
      </trkpt>
      <trkpt lat="44.22106" lon="5.58921">
        <ele>748</ele>
        <time>2019-05-24T12:44:56Z</time>
      </trkpt>
      <trkpt lat="44.22105" lon="5.58935">
        <ele>748</ele>
        <time>2019-05-24T12:44:57Z</time>
      </trkpt>
      <trkpt lat="44.22105" lon="5.58949">
        <ele>748</ele>
        <time>2019-05-24T12:44:58Z</time>
      </trkpt>
      <trkpt lat="44.22105" lon="5.58963">
        <ele>747</ele>
        <time>2019-05-24T12:44:59Z</time>
      </trkpt>
      <trkpt lat="44.22104" lon="5.58976">
        <ele>747</ele>
        <time>2019-05-24T12:45:00Z</time>
      </trkpt>
      <trkpt lat="44.22102" lon="5.5899">
        <ele>747</ele>
        <time>2019-05-24T12:45:01Z</time>
      </trkpt>
      <trkpt lat="44.221" lon="5.59004">
        <ele>747</ele>
        <time>2019-05-24T12:45:02Z</time>
      </trkpt>
      <trkpt lat="44.22098" lon="5.59017">
        <ele>746</ele>
        <time>2019-05-24T12:45:03Z</time>
      </trkpt>
      <trkpt lat="44.22096" lon="5.5903">
        <ele>746</ele>
        <time>2019-05-24T12:45:04Z</time>
      </trkpt>
      <trkpt lat="44.22093" lon="5.59044">
        <ele>746</ele>
        <time>2019-05-24T12:45:05Z</time>
      </trkpt>
      <trkpt lat="44.22089" lon="5.59057">
        <ele>746</ele>
        <time>2019-05-24T12:45:06Z</time>
      </trkpt>
      <trkpt lat="44.22087" lon="5.5907">
        <ele>746</ele>
        <time>2019-05-24T12:45:07Z</time>
      </trkpt>
      <trkpt lat="44.22084" lon="5.59083">
        <ele>746</ele>
        <time>2019-05-24T12:45:08Z</time>
      </trkpt>
      <trkpt lat="44.22081" lon="5.59096">
        <ele>746</ele>
        <time>2019-05-24T12:45:09Z</time>
      </trkpt>
      <trkpt lat="44.22079" lon="5.5911">
        <ele>746</ele>
        <time>2019-05-24T12:45:10Z</time>
      </trkpt>
      <trkpt lat="44.22078" lon="5.59123">
        <ele>746</ele>
        <time>2019-05-24T12:45:11Z</time>
      </trkpt>
      <trkpt lat="44.22076" lon="5.59137">
        <ele>746</ele>
        <time>2019-05-24T12:45:12Z</time>
      </trkpt>
      <trkpt lat="44.22076" lon="5.59151">
        <ele>745</ele>
        <time>2019-05-24T12:45:13Z</time>
      </trkpt>
      <trkpt lat="44.22076" lon="5.59165">
        <ele>745</ele>
        <time>2019-05-24T12:45:14Z</time>
      </trkpt>
      <trkpt lat="44.22076" lon="5.59179">
        <ele>745</ele>
        <time>2019-05-24T12:45:15Z</time>
      </trkpt>
      <trkpt lat="44.22077" lon="5.59193">
        <ele>745</ele>
        <time>2019-05-24T12:45:16Z</time>
      </trkpt>
      <trkpt lat="44.22078" lon="5.59206">
        <ele>744</ele>
        <time>2019-05-24T12:45:17Z</time>
      </trkpt>
      <trkpt lat="44.2208" lon="5.5922">
        <ele>744</ele>
        <time>2019-05-24T12:45:18Z</time>
      </trkpt>
      <trkpt lat="44.22081" lon="5.59234">
        <ele>743</ele>
        <time>2019-05-24T12:45:19Z</time>
      </trkpt>
      <trkpt lat="44.22084" lon="5.59248">
        <ele>743</ele>
        <time>2019-05-24T12:45:20Z</time>
      </trkpt>
      <trkpt lat="44.22086" lon="5.59262">
        <ele>743</ele>
        <time>2019-05-24T12:45:21Z</time>
      </trkpt>
      <trkpt lat="44.22089" lon="5.59275">
        <ele>743</ele>
        <time>2019-05-24T12:45:22Z</time>
      </trkpt>
      <trkpt lat="44.22091" lon="5.59289">
        <ele>742</ele>
        <time>2019-05-24T12:45:23Z</time>
      </trkpt>
      <trkpt lat="44.22093" lon="5.59303">
        <ele>742</ele>
        <time>2019-05-24T12:45:24Z</time>
      </trkpt>
      <trkpt lat="44.22095" lon="5.59316">
        <ele>742</ele>
        <time>2019-05-24T12:45:25Z</time>
      </trkpt>
      <trkpt lat="44.22098" lon="5.5933">
        <ele>742</ele>
        <time>2019-05-24T12:45:26Z</time>
      </trkpt>
      <trkpt lat="44.221" lon="5.59343">
        <ele>742</ele>
        <time>2019-05-24T12:45:27Z</time>
      </trkpt>
      <trkpt lat="44.22102" lon="5.59355">
        <ele>742</ele>
        <time>2019-05-24T12:45:28Z</time>
      </trkpt>
      <trkpt lat="44.22104" lon="5.59368">
        <ele>742</ele>
        <time>2019-05-24T12:45:29Z</time>
      </trkpt>
      <trkpt lat="44.22106" lon="5.5938">
        <ele>742</ele>
        <time>2019-05-24T12:45:30Z</time>
      </trkpt>
      <trkpt lat="44.22108" lon="5.59392">
        <ele>742</ele>
        <time>2019-05-24T12:45:31Z</time>
      </trkpt>
      <trkpt lat="44.2211" lon="5.59404">
        <ele>742</ele>
        <time>2019-05-24T12:45:32Z</time>
      </trkpt>
      <trkpt lat="44.22112" lon="5.59416">
        <ele>742</ele>
        <time>2019-05-24T12:45:33Z</time>
      </trkpt>
      <trkpt lat="44.22114" lon="5.59428">
        <ele>742</ele>
        <time>2019-05-24T12:45:34Z</time>
      </trkpt>
      <trkpt lat="44.22116" lon="5.5944">
        <ele>742</ele>
        <time>2019-05-24T12:45:35Z</time>
      </trkpt>
      <trkpt lat="44.22118" lon="5.59452">
        <ele>742</ele>
        <time>2019-05-24T12:45:36Z</time>
      </trkpt>
      <trkpt lat="44.22121" lon="5.59464">
        <ele>742</ele>
        <time>2019-05-24T12:45:37Z</time>
      </trkpt>
      <trkpt lat="44.22123" lon="5.59476">
        <ele>742</ele>
        <time>2019-05-24T12:45:38Z</time>
      </trkpt>
      <trkpt lat="44.22125" lon="5.59489">
        <ele>742</ele>
        <time>2019-05-24T12:45:39Z</time>
      </trkpt>
      <trkpt lat="44.22127" lon="5.59502">
        <ele>742</ele>
        <time>2019-05-24T12:45:40Z</time>
      </trkpt>
      <trkpt lat="44.22129" lon="5.59514">
        <ele>742</ele>
        <time>2019-05-24T12:45:41Z</time>
      </trkpt>
      <trkpt lat="44.22131" lon="5.59527">
        <ele>742</ele>
        <time>2019-05-24T12:45:42Z</time>
      </trkpt>
      <trkpt lat="44.22134" lon="5.5954">
        <ele>742</ele>
        <time>2019-05-24T12:45:43Z</time>
      </trkpt>
      <trkpt lat="44.22136" lon="5.59553">
        <ele>741</ele>
        <time>2019-05-24T12:45:44Z</time>
      </trkpt>
      <trkpt lat="44.22138" lon="5.59565">
        <ele>741</ele>
        <time>2019-05-24T12:45:45Z</time>
      </trkpt>
      <trkpt lat="44.2214" lon="5.59578">
        <ele>741</ele>
        <time>2019-05-24T12:45:46Z</time>
      </trkpt>
      <trkpt lat="44.22142" lon="5.5959">
        <ele>741</ele>
        <time>2019-05-24T12:45:47Z</time>
      </trkpt>
      <trkpt lat="44.22144" lon="5.59602">
        <ele>740</ele>
        <time>2019-05-24T12:45:48Z</time>
      </trkpt>
      <trkpt lat="44.22146" lon="5.59615">
        <ele>740</ele>
        <time>2019-05-24T12:45:49Z</time>
      </trkpt>
      <trkpt lat="44.22148" lon="5.59627">
        <ele>740</ele>
        <time>2019-05-24T12:45:50Z</time>
      </trkpt>
      <trkpt lat="44.22149" lon="5.59641">
        <ele>740</ele>
        <time>2019-05-24T12:45:51Z</time>
      </trkpt>
      <trkpt lat="44.22149" lon="5.59653">
        <ele>740</ele>
        <time>2019-05-24T12:45:52Z</time>
      </trkpt>
      <trkpt lat="44.22149" lon="5.59666">
        <ele>740</ele>
        <time>2019-05-24T12:45:53Z</time>
      </trkpt>
      <trkpt lat="44.22147" lon="5.59679">
        <ele>739</ele>
        <time>2019-05-24T12:45:54Z</time>
      </trkpt>
      <trkpt lat="44.22145" lon="5.59692">
        <ele>739</ele>
        <time>2019-05-24T12:45:55Z</time>
      </trkpt>
      <trkpt lat="44.22143" lon="5.59704">
        <ele>739</ele>
        <time>2019-05-24T12:45:56Z</time>
      </trkpt>
      <trkpt lat="44.22141" lon="5.59717">
        <ele>739</ele>
        <time>2019-05-24T12:45:57Z</time>
      </trkpt>
      <trkpt lat="44.22139" lon="5.5973">
        <ele>738</ele>
        <time>2019-05-24T12:45:58Z</time>
      </trkpt>
      <trkpt lat="44.22137" lon="5.59743">
        <ele>738</ele>
        <time>2019-05-24T12:45:59Z</time>
      </trkpt>
      <trkpt lat="44.22135" lon="5.59756">
        <ele>738</ele>
        <time>2019-05-24T12:46:00Z</time>
      </trkpt>
      <trkpt lat="44.22134" lon="5.59769">
        <ele>738</ele>
        <time>2019-05-24T12:46:01Z</time>
      </trkpt>
      <trkpt lat="44.22133" lon="5.59782">
        <ele>738</ele>
        <time>2019-05-24T12:46:02Z</time>
      </trkpt>
      <trkpt lat="44.22132" lon="5.59795">
        <ele>738</ele>
        <time>2019-05-24T12:46:03Z</time>
      </trkpt>
      <trkpt lat="44.22132" lon="5.59807">
        <ele>738</ele>
        <time>2019-05-24T12:46:04Z</time>
      </trkpt>
      <trkpt lat="44.22132" lon="5.5982">
        <ele>738</ele>
        <time>2019-05-24T12:46:05Z</time>
      </trkpt>
      <trkpt lat="44.22132" lon="5.59833">
        <ele>738</ele>
        <time>2019-05-24T12:46:06Z</time>
      </trkpt>
      <trkpt lat="44.22132" lon="5.59845">
        <ele>738</ele>
        <time>2019-05-24T12:46:07Z</time>
      </trkpt>
      <trkpt lat="44.22133" lon="5.59858">
        <ele>738</ele>
        <time>2019-05-24T12:46:08Z</time>
      </trkpt>
      <trkpt lat="44.22134" lon="5.5987">
        <ele>738</ele>
        <time>2019-05-24T12:46:09Z</time>
      </trkpt>
      <trkpt lat="44.22134" lon="5.59883">
        <ele>738</ele>
        <time>2019-05-24T12:46:10Z</time>
      </trkpt>
      <trkpt lat="44.22135" lon="5.59896">
        <ele>738</ele>
        <time>2019-05-24T12:46:11Z</time>
      </trkpt>
      <trkpt lat="44.22136" lon="5.59908">
        <ele>738</ele>
        <time>2019-05-24T12:46:12Z</time>
      </trkpt>
      <trkpt lat="44.22136" lon="5.5992">
        <ele>738</ele>
        <time>2019-05-24T12:46:13Z</time>
      </trkpt>
      <trkpt lat="44.22137" lon="5.59933">
        <ele>738</ele>
        <time>2019-05-24T12:46:14Z</time>
      </trkpt>
      <trkpt lat="44.22137" lon="5.59944">
        <ele>738</ele>
        <time>2019-05-24T12:46:15Z</time>
      </trkpt>
      <trkpt lat="44.22137" lon="5.59957">
        <ele>738</ele>
        <time>2019-05-24T12:46:16Z</time>
      </trkpt>
      <trkpt lat="44.22137" lon="5.59968">
        <ele>738</ele>
        <time>2019-05-24T12:46:17Z</time>
      </trkpt>
      <trkpt lat="44.22137" lon="5.5998">
        <ele>738</ele>
        <time>2019-05-24T12:46:18Z</time>
      </trkpt>
      <trkpt lat="44.22137" lon="5.59992">
        <ele>738</ele>
        <time>2019-05-24T12:46:19Z</time>
      </trkpt>
      <trkpt lat="44.22137" lon="5.60004">
        <ele>738</ele>
        <time>2019-05-24T12:46:20Z</time>
      </trkpt>
      <trkpt lat="44.22137" lon="5.60016">
        <ele>738</ele>
        <time>2019-05-24T12:46:21Z</time>
      </trkpt>
      <trkpt lat="44.22136" lon="5.60028">
        <ele>738</ele>
        <time>2019-05-24T12:46:22Z</time>
      </trkpt>
      <trkpt lat="44.22136" lon="5.6004">
        <ele>738</ele>
        <time>2019-05-24T12:46:23Z</time>
      </trkpt>
      <trkpt lat="44.22136" lon="5.60052">
        <ele>738</ele>
        <time>2019-05-24T12:46:24Z</time>
      </trkpt>
      <trkpt lat="44.22136" lon="5.60064">
        <ele>738</ele>
        <time>2019-05-24T12:46:25Z</time>
      </trkpt>
      <trkpt lat="44.22136" lon="5.60076">
        <ele>738</ele>
        <time>2019-05-24T12:46:26Z</time>
      </trkpt>
      <trkpt lat="44.22135" lon="5.60089">
        <ele>738</ele>
        <time>2019-05-24T12:46:27Z</time>
      </trkpt>
      <trkpt lat="44.22134" lon="5.60101">
        <ele>738</ele>
        <time>2019-05-24T12:46:28Z</time>
      </trkpt>
      <trkpt lat="44.22134" lon="5.60113">
        <ele>738</ele>
        <time>2019-05-24T12:46:29Z</time>
      </trkpt>
      <trkpt lat="44.22134" lon="5.60125">
        <ele>738</ele>
        <time>2019-05-24T12:46:30Z</time>
      </trkpt>
      <trkpt lat="44.22133" lon="5.60137">
        <ele>738</ele>
        <time>2019-05-24T12:46:31Z</time>
      </trkpt>
      <trkpt lat="44.22133" lon="5.6015">
        <ele>738</ele>
        <time>2019-05-24T12:46:32Z</time>
      </trkpt>
      <trkpt lat="44.22132" lon="5.60163">
        <ele>738</ele>
        <time>2019-05-24T12:46:33Z</time>
      </trkpt>
      <trkpt lat="44.22131" lon="5.60176">
        <ele>738</ele>
        <time>2019-05-24T12:46:34Z</time>
      </trkpt>
      <trkpt lat="44.22131" lon="5.60188">
        <ele>738</ele>
        <time>2019-05-24T12:46:35Z</time>
      </trkpt>
      <trkpt lat="44.2213" lon="5.60199">
        <ele>738</ele>
        <time>2019-05-24T12:46:36Z</time>
      </trkpt>
      <trkpt lat="44.22129" lon="5.60211">
        <ele>738</ele>
        <time>2019-05-24T12:46:37Z</time>
      </trkpt>
      <trkpt lat="44.22128" lon="5.60223">
        <ele>738</ele>
        <time>2019-05-24T12:46:38Z</time>
      </trkpt>
      <trkpt lat="44.22127" lon="5.60234">
        <ele>738</ele>
        <time>2019-05-24T12:46:39Z</time>
      </trkpt>
      <trkpt lat="44.22126" lon="5.60246">
        <ele>738</ele>
        <time>2019-05-24T12:46:40Z</time>
      </trkpt>
      <trkpt lat="44.22125" lon="5.60258">
        <ele>738</ele>
        <time>2019-05-24T12:46:41Z</time>
      </trkpt>
      <trkpt lat="44.22123" lon="5.60271">
        <ele>738</ele>
        <time>2019-05-24T12:46:42Z</time>
      </trkpt>
      <trkpt lat="44.22122" lon="5.60282">
        <ele>738</ele>
        <time>2019-05-24T12:46:43Z</time>
      </trkpt>
      <trkpt lat="44.22121" lon="5.60294">
        <ele>738</ele>
        <time>2019-05-24T12:46:44Z</time>
      </trkpt>
      <trkpt lat="44.2212" lon="5.60307">
        <ele>738</ele>
        <time>2019-05-24T12:46:45Z</time>
      </trkpt>
      <trkpt lat="44.22118" lon="5.60319">
        <ele>738</ele>
        <time>2019-05-24T12:46:46Z</time>
      </trkpt>
      <trkpt lat="44.22117" lon="5.6033">
        <ele>738</ele>
        <time>2019-05-24T12:46:47Z</time>
      </trkpt>
      <trkpt lat="44.22117" lon="5.60342">
        <ele>738</ele>
        <time>2019-05-24T12:46:48Z</time>
      </trkpt>
      <trkpt lat="44.22117" lon="5.60354">
        <ele>738</ele>
        <time>2019-05-24T12:46:49Z</time>
      </trkpt>
      <trkpt lat="44.22117" lon="5.60366">
        <ele>738</ele>
        <time>2019-05-24T12:46:50Z</time>
      </trkpt>
      <trkpt lat="44.22118" lon="5.60378">
        <ele>738</ele>
        <time>2019-05-24T12:46:51Z</time>
      </trkpt>
      <trkpt lat="44.2212" lon="5.6039">
        <ele>738</ele>
        <time>2019-05-24T12:46:52Z</time>
      </trkpt>
      <trkpt lat="44.22122" lon="5.60402">
        <ele>738</ele>
        <time>2019-05-24T12:46:53Z</time>
      </trkpt>
      <trkpt lat="44.22124" lon="5.60414">
        <ele>738</ele>
        <time>2019-05-24T12:46:54Z</time>
      </trkpt>
      <trkpt lat="44.22126" lon="5.60426">
        <ele>738</ele>
        <time>2019-05-24T12:46:55Z</time>
      </trkpt>
      <trkpt lat="44.22128" lon="5.60437">
        <ele>738</ele>
        <time>2019-05-24T12:46:56Z</time>
      </trkpt>
      <trkpt lat="44.22131" lon="5.60449">
        <ele>738</ele>
        <time>2019-05-24T12:46:57Z</time>
      </trkpt>
      <trkpt lat="44.22133" lon="5.60462">
        <ele>737</ele>
        <time>2019-05-24T12:46:58Z</time>
      </trkpt>
      <trkpt lat="44.22134" lon="5.60474">
        <ele>737</ele>
        <time>2019-05-24T12:46:59Z</time>
      </trkpt>
      <trkpt lat="44.22136" lon="5.60486">
        <ele>737</ele>
        <time>2019-05-24T12:47:00Z</time>
      </trkpt>
      <trkpt lat="44.22137" lon="5.60499">
        <ele>736</ele>
        <time>2019-05-24T12:47:01Z</time>
      </trkpt>
      <trkpt lat="44.22138" lon="5.60511">
        <ele>736</ele>
        <time>2019-05-24T12:47:02Z</time>
      </trkpt>
      <trkpt lat="44.22138" lon="5.60523">
        <ele>735</ele>
        <time>2019-05-24T12:47:03Z</time>
      </trkpt>
      <trkpt lat="44.22138" lon="5.60535">
        <ele>734</ele>
        <time>2019-05-24T12:47:04Z</time>
      </trkpt>
      <trkpt lat="44.22138" lon="5.60547">
        <ele>734</ele>
        <time>2019-05-24T12:47:05Z</time>
      </trkpt>
      <trkpt lat="44.22137" lon="5.60559">
        <ele>733</ele>
        <time>2019-05-24T12:47:06Z</time>
      </trkpt>
      <trkpt lat="44.22136" lon="5.60572">
        <ele>732</ele>
        <time>2019-05-24T12:47:07Z</time>
      </trkpt>
      <trkpt lat="44.22135" lon="5.60584">
        <ele>732</ele>
        <time>2019-05-24T12:47:08Z</time>
      </trkpt>
      <trkpt lat="44.22134" lon="5.60596">
        <ele>732</ele>
        <time>2019-05-24T12:47:09Z</time>
      </trkpt>
      <trkpt lat="44.22132" lon="5.60607">
        <ele>732</ele>
        <time>2019-05-24T12:47:10Z</time>
      </trkpt>
      <trkpt lat="44.22131" lon="5.60619">
        <ele>732</ele>
        <time>2019-05-24T12:47:11Z</time>
      </trkpt>
      <trkpt lat="44.22129" lon="5.60631">
        <ele>732</ele>
        <time>2019-05-24T12:47:12Z</time>
      </trkpt>
      <trkpt lat="44.22128" lon="5.60642">
        <ele>732</ele>
        <time>2019-05-24T12:47:13Z</time>
      </trkpt>
      <trkpt lat="44.22126" lon="5.60654">
        <ele>732</ele>
        <time>2019-05-24T12:47:14Z</time>
      </trkpt>
      <trkpt lat="44.22124" lon="5.60666">
        <ele>732</ele>
        <time>2019-05-24T12:47:15Z</time>
      </trkpt>
      <trkpt lat="44.22122" lon="5.60677">
        <ele>732</ele>
        <time>2019-05-24T12:47:16Z</time>
      </trkpt>
      <trkpt lat="44.2212" lon="5.60689">
        <ele>732</ele>
        <time>2019-05-24T12:47:17Z</time>
      </trkpt>
      <trkpt lat="44.22118" lon="5.60701">
        <ele>732</ele>
        <time>2019-05-24T12:47:18Z</time>
      </trkpt>
      <trkpt lat="44.22115" lon="5.60712">
        <ele>732</ele>
        <time>2019-05-24T12:47:19Z</time>
      </trkpt>
      <trkpt lat="44.22113" lon="5.60724">
        <ele>732</ele>
        <time>2019-05-24T12:47:20Z</time>
      </trkpt>
      <trkpt lat="44.22111" lon="5.60736">
        <ele>732</ele>
        <time>2019-05-24T12:47:21Z</time>
      </trkpt>
      <trkpt lat="44.22109" lon="5.60748">
        <ele>732</ele>
        <time>2019-05-24T12:47:22Z</time>
      </trkpt>
      <trkpt lat="44.22107" lon="5.60759">
        <ele>732</ele>
        <time>2019-05-24T12:47:23Z</time>
      </trkpt>
      <trkpt lat="44.22106" lon="5.60772">
        <ele>732</ele>
        <time>2019-05-24T12:47:24Z</time>
      </trkpt>
      <trkpt lat="44.22106" lon="5.60783">
        <ele>732</ele>
        <time>2019-05-24T12:47:25Z</time>
      </trkpt>
      <trkpt lat="44.22107" lon="5.60794">
        <ele>732</ele>
        <time>2019-05-24T12:47:26Z</time>
      </trkpt>
      <trkpt lat="44.22109" lon="5.60806">
        <ele>733</ele>
        <time>2019-05-24T12:47:27Z</time>
      </trkpt>
      <trkpt lat="44.2211" lon="5.60817">
        <ele>734</ele>
        <time>2019-05-24T12:47:28Z</time>
      </trkpt>
      <trkpt lat="44.22113" lon="5.60828">
        <ele>735</ele>
        <time>2019-05-24T12:47:29Z</time>
      </trkpt>
      <trkpt lat="44.22116" lon="5.60839">
        <ele>736</ele>
        <time>2019-05-24T12:47:30Z</time>
      </trkpt>
      <trkpt lat="44.22119" lon="5.60849">
        <ele>737</ele>
        <time>2019-05-24T12:47:31Z</time>
      </trkpt>
      <trkpt lat="44.22123" lon="5.60859">
        <ele>738</ele>
        <time>2019-05-24T12:47:32Z</time>
      </trkpt>
      <trkpt lat="44.22126" lon="5.6087">
        <ele>739</ele>
        <time>2019-05-24T12:47:33Z</time>
      </trkpt>
      <trkpt lat="44.22129" lon="5.6088">
        <ele>739</ele>
        <time>2019-05-24T12:47:34Z</time>
      </trkpt>
      <trkpt lat="44.22133" lon="5.6089">
        <ele>739</ele>
        <time>2019-05-24T12:47:35Z</time>
      </trkpt>
      <trkpt lat="44.22136" lon="5.60901">
        <ele>739</ele>
        <time>2019-05-24T12:47:36Z</time>
      </trkpt>
      <trkpt lat="44.22139" lon="5.60911">
        <ele>739</ele>
        <time>2019-05-24T12:47:37Z</time>
      </trkpt>
      <trkpt lat="44.22141" lon="5.60922">
        <ele>739</ele>
        <time>2019-05-24T12:47:38Z</time>
      </trkpt>
      <trkpt lat="44.22144" lon="5.60932">
        <ele>739</ele>
        <time>2019-05-24T12:47:39Z</time>
      </trkpt>
      <trkpt lat="44.22146" lon="5.60943">
        <ele>739</ele>
        <time>2019-05-24T12:47:40Z</time>
      </trkpt>
      <trkpt lat="44.22148" lon="5.60954">
        <ele>739</ele>
        <time>2019-05-24T12:47:41Z</time>
      </trkpt>
      <trkpt lat="44.2215" lon="5.60965">
        <ele>739</ele>
        <time>2019-05-24T12:47:42Z</time>
      </trkpt>
      <trkpt lat="44.22152" lon="5.60976">
        <ele>739</ele>
        <time>2019-05-24T12:47:43Z</time>
      </trkpt>
      <trkpt lat="44.22154" lon="5.60986">
        <ele>739</ele>
        <time>2019-05-24T12:47:44Z</time>
      </trkpt>
      <trkpt lat="44.22156" lon="5.60996">
        <ele>739</ele>
        <time>2019-05-24T12:47:45Z</time>
      </trkpt>
      <trkpt lat="44.22158" lon="5.61007">
        <ele>739</ele>
        <time>2019-05-24T12:47:46Z</time>
      </trkpt>
      <trkpt lat="44.2216" lon="5.61017">
        <ele>739</ele>
        <time>2019-05-24T12:47:47Z</time>
      </trkpt>
      <trkpt lat="44.22161" lon="5.61028">
        <ele>739</ele>
        <time>2019-05-24T12:47:48Z</time>
      </trkpt>
      <trkpt lat="44.22163" lon="5.61038">
        <ele>739</ele>
        <time>2019-05-24T12:47:49Z</time>
      </trkpt>
      <trkpt lat="44.22164" lon="5.61049">
        <ele>739</ele>
        <time>2019-05-24T12:47:50Z</time>
      </trkpt>
      <trkpt lat="44.22166" lon="5.6106">
        <ele>739</ele>
        <time>2019-05-24T12:47:51Z</time>
      </trkpt>
      <trkpt lat="44.22168" lon="5.6107">
        <ele>739</ele>
        <time>2019-05-24T12:47:52Z</time>
      </trkpt>
      <trkpt lat="44.22169" lon="5.6108">
        <ele>739</ele>
        <time>2019-05-24T12:47:53Z</time>
      </trkpt>
      <trkpt lat="44.22171" lon="5.61091">
        <ele>739</ele>
        <time>2019-05-24T12:47:54Z</time>
      </trkpt>
      <trkpt lat="44.22173" lon="5.61101">
        <ele>739</ele>
        <time>2019-05-24T12:47:55Z</time>
      </trkpt>
      <trkpt lat="44.22174" lon="5.61112">
        <ele>739</ele>
        <time>2019-05-24T12:47:56Z</time>
      </trkpt>
      <trkpt lat="44.22176" lon="5.61122">
        <ele>739</ele>
        <time>2019-05-24T12:47:57Z</time>
      </trkpt>
      <trkpt lat="44.22177" lon="5.61133">
        <ele>739</ele>
        <time>2019-05-24T12:47:58Z</time>
      </trkpt>
      <trkpt lat="44.22179" lon="5.61143">
        <ele>739</ele>
        <time>2019-05-24T12:47:59Z</time>
      </trkpt>
      <trkpt lat="44.22181" lon="5.61153">
        <ele>739</ele>
        <time>2019-05-24T12:48:00Z</time>
      </trkpt>
      <trkpt lat="44.22182" lon="5.61164">
        <ele>739</ele>
        <time>2019-05-24T12:48:01Z</time>
      </trkpt>
      <trkpt lat="44.22184" lon="5.61174">
        <ele>739</ele>
        <time>2019-05-24T12:48:02Z</time>
      </trkpt>
      <trkpt lat="44.22186" lon="5.61184">
        <ele>738</ele>
        <time>2019-05-24T12:48:03Z</time>
      </trkpt>
      <trkpt lat="44.22188" lon="5.61195">
        <ele>738</ele>
        <time>2019-05-24T12:48:04Z</time>
      </trkpt>
      <trkpt lat="44.22191" lon="5.61206">
        <ele>738</ele>
        <time>2019-05-24T12:48:05Z</time>
      </trkpt>
      <trkpt lat="44.22193" lon="5.61216">
        <ele>738</ele>
        <time>2019-05-24T12:48:06Z</time>
      </trkpt>
      <trkpt lat="44.22196" lon="5.61227">
        <ele>738</ele>
        <time>2019-05-24T12:48:07Z</time>
      </trkpt>
      <trkpt lat="44.22198" lon="5.61238">
        <ele>737</ele>
        <time>2019-05-24T12:48:08Z</time>
      </trkpt>
      <trkpt lat="44.22201" lon="5.61249">
        <ele>737</ele>
        <time>2019-05-24T12:48:09Z</time>
      </trkpt>
      <trkpt lat="44.22204" lon="5.61261">
        <ele>737</ele>
        <time>2019-05-24T12:48:10Z</time>
      </trkpt>
      <trkpt lat="44.22206" lon="5.61272">
        <ele>737</ele>
        <time>2019-05-24T12:48:11Z</time>
      </trkpt>
      <trkpt lat="44.2221" lon="5.61284">
        <ele>736</ele>
        <time>2019-05-24T12:48:12Z</time>
      </trkpt>
      <trkpt lat="44.22212" lon="5.61295">
        <ele>736</ele>
        <time>2019-05-24T12:48:13Z</time>
      </trkpt>
      <trkpt lat="44.22215" lon="5.61307">
        <ele>736</ele>
        <time>2019-05-24T12:48:14Z</time>
      </trkpt>
      <trkpt lat="44.22218" lon="5.61319">
        <ele>736</ele>
        <time>2019-05-24T12:48:15Z</time>
      </trkpt>
      <trkpt lat="44.22221" lon="5.61331">
        <ele>735</ele>
        <time>2019-05-24T12:48:16Z</time>
      </trkpt>
      <trkpt lat="44.22224" lon="5.61343">
        <ele>735</ele>
        <time>2019-05-24T12:48:17Z</time>
      </trkpt>
      <trkpt lat="44.22227" lon="5.61355">
        <ele>735</ele>
        <time>2019-05-24T12:48:18Z</time>
      </trkpt>
      <trkpt lat="44.2223" lon="5.61368">
        <ele>735</ele>
        <time>2019-05-24T12:48:19Z</time>
      </trkpt>
      <trkpt lat="44.22233" lon="5.6138">
        <ele>734</ele>
        <time>2019-05-24T12:48:20Z</time>
      </trkpt>
      <trkpt lat="44.22235" lon="5.61392">
        <ele>734</ele>
        <time>2019-05-24T12:48:21Z</time>
      </trkpt>
      <trkpt lat="44.22239" lon="5.61404">
        <ele>734</ele>
        <time>2019-05-24T12:48:22Z</time>
      </trkpt>
      <trkpt lat="44.22242" lon="5.61415">
        <ele>734</ele>
        <time>2019-05-24T12:48:23Z</time>
      </trkpt>
      <trkpt lat="44.22244" lon="5.61427">
        <ele>734</ele>
        <time>2019-05-24T12:48:24Z</time>
      </trkpt>
      <trkpt lat="44.22247" lon="5.61439">
        <ele>734</ele>
        <time>2019-05-24T12:48:25Z</time>
      </trkpt>
      <trkpt lat="44.22249" lon="5.6145">
        <ele>734</ele>
        <time>2019-05-24T12:48:26Z</time>
      </trkpt>
      <trkpt lat="44.22252" lon="5.61462">
        <ele>734</ele>
        <time>2019-05-24T12:48:27Z</time>
      </trkpt>
      <trkpt lat="44.22255" lon="5.61473">
        <ele>734</ele>
        <time>2019-05-24T12:48:28Z</time>
      </trkpt>
      <trkpt lat="44.22258" lon="5.61484">
        <ele>734</ele>
        <time>2019-05-24T12:48:29Z</time>
      </trkpt>
      <trkpt lat="44.22261" lon="5.61495">
        <ele>734</ele>
        <time>2019-05-24T12:48:30Z</time>
      </trkpt>
      <trkpt lat="44.22263" lon="5.61505">
        <ele>734</ele>
        <time>2019-05-24T12:48:31Z</time>
      </trkpt>
      <trkpt lat="44.22266" lon="5.61516">
        <ele>734</ele>
        <time>2019-05-24T12:48:32Z</time>
      </trkpt>
      <trkpt lat="44.22269" lon="5.61526">
        <ele>734</ele>
        <time>2019-05-24T12:48:33Z</time>
      </trkpt>
      <trkpt lat="44.22272" lon="5.61536">
        <ele>734</ele>
        <time>2019-05-24T12:48:34Z</time>
      </trkpt>
      <trkpt lat="44.22276" lon="5.61546">
        <ele>734</ele>
        <time>2019-05-24T12:48:35Z</time>
      </trkpt>
      <trkpt lat="44.22279" lon="5.61556">
        <ele>733</ele>
        <time>2019-05-24T12:48:36Z</time>
      </trkpt>
      <trkpt lat="44.22283" lon="5.61566">
        <ele>733</ele>
        <time>2019-05-24T12:48:37Z</time>
      </trkpt>
      <trkpt lat="44.22287" lon="5.61576">
        <ele>733</ele>
        <time>2019-05-24T12:48:38Z</time>
      </trkpt>
      <trkpt lat="44.22292" lon="5.61586">
        <ele>733</ele>
        <time>2019-05-24T12:48:39Z</time>
      </trkpt>
      <trkpt lat="44.22296" lon="5.61596">
        <ele>733</ele>
        <time>2019-05-24T12:48:40Z</time>
      </trkpt>
      <trkpt lat="44.223" lon="5.61607">
        <ele>733</ele>
        <time>2019-05-24T12:48:41Z</time>
      </trkpt>
      <trkpt lat="44.22305" lon="5.61617">
        <ele>733</ele>
        <time>2019-05-24T12:48:42Z</time>
      </trkpt>
      <trkpt lat="44.22308" lon="5.61627">
        <ele>732</ele>
        <time>2019-05-24T12:48:43Z</time>
      </trkpt>
      <trkpt lat="44.22313" lon="5.61638">
        <ele>732</ele>
        <time>2019-05-24T12:48:44Z</time>
      </trkpt>
      <trkpt lat="44.22317" lon="5.61649">
        <ele>732</ele>
        <time>2019-05-24T12:48:45Z</time>
      </trkpt>
      <trkpt lat="44.22322" lon="5.6166">
        <ele>732</ele>
        <time>2019-05-24T12:48:46Z</time>
      </trkpt>
      <trkpt lat="44.22327" lon="5.6167">
        <ele>731</ele>
        <time>2019-05-24T12:48:47Z</time>
      </trkpt>
      <trkpt lat="44.22332" lon="5.61681">
        <ele>731</ele>
        <time>2019-05-24T12:48:48Z</time>
      </trkpt>
      <trkpt lat="44.22337" lon="5.61692">
        <ele>731</ele>
        <time>2019-05-24T12:48:49Z</time>
      </trkpt>
      <trkpt lat="44.22341" lon="5.61703">
        <ele>730</ele>
        <time>2019-05-24T12:48:50Z</time>
      </trkpt>
      <trkpt lat="44.22346" lon="5.61714">
        <ele>730</ele>
        <time>2019-05-24T12:48:51Z</time>
      </trkpt>
      <trkpt lat="44.2235" lon="5.61725">
        <ele>730</ele>
        <time>2019-05-24T12:48:52Z</time>
      </trkpt>
      <trkpt lat="44.22355" lon="5.61736">
        <ele>729</ele>
        <time>2019-05-24T12:48:53Z</time>
      </trkpt>
      <trkpt lat="44.22359" lon="5.61747">
        <ele>729</ele>
        <time>2019-05-24T12:48:54Z</time>
      </trkpt>
      <trkpt lat="44.22364" lon="5.61758">
        <ele>729</ele>
        <time>2019-05-24T12:48:55Z</time>
      </trkpt>
      <trkpt lat="44.22368" lon="5.61769">
        <ele>729</ele>
        <time>2019-05-24T12:48:56Z</time>
      </trkpt>
      <trkpt lat="44.22372" lon="5.61781">
        <ele>728</ele>
        <time>2019-05-24T12:48:57Z</time>
      </trkpt>
      <trkpt lat="44.22376" lon="5.61792">
        <ele>728</ele>
        <time>2019-05-24T12:48:58Z</time>
      </trkpt>
      <trkpt lat="44.2238" lon="5.61804">
        <ele>727</ele>
        <time>2019-05-24T12:48:59Z</time>
      </trkpt>
      <trkpt lat="44.22384" lon="5.61816">
        <ele>727</ele>
        <time>2019-05-24T12:49:00Z</time>
      </trkpt>
      <trkpt lat="44.22387" lon="5.61828">
        <ele>727</ele>
        <time>2019-05-24T12:49:01Z</time>
      </trkpt>
      <trkpt lat="44.22391" lon="5.6184">
        <ele>726</ele>
        <time>2019-05-24T12:49:02Z</time>
      </trkpt>
      <trkpt lat="44.22393" lon="5.61853">
        <ele>726</ele>
        <time>2019-05-24T12:49:03Z</time>
      </trkpt>
      <trkpt lat="44.22396" lon="5.61865">
        <ele>726</ele>
        <time>2019-05-24T12:49:04Z</time>
      </trkpt>
      <trkpt lat="44.224" lon="5.61877">
        <ele>726</ele>
        <time>2019-05-24T12:49:05Z</time>
      </trkpt>
      <trkpt lat="44.22402" lon="5.61889">
        <ele>726</ele>
        <time>2019-05-24T12:49:06Z</time>
      </trkpt>
      <trkpt lat="44.22406" lon="5.61901">
        <ele>726</ele>
        <time>2019-05-24T12:49:07Z</time>
      </trkpt>
      <trkpt lat="44.2241" lon="5.61912">
        <ele>726</ele>
        <time>2019-05-24T12:49:08Z</time>
      </trkpt>
      <trkpt lat="44.22414" lon="5.61923">
        <ele>726</ele>
        <time>2019-05-24T12:49:09Z</time>
      </trkpt>
      <trkpt lat="44.22419" lon="5.61934">
        <ele>726</ele>
        <time>2019-05-24T12:49:10Z</time>
      </trkpt>
      <trkpt lat="44.22424" lon="5.61945">
        <ele>726</ele>
        <time>2019-05-24T12:49:11Z</time>
      </trkpt>
      <trkpt lat="44.22429" lon="5.61956">
        <ele>726</ele>
        <time>2019-05-24T12:49:12Z</time>
      </trkpt>
      <trkpt lat="44.22434" lon="5.61966">
        <ele>726</ele>
        <time>2019-05-24T12:49:13Z</time>
      </trkpt>
      <trkpt lat="44.2244" lon="5.61977">
        <ele>726</ele>
        <time>2019-05-24T12:49:14Z</time>
      </trkpt>
      <trkpt lat="44.22445" lon="5.61987">
        <ele>726</ele>
        <time>2019-05-24T12:49:15Z</time>
      </trkpt>
      <trkpt lat="44.2245" lon="5.61997">
        <ele>725</ele>
        <time>2019-05-24T12:49:16Z</time>
      </trkpt>
      <trkpt lat="44.22455" lon="5.62007">
        <ele>725</ele>
        <time>2019-05-24T12:49:17Z</time>
      </trkpt>
      <trkpt lat="44.22459" lon="5.62017">
        <ele>725</ele>
        <time>2019-05-24T12:49:18Z</time>
      </trkpt>
      <trkpt lat="44.22464" lon="5.62028">
        <ele>725</ele>
        <time>2019-05-24T12:49:19Z</time>
      </trkpt>
      <trkpt lat="44.22469" lon="5.62038">
        <ele>724</ele>
        <time>2019-05-24T12:49:20Z</time>
      </trkpt>
      <trkpt lat="44.22473" lon="5.62048">
        <ele>724</ele>
        <time>2019-05-24T12:49:21Z</time>
      </trkpt>
      <trkpt lat="44.22477" lon="5.62059">
        <ele>723</ele>
        <time>2019-05-24T12:49:22Z</time>
      </trkpt>
      <trkpt lat="44.22482" lon="5.62069">
        <ele>722</ele>
        <time>2019-05-24T12:49:23Z</time>
      </trkpt>
      <trkpt lat="44.22487" lon="5.62079">
        <ele>722</ele>
        <time>2019-05-24T12:49:24Z</time>
      </trkpt>
      <trkpt lat="44.22491" lon="5.62088">
        <ele>721</ele>
        <time>2019-05-24T12:49:25Z</time>
      </trkpt>
      <trkpt lat="44.22496" lon="5.62098">
        <ele>721</ele>
        <time>2019-05-24T12:49:26Z</time>
      </trkpt>
      <trkpt lat="44.225" lon="5.62108">
        <ele>721</ele>
        <time>2019-05-24T12:49:27Z</time>
      </trkpt>
      <trkpt lat="44.22504" lon="5.62118">
        <ele>721</ele>
        <time>2019-05-24T12:49:28Z</time>
      </trkpt>
      <trkpt lat="44.22508" lon="5.62128">
        <ele>720</ele>
        <time>2019-05-24T12:49:29Z</time>
      </trkpt>
      <trkpt lat="44.22512" lon="5.62138">
        <ele>720</ele>
        <time>2019-05-24T12:49:30Z</time>
      </trkpt>
      <trkpt lat="44.22516" lon="5.62149">
        <ele>720</ele>
        <time>2019-05-24T12:49:31Z</time>
      </trkpt>
      <trkpt lat="44.22519" lon="5.62159">
        <ele>720</ele>
        <time>2019-05-24T12:49:32Z</time>
      </trkpt>
      <trkpt lat="44.22522" lon="5.62171">
        <ele>719</ele>
        <time>2019-05-24T12:49:33Z</time>
      </trkpt>
      <trkpt lat="44.22524" lon="5.62183">
        <ele>719</ele>
        <time>2019-05-24T12:49:34Z</time>
      </trkpt>
      <trkpt lat="44.22526" lon="5.62195">
        <ele>719</ele>
        <time>2019-05-24T12:49:35Z</time>
      </trkpt>
      <trkpt lat="44.22527" lon="5.62207">
        <ele>719</ele>
        <time>2019-05-24T12:49:36Z</time>
      </trkpt>
      <trkpt lat="44.22528" lon="5.62219">
        <ele>719</ele>
        <time>2019-05-24T12:49:37Z</time>
      </trkpt>
      <trkpt lat="44.22529" lon="5.62231">
        <ele>719</ele>
        <time>2019-05-24T12:49:38Z</time>
      </trkpt>
      <trkpt lat="44.2253" lon="5.62243">
        <ele>719</ele>
        <time>2019-05-24T12:49:39Z</time>
      </trkpt>
      <trkpt lat="44.2253" lon="5.62254">
        <ele>719</ele>
        <time>2019-05-24T12:49:40Z</time>
      </trkpt>
      <trkpt lat="44.22531" lon="5.62266">
        <ele>719</ele>
        <time>2019-05-24T12:49:41Z</time>
      </trkpt>
      <trkpt lat="44.22532" lon="5.62278">
        <ele>719</ele>
        <time>2019-05-24T12:49:42Z</time>
      </trkpt>
      <trkpt lat="44.22533" lon="5.62289">
        <ele>719</ele>
        <time>2019-05-24T12:49:43Z</time>
      </trkpt>
      <trkpt lat="44.22535" lon="5.62301">
        <ele>719</ele>
        <time>2019-05-24T12:49:44Z</time>
      </trkpt>
      <trkpt lat="44.22537" lon="5.62312">
        <ele>719</ele>
        <time>2019-05-24T12:49:45Z</time>
      </trkpt>
      <trkpt lat="44.2254" lon="5.62322">
        <ele>719</ele>
        <time>2019-05-24T12:49:46Z</time>
      </trkpt>
      <trkpt lat="44.22543" lon="5.62333">
        <ele>719</ele>
        <time>2019-05-24T12:49:47Z</time>
      </trkpt>
      <trkpt lat="44.22546" lon="5.62344">
        <ele>719</ele>
        <time>2019-05-24T12:49:48Z</time>
      </trkpt>
      <trkpt lat="44.22549" lon="5.62354">
        <ele>719</ele>
        <time>2019-05-24T12:49:49Z</time>
      </trkpt>
      <trkpt lat="44.22553" lon="5.62364">
        <ele>719</ele>
        <time>2019-05-24T12:49:50Z</time>
      </trkpt>
      <trkpt lat="44.22557" lon="5.62374">
        <ele>719</ele>
        <time>2019-05-24T12:49:51Z</time>
      </trkpt>
      <trkpt lat="44.22562" lon="5.62384">
        <ele>719</ele>
        <time>2019-05-24T12:49:52Z</time>
      </trkpt>
      <trkpt lat="44.22566" lon="5.62395">
        <ele>719</ele>
        <time>2019-05-24T12:49:53Z</time>
      </trkpt>
      <trkpt lat="44.2257" lon="5.62405">
        <ele>719</ele>
        <time>2019-05-24T12:49:54Z</time>
      </trkpt>
      <trkpt lat="44.22574" lon="5.62415">
        <ele>719</ele>
        <time>2019-05-24T12:49:55Z</time>
      </trkpt>
      <trkpt lat="44.22578" lon="5.62425">
        <ele>719</ele>
        <time>2019-05-24T12:49:56Z</time>
      </trkpt>
      <trkpt lat="44.22583" lon="5.62434">
        <ele>719</ele>
        <time>2019-05-24T12:49:57Z</time>
      </trkpt>
      <trkpt lat="44.22587" lon="5.62444">
        <ele>719</ele>
        <time>2019-05-24T12:49:58Z</time>
      </trkpt>
      <trkpt lat="44.22591" lon="5.62454">
        <ele>719</ele>
        <time>2019-05-24T12:49:59Z</time>
      </trkpt>
      <trkpt lat="44.22595" lon="5.62463">
        <ele>719</ele>
        <time>2019-05-24T12:50:00Z</time>
      </trkpt>
      <trkpt lat="44.226" lon="5.62471">
        <ele>720</ele>
        <time>2019-05-24T12:50:01Z</time>
      </trkpt>
      <trkpt lat="44.22604" lon="5.62479">
        <ele>720</ele>
        <time>2019-05-24T12:50:02Z</time>
      </trkpt>
      <trkpt lat="44.22609" lon="5.62488">
        <ele>720</ele>
        <time>2019-05-24T12:50:03Z</time>
      </trkpt>
      <trkpt lat="44.22614" lon="5.62496">
        <ele>721</ele>
        <time>2019-05-24T12:50:04Z</time>
      </trkpt>
      <trkpt lat="44.22619" lon="5.62505">
        <ele>721</ele>
        <time>2019-05-24T12:50:05Z</time>
      </trkpt>
      <trkpt lat="44.22624" lon="5.62513">
        <ele>721</ele>
        <time>2019-05-24T12:50:06Z</time>
      </trkpt>
      <trkpt lat="44.22629" lon="5.62522">
        <ele>721</ele>
        <time>2019-05-24T12:50:07Z</time>
      </trkpt>
      <trkpt lat="44.22634" lon="5.6253">
        <ele>721</ele>
        <time>2019-05-24T12:50:08Z</time>
      </trkpt>
      <trkpt lat="44.22638" lon="5.62538">
        <ele>721</ele>
        <time>2019-05-24T12:50:09Z</time>
      </trkpt>
      <trkpt lat="44.22643" lon="5.62546">
        <ele>721</ele>
        <time>2019-05-24T12:50:10Z</time>
      </trkpt>
      <trkpt lat="44.22649" lon="5.62554">
        <ele>721</ele>
        <time>2019-05-24T12:50:11Z</time>
      </trkpt>
      <trkpt lat="44.22654" lon="5.62562">
        <ele>721</ele>
        <time>2019-05-24T12:50:12Z</time>
      </trkpt>
      <trkpt lat="44.22659" lon="5.6257">
        <ele>721</ele>
        <time>2019-05-24T12:50:13Z</time>
      </trkpt>
      <trkpt lat="44.22664" lon="5.62578">
        <ele>721</ele>
        <time>2019-05-24T12:50:14Z</time>
      </trkpt>
      <trkpt lat="44.22669" lon="5.62586">
        <ele>721</ele>
        <time>2019-05-24T12:50:15Z</time>
      </trkpt>
      <trkpt lat="44.22674" lon="5.62594">
        <ele>721</ele>
        <time>2019-05-24T12:50:16Z</time>
      </trkpt>
      <trkpt lat="44.22679" lon="5.62603">
        <ele>721</ele>
        <time>2019-05-24T12:50:17Z</time>
      </trkpt>
      <trkpt lat="44.22684" lon="5.62611">
        <ele>721</ele>
        <time>2019-05-24T12:50:18Z</time>
      </trkpt>
      <trkpt lat="44.22689" lon="5.62619">
        <ele>721</ele>
        <time>2019-05-24T12:50:19Z</time>
      </trkpt>
      <trkpt lat="44.22694" lon="5.62627">
        <ele>721</ele>
        <time>2019-05-24T12:50:20Z</time>
      </trkpt>
      <trkpt lat="44.22699" lon="5.62635">
        <ele>721</ele>
        <time>2019-05-24T12:50:21Z</time>
      </trkpt>
      <trkpt lat="44.22703" lon="5.62643">
        <ele>721</ele>
        <time>2019-05-24T12:50:22Z</time>
      </trkpt>
      <trkpt lat="44.22708" lon="5.6265">
        <ele>721</ele>
        <time>2019-05-24T12:50:23Z</time>
      </trkpt>
      <trkpt lat="44.22712" lon="5.62659">
        <ele>721</ele>
        <time>2019-05-24T12:50:24Z</time>
      </trkpt>
      <trkpt lat="44.22717" lon="5.62667">
        <ele>721</ele>
        <time>2019-05-24T12:50:25Z</time>
      </trkpt>
      <trkpt lat="44.22722" lon="5.62675">
        <ele>721</ele>
        <time>2019-05-24T12:50:26Z</time>
      </trkpt>
      <trkpt lat="44.22726" lon="5.62682">
        <ele>721</ele>
        <time>2019-05-24T12:50:27Z</time>
      </trkpt>
      <trkpt lat="44.22731" lon="5.62691">
        <ele>721</ele>
        <time>2019-05-24T12:50:28Z</time>
      </trkpt>
      <trkpt lat="44.22736" lon="5.62699">
        <ele>721</ele>
        <time>2019-05-24T12:50:29Z</time>
      </trkpt>
      <trkpt lat="44.22741" lon="5.62707">
        <ele>721</ele>
        <time>2019-05-24T12:50:30Z</time>
      </trkpt>
      <trkpt lat="44.22746" lon="5.62715">
        <ele>721</ele>
        <time>2019-05-24T12:50:31Z</time>
      </trkpt>
      <trkpt lat="44.2275" lon="5.62722">
        <ele>721</ele>
        <time>2019-05-24T12:50:32Z</time>
      </trkpt>
      <trkpt lat="44.22755" lon="5.62729">
        <ele>721</ele>
        <time>2019-05-24T12:50:33Z</time>
      </trkpt>
      <trkpt lat="44.2276" lon="5.62736">
        <ele>721</ele>
        <time>2019-05-24T12:50:34Z</time>
      </trkpt>
      <trkpt lat="44.22766" lon="5.62743">
        <ele>721</ele>
        <time>2019-05-24T12:50:35Z</time>
      </trkpt>
      <trkpt lat="44.22772" lon="5.6275">
        <ele>721</ele>
        <time>2019-05-24T12:50:36Z</time>
      </trkpt>
      <trkpt lat="44.22778" lon="5.62756">
        <ele>721</ele>
        <time>2019-05-24T12:50:37Z</time>
      </trkpt>
      <trkpt lat="44.22784" lon="5.62763">
        <ele>721</ele>
        <time>2019-05-24T12:50:38Z</time>
      </trkpt>
      <trkpt lat="44.22791" lon="5.6277">
        <ele>721</ele>
        <time>2019-05-24T12:50:39Z</time>
      </trkpt>
      <trkpt lat="44.22797" lon="5.62776">
        <ele>721</ele>
        <time>2019-05-24T12:50:40Z</time>
      </trkpt>
      <trkpt lat="44.22803" lon="5.62783">
        <ele>721</ele>
        <time>2019-05-24T12:50:41Z</time>
      </trkpt>
      <trkpt lat="44.2281" lon="5.62789">
        <ele>721</ele>
        <time>2019-05-24T12:50:42Z</time>
      </trkpt>
      <trkpt lat="44.22816" lon="5.62796">
        <ele>721</ele>
        <time>2019-05-24T12:50:43Z</time>
      </trkpt>
      <trkpt lat="44.22822" lon="5.62804">
        <ele>721</ele>
        <time>2019-05-24T12:50:44Z</time>
      </trkpt>
      <trkpt lat="44.22828" lon="5.62811">
        <ele>721</ele>
        <time>2019-05-24T12:50:45Z</time>
      </trkpt>
      <trkpt lat="44.22834" lon="5.62819">
        <ele>722</ele>
        <time>2019-05-24T12:50:46Z</time>
      </trkpt>
      <trkpt lat="44.2284" lon="5.62827">
        <ele>722</ele>
        <time>2019-05-24T12:50:47Z</time>
      </trkpt>
      <trkpt lat="44.22846" lon="5.62835">
        <ele>722</ele>
        <time>2019-05-24T12:50:48Z</time>
      </trkpt>
      <trkpt lat="44.22852" lon="5.62843">
        <ele>723</ele>
        <time>2019-05-24T12:50:49Z</time>
      </trkpt>
      <trkpt lat="44.22859" lon="5.62851">
        <ele>723</ele>
        <time>2019-05-24T12:50:50Z</time>
      </trkpt>
      <trkpt lat="44.22865" lon="5.62859">
        <ele>723</ele>
        <time>2019-05-24T12:50:51Z</time>
      </trkpt>
      <trkpt lat="44.22871" lon="5.62867">
        <ele>723</ele>
        <time>2019-05-24T12:50:52Z</time>
      </trkpt>
      <trkpt lat="44.22878" lon="5.62875">
        <ele>724</ele>
        <time>2019-05-24T12:50:53Z</time>
      </trkpt>
      <trkpt lat="44.22885" lon="5.62882">
        <ele>724</ele>
        <time>2019-05-24T12:50:54Z</time>
      </trkpt>
      <trkpt lat="44.22893" lon="5.62889">
        <ele>724</ele>
        <time>2019-05-24T12:50:55Z</time>
      </trkpt>
      <trkpt lat="44.22901" lon="5.62897">
        <ele>724</ele>
        <time>2019-05-24T12:50:56Z</time>
      </trkpt>
      <trkpt lat="44.22909" lon="5.62905">
        <ele>724</ele>
        <time>2019-05-24T12:50:57Z</time>
      </trkpt>
      <trkpt lat="44.22917" lon="5.62913">
        <ele>724</ele>
        <time>2019-05-24T12:50:58Z</time>
      </trkpt>
      <trkpt lat="44.22925" lon="5.62921">
        <ele>723</ele>
        <time>2019-05-24T12:50:59Z</time>
      </trkpt>
      <trkpt lat="44.22933" lon="5.62929">
        <ele>722</ele>
        <time>2019-05-24T12:51:00Z</time>
      </trkpt>
      <trkpt lat="44.2294" lon="5.62937">
        <ele>721</ele>
        <time>2019-05-24T12:51:01Z</time>
      </trkpt>
      <trkpt lat="44.22949" lon="5.62944">
        <ele>721</ele>
        <time>2019-05-24T12:51:02Z</time>
      </trkpt>
      <trkpt lat="44.22958" lon="5.6295">
        <ele>721</ele>
        <time>2019-05-24T12:51:03Z</time>
      </trkpt>
      <trkpt lat="44.22966" lon="5.62955">
        <ele>721</ele>
        <time>2019-05-24T12:51:04Z</time>
      </trkpt>
      <trkpt lat="44.22976" lon="5.6296">
        <ele>721</ele>
        <time>2019-05-24T12:51:05Z</time>
      </trkpt>
      <trkpt lat="44.22985" lon="5.62966">
        <ele>721</ele>
        <time>2019-05-24T12:51:06Z</time>
      </trkpt>
      <trkpt lat="44.22994" lon="5.62972">
        <ele>721</ele>
        <time>2019-05-24T12:51:07Z</time>
      </trkpt>
      <trkpt lat="44.23003" lon="5.6298">
        <ele>721</ele>
        <time>2019-05-24T12:51:08Z</time>
      </trkpt>
      <trkpt lat="44.23011" lon="5.62989">
        <ele>720</ele>
        <time>2019-05-24T12:51:09Z</time>
      </trkpt>
      <trkpt lat="44.23019" lon="5.62997">
        <ele>719</ele>
        <time>2019-05-24T12:51:10Z</time>
      </trkpt>
      <trkpt lat="44.23026" lon="5.63007">
        <ele>718</ele>
        <time>2019-05-24T12:51:11Z</time>
      </trkpt>
      <trkpt lat="44.23034" lon="5.63016">
        <ele>717</ele>
        <time>2019-05-24T12:51:12Z</time>
      </trkpt>
      <trkpt lat="44.23041" lon="5.63025">
        <ele>716</ele>
        <time>2019-05-24T12:51:13Z</time>
      </trkpt>
      <trkpt lat="44.23049" lon="5.63034">
        <ele>715</ele>
        <time>2019-05-24T12:51:14Z</time>
      </trkpt>
      <trkpt lat="44.23057" lon="5.63042">
        <ele>715</ele>
        <time>2019-05-24T12:51:15Z</time>
      </trkpt>
      <trkpt lat="44.23065" lon="5.63049">
        <ele>714</ele>
        <time>2019-05-24T12:51:16Z</time>
      </trkpt>
      <trkpt lat="44.23074" lon="5.63055">
        <ele>714</ele>
        <time>2019-05-24T12:51:17Z</time>
      </trkpt>
      <trkpt lat="44.23083" lon="5.6306">
        <ele>713</ele>
        <time>2019-05-24T12:51:18Z</time>
      </trkpt>
      <trkpt lat="44.23094" lon="5.63064">
        <ele>713</ele>
        <time>2019-05-24T12:51:19Z</time>
      </trkpt>
      <trkpt lat="44.23104" lon="5.63067">
        <ele>712</ele>
        <time>2019-05-24T12:51:20Z</time>
      </trkpt>
      <trkpt lat="44.23114" lon="5.6307">
        <ele>712</ele>
        <time>2019-05-24T12:51:21Z</time>
      </trkpt>
      <trkpt lat="44.23124" lon="5.63073">
        <ele>712</ele>
        <time>2019-05-24T12:51:22Z</time>
      </trkpt>
      <trkpt lat="44.23134" lon="5.63076">
        <ele>711</ele>
        <time>2019-05-24T12:51:23Z</time>
      </trkpt>
      <trkpt lat="44.23144" lon="5.63078">
        <ele>711</ele>
        <time>2019-05-24T12:51:24Z</time>
      </trkpt>
      <trkpt lat="44.23154" lon="5.63081">
        <ele>711</ele>
        <time>2019-05-24T12:51:25Z</time>
      </trkpt>
      <trkpt lat="44.23164" lon="5.63083">
        <ele>711</ele>
        <time>2019-05-24T12:51:26Z</time>
      </trkpt>
      <trkpt lat="44.23174" lon="5.63085">
        <ele>711</ele>
        <time>2019-05-24T12:51:27Z</time>
      </trkpt>
      <trkpt lat="44.23183" lon="5.63087">
        <ele>710</ele>
        <time>2019-05-24T12:51:28Z</time>
      </trkpt>
      <trkpt lat="44.23192" lon="5.63089">
        <ele>710</ele>
        <time>2019-05-24T12:51:29Z</time>
      </trkpt>
      <trkpt lat="44.23201" lon="5.63091">
        <ele>710</ele>
        <time>2019-05-24T12:51:30Z</time>
      </trkpt>
      <trkpt lat="44.23209" lon="5.63093">
        <ele>710</ele>
        <time>2019-05-24T12:51:31Z</time>
      </trkpt>
      <trkpt lat="44.23217" lon="5.63096">
        <ele>710</ele>
        <time>2019-05-24T12:51:32Z</time>
      </trkpt>
      <trkpt lat="44.23226" lon="5.63097">
        <ele>710</ele>
        <time>2019-05-24T12:51:33Z</time>
      </trkpt>
      <trkpt lat="44.23234" lon="5.63099">
        <ele>710</ele>
        <time>2019-05-24T12:51:34Z</time>
      </trkpt>
      <trkpt lat="44.23242" lon="5.63101">
        <ele>710</ele>
        <time>2019-05-24T12:51:35Z</time>
      </trkpt>
      <trkpt lat="44.2325" lon="5.63103">
        <ele>710</ele>
        <time>2019-05-24T12:51:36Z</time>
      </trkpt>
      <trkpt lat="44.23259" lon="5.63105">
        <ele>710</ele>
        <time>2019-05-24T12:51:37Z</time>
      </trkpt>
      <trkpt lat="44.23267" lon="5.63107">
        <ele>710</ele>
        <time>2019-05-24T12:51:38Z</time>
      </trkpt>
      <trkpt lat="44.23275" lon="5.6311">
        <ele>710</ele>
        <time>2019-05-24T12:51:39Z</time>
      </trkpt>
      <trkpt lat="44.23283" lon="5.63111">
        <ele>710</ele>
        <time>2019-05-24T12:51:40Z</time>
      </trkpt>
      <trkpt lat="44.2329" lon="5.63113">
        <ele>710</ele>
        <time>2019-05-24T12:51:41Z</time>
      </trkpt>
      <trkpt lat="44.23298" lon="5.63115">
        <ele>709</ele>
        <time>2019-05-24T12:51:42Z</time>
      </trkpt>
      <trkpt lat="44.23306" lon="5.63116">
        <ele>709</ele>
        <time>2019-05-24T12:51:43Z</time>
      </trkpt>
      <trkpt lat="44.23313" lon="5.63118">
        <ele>709</ele>
        <time>2019-05-24T12:51:44Z</time>
      </trkpt>
      <trkpt lat="44.2332" lon="5.63119">
        <ele>709</ele>
        <time>2019-05-24T12:51:45Z</time>
      </trkpt>
      <trkpt lat="44.23328" lon="5.6312">
        <ele>709</ele>
        <time>2019-05-24T12:51:46Z</time>
      </trkpt>
      <trkpt lat="44.23335" lon="5.63122">
        <ele>709</ele>
        <time>2019-05-24T12:51:47Z</time>
      </trkpt>
      <trkpt lat="44.23341" lon="5.63124">
        <ele>709</ele>
        <time>2019-05-24T12:51:48Z</time>
      </trkpt>
      <trkpt lat="44.23348" lon="5.63127">
        <ele>709</ele>
        <time>2019-05-24T12:51:49Z</time>
      </trkpt>
      <trkpt lat="44.23354" lon="5.63132">
        <ele>708</ele>
        <time>2019-05-24T12:51:50Z</time>
      </trkpt>
      <trkpt lat="44.23358" lon="5.63138">
        <ele>708</ele>
        <time>2019-05-24T12:51:51Z</time>
      </trkpt>
      <trkpt lat="44.23361" lon="5.63146">
        <ele>708</ele>
        <time>2019-05-24T12:51:52Z</time>
      </trkpt>
      <trkpt lat="44.23363" lon="5.63155">
        <ele>708</ele>
        <time>2019-05-24T12:51:53Z</time>
      </trkpt>
      <trkpt lat="44.23363" lon="5.63165">
        <ele>707</ele>
        <time>2019-05-24T12:51:54Z</time>
      </trkpt>
      <trkpt lat="44.23363" lon="5.63175">
        <ele>707</ele>
        <time>2019-05-24T12:51:55Z</time>
      </trkpt>
      <trkpt lat="44.23363" lon="5.63184">
        <ele>707</ele>
        <time>2019-05-24T12:51:56Z</time>
      </trkpt>
      <trkpt lat="44.23362" lon="5.63194">
        <ele>707</ele>
        <time>2019-05-24T12:51:57Z</time>
      </trkpt>
      <trkpt lat="44.23362" lon="5.63203">
        <ele>707</ele>
        <time>2019-05-24T12:51:58Z</time>
      </trkpt>
      <trkpt lat="44.23361" lon="5.63213">
        <ele>707</ele>
        <time>2019-05-24T12:51:59Z</time>
      </trkpt>
      <trkpt lat="44.2336" lon="5.63222">
        <ele>707</ele>
        <time>2019-05-24T12:52:00Z</time>
      </trkpt>
      <trkpt lat="44.2336" lon="5.6323">
        <ele>707</ele>
        <time>2019-05-24T12:52:01Z</time>
      </trkpt>
      <trkpt lat="44.2336" lon="5.63239">
        <ele>707</ele>
        <time>2019-05-24T12:52:02Z</time>
      </trkpt>
      <trkpt lat="44.23359" lon="5.63247">
        <ele>707</ele>
        <time>2019-05-24T12:52:03Z</time>
      </trkpt>
      <trkpt lat="44.23359" lon="5.63255">
        <ele>707</ele>
        <time>2019-05-24T12:52:04Z</time>
      </trkpt>
      <trkpt lat="44.23358" lon="5.63264">
        <ele>707</ele>
        <time>2019-05-24T12:52:05Z</time>
      </trkpt>
      <trkpt lat="44.23357" lon="5.63272">
        <ele>707</ele>
        <time>2019-05-24T12:52:06Z</time>
      </trkpt>
      <trkpt lat="44.23356" lon="5.6328">
        <ele>707</ele>
        <time>2019-05-24T12:52:07Z</time>
      </trkpt>
      <trkpt lat="44.23355" lon="5.63289">
        <ele>707</ele>
        <time>2019-05-24T12:52:08Z</time>
      </trkpt>
      <trkpt lat="44.23354" lon="5.63297">
        <ele>707</ele>
        <time>2019-05-24T12:52:09Z</time>
      </trkpt>
      <trkpt lat="44.23353" lon="5.63306">
        <ele>707</ele>
        <time>2019-05-24T12:52:10Z</time>
      </trkpt>
      <trkpt lat="44.23352" lon="5.63314">
        <ele>707</ele>
        <time>2019-05-24T12:52:11Z</time>
      </trkpt>
      <trkpt lat="44.2335" lon="5.63323">
        <ele>707</ele>
        <time>2019-05-24T12:52:12Z</time>
      </trkpt>
      <trkpt lat="44.23348" lon="5.63332">
        <ele>706</ele>
        <time>2019-05-24T12:52:13Z</time>
      </trkpt>
      <trkpt lat="44.23345" lon="5.63341">
        <ele>706</ele>
        <time>2019-05-24T12:52:14Z</time>
      </trkpt>
      <trkpt lat="44.23343" lon="5.63349">
        <ele>706</ele>
        <time>2019-05-24T12:52:15Z</time>
      </trkpt>
      <trkpt lat="44.23339" lon="5.63357">
        <ele>706</ele>
        <time>2019-05-24T12:52:16Z</time>
      </trkpt>
      <trkpt lat="44.23336" lon="5.63366">
        <ele>706</ele>
        <time>2019-05-24T12:52:17Z</time>
      </trkpt>
      <trkpt lat="44.23332" lon="5.63374">
        <ele>706</ele>
        <time>2019-05-24T12:52:18Z</time>
      </trkpt>
      <trkpt lat="44.23328" lon="5.63381">
        <ele>705</ele>
        <time>2019-05-24T12:52:19Z</time>
      </trkpt>
      <trkpt lat="44.23324" lon="5.63388">
        <ele>705</ele>
        <time>2019-05-24T12:52:20Z</time>
      </trkpt>
      <trkpt lat="44.2332" lon="5.63395">
        <ele>705</ele>
        <time>2019-05-24T12:52:21Z</time>
      </trkpt>
      <trkpt lat="44.23316" lon="5.63402">
        <ele>704</ele>
        <time>2019-05-24T12:52:22Z</time>
      </trkpt>
      <trkpt lat="44.23312" lon="5.63409">
        <ele>704</ele>
        <time>2019-05-24T12:52:23Z</time>
      </trkpt>
      <trkpt lat="44.23308" lon="5.63416">
        <ele>704</ele>
        <time>2019-05-24T12:52:24Z</time>
      </trkpt>
      <trkpt lat="44.23304" lon="5.63423">
        <ele>703</ele>
        <time>2019-05-24T12:52:25Z</time>
      </trkpt>
      <trkpt lat="44.23299" lon="5.6343">
        <ele>703</ele>
        <time>2019-05-24T12:52:26Z</time>
      </trkpt>
      <trkpt lat="44.23295" lon="5.63437">
        <ele>703</ele>
        <time>2019-05-24T12:52:27Z</time>
      </trkpt>
      <trkpt lat="44.23291" lon="5.63444">
        <ele>703</ele>
        <time>2019-05-24T12:52:28Z</time>
      </trkpt>
      <trkpt lat="44.23287" lon="5.63451">
        <ele>703</ele>
        <time>2019-05-24T12:52:29Z</time>
      </trkpt>
      <trkpt lat="44.23283" lon="5.63458">
        <ele>703</ele>
        <time>2019-05-24T12:52:30Z</time>
      </trkpt>
      <trkpt lat="44.2328" lon="5.63465">
        <ele>703</ele>
        <time>2019-05-24T12:52:31Z</time>
      </trkpt>
      <trkpt lat="44.23275" lon="5.63472">
        <ele>703</ele>
        <time>2019-05-24T12:52:32Z</time>
      </trkpt>
      <trkpt lat="44.23271" lon="5.63478">
        <ele>703</ele>
        <time>2019-05-24T12:52:33Z</time>
      </trkpt>
      <trkpt lat="44.23267" lon="5.63485">
        <ele>703</ele>
        <time>2019-05-24T12:52:34Z</time>
      </trkpt>
      <trkpt lat="44.23264" lon="5.63492">
        <ele>703</ele>
        <time>2019-05-24T12:52:35Z</time>
      </trkpt>
      <trkpt lat="44.2326" lon="5.63499">
        <ele>703</ele>
        <time>2019-05-24T12:52:36Z</time>
      </trkpt>
      <trkpt lat="44.23257" lon="5.63505">
        <ele>703</ele>
        <time>2019-05-24T12:52:37Z</time>
      </trkpt>
      <trkpt lat="44.23254" lon="5.63511">
        <ele>703</ele>
        <time>2019-05-24T12:52:38Z</time>
      </trkpt>
      <trkpt lat="44.2325" lon="5.63517">
        <ele>703</ele>
        <time>2019-05-24T12:52:39Z</time>
      </trkpt>
      <trkpt lat="44.23247" lon="5.63523">
        <ele>703</ele>
        <time>2019-05-24T12:52:40Z</time>
      </trkpt>
      <trkpt lat="44.23243" lon="5.63528">
        <ele>703</ele>
        <time>2019-05-24T12:52:41Z</time>
      </trkpt>
      <trkpt lat="44.2324" lon="5.63534">
        <ele>703</ele>
        <time>2019-05-24T12:52:42Z</time>
      </trkpt>
      <trkpt lat="44.23237" lon="5.63539">
        <ele>703</ele>
        <time>2019-05-24T12:52:43Z</time>
      </trkpt>
      <trkpt lat="44.23235" lon="5.63545">
        <ele>703</ele>
        <time>2019-05-24T12:52:44Z</time>
      </trkpt>
      <trkpt lat="44.23231" lon="5.6355">
        <ele>703</ele>
        <time>2019-05-24T12:52:45Z</time>
      </trkpt>
      <trkpt lat="44.23228" lon="5.63555">
        <ele>703</ele>
        <time>2019-05-24T12:52:46Z</time>
      </trkpt>
      <trkpt lat="44.23225" lon="5.6356">
        <ele>703</ele>
        <time>2019-05-24T12:52:47Z</time>
      </trkpt>
      <trkpt lat="44.23223" lon="5.63564">
        <ele>703</ele>
        <time>2019-05-24T12:52:48Z</time>
      </trkpt>
      <trkpt lat="44.2322" lon="5.6357">
        <ele>703</ele>
        <time>2019-05-24T12:52:49Z</time>
      </trkpt>
      <trkpt lat="44.23217" lon="5.63574">
        <ele>703</ele>
        <time>2019-05-24T12:52:50Z</time>
      </trkpt>
      <trkpt lat="44.23214" lon="5.63579">
        <ele>703</ele>
        <time>2019-05-24T12:52:51Z</time>
      </trkpt>
      <trkpt lat="44.23211" lon="5.63583">
        <ele>703</ele>
        <time>2019-05-24T12:52:52Z</time>
      </trkpt>
      <trkpt lat="44.23208" lon="5.63588">
        <ele>703</ele>
        <time>2019-05-24T12:52:53Z</time>
      </trkpt>
      <trkpt lat="44.23206" lon="5.63593">
        <ele>703</ele>
        <time>2019-05-24T12:52:54Z</time>
      </trkpt>
      <trkpt lat="44.23203" lon="5.63598">
        <ele>703</ele>
        <time>2019-05-24T12:52:55Z</time>
      </trkpt>
      <trkpt lat="44.23201" lon="5.63602">
        <ele>703</ele>
        <time>2019-05-24T12:52:56Z</time>
      </trkpt>
      <trkpt lat="44.23198" lon="5.63607">
        <ele>703</ele>
        <time>2019-05-24T12:52:57Z</time>
      </trkpt>
      <trkpt lat="44.23195" lon="5.63613">
        <ele>703</ele>
        <time>2019-05-24T12:52:58Z</time>
      </trkpt>
      <trkpt lat="44.23192" lon="5.63618">
        <ele>703</ele>
        <time>2019-05-24T12:52:59Z</time>
      </trkpt>
      <trkpt lat="44.2319" lon="5.63622">
        <ele>704</ele>
        <time>2019-05-24T12:53:00Z</time>
      </trkpt>
      <trkpt lat="44.23186" lon="5.63628">
        <ele>704</ele>
        <time>2019-05-24T12:53:01Z</time>
      </trkpt>
      <trkpt lat="44.23183" lon="5.63632">
        <ele>704</ele>
        <time>2019-05-24T12:53:02Z</time>
      </trkpt>
      <trkpt lat="44.2318" lon="5.63637">
        <ele>704</ele>
        <time>2019-05-24T12:53:03Z</time>
      </trkpt>
      <trkpt lat="44.23178" lon="5.63641">
        <ele>704</ele>
        <time>2019-05-24T12:53:04Z</time>
      </trkpt>
      <trkpt lat="44.23177" lon="5.63646">
        <ele>704</ele>
        <time>2019-05-24T12:53:05Z</time>
      </trkpt>
      <trkpt lat="44.23174" lon="5.6365">
        <ele>704</ele>
        <time>2019-05-24T12:53:06Z</time>
      </trkpt>
      <trkpt lat="44.2317" lon="5.63654">
        <ele>704</ele>
        <time>2019-05-24T12:53:07Z</time>
      </trkpt>
      <trkpt lat="44.23168" lon="5.63658">
        <ele>704</ele>
        <time>2019-05-24T12:53:08Z</time>
      </trkpt>
      <trkpt lat="44.23166" lon="5.63662">
        <ele>704</ele>
        <time>2019-05-24T12:53:09Z</time>
      </trkpt>
      <trkpt lat="44.23164" lon="5.63668">
        <ele>704</ele>
        <time>2019-05-24T12:53:10Z</time>
      </trkpt>
      <trkpt lat="44.23161" lon="5.63673">
        <ele>705</ele>
        <time>2019-05-24T12:53:11Z</time>
      </trkpt>
      <trkpt lat="44.2316" lon="5.63679">
        <ele>706</ele>
        <time>2019-05-24T12:53:12Z</time>
      </trkpt>
      <trkpt lat="44.23157" lon="5.63684">
        <ele>707</ele>
        <time>2019-05-24T12:53:13Z</time>
      </trkpt>
      <trkpt lat="44.23155" lon="5.63689">
        <ele>707</ele>
        <time>2019-05-24T12:53:14Z</time>
      </trkpt>
      <trkpt lat="44.23152" lon="5.63694">
        <ele>707</ele>
        <time>2019-05-24T12:53:15Z</time>
      </trkpt>
      <trkpt lat="44.23148" lon="5.63698">
        <ele>707</ele>
        <time>2019-05-24T12:53:16Z</time>
      </trkpt>
      <trkpt lat="44.23145" lon="5.63701">
        <ele>707</ele>
        <time>2019-05-24T12:53:17Z</time>
      </trkpt>
      <trkpt lat="44.23141" lon="5.63704">
        <ele>707</ele>
        <time>2019-05-24T12:53:18Z</time>
      </trkpt>
      <trkpt lat="44.23138" lon="5.63708">
        <ele>707</ele>
        <time>2019-05-24T12:53:19Z</time>
      </trkpt>
      <trkpt lat="44.23135" lon="5.63712">
        <ele>708</ele>
        <time>2019-05-24T12:53:20Z</time>
      </trkpt>
      <trkpt lat="44.23132" lon="5.63716">
        <ele>709</ele>
        <time>2019-05-24T12:53:21Z</time>
      </trkpt>
      <trkpt lat="44.23129" lon="5.63719">
        <ele>710</ele>
        <time>2019-05-24T12:53:22Z</time>
      </trkpt>
      <trkpt lat="44.23126" lon="5.63723">
        <ele>710</ele>
        <time>2019-05-24T12:53:23Z</time>
      </trkpt>
      <trkpt lat="44.23123" lon="5.63726">
        <ele>710</ele>
        <time>2019-05-24T12:53:24Z</time>
      </trkpt>
      <trkpt lat="44.23119" lon="5.6373">
        <ele>710</ele>
        <time>2019-05-24T12:53:25Z</time>
      </trkpt>
      <trkpt lat="44.23116" lon="5.63733">
        <ele>710</ele>
        <time>2019-05-24T12:53:26Z</time>
      </trkpt>
      <trkpt lat="44.23112" lon="5.63737">
        <ele>710</ele>
        <time>2019-05-24T12:53:27Z</time>
      </trkpt>
      <trkpt lat="44.23109" lon="5.6374">
        <ele>710</ele>
        <time>2019-05-24T12:53:28Z</time>
      </trkpt>
      <trkpt lat="44.23105" lon="5.63742">
        <ele>710</ele>
        <time>2019-05-24T12:53:29Z</time>
      </trkpt>
      <trkpt lat="44.23102" lon="5.63745">
        <ele>710</ele>
        <time>2019-05-24T12:53:30Z</time>
      </trkpt>
      <trkpt lat="44.23098" lon="5.63747">
        <ele>710</ele>
        <time>2019-05-24T12:53:31Z</time>
      </trkpt>
      <trkpt lat="44.23094" lon="5.63748">
        <ele>710</ele>
        <time>2019-05-24T12:53:32Z</time>
      </trkpt>
      <trkpt lat="44.23089" lon="5.63749">
        <ele>711</ele>
        <time>2019-05-24T12:53:33Z</time>
      </trkpt>
      <trkpt lat="44.23084" lon="5.63749">
        <ele>711</ele>
        <time>2019-05-24T12:53:34Z</time>
      </trkpt>
      <trkpt lat="44.23079" lon="5.6375">
        <ele>712</ele>
        <time>2019-05-24T12:53:35Z</time>
      </trkpt>
      <trkpt lat="44.23074" lon="5.63751">
        <ele>713</ele>
        <time>2019-05-24T12:53:36Z</time>
      </trkpt>
      <trkpt lat="44.2307" lon="5.63752">
        <ele>713</ele>
        <time>2019-05-24T12:53:37Z</time>
      </trkpt>
      <trkpt lat="44.23065" lon="5.63754">
        <ele>714</ele>
        <time>2019-05-24T12:53:38Z</time>
      </trkpt>
      <trkpt lat="44.2306" lon="5.63757">
        <ele>714</ele>
        <time>2019-05-24T12:53:39Z</time>
      </trkpt>
      <trkpt lat="44.23056" lon="5.6376">
        <ele>715</ele>
        <time>2019-05-24T12:53:40Z</time>
      </trkpt>
      <trkpt lat="44.23051" lon="5.63763">
        <ele>715</ele>
        <time>2019-05-24T12:53:41Z</time>
      </trkpt>
      <trkpt lat="44.23047" lon="5.63767">
        <ele>715</ele>
        <time>2019-05-24T12:53:42Z</time>
      </trkpt>
      <trkpt lat="44.23043" lon="5.6377">
        <ele>715</ele>
        <time>2019-05-24T12:53:43Z</time>
      </trkpt>
      <trkpt lat="44.23038" lon="5.63774">
        <ele>715</ele>
        <time>2019-05-24T12:53:44Z</time>
      </trkpt>
      <trkpt lat="44.23034" lon="5.63778">
        <ele>715</ele>
        <time>2019-05-24T12:53:45Z</time>
      </trkpt>
      <trkpt lat="44.2303" lon="5.63783">
        <ele>715</ele>
        <time>2019-05-24T12:53:46Z</time>
      </trkpt>
      <trkpt lat="44.23026" lon="5.63786">
        <ele>715</ele>
        <time>2019-05-24T12:53:47Z</time>
      </trkpt>
      <trkpt lat="44.23021" lon="5.63789">
        <ele>715</ele>
        <time>2019-05-24T12:53:48Z</time>
      </trkpt>
      <trkpt lat="44.23016" lon="5.63792">
        <ele>715</ele>
        <time>2019-05-24T12:53:49Z</time>
      </trkpt>
      <trkpt lat="44.23011" lon="5.63795">
        <ele>715</ele>
        <time>2019-05-24T12:53:50Z</time>
      </trkpt>
      <trkpt lat="44.23006" lon="5.63798">
        <ele>715</ele>
        <time>2019-05-24T12:53:51Z</time>
      </trkpt>
      <trkpt lat="44.23001" lon="5.638">
        <ele>715</ele>
        <time>2019-05-24T12:53:52Z</time>
      </trkpt>
      <trkpt lat="44.22997" lon="5.63802">
        <ele>715</ele>
        <time>2019-05-24T12:53:53Z</time>
      </trkpt>
      <trkpt lat="44.22992" lon="5.63805">
        <ele>715</ele>
        <time>2019-05-24T12:53:54Z</time>
      </trkpt>
      <trkpt lat="44.22988" lon="5.63808">
        <ele>715</ele>
        <time>2019-05-24T12:53:55Z</time>
      </trkpt>
      <trkpt lat="44.22984" lon="5.63811">
        <ele>715</ele>
        <time>2019-05-24T12:53:56Z</time>
      </trkpt>
      <trkpt lat="44.22979" lon="5.63814">
        <ele>715</ele>
        <time>2019-05-24T12:53:57Z</time>
      </trkpt>
      <trkpt lat="44.22975" lon="5.63818">
        <ele>715</ele>
        <time>2019-05-24T12:53:58Z</time>
      </trkpt>
      <trkpt lat="44.22971" lon="5.63822">
        <ele>715</ele>
        <time>2019-05-24T12:53:59Z</time>
      </trkpt>
      <trkpt lat="44.22966" lon="5.63826">
        <ele>715</ele>
        <time>2019-05-24T12:54:00Z</time>
      </trkpt>
      <trkpt lat="44.22962" lon="5.6383">
        <ele>715</ele>
        <time>2019-05-24T12:54:01Z</time>
      </trkpt>
      <trkpt lat="44.22958" lon="5.63835">
        <ele>715</ele>
        <time>2019-05-24T12:54:02Z</time>
      </trkpt>
      <trkpt lat="44.22954" lon="5.63839">
        <ele>715</ele>
        <time>2019-05-24T12:54:03Z</time>
      </trkpt>
      <trkpt lat="44.2295" lon="5.63844">
        <ele>715</ele>
        <time>2019-05-24T12:54:04Z</time>
      </trkpt>
      <trkpt lat="44.22946" lon="5.63849">
        <ele>715</ele>
        <time>2019-05-24T12:54:05Z</time>
      </trkpt>
      <trkpt lat="44.22942" lon="5.63854">
        <ele>715</ele>
        <time>2019-05-24T12:54:06Z</time>
      </trkpt>
      <trkpt lat="44.22939" lon="5.63858">
        <ele>715</ele>
        <time>2019-05-24T12:54:07Z</time>
      </trkpt>
      <trkpt lat="44.22935" lon="5.63863">
        <ele>715</ele>
        <time>2019-05-24T12:54:08Z</time>
      </trkpt>
      <trkpt lat="44.22931" lon="5.63868">
        <ele>715</ele>
        <time>2019-05-24T12:54:09Z</time>
      </trkpt>
      <trkpt lat="44.22927" lon="5.63872">
        <ele>715</ele>
        <time>2019-05-24T12:54:10Z</time>
      </trkpt>
      <trkpt lat="44.22924" lon="5.63877">
        <ele>715</ele>
        <time>2019-05-24T12:54:11Z</time>
      </trkpt>
      <trkpt lat="44.2292" lon="5.63881">
        <ele>715</ele>
        <time>2019-05-24T12:54:12Z</time>
      </trkpt>
      <trkpt lat="44.22916" lon="5.63886">
        <ele>715</ele>
        <time>2019-05-24T12:54:13Z</time>
      </trkpt>
      <trkpt lat="44.22912" lon="5.6389">
        <ele>715</ele>
        <time>2019-05-24T12:54:14Z</time>
      </trkpt>
      <trkpt lat="44.22908" lon="5.63894">
        <ele>715</ele>
        <time>2019-05-24T12:54:15Z</time>
      </trkpt>
      <trkpt lat="44.22904" lon="5.63899">
        <ele>715</ele>
        <time>2019-05-24T12:54:16Z</time>
      </trkpt>
      <trkpt lat="44.229" lon="5.63903">
        <ele>715</ele>
        <time>2019-05-24T12:54:17Z</time>
      </trkpt>
      <trkpt lat="44.22896" lon="5.63907">
        <ele>715</ele>
        <time>2019-05-24T12:54:18Z</time>
      </trkpt>
      <trkpt lat="44.22892" lon="5.6391">
        <ele>715</ele>
        <time>2019-05-24T12:54:19Z</time>
      </trkpt>
      <trkpt lat="44.22887" lon="5.63914">
        <ele>715</ele>
        <time>2019-05-24T12:54:20Z</time>
      </trkpt>
      <trkpt lat="44.22883" lon="5.63917">
        <ele>715</ele>
        <time>2019-05-24T12:54:21Z</time>
      </trkpt>
      <trkpt lat="44.22879" lon="5.63921">
        <ele>715</ele>
        <time>2019-05-24T12:54:22Z</time>
      </trkpt>
      <trkpt lat="44.22875" lon="5.63925">
        <ele>715</ele>
        <time>2019-05-24T12:54:23Z</time>
      </trkpt>
      <trkpt lat="44.22871" lon="5.63929">
        <ele>715</ele>
        <time>2019-05-24T12:54:24Z</time>
      </trkpt>
      <trkpt lat="44.22866" lon="5.63933">
        <ele>715</ele>
        <time>2019-05-24T12:54:25Z</time>
      </trkpt>
      <trkpt lat="44.22862" lon="5.63938">
        <ele>715</ele>
        <time>2019-05-24T12:54:26Z</time>
      </trkpt>
      <trkpt lat="44.22858" lon="5.63942">
        <ele>715</ele>
        <time>2019-05-24T12:54:27Z</time>
      </trkpt>
      <trkpt lat="44.22854" lon="5.63947">
        <ele>715</ele>
        <time>2019-05-24T12:54:28Z</time>
      </trkpt>
      <trkpt lat="44.2285" lon="5.63951">
        <ele>715</ele>
        <time>2019-05-24T12:54:29Z</time>
      </trkpt>
      <trkpt lat="44.22847" lon="5.63955">
        <ele>715</ele>
        <time>2019-05-24T12:54:30Z</time>
      </trkpt>
      <trkpt lat="44.22843" lon="5.6396">
        <ele>715</ele>
        <time>2019-05-24T12:54:31Z</time>
      </trkpt>
      <trkpt lat="44.22839" lon="5.63965">
        <ele>715</ele>
        <time>2019-05-24T12:54:32Z</time>
      </trkpt>
      <trkpt lat="44.22835" lon="5.63969">
        <ele>715</ele>
        <time>2019-05-24T12:54:33Z</time>
      </trkpt>
      <trkpt lat="44.22831" lon="5.63973">
        <ele>715</ele>
        <time>2019-05-24T12:54:34Z</time>
      </trkpt>
      <trkpt lat="44.22828" lon="5.63977">
        <ele>715</ele>
        <time>2019-05-24T12:54:35Z</time>
      </trkpt>
      <trkpt lat="44.22824" lon="5.63981">
        <ele>715</ele>
        <time>2019-05-24T12:54:36Z</time>
      </trkpt>
      <trkpt lat="44.2282" lon="5.63985">
        <ele>715</ele>
        <time>2019-05-24T12:54:37Z</time>
      </trkpt>
      <trkpt lat="44.22816" lon="5.6399">
        <ele>715</ele>
        <time>2019-05-24T12:54:38Z</time>
      </trkpt>
      <trkpt lat="44.22813" lon="5.63994">
        <ele>715</ele>
        <time>2019-05-24T12:54:39Z</time>
      </trkpt>
      <trkpt lat="44.22809" lon="5.63998">
        <ele>715</ele>
        <time>2019-05-24T12:54:40Z</time>
      </trkpt>
      <trkpt lat="44.22805" lon="5.64003">
        <ele>715</ele>
        <time>2019-05-24T12:54:41Z</time>
      </trkpt>
      <trkpt lat="44.22802" lon="5.64007">
        <ele>715</ele>
        <time>2019-05-24T12:54:42Z</time>
      </trkpt>
      <trkpt lat="44.22798" lon="5.64012">
        <ele>715</ele>
        <time>2019-05-24T12:54:43Z</time>
      </trkpt>
      <trkpt lat="44.22794" lon="5.64016">
        <ele>715</ele>
        <time>2019-05-24T12:54:44Z</time>
      </trkpt>
      <trkpt lat="44.22791" lon="5.64021">
        <ele>715</ele>
        <time>2019-05-24T12:54:45Z</time>
      </trkpt>
      <trkpt lat="44.22787" lon="5.64026">
        <ele>715</ele>
        <time>2019-05-24T12:54:46Z</time>
      </trkpt>
      <trkpt lat="44.22783" lon="5.64031">
        <ele>715</ele>
        <time>2019-05-24T12:54:47Z</time>
      </trkpt>
      <trkpt lat="44.22779" lon="5.64035">
        <ele>715</ele>
        <time>2019-05-24T12:54:48Z</time>
      </trkpt>
      <trkpt lat="44.22776" lon="5.6404">
        <ele>715</ele>
        <time>2019-05-24T12:54:49Z</time>
      </trkpt>
      <trkpt lat="44.22772" lon="5.64045">
        <ele>715</ele>
        <time>2019-05-24T12:54:50Z</time>
      </trkpt>
      <trkpt lat="44.22768" lon="5.6405">
        <ele>715</ele>
        <time>2019-05-24T12:54:51Z</time>
      </trkpt>
      <trkpt lat="44.22764" lon="5.64055">
        <ele>715</ele>
        <time>2019-05-24T12:54:52Z</time>
      </trkpt>
      <trkpt lat="44.22761" lon="5.6406">
        <ele>715</ele>
        <time>2019-05-24T12:54:53Z</time>
      </trkpt>
      <trkpt lat="44.22757" lon="5.64065">
        <ele>715</ele>
        <time>2019-05-24T12:54:54Z</time>
      </trkpt>
      <trkpt lat="44.22754" lon="5.64069">
        <ele>715</ele>
        <time>2019-05-24T12:54:55Z</time>
      </trkpt>
      <trkpt lat="44.22751" lon="5.64073">
        <ele>715</ele>
        <time>2019-05-24T12:54:56Z</time>
      </trkpt>
      <trkpt lat="44.22748" lon="5.64077">
        <ele>715</ele>
        <time>2019-05-24T12:54:57Z</time>
      </trkpt>
      <trkpt lat="44.22747" lon="5.64081">
        <ele>715</ele>
        <time>2019-05-24T12:54:58Z</time>
      </trkpt>
      <trkpt lat="44.22746" lon="5.64085">
        <ele>715</ele>
        <time>2019-05-24T12:54:59Z</time>
      </trkpt>
      <trkpt lat="44.22747" lon="5.64089">
        <ele>715</ele>
        <time>2019-05-24T12:55:00Z</time>
      </trkpt>
      <trkpt lat="44.22749" lon="5.64094">
        <ele>715</ele>
        <time>2019-05-24T12:55:01Z</time>
      </trkpt>
      <trkpt lat="44.22751" lon="5.641">
        <ele>715</ele>
        <time>2019-05-24T12:55:02Z</time>
      </trkpt>
      <trkpt lat="44.22753" lon="5.64106">
        <ele>715</ele>
        <time>2019-05-24T12:55:03Z</time>
      </trkpt>
      <trkpt lat="44.22755" lon="5.64113">
        <ele>715</ele>
        <time>2019-05-24T12:55:04Z</time>
      </trkpt>
      <trkpt lat="44.22757" lon="5.6412">
        <ele>715</ele>
        <time>2019-05-24T12:55:05Z</time>
      </trkpt>
      <trkpt lat="44.2276" lon="5.64127">
        <ele>715</ele>
        <time>2019-05-24T12:55:06Z</time>
      </trkpt>
      <trkpt lat="44.22762" lon="5.64135">
        <ele>715</ele>
        <time>2019-05-24T12:55:07Z</time>
      </trkpt>
      <trkpt lat="44.22765" lon="5.64142">
        <ele>715</ele>
        <time>2019-05-24T12:55:08Z</time>
      </trkpt>
      <trkpt lat="44.22767" lon="5.6415">
        <ele>715</ele>
        <time>2019-05-24T12:55:09Z</time>
      </trkpt>
      <trkpt lat="44.22768" lon="5.64157">
        <ele>715</ele>
        <time>2019-05-24T12:55:10Z</time>
      </trkpt>
      <trkpt lat="44.22767" lon="5.64165">
        <ele>715</ele>
        <time>2019-05-24T12:55:11Z</time>
      </trkpt>
      <trkpt lat="44.22765" lon="5.64172">
        <ele>715</ele>
        <time>2019-05-24T12:55:12Z</time>
      </trkpt>
      <trkpt lat="44.22763" lon="5.64179">
        <ele>715</ele>
        <time>2019-05-24T12:55:13Z</time>
      </trkpt>
      <trkpt lat="44.2276" lon="5.64186">
        <ele>715</ele>
        <time>2019-05-24T12:55:14Z</time>
      </trkpt>
      <trkpt lat="44.22758" lon="5.64193">
        <ele>715</ele>
        <time>2019-05-24T12:55:15Z</time>
      </trkpt>
      <trkpt lat="44.22756" lon="5.642">
        <ele>715</ele>
        <time>2019-05-24T12:55:16Z</time>
      </trkpt>
      <trkpt lat="44.22755" lon="5.64206">
        <ele>715</ele>
        <time>2019-05-24T12:55:17Z</time>
      </trkpt>
      <trkpt lat="44.22752" lon="5.64213">
        <ele>715</ele>
        <time>2019-05-24T12:55:18Z</time>
      </trkpt>
      <trkpt lat="44.22749" lon="5.64219">
        <ele>716</ele>
        <time>2019-05-24T12:55:19Z</time>
      </trkpt>
      <trkpt lat="44.22746" lon="5.64225">
        <ele>716</ele>
        <time>2019-05-24T12:55:20Z</time>
      </trkpt>
      <trkpt lat="44.22743" lon="5.6423">
        <ele>716</ele>
        <time>2019-05-24T12:55:21Z</time>
      </trkpt>
      <trkpt lat="44.22739" lon="5.64235">
        <ele>716</ele>
        <time>2019-05-24T12:55:22Z</time>
      </trkpt>
      <trkpt lat="44.22736" lon="5.6424">
        <ele>716</ele>
        <time>2019-05-24T12:55:23Z</time>
      </trkpt>
      <trkpt lat="44.22733" lon="5.64245">
        <ele>716</ele>
        <time>2019-05-24T12:55:24Z</time>
      </trkpt>
      <trkpt lat="44.22729" lon="5.6425">
        <ele>716</ele>
        <time>2019-05-24T12:55:25Z</time>
      </trkpt>
      <trkpt lat="44.22726" lon="5.64254">
        <ele>716</ele>
        <time>2019-05-24T12:55:26Z</time>
      </trkpt>
      <trkpt lat="44.22723" lon="5.64259">
        <ele>716</ele>
        <time>2019-05-24T12:55:27Z</time>
      </trkpt>
      <trkpt lat="44.22719" lon="5.64263">
        <ele>716</ele>
        <time>2019-05-24T12:55:28Z</time>
      </trkpt>
      <trkpt lat="44.22716" lon="5.64269">
        <ele>716</ele>
        <time>2019-05-24T12:55:29Z</time>
      </trkpt>
      <trkpt lat="44.22713" lon="5.64274">
        <ele>716</ele>
        <time>2019-05-24T12:55:30Z</time>
      </trkpt>
      <trkpt lat="44.2271" lon="5.6428">
        <ele>716</ele>
        <time>2019-05-24T12:55:31Z</time>
      </trkpt>
      <trkpt lat="44.22707" lon="5.64285">
        <ele>716</ele>
        <time>2019-05-24T12:55:32Z</time>
      </trkpt>
      <trkpt lat="44.22704" lon="5.64291">
        <ele>717</ele>
        <time>2019-05-24T12:55:33Z</time>
      </trkpt>
      <trkpt lat="44.22702" lon="5.64296">
        <ele>717</ele>
        <time>2019-05-24T12:55:34Z</time>
      </trkpt>
      <trkpt lat="44.22699" lon="5.64302">
        <ele>717</ele>
        <time>2019-05-24T12:55:35Z</time>
      </trkpt>
      <trkpt lat="44.22696" lon="5.64308">
        <ele>717</ele>
        <time>2019-05-24T12:55:36Z</time>
      </trkpt>
      <trkpt lat="44.22694" lon="5.64314">
        <ele>717</ele>
        <time>2019-05-24T12:55:37Z</time>
      </trkpt>
      <trkpt lat="44.22691" lon="5.6432">
        <ele>717</ele>
        <time>2019-05-24T12:55:38Z</time>
      </trkpt>
      <trkpt lat="44.22688" lon="5.64325">
        <ele>717</ele>
        <time>2019-05-24T12:55:39Z</time>
      </trkpt>
      <trkpt lat="44.22684" lon="5.6433">
        <ele>717</ele>
        <time>2019-05-24T12:55:40Z</time>
      </trkpt>
      <trkpt lat="44.22681" lon="5.64336">
        <ele>717</ele>
        <time>2019-05-24T12:55:41Z</time>
      </trkpt>
      <trkpt lat="44.22677" lon="5.64341">
        <ele>717</ele>
        <time>2019-05-24T12:55:42Z</time>
      </trkpt>
      <trkpt lat="44.22674" lon="5.64347">
        <ele>717</ele>
        <time>2019-05-24T12:55:43Z</time>
      </trkpt>
      <trkpt lat="44.22672" lon="5.64354">
        <ele>717</ele>
        <time>2019-05-24T12:55:44Z</time>
      </trkpt>
      <trkpt lat="44.22669" lon="5.64361">
        <ele>717</ele>
        <time>2019-05-24T12:55:45Z</time>
      </trkpt>
      <trkpt lat="44.22667" lon="5.64368">
        <ele>717</ele>
        <time>2019-05-24T12:55:46Z</time>
      </trkpt>
      <trkpt lat="44.22666" lon="5.64374">
        <ele>717</ele>
        <time>2019-05-24T12:55:47Z</time>
      </trkpt>
      <trkpt lat="44.22664" lon="5.6438">
        <ele>717</ele>
        <time>2019-05-24T12:55:48Z</time>
      </trkpt>
      <trkpt lat="44.22663" lon="5.64387">
        <ele>717</ele>
        <time>2019-05-24T12:55:49Z</time>
      </trkpt>
      <trkpt lat="44.22661" lon="5.64394">
        <ele>718</ele>
        <time>2019-05-24T12:55:50Z</time>
      </trkpt>
      <trkpt lat="44.2266" lon="5.644">
        <ele>718</ele>
        <time>2019-05-24T12:55:51Z</time>
      </trkpt>
      <trkpt lat="44.22658" lon="5.64407">
        <ele>718</ele>
        <time>2019-05-24T12:55:52Z</time>
      </trkpt>
      <trkpt lat="44.22657" lon="5.64414">
        <ele>718</ele>
        <time>2019-05-24T12:55:53Z</time>
      </trkpt>
      <trkpt lat="44.22655" lon="5.64421">
        <ele>719</ele>
        <time>2019-05-24T12:55:54Z</time>
      </trkpt>
      <trkpt lat="44.22653" lon="5.64427">
        <ele>719</ele>
        <time>2019-05-24T12:55:55Z</time>
      </trkpt>
      <trkpt lat="44.22652" lon="5.64434">
        <ele>719</ele>
        <time>2019-05-24T12:55:56Z</time>
      </trkpt>
      <trkpt lat="44.22651" lon="5.64441">
        <ele>719</ele>
        <time>2019-05-24T12:55:57Z</time>
      </trkpt>
      <trkpt lat="44.2265" lon="5.64447">
        <ele>719</ele>
        <time>2019-05-24T12:55:58Z</time>
      </trkpt>
      <trkpt lat="44.22649" lon="5.64453">
        <ele>720</ele>
        <time>2019-05-24T12:55:59Z</time>
      </trkpt>
      <trkpt lat="44.22647" lon="5.64459">
        <ele>720</ele>
        <time>2019-05-24T12:56:00Z</time>
      </trkpt>
      <trkpt lat="44.22647" lon="5.64465">
        <ele>720</ele>
        <time>2019-05-24T12:56:01Z</time>
      </trkpt>
      <trkpt lat="44.22646" lon="5.64471">
        <ele>720</ele>
        <time>2019-05-24T12:56:02Z</time>
      </trkpt>
      <trkpt lat="44.22645" lon="5.64477">
        <ele>720</ele>
        <time>2019-05-24T12:56:03Z</time>
      </trkpt>
      <trkpt lat="44.22644" lon="5.64483">
        <ele>720</ele>
        <time>2019-05-24T12:56:04Z</time>
      </trkpt>
      <trkpt lat="44.22643" lon="5.64491">
        <ele>720</ele>
        <time>2019-05-24T12:56:05Z</time>
      </trkpt>
      <trkpt lat="44.22641" lon="5.64497">
        <ele>720</ele>
        <time>2019-05-24T12:56:06Z</time>
      </trkpt>
      <trkpt lat="44.22638" lon="5.64503">
        <ele>720</ele>
        <time>2019-05-24T12:56:07Z</time>
      </trkpt>
      <trkpt lat="44.22636" lon="5.64509">
        <ele>720</ele>
        <time>2019-05-24T12:56:08Z</time>
      </trkpt>
      <trkpt lat="44.22635" lon="5.64515">
        <ele>721</ele>
        <time>2019-05-24T12:56:09Z</time>
      </trkpt>
      <trkpt lat="44.22634" lon="5.64522">
        <ele>721</ele>
        <time>2019-05-24T12:56:10Z</time>
      </trkpt>
      <trkpt lat="44.22635" lon="5.64528">
        <ele>721</ele>
        <time>2019-05-24T12:56:11Z</time>
      </trkpt>
      <trkpt lat="44.22638" lon="5.64534">
        <ele>721</ele>
        <time>2019-05-24T12:56:12Z</time>
      </trkpt>
      <trkpt lat="44.22641" lon="5.64539">
        <ele>722</ele>
        <time>2019-05-24T12:56:13Z</time>
      </trkpt>
      <trkpt lat="44.22644" lon="5.64543">
        <ele>723</ele>
        <time>2019-05-24T12:56:14Z</time>
      </trkpt>
      <trkpt lat="44.22648" lon="5.64547">
        <ele>723</ele>
        <time>2019-05-24T12:56:15Z</time>
      </trkpt>
      <trkpt lat="44.22652" lon="5.6455">
        <ele>724</ele>
        <time>2019-05-24T12:56:16Z</time>
      </trkpt>
      <trkpt lat="44.22656" lon="5.64553">
        <ele>724</ele>
        <time>2019-05-24T12:56:17Z</time>
      </trkpt>
      <trkpt lat="44.2266" lon="5.64556">
        <ele>725</ele>
        <time>2019-05-24T12:56:18Z</time>
      </trkpt>
      <trkpt lat="44.22665" lon="5.64557">
        <ele>725</ele>
        <time>2019-05-24T12:56:19Z</time>
      </trkpt>
      <trkpt lat="44.22668" lon="5.64558">
        <ele>726</ele>
        <time>2019-05-24T12:56:20Z</time>
      </trkpt>
      <trkpt lat="44.22672" lon="5.64559">
        <ele>727</ele>
        <time>2019-05-24T12:56:21Z</time>
      </trkpt>
      <trkpt lat="44.22674" lon="5.6456">
        <ele>727</ele>
        <time>2019-05-24T12:56:22Z</time>
      </trkpt>
      <trkpt lat="44.22677" lon="5.64563">
        <ele>727</ele>
        <time>2019-05-24T12:56:23Z</time>
      </trkpt>
      <trkpt lat="44.22679" lon="5.64567">
        <ele>728</ele>
        <time>2019-05-24T12:56:24Z</time>
      </trkpt>
      <trkpt lat="44.22679" lon="5.64572">
        <ele>728</ele>
        <time>2019-05-24T12:56:25Z</time>
      </trkpt>
      <trkpt lat="44.22678" lon="5.64577">
        <ele>728</ele>
        <time>2019-05-24T12:56:26Z</time>
      </trkpt>
      <trkpt lat="44.22677" lon="5.64582">
        <ele>728</ele>
        <time>2019-05-24T12:56:27Z</time>
      </trkpt>
      <trkpt lat="44.22677" lon="5.64588">
        <ele>728</ele>
        <time>2019-05-24T12:56:28Z</time>
      </trkpt>
      <trkpt lat="44.22676" lon="5.64594">
        <ele>728</ele>
        <time>2019-05-24T12:56:29Z</time>
      </trkpt>
      <trkpt lat="44.22675" lon="5.64601">
        <ele>728</ele>
        <time>2019-05-24T12:56:30Z</time>
      </trkpt>
      <trkpt lat="44.22674" lon="5.64607">
        <ele>728</ele>
        <time>2019-05-24T12:56:31Z</time>
      </trkpt>
      <trkpt lat="44.22673" lon="5.64614">
        <ele>728</ele>
        <time>2019-05-24T12:56:32Z</time>
      </trkpt>
      <trkpt lat="44.22672" lon="5.6462">
        <ele>728</ele>
        <time>2019-05-24T12:56:33Z</time>
      </trkpt>
      <trkpt lat="44.2267" lon="5.64627">
        <ele>728</ele>
        <time>2019-05-24T12:56:34Z</time>
      </trkpt>
      <trkpt lat="44.22668" lon="5.64634">
        <ele>728</ele>
        <time>2019-05-24T12:56:35Z</time>
      </trkpt>
      <trkpt lat="44.22666" lon="5.64641">
        <ele>728</ele>
        <time>2019-05-24T12:56:36Z</time>
      </trkpt>
      <trkpt lat="44.22664" lon="5.64647">
        <ele>728</ele>
        <time>2019-05-24T12:56:37Z</time>
      </trkpt>
      <trkpt lat="44.22662" lon="5.64653">
        <ele>728</ele>
        <time>2019-05-24T12:56:38Z</time>
      </trkpt>
      <trkpt lat="44.2266" lon="5.6466">
        <ele>728</ele>
        <time>2019-05-24T12:56:39Z</time>
      </trkpt>
      <trkpt lat="44.22657" lon="5.64666">
        <ele>728</ele>
        <time>2019-05-24T12:56:40Z</time>
      </trkpt>
      <trkpt lat="44.22654" lon="5.64672">
        <ele>728</ele>
        <time>2019-05-24T12:56:41Z</time>
      </trkpt>
      <trkpt lat="44.22652" lon="5.64678">
        <ele>728</ele>
        <time>2019-05-24T12:56:42Z</time>
      </trkpt>
      <trkpt lat="44.22648" lon="5.64684">
        <ele>728</ele>
        <time>2019-05-24T12:56:43Z</time>
      </trkpt>
      <trkpt lat="44.22645" lon="5.6469">
        <ele>728</ele>
        <time>2019-05-24T12:56:44Z</time>
      </trkpt>
      <trkpt lat="44.22641" lon="5.64696">
        <ele>728</ele>
        <time>2019-05-24T12:56:45Z</time>
      </trkpt>
      <trkpt lat="44.22638" lon="5.64702">
        <ele>728</ele>
        <time>2019-05-24T12:56:46Z</time>
      </trkpt>
      <trkpt lat="44.22635" lon="5.64707">
        <ele>728</ele>
        <time>2019-05-24T12:56:47Z</time>
      </trkpt>
      <trkpt lat="44.22631" lon="5.64713">
        <ele>728</ele>
        <time>2019-05-24T12:56:48Z</time>
      </trkpt>
      <trkpt lat="44.22628" lon="5.64718">
        <ele>728</ele>
        <time>2019-05-24T12:56:49Z</time>
      </trkpt>
      <trkpt lat="44.22625" lon="5.64723">
        <ele>728</ele>
        <time>2019-05-24T12:56:50Z</time>
      </trkpt>
      <trkpt lat="44.22621" lon="5.64728">
        <ele>728</ele>
        <time>2019-05-24T12:56:51Z</time>
      </trkpt>
      <trkpt lat="44.22618" lon="5.64734">
        <ele>729</ele>
        <time>2019-05-24T12:56:52Z</time>
      </trkpt>
      <trkpt lat="44.22615" lon="5.6474">
        <ele>729</ele>
        <time>2019-05-24T12:56:53Z</time>
      </trkpt>
      <trkpt lat="44.22612" lon="5.64745">
        <ele>729</ele>
        <time>2019-05-24T12:56:54Z</time>
      </trkpt>
      <trkpt lat="44.22609" lon="5.6475">
        <ele>730</ele>
        <time>2019-05-24T12:56:55Z</time>
      </trkpt>
      <trkpt lat="44.22607" lon="5.64755">
        <ele>730</ele>
        <time>2019-05-24T12:56:56Z</time>
      </trkpt>
      <trkpt lat="44.22604" lon="5.6476">
        <ele>730</ele>
        <time>2019-05-24T12:56:57Z</time>
      </trkpt>
      <trkpt lat="44.22602" lon="5.64766">
        <ele>730</ele>
        <time>2019-05-24T12:56:58Z</time>
      </trkpt>
      <trkpt lat="44.226" lon="5.64773">
        <ele>730</ele>
        <time>2019-05-24T12:56:59Z</time>
      </trkpt>
      <trkpt lat="44.22598" lon="5.6478">
        <ele>730</ele>
        <time>2019-05-24T12:57:00Z</time>
      </trkpt>
      <trkpt lat="44.22596" lon="5.64786">
        <ele>730</ele>
        <time>2019-05-24T12:57:01Z</time>
      </trkpt>
      <trkpt lat="44.22595" lon="5.64794">
        <ele>730</ele>
        <time>2019-05-24T12:57:02Z</time>
      </trkpt>
      <trkpt lat="44.22595" lon="5.648">
        <ele>730</ele>
        <time>2019-05-24T12:57:03Z</time>
      </trkpt>
      <trkpt lat="44.22595" lon="5.64807">
        <ele>730</ele>
        <time>2019-05-24T12:57:04Z</time>
      </trkpt>
      <trkpt lat="44.22595" lon="5.64814">
        <ele>730</ele>
        <time>2019-05-24T12:57:05Z</time>
      </trkpt>
      <trkpt lat="44.22595" lon="5.6482">
        <ele>730</ele>
        <time>2019-05-24T12:57:06Z</time>
      </trkpt>
      <trkpt lat="44.22595" lon="5.64827">
        <ele>730</ele>
        <time>2019-05-24T12:57:07Z</time>
      </trkpt>
      <trkpt lat="44.22594" lon="5.64834">
        <ele>730</ele>
        <time>2019-05-24T12:57:08Z</time>
      </trkpt>
      <trkpt lat="44.22594" lon="5.64842">
        <ele>731</ele>
        <time>2019-05-24T12:57:09Z</time>
      </trkpt>
      <trkpt lat="44.22594" lon="5.64849">
        <ele>731</ele>
        <time>2019-05-24T12:57:10Z</time>
      </trkpt>
      <trkpt lat="44.22594" lon="5.64856">
        <ele>731</ele>
        <time>2019-05-24T12:57:11Z</time>
      </trkpt>
      <trkpt lat="44.22594" lon="5.64864">
        <ele>731</ele>
        <time>2019-05-24T12:57:12Z</time>
      </trkpt>
      <trkpt lat="44.22594" lon="5.64872">
        <ele>731</ele>
        <time>2019-05-24T12:57:13Z</time>
      </trkpt>
      <trkpt lat="44.22594" lon="5.64879">
        <ele>731</ele>
        <time>2019-05-24T12:57:14Z</time>
      </trkpt>
      <trkpt lat="44.22594" lon="5.64887">
        <ele>731</ele>
        <time>2019-05-24T12:57:15Z</time>
      </trkpt>
      <trkpt lat="44.22594" lon="5.64895">
        <ele>731</ele>
        <time>2019-05-24T12:57:16Z</time>
      </trkpt>
      <trkpt lat="44.22594" lon="5.64902">
        <ele>732</ele>
        <time>2019-05-24T12:57:17Z</time>
      </trkpt>
      <trkpt lat="44.22593" lon="5.6491">
        <ele>732</ele>
        <time>2019-05-24T12:57:18Z</time>
      </trkpt>
      <trkpt lat="44.22593" lon="5.64918">
        <ele>732</ele>
        <time>2019-05-24T12:57:19Z</time>
      </trkpt>
      <trkpt lat="44.22592" lon="5.64925">
        <ele>732</ele>
        <time>2019-05-24T12:57:20Z</time>
      </trkpt>
      <trkpt lat="44.22591" lon="5.64933">
        <ele>732</ele>
        <time>2019-05-24T12:57:21Z</time>
      </trkpt>
      <trkpt lat="44.22589" lon="5.6494">
        <ele>732</ele>
        <time>2019-05-24T12:57:22Z</time>
      </trkpt>
      <trkpt lat="44.22587" lon="5.64947">
        <ele>732</ele>
        <time>2019-05-24T12:57:23Z</time>
      </trkpt>
      <trkpt lat="44.22586" lon="5.64955">
        <ele>732</ele>
        <time>2019-05-24T12:57:24Z</time>
      </trkpt>
      <trkpt lat="44.22584" lon="5.64961">
        <ele>732</ele>
        <time>2019-05-24T12:57:25Z</time>
      </trkpt>
      <trkpt lat="44.22582" lon="5.64968">
        <ele>732</ele>
        <time>2019-05-24T12:57:26Z</time>
      </trkpt>
      <trkpt lat="44.2258" lon="5.64975">
        <ele>732</ele>
        <time>2019-05-24T12:57:27Z</time>
      </trkpt>
      <trkpt lat="44.22578" lon="5.64982">
        <ele>732</ele>
        <time>2019-05-24T12:57:28Z</time>
      </trkpt>
      <trkpt lat="44.22576" lon="5.64989">
        <ele>732</ele>
        <time>2019-05-24T12:57:29Z</time>
      </trkpt>
      <trkpt lat="44.22574" lon="5.64995">
        <ele>732</ele>
        <time>2019-05-24T12:57:30Z</time>
      </trkpt>
      <trkpt lat="44.22572" lon="5.65002">
        <ele>732</ele>
        <time>2019-05-24T12:57:31Z</time>
      </trkpt>
      <trkpt lat="44.22569" lon="5.65009">
        <ele>732</ele>
        <time>2019-05-24T12:57:32Z</time>
      </trkpt>
      <trkpt lat="44.22567" lon="5.65015">
        <ele>732</ele>
        <time>2019-05-24T12:57:33Z</time>
      </trkpt>
      <trkpt lat="44.22564" lon="5.65022">
        <ele>733</ele>
        <time>2019-05-24T12:57:34Z</time>
      </trkpt>
      <trkpt lat="44.22562" lon="5.65028">
        <ele>733</ele>
        <time>2019-05-24T12:57:35Z</time>
      </trkpt>
      <trkpt lat="44.22559" lon="5.65034">
        <ele>733</ele>
        <time>2019-05-24T12:57:36Z</time>
      </trkpt>
      <trkpt lat="44.22557" lon="5.6504">
        <ele>734</ele>
        <time>2019-05-24T12:57:37Z</time>
      </trkpt>
      <trkpt lat="44.22554" lon="5.65046">
        <ele>734</ele>
        <time>2019-05-24T12:57:38Z</time>
      </trkpt>
      <trkpt lat="44.22551" lon="5.65052">
        <ele>734</ele>
        <time>2019-05-24T12:57:39Z</time>
      </trkpt>
      <trkpt lat="44.22549" lon="5.65058">
        <ele>734</ele>
        <time>2019-05-24T12:57:40Z</time>
      </trkpt>
      <trkpt lat="44.22547" lon="5.65064">
        <ele>734</ele>
        <time>2019-05-24T12:57:41Z</time>
      </trkpt>
      <trkpt lat="44.22545" lon="5.65071">
        <ele>735</ele>
        <time>2019-05-24T12:57:42Z</time>
      </trkpt>
      <trkpt lat="44.22543" lon="5.65077">
        <ele>735</ele>
        <time>2019-05-24T12:57:43Z</time>
      </trkpt>
      <trkpt lat="44.22542" lon="5.65084">
        <ele>735</ele>
        <time>2019-05-24T12:57:44Z</time>
      </trkpt>
      <trkpt lat="44.22541" lon="5.6509">
        <ele>735</ele>
        <time>2019-05-24T12:57:45Z</time>
      </trkpt>
      <trkpt lat="44.2254" lon="5.65097">
        <ele>735</ele>
        <time>2019-05-24T12:57:46Z</time>
      </trkpt>
      <trkpt lat="44.22538" lon="5.65103">
        <ele>735</ele>
        <time>2019-05-24T12:57:47Z</time>
      </trkpt>
      <trkpt lat="44.22537" lon="5.65109">
        <ele>735</ele>
        <time>2019-05-24T12:57:48Z</time>
      </trkpt>
      <trkpt lat="44.22536" lon="5.65116">
        <ele>735</ele>
        <time>2019-05-24T12:57:49Z</time>
      </trkpt>
      <trkpt lat="44.22535" lon="5.65123">
        <ele>735</ele>
        <time>2019-05-24T12:57:50Z</time>
      </trkpt>
      <trkpt lat="44.22534" lon="5.6513">
        <ele>735</ele>
        <time>2019-05-24T12:57:51Z</time>
      </trkpt>
      <trkpt lat="44.22533" lon="5.65137">
        <ele>735</ele>
        <time>2019-05-24T12:57:52Z</time>
      </trkpt>
      <trkpt lat="44.22532" lon="5.65144">
        <ele>735</ele>
        <time>2019-05-24T12:57:53Z</time>
      </trkpt>
      <trkpt lat="44.22532" lon="5.6515">
        <ele>735</ele>
        <time>2019-05-24T12:57:54Z</time>
      </trkpt>
      <trkpt lat="44.22531" lon="5.65157">
        <ele>735</ele>
        <time>2019-05-24T12:57:55Z</time>
      </trkpt>
      <trkpt lat="44.2253" lon="5.65163">
        <ele>735</ele>
        <time>2019-05-24T12:57:56Z</time>
      </trkpt>
      <trkpt lat="44.22528" lon="5.6517">
        <ele>735</ele>
        <time>2019-05-24T12:57:57Z</time>
      </trkpt>
      <trkpt lat="44.22526" lon="5.65177">
        <ele>735</ele>
        <time>2019-05-24T12:57:58Z</time>
      </trkpt>
      <trkpt lat="44.22524" lon="5.65184">
        <ele>735</ele>
        <time>2019-05-24T12:57:59Z</time>
      </trkpt>
      <trkpt lat="44.22522" lon="5.65191">
        <ele>735</ele>
        <time>2019-05-24T12:58:00Z</time>
      </trkpt>
      <trkpt lat="44.2252" lon="5.65197">
        <ele>735</ele>
        <time>2019-05-24T12:58:01Z</time>
      </trkpt>
      <trkpt lat="44.22518" lon="5.65204">
        <ele>735</ele>
        <time>2019-05-24T12:58:02Z</time>
      </trkpt>
      <trkpt lat="44.22515" lon="5.6521">
        <ele>735</ele>
        <time>2019-05-24T12:58:03Z</time>
      </trkpt>
      <trkpt lat="44.22513" lon="5.65216">
        <ele>735</ele>
        <time>2019-05-24T12:58:04Z</time>
      </trkpt>
      <trkpt lat="44.22511" lon="5.65223">
        <ele>735</ele>
        <time>2019-05-24T12:58:05Z</time>
      </trkpt>
      <trkpt lat="44.22508" lon="5.65229">
        <ele>735</ele>
        <time>2019-05-24T12:58:06Z</time>
      </trkpt>
      <trkpt lat="44.22505" lon="5.65235">
        <ele>735</ele>
        <time>2019-05-24T12:58:07Z</time>
      </trkpt>
      <trkpt lat="44.22502" lon="5.65241">
        <ele>735</ele>
        <time>2019-05-24T12:58:08Z</time>
      </trkpt>
      <trkpt lat="44.22499" lon="5.65247">
        <ele>735</ele>
        <time>2019-05-24T12:58:09Z</time>
      </trkpt>
      <trkpt lat="44.22495" lon="5.65253">
        <ele>735</ele>
        <time>2019-05-24T12:58:10Z</time>
      </trkpt>
      <trkpt lat="44.22492" lon="5.6526">
        <ele>735</ele>
        <time>2019-05-24T12:58:11Z</time>
      </trkpt>
      <trkpt lat="44.22488" lon="5.65265">
        <ele>735</ele>
        <time>2019-05-24T12:58:12Z</time>
      </trkpt>
      <trkpt lat="44.22485" lon="5.6527">
        <ele>735</ele>
        <time>2019-05-24T12:58:13Z</time>
      </trkpt>
      <trkpt lat="44.22482" lon="5.65274">
        <ele>735</ele>
        <time>2019-05-24T12:58:14Z</time>
      </trkpt>
      <trkpt lat="44.22478" lon="5.65278">
        <ele>735</ele>
        <time>2019-05-24T12:58:15Z</time>
      </trkpt>
      <trkpt lat="44.22475" lon="5.65282">
        <ele>735</ele>
        <time>2019-05-24T12:58:16Z</time>
      </trkpt>
      <trkpt lat="44.22472" lon="5.65287">
        <ele>735</ele>
        <time>2019-05-24T12:58:17Z</time>
      </trkpt>
      <trkpt lat="44.22469" lon="5.65291">
        <ele>735</ele>
        <time>2019-05-24T12:58:18Z</time>
      </trkpt>
      <trkpt lat="44.22466" lon="5.65296">
        <ele>734</ele>
        <time>2019-05-24T12:58:19Z</time>
      </trkpt>
      <trkpt lat="44.22464" lon="5.653">
        <ele>734</ele>
        <time>2019-05-24T12:58:20Z</time>
      </trkpt>
      <trkpt lat="44.22461" lon="5.65305">
        <ele>734</ele>
        <time>2019-05-24T12:58:21Z</time>
      </trkpt>
      <trkpt lat="44.22459" lon="5.6531">
        <ele>734</ele>
        <time>2019-05-24T12:58:22Z</time>
      </trkpt>
      <trkpt lat="44.22457" lon="5.65314">
        <ele>734</ele>
        <time>2019-05-24T12:58:23Z</time>
      </trkpt>
      <trkpt lat="44.22455" lon="5.6532">
        <ele>734</ele>
        <time>2019-05-24T12:58:24Z</time>
      </trkpt>
      <trkpt lat="44.22454" lon="5.65325">
        <ele>734</ele>
        <time>2019-05-24T12:58:25Z</time>
      </trkpt>
      <trkpt lat="44.22453" lon="5.65331">
        <ele>734</ele>
        <time>2019-05-24T12:58:26Z</time>
      </trkpt>
      <trkpt lat="44.22452" lon="5.65337">
        <ele>734</ele>
        <time>2019-05-24T12:58:27Z</time>
      </trkpt>
      <trkpt lat="44.2245" lon="5.65343">
        <ele>734</ele>
        <time>2019-05-24T12:58:28Z</time>
      </trkpt>
      <trkpt lat="44.22449" lon="5.65349">
        <ele>735</ele>
        <time>2019-05-24T12:58:29Z</time>
      </trkpt>
      <trkpt lat="44.22448" lon="5.65355">
        <ele>736</ele>
        <time>2019-05-24T12:58:30Z</time>
      </trkpt>
      <trkpt lat="44.22448" lon="5.65361">
        <ele>737</ele>
        <time>2019-05-24T12:58:31Z</time>
      </trkpt>
      <trkpt lat="44.22447" lon="5.65367">
        <ele>738</ele>
        <time>2019-05-24T12:58:32Z</time>
      </trkpt>
      <trkpt lat="44.22446" lon="5.65372">
        <ele>739</ele>
        <time>2019-05-24T12:58:33Z</time>
      </trkpt>
      <trkpt lat="44.22446" lon="5.65378">
        <ele>740</ele>
        <time>2019-05-24T12:58:34Z</time>
      </trkpt>
      <trkpt lat="44.22446" lon="5.65383">
        <ele>741</ele>
        <time>2019-05-24T12:58:35Z</time>
      </trkpt>
      <trkpt lat="44.22445" lon="5.65388">
        <ele>741</ele>
        <time>2019-05-24T12:58:36Z</time>
      </trkpt>
      <trkpt lat="44.22444" lon="5.65394">
        <ele>741</ele>
        <time>2019-05-24T12:58:37Z</time>
      </trkpt>
      <trkpt lat="44.22443" lon="5.654">
        <ele>742</ele>
        <time>2019-05-24T12:58:38Z</time>
      </trkpt>
      <trkpt lat="44.22443" lon="5.65405">
        <ele>742</ele>
        <time>2019-05-24T12:58:39Z</time>
      </trkpt>
      <trkpt lat="44.22442" lon="5.6541">
        <ele>742</ele>
        <time>2019-05-24T12:58:40Z</time>
      </trkpt>
      <trkpt lat="44.22441" lon="5.65415">
        <ele>742</ele>
        <time>2019-05-24T12:58:41Z</time>
      </trkpt>
      <trkpt lat="44.22441" lon="5.6542">
        <ele>743</ele>
        <time>2019-05-24T12:58:42Z</time>
      </trkpt>
      <trkpt lat="44.2244" lon="5.65426">
        <ele>743</ele>
        <time>2019-05-24T12:58:43Z</time>
      </trkpt>
      <trkpt lat="44.2244" lon="5.65431">
        <ele>743</ele>
        <time>2019-05-24T12:58:44Z</time>
      </trkpt>
      <trkpt lat="44.22439" lon="5.65437">
        <ele>743</ele>
        <time>2019-05-24T12:58:45Z</time>
      </trkpt>
      <trkpt lat="44.22438" lon="5.65443">
        <ele>743</ele>
        <time>2019-05-24T12:58:46Z</time>
      </trkpt>
      <trkpt lat="44.22437" lon="5.65449">
        <ele>743</ele>
        <time>2019-05-24T12:58:47Z</time>
      </trkpt>
      <trkpt lat="44.22436" lon="5.65455">
        <ele>743</ele>
        <time>2019-05-24T12:58:48Z</time>
      </trkpt>
      <trkpt lat="44.22435" lon="5.65461">
        <ele>743</ele>
        <time>2019-05-24T12:58:49Z</time>
      </trkpt>
      <trkpt lat="44.22433" lon="5.65468">
        <ele>743</ele>
        <time>2019-05-24T12:58:50Z</time>
      </trkpt>
      <trkpt lat="44.22431" lon="5.65475">
        <ele>743</ele>
        <time>2019-05-24T12:58:51Z</time>
      </trkpt>
      <trkpt lat="44.2243" lon="5.65483">
        <ele>743</ele>
        <time>2019-05-24T12:58:52Z</time>
      </trkpt>
      <trkpt lat="44.22428" lon="5.6549">
        <ele>743</ele>
        <time>2019-05-24T12:58:53Z</time>
      </trkpt>
      <trkpt lat="44.22426" lon="5.65498">
        <ele>743</ele>
        <time>2019-05-24T12:58:54Z</time>
      </trkpt>
      <trkpt lat="44.22424" lon="5.65507">
        <ele>743</ele>
        <time>2019-05-24T12:58:55Z</time>
      </trkpt>
      <trkpt lat="44.22422" lon="5.65515">
        <ele>743</ele>
        <time>2019-05-24T12:58:56Z</time>
      </trkpt>
      <trkpt lat="44.22419" lon="5.65523">
        <ele>743</ele>
        <time>2019-05-24T12:58:57Z</time>
      </trkpt>
      <trkpt lat="44.22417" lon="5.65531">
        <ele>743</ele>
        <time>2019-05-24T12:58:58Z</time>
      </trkpt>
      <trkpt lat="44.22415" lon="5.65539">
        <ele>743</ele>
        <time>2019-05-24T12:58:59Z</time>
      </trkpt>
      <trkpt lat="44.22414" lon="5.65547">
        <ele>743</ele>
        <time>2019-05-24T12:59:00Z</time>
      </trkpt>
      <trkpt lat="44.22412" lon="5.65554">
        <ele>743</ele>
        <time>2019-05-24T12:59:01Z</time>
      </trkpt>
      <trkpt lat="44.22411" lon="5.65562">
        <ele>743</ele>
        <time>2019-05-24T12:59:02Z</time>
      </trkpt>
      <trkpt lat="44.22411" lon="5.6557">
        <ele>743</ele>
        <time>2019-05-24T12:59:03Z</time>
      </trkpt>
      <trkpt lat="44.22411" lon="5.65578">
        <ele>743</ele>
        <time>2019-05-24T12:59:04Z</time>
      </trkpt>
      <trkpt lat="44.22411" lon="5.65586">
        <ele>743</ele>
        <time>2019-05-24T12:59:05Z</time>
      </trkpt>
      <trkpt lat="44.22412" lon="5.65593">
        <ele>743</ele>
        <time>2019-05-24T12:59:06Z</time>
      </trkpt>
      <trkpt lat="44.22413" lon="5.656">
        <ele>743</ele>
        <time>2019-05-24T12:59:07Z</time>
      </trkpt>
      <trkpt lat="44.22414" lon="5.65607">
        <ele>743</ele>
        <time>2019-05-24T12:59:08Z</time>
      </trkpt>
      <trkpt lat="44.22415" lon="5.65614">
        <ele>743</ele>
        <time>2019-05-24T12:59:09Z</time>
      </trkpt>
      <trkpt lat="44.22416" lon="5.6562">
        <ele>743</ele>
        <time>2019-05-24T12:59:10Z</time>
      </trkpt>
      <trkpt lat="44.22418" lon="5.65626">
        <ele>743</ele>
        <time>2019-05-24T12:59:11Z</time>
      </trkpt>
      <trkpt lat="44.22419" lon="5.65632">
        <ele>743</ele>
        <time>2019-05-24T12:59:12Z</time>
      </trkpt>
      <trkpt lat="44.22421" lon="5.65638">
        <ele>743</ele>
        <time>2019-05-24T12:59:13Z</time>
      </trkpt>
      <trkpt lat="44.22422" lon="5.65645">
        <ele>743</ele>
        <time>2019-05-24T12:59:14Z</time>
      </trkpt>
      <trkpt lat="44.22423" lon="5.65652">
        <ele>743</ele>
        <time>2019-05-24T12:59:15Z</time>
      </trkpt>
      <trkpt lat="44.22425" lon="5.65658">
        <ele>743</ele>
        <time>2019-05-24T12:59:16Z</time>
      </trkpt>
      <trkpt lat="44.22426" lon="5.65665">
        <ele>743</ele>
        <time>2019-05-24T12:59:17Z</time>
      </trkpt>
      <trkpt lat="44.22427" lon="5.65671">
        <ele>743</ele>
        <time>2019-05-24T12:59:18Z</time>
      </trkpt>
      <trkpt lat="44.22428" lon="5.65678">
        <ele>743</ele>
        <time>2019-05-24T12:59:19Z</time>
      </trkpt>
      <trkpt lat="44.22429" lon="5.65685">
        <ele>743</ele>
        <time>2019-05-24T12:59:20Z</time>
      </trkpt>
      <trkpt lat="44.22429" lon="5.65692">
        <ele>743</ele>
        <time>2019-05-24T12:59:21Z</time>
      </trkpt>
      <trkpt lat="44.22428" lon="5.65698">
        <ele>743</ele>
        <time>2019-05-24T12:59:22Z</time>
      </trkpt>
      <trkpt lat="44.22428" lon="5.65706">
        <ele>743</ele>
        <time>2019-05-24T12:59:23Z</time>
      </trkpt>
      <trkpt lat="44.22427" lon="5.65713">
        <ele>743</ele>
        <time>2019-05-24T12:59:24Z</time>
      </trkpt>
      <trkpt lat="44.22427" lon="5.6572">
        <ele>743</ele>
        <time>2019-05-24T12:59:25Z</time>
      </trkpt>
      <trkpt lat="44.22426" lon="5.65728">
        <ele>743</ele>
        <time>2019-05-24T12:59:26Z</time>
      </trkpt>
      <trkpt lat="44.22424" lon="5.65735">
        <ele>743</ele>
        <time>2019-05-24T12:59:27Z</time>
      </trkpt>
      <trkpt lat="44.22423" lon="5.65742">
        <ele>743</ele>
        <time>2019-05-24T12:59:28Z</time>
      </trkpt>
      <trkpt lat="44.22422" lon="5.6575">
        <ele>743</ele>
        <time>2019-05-24T12:59:29Z</time>
      </trkpt>
      <trkpt lat="44.22421" lon="5.65757">
        <ele>743</ele>
        <time>2019-05-24T12:59:30Z</time>
      </trkpt>
      <trkpt lat="44.22419" lon="5.65764">
        <ele>743</ele>
        <time>2019-05-24T12:59:31Z</time>
      </trkpt>
      <trkpt lat="44.22418" lon="5.6577">
        <ele>743</ele>
        <time>2019-05-24T12:59:32Z</time>
      </trkpt>
      <trkpt lat="44.22417" lon="5.65777">
        <ele>743</ele>
        <time>2019-05-24T12:59:33Z</time>
      </trkpt>
      <trkpt lat="44.22416" lon="5.65784">
        <ele>743</ele>
        <time>2019-05-24T12:59:34Z</time>
      </trkpt>
      <trkpt lat="44.22414" lon="5.6579">
        <ele>743</ele>
        <time>2019-05-24T12:59:35Z</time>
      </trkpt>
      <trkpt lat="44.22413" lon="5.65797">
        <ele>743</ele>
        <time>2019-05-24T12:59:36Z</time>
      </trkpt>
      <trkpt lat="44.22411" lon="5.65803">
        <ele>743</ele>
        <time>2019-05-24T12:59:37Z</time>
      </trkpt>
      <trkpt lat="44.22409" lon="5.65809">
        <ele>743</ele>
        <time>2019-05-24T12:59:38Z</time>
      </trkpt>
      <trkpt lat="44.22407" lon="5.65815">
        <ele>743</ele>
        <time>2019-05-24T12:59:39Z</time>
      </trkpt>
      <trkpt lat="44.22406" lon="5.65822">
        <ele>743</ele>
        <time>2019-05-24T12:59:40Z</time>
      </trkpt>
      <trkpt lat="44.22404" lon="5.65828">
        <ele>743</ele>
        <time>2019-05-24T12:59:41Z</time>
      </trkpt>
      <trkpt lat="44.22403" lon="5.65835">
        <ele>743</ele>
        <time>2019-05-24T12:59:42Z</time>
      </trkpt>
      <trkpt lat="44.22402" lon="5.65841">
        <ele>743</ele>
        <time>2019-05-24T12:59:43Z</time>
      </trkpt>
      <trkpt lat="44.22401" lon="5.65848">
        <ele>743</ele>
        <time>2019-05-24T12:59:44Z</time>
      </trkpt>
      <trkpt lat="44.22401" lon="5.65855">
        <ele>743</ele>
        <time>2019-05-24T12:59:45Z</time>
      </trkpt>
      <trkpt lat="44.224" lon="5.65862">
        <ele>743</ele>
        <time>2019-05-24T12:59:46Z</time>
      </trkpt>
      <trkpt lat="44.224" lon="5.65869">
        <ele>743</ele>
        <time>2019-05-24T12:59:47Z</time>
      </trkpt>
      <trkpt lat="44.224" lon="5.65875">
        <ele>743</ele>
        <time>2019-05-24T12:59:48Z</time>
      </trkpt>
      <trkpt lat="44.22401" lon="5.65882">
        <ele>743</ele>
        <time>2019-05-24T12:59:49Z</time>
      </trkpt>
      <trkpt lat="44.22401" lon="5.65889">
        <ele>743</ele>
        <time>2019-05-24T12:59:50Z</time>
      </trkpt>
      <trkpt lat="44.22402" lon="5.65895">
        <ele>743</ele>
        <time>2019-05-24T12:59:51Z</time>
      </trkpt>
      <trkpt lat="44.22403" lon="5.65901">
        <ele>743</ele>
        <time>2019-05-24T12:59:52Z</time>
      </trkpt>
      <trkpt lat="44.22404" lon="5.65907">
        <ele>743</ele>
        <time>2019-05-24T12:59:53Z</time>
      </trkpt>
      <trkpt lat="44.22406" lon="5.65913">
        <ele>744</ele>
        <time>2019-05-24T12:59:54Z</time>
      </trkpt>
      <trkpt lat="44.22407" lon="5.65919">
        <ele>744</ele>
        <time>2019-05-24T12:59:55Z</time>
      </trkpt>
      <trkpt lat="44.22409" lon="5.65924">
        <ele>744</ele>
        <time>2019-05-24T12:59:56Z</time>
      </trkpt>
      <trkpt lat="44.2241" lon="5.65929">
        <ele>745</ele>
        <time>2019-05-24T12:59:57Z</time>
      </trkpt>
      <trkpt lat="44.22412" lon="5.65934">
        <ele>745</ele>
        <time>2019-05-24T12:59:58Z</time>
      </trkpt>
      <trkpt lat="44.22414" lon="5.65939">
        <ele>745</ele>
        <time>2019-05-24T12:59:59Z</time>
      </trkpt>
      <trkpt lat="44.22415" lon="5.65944">
        <ele>746</ele>
        <time>2019-05-24T13:00:00Z</time>
      </trkpt>
      <trkpt lat="44.22416" lon="5.6595">
        <ele>746</ele>
        <time>2019-05-24T13:00:01Z</time>
      </trkpt>
      <trkpt lat="44.22417" lon="5.65955">
        <ele>747</ele>
        <time>2019-05-24T13:00:02Z</time>
      </trkpt>
      <trkpt lat="44.22419" lon="5.6596">
        <ele>747</ele>
        <time>2019-05-24T13:00:03Z</time>
      </trkpt>
      <trkpt lat="44.22419" lon="5.65966">
        <ele>747</ele>
        <time>2019-05-24T13:00:04Z</time>
      </trkpt>
      <trkpt lat="44.22421" lon="5.65971">
        <ele>747</ele>
        <time>2019-05-24T13:00:05Z</time>
      </trkpt>
      <trkpt lat="44.22421" lon="5.65976">
        <ele>747</ele>
        <time>2019-05-24T13:00:06Z</time>
      </trkpt>
      <trkpt lat="44.22422" lon="5.6598">
        <ele>747</ele>
        <time>2019-05-24T13:00:07Z</time>
      </trkpt>
      <trkpt lat="44.22422" lon="5.65984">
        <ele>747</ele>
        <time>2019-05-24T13:00:08Z</time>
      </trkpt>
      <trkpt lat="44.22422" lon="5.65989">
        <ele>747</ele>
        <time>2019-05-24T13:00:09Z</time>
      </trkpt>
      <trkpt lat="44.22421" lon="5.65994">
        <ele>748</ele>
        <time>2019-05-24T13:00:10Z</time>
      </trkpt>
      <trkpt lat="44.22421" lon="5.65999">
        <ele>748</ele>
        <time>2019-05-24T13:00:11Z</time>
      </trkpt>
      <trkpt lat="44.2242" lon="5.66004">
        <ele>748</ele>
        <time>2019-05-24T13:00:12Z</time>
      </trkpt>
      <trkpt lat="44.22419" lon="5.66008">
        <ele>749</ele>
        <time>2019-05-24T13:00:13Z</time>
      </trkpt>
      <trkpt lat="44.22417" lon="5.66013">
        <ele>749</ele>
        <time>2019-05-24T13:00:14Z</time>
      </trkpt>
      <trkpt lat="44.22414" lon="5.66016">
        <ele>749</ele>
        <time>2019-05-24T13:00:15Z</time>
      </trkpt>
      <trkpt lat="44.22412" lon="5.6602">
        <ele>749</ele>
        <time>2019-05-24T13:00:16Z</time>
      </trkpt>
      <trkpt lat="44.22409" lon="5.66023">
        <ele>750</ele>
        <time>2019-05-24T13:00:17Z</time>
      </trkpt>
      <trkpt lat="44.22406" lon="5.66026">
        <ele>750</ele>
        <time>2019-05-24T13:00:18Z</time>
      </trkpt>
      <trkpt lat="44.22403" lon="5.66029">
        <ele>750</ele>
        <time>2019-05-24T13:00:19Z</time>
      </trkpt>
      <trkpt lat="44.22399" lon="5.66032">
        <ele>750</ele>
        <time>2019-05-24T13:00:20Z</time>
      </trkpt>
      <trkpt lat="44.22395" lon="5.66034">
        <ele>750</ele>
        <time>2019-05-24T13:00:21Z</time>
      </trkpt>
      <trkpt lat="44.22392" lon="5.66036">
        <ele>750</ele>
        <time>2019-05-24T13:00:22Z</time>
      </trkpt>
      <trkpt lat="44.22388" lon="5.66039">
        <ele>750</ele>
        <time>2019-05-24T13:00:23Z</time>
      </trkpt>
      <trkpt lat="44.22384" lon="5.66041">
        <ele>750</ele>
        <time>2019-05-24T13:00:24Z</time>
      </trkpt>
      <trkpt lat="44.2238" lon="5.66044">
        <ele>750</ele>
        <time>2019-05-24T13:00:25Z</time>
      </trkpt>
      <trkpt lat="44.22377" lon="5.66047">
        <ele>751</ele>
        <time>2019-05-24T13:00:26Z</time>
      </trkpt>
      <trkpt lat="44.22374" lon="5.6605">
        <ele>751</ele>
        <time>2019-05-24T13:00:27Z</time>
      </trkpt>
      <trkpt lat="44.22371" lon="5.66054">
        <ele>751</ele>
        <time>2019-05-24T13:00:28Z</time>
      </trkpt>
      <trkpt lat="44.22369" lon="5.66059">
        <ele>751</ele>
        <time>2019-05-24T13:00:29Z</time>
      </trkpt>
      <trkpt lat="44.22367" lon="5.66064">
        <ele>751</ele>
        <time>2019-05-24T13:00:30Z</time>
      </trkpt>
      <trkpt lat="44.22365" lon="5.66069">
        <ele>752</ele>
        <time>2019-05-24T13:00:31Z</time>
      </trkpt>
      <trkpt lat="44.22364" lon="5.66074">
        <ele>752</ele>
        <time>2019-05-24T13:00:32Z</time>
      </trkpt>
      <trkpt lat="44.22363" lon="5.6608">
        <ele>752</ele>
        <time>2019-05-24T13:00:33Z</time>
      </trkpt>
      <trkpt lat="44.22363" lon="5.66085">
        <ele>752</ele>
        <time>2019-05-24T13:00:34Z</time>
      </trkpt>
      <trkpt lat="44.22363" lon="5.66091">
        <ele>752</ele>
        <time>2019-05-24T13:00:35Z</time>
      </trkpt>
      <trkpt lat="44.22362" lon="5.66097">
        <ele>752</ele>
        <time>2019-05-24T13:00:36Z</time>
      </trkpt>
      <trkpt lat="44.22362" lon="5.66103">
        <ele>752</ele>
        <time>2019-05-24T13:00:37Z</time>
      </trkpt>
      <trkpt lat="44.22363" lon="5.6611">
        <ele>753</ele>
        <time>2019-05-24T13:00:38Z</time>
      </trkpt>
      <trkpt lat="44.22363" lon="5.66116">
        <ele>753</ele>
        <time>2019-05-24T13:00:39Z</time>
      </trkpt>
      <trkpt lat="44.22364" lon="5.66122">
        <ele>753</ele>
        <time>2019-05-24T13:00:40Z</time>
      </trkpt>
      <trkpt lat="44.22364" lon="5.66128">
        <ele>753</ele>
        <time>2019-05-24T13:00:41Z</time>
      </trkpt>
      <trkpt lat="44.22364" lon="5.66135">
        <ele>753</ele>
        <time>2019-05-24T13:00:42Z</time>
      </trkpt>
      <trkpt lat="44.22364" lon="5.66142">
        <ele>754</ele>
        <time>2019-05-24T13:00:43Z</time>
      </trkpt>
      <trkpt lat="44.22365" lon="5.66148">
        <ele>754</ele>
        <time>2019-05-24T13:00:44Z</time>
      </trkpt>
      <trkpt lat="44.22365" lon="5.66155">
        <ele>754</ele>
        <time>2019-05-24T13:00:45Z</time>
      </trkpt>
      <trkpt lat="44.22365" lon="5.66162">
        <ele>754</ele>
        <time>2019-05-24T13:00:46Z</time>
      </trkpt>
      <trkpt lat="44.22365" lon="5.66168">
        <ele>754</ele>
        <time>2019-05-24T13:00:47Z</time>
      </trkpt>
      <trkpt lat="44.22366" lon="5.66175">
        <ele>755</ele>
        <time>2019-05-24T13:00:48Z</time>
      </trkpt>
      <trkpt lat="44.22367" lon="5.66182">
        <ele>755</ele>
        <time>2019-05-24T13:00:49Z</time>
      </trkpt>
      <trkpt lat="44.22368" lon="5.66188">
        <ele>756</ele>
        <time>2019-05-24T13:00:50Z</time>
      </trkpt>
      <trkpt lat="44.22369" lon="5.66195">
        <ele>756</ele>
        <time>2019-05-24T13:00:51Z</time>
      </trkpt>
      <trkpt lat="44.22371" lon="5.66201">
        <ele>757</ele>
        <time>2019-05-24T13:00:52Z</time>
      </trkpt>
      <trkpt lat="44.22372" lon="5.66208">
        <ele>757</ele>
        <time>2019-05-24T13:00:53Z</time>
      </trkpt>
      <trkpt lat="44.22374" lon="5.66214">
        <ele>757</ele>
        <time>2019-05-24T13:00:54Z</time>
      </trkpt>
      <trkpt lat="44.22376" lon="5.66221">
        <ele>757</ele>
        <time>2019-05-24T13:00:55Z</time>
      </trkpt>
      <trkpt lat="44.22378" lon="5.66227">
        <ele>758</ele>
        <time>2019-05-24T13:00:56Z</time>
      </trkpt>
      <trkpt lat="44.2238" lon="5.66233">
        <ele>758</ele>
        <time>2019-05-24T13:00:57Z</time>
      </trkpt>
      <trkpt lat="44.22382" lon="5.66239">
        <ele>758</ele>
        <time>2019-05-24T13:00:58Z</time>
      </trkpt>
      <trkpt lat="44.22384" lon="5.66246">
        <ele>758</ele>
        <time>2019-05-24T13:00:59Z</time>
      </trkpt>
      <trkpt lat="44.22386" lon="5.66252">
        <ele>759</ele>
        <time>2019-05-24T13:01:00Z</time>
      </trkpt>
      <trkpt lat="44.22388" lon="5.66258">
        <ele>759</ele>
        <time>2019-05-24T13:01:01Z</time>
      </trkpt>
      <trkpt lat="44.2239" lon="5.66264">
        <ele>759</ele>
        <time>2019-05-24T13:01:02Z</time>
      </trkpt>
      <trkpt lat="44.22393" lon="5.6627">
        <ele>760</ele>
        <time>2019-05-24T13:01:03Z</time>
      </trkpt>
      <trkpt lat="44.22395" lon="5.66277">
        <ele>760</ele>
        <time>2019-05-24T13:01:04Z</time>
      </trkpt>
      <trkpt lat="44.22396" lon="5.66283">
        <ele>760</ele>
        <time>2019-05-24T13:01:05Z</time>
      </trkpt>
      <trkpt lat="44.22398" lon="5.66289">
        <ele>761</ele>
        <time>2019-05-24T13:01:06Z</time>
      </trkpt>
      <trkpt lat="44.224" lon="5.66296">
        <ele>761</ele>
        <time>2019-05-24T13:01:07Z</time>
      </trkpt>
      <trkpt lat="44.22401" lon="5.66302">
        <ele>761</ele>
        <time>2019-05-24T13:01:08Z</time>
      </trkpt>
      <trkpt lat="44.22402" lon="5.66309">
        <ele>761</ele>
        <time>2019-05-24T13:01:09Z</time>
      </trkpt>
      <trkpt lat="44.22403" lon="5.66316">
        <ele>762</ele>
        <time>2019-05-24T13:01:10Z</time>
      </trkpt>
      <trkpt lat="44.22404" lon="5.66323">
        <ele>762</ele>
        <time>2019-05-24T13:01:11Z</time>
      </trkpt>
      <trkpt lat="44.22405" lon="5.66329">
        <ele>762</ele>
        <time>2019-05-24T13:01:12Z</time>
      </trkpt>
      <trkpt lat="44.22405" lon="5.66336">
        <ele>762</ele>
        <time>2019-05-24T13:01:13Z</time>
      </trkpt>
      <trkpt lat="44.22406" lon="5.66343">
        <ele>762</ele>
        <time>2019-05-24T13:01:14Z</time>
      </trkpt>
      <trkpt lat="44.22406" lon="5.6635">
        <ele>762</ele>
        <time>2019-05-24T13:01:15Z</time>
      </trkpt>
      <trkpt lat="44.22406" lon="5.66357">
        <ele>762</ele>
        <time>2019-05-24T13:01:16Z</time>
      </trkpt>
      <trkpt lat="44.22406" lon="5.66363">
        <ele>762</ele>
        <time>2019-05-24T13:01:17Z</time>
      </trkpt>
      <trkpt lat="44.22406" lon="5.6637">
        <ele>762</ele>
        <time>2019-05-24T13:01:18Z</time>
      </trkpt>
      <trkpt lat="44.22405" lon="5.66376">
        <ele>762</ele>
        <time>2019-05-24T13:01:19Z</time>
      </trkpt>
      <trkpt lat="44.22404" lon="5.66382">
        <ele>762</ele>
        <time>2019-05-24T13:01:20Z</time>
      </trkpt>
      <trkpt lat="44.22403" lon="5.66388">
        <ele>762</ele>
        <time>2019-05-24T13:01:21Z</time>
      </trkpt>
      <trkpt lat="44.22402" lon="5.66394">
        <ele>762</ele>
        <time>2019-05-24T13:01:22Z</time>
      </trkpt>
      <trkpt lat="44.22401" lon="5.66401">
        <ele>762</ele>
        <time>2019-05-24T13:01:23Z</time>
      </trkpt>
      <trkpt lat="44.224" lon="5.66407">
        <ele>762</ele>
        <time>2019-05-24T13:01:24Z</time>
      </trkpt>
      <trkpt lat="44.22398" lon="5.66413">
        <ele>762</ele>
        <time>2019-05-24T13:01:25Z</time>
      </trkpt>
      <trkpt lat="44.22396" lon="5.66419">
        <ele>762</ele>
        <time>2019-05-24T13:01:26Z</time>
      </trkpt>
      <trkpt lat="44.22395" lon="5.66425">
        <ele>762</ele>
        <time>2019-05-24T13:01:27Z</time>
      </trkpt>
      <trkpt lat="44.22393" lon="5.66431">
        <ele>762</ele>
        <time>2019-05-24T13:01:28Z</time>
      </trkpt>
      <trkpt lat="44.22391" lon="5.66436">
        <ele>762</ele>
        <time>2019-05-24T13:01:29Z</time>
      </trkpt>
      <trkpt lat="44.22389" lon="5.66442">
        <ele>762</ele>
        <time>2019-05-24T13:01:30Z</time>
      </trkpt>
      <trkpt lat="44.22387" lon="5.66447">
        <ele>762</ele>
        <time>2019-05-24T13:01:31Z</time>
      </trkpt>
      <trkpt lat="44.22385" lon="5.66453">
        <ele>762</ele>
        <time>2019-05-24T13:01:32Z</time>
      </trkpt>
      <trkpt lat="44.22383" lon="5.66459">
        <ele>762</ele>
        <time>2019-05-24T13:01:33Z</time>
      </trkpt>
      <trkpt lat="44.22381" lon="5.66465">
        <ele>762</ele>
        <time>2019-05-24T13:01:34Z</time>
      </trkpt>
      <trkpt lat="44.22379" lon="5.6647">
        <ele>762</ele>
        <time>2019-05-24T13:01:35Z</time>
      </trkpt>
      <trkpt lat="44.22377" lon="5.66476">
        <ele>762</ele>
        <time>2019-05-24T13:01:36Z</time>
      </trkpt>
      <trkpt lat="44.22375" lon="5.66482">
        <ele>762</ele>
        <time>2019-05-24T13:01:37Z</time>
      </trkpt>
      <trkpt lat="44.22374" lon="5.66489">
        <ele>762</ele>
        <time>2019-05-24T13:01:38Z</time>
      </trkpt>
      <trkpt lat="44.22373" lon="5.66495">
        <ele>762</ele>
        <time>2019-05-24T13:01:39Z</time>
      </trkpt>
      <trkpt lat="44.22372" lon="5.66502">
        <ele>762</ele>
        <time>2019-05-24T13:01:40Z</time>
      </trkpt>
      <trkpt lat="44.22372" lon="5.66509">
        <ele>762</ele>
        <time>2019-05-24T13:01:41Z</time>
      </trkpt>
      <trkpt lat="44.22372" lon="5.66516">
        <ele>762</ele>
        <time>2019-05-24T13:01:42Z</time>
      </trkpt>
      <trkpt lat="44.22372" lon="5.66523">
        <ele>762</ele>
        <time>2019-05-24T13:01:43Z</time>
      </trkpt>
      <trkpt lat="44.22373" lon="5.66529">
        <ele>762</ele>
        <time>2019-05-24T13:01:44Z</time>
      </trkpt>
      <trkpt lat="44.22374" lon="5.66536">
        <ele>762</ele>
        <time>2019-05-24T13:01:45Z</time>
      </trkpt>
      <trkpt lat="44.22374" lon="5.66542">
        <ele>762</ele>
        <time>2019-05-24T13:01:46Z</time>
      </trkpt>
      <trkpt lat="44.22375" lon="5.66548">
        <ele>762</ele>
        <time>2019-05-24T13:01:47Z</time>
      </trkpt>
      <trkpt lat="44.22376" lon="5.66555">
        <ele>762</ele>
        <time>2019-05-24T13:01:48Z</time>
      </trkpt>
      <trkpt lat="44.22377" lon="5.66561">
        <ele>762</ele>
        <time>2019-05-24T13:01:49Z</time>
      </trkpt>
      <trkpt lat="44.22378" lon="5.66567">
        <ele>762</ele>
        <time>2019-05-24T13:01:50Z</time>
      </trkpt>
      <trkpt lat="44.22379" lon="5.66573">
        <ele>762</ele>
        <time>2019-05-24T13:01:51Z</time>
      </trkpt>
      <trkpt lat="44.2238" lon="5.66578">
        <ele>762</ele>
        <time>2019-05-24T13:01:52Z</time>
      </trkpt>
      <trkpt lat="44.22381" lon="5.66584">
        <ele>762</ele>
        <time>2019-05-24T13:01:53Z</time>
      </trkpt>
      <trkpt lat="44.22381" lon="5.6659">
        <ele>762</ele>
        <time>2019-05-24T13:01:54Z</time>
      </trkpt>
      <trkpt lat="44.22382" lon="5.66596">
        <ele>762</ele>
        <time>2019-05-24T13:01:55Z</time>
      </trkpt>
      <trkpt lat="44.22383" lon="5.66602">
        <ele>762</ele>
        <time>2019-05-24T13:01:56Z</time>
      </trkpt>
      <trkpt lat="44.22383" lon="5.66608">
        <ele>762</ele>
        <time>2019-05-24T13:01:57Z</time>
      </trkpt>
      <trkpt lat="44.22384" lon="5.66614">
        <ele>762</ele>
        <time>2019-05-24T13:01:58Z</time>
      </trkpt>
      <trkpt lat="44.22385" lon="5.6662">
        <ele>762</ele>
        <time>2019-05-24T13:01:59Z</time>
      </trkpt>
      <trkpt lat="44.22385" lon="5.66627">
        <ele>762</ele>
        <time>2019-05-24T13:02:00Z</time>
      </trkpt>
      <trkpt lat="44.22386" lon="5.66633">
        <ele>762</ele>
        <time>2019-05-24T13:02:01Z</time>
      </trkpt>
      <trkpt lat="44.22387" lon="5.66639">
        <ele>762</ele>
        <time>2019-05-24T13:02:02Z</time>
      </trkpt>
      <trkpt lat="44.22387" lon="5.66646">
        <ele>762</ele>
        <time>2019-05-24T13:02:03Z</time>
      </trkpt>
      <trkpt lat="44.22388" lon="5.66652">
        <ele>762</ele>
        <time>2019-05-24T13:02:04Z</time>
      </trkpt>
      <trkpt lat="44.22389" lon="5.66659">
        <ele>762</ele>
        <time>2019-05-24T13:02:05Z</time>
      </trkpt>
      <trkpt lat="44.2239" lon="5.66665">
        <ele>762</ele>
        <time>2019-05-24T13:02:06Z</time>
      </trkpt>
      <trkpt lat="44.22391" lon="5.66672">
        <ele>763</ele>
        <time>2019-05-24T13:02:07Z</time>
      </trkpt>
      <trkpt lat="44.22391" lon="5.66679">
        <ele>763</ele>
        <time>2019-05-24T13:02:08Z</time>
      </trkpt>
      <trkpt lat="44.22392" lon="5.66685">
        <ele>763</ele>
        <time>2019-05-24T13:02:09Z</time>
      </trkpt>
      <trkpt lat="44.22393" lon="5.66692">
        <ele>763</ele>
        <time>2019-05-24T13:02:10Z</time>
      </trkpt>
      <trkpt lat="44.22393" lon="5.66698">
        <ele>763</ele>
        <time>2019-05-24T13:02:11Z</time>
      </trkpt>
      <trkpt lat="44.22393" lon="5.66705">
        <ele>763</ele>
        <time>2019-05-24T13:02:12Z</time>
      </trkpt>
      <trkpt lat="44.22393" lon="5.66711">
        <ele>763</ele>
        <time>2019-05-24T13:02:13Z</time>
      </trkpt>
      <trkpt lat="44.22394" lon="5.66717">
        <ele>763</ele>
        <time>2019-05-24T13:02:14Z</time>
      </trkpt>
      <trkpt lat="44.22395" lon="5.66723">
        <ele>763</ele>
        <time>2019-05-24T13:02:15Z</time>
      </trkpt>
      <trkpt lat="44.22395" lon="5.66729">
        <ele>764</ele>
        <time>2019-05-24T13:02:16Z</time>
      </trkpt>
      <trkpt lat="44.22395" lon="5.66735">
        <ele>764</ele>
        <time>2019-05-24T13:02:17Z</time>
      </trkpt>
      <trkpt lat="44.22396" lon="5.66741">
        <ele>764</ele>
        <time>2019-05-24T13:02:18Z</time>
      </trkpt>
      <trkpt lat="44.22396" lon="5.66747">
        <ele>764</ele>
        <time>2019-05-24T13:02:19Z</time>
      </trkpt>
      <trkpt lat="44.22396" lon="5.66753">
        <ele>764</ele>
        <time>2019-05-24T13:02:20Z</time>
      </trkpt>
      <trkpt lat="44.22396" lon="5.66759">
        <ele>765</ele>
        <time>2019-05-24T13:02:21Z</time>
      </trkpt>
      <trkpt lat="44.22396" lon="5.66765">
        <ele>765</ele>
        <time>2019-05-24T13:02:22Z</time>
      </trkpt>
      <trkpt lat="44.22396" lon="5.66771">
        <ele>765</ele>
        <time>2019-05-24T13:02:23Z</time>
      </trkpt>
      <trkpt lat="44.22396" lon="5.66777">
        <ele>766</ele>
        <time>2019-05-24T13:02:24Z</time>
      </trkpt>
      <trkpt lat="44.22397" lon="5.66782">
        <ele>766</ele>
        <time>2019-05-24T13:02:25Z</time>
      </trkpt>
      <trkpt lat="44.22396" lon="5.66788">
        <ele>766</ele>
        <time>2019-05-24T13:02:26Z</time>
      </trkpt>
      <trkpt lat="44.22396" lon="5.66793">
        <ele>767</ele>
        <time>2019-05-24T13:02:27Z</time>
      </trkpt>
      <trkpt lat="44.22396" lon="5.66798">
        <ele>767</ele>
        <time>2019-05-24T13:02:28Z</time>
      </trkpt>
      <trkpt lat="44.22396" lon="5.66803">
        <ele>767</ele>
        <time>2019-05-24T13:02:29Z</time>
      </trkpt>
      <trkpt lat="44.22396" lon="5.66808">
        <ele>768</ele>
        <time>2019-05-24T13:02:30Z</time>
      </trkpt>
      <trkpt lat="44.22395" lon="5.66814">
        <ele>768</ele>
        <time>2019-05-24T13:02:31Z</time>
      </trkpt>
      <trkpt lat="44.22395" lon="5.66819">
        <ele>768</ele>
        <time>2019-05-24T13:02:32Z</time>
      </trkpt>
      <trkpt lat="44.22395" lon="5.66824">
        <ele>768</ele>
        <time>2019-05-24T13:02:33Z</time>
      </trkpt>
      <trkpt lat="44.22395" lon="5.6683">
        <ele>769</ele>
        <time>2019-05-24T13:02:34Z</time>
      </trkpt>
      <trkpt lat="44.22395" lon="5.66835">
        <ele>769</ele>
        <time>2019-05-24T13:02:35Z</time>
      </trkpt>
      <trkpt lat="44.22394" lon="5.6684">
        <ele>770</ele>
        <time>2019-05-24T13:02:36Z</time>
      </trkpt>
      <trkpt lat="44.22394" lon="5.66845">
        <ele>770</ele>
        <time>2019-05-24T13:02:37Z</time>
      </trkpt>
      <trkpt lat="44.22393" lon="5.66849">
        <ele>770</ele>
        <time>2019-05-24T13:02:38Z</time>
      </trkpt>
      <trkpt lat="44.22393" lon="5.66854">
        <ele>771</ele>
        <time>2019-05-24T13:02:39Z</time>
      </trkpt>
      <trkpt lat="44.22393" lon="5.66859">
        <ele>771</ele>
        <time>2019-05-24T13:02:40Z</time>
      </trkpt>
      <trkpt lat="44.22392" lon="5.66864">
        <ele>771</ele>
        <time>2019-05-24T13:02:41Z</time>
      </trkpt>
      <trkpt lat="44.22392" lon="5.66869">
        <ele>771</ele>
        <time>2019-05-24T13:02:42Z</time>
      </trkpt>
      <trkpt lat="44.22391" lon="5.66874">
        <ele>772</ele>
        <time>2019-05-24T13:02:43Z</time>
      </trkpt>
      <trkpt lat="44.2239" lon="5.66879">
        <ele>772</ele>
        <time>2019-05-24T13:02:44Z</time>
      </trkpt>
      <trkpt lat="44.22389" lon="5.66884">
        <ele>772</ele>
        <time>2019-05-24T13:02:45Z</time>
      </trkpt>
      <trkpt lat="44.22388" lon="5.66889">
        <ele>773</ele>
        <time>2019-05-24T13:02:46Z</time>
      </trkpt>
      <trkpt lat="44.22387" lon="5.66894">
        <ele>773</ele>
        <time>2019-05-24T13:02:47Z</time>
      </trkpt>
      <trkpt lat="44.22386" lon="5.66899">
        <ele>773</ele>
        <time>2019-05-24T13:02:48Z</time>
      </trkpt>
      <trkpt lat="44.22385" lon="5.66904">
        <ele>773</ele>
        <time>2019-05-24T13:02:49Z</time>
      </trkpt>
      <trkpt lat="44.22384" lon="5.66909">
        <ele>774</ele>
        <time>2019-05-24T13:02:50Z</time>
      </trkpt>
      <trkpt lat="44.22383" lon="5.66914">
        <ele>774</ele>
        <time>2019-05-24T13:02:51Z</time>
      </trkpt>
      <trkpt lat="44.22381" lon="5.66919">
        <ele>774</ele>
        <time>2019-05-24T13:02:52Z</time>
      </trkpt>
      <trkpt lat="44.2238" lon="5.66924">
        <ele>774</ele>
        <time>2019-05-24T13:02:53Z</time>
      </trkpt>
      <trkpt lat="44.22379" lon="5.66928">
        <ele>774</ele>
        <time>2019-05-24T13:02:54Z</time>
      </trkpt>
      <trkpt lat="44.22378" lon="5.66933">
        <ele>774</ele>
        <time>2019-05-24T13:02:55Z</time>
      </trkpt>
      <trkpt lat="44.22377" lon="5.66938">
        <ele>774</ele>
        <time>2019-05-24T13:02:56Z</time>
      </trkpt>
      <trkpt lat="44.22375" lon="5.66944">
        <ele>774</ele>
        <time>2019-05-24T13:02:57Z</time>
      </trkpt>
      <trkpt lat="44.22374" lon="5.66949">
        <ele>774</ele>
        <time>2019-05-24T13:02:58Z</time>
      </trkpt>
      <trkpt lat="44.22373" lon="5.66954">
        <ele>774</ele>
        <time>2019-05-24T13:02:59Z</time>
      </trkpt>
      <trkpt lat="44.22372" lon="5.66959">
        <ele>774</ele>
        <time>2019-05-24T13:03:00Z</time>
      </trkpt>
      <trkpt lat="44.22371" lon="5.66963">
        <ele>774</ele>
        <time>2019-05-24T13:03:01Z</time>
      </trkpt>
      <trkpt lat="44.2237" lon="5.66968">
        <ele>774</ele>
        <time>2019-05-24T13:03:02Z</time>
      </trkpt>
      <trkpt lat="44.22368" lon="5.66973">
        <ele>774</ele>
        <time>2019-05-24T13:03:03Z</time>
      </trkpt>
      <trkpt lat="44.22367" lon="5.66978">
        <ele>774</ele>
        <time>2019-05-24T13:03:04Z</time>
      </trkpt>
      <trkpt lat="44.22366" lon="5.66983">
        <ele>774</ele>
        <time>2019-05-24T13:03:05Z</time>
      </trkpt>
      <trkpt lat="44.22365" lon="5.66988">
        <ele>774</ele>
        <time>2019-05-24T13:03:06Z</time>
      </trkpt>
      <trkpt lat="44.22364" lon="5.66994">
        <ele>774</ele>
        <time>2019-05-24T13:03:07Z</time>
      </trkpt>
      <trkpt lat="44.22364" lon="5.66999">
        <ele>774</ele>
        <time>2019-05-24T13:03:08Z</time>
      </trkpt>
      <trkpt lat="44.22363" lon="5.67005">
        <ele>774</ele>
        <time>2019-05-24T13:03:09Z</time>
      </trkpt>
      <trkpt lat="44.22363" lon="5.6701">
        <ele>774</ele>
        <time>2019-05-24T13:03:10Z</time>
      </trkpt>
      <trkpt lat="44.22362" lon="5.67016">
        <ele>774</ele>
        <time>2019-05-24T13:03:11Z</time>
      </trkpt>
      <trkpt lat="44.22362" lon="5.67022">
        <ele>774</ele>
        <time>2019-05-24T13:03:12Z</time>
      </trkpt>
      <trkpt lat="44.22361" lon="5.67028">
        <ele>774</ele>
        <time>2019-05-24T13:03:13Z</time>
      </trkpt>
      <trkpt lat="44.22362" lon="5.67033">
        <ele>774</ele>
        <time>2019-05-24T13:03:14Z</time>
      </trkpt>
      <trkpt lat="44.22362" lon="5.67039">
        <ele>774</ele>
        <time>2019-05-24T13:03:15Z</time>
      </trkpt>
      <trkpt lat="44.22362" lon="5.67045">
        <ele>774</ele>
        <time>2019-05-24T13:03:16Z</time>
      </trkpt>
      <trkpt lat="44.22362" lon="5.67051">
        <ele>774</ele>
        <time>2019-05-24T13:03:17Z</time>
      </trkpt>
      <trkpt lat="44.22362" lon="5.67057">
        <ele>774</ele>
        <time>2019-05-24T13:03:18Z</time>
      </trkpt>
      <trkpt lat="44.22362" lon="5.67062">
        <ele>774</ele>
        <time>2019-05-24T13:03:19Z</time>
      </trkpt>
      <trkpt lat="44.22363" lon="5.67068">
        <ele>774</ele>
        <time>2019-05-24T13:03:20Z</time>
      </trkpt>
      <trkpt lat="44.22364" lon="5.67073">
        <ele>774</ele>
        <time>2019-05-24T13:03:21Z</time>
      </trkpt>
      <trkpt lat="44.22365" lon="5.67078">
        <ele>774</ele>
        <time>2019-05-24T13:03:22Z</time>
      </trkpt>
      <trkpt lat="44.22366" lon="5.67084">
        <ele>774</ele>
        <time>2019-05-24T13:03:23Z</time>
      </trkpt>
      <trkpt lat="44.22366" lon="5.6709">
        <ele>774</ele>
        <time>2019-05-24T13:03:24Z</time>
      </trkpt>
      <trkpt lat="44.22367" lon="5.67095">
        <ele>774</ele>
        <time>2019-05-24T13:03:25Z</time>
      </trkpt>
      <trkpt lat="44.22368" lon="5.671">
        <ele>774</ele>
        <time>2019-05-24T13:03:26Z</time>
      </trkpt>
      <trkpt lat="44.22368" lon="5.67105">
        <ele>774</ele>
        <time>2019-05-24T13:03:27Z</time>
      </trkpt>
      <trkpt lat="44.22369" lon="5.67111">
        <ele>774</ele>
        <time>2019-05-24T13:03:28Z</time>
      </trkpt>
      <trkpt lat="44.22369" lon="5.67116">
        <ele>774</ele>
        <time>2019-05-24T13:03:29Z</time>
      </trkpt>
      <trkpt lat="44.22369" lon="5.67121">
        <ele>774</ele>
        <time>2019-05-24T13:03:30Z</time>
      </trkpt>
      <trkpt lat="44.22369" lon="5.67126">
        <ele>774</ele>
        <time>2019-05-24T13:03:31Z</time>
      </trkpt>
      <trkpt lat="44.22369" lon="5.67131">
        <ele>774</ele>
        <time>2019-05-24T13:03:32Z</time>
      </trkpt>
      <trkpt lat="44.22369" lon="5.67136">
        <ele>774</ele>
        <time>2019-05-24T13:03:33Z</time>
      </trkpt>
      <trkpt lat="44.22369" lon="5.67141">
        <ele>775</ele>
        <time>2019-05-24T13:03:34Z</time>
      </trkpt>
      <trkpt lat="44.22368" lon="5.67146">
        <ele>775</ele>
        <time>2019-05-24T13:03:35Z</time>
      </trkpt>
      <trkpt lat="44.22368" lon="5.67152">
        <ele>776</ele>
        <time>2019-05-24T13:03:36Z</time>
      </trkpt>
      <trkpt lat="44.22367" lon="5.67157">
        <ele>777</ele>
        <time>2019-05-24T13:03:37Z</time>
      </trkpt>
      <trkpt lat="44.22367" lon="5.67163">
        <ele>777</ele>
        <time>2019-05-24T13:03:38Z</time>
      </trkpt>
      <trkpt lat="44.22367" lon="5.67168">
        <ele>778</ele>
        <time>2019-05-24T13:03:39Z</time>
      </trkpt>
      <trkpt lat="44.22367" lon="5.67173">
        <ele>778</ele>
        <time>2019-05-24T13:03:40Z</time>
      </trkpt>
      <trkpt lat="44.22367" lon="5.67179">
        <ele>778</ele>
        <time>2019-05-24T13:03:41Z</time>
      </trkpt>
      <trkpt lat="44.22367" lon="5.67185">
        <ele>779</ele>
        <time>2019-05-24T13:03:42Z</time>
      </trkpt>
      <trkpt lat="44.22367" lon="5.6719">
        <ele>779</ele>
        <time>2019-05-24T13:03:43Z</time>
      </trkpt>
      <trkpt lat="44.22366" lon="5.67196">
        <ele>780</ele>
        <time>2019-05-24T13:03:44Z</time>
      </trkpt>
      <trkpt lat="44.22366" lon="5.67202">
        <ele>780</ele>
        <time>2019-05-24T13:03:45Z</time>
      </trkpt>
      <trkpt lat="44.22366" lon="5.67207">
        <ele>780</ele>
        <time>2019-05-24T13:03:46Z</time>
      </trkpt>
      <trkpt lat="44.22366" lon="5.67213">
        <ele>781</ele>
        <time>2019-05-24T13:03:47Z</time>
      </trkpt>
      <trkpt lat="44.22366" lon="5.67219">
        <ele>781</ele>
        <time>2019-05-24T13:03:48Z</time>
      </trkpt>
      <trkpt lat="44.22365" lon="5.67226">
        <ele>781</ele>
        <time>2019-05-24T13:03:49Z</time>
      </trkpt>
      <trkpt lat="44.22364" lon="5.67232">
        <ele>781</ele>
        <time>2019-05-24T13:03:50Z</time>
      </trkpt>
      <trkpt lat="44.22363" lon="5.67237">
        <ele>782</ele>
        <time>2019-05-24T13:03:51Z</time>
      </trkpt>
      <trkpt lat="44.22362" lon="5.67243">
        <ele>782</ele>
        <time>2019-05-24T13:03:52Z</time>
      </trkpt>
      <trkpt lat="44.22361" lon="5.67249">
        <ele>782</ele>
        <time>2019-05-24T13:03:53Z</time>
      </trkpt>
      <trkpt lat="44.22361" lon="5.67255">
        <ele>782</ele>
        <time>2019-05-24T13:03:54Z</time>
      </trkpt>
      <trkpt lat="44.2236" lon="5.6726">
        <ele>782</ele>
        <time>2019-05-24T13:03:55Z</time>
      </trkpt>
      <trkpt lat="44.22359" lon="5.67266">
        <ele>782</ele>
        <time>2019-05-24T13:03:56Z</time>
      </trkpt>
      <trkpt lat="44.22358" lon="5.67272">
        <ele>782</ele>
        <time>2019-05-24T13:03:57Z</time>
      </trkpt>
      <trkpt lat="44.22356" lon="5.67278">
        <ele>782</ele>
        <time>2019-05-24T13:03:58Z</time>
      </trkpt>
      <trkpt lat="44.22355" lon="5.67284">
        <ele>782</ele>
        <time>2019-05-24T13:03:59Z</time>
      </trkpt>
      <trkpt lat="44.22353" lon="5.6729">
        <ele>782</ele>
        <time>2019-05-24T13:04:00Z</time>
      </trkpt>
      <trkpt lat="44.22351" lon="5.67296">
        <ele>782</ele>
        <time>2019-05-24T13:04:01Z</time>
      </trkpt>
      <trkpt lat="44.22349" lon="5.67302">
        <ele>782</ele>
        <time>2019-05-24T13:04:02Z</time>
      </trkpt>
      <trkpt lat="44.22347" lon="5.67307">
        <ele>782</ele>
        <time>2019-05-24T13:04:03Z</time>
      </trkpt>
      <trkpt lat="44.22345" lon="5.67312">
        <ele>783</ele>
        <time>2019-05-24T13:04:04Z</time>
      </trkpt>
      <trkpt lat="44.22343" lon="5.67317">
        <ele>783</ele>
        <time>2019-05-24T13:04:05Z</time>
      </trkpt>
      <trkpt lat="44.22341" lon="5.67322">
        <ele>783</ele>
        <time>2019-05-24T13:04:06Z</time>
      </trkpt>
      <trkpt lat="44.2234" lon="5.67328">
        <ele>783</ele>
        <time>2019-05-24T13:04:07Z</time>
      </trkpt>
      <trkpt lat="44.22338" lon="5.67333">
        <ele>783</ele>
        <time>2019-05-24T13:04:08Z</time>
      </trkpt>
      <trkpt lat="44.22337" lon="5.67338">
        <ele>784</ele>
        <time>2019-05-24T13:04:09Z</time>
      </trkpt>
      <trkpt lat="44.22336" lon="5.67343">
        <ele>785</ele>
        <time>2019-05-24T13:04:10Z</time>
      </trkpt>
      <trkpt lat="44.22335" lon="5.67349">
        <ele>786</ele>
        <time>2019-05-24T13:04:11Z</time>
      </trkpt>
      <trkpt lat="44.22334" lon="5.67355">
        <ele>787</ele>
        <time>2019-05-24T13:04:12Z</time>
      </trkpt>
      <trkpt lat="44.22333" lon="5.67361">
        <ele>788</ele>
        <time>2019-05-24T13:04:13Z</time>
      </trkpt>
      <trkpt lat="44.22332" lon="5.67367">
        <ele>789</ele>
        <time>2019-05-24T13:04:14Z</time>
      </trkpt>
      <trkpt lat="44.22331" lon="5.67373">
        <ele>789</ele>
        <time>2019-05-24T13:04:15Z</time>
      </trkpt>
      <trkpt lat="44.22329" lon="5.67379">
        <ele>790</ele>
        <time>2019-05-24T13:04:16Z</time>
      </trkpt>
      <trkpt lat="44.22328" lon="5.67384">
        <ele>790</ele>
        <time>2019-05-24T13:04:17Z</time>
      </trkpt>
      <trkpt lat="44.22326" lon="5.6739">
        <ele>790</ele>
        <time>2019-05-24T13:04:18Z</time>
      </trkpt>
      <trkpt lat="44.22324" lon="5.67396">
        <ele>791</ele>
        <time>2019-05-24T13:04:19Z</time>
      </trkpt>
      <trkpt lat="44.22322" lon="5.67401">
        <ele>791</ele>
        <time>2019-05-24T13:04:20Z</time>
      </trkpt>
      <trkpt lat="44.22321" lon="5.67406">
        <ele>791</ele>
        <time>2019-05-24T13:04:21Z</time>
      </trkpt>
      <trkpt lat="44.22318" lon="5.67411">
        <ele>791</ele>
        <time>2019-05-24T13:04:22Z</time>
      </trkpt>
      <trkpt lat="44.22316" lon="5.67416">
        <ele>791</ele>
        <time>2019-05-24T13:04:23Z</time>
      </trkpt>
      <trkpt lat="44.22314" lon="5.6742">
        <ele>791</ele>
        <time>2019-05-24T13:04:24Z</time>
      </trkpt>
      <trkpt lat="44.22311" lon="5.67425">
        <ele>791</ele>
        <time>2019-05-24T13:04:25Z</time>
      </trkpt>
      <trkpt lat="44.22308" lon="5.67431">
        <ele>791</ele>
        <time>2019-05-24T13:04:26Z</time>
      </trkpt>
      <trkpt lat="44.22306" lon="5.67437">
        <ele>791</ele>
        <time>2019-05-24T13:04:27Z</time>
      </trkpt>
      <trkpt lat="44.22303" lon="5.67442">
        <ele>791</ele>
        <time>2019-05-24T13:04:28Z</time>
      </trkpt>
      <trkpt lat="44.22301" lon="5.67447">
        <ele>791</ele>
        <time>2019-05-24T13:04:29Z</time>
      </trkpt>
      <trkpt lat="44.22299" lon="5.67453">
        <ele>791</ele>
        <time>2019-05-24T13:04:30Z</time>
      </trkpt>
      <trkpt lat="44.22298" lon="5.67458">
        <ele>791</ele>
        <time>2019-05-24T13:04:31Z</time>
      </trkpt>
      <trkpt lat="44.22297" lon="5.67465">
        <ele>791</ele>
        <time>2019-05-24T13:04:32Z</time>
      </trkpt>
      <trkpt lat="44.22296" lon="5.6747">
        <ele>791</ele>
        <time>2019-05-24T13:04:33Z</time>
      </trkpt>
      <trkpt lat="44.22295" lon="5.67476">
        <ele>791</ele>
        <time>2019-05-24T13:04:34Z</time>
      </trkpt>
      <trkpt lat="44.22293" lon="5.67482">
        <ele>791</ele>
        <time>2019-05-24T13:04:35Z</time>
      </trkpt>
      <trkpt lat="44.22292" lon="5.67488">
        <ele>791</ele>
        <time>2019-05-24T13:04:36Z</time>
      </trkpt>
      <trkpt lat="44.22291" lon="5.67495">
        <ele>791</ele>
        <time>2019-05-24T13:04:37Z</time>
      </trkpt>
      <trkpt lat="44.2229" lon="5.67501">
        <ele>791</ele>
        <time>2019-05-24T13:04:38Z</time>
      </trkpt>
      <trkpt lat="44.22289" lon="5.67507">
        <ele>791</ele>
        <time>2019-05-24T13:04:39Z</time>
      </trkpt>
      <trkpt lat="44.22287" lon="5.67514">
        <ele>791</ele>
        <time>2019-05-24T13:04:40Z</time>
      </trkpt>
      <trkpt lat="44.22285" lon="5.6752">
        <ele>791</ele>
        <time>2019-05-24T13:04:41Z</time>
      </trkpt>
      <trkpt lat="44.22284" lon="5.67526">
        <ele>791</ele>
        <time>2019-05-24T13:04:42Z</time>
      </trkpt>
      <trkpt lat="44.22283" lon="5.67531">
        <ele>791</ele>
        <time>2019-05-24T13:04:43Z</time>
      </trkpt>
      <trkpt lat="44.22282" lon="5.67537">
        <ele>791</ele>
        <time>2019-05-24T13:04:44Z</time>
      </trkpt>
      <trkpt lat="44.22281" lon="5.67542">
        <ele>791</ele>
        <time>2019-05-24T13:04:45Z</time>
      </trkpt>
      <trkpt lat="44.2228" lon="5.67548">
        <ele>791</ele>
        <time>2019-05-24T13:04:46Z</time>
      </trkpt>
      <trkpt lat="44.22279" lon="5.67554">
        <ele>791</ele>
        <time>2019-05-24T13:04:47Z</time>
      </trkpt>
      <trkpt lat="44.22278" lon="5.6756">
        <ele>791</ele>
        <time>2019-05-24T13:04:48Z</time>
      </trkpt>
      <trkpt lat="44.22277" lon="5.67565">
        <ele>791</ele>
        <time>2019-05-24T13:04:49Z</time>
      </trkpt>
      <trkpt lat="44.22275" lon="5.67571">
        <ele>791</ele>
        <time>2019-05-24T13:04:50Z</time>
      </trkpt>
      <trkpt lat="44.22273" lon="5.67578">
        <ele>791</ele>
        <time>2019-05-24T13:04:51Z</time>
      </trkpt>
      <trkpt lat="44.22271" lon="5.67584">
        <ele>791</ele>
        <time>2019-05-24T13:04:52Z</time>
      </trkpt>
      <trkpt lat="44.2227" lon="5.67589">
        <ele>791</ele>
        <time>2019-05-24T13:04:53Z</time>
      </trkpt>
      <trkpt lat="44.22267" lon="5.67595">
        <ele>791</ele>
        <time>2019-05-24T13:04:54Z</time>
      </trkpt>
      <trkpt lat="44.22265" lon="5.676">
        <ele>791</ele>
        <time>2019-05-24T13:04:55Z</time>
      </trkpt>
      <trkpt lat="44.22263" lon="5.67606">
        <ele>791</ele>
        <time>2019-05-24T13:04:56Z</time>
      </trkpt>
      <trkpt lat="44.22261" lon="5.67611">
        <ele>791</ele>
        <time>2019-05-24T13:04:57Z</time>
      </trkpt>
      <trkpt lat="44.22259" lon="5.67616">
        <ele>791</ele>
        <time>2019-05-24T13:04:58Z</time>
      </trkpt>
      <trkpt lat="44.22257" lon="5.67621">
        <ele>791</ele>
        <time>2019-05-24T13:04:59Z</time>
      </trkpt>
      <trkpt lat="44.22255" lon="5.67626">
        <ele>791</ele>
        <time>2019-05-24T13:05:00Z</time>
      </trkpt>
      <trkpt lat="44.22254" lon="5.67631">
        <ele>791</ele>
        <time>2019-05-24T13:05:01Z</time>
      </trkpt>
      <trkpt lat="44.22252" lon="5.67635">
        <ele>791</ele>
        <time>2019-05-24T13:05:02Z</time>
      </trkpt>
      <trkpt lat="44.2225" lon="5.6764">
        <ele>792</ele>
        <time>2019-05-24T13:05:03Z</time>
      </trkpt>
      <trkpt lat="44.22247" lon="5.67646">
        <ele>792</ele>
        <time>2019-05-24T13:05:04Z</time>
      </trkpt>
      <trkpt lat="44.22244" lon="5.67651">
        <ele>793</ele>
        <time>2019-05-24T13:05:05Z</time>
      </trkpt>
      <trkpt lat="44.22242" lon="5.67656">
        <ele>793</ele>
        <time>2019-05-24T13:05:06Z</time>
      </trkpt>
      <trkpt lat="44.22238" lon="5.67661">
        <ele>793</ele>
        <time>2019-05-24T13:05:07Z</time>
      </trkpt>
      <trkpt lat="44.22235" lon="5.67666">
        <ele>793</ele>
        <time>2019-05-24T13:05:08Z</time>
      </trkpt>
      <trkpt lat="44.22232" lon="5.67671">
        <ele>793</ele>
        <time>2019-05-24T13:05:09Z</time>
      </trkpt>
      <trkpt lat="44.22229" lon="5.67676">
        <ele>793</ele>
        <time>2019-05-24T13:05:10Z</time>
      </trkpt>
      <trkpt lat="44.22226" lon="5.67682">
        <ele>793</ele>
        <time>2019-05-24T13:05:11Z</time>
      </trkpt>
      <trkpt lat="44.22223" lon="5.67687">
        <ele>792</ele>
        <time>2019-05-24T13:05:12Z</time>
      </trkpt>
      <trkpt lat="44.2222" lon="5.67692">
        <ele>791</ele>
        <time>2019-05-24T13:05:13Z</time>
      </trkpt>
      <trkpt lat="44.22217" lon="5.67697">
        <ele>790</ele>
        <time>2019-05-24T13:05:14Z</time>
      </trkpt>
      <trkpt lat="44.22214" lon="5.67702">
        <ele>789</ele>
        <time>2019-05-24T13:05:15Z</time>
      </trkpt>
      <trkpt lat="44.22211" lon="5.67707">
        <ele>788</ele>
        <time>2019-05-24T13:05:16Z</time>
      </trkpt>
      <trkpt lat="44.22208" lon="5.67713">
        <ele>787</ele>
        <time>2019-05-24T13:05:17Z</time>
      </trkpt>
      <trkpt lat="44.22206" lon="5.67719">
        <ele>787</ele>
        <time>2019-05-24T13:05:18Z</time>
      </trkpt>
      <trkpt lat="44.22204" lon="5.67724">
        <ele>787</ele>
        <time>2019-05-24T13:05:19Z</time>
      </trkpt>
      <trkpt lat="44.22202" lon="5.6773">
        <ele>787</ele>
        <time>2019-05-24T13:05:20Z</time>
      </trkpt>
      <trkpt lat="44.222" lon="5.67736">
        <ele>787</ele>
        <time>2019-05-24T13:05:21Z</time>
      </trkpt>
      <trkpt lat="44.22197" lon="5.67742">
        <ele>787</ele>
        <time>2019-05-24T13:05:22Z</time>
      </trkpt>
      <trkpt lat="44.22195" lon="5.67748">
        <ele>787</ele>
        <time>2019-05-24T13:05:23Z</time>
      </trkpt>
      <trkpt lat="44.22193" lon="5.67754">
        <ele>787</ele>
        <time>2019-05-24T13:05:24Z</time>
      </trkpt>
      <trkpt lat="44.22192" lon="5.67759">
        <ele>787</ele>
        <time>2019-05-24T13:05:25Z</time>
      </trkpt>
      <trkpt lat="44.2219" lon="5.67764">
        <ele>787</ele>
        <time>2019-05-24T13:05:26Z</time>
      </trkpt>
      <trkpt lat="44.22189" lon="5.67769">
        <ele>787</ele>
        <time>2019-05-24T13:05:27Z</time>
      </trkpt>
      <trkpt lat="44.22188" lon="5.67774">
        <ele>787</ele>
        <time>2019-05-24T13:05:28Z</time>
      </trkpt>
      <trkpt lat="44.22186" lon="5.6778">
        <ele>787</ele>
        <time>2019-05-24T13:05:29Z</time>
      </trkpt>
      <trkpt lat="44.22184" lon="5.67785">
        <ele>787</ele>
        <time>2019-05-24T13:05:30Z</time>
      </trkpt>
      <trkpt lat="44.22182" lon="5.6779">
        <ele>787</ele>
        <time>2019-05-24T13:05:31Z</time>
      </trkpt>
      <trkpt lat="44.22181" lon="5.67794">
        <ele>787</ele>
        <time>2019-05-24T13:05:32Z</time>
      </trkpt>
      <trkpt lat="44.22179" lon="5.67799">
        <ele>787</ele>
        <time>2019-05-24T13:05:33Z</time>
      </trkpt>
      <trkpt lat="44.22177" lon="5.67804">
        <ele>787</ele>
        <time>2019-05-24T13:05:34Z</time>
      </trkpt>
      <trkpt lat="44.22175" lon="5.67809">
        <ele>787</ele>
        <time>2019-05-24T13:05:35Z</time>
      </trkpt>
      <trkpt lat="44.22173" lon="5.67813">
        <ele>787</ele>
        <time>2019-05-24T13:05:36Z</time>
      </trkpt>
      <trkpt lat="44.22171" lon="5.67818">
        <ele>787</ele>
        <time>2019-05-24T13:05:37Z</time>
      </trkpt>
      <trkpt lat="44.22168" lon="5.67822">
        <ele>787</ele>
        <time>2019-05-24T13:05:38Z</time>
      </trkpt>
      <trkpt lat="44.22167" lon="5.67827">
        <ele>787</ele>
        <time>2019-05-24T13:05:39Z</time>
      </trkpt>
      <trkpt lat="44.22165" lon="5.67831">
        <ele>787</ele>
        <time>2019-05-24T13:05:40Z</time>
      </trkpt>
      <trkpt lat="44.22164" lon="5.67835">
        <ele>787</ele>
        <time>2019-05-24T13:05:41Z</time>
      </trkpt>
      <trkpt lat="44.22162" lon="5.67839">
        <ele>787</ele>
        <time>2019-05-24T13:05:42Z</time>
      </trkpt>
      <trkpt lat="44.2216" lon="5.67844">
        <ele>787</ele>
        <time>2019-05-24T13:05:43Z</time>
      </trkpt>
      <trkpt lat="44.22158" lon="5.67849">
        <ele>787</ele>
        <time>2019-05-24T13:05:44Z</time>
      </trkpt>
      <trkpt lat="44.22157" lon="5.67854">
        <ele>787</ele>
        <time>2019-05-24T13:05:45Z</time>
      </trkpt>
      <trkpt lat="44.22155" lon="5.67858">
        <ele>787</ele>
        <time>2019-05-24T13:05:46Z</time>
      </trkpt>
      <trkpt lat="44.22152" lon="5.67863">
        <ele>787</ele>
        <time>2019-05-24T13:05:47Z</time>
      </trkpt>
      <trkpt lat="44.2215" lon="5.67869">
        <ele>787</ele>
        <time>2019-05-24T13:05:48Z</time>
      </trkpt>
      <trkpt lat="44.22149" lon="5.67873">
        <ele>787</ele>
        <time>2019-05-24T13:05:49Z</time>
      </trkpt>
      <trkpt lat="44.22147" lon="5.67878">
        <ele>787</ele>
        <time>2019-05-24T13:05:50Z</time>
      </trkpt>
      <trkpt lat="44.22146" lon="5.67882">
        <ele>787</ele>
        <time>2019-05-24T13:05:51Z</time>
      </trkpt>
      <trkpt lat="44.22145" lon="5.67887">
        <ele>788</ele>
        <time>2019-05-24T13:05:52Z</time>
      </trkpt>
      <trkpt lat="44.22143" lon="5.67892">
        <ele>788</ele>
        <time>2019-05-24T13:05:53Z</time>
      </trkpt>
      <trkpt lat="44.22142" lon="5.67896">
        <ele>789</ele>
        <time>2019-05-24T13:05:54Z</time>
      </trkpt>
      <trkpt lat="44.2214" lon="5.679">
        <ele>789</ele>
        <time>2019-05-24T13:05:55Z</time>
      </trkpt>
      <trkpt lat="44.22139" lon="5.67905">
        <ele>790</ele>
        <time>2019-05-24T13:05:56Z</time>
      </trkpt>
      <trkpt lat="44.22137" lon="5.6791">
        <ele>790</ele>
        <time>2019-05-24T13:05:57Z</time>
      </trkpt>
      <trkpt lat="44.22134" lon="5.67915">
        <ele>790</ele>
        <time>2019-05-24T13:05:58Z</time>
      </trkpt>
      <trkpt lat="44.22132" lon="5.6792">
        <ele>790</ele>
        <time>2019-05-24T13:05:59Z</time>
      </trkpt>
      <trkpt lat="44.2213" lon="5.67925">
        <ele>790</ele>
        <time>2019-05-24T13:06:00Z</time>
      </trkpt>
      <trkpt lat="44.22128" lon="5.6793">
        <ele>790</ele>
        <time>2019-05-24T13:06:01Z</time>
      </trkpt>
      <trkpt lat="44.22126" lon="5.67934">
        <ele>790</ele>
        <time>2019-05-24T13:06:02Z</time>
      </trkpt>
      <trkpt lat="44.22123" lon="5.67938">
        <ele>790</ele>
        <time>2019-05-24T13:06:03Z</time>
      </trkpt>
      <trkpt lat="44.22121" lon="5.67943">
        <ele>790</ele>
        <time>2019-05-24T13:06:04Z</time>
      </trkpt>
      <trkpt lat="44.22118" lon="5.67947">
        <ele>790</ele>
        <time>2019-05-24T13:06:05Z</time>
      </trkpt>
      <trkpt lat="44.22116" lon="5.67952">
        <ele>790</ele>
        <time>2019-05-24T13:06:06Z</time>
      </trkpt>
      <trkpt lat="44.22114" lon="5.67956">
        <ele>790</ele>
        <time>2019-05-24T13:06:07Z</time>
      </trkpt>
      <trkpt lat="44.22112" lon="5.67961">
        <ele>790</ele>
        <time>2019-05-24T13:06:08Z</time>
      </trkpt>
      <trkpt lat="44.2211" lon="5.67965">
        <ele>790</ele>
        <time>2019-05-24T13:06:09Z</time>
      </trkpt>
      <trkpt lat="44.22107" lon="5.67971">
        <ele>790</ele>
        <time>2019-05-24T13:06:10Z</time>
      </trkpt>
      <trkpt lat="44.22105" lon="5.67975">
        <ele>790</ele>
        <time>2019-05-24T13:06:11Z</time>
      </trkpt>
      <trkpt lat="44.22104" lon="5.6798">
        <ele>790</ele>
        <time>2019-05-24T13:06:12Z</time>
      </trkpt>
      <trkpt lat="44.22102" lon="5.67985">
        <ele>790</ele>
        <time>2019-05-24T13:06:13Z</time>
      </trkpt>
      <trkpt lat="44.221" lon="5.6799">
        <ele>790</ele>
        <time>2019-05-24T13:06:14Z</time>
      </trkpt>
      <trkpt lat="44.22098" lon="5.67995">
        <ele>790</ele>
        <time>2019-05-24T13:06:15Z</time>
      </trkpt>
      <trkpt lat="44.22096" lon="5.68">
        <ele>790</ele>
        <time>2019-05-24T13:06:16Z</time>
      </trkpt>
      <trkpt lat="44.22094" lon="5.68005">
        <ele>790</ele>
        <time>2019-05-24T13:06:17Z</time>
      </trkpt>
      <trkpt lat="44.22093" lon="5.6801">
        <ele>790</ele>
        <time>2019-05-24T13:06:18Z</time>
      </trkpt>
      <trkpt lat="44.22091" lon="5.68015">
        <ele>790</ele>
        <time>2019-05-24T13:06:19Z</time>
      </trkpt>
      <trkpt lat="44.22089" lon="5.6802">
        <ele>790</ele>
        <time>2019-05-24T13:06:20Z</time>
      </trkpt>
      <trkpt lat="44.22087" lon="5.68025">
        <ele>790</ele>
        <time>2019-05-24T13:06:21Z</time>
      </trkpt>
      <trkpt lat="44.22086" lon="5.6803">
        <ele>790</ele>
        <time>2019-05-24T13:06:22Z</time>
      </trkpt>
      <trkpt lat="44.22085" lon="5.68034">
        <ele>790</ele>
        <time>2019-05-24T13:06:23Z</time>
      </trkpt>
      <trkpt lat="44.22084" lon="5.68039">
        <ele>790</ele>
        <time>2019-05-24T13:06:24Z</time>
      </trkpt>
      <trkpt lat="44.22084" lon="5.68045">
        <ele>790</ele>
        <time>2019-05-24T13:06:25Z</time>
      </trkpt>
      <trkpt lat="44.22083" lon="5.68051">
        <ele>790</ele>
        <time>2019-05-24T13:06:26Z</time>
      </trkpt>
      <trkpt lat="44.22082" lon="5.68057">
        <ele>791</ele>
        <time>2019-05-24T13:06:27Z</time>
      </trkpt>
      <trkpt lat="44.22081" lon="5.68063">
        <ele>792</ele>
        <time>2019-05-24T13:06:28Z</time>
      </trkpt>
      <trkpt lat="44.22081" lon="5.68069">
        <ele>793</ele>
        <time>2019-05-24T13:06:29Z</time>
      </trkpt>
      <trkpt lat="44.22081" lon="5.68075">
        <ele>794</ele>
        <time>2019-05-24T13:06:30Z</time>
      </trkpt>
      <trkpt lat="44.2208" lon="5.68081">
        <ele>795</ele>
        <time>2019-05-24T13:06:31Z</time>
      </trkpt>
      <trkpt lat="44.2208" lon="5.68086">
        <ele>796</ele>
        <time>2019-05-24T13:06:32Z</time>
      </trkpt>
      <trkpt lat="44.2208" lon="5.68092">
        <ele>797</ele>
        <time>2019-05-24T13:06:33Z</time>
      </trkpt>
      <trkpt lat="44.2208" lon="5.68097">
        <ele>798</ele>
        <time>2019-05-24T13:06:34Z</time>
      </trkpt>
      <trkpt lat="44.2208" lon="5.68103">
        <ele>798</ele>
        <time>2019-05-24T13:06:35Z</time>
      </trkpt>
      <trkpt lat="44.2208" lon="5.68109">
        <ele>799</ele>
        <time>2019-05-24T13:06:36Z</time>
      </trkpt>
      <trkpt lat="44.2208" lon="5.68114">
        <ele>800</ele>
        <time>2019-05-24T13:06:37Z</time>
      </trkpt>
      <trkpt lat="44.2208" lon="5.68119">
        <ele>800</ele>
        <time>2019-05-24T13:06:38Z</time>
      </trkpt>
      <trkpt lat="44.2208" lon="5.68125">
        <ele>800</ele>
        <time>2019-05-24T13:06:39Z</time>
      </trkpt>
      <trkpt lat="44.2208" lon="5.6813">
        <ele>801</ele>
        <time>2019-05-24T13:06:40Z</time>
      </trkpt>
      <trkpt lat="44.2208" lon="5.68136">
        <ele>801</ele>
        <time>2019-05-24T13:06:41Z</time>
      </trkpt>
      <trkpt lat="44.2208" lon="5.68142">
        <ele>801</ele>
        <time>2019-05-24T13:06:42Z</time>
      </trkpt>
      <trkpt lat="44.2208" lon="5.68147">
        <ele>802</ele>
        <time>2019-05-24T13:06:43Z</time>
      </trkpt>
      <trkpt lat="44.2208" lon="5.68153">
        <ele>802</ele>
        <time>2019-05-24T13:06:44Z</time>
      </trkpt>
      <trkpt lat="44.22081" lon="5.68158">
        <ele>802</ele>
        <time>2019-05-24T13:06:45Z</time>
      </trkpt>
      <trkpt lat="44.22081" lon="5.68163">
        <ele>803</ele>
        <time>2019-05-24T13:06:46Z</time>
      </trkpt>
      <trkpt lat="44.22082" lon="5.68169">
        <ele>803</ele>
        <time>2019-05-24T13:06:47Z</time>
      </trkpt>
      <trkpt lat="44.22082" lon="5.68174">
        <ele>803</ele>
        <time>2019-05-24T13:06:48Z</time>
      </trkpt>
      <trkpt lat="44.22082" lon="5.6818">
        <ele>803</ele>
        <time>2019-05-24T13:06:49Z</time>
      </trkpt>
      <trkpt lat="44.22082" lon="5.68186">
        <ele>803</ele>
        <time>2019-05-24T13:06:50Z</time>
      </trkpt>
      <trkpt lat="44.22083" lon="5.68191">
        <ele>803</ele>
        <time>2019-05-24T13:06:51Z</time>
      </trkpt>
      <trkpt lat="44.22083" lon="5.68197">
        <ele>803</ele>
        <time>2019-05-24T13:06:52Z</time>
      </trkpt>
      <trkpt lat="44.22083" lon="5.68203">
        <ele>803</ele>
        <time>2019-05-24T13:06:53Z</time>
      </trkpt>
      <trkpt lat="44.22084" lon="5.68208">
        <ele>803</ele>
        <time>2019-05-24T13:06:54Z</time>
      </trkpt>
      <trkpt lat="44.22084" lon="5.68214">
        <ele>803</ele>
        <time>2019-05-24T13:06:55Z</time>
      </trkpt>
      <trkpt lat="44.22085" lon="5.6822">
        <ele>803</ele>
        <time>2019-05-24T13:06:56Z</time>
      </trkpt>
      <trkpt lat="44.22086" lon="5.68225">
        <ele>803</ele>
        <time>2019-05-24T13:06:57Z</time>
      </trkpt>
      <trkpt lat="44.22086" lon="5.68231">
        <ele>803</ele>
        <time>2019-05-24T13:06:58Z</time>
      </trkpt>
      <trkpt lat="44.22086" lon="5.68236">
        <ele>803</ele>
        <time>2019-05-24T13:06:59Z</time>
      </trkpt>
      <trkpt lat="44.22086" lon="5.68242">
        <ele>803</ele>
        <time>2019-05-24T13:07:00Z</time>
      </trkpt>
      <trkpt lat="44.22087" lon="5.68247">
        <ele>803</ele>
        <time>2019-05-24T13:07:01Z</time>
      </trkpt>
      <trkpt lat="44.22087" lon="5.68253">
        <ele>803</ele>
        <time>2019-05-24T13:07:02Z</time>
      </trkpt>
      <trkpt lat="44.22087" lon="5.68258">
        <ele>804</ele>
        <time>2019-05-24T13:07:03Z</time>
      </trkpt>
      <trkpt lat="44.22088" lon="5.68263">
        <ele>804</ele>
        <time>2019-05-24T13:07:04Z</time>
      </trkpt>
      <trkpt lat="44.22089" lon="5.68269">
        <ele>804</ele>
        <time>2019-05-24T13:07:05Z</time>
      </trkpt>
      <trkpt lat="44.22089" lon="5.68275">
        <ele>805</ele>
        <time>2019-05-24T13:07:06Z</time>
      </trkpt>
      <trkpt lat="44.22089" lon="5.6828">
        <ele>805</ele>
        <time>2019-05-24T13:07:07Z</time>
      </trkpt>
      <trkpt lat="44.2209" lon="5.68286">
        <ele>805</ele>
        <time>2019-05-24T13:07:08Z</time>
      </trkpt>
      <trkpt lat="44.2209" lon="5.68292">
        <ele>805</ele>
        <time>2019-05-24T13:07:09Z</time>
      </trkpt>
      <trkpt lat="44.22091" lon="5.68297">
        <ele>805</ele>
        <time>2019-05-24T13:07:10Z</time>
      </trkpt>
      <trkpt lat="44.22091" lon="5.68304">
        <ele>805</ele>
        <time>2019-05-24T13:07:11Z</time>
      </trkpt>
      <trkpt lat="44.22092" lon="5.6831">
        <ele>805</ele>
        <time>2019-05-24T13:07:12Z</time>
      </trkpt>
      <trkpt lat="44.22092" lon="5.68316">
        <ele>805</ele>
        <time>2019-05-24T13:07:13Z</time>
      </trkpt>
      <trkpt lat="44.22093" lon="5.68323">
        <ele>805</ele>
        <time>2019-05-24T13:07:14Z</time>
      </trkpt>
      <trkpt lat="44.22094" lon="5.68329">
        <ele>805</ele>
        <time>2019-05-24T13:07:15Z</time>
      </trkpt>
      <trkpt lat="44.22094" lon="5.68335">
        <ele>805</ele>
        <time>2019-05-24T13:07:16Z</time>
      </trkpt>
      <trkpt lat="44.22095" lon="5.68342">
        <ele>805</ele>
        <time>2019-05-24T13:07:17Z</time>
      </trkpt>
      <trkpt lat="44.22095" lon="5.68348">
        <ele>805</ele>
        <time>2019-05-24T13:07:18Z</time>
      </trkpt>
      <trkpt lat="44.22096" lon="5.68355">
        <ele>805</ele>
        <time>2019-05-24T13:07:19Z</time>
      </trkpt>
      <trkpt lat="44.22095" lon="5.68361">
        <ele>806</ele>
        <time>2019-05-24T13:07:20Z</time>
      </trkpt>
      <trkpt lat="44.22095" lon="5.68367">
        <ele>806</ele>
        <time>2019-05-24T13:07:21Z</time>
      </trkpt>
      <trkpt lat="44.22094" lon="5.68374">
        <ele>806</ele>
        <time>2019-05-24T13:07:22Z</time>
      </trkpt>
      <trkpt lat="44.22093" lon="5.6838">
        <ele>806</ele>
        <time>2019-05-24T13:07:23Z</time>
      </trkpt>
      <trkpt lat="44.22092" lon="5.68386">
        <ele>807</ele>
        <time>2019-05-24T13:07:24Z</time>
      </trkpt>
      <trkpt lat="44.22091" lon="5.68392">
        <ele>807</ele>
        <time>2019-05-24T13:07:25Z</time>
      </trkpt>
      <trkpt lat="44.2209" lon="5.68398">
        <ele>807</ele>
        <time>2019-05-24T13:07:26Z</time>
      </trkpt>
      <trkpt lat="44.22089" lon="5.68403">
        <ele>807</ele>
        <time>2019-05-24T13:07:27Z</time>
      </trkpt>
      <trkpt lat="44.22088" lon="5.68409">
        <ele>807</ele>
        <time>2019-05-24T13:07:28Z</time>
      </trkpt>
      <trkpt lat="44.22087" lon="5.68415">
        <ele>808</ele>
        <time>2019-05-24T13:07:29Z</time>
      </trkpt>
      <trkpt lat="44.22086" lon="5.68421">
        <ele>808</ele>
        <time>2019-05-24T13:07:30Z</time>
      </trkpt>
      <trkpt lat="44.22085" lon="5.68427">
        <ele>808</ele>
        <time>2019-05-24T13:07:31Z</time>
      </trkpt>
      <trkpt lat="44.22084" lon="5.68432">
        <ele>808</ele>
        <time>2019-05-24T13:07:32Z</time>
      </trkpt>
      <trkpt lat="44.22084" lon="5.68438">
        <ele>809</ele>
        <time>2019-05-24T13:07:33Z</time>
      </trkpt>
      <trkpt lat="44.22083" lon="5.68444">
        <ele>809</ele>
        <time>2019-05-24T13:07:34Z</time>
      </trkpt>
      <trkpt lat="44.22083" lon="5.6845">
        <ele>809</ele>
        <time>2019-05-24T13:07:35Z</time>
      </trkpt>
      <trkpt lat="44.22083" lon="5.68455">
        <ele>809</ele>
        <time>2019-05-24T13:07:36Z</time>
      </trkpt>
      <trkpt lat="44.22084" lon="5.68461">
        <ele>809</ele>
        <time>2019-05-24T13:07:37Z</time>
      </trkpt>
      <trkpt lat="44.22085" lon="5.68466">
        <ele>810</ele>
        <time>2019-05-24T13:07:38Z</time>
      </trkpt>
      <trkpt lat="44.22087" lon="5.68471">
        <ele>810</ele>
        <time>2019-05-24T13:07:39Z</time>
      </trkpt>
      <trkpt lat="44.22088" lon="5.68476">
        <ele>810</ele>
        <time>2019-05-24T13:07:40Z</time>
      </trkpt>
      <trkpt lat="44.22089" lon="5.6848">
        <ele>810</ele>
        <time>2019-05-24T13:07:41Z</time>
      </trkpt>
      <trkpt lat="44.22091" lon="5.68484">
        <ele>810</ele>
        <time>2019-05-24T13:07:42Z</time>
      </trkpt>
      <trkpt lat="44.22093" lon="5.68488">
        <ele>810</ele>
        <time>2019-05-24T13:07:43Z</time>
      </trkpt>
      <trkpt lat="44.22095" lon="5.68491">
        <ele>810</ele>
        <time>2019-05-24T13:07:44Z</time>
      </trkpt>
      <trkpt lat="44.22096" lon="5.68494">
        <ele>810</ele>
        <time>2019-05-24T13:07:45Z</time>
      </trkpt>
      <trkpt lat="44.22097" lon="5.68497">
        <ele>810</ele>
        <time>2019-05-24T13:07:46Z</time>
      </trkpt>
      <trkpt lat="44.22099" lon="5.685">
        <ele>810</ele>
        <time>2019-05-24T13:07:47Z</time>
      </trkpt>
      <trkpt lat="44.221" lon="5.68504">
        <ele>810</ele>
        <time>2019-05-24T13:07:48Z</time>
      </trkpt>
      <trkpt lat="44.221" lon="5.68508">
        <ele>810</ele>
        <time>2019-05-24T13:07:49Z</time>
      </trkpt>
      <trkpt lat="44.22101" lon="5.68511">
        <ele>810</ele>
        <time>2019-05-24T13:07:50Z</time>
      </trkpt>
      <trkpt lat="44.22101" lon="5.68516">
        <ele>810</ele>
        <time>2019-05-24T13:07:51Z</time>
      </trkpt>
      <trkpt lat="44.22101" lon="5.6852">
        <ele>810</ele>
        <time>2019-05-24T13:07:52Z</time>
      </trkpt>
      <trkpt lat="44.22102" lon="5.68525">
        <ele>810</ele>
        <time>2019-05-24T13:07:53Z</time>
      </trkpt>
      <trkpt lat="44.22101" lon="5.6853">
        <ele>810</ele>
        <time>2019-05-24T13:07:54Z</time>
      </trkpt>
      <trkpt lat="44.22101" lon="5.68535">
        <ele>810</ele>
        <time>2019-05-24T13:07:55Z</time>
      </trkpt>
      <trkpt lat="44.221" lon="5.68539">
        <ele>810</ele>
        <time>2019-05-24T13:07:56Z</time>
      </trkpt>
      <trkpt lat="44.221" lon="5.68544">
        <ele>810</ele>
        <time>2019-05-24T13:07:57Z</time>
      </trkpt>
      <trkpt lat="44.22098" lon="5.68549">
        <ele>810</ele>
        <time>2019-05-24T13:07:58Z</time>
      </trkpt>
      <trkpt lat="44.22097" lon="5.68554">
        <ele>810</ele>
        <time>2019-05-24T13:07:59Z</time>
      </trkpt>
      <trkpt lat="44.22095" lon="5.6856">
        <ele>810</ele>
        <time>2019-05-24T13:08:00Z</time>
      </trkpt>
      <trkpt lat="44.22094" lon="5.68565">
        <ele>810</ele>
        <time>2019-05-24T13:08:01Z</time>
      </trkpt>
      <trkpt lat="44.22091" lon="5.6857">
        <ele>810</ele>
        <time>2019-05-24T13:08:02Z</time>
      </trkpt>
      <trkpt lat="44.22089" lon="5.68575">
        <ele>810</ele>
        <time>2019-05-24T13:08:03Z</time>
      </trkpt>
      <trkpt lat="44.22088" lon="5.68581">
        <ele>810</ele>
        <time>2019-05-24T13:08:04Z</time>
      </trkpt>
      <trkpt lat="44.22086" lon="5.68586">
        <ele>810</ele>
        <time>2019-05-24T13:08:05Z</time>
      </trkpt>
      <trkpt lat="44.22084" lon="5.68592">
        <ele>810</ele>
        <time>2019-05-24T13:08:06Z</time>
      </trkpt>
      <trkpt lat="44.22083" lon="5.68598">
        <ele>810</ele>
        <time>2019-05-24T13:08:07Z</time>
      </trkpt>
      <trkpt lat="44.22082" lon="5.68603">
        <ele>810</ele>
        <time>2019-05-24T13:08:08Z</time>
      </trkpt>
      <trkpt lat="44.22081" lon="5.68608">
        <ele>811</ele>
        <time>2019-05-24T13:08:09Z</time>
      </trkpt>
      <trkpt lat="44.2208" lon="5.68614">
        <ele>811</ele>
        <time>2019-05-24T13:08:10Z</time>
      </trkpt>
      <trkpt lat="44.22079" lon="5.68619">
        <ele>811</ele>
        <time>2019-05-24T13:08:11Z</time>
      </trkpt>
      <trkpt lat="44.22078" lon="5.68624">
        <ele>811</ele>
        <time>2019-05-24T13:08:12Z</time>
      </trkpt>
      <trkpt lat="44.22077" lon="5.68629">
        <ele>811</ele>
        <time>2019-05-24T13:08:13Z</time>
      </trkpt>
      <trkpt lat="44.22076" lon="5.68635">
        <ele>811</ele>
        <time>2019-05-24T13:08:14Z</time>
      </trkpt>
      <trkpt lat="44.22076" lon="5.6864">
        <ele>811</ele>
        <time>2019-05-24T13:08:15Z</time>
      </trkpt>
      <trkpt lat="44.22075" lon="5.68645">
        <ele>812</ele>
        <time>2019-05-24T13:08:16Z</time>
      </trkpt>
      <trkpt lat="44.22073" lon="5.68651">
        <ele>812</ele>
        <time>2019-05-24T13:08:17Z</time>
      </trkpt>
      <trkpt lat="44.22073" lon="5.68656">
        <ele>813</ele>
        <time>2019-05-24T13:08:18Z</time>
      </trkpt>
      <trkpt lat="44.22072" lon="5.68662">
        <ele>813</ele>
        <time>2019-05-24T13:08:19Z</time>
      </trkpt>
      <trkpt lat="44.22072" lon="5.68667">
        <ele>813</ele>
        <time>2019-05-24T13:08:20Z</time>
      </trkpt>
      <trkpt lat="44.22071" lon="5.68673">
        <ele>813</ele>
        <time>2019-05-24T13:08:21Z</time>
      </trkpt>
      <trkpt lat="44.2207" lon="5.68678">
        <ele>814</ele>
        <time>2019-05-24T13:08:22Z</time>
      </trkpt>
      <trkpt lat="44.2207" lon="5.68683">
        <ele>814</ele>
        <time>2019-05-24T13:08:23Z</time>
      </trkpt>
      <trkpt lat="44.22069" lon="5.68689">
        <ele>814</ele>
        <time>2019-05-24T13:08:24Z</time>
      </trkpt>
      <trkpt lat="44.22069" lon="5.68694">
        <ele>814</ele>
        <time>2019-05-24T13:08:25Z</time>
      </trkpt>
      <trkpt lat="44.2207" lon="5.68699">
        <ele>814</ele>
        <time>2019-05-24T13:08:26Z</time>
      </trkpt>
      <trkpt lat="44.2207" lon="5.68704">
        <ele>814</ele>
        <time>2019-05-24T13:08:27Z</time>
      </trkpt>
      <trkpt lat="44.2207" lon="5.68709">
        <ele>814</ele>
        <time>2019-05-24T13:08:28Z</time>
      </trkpt>
      <trkpt lat="44.22071" lon="5.68714">
        <ele>814</ele>
        <time>2019-05-24T13:08:29Z</time>
      </trkpt>
      <trkpt lat="44.22071" lon="5.68719">
        <ele>814</ele>
        <time>2019-05-24T13:08:30Z</time>
      </trkpt>
      <trkpt lat="44.22072" lon="5.68725">
        <ele>814</ele>
        <time>2019-05-24T13:08:31Z</time>
      </trkpt>
      <trkpt lat="44.22071" lon="5.6873">
        <ele>814</ele>
        <time>2019-05-24T13:08:32Z</time>
      </trkpt>
      <trkpt lat="44.2207" lon="5.68736">
        <ele>814</ele>
        <time>2019-05-24T13:08:33Z</time>
      </trkpt>
      <trkpt lat="44.2207" lon="5.68742">
        <ele>814</ele>
        <time>2019-05-24T13:08:34Z</time>
      </trkpt>
      <trkpt lat="44.22069" lon="5.68747">
        <ele>814</ele>
        <time>2019-05-24T13:08:35Z</time>
      </trkpt>
      <trkpt lat="44.22068" lon="5.68751">
        <ele>814</ele>
        <time>2019-05-24T13:08:36Z</time>
      </trkpt>
      <trkpt lat="44.22066" lon="5.68755">
        <ele>814</ele>
        <time>2019-05-24T13:08:37Z</time>
      </trkpt>
      <trkpt lat="44.22064" lon="5.68758">
        <ele>814</ele>
        <time>2019-05-24T13:08:38Z</time>
      </trkpt>
      <trkpt lat="44.22062" lon="5.68762">
        <ele>814</ele>
        <time>2019-05-24T13:08:39Z</time>
      </trkpt>
      <trkpt lat="44.2206" lon="5.68766">
        <ele>814</ele>
        <time>2019-05-24T13:08:40Z</time>
      </trkpt>
      <trkpt lat="44.22058" lon="5.6877">
        <ele>814</ele>
        <time>2019-05-24T13:08:41Z</time>
      </trkpt>
      <trkpt lat="44.22056" lon="5.68774">
        <ele>814</ele>
        <time>2019-05-24T13:08:42Z</time>
      </trkpt>
      <trkpt lat="44.22054" lon="5.68778">
        <ele>814</ele>
        <time>2019-05-24T13:08:43Z</time>
      </trkpt>
      <trkpt lat="44.22052" lon="5.68782">
        <ele>814</ele>
        <time>2019-05-24T13:08:44Z</time>
      </trkpt>
      <trkpt lat="44.22049" lon="5.68786">
        <ele>814</ele>
        <time>2019-05-24T13:08:45Z</time>
      </trkpt>
      <trkpt lat="44.22047" lon="5.6879">
        <ele>814</ele>
        <time>2019-05-24T13:08:46Z</time>
      </trkpt>
      <trkpt lat="44.22045" lon="5.68795">
        <ele>814</ele>
        <time>2019-05-24T13:08:47Z</time>
      </trkpt>
      <trkpt lat="44.22043" lon="5.68799">
        <ele>814</ele>
        <time>2019-05-24T13:08:48Z</time>
      </trkpt>
      <trkpt lat="44.22041" lon="5.68803">
        <ele>814</ele>
        <time>2019-05-24T13:08:49Z</time>
      </trkpt>
      <trkpt lat="44.22039" lon="5.68807">
        <ele>814</ele>
        <time>2019-05-24T13:08:50Z</time>
      </trkpt>
      <trkpt lat="44.22036" lon="5.68811">
        <ele>814</ele>
        <time>2019-05-24T13:08:51Z</time>
      </trkpt>
      <trkpt lat="44.22034" lon="5.68815">
        <ele>814</ele>
        <time>2019-05-24T13:08:52Z</time>
      </trkpt>
      <trkpt lat="44.22032" lon="5.68819">
        <ele>814</ele>
        <time>2019-05-24T13:08:53Z</time>
      </trkpt>
      <trkpt lat="44.2203" lon="5.68823">
        <ele>814</ele>
        <time>2019-05-24T13:08:54Z</time>
      </trkpt>
      <trkpt lat="44.22028" lon="5.68827">
        <ele>814</ele>
        <time>2019-05-24T13:08:55Z</time>
      </trkpt>
      <trkpt lat="44.22025" lon="5.68831">
        <ele>814</ele>
        <time>2019-05-24T13:08:56Z</time>
      </trkpt>
      <trkpt lat="44.22023" lon="5.68835">
        <ele>814</ele>
        <time>2019-05-24T13:08:57Z</time>
      </trkpt>
      <trkpt lat="44.22021" lon="5.68839">
        <ele>814</ele>
        <time>2019-05-24T13:08:58Z</time>
      </trkpt>
      <trkpt lat="44.22018" lon="5.68843">
        <ele>814</ele>
        <time>2019-05-24T13:08:59Z</time>
      </trkpt>
      <trkpt lat="44.22016" lon="5.68847">
        <ele>814</ele>
        <time>2019-05-24T13:09:00Z</time>
      </trkpt>
      <trkpt lat="44.22014" lon="5.6885">
        <ele>814</ele>
        <time>2019-05-24T13:09:01Z</time>
      </trkpt>
      <trkpt lat="44.22012" lon="5.68854">
        <ele>814</ele>
        <time>2019-05-24T13:09:02Z</time>
      </trkpt>
      <trkpt lat="44.2201" lon="5.68858">
        <ele>814</ele>
        <time>2019-05-24T13:09:03Z</time>
      </trkpt>
      <trkpt lat="44.22007" lon="5.68862">
        <ele>814</ele>
        <time>2019-05-24T13:09:04Z</time>
      </trkpt>
      <trkpt lat="44.22005" lon="5.68866">
        <ele>814</ele>
        <time>2019-05-24T13:09:05Z</time>
      </trkpt>
      <trkpt lat="44.22002" lon="5.6887">
        <ele>814</ele>
        <time>2019-05-24T13:09:06Z</time>
      </trkpt>
      <trkpt lat="44.22" lon="5.68874">
        <ele>814</ele>
        <time>2019-05-24T13:09:07Z</time>
      </trkpt>
      <trkpt lat="44.21997" lon="5.68878">
        <ele>814</ele>
        <time>2019-05-24T13:09:08Z</time>
      </trkpt>
      <trkpt lat="44.21995" lon="5.68883">
        <ele>814</ele>
        <time>2019-05-24T13:09:09Z</time>
      </trkpt>
      <trkpt lat="44.21993" lon="5.68887">
        <ele>814</ele>
        <time>2019-05-24T13:09:10Z</time>
      </trkpt>
      <trkpt lat="44.21991" lon="5.6889">
        <ele>814</ele>
        <time>2019-05-24T13:09:11Z</time>
      </trkpt>
      <trkpt lat="44.21989" lon="5.68895">
        <ele>814</ele>
        <time>2019-05-24T13:09:12Z</time>
      </trkpt>
      <trkpt lat="44.21988" lon="5.68899">
        <ele>814</ele>
        <time>2019-05-24T13:09:13Z</time>
      </trkpt>
      <trkpt lat="44.21986" lon="5.68903">
        <ele>814</ele>
        <time>2019-05-24T13:09:14Z</time>
      </trkpt>
      <trkpt lat="44.21984" lon="5.68908">
        <ele>814</ele>
        <time>2019-05-24T13:09:15Z</time>
      </trkpt>
      <trkpt lat="44.21982" lon="5.68913">
        <ele>814</ele>
        <time>2019-05-24T13:09:16Z</time>
      </trkpt>
      <trkpt lat="44.21981" lon="5.68918">
        <ele>814</ele>
        <time>2019-05-24T13:09:17Z</time>
      </trkpt>
      <trkpt lat="44.21979" lon="5.68922">
        <ele>814</ele>
        <time>2019-05-24T13:09:18Z</time>
      </trkpt>
      <trkpt lat="44.21978" lon="5.68927">
        <ele>814</ele>
        <time>2019-05-24T13:09:19Z</time>
      </trkpt>
      <trkpt lat="44.21976" lon="5.68932">
        <ele>814</ele>
        <time>2019-05-24T13:09:20Z</time>
      </trkpt>
      <trkpt lat="44.21975" lon="5.68936">
        <ele>814</ele>
        <time>2019-05-24T13:09:21Z</time>
      </trkpt>
      <trkpt lat="44.21973" lon="5.68942">
        <ele>814</ele>
        <time>2019-05-24T13:09:22Z</time>
      </trkpt>
      <trkpt lat="44.21972" lon="5.68947">
        <ele>814</ele>
        <time>2019-05-24T13:09:23Z</time>
      </trkpt>
      <trkpt lat="44.21971" lon="5.68952">
        <ele>814</ele>
        <time>2019-05-24T13:09:24Z</time>
      </trkpt>
      <trkpt lat="44.2197" lon="5.68957">
        <ele>814</ele>
        <time>2019-05-24T13:09:25Z</time>
      </trkpt>
      <trkpt lat="44.21969" lon="5.68961">
        <ele>814</ele>
        <time>2019-05-24T13:09:26Z</time>
      </trkpt>
      <trkpt lat="44.21968" lon="5.68966">
        <ele>814</ele>
        <time>2019-05-24T13:09:27Z</time>
      </trkpt>
      <trkpt lat="44.21967" lon="5.68971">
        <ele>814</ele>
        <time>2019-05-24T13:09:28Z</time>
      </trkpt>
      <trkpt lat="44.21966" lon="5.68976">
        <ele>814</ele>
        <time>2019-05-24T13:09:29Z</time>
      </trkpt>
      <trkpt lat="44.21966" lon="5.68981">
        <ele>814</ele>
        <time>2019-05-24T13:09:30Z</time>
      </trkpt>
      <trkpt lat="44.21965" lon="5.68986">
        <ele>814</ele>
        <time>2019-05-24T13:09:31Z</time>
      </trkpt>
      <trkpt lat="44.21965" lon="5.68991">
        <ele>814</ele>
        <time>2019-05-24T13:09:32Z</time>
      </trkpt>
      <trkpt lat="44.21964" lon="5.68995">
        <ele>814</ele>
        <time>2019-05-24T13:09:33Z</time>
      </trkpt>
      <trkpt lat="44.21964" lon="5.69">
        <ele>815</ele>
        <time>2019-05-24T13:09:34Z</time>
      </trkpt>
      <trkpt lat="44.21964" lon="5.69005">
        <ele>816</ele>
        <time>2019-05-24T13:09:35Z</time>
      </trkpt>
      <trkpt lat="44.21963" lon="5.69009">
        <ele>817</ele>
        <time>2019-05-24T13:09:36Z</time>
      </trkpt>
      <trkpt lat="44.21963" lon="5.69014">
        <ele>818</ele>
        <time>2019-05-24T13:09:37Z</time>
      </trkpt>
      <trkpt lat="44.21962" lon="5.69019">
        <ele>819</ele>
        <time>2019-05-24T13:09:38Z</time>
      </trkpt>
      <trkpt lat="44.21962" lon="5.69023">
        <ele>820</ele>
        <time>2019-05-24T13:09:39Z</time>
      </trkpt>
      <trkpt lat="44.21962" lon="5.69028">
        <ele>821</ele>
        <time>2019-05-24T13:09:40Z</time>
      </trkpt>
      <trkpt lat="44.21961" lon="5.69032">
        <ele>822</ele>
        <time>2019-05-24T13:09:41Z</time>
      </trkpt>
      <trkpt lat="44.21961" lon="5.69036">
        <ele>823</ele>
        <time>2019-05-24T13:09:42Z</time>
      </trkpt>
      <trkpt lat="44.2196" lon="5.69041">
        <ele>824</ele>
        <time>2019-05-24T13:09:43Z</time>
      </trkpt>
      <trkpt lat="44.2196" lon="5.69045">
        <ele>825</ele>
        <time>2019-05-24T13:09:44Z</time>
      </trkpt>
      <trkpt lat="44.21959" lon="5.6905">
        <ele>826</ele>
        <time>2019-05-24T13:09:45Z</time>
      </trkpt>
      <trkpt lat="44.21959" lon="5.69054">
        <ele>827</ele>
        <time>2019-05-24T13:09:46Z</time>
      </trkpt>
      <trkpt lat="44.21959" lon="5.69059">
        <ele>828</ele>
        <time>2019-05-24T13:09:47Z</time>
      </trkpt>
      <trkpt lat="44.21958" lon="5.69064">
        <ele>829</ele>
        <time>2019-05-24T13:09:48Z</time>
      </trkpt>
      <trkpt lat="44.21958" lon="5.69068">
        <ele>829</ele>
        <time>2019-05-24T13:09:49Z</time>
      </trkpt>
      <trkpt lat="44.21957" lon="5.69073">
        <ele>829</ele>
        <time>2019-05-24T13:09:50Z</time>
      </trkpt>
      <trkpt lat="44.21957" lon="5.69078">
        <ele>830</ele>
        <time>2019-05-24T13:09:51Z</time>
      </trkpt>
      <trkpt lat="44.21956" lon="5.69082">
        <ele>830</ele>
        <time>2019-05-24T13:09:52Z</time>
      </trkpt>
      <trkpt lat="44.21956" lon="5.69087">
        <ele>830</ele>
        <time>2019-05-24T13:09:53Z</time>
      </trkpt>
      <trkpt lat="44.21955" lon="5.69092">
        <ele>831</ele>
        <time>2019-05-24T13:09:54Z</time>
      </trkpt>
      <trkpt lat="44.21954" lon="5.69097">
        <ele>831</ele>
        <time>2019-05-24T13:09:55Z</time>
      </trkpt>
      <trkpt lat="44.21954" lon="5.69102">
        <ele>832</ele>
        <time>2019-05-24T13:09:56Z</time>
      </trkpt>
      <trkpt lat="44.21953" lon="5.69107">
        <ele>832</ele>
        <time>2019-05-24T13:09:57Z</time>
      </trkpt>
      <trkpt lat="44.21952" lon="5.69113">
        <ele>833</ele>
        <time>2019-05-24T13:09:58Z</time>
      </trkpt>
      <trkpt lat="44.21951" lon="5.69118">
        <ele>834</ele>
        <time>2019-05-24T13:09:59Z</time>
      </trkpt>
      <trkpt lat="44.21951" lon="5.69124">
        <ele>834</ele>
        <time>2019-05-24T13:10:00Z</time>
      </trkpt>
      <trkpt lat="44.2195" lon="5.69129">
        <ele>834</ele>
        <time>2019-05-24T13:10:01Z</time>
      </trkpt>
      <trkpt lat="44.21949" lon="5.69134">
        <ele>834</ele>
        <time>2019-05-24T13:10:02Z</time>
      </trkpt>
      <trkpt lat="44.21948" lon="5.6914">
        <ele>834</ele>
        <time>2019-05-24T13:10:03Z</time>
      </trkpt>
      <trkpt lat="44.21947" lon="5.69145">
        <ele>834</ele>
        <time>2019-05-24T13:10:04Z</time>
      </trkpt>
      <trkpt lat="44.21947" lon="5.6915">
        <ele>834</ele>
        <time>2019-05-24T13:10:05Z</time>
      </trkpt>
      <trkpt lat="44.21946" lon="5.69155">
        <ele>834</ele>
        <time>2019-05-24T13:10:06Z</time>
      </trkpt>
      <trkpt lat="44.21946" lon="5.6916">
        <ele>834</ele>
        <time>2019-05-24T13:10:07Z</time>
      </trkpt>
      <trkpt lat="44.21945" lon="5.69166">
        <ele>834</ele>
        <time>2019-05-24T13:10:08Z</time>
      </trkpt>
      <trkpt lat="44.21945" lon="5.69171">
        <ele>834</ele>
        <time>2019-05-24T13:10:09Z</time>
      </trkpt>
      <trkpt lat="44.21945" lon="5.69175">
        <ele>834</ele>
        <time>2019-05-24T13:10:10Z</time>
      </trkpt>
      <trkpt lat="44.21944" lon="5.69181">
        <ele>834</ele>
        <time>2019-05-24T13:10:11Z</time>
      </trkpt>
      <trkpt lat="44.21944" lon="5.69186">
        <ele>834</ele>
        <time>2019-05-24T13:10:12Z</time>
      </trkpt>
      <trkpt lat="44.21944" lon="5.69191">
        <ele>834</ele>
        <time>2019-05-24T13:10:13Z</time>
      </trkpt>
      <trkpt lat="44.21943" lon="5.69196">
        <ele>834</ele>
        <time>2019-05-24T13:10:14Z</time>
      </trkpt>
      <trkpt lat="44.21944" lon="5.69201">
        <ele>834</ele>
        <time>2019-05-24T13:10:15Z</time>
      </trkpt>
      <trkpt lat="44.21943" lon="5.69206">
        <ele>834</ele>
        <time>2019-05-24T13:10:16Z</time>
      </trkpt>
      <trkpt lat="44.21943" lon="5.6921">
        <ele>834</ele>
        <time>2019-05-24T13:10:17Z</time>
      </trkpt>
      <trkpt lat="44.21944" lon="5.69213">
        <ele>834</ele>
        <time>2019-05-24T13:10:18Z</time>
      </trkpt>
      <trkpt lat="44.21945" lon="5.69217">
        <ele>834</ele>
        <time>2019-05-24T13:10:19Z</time>
      </trkpt>
      <trkpt lat="44.21945" lon="5.69222">
        <ele>834</ele>
        <time>2019-05-24T13:10:20Z</time>
      </trkpt>
      <trkpt lat="44.21945" lon="5.69228">
        <ele>834</ele>
        <time>2019-05-24T13:10:21Z</time>
      </trkpt>
      <trkpt lat="44.21944" lon="5.69234">
        <ele>834</ele>
        <time>2019-05-24T13:10:22Z</time>
      </trkpt>
      <trkpt lat="44.21944" lon="5.69239">
        <ele>834</ele>
        <time>2019-05-24T13:10:23Z</time>
      </trkpt>
      <trkpt lat="44.21945" lon="5.69244">
        <ele>834</ele>
        <time>2019-05-24T13:10:24Z</time>
      </trkpt>
      <trkpt lat="44.21946" lon="5.69248">
        <ele>834</ele>
        <time>2019-05-24T13:10:25Z</time>
      </trkpt>
      <trkpt lat="44.21947" lon="5.69253">
        <ele>834</ele>
        <time>2019-05-24T13:10:26Z</time>
      </trkpt>
      <trkpt lat="44.21948" lon="5.69257">
        <ele>834</ele>
        <time>2019-05-24T13:10:27Z</time>
      </trkpt>
      <trkpt lat="44.21949" lon="5.69262">
        <ele>834</ele>
        <time>2019-05-24T13:10:28Z</time>
      </trkpt>
      <trkpt lat="44.21951" lon="5.69267">
        <ele>834</ele>
        <time>2019-05-24T13:10:29Z</time>
      </trkpt>
      <trkpt lat="44.21952" lon="5.69272">
        <ele>834</ele>
        <time>2019-05-24T13:10:30Z</time>
      </trkpt>
      <trkpt lat="44.21953" lon="5.69275">
        <ele>834</ele>
        <time>2019-05-24T13:10:31Z</time>
      </trkpt>
      <trkpt lat="44.21955" lon="5.69277">
        <ele>834</ele>
        <time>2019-05-24T13:10:32Z</time>
      </trkpt>
      <trkpt lat="44.21958" lon="5.69281">
        <ele>834</ele>
        <time>2019-05-24T13:10:33Z</time>
      </trkpt>
      <trkpt lat="44.2196" lon="5.69284">
        <ele>834</ele>
        <time>2019-05-24T13:10:34Z</time>
      </trkpt>
      <trkpt lat="44.21963" lon="5.69286">
        <ele>834</ele>
        <time>2019-05-24T13:10:35Z</time>
      </trkpt>
      <trkpt lat="44.21965" lon="5.69286">
        <ele>834</ele>
        <time>2019-05-24T13:10:36Z</time>
      </trkpt>
      <trkpt lat="44.21966" lon="5.69282">
        <ele>834</ele>
        <time>2019-05-24T13:10:37Z</time>
      </trkpt>
      <trkpt lat="44.21966" lon="5.69279">
        <ele>835</ele>
        <time>2019-05-24T13:10:38Z</time>
      </trkpt>
      <trkpt lat="44.21965" lon="5.69275">
        <ele>835</ele>
        <time>2019-05-24T13:10:39Z</time>
      </trkpt>
      <trkpt lat="44.21964" lon="5.69272">
        <ele>835</ele>
        <time>2019-05-24T13:10:40Z</time>
      </trkpt>
      <trkpt lat="44.21964" lon="5.69268">
        <ele>836</ele>
        <time>2019-05-24T13:10:41Z</time>
      </trkpt>
      <trkpt lat="44.21964" lon="5.69265">
        <ele>836</ele>
        <time>2019-05-24T13:10:42Z</time>
      </trkpt>
      <trkpt lat="44.21965" lon="5.69262">
        <ele>836</ele>
        <time>2019-05-24T13:10:43Z</time>
      </trkpt>
      <trkpt lat="44.21965" lon="5.69259">
        <ele>836</ele>
        <time>2019-05-24T13:10:44Z</time>
      </trkpt>
      <trkpt lat="44.21965" lon="5.69256">
        <ele>836</ele>
        <time>2019-05-24T13:10:45Z</time>
      </trkpt>
      <trkpt lat="44.21965" lon="5.69253">
        <ele>836</ele>
        <time>2019-05-24T13:10:46Z</time>
      </trkpt>
      <trkpt lat="44.21965" lon="5.69249">
        <ele>836</ele>
        <time>2019-05-24T13:10:47Z</time>
      </trkpt>
      <trkpt lat="44.21966" lon="5.69246">
        <ele>836</ele>
        <time>2019-05-24T13:10:48Z</time>
      </trkpt>
      <trkpt lat="44.21966" lon="5.69244">
        <ele>836</ele>
        <time>2019-05-24T13:10:49Z</time>
      </trkpt>
      <trkpt lat="44.21966" lon="5.6924">
        <ele>836</ele>
        <time>2019-05-24T13:10:50Z</time>
      </trkpt>
      <trkpt lat="44.21966" lon="5.69237">
        <ele>836</ele>
        <time>2019-05-24T13:10:51Z</time>
      </trkpt>
      <trkpt lat="44.21966" lon="5.69234">
        <ele>836</ele>
        <time>2019-05-24T13:10:52Z</time>
      </trkpt>
      <trkpt lat="44.21967" lon="5.69231">
        <ele>836</ele>
        <time>2019-05-24T13:10:53Z</time>
      </trkpt>
      <trkpt lat="44.21967" lon="5.69228">
        <ele>836</ele>
        <time>2019-05-24T13:10:54Z</time>
      </trkpt>
      <trkpt lat="44.21967" lon="5.69225">
        <ele>836</ele>
        <time>2019-05-24T13:10:55Z</time>
      </trkpt>
      <trkpt lat="44.21967" lon="5.69222">
        <ele>836</ele>
        <time>2019-05-24T13:10:56Z</time>
      </trkpt>
      <trkpt lat="44.21968" lon="5.69219">
        <ele>836</ele>
        <time>2019-05-24T13:10:57Z</time>
      </trkpt>
      <trkpt lat="44.21969" lon="5.69216">
        <ele>836</ele>
        <time>2019-05-24T13:10:58Z</time>
      </trkpt>
      <trkpt lat="44.21969" lon="5.69213">
        <ele>836</ele>
        <time>2019-05-24T13:10:59Z</time>
      </trkpt>
      <trkpt lat="44.21969" lon="5.6921">
        <ele>836</ele>
        <time>2019-05-24T13:11:00Z</time>
      </trkpt>
      <trkpt lat="44.2197" lon="5.69208">
        <ele>836</ele>
        <time>2019-05-24T13:11:01Z</time>
      </trkpt>
      <trkpt lat="44.2197" lon="5.69206">
        <ele>836</ele>
        <time>2019-05-24T13:11:02Z</time>
      </trkpt>
      <trkpt lat="44.21971" lon="5.69203">
        <ele>836</ele>
        <time>2019-05-24T13:11:03Z</time>
      </trkpt>
      <trkpt lat="44.21971" lon="5.69201">
        <ele>836</ele>
        <time>2019-05-24T13:11:04Z</time>
      </trkpt>
      <trkpt lat="44.21972" lon="5.69198">
        <ele>836</ele>
        <time>2019-05-24T13:11:05Z</time>
      </trkpt>
      <trkpt lat="44.21973" lon="5.69196">
        <ele>836</ele>
        <time>2019-05-24T13:11:06Z</time>
      </trkpt>
      <trkpt lat="44.21973" lon="5.69193">
        <ele>836</ele>
        <time>2019-05-24T13:11:07Z</time>
      </trkpt>
      <trkpt lat="44.21973" lon="5.69191">
        <ele>836</ele>
        <time>2019-05-24T13:11:08Z</time>
      </trkpt>
      <trkpt lat="44.21973" lon="5.69187">
        <ele>836</ele>
        <time>2019-05-24T13:11:09Z</time>
      </trkpt>
      <trkpt lat="44.21974" lon="5.69185">
        <ele>836</ele>
        <time>2019-05-24T13:11:10Z</time>
      </trkpt>
      <trkpt lat="44.21975" lon="5.69182">
        <ele>836</ele>
        <time>2019-05-24T13:11:11Z</time>
      </trkpt>
      <trkpt lat="44.21975" lon="5.69179">
        <ele>836</ele>
        <time>2019-05-24T13:11:12Z</time>
      </trkpt>
      <trkpt lat="44.21975" lon="5.69177">
        <ele>836</ele>
        <time>2019-05-24T13:11:13Z</time>
      </trkpt>
      <trkpt lat="44.21976" lon="5.69174">
        <ele>836</ele>
        <time>2019-05-24T13:11:14Z</time>
      </trkpt>
      <trkpt lat="44.21977" lon="5.69171">
        <ele>836</ele>
        <time>2019-05-24T13:11:15Z</time>
      </trkpt>
      <trkpt lat="44.21978" lon="5.69169">
        <ele>836</ele>
        <time>2019-05-24T13:11:16Z</time>
      </trkpt>
      <trkpt lat="44.21978" lon="5.69166">
        <ele>836</ele>
        <time>2019-05-24T13:11:17Z</time>
      </trkpt>
      <trkpt lat="44.21979" lon="5.69164">
        <ele>836</ele>
        <time>2019-05-24T13:11:18Z</time>
      </trkpt>
      <trkpt lat="44.21979" lon="5.69162">
        <ele>836</ele>
        <time>2019-05-24T13:11:19Z</time>
      </trkpt>
      <trkpt lat="44.2198" lon="5.69159">
        <ele>836</ele>
        <time>2019-05-24T13:11:20Z</time>
      </trkpt>
      <trkpt lat="44.2198" lon="5.69156">
        <ele>836</ele>
        <time>2019-05-24T13:11:21Z</time>
      </trkpt>
      <trkpt lat="44.2198" lon="5.69153">
        <ele>836</ele>
        <time>2019-05-24T13:11:22Z</time>
      </trkpt>
      <trkpt lat="44.21981" lon="5.69151">
        <ele>836</ele>
        <time>2019-05-24T13:11:23Z</time>
      </trkpt>
      <trkpt lat="44.21981" lon="5.69148">
        <ele>836</ele>
        <time>2019-05-24T13:11:24Z</time>
      </trkpt>
      <trkpt lat="44.21982" lon="5.69146">
        <ele>836</ele>
        <time>2019-05-24T13:11:25Z</time>
      </trkpt>
      <trkpt lat="44.21982" lon="5.69143">
        <ele>836</ele>
        <time>2019-05-24T13:11:26Z</time>
      </trkpt>
      <trkpt lat="44.21983" lon="5.69141">
        <ele>836</ele>
        <time>2019-05-24T13:11:27Z</time>
      </trkpt>
      <trkpt lat="44.21983" lon="5.69138">
        <ele>836</ele>
        <time>2019-05-24T13:11:28Z</time>
      </trkpt>
      <trkpt lat="44.21984" lon="5.69136">
        <ele>836</ele>
        <time>2019-05-24T13:11:29Z</time>
      </trkpt>
      <trkpt lat="44.21984" lon="5.69133">
        <ele>836</ele>
        <time>2019-05-24T13:11:30Z</time>
      </trkpt>
      <trkpt lat="44.21984" lon="5.69131">
        <ele>836</ele>
        <time>2019-05-24T13:11:31Z</time>
      </trkpt>
      <trkpt lat="44.21984" lon="5.69128">
        <ele>836</ele>
        <time>2019-05-24T13:11:32Z</time>
      </trkpt>
      <trkpt lat="44.21985" lon="5.69126">
        <ele>836</ele>
        <time>2019-05-24T13:11:33Z</time>
      </trkpt>
      <trkpt lat="44.21985" lon="5.69124">
        <ele>836</ele>
        <time>2019-05-24T13:11:34Z</time>
      </trkpt>
      <trkpt lat="44.21986" lon="5.69121">
        <ele>836</ele>
        <time>2019-05-24T13:11:35Z</time>
      </trkpt>
      <trkpt lat="44.21986" lon="5.69118">
        <ele>836</ele>
        <time>2019-05-24T13:11:36Z</time>
      </trkpt>
      <trkpt lat="44.21986" lon="5.69116">
        <ele>836</ele>
        <time>2019-05-24T13:11:37Z</time>
      </trkpt>
      <trkpt lat="44.21986" lon="5.69113">
        <ele>836</ele>
        <time>2019-05-24T13:11:38Z</time>
      </trkpt>
      <trkpt lat="44.21987" lon="5.69111">
        <ele>837</ele>
        <time>2019-05-24T13:11:39Z</time>
      </trkpt>
      <trkpt lat="44.21987" lon="5.69108">
        <ele>837</ele>
        <time>2019-05-24T13:11:40Z</time>
      </trkpt>
      <trkpt lat="44.21987" lon="5.69105">
        <ele>838</ele>
        <time>2019-05-24T13:11:41Z</time>
      </trkpt>
      <trkpt lat="44.21988" lon="5.69102">
        <ele>838</ele>
        <time>2019-05-24T13:11:42Z</time>
      </trkpt>
      <trkpt lat="44.21988" lon="5.691">
        <ele>838</ele>
        <time>2019-05-24T13:11:43Z</time>
      </trkpt>
      <trkpt lat="44.21989" lon="5.69097">
        <ele>838</ele>
        <time>2019-05-24T13:11:44Z</time>
      </trkpt>
      <trkpt lat="44.21989" lon="5.69095">
        <ele>839</ele>
        <time>2019-05-24T13:11:45Z</time>
      </trkpt>
      <trkpt lat="44.21989" lon="5.69092">
        <ele>839</ele>
        <time>2019-05-24T13:11:46Z</time>
      </trkpt>
      <trkpt lat="44.2199" lon="5.6909">
        <ele>839</ele>
        <time>2019-05-24T13:11:47Z</time>
      </trkpt>
      <trkpt lat="44.2199" lon="5.69087">
        <ele>839</ele>
        <time>2019-05-24T13:11:48Z</time>
      </trkpt>
      <trkpt lat="44.2199" lon="5.69085">
        <ele>840</ele>
        <time>2019-05-24T13:11:49Z</time>
      </trkpt>
      <trkpt lat="44.2199" lon="5.69082">
        <ele>840</ele>
        <time>2019-05-24T13:11:50Z</time>
      </trkpt>
      <trkpt lat="44.21991" lon="5.6908">
        <ele>840</ele>
        <time>2019-05-24T13:11:51Z</time>
      </trkpt>
      <trkpt lat="44.21991" lon="5.69077">
        <ele>840</ele>
        <time>2019-05-24T13:11:52Z</time>
      </trkpt>
      <trkpt lat="44.21991" lon="5.69075">
        <ele>840</ele>
        <time>2019-05-24T13:11:53Z</time>
      </trkpt>
      <trkpt lat="44.21992" lon="5.69072">
        <ele>840</ele>
        <time>2019-05-24T13:11:54Z</time>
      </trkpt>
      <trkpt lat="44.21992" lon="5.6907">
        <ele>841</ele>
        <time>2019-05-24T13:11:55Z</time>
      </trkpt>
      <trkpt lat="44.21993" lon="5.69067">
        <ele>841</ele>
        <time>2019-05-24T13:11:56Z</time>
      </trkpt>
      <trkpt lat="44.21993" lon="5.69064">
        <ele>841</ele>
        <time>2019-05-24T13:11:57Z</time>
      </trkpt>
      <trkpt lat="44.21994" lon="5.69062">
        <ele>842</ele>
        <time>2019-05-24T13:11:58Z</time>
      </trkpt>
      <trkpt lat="44.21994" lon="5.69059">
        <ele>842</ele>
        <time>2019-05-24T13:11:59Z</time>
      </trkpt>
      <trkpt lat="44.21994" lon="5.69057">
        <ele>842</ele>
        <time>2019-05-24T13:12:00Z</time>
      </trkpt>
      <trkpt lat="44.21994" lon="5.69055">
        <ele>843</ele>
        <time>2019-05-24T13:12:01Z</time>
      </trkpt>
      <trkpt lat="44.21995" lon="5.69053">
        <ele>843</ele>
        <time>2019-05-24T13:12:02Z</time>
      </trkpt>
      <trkpt lat="44.21996" lon="5.69051">
        <ele>843</ele>
        <time>2019-05-24T13:12:03Z</time>
      </trkpt>
      <trkpt lat="44.21997" lon="5.69049">
        <ele>844</ele>
        <time>2019-05-24T13:12:04Z</time>
      </trkpt>
      <trkpt lat="44.21997" lon="5.69046">
        <ele>844</ele>
        <time>2019-05-24T13:12:05Z</time>
      </trkpt>
      <trkpt lat="44.21997" lon="5.69044">
        <ele>844</ele>
        <time>2019-05-24T13:12:06Z</time>
      </trkpt>
      <trkpt lat="44.21997" lon="5.69041">
        <ele>844</ele>
        <time>2019-05-24T13:12:07Z</time>
      </trkpt>
      <trkpt lat="44.21999" lon="5.69039">
        <ele>845</ele>
        <time>2019-05-24T13:12:08Z</time>
      </trkpt>
      <trkpt lat="44.22" lon="5.69037">
        <ele>845</ele>
        <time>2019-05-24T13:12:09Z</time>
      </trkpt>
      <trkpt lat="44.22001" lon="5.69034">
        <ele>845</ele>
        <time>2019-05-24T13:12:10Z</time>
      </trkpt>
      <trkpt lat="44.22001" lon="5.69032">
        <ele>845</ele>
        <time>2019-05-24T13:12:11Z</time>
      </trkpt>
      <trkpt lat="44.22002" lon="5.6903">
        <ele>846</ele>
        <time>2019-05-24T13:12:12Z</time>
      </trkpt>
      <trkpt lat="44.22003" lon="5.69028">
        <ele>846</ele>
        <time>2019-05-24T13:12:13Z</time>
      </trkpt>
      <trkpt lat="44.22004" lon="5.69025">
        <ele>846</ele>
        <time>2019-05-24T13:12:14Z</time>
      </trkpt>
      <trkpt lat="44.22005" lon="5.69023">
        <ele>846</ele>
        <time>2019-05-24T13:12:15Z</time>
      </trkpt>
      <trkpt lat="44.22006" lon="5.69021">
        <ele>846</ele>
        <time>2019-05-24T13:12:16Z</time>
      </trkpt>
      <trkpt lat="44.22007" lon="5.69019">
        <ele>847</ele>
        <time>2019-05-24T13:12:17Z</time>
      </trkpt>
      <trkpt lat="44.22008" lon="5.69017">
        <ele>847</ele>
        <time>2019-05-24T13:12:18Z</time>
      </trkpt>
      <trkpt lat="44.22009" lon="5.69015">
        <ele>847</ele>
        <time>2019-05-24T13:12:19Z</time>
      </trkpt>
      <trkpt lat="44.2201" lon="5.69012">
        <ele>847</ele>
        <time>2019-05-24T13:12:20Z</time>
      </trkpt>
      <trkpt lat="44.22011" lon="5.6901">
        <ele>848</ele>
        <time>2019-05-24T13:12:21Z</time>
      </trkpt>
      <trkpt lat="44.22012" lon="5.69008">
        <ele>848</ele>
        <time>2019-05-24T13:12:22Z</time>
      </trkpt>
      <trkpt lat="44.22013" lon="5.69006">
        <ele>848</ele>
        <time>2019-05-24T13:12:23Z</time>
      </trkpt>
      <trkpt lat="44.22014" lon="5.69004">
        <ele>848</ele>
        <time>2019-05-24T13:12:24Z</time>
      </trkpt>
      <trkpt lat="44.22015" lon="5.69002">
        <ele>848</ele>
        <time>2019-05-24T13:12:25Z</time>
      </trkpt>
      <trkpt lat="44.22017" lon="5.69">
        <ele>849</ele>
        <time>2019-05-24T13:12:26Z</time>
      </trkpt>
      <trkpt lat="44.22018" lon="5.68998">
        <ele>849</ele>
        <time>2019-05-24T13:12:27Z</time>
      </trkpt>
      <trkpt lat="44.22019" lon="5.68996">
        <ele>849</ele>
        <time>2019-05-24T13:12:28Z</time>
      </trkpt>
      <trkpt lat="44.22021" lon="5.68994">
        <ele>849</ele>
        <time>2019-05-24T13:12:29Z</time>
      </trkpt>
      <trkpt lat="44.22022" lon="5.68992">
        <ele>849</ele>
        <time>2019-05-24T13:12:30Z</time>
      </trkpt>
      <trkpt lat="44.22023" lon="5.6899">
        <ele>849</ele>
        <time>2019-05-24T13:12:31Z</time>
      </trkpt>
      <trkpt lat="44.22025" lon="5.68988">
        <ele>849</ele>
        <time>2019-05-24T13:12:32Z</time>
      </trkpt>
      <trkpt lat="44.22026" lon="5.68986">
        <ele>849</ele>
        <time>2019-05-24T13:12:33Z</time>
      </trkpt>
      <trkpt lat="44.22027" lon="5.68984">
        <ele>849</ele>
        <time>2019-05-24T13:12:34Z</time>
      </trkpt>
      <trkpt lat="44.22029" lon="5.68982">
        <ele>849</ele>
        <time>2019-05-24T13:12:35Z</time>
      </trkpt>
      <trkpt lat="44.2203" lon="5.6898">
        <ele>849</ele>
        <time>2019-05-24T13:12:36Z</time>
      </trkpt>
      <trkpt lat="44.22031" lon="5.68977">
        <ele>849</ele>
        <time>2019-05-24T13:12:37Z</time>
      </trkpt>
      <trkpt lat="44.22033" lon="5.68975">
        <ele>849</ele>
        <time>2019-05-24T13:12:38Z</time>
      </trkpt>
      <trkpt lat="44.22034" lon="5.68973">
        <ele>849</ele>
        <time>2019-05-24T13:12:39Z</time>
      </trkpt>
      <trkpt lat="44.22036" lon="5.68971">
        <ele>849</ele>
        <time>2019-05-24T13:12:40Z</time>
      </trkpt>
      <trkpt lat="44.22037" lon="5.68969">
        <ele>849</ele>
        <time>2019-05-24T13:12:41Z</time>
      </trkpt>
      <trkpt lat="44.22039" lon="5.68968">
        <ele>849</ele>
        <time>2019-05-24T13:12:42Z</time>
      </trkpt>
      <trkpt lat="44.22041" lon="5.68966">
        <ele>849</ele>
        <time>2019-05-24T13:12:43Z</time>
      </trkpt>
      <trkpt lat="44.22043" lon="5.68963">
        <ele>849</ele>
        <time>2019-05-24T13:12:44Z</time>
      </trkpt>
      <trkpt lat="44.22044" lon="5.68961">
        <ele>849</ele>
        <time>2019-05-24T13:12:45Z</time>
      </trkpt>
      <trkpt lat="44.22046" lon="5.68959">
        <ele>849</ele>
        <time>2019-05-24T13:12:46Z</time>
      </trkpt>
      <trkpt lat="44.22047" lon="5.68957">
        <ele>849</ele>
        <time>2019-05-24T13:12:47Z</time>
      </trkpt>
      <trkpt lat="44.22049" lon="5.68955">
        <ele>849</ele>
        <time>2019-05-24T13:12:48Z</time>
      </trkpt>
      <trkpt lat="44.2205" lon="5.68953">
        <ele>849</ele>
        <time>2019-05-24T13:12:49Z</time>
      </trkpt>
      <trkpt lat="44.22052" lon="5.68951">
        <ele>849</ele>
        <time>2019-05-24T13:12:50Z</time>
      </trkpt>
      <trkpt lat="44.22053" lon="5.68949">
        <ele>849</ele>
        <time>2019-05-24T13:12:51Z</time>
      </trkpt>
      <trkpt lat="44.22055" lon="5.68947">
        <ele>849</ele>
        <time>2019-05-24T13:12:52Z</time>
      </trkpt>
      <trkpt lat="44.22056" lon="5.68945">
        <ele>849</ele>
        <time>2019-05-24T13:12:53Z</time>
      </trkpt>
      <trkpt lat="44.22057" lon="5.68943">
        <ele>849</ele>
        <time>2019-05-24T13:12:54Z</time>
      </trkpt>
      <trkpt lat="44.22059" lon="5.68941">
        <ele>849</ele>
        <time>2019-05-24T13:12:55Z</time>
      </trkpt>
      <trkpt lat="44.2206" lon="5.68939">
        <ele>849</ele>
        <time>2019-05-24T13:12:56Z</time>
      </trkpt>
      <trkpt lat="44.22061" lon="5.68936">
        <ele>849</ele>
        <time>2019-05-24T13:12:57Z</time>
      </trkpt>
      <trkpt lat="44.22062" lon="5.68934">
        <ele>850</ele>
        <time>2019-05-24T13:12:58Z</time>
      </trkpt>
      <trkpt lat="44.22063" lon="5.68932">
        <ele>850</ele>
        <time>2019-05-24T13:12:59Z</time>
      </trkpt>
      <trkpt lat="44.22065" lon="5.6893">
        <ele>850</ele>
        <time>2019-05-24T13:13:00Z</time>
      </trkpt>
      <trkpt lat="44.22066" lon="5.68928">
        <ele>850</ele>
        <time>2019-05-24T13:13:01Z</time>
      </trkpt>
      <trkpt lat="44.22067" lon="5.68926">
        <ele>851</ele>
        <time>2019-05-24T13:13:02Z</time>
      </trkpt>
      <trkpt lat="44.22068" lon="5.68924">
        <ele>851</ele>
        <time>2019-05-24T13:13:03Z</time>
      </trkpt>
      <trkpt lat="44.2207" lon="5.68923">
        <ele>851</ele>
        <time>2019-05-24T13:13:04Z</time>
      </trkpt>
      <trkpt lat="44.22071" lon="5.68921">
        <ele>851</ele>
        <time>2019-05-24T13:13:05Z</time>
      </trkpt>
      <trkpt lat="44.22073" lon="5.68919">
        <ele>852</ele>
        <time>2019-05-24T13:13:06Z</time>
      </trkpt>
      <trkpt lat="44.22074" lon="5.68917">
        <ele>852</ele>
        <time>2019-05-24T13:13:07Z</time>
      </trkpt>
      <trkpt lat="44.22075" lon="5.68915">
        <ele>853</ele>
        <time>2019-05-24T13:13:08Z</time>
      </trkpt>
      <trkpt lat="44.22076" lon="5.68913">
        <ele>853</ele>
        <time>2019-05-24T13:13:09Z</time>
      </trkpt>
      <trkpt lat="44.22078" lon="5.68911">
        <ele>854</ele>
        <time>2019-05-24T13:13:10Z</time>
      </trkpt>
      <trkpt lat="44.22079" lon="5.68909">
        <ele>854</ele>
        <time>2019-05-24T13:13:11Z</time>
      </trkpt>
      <trkpt lat="44.2208" lon="5.68906">
        <ele>854</ele>
        <time>2019-05-24T13:13:12Z</time>
      </trkpt>
      <trkpt lat="44.22081" lon="5.68903">
        <ele>855</ele>
        <time>2019-05-24T13:13:13Z</time>
      </trkpt>
      <trkpt lat="44.22083" lon="5.68901">
        <ele>856</ele>
        <time>2019-05-24T13:13:14Z</time>
      </trkpt>
      <trkpt lat="44.22084" lon="5.68898">
        <ele>856</ele>
        <time>2019-05-24T13:13:15Z</time>
      </trkpt>
      <trkpt lat="44.22085" lon="5.68896">
        <ele>857</ele>
        <time>2019-05-24T13:13:16Z</time>
      </trkpt>
      <trkpt lat="44.22086" lon="5.68894">
        <ele>858</ele>
        <time>2019-05-24T13:13:17Z</time>
      </trkpt>
      <trkpt lat="44.22087" lon="5.68892">
        <ele>858</ele>
        <time>2019-05-24T13:13:18Z</time>
      </trkpt>
      <trkpt lat="44.22088" lon="5.6889">
        <ele>858</ele>
        <time>2019-05-24T13:13:19Z</time>
      </trkpt>
      <trkpt lat="44.22089" lon="5.68888">
        <ele>859</ele>
        <time>2019-05-24T13:13:20Z</time>
      </trkpt>
      <trkpt lat="44.22091" lon="5.68885">
        <ele>859</ele>
        <time>2019-05-24T13:13:21Z</time>
      </trkpt>
      <trkpt lat="44.22092" lon="5.68883">
        <ele>859</ele>
        <time>2019-05-24T13:13:22Z</time>
      </trkpt>
      <trkpt lat="44.22092" lon="5.6888">
        <ele>859</ele>
        <time>2019-05-24T13:13:23Z</time>
      </trkpt>
      <trkpt lat="44.22093" lon="5.68878">
        <ele>859</ele>
        <time>2019-05-24T13:13:24Z</time>
      </trkpt>
      <trkpt lat="44.22094" lon="5.68874">
        <ele>859</ele>
        <time>2019-05-24T13:13:25Z</time>
      </trkpt>
      <trkpt lat="44.22096" lon="5.68871">
        <ele>859</ele>
        <time>2019-05-24T13:13:26Z</time>
      </trkpt>
      <trkpt lat="44.22097" lon="5.68869">
        <ele>859</ele>
        <time>2019-05-24T13:13:27Z</time>
      </trkpt>
      <trkpt lat="44.22098" lon="5.68866">
        <ele>859</ele>
        <time>2019-05-24T13:13:28Z</time>
      </trkpt>
      <trkpt lat="44.22099" lon="5.68863">
        <ele>859</ele>
        <time>2019-05-24T13:13:29Z</time>
      </trkpt>
      <trkpt lat="44.221" lon="5.6886">
        <ele>859</ele>
        <time>2019-05-24T13:13:30Z</time>
      </trkpt>
      <trkpt lat="44.22101" lon="5.68857">
        <ele>859</ele>
        <time>2019-05-24T13:13:31Z</time>
      </trkpt>
      <trkpt lat="44.22102" lon="5.68854">
        <ele>859</ele>
        <time>2019-05-24T13:13:32Z</time>
      </trkpt>
      <trkpt lat="44.22103" lon="5.68852">
        <ele>859</ele>
        <time>2019-05-24T13:13:33Z</time>
      </trkpt>
      <trkpt lat="44.22104" lon="5.68848">
        <ele>859</ele>
        <time>2019-05-24T13:13:34Z</time>
      </trkpt>
      <trkpt lat="44.22105" lon="5.68845">
        <ele>859</ele>
        <time>2019-05-24T13:13:35Z</time>
      </trkpt>
      <trkpt lat="44.22106" lon="5.68842">
        <ele>859</ele>
        <time>2019-05-24T13:13:36Z</time>
      </trkpt>
      <trkpt lat="44.22107" lon="5.68839">
        <ele>859</ele>
        <time>2019-05-24T13:13:37Z</time>
      </trkpt>
      <trkpt lat="44.22107" lon="5.68835">
        <ele>859</ele>
        <time>2019-05-24T13:13:38Z</time>
      </trkpt>
      <trkpt lat="44.22108" lon="5.68832">
        <ele>859</ele>
        <time>2019-05-24T13:13:39Z</time>
      </trkpt>
      <trkpt lat="44.22109" lon="5.68828">
        <ele>859</ele>
        <time>2019-05-24T13:13:40Z</time>
      </trkpt>
      <trkpt lat="44.2211" lon="5.68825">
        <ele>859</ele>
        <time>2019-05-24T13:13:41Z</time>
      </trkpt>
      <trkpt lat="44.22111" lon="5.68821">
        <ele>859</ele>
        <time>2019-05-24T13:13:42Z</time>
      </trkpt>
      <trkpt lat="44.22112" lon="5.68818">
        <ele>859</ele>
        <time>2019-05-24T13:13:43Z</time>
      </trkpt>
      <trkpt lat="44.22112" lon="5.68814">
        <ele>859</ele>
        <time>2019-05-24T13:13:44Z</time>
      </trkpt>
      <trkpt lat="44.22113" lon="5.68811">
        <ele>859</ele>
        <time>2019-05-24T13:13:45Z</time>
      </trkpt>
      <trkpt lat="44.22114" lon="5.68807">
        <ele>859</ele>
        <time>2019-05-24T13:13:46Z</time>
      </trkpt>
      <trkpt lat="44.22115" lon="5.68804">
        <ele>859</ele>
        <time>2019-05-24T13:13:47Z</time>
      </trkpt>
      <trkpt lat="44.22116" lon="5.68801">
        <ele>859</ele>
        <time>2019-05-24T13:13:48Z</time>
      </trkpt>
      <trkpt lat="44.22118" lon="5.68798">
        <ele>859</ele>
        <time>2019-05-24T13:13:49Z</time>
      </trkpt>
      <trkpt lat="44.22119" lon="5.68795">
        <ele>859</ele>
        <time>2019-05-24T13:13:50Z</time>
      </trkpt>
      <trkpt lat="44.2212" lon="5.68791">
        <ele>859</ele>
        <time>2019-05-24T13:13:51Z</time>
      </trkpt>
      <trkpt lat="44.22121" lon="5.68788">
        <ele>859</ele>
        <time>2019-05-24T13:13:52Z</time>
      </trkpt>
      <trkpt lat="44.22123" lon="5.68785">
        <ele>859</ele>
        <time>2019-05-24T13:13:53Z</time>
      </trkpt>
      <trkpt lat="44.22124" lon="5.68783">
        <ele>859</ele>
        <time>2019-05-24T13:13:54Z</time>
      </trkpt>
      <trkpt lat="44.22126" lon="5.6878">
        <ele>859</ele>
        <time>2019-05-24T13:13:55Z</time>
      </trkpt>
      <trkpt lat="44.22127" lon="5.68777">
        <ele>859</ele>
        <time>2019-05-24T13:13:56Z</time>
      </trkpt>
      <trkpt lat="44.22129" lon="5.68775">
        <ele>859</ele>
        <time>2019-05-24T13:13:57Z</time>
      </trkpt>
      <trkpt lat="44.2213" lon="5.68772">
        <ele>859</ele>
        <time>2019-05-24T13:13:58Z</time>
      </trkpt>
      <trkpt lat="44.22131" lon="5.6877">
        <ele>859</ele>
        <time>2019-05-24T13:13:59Z</time>
      </trkpt>
      <trkpt lat="44.22132" lon="5.68767">
        <ele>859</ele>
        <time>2019-05-24T13:14:00Z</time>
      </trkpt>
      <trkpt lat="44.22134" lon="5.68764">
        <ele>860</ele>
        <time>2019-05-24T13:14:01Z</time>
      </trkpt>
      <trkpt lat="44.22135" lon="5.68762">
        <ele>860</ele>
        <time>2019-05-24T13:14:02Z</time>
      </trkpt>
      <trkpt lat="44.22136" lon="5.68759">
        <ele>860</ele>
        <time>2019-05-24T13:14:03Z</time>
      </trkpt>
      <trkpt lat="44.22138" lon="5.68757">
        <ele>861</ele>
        <time>2019-05-24T13:14:04Z</time>
      </trkpt>
      <trkpt lat="44.22139" lon="5.68754">
        <ele>861</ele>
        <time>2019-05-24T13:14:05Z</time>
      </trkpt>
      <trkpt lat="44.22141" lon="5.68752">
        <ele>861</ele>
        <time>2019-05-24T13:14:06Z</time>
      </trkpt>
      <trkpt lat="44.22143" lon="5.6875">
        <ele>861</ele>
        <time>2019-05-24T13:14:07Z</time>
      </trkpt>
      <trkpt lat="44.22145" lon="5.68749">
        <ele>861</ele>
        <time>2019-05-24T13:14:08Z</time>
      </trkpt>
      <trkpt lat="44.22147" lon="5.68747">
        <ele>861</ele>
        <time>2019-05-24T13:14:09Z</time>
      </trkpt>
      <trkpt lat="44.22149" lon="5.68746">
        <ele>861</ele>
        <time>2019-05-24T13:14:10Z</time>
      </trkpt>
      <trkpt lat="44.22152" lon="5.68744">
        <ele>861</ele>
        <time>2019-05-24T13:14:11Z</time>
      </trkpt>
      <trkpt lat="44.22154" lon="5.68744">
        <ele>861</ele>
        <time>2019-05-24T13:14:12Z</time>
      </trkpt>
      <trkpt lat="44.22157" lon="5.68743">
        <ele>861</ele>
        <time>2019-05-24T13:14:13Z</time>
      </trkpt>
      <trkpt lat="44.22159" lon="5.68744">
        <ele>861</ele>
        <time>2019-05-24T13:14:14Z</time>
      </trkpt>
      <trkpt lat="44.22162" lon="5.68744">
        <ele>862</ele>
        <time>2019-05-24T13:14:15Z</time>
      </trkpt>
      <trkpt lat="44.22164" lon="5.68745">
        <ele>862</ele>
        <time>2019-05-24T13:14:16Z</time>
      </trkpt>
      <trkpt lat="44.22167" lon="5.68747">
        <ele>862</ele>
        <time>2019-05-24T13:14:17Z</time>
      </trkpt>
      <trkpt lat="44.22168" lon="5.68748">
        <ele>863</ele>
        <time>2019-05-24T13:14:18Z</time>
      </trkpt>
      <trkpt lat="44.2217" lon="5.6875">
        <ele>863</ele>
        <time>2019-05-24T13:14:19Z</time>
      </trkpt>
      <trkpt lat="44.22172" lon="5.68753">
        <ele>863</ele>
        <time>2019-05-24T13:14:20Z</time>
      </trkpt>
      <trkpt lat="44.22173" lon="5.68755">
        <ele>863</ele>
        <time>2019-05-24T13:14:21Z</time>
      </trkpt>
      <trkpt lat="44.22174" lon="5.68758">
        <ele>864</ele>
        <time>2019-05-24T13:14:22Z</time>
      </trkpt>
      <trkpt lat="44.22175" lon="5.6876">
        <ele>864</ele>
        <time>2019-05-24T13:14:23Z</time>
      </trkpt>
      <trkpt lat="44.22176" lon="5.68763">
        <ele>864</ele>
        <time>2019-05-24T13:14:24Z</time>
      </trkpt>
      <trkpt lat="44.22176" lon="5.68766">
        <ele>865</ele>
        <time>2019-05-24T13:14:25Z</time>
      </trkpt>
      <trkpt lat="44.22177" lon="5.68767">
        <ele>865</ele>
        <time>2019-05-24T13:14:26Z</time>
      </trkpt>
      <trkpt lat="44.22178" lon="5.68769">
        <ele>866</ele>
        <time>2019-05-24T13:14:27Z</time>
      </trkpt>
      <trkpt lat="44.22178" lon="5.68772">
        <ele>866</ele>
        <time>2019-05-24T13:14:28Z</time>
      </trkpt>
      <trkpt lat="44.22178" lon="5.68774">
        <ele>867</ele>
        <time>2019-05-24T13:14:29Z</time>
      </trkpt>
      <trkpt lat="44.22178" lon="5.68776">
        <ele>867</ele>
        <time>2019-05-24T13:14:30Z</time>
      </trkpt>
      <trkpt lat="44.22179" lon="5.68778">
        <ele>868</ele>
        <time>2019-05-24T13:14:31Z</time>
      </trkpt>
      <trkpt lat="44.22179" lon="5.68781">
        <ele>868</ele>
        <time>2019-05-24T13:14:32Z</time>
      </trkpt>
      <trkpt lat="44.22179" lon="5.68784">
        <ele>869</ele>
        <time>2019-05-24T13:14:33Z</time>
      </trkpt>
      <trkpt lat="44.22179" lon="5.68786">
        <ele>869</ele>
        <time>2019-05-24T13:14:34Z</time>
      </trkpt>
      <trkpt lat="44.22179" lon="5.68789">
        <ele>869</ele>
        <time>2019-05-24T13:14:35Z</time>
      </trkpt>
      <trkpt lat="44.22179" lon="5.68792">
        <ele>869</ele>
        <time>2019-05-24T13:14:36Z</time>
      </trkpt>
      <trkpt lat="44.2218" lon="5.68794">
        <ele>870</ele>
        <time>2019-05-24T13:14:37Z</time>
      </trkpt>
      <trkpt lat="44.2218" lon="5.68797">
        <ele>870</ele>
        <time>2019-05-24T13:14:38Z</time>
      </trkpt>
      <trkpt lat="44.2218" lon="5.688">
        <ele>870</ele>
        <time>2019-05-24T13:14:39Z</time>
      </trkpt>
      <trkpt lat="44.22181" lon="5.68802">
        <ele>871</ele>
        <time>2019-05-24T13:14:40Z</time>
      </trkpt>
      <trkpt lat="44.22181" lon="5.68805">
        <ele>871</ele>
        <time>2019-05-24T13:14:41Z</time>
      </trkpt>
      <trkpt lat="44.22182" lon="5.68807">
        <ele>871</ele>
        <time>2019-05-24T13:14:42Z</time>
      </trkpt>
      <trkpt lat="44.22182" lon="5.6881">
        <ele>871</ele>
        <time>2019-05-24T13:14:43Z</time>
      </trkpt>
      <trkpt lat="44.22183" lon="5.68813">
        <ele>872</ele>
        <time>2019-05-24T13:14:44Z</time>
      </trkpt>
      <trkpt lat="44.22184" lon="5.68815">
        <ele>872</ele>
        <time>2019-05-24T13:14:45Z</time>
      </trkpt>
      <trkpt lat="44.22185" lon="5.68818">
        <ele>872</ele>
        <time>2019-05-24T13:14:46Z</time>
      </trkpt>
      <trkpt lat="44.22186" lon="5.6882">
        <ele>872</ele>
        <time>2019-05-24T13:14:47Z</time>
      </trkpt>
      <trkpt lat="44.22187" lon="5.68823">
        <ele>872</ele>
        <time>2019-05-24T13:14:48Z</time>
      </trkpt>
      <trkpt lat="44.22188" lon="5.68826">
        <ele>872</ele>
        <time>2019-05-24T13:14:49Z</time>
      </trkpt>
      <trkpt lat="44.22189" lon="5.68828">
        <ele>872</ele>
        <time>2019-05-24T13:14:50Z</time>
      </trkpt>
      <trkpt lat="44.2219" lon="5.68831">
        <ele>872</ele>
        <time>2019-05-24T13:14:51Z</time>
      </trkpt>
      <trkpt lat="44.22191" lon="5.68834">
        <ele>873</ele>
        <time>2019-05-24T13:14:52Z</time>
      </trkpt>
      <trkpt lat="44.22192" lon="5.68836">
        <ele>873</ele>
        <time>2019-05-24T13:14:53Z</time>
      </trkpt>
      <trkpt lat="44.22193" lon="5.68839">
        <ele>873</ele>
        <time>2019-05-24T13:14:54Z</time>
      </trkpt>
      <trkpt lat="44.22195" lon="5.68841">
        <ele>873</ele>
        <time>2019-05-24T13:14:55Z</time>
      </trkpt>
      <trkpt lat="44.22196" lon="5.68843">
        <ele>873</ele>
        <time>2019-05-24T13:14:56Z</time>
      </trkpt>
      <trkpt lat="44.22197" lon="5.68845">
        <ele>873</ele>
        <time>2019-05-24T13:14:57Z</time>
      </trkpt>
      <trkpt lat="44.22199" lon="5.68848">
        <ele>873</ele>
        <time>2019-05-24T13:14:58Z</time>
      </trkpt>
      <trkpt lat="44.222" lon="5.6885">
        <ele>873</ele>
        <time>2019-05-24T13:14:59Z</time>
      </trkpt>
      <trkpt lat="44.22202" lon="5.68852">
        <ele>874</ele>
        <time>2019-05-24T13:15:00Z</time>
      </trkpt>
      <trkpt lat="44.22204" lon="5.68853">
        <ele>874</ele>
        <time>2019-05-24T13:15:01Z</time>
      </trkpt>
      <trkpt lat="44.22205" lon="5.68855">
        <ele>874</ele>
        <time>2019-05-24T13:15:02Z</time>
      </trkpt>
      <trkpt lat="44.22206" lon="5.68856">
        <ele>874</ele>
        <time>2019-05-24T13:15:03Z</time>
      </trkpt>
      <trkpt lat="44.22208" lon="5.68858">
        <ele>874</ele>
        <time>2019-05-24T13:15:04Z</time>
      </trkpt>
      <trkpt lat="44.22211" lon="5.68859">
        <ele>874</ele>
        <time>2019-05-24T13:15:05Z</time>
      </trkpt>
      <trkpt lat="44.22213" lon="5.68861">
        <ele>875</ele>
        <time>2019-05-24T13:15:06Z</time>
      </trkpt>
      <trkpt lat="44.22215" lon="5.68862">
        <ele>875</ele>
        <time>2019-05-24T13:15:07Z</time>
      </trkpt>
      <trkpt lat="44.22218" lon="5.68864">
        <ele>875</ele>
        <time>2019-05-24T13:15:08Z</time>
      </trkpt>
      <trkpt lat="44.22219" lon="5.68865">
        <ele>875</ele>
        <time>2019-05-24T13:15:09Z</time>
      </trkpt>
      <trkpt lat="44.22222" lon="5.68865">
        <ele>875</ele>
        <time>2019-05-24T13:15:10Z</time>
      </trkpt>
      <trkpt lat="44.22224" lon="5.68865">
        <ele>875</ele>
        <time>2019-05-24T13:15:11Z</time>
      </trkpt>
      <trkpt lat="44.22226" lon="5.68865">
        <ele>875</ele>
        <time>2019-05-24T13:15:12Z</time>
      </trkpt>
      <trkpt lat="44.22229" lon="5.68865">
        <ele>875</ele>
        <time>2019-05-24T13:15:13Z</time>
      </trkpt>
      <trkpt lat="44.22231" lon="5.68864">
        <ele>875</ele>
        <time>2019-05-24T13:15:14Z</time>
      </trkpt>
      <trkpt lat="44.22233" lon="5.68864">
        <ele>875</ele>
        <time>2019-05-24T13:15:15Z</time>
      </trkpt>
      <trkpt lat="44.22235" lon="5.68863">
        <ele>876</ele>
        <time>2019-05-24T13:15:16Z</time>
      </trkpt>
      <trkpt lat="44.22237" lon="5.68861">
        <ele>876</ele>
        <time>2019-05-24T13:15:17Z</time>
      </trkpt>
      <trkpt lat="44.2224" lon="5.68859">
        <ele>876</ele>
        <time>2019-05-24T13:15:18Z</time>
      </trkpt>
      <trkpt lat="44.22241" lon="5.68858">
        <ele>876</ele>
        <time>2019-05-24T13:15:19Z</time>
      </trkpt>
      <trkpt lat="44.22243" lon="5.68856">
        <ele>877</ele>
        <time>2019-05-24T13:15:20Z</time>
      </trkpt>
      <trkpt lat="44.22245" lon="5.68854">
        <ele>877</ele>
        <time>2019-05-24T13:15:21Z</time>
      </trkpt>
      <trkpt lat="44.22247" lon="5.68853">
        <ele>877</ele>
        <time>2019-05-24T13:15:22Z</time>
      </trkpt>
      <trkpt lat="44.22249" lon="5.68851">
        <ele>877</ele>
        <time>2019-05-24T13:15:23Z</time>
      </trkpt>
      <trkpt lat="44.2225" lon="5.68849">
        <ele>878</ele>
        <time>2019-05-24T13:15:24Z</time>
      </trkpt>
      <trkpt lat="44.22252" lon="5.68847">
        <ele>878</ele>
        <time>2019-05-24T13:15:25Z</time>
      </trkpt>
      <trkpt lat="44.22253" lon="5.68845">
        <ele>878</ele>
        <time>2019-05-24T13:15:26Z</time>
      </trkpt>
      <trkpt lat="44.22255" lon="5.68842">
        <ele>879</ele>
        <time>2019-05-24T13:15:27Z</time>
      </trkpt>
      <trkpt lat="44.22256" lon="5.6884">
        <ele>879</ele>
        <time>2019-05-24T13:15:28Z</time>
      </trkpt>
      <trkpt lat="44.22257" lon="5.68837">
        <ele>879</ele>
        <time>2019-05-24T13:15:29Z</time>
      </trkpt>
      <trkpt lat="44.22258" lon="5.68834">
        <ele>879</ele>
        <time>2019-05-24T13:15:30Z</time>
      </trkpt>
      <trkpt lat="44.2226" lon="5.68832">
        <ele>880</ele>
        <time>2019-05-24T13:15:31Z</time>
      </trkpt>
      <trkpt lat="44.22261" lon="5.68829">
        <ele>880</ele>
        <time>2019-05-24T13:15:32Z</time>
      </trkpt>
      <trkpt lat="44.22262" lon="5.68826">
        <ele>880</ele>
        <time>2019-05-24T13:15:33Z</time>
      </trkpt>
      <trkpt lat="44.22263" lon="5.68824">
        <ele>880</ele>
        <time>2019-05-24T13:15:34Z</time>
      </trkpt>
      <trkpt lat="44.22265" lon="5.68822">
        <ele>880</ele>
        <time>2019-05-24T13:15:35Z</time>
      </trkpt>
      <trkpt lat="44.22266" lon="5.6882">
        <ele>881</ele>
        <time>2019-05-24T13:15:36Z</time>
      </trkpt>
      <trkpt lat="44.22267" lon="5.68818">
        <ele>881</ele>
        <time>2019-05-24T13:15:37Z</time>
      </trkpt>
      <trkpt lat="44.22268" lon="5.68816">
        <ele>881</ele>
        <time>2019-05-24T13:15:38Z</time>
      </trkpt>
      <trkpt lat="44.22269" lon="5.68813">
        <ele>881</ele>
        <time>2019-05-24T13:15:39Z</time>
      </trkpt>
      <trkpt lat="44.2227" lon="5.68811">
        <ele>882</ele>
        <time>2019-05-24T13:15:40Z</time>
      </trkpt>
      <trkpt lat="44.22271" lon="5.68808">
        <ele>882</ele>
        <time>2019-05-24T13:15:41Z</time>
      </trkpt>
      <trkpt lat="44.22272" lon="5.68806">
        <ele>882</ele>
        <time>2019-05-24T13:15:42Z</time>
      </trkpt>
      <trkpt lat="44.22273" lon="5.68803">
        <ele>883</ele>
        <time>2019-05-24T13:15:43Z</time>
      </trkpt>
      <trkpt lat="44.22274" lon="5.68801">
        <ele>883</ele>
        <time>2019-05-24T13:15:44Z</time>
      </trkpt>
      <trkpt lat="44.22275" lon="5.68798">
        <ele>883</ele>
        <time>2019-05-24T13:15:45Z</time>
      </trkpt>
      <trkpt lat="44.22276" lon="5.68796">
        <ele>884</ele>
        <time>2019-05-24T13:15:46Z</time>
      </trkpt>
      <trkpt lat="44.22277" lon="5.68793">
        <ele>884</ele>
        <time>2019-05-24T13:15:47Z</time>
      </trkpt>
      <trkpt lat="44.22277" lon="5.68791">
        <ele>884</ele>
        <time>2019-05-24T13:15:48Z</time>
      </trkpt>
      <trkpt lat="44.22278" lon="5.68788">
        <ele>885</ele>
        <time>2019-05-24T13:15:49Z</time>
      </trkpt>
      <trkpt lat="44.22279" lon="5.68786">
        <ele>885</ele>
        <time>2019-05-24T13:15:50Z</time>
      </trkpt>
      <trkpt lat="44.2228" lon="5.68784">
        <ele>885</ele>
        <time>2019-05-24T13:15:51Z</time>
      </trkpt>
      <trkpt lat="44.22281" lon="5.68781">
        <ele>885</ele>
        <time>2019-05-24T13:15:52Z</time>
      </trkpt>
      <trkpt lat="44.22282" lon="5.68779">
        <ele>886</ele>
        <time>2019-05-24T13:15:53Z</time>
      </trkpt>
      <trkpt lat="44.22282" lon="5.68776">
        <ele>886</ele>
        <time>2019-05-24T13:15:54Z</time>
      </trkpt>
      <trkpt lat="44.22283" lon="5.68774">
        <ele>886</ele>
        <time>2019-05-24T13:15:55Z</time>
      </trkpt>
      <trkpt lat="44.22284" lon="5.68771">
        <ele>887</ele>
        <time>2019-05-24T13:15:56Z</time>
      </trkpt>
      <trkpt lat="44.22284" lon="5.68768">
        <ele>887</ele>
        <time>2019-05-24T13:15:57Z</time>
      </trkpt>
      <trkpt lat="44.22285" lon="5.68765">
        <ele>887</ele>
        <time>2019-05-24T13:15:58Z</time>
      </trkpt>
      <trkpt lat="44.22286" lon="5.68763">
        <ele>888</ele>
        <time>2019-05-24T13:15:59Z</time>
      </trkpt>
      <trkpt lat="44.22287" lon="5.6876">
        <ele>888</ele>
        <time>2019-05-24T13:16:00Z</time>
      </trkpt>
      <trkpt lat="44.22288" lon="5.68757">
        <ele>888</ele>
        <time>2019-05-24T13:16:01Z</time>
      </trkpt>
      <trkpt lat="44.22289" lon="5.68755">
        <ele>888</ele>
        <time>2019-05-24T13:16:02Z</time>
      </trkpt>
      <trkpt lat="44.2229" lon="5.68752">
        <ele>888</ele>
        <time>2019-05-24T13:16:03Z</time>
      </trkpt>
      <trkpt lat="44.2229" lon="5.68749">
        <ele>889</ele>
        <time>2019-05-24T13:16:04Z</time>
      </trkpt>
      <trkpt lat="44.22292" lon="5.68747">
        <ele>889</ele>
        <time>2019-05-24T13:16:05Z</time>
      </trkpt>
      <trkpt lat="44.22292" lon="5.68744">
        <ele>889</ele>
        <time>2019-05-24T13:16:06Z</time>
      </trkpt>
      <trkpt lat="44.22294" lon="5.68742">
        <ele>889</ele>
        <time>2019-05-24T13:16:07Z</time>
      </trkpt>
      <trkpt lat="44.22295" lon="5.68739">
        <ele>889</ele>
        <time>2019-05-24T13:16:08Z</time>
      </trkpt>
      <trkpt lat="44.22296" lon="5.68737">
        <ele>889</ele>
        <time>2019-05-24T13:16:09Z</time>
      </trkpt>
      <trkpt lat="44.22297" lon="5.68735">
        <ele>889</ele>
        <time>2019-05-24T13:16:10Z</time>
      </trkpt>
      <trkpt lat="44.22298" lon="5.68733">
        <ele>889</ele>
        <time>2019-05-24T13:16:11Z</time>
      </trkpt>
      <trkpt lat="44.223" lon="5.68732">
        <ele>889</ele>
        <time>2019-05-24T13:16:12Z</time>
      </trkpt>
      <trkpt lat="44.22301" lon="5.68731">
        <ele>889</ele>
        <time>2019-05-24T13:16:13Z</time>
      </trkpt>
      <trkpt lat="44.22302" lon="5.6873">
        <ele>889</ele>
        <time>2019-05-24T13:16:15Z</time>
      </trkpt>
      <trkpt lat="44.22301" lon="5.68729">
        <ele>890</ele>
        <time>2019-05-24T13:17:01Z</time>
      </trkpt>
      <trkpt lat="44.22302" lon="5.6873">
        <ele>890</ele>
        <time>2019-05-24T13:18:29Z</time>
      </trkpt>
      <trkpt lat="44.22303" lon="5.68733">
        <ele>890</ele>
        <time>2019-05-24T13:18:32Z</time>
      </trkpt>
      <trkpt lat="44.22301" lon="5.68733">
        <ele>890</ele>
        <time>2019-05-24T13:18:46Z</time>
      </trkpt>
      <trkpt lat="44.22301" lon="5.68734">
        <ele>890</ele>
        <time>2019-05-24T13:18:50Z</time>
      </trkpt>
      <trkpt lat="44.22302" lon="5.68734">
        <ele>891</ele>
        <time>2019-05-24T13:18:57Z</time>
      </trkpt>
      <trkpt lat="44.22303" lon="5.68732">
        <ele>891</ele>
        <time>2019-05-24T13:19:03Z</time>
      </trkpt>
      <trkpt lat="44.22304" lon="5.68731">
        <ele>891</ele>
        <time>2019-05-24T13:19:12Z</time>
      </trkpt>
      <trkpt lat="44.22305" lon="5.68729">
        <ele>888</ele>
        <time>2019-05-24T13:19:17Z</time>
      </trkpt>
      <trkpt lat="44.22305" lon="5.68728">
        <ele>887</ele>
        <time>2019-05-24T13:19:32Z</time>
      </trkpt>
      <trkpt lat="44.22304" lon="5.68727">
        <ele>888</ele>
        <time>2019-05-24T13:19:45Z</time>
      </trkpt>
      <trkpt lat="44.22305" lon="5.68727">
        <ele>890</ele>
        <time>2019-05-24T13:19:54Z</time>
      </trkpt>
      <trkpt lat="44.22304" lon="5.68729">
        <ele>890</ele>
        <time>2019-05-24T13:20:40Z</time>
      </trkpt>
      <trkpt lat="44.22306" lon="5.68729">
        <ele>890</ele>
        <time>2019-05-24T13:20:56Z</time>
      </trkpt>
      <trkpt lat="44.22307" lon="5.68728">
        <ele>890</ele>
        <time>2019-05-24T13:21:13Z</time>
      </trkpt>
      <trkpt lat="44.22308" lon="5.68728">
        <ele>890</ele>
        <time>2019-05-24T13:21:17Z</time>
      </trkpt>
      <trkpt lat="44.2231" lon="5.68729">
        <ele>890</ele>
        <time>2019-05-24T13:21:19Z</time>
      </trkpt>
      <trkpt lat="44.22312" lon="5.68729">
        <ele>890</ele>
        <time>2019-05-24T13:21:20Z</time>
      </trkpt>
      <trkpt lat="44.22314" lon="5.68729">
        <ele>890</ele>
        <time>2019-05-24T13:21:21Z</time>
      </trkpt>
      <trkpt lat="44.22316" lon="5.68729">
        <ele>890</ele>
        <time>2019-05-24T13:21:22Z</time>
      </trkpt>
      <trkpt lat="44.22319" lon="5.68728">
        <ele>890</ele>
        <time>2019-05-24T13:21:23Z</time>
      </trkpt>
      <trkpt lat="44.22322" lon="5.68727">
        <ele>890</ele>
        <time>2019-05-24T13:21:24Z</time>
      </trkpt>
      <trkpt lat="44.22325" lon="5.68726">
        <ele>890</ele>
        <time>2019-05-24T13:21:25Z</time>
      </trkpt>
      <trkpt lat="44.22329" lon="5.68725">
        <ele>890</ele>
        <time>2019-05-24T13:21:26Z</time>
      </trkpt>
      <trkpt lat="44.22332" lon="5.68723">
        <ele>890</ele>
        <time>2019-05-24T13:21:27Z</time>
      </trkpt>
      <trkpt lat="44.22337" lon="5.68721">
        <ele>890</ele>
        <time>2019-05-24T13:21:28Z</time>
      </trkpt>
      <trkpt lat="44.22342" lon="5.68719">
        <ele>890</ele>
        <time>2019-05-24T13:21:29Z</time>
      </trkpt>
      <trkpt lat="44.22347" lon="5.68716">
        <ele>890</ele>
        <time>2019-05-24T13:21:30Z</time>
      </trkpt>
      <trkpt lat="44.22353" lon="5.68714">
        <ele>890</ele>
        <time>2019-05-24T13:21:31Z</time>
      </trkpt>
      <trkpt lat="44.2236" lon="5.68711">
        <ele>890</ele>
        <time>2019-05-24T13:21:32Z</time>
      </trkpt>
      <trkpt lat="44.22367" lon="5.68709">
        <ele>890</ele>
        <time>2019-05-24T13:21:33Z</time>
      </trkpt>
      <trkpt lat="44.22375" lon="5.68706">
        <ele>890</ele>
        <time>2019-05-24T13:21:34Z</time>
      </trkpt>
      <trkpt lat="44.22384" lon="5.68704">
        <ele>890</ele>
        <time>2019-05-24T13:21:35Z</time>
      </trkpt>
      <trkpt lat="44.22392" lon="5.68701">
        <ele>889</ele>
        <time>2019-05-24T13:21:36Z</time>
      </trkpt>
      <trkpt lat="44.224" lon="5.68698">
        <ele>889</ele>
        <time>2019-05-24T13:21:37Z</time>
      </trkpt>
      <trkpt lat="44.22408" lon="5.68695">
        <ele>888</ele>
        <time>2019-05-24T13:21:38Z</time>
      </trkpt>
      <trkpt lat="44.22416" lon="5.68691">
        <ele>887</ele>
        <time>2019-05-24T13:21:39Z</time>
      </trkpt>
      <trkpt lat="44.22424" lon="5.68687">
        <ele>887</ele>
        <time>2019-05-24T13:21:40Z</time>
      </trkpt>
      <trkpt lat="44.22432" lon="5.68682">
        <ele>886</ele>
        <time>2019-05-24T13:21:41Z</time>
      </trkpt>
      <trkpt lat="44.22441" lon="5.68679">
        <ele>885</ele>
        <time>2019-05-24T13:21:42Z</time>
      </trkpt>
      <trkpt lat="44.22449" lon="5.68674">
        <ele>884</ele>
        <time>2019-05-24T13:21:43Z</time>
      </trkpt>
      <trkpt lat="44.22458" lon="5.6867">
        <ele>883</ele>
        <time>2019-05-24T13:21:44Z</time>
      </trkpt>
      <trkpt lat="44.22467" lon="5.68664">
        <ele>882</ele>
        <time>2019-05-24T13:21:45Z</time>
      </trkpt>
      <trkpt lat="44.22475" lon="5.68659">
        <ele>881</ele>
        <time>2019-05-24T13:21:46Z</time>
      </trkpt>
      <trkpt lat="44.22483" lon="5.68653">
        <ele>880</ele>
        <time>2019-05-24T13:21:47Z</time>
      </trkpt>
      <trkpt lat="44.2249" lon="5.68647">
        <ele>879</ele>
        <time>2019-05-24T13:21:48Z</time>
      </trkpt>
      <trkpt lat="44.22498" lon="5.68642">
        <ele>878</ele>
        <time>2019-05-24T13:21:49Z</time>
      </trkpt>
      <trkpt lat="44.22506" lon="5.68636">
        <ele>877</ele>
        <time>2019-05-24T13:21:50Z</time>
      </trkpt>
      <trkpt lat="44.22513" lon="5.6863">
        <ele>876</ele>
        <time>2019-05-24T13:21:51Z</time>
      </trkpt>
      <trkpt lat="44.22519" lon="5.68622">
        <ele>875</ele>
        <time>2019-05-24T13:21:52Z</time>
      </trkpt>
      <trkpt lat="44.22524" lon="5.68613">
        <ele>874</ele>
        <time>2019-05-24T13:21:53Z</time>
      </trkpt>
      <trkpt lat="44.2253" lon="5.68603">
        <ele>873</ele>
        <time>2019-05-24T13:21:54Z</time>
      </trkpt>
      <trkpt lat="44.22533" lon="5.68591">
        <ele>872</ele>
        <time>2019-05-24T13:21:55Z</time>
      </trkpt>
      <trkpt lat="44.22537" lon="5.68579">
        <ele>871</ele>
        <time>2019-05-24T13:21:56Z</time>
      </trkpt>
      <trkpt lat="44.22541" lon="5.68568">
        <ele>870</ele>
        <time>2019-05-24T13:21:57Z</time>
      </trkpt>
      <trkpt lat="44.22545" lon="5.68556">
        <ele>869</ele>
        <time>2019-05-24T13:21:58Z</time>
      </trkpt>
      <trkpt lat="44.22549" lon="5.68544">
        <ele>868</ele>
        <time>2019-05-24T13:21:59Z</time>
      </trkpt>
      <trkpt lat="44.22552" lon="5.68534">
        <ele>867</ele>
        <time>2019-05-24T13:22:00Z</time>
      </trkpt>
      <trkpt lat="44.22556" lon="5.68524">
        <ele>866</ele>
        <time>2019-05-24T13:22:01Z</time>
      </trkpt>
      <trkpt lat="44.22558" lon="5.68514">
        <ele>865</ele>
        <time>2019-05-24T13:22:02Z</time>
      </trkpt>
      <trkpt lat="44.22561" lon="5.68504">
        <ele>864</ele>
        <time>2019-05-24T13:22:03Z</time>
      </trkpt>
      <trkpt lat="44.22562" lon="5.68494">
        <ele>863</ele>
        <time>2019-05-24T13:22:04Z</time>
      </trkpt>
      <trkpt lat="44.22564" lon="5.68484">
        <ele>862</ele>
        <time>2019-05-24T13:22:05Z</time>
      </trkpt>
      <trkpt lat="44.22565" lon="5.68474">
        <ele>861</ele>
        <time>2019-05-24T13:22:06Z</time>
      </trkpt>
      <trkpt lat="44.22566" lon="5.68465">
        <ele>860</ele>
        <time>2019-05-24T13:22:07Z</time>
      </trkpt>
      <trkpt lat="44.22567" lon="5.68456">
        <ele>859</ele>
        <time>2019-05-24T13:22:08Z</time>
      </trkpt>
      <trkpt lat="44.2257" lon="5.68446">
        <ele>858</ele>
        <time>2019-05-24T13:22:09Z</time>
      </trkpt>
      <trkpt lat="44.22574" lon="5.68436">
        <ele>857</ele>
        <time>2019-05-24T13:22:10Z</time>
      </trkpt>
      <trkpt lat="44.22578" lon="5.68427">
        <ele>856</ele>
        <time>2019-05-24T13:22:11Z</time>
      </trkpt>
      <trkpt lat="44.22584" lon="5.68418">
        <ele>855</ele>
        <time>2019-05-24T13:22:12Z</time>
      </trkpt>
      <trkpt lat="44.22589" lon="5.68409">
        <ele>854</ele>
        <time>2019-05-24T13:22:13Z</time>
      </trkpt>
      <trkpt lat="44.22596" lon="5.684">
        <ele>853</ele>
        <time>2019-05-24T13:22:14Z</time>
      </trkpt>
      <trkpt lat="44.22602" lon="5.68393">
        <ele>852</ele>
        <time>2019-05-24T13:22:15Z</time>
      </trkpt>
      <trkpt lat="44.2261" lon="5.68387">
        <ele>851</ele>
        <time>2019-05-24T13:22:16Z</time>
      </trkpt>
      <trkpt lat="44.22618" lon="5.68382">
        <ele>849</ele>
        <time>2019-05-24T13:22:17Z</time>
      </trkpt>
      <trkpt lat="44.22626" lon="5.68376">
        <ele>848</ele>
        <time>2019-05-24T13:22:18Z</time>
      </trkpt>
      <trkpt lat="44.22633" lon="5.6837">
        <ele>847</ele>
        <time>2019-05-24T13:22:19Z</time>
      </trkpt>
      <trkpt lat="44.22637" lon="5.68363">
        <ele>846</ele>
        <time>2019-05-24T13:22:20Z</time>
      </trkpt>
      <trkpt lat="44.2264" lon="5.68355">
        <ele>845</ele>
        <time>2019-05-24T13:22:21Z</time>
      </trkpt>
      <trkpt lat="44.22642" lon="5.68347">
        <ele>844</ele>
        <time>2019-05-24T13:22:22Z</time>
      </trkpt>
      <trkpt lat="44.22641" lon="5.68336">
        <ele>843</ele>
        <time>2019-05-24T13:22:23Z</time>
      </trkpt>
      <trkpt lat="44.22638" lon="5.68324">
        <ele>842</ele>
        <time>2019-05-24T13:22:24Z</time>
      </trkpt>
      <trkpt lat="44.22637" lon="5.68313">
        <ele>841</ele>
        <time>2019-05-24T13:22:25Z</time>
      </trkpt>
      <trkpt lat="44.22637" lon="5.68303">
        <ele>840</ele>
        <time>2019-05-24T13:22:26Z</time>
      </trkpt>
      <trkpt lat="44.22638" lon="5.68295">
        <ele>839</ele>
        <time>2019-05-24T13:22:27Z</time>
      </trkpt>
      <trkpt lat="44.2264" lon="5.68286">
        <ele>838</ele>
        <time>2019-05-24T13:22:28Z</time>
      </trkpt>
      <trkpt lat="44.22642" lon="5.68279">
        <ele>837</ele>
        <time>2019-05-24T13:22:29Z</time>
      </trkpt>
      <trkpt lat="44.22645" lon="5.68274">
        <ele>836</ele>
        <time>2019-05-24T13:22:30Z</time>
      </trkpt>
      <trkpt lat="44.22649" lon="5.68276">
        <ele>835</ele>
        <time>2019-05-24T13:22:31Z</time>
      </trkpt>
      <trkpt lat="44.22653" lon="5.68283">
        <ele>834</ele>
        <time>2019-05-24T13:22:32Z</time>
      </trkpt>
      <trkpt lat="44.22657" lon="5.68291">
        <ele>834</ele>
        <time>2019-05-24T13:22:33Z</time>
      </trkpt>
      <trkpt lat="44.2266" lon="5.68301">
        <ele>834</ele>
        <time>2019-05-24T13:22:34Z</time>
      </trkpt>
      <trkpt lat="44.22663" lon="5.6831">
        <ele>834</ele>
        <time>2019-05-24T13:22:35Z</time>
      </trkpt>
      <trkpt lat="44.22666" lon="5.68321">
        <ele>834</ele>
        <time>2019-05-24T13:22:36Z</time>
      </trkpt>
      <trkpt lat="44.22669" lon="5.68331">
        <ele>834</ele>
        <time>2019-05-24T13:22:37Z</time>
      </trkpt>
      <trkpt lat="44.22671" lon="5.68342">
        <ele>834</ele>
        <time>2019-05-24T13:22:38Z</time>
      </trkpt>
      <trkpt lat="44.22673" lon="5.68354">
        <ele>834</ele>
        <time>2019-05-24T13:22:39Z</time>
      </trkpt>
      <trkpt lat="44.22676" lon="5.68365">
        <ele>834</ele>
        <time>2019-05-24T13:22:40Z</time>
      </trkpt>
      <trkpt lat="44.22676" lon="5.68377">
        <ele>834</ele>
        <time>2019-05-24T13:22:41Z</time>
      </trkpt>
      <trkpt lat="44.22676" lon="5.68388">
        <ele>833</ele>
        <time>2019-05-24T13:22:42Z</time>
      </trkpt>
      <trkpt lat="44.22677" lon="5.68397">
        <ele>833</ele>
        <time>2019-05-24T13:22:43Z</time>
      </trkpt>
      <trkpt lat="44.22678" lon="5.68405">
        <ele>832</ele>
        <time>2019-05-24T13:22:44Z</time>
      </trkpt>
      <trkpt lat="44.22681" lon="5.68412">
        <ele>831</ele>
        <time>2019-05-24T13:22:45Z</time>
      </trkpt>
      <trkpt lat="44.22685" lon="5.68416">
        <ele>831</ele>
        <time>2019-05-24T13:22:46Z</time>
      </trkpt>
      <trkpt lat="44.22689" lon="5.68416">
        <ele>830</ele>
        <time>2019-05-24T13:22:47Z</time>
      </trkpt>
      <trkpt lat="44.22693" lon="5.68411">
        <ele>829</ele>
        <time>2019-05-24T13:22:48Z</time>
      </trkpt>
      <trkpt lat="44.22696" lon="5.68405">
        <ele>829</ele>
        <time>2019-05-24T13:22:49Z</time>
      </trkpt>
      <trkpt lat="44.22696" lon="5.68397">
        <ele>829</ele>
        <time>2019-05-24T13:22:50Z</time>
      </trkpt>
      <trkpt lat="44.22696" lon="5.68388">
        <ele>828</ele>
        <time>2019-05-24T13:22:51Z</time>
      </trkpt>
      <trkpt lat="44.22696" lon="5.68378">
        <ele>828</ele>
        <time>2019-05-24T13:22:52Z</time>
      </trkpt>
      <trkpt lat="44.22697" lon="5.68368">
        <ele>827</ele>
        <time>2019-05-24T13:22:53Z</time>
      </trkpt>
      <trkpt lat="44.22697" lon="5.68358">
        <ele>827</ele>
        <time>2019-05-24T13:22:54Z</time>
      </trkpt>
      <trkpt lat="44.22698" lon="5.68347">
        <ele>826</ele>
        <time>2019-05-24T13:22:55Z</time>
      </trkpt>
      <trkpt lat="44.22699" lon="5.68336">
        <ele>826</ele>
        <time>2019-05-24T13:22:56Z</time>
      </trkpt>
      <trkpt lat="44.22699" lon="5.68324">
        <ele>825</ele>
        <time>2019-05-24T13:22:57Z</time>
      </trkpt>
      <trkpt lat="44.22702" lon="5.68312">
        <ele>824</ele>
        <time>2019-05-24T13:22:58Z</time>
      </trkpt>
      <trkpt lat="44.22705" lon="5.683">
        <ele>824</ele>
        <time>2019-05-24T13:22:59Z</time>
      </trkpt>
      <trkpt lat="44.22709" lon="5.68289">
        <ele>823</ele>
        <time>2019-05-24T13:23:00Z</time>
      </trkpt>
      <trkpt lat="44.22714" lon="5.68279">
        <ele>822</ele>
        <time>2019-05-24T13:23:01Z</time>
      </trkpt>
      <trkpt lat="44.22721" lon="5.6827">
        <ele>821</ele>
        <time>2019-05-24T13:23:02Z</time>
      </trkpt>
      <trkpt lat="44.22727" lon="5.68261">
        <ele>821</ele>
        <time>2019-05-24T13:23:03Z</time>
      </trkpt>
      <trkpt lat="44.22736" lon="5.68255">
        <ele>820</ele>
        <time>2019-05-24T13:23:04Z</time>
      </trkpt>
      <trkpt lat="44.22745" lon="5.68251">
        <ele>820</ele>
        <time>2019-05-24T13:23:05Z</time>
      </trkpt>
      <trkpt lat="44.22755" lon="5.68247">
        <ele>819</ele>
        <time>2019-05-24T13:23:06Z</time>
      </trkpt>
      <trkpt lat="44.22767" lon="5.68248">
        <ele>819</ele>
        <time>2019-05-24T13:23:07Z</time>
      </trkpt>
      <trkpt lat="44.22777" lon="5.68247">
        <ele>818</ele>
        <time>2019-05-24T13:23:08Z</time>
      </trkpt>
      <trkpt lat="44.22786" lon="5.68247">
        <ele>817</ele>
        <time>2019-05-24T13:23:09Z</time>
      </trkpt>
      <trkpt lat="44.22795" lon="5.68245">
        <ele>817</ele>
        <time>2019-05-24T13:23:10Z</time>
      </trkpt>
      <trkpt lat="44.22804" lon="5.68243">
        <ele>816</ele>
        <time>2019-05-24T13:23:11Z</time>
      </trkpt>
      <trkpt lat="44.22812" lon="5.68238">
        <ele>815</ele>
        <time>2019-05-24T13:23:12Z</time>
      </trkpt>
      <trkpt lat="44.22819" lon="5.6823">
        <ele>814</ele>
        <time>2019-05-24T13:23:13Z</time>
      </trkpt>
      <trkpt lat="44.22825" lon="5.68221">
        <ele>813</ele>
        <time>2019-05-24T13:23:14Z</time>
      </trkpt>
      <trkpt lat="44.22831" lon="5.68211">
        <ele>812</ele>
        <time>2019-05-24T13:23:15Z</time>
      </trkpt>
      <trkpt lat="44.22837" lon="5.68202">
        <ele>812</ele>
        <time>2019-05-24T13:23:16Z</time>
      </trkpt>
      <trkpt lat="44.22845" lon="5.68195">
        <ele>811</ele>
        <time>2019-05-24T13:23:17Z</time>
      </trkpt>
      <trkpt lat="44.22853" lon="5.68191">
        <ele>811</ele>
        <time>2019-05-24T13:23:18Z</time>
      </trkpt>
      <trkpt lat="44.22862" lon="5.68189">
        <ele>810</ele>
        <time>2019-05-24T13:23:19Z</time>
      </trkpt>
      <trkpt lat="44.2287" lon="5.68188">
        <ele>809</ele>
        <time>2019-05-24T13:23:20Z</time>
      </trkpt>
      <trkpt lat="44.22878" lon="5.68189">
        <ele>809</ele>
        <time>2019-05-24T13:23:21Z</time>
      </trkpt>
      <trkpt lat="44.22885" lon="5.68191">
        <ele>808</ele>
        <time>2019-05-24T13:23:22Z</time>
      </trkpt>
      <trkpt lat="44.2289" lon="5.68196">
        <ele>807</ele>
        <time>2019-05-24T13:23:23Z</time>
      </trkpt>
      <trkpt lat="44.22894" lon="5.68203">
        <ele>806</ele>
        <time>2019-05-24T13:23:24Z</time>
      </trkpt>
      <trkpt lat="44.22896" lon="5.68212">
        <ele>805</ele>
        <time>2019-05-24T13:23:25Z</time>
      </trkpt>
      <trkpt lat="44.22896" lon="5.68221">
        <ele>804</ele>
        <time>2019-05-24T13:23:26Z</time>
      </trkpt>
      <trkpt lat="44.22896" lon="5.68231">
        <ele>803</ele>
        <time>2019-05-24T13:23:27Z</time>
      </trkpt>
      <trkpt lat="44.22896" lon="5.68242">
        <ele>802</ele>
        <time>2019-05-24T13:23:28Z</time>
      </trkpt>
      <trkpt lat="44.22897" lon="5.68252">
        <ele>801</ele>
        <time>2019-05-24T13:23:29Z</time>
      </trkpt>
      <trkpt lat="44.22897" lon="5.68262">
        <ele>800</ele>
        <time>2019-05-24T13:23:30Z</time>
      </trkpt>
      <trkpt lat="44.22897" lon="5.68272">
        <ele>799</ele>
        <time>2019-05-24T13:23:31Z</time>
      </trkpt>
      <trkpt lat="44.22895" lon="5.68282">
        <ele>798</ele>
        <time>2019-05-24T13:23:32Z</time>
      </trkpt>
      <trkpt lat="44.22892" lon="5.68291">
        <ele>797</ele>
        <time>2019-05-24T13:23:33Z</time>
      </trkpt>
      <trkpt lat="44.22887" lon="5.68299">
        <ele>796</ele>
        <time>2019-05-24T13:23:34Z</time>
      </trkpt>
      <trkpt lat="44.22881" lon="5.68307">
        <ele>795</ele>
        <time>2019-05-24T13:23:35Z</time>
      </trkpt>
      <trkpt lat="44.22874" lon="5.68316">
        <ele>794</ele>
        <time>2019-05-24T13:23:36Z</time>
      </trkpt>
      <trkpt lat="44.22868" lon="5.68326">
        <ele>794</ele>
        <time>2019-05-24T13:23:37Z</time>
      </trkpt>
      <trkpt lat="44.22863" lon="5.68337">
        <ele>793</ele>
        <time>2019-05-24T13:23:38Z</time>
      </trkpt>
      <trkpt lat="44.2286" lon="5.68349">
        <ele>793</ele>
        <time>2019-05-24T13:23:39Z</time>
      </trkpt>
      <trkpt lat="44.22857" lon="5.6836">
        <ele>792</ele>
        <time>2019-05-24T13:23:40Z</time>
      </trkpt>
      <trkpt lat="44.22853" lon="5.68371">
        <ele>791</ele>
        <time>2019-05-24T13:23:41Z</time>
      </trkpt>
      <trkpt lat="44.22848" lon="5.68383">
        <ele>790</ele>
        <time>2019-05-24T13:23:42Z</time>
      </trkpt>
      <trkpt lat="44.22844" lon="5.68393">
        <ele>789</ele>
        <time>2019-05-24T13:23:43Z</time>
      </trkpt>
      <trkpt lat="44.22842" lon="5.68404">
        <ele>788</ele>
        <time>2019-05-24T13:23:44Z</time>
      </trkpt>
      <trkpt lat="44.22839" lon="5.68415">
        <ele>787</ele>
        <time>2019-05-24T13:23:45Z</time>
      </trkpt>
      <trkpt lat="44.22837" lon="5.68426">
        <ele>786</ele>
        <time>2019-05-24T13:23:46Z</time>
      </trkpt>
      <trkpt lat="44.22833" lon="5.68435">
        <ele>785</ele>
        <time>2019-05-24T13:23:47Z</time>
      </trkpt>
      <trkpt lat="44.2283" lon="5.68444">
        <ele>784</ele>
        <time>2019-05-24T13:23:48Z</time>
      </trkpt>
      <trkpt lat="44.22824" lon="5.68447">
        <ele>783</ele>
        <time>2019-05-24T13:23:49Z</time>
      </trkpt>
      <trkpt lat="44.2282" lon="5.68453">
        <ele>782</ele>
        <time>2019-05-24T13:23:50Z</time>
      </trkpt>
      <trkpt lat="44.22818" lon="5.68459">
        <ele>782</ele>
        <time>2019-05-24T13:23:51Z</time>
      </trkpt>
      <trkpt lat="44.22817" lon="5.68465">
        <ele>781</ele>
        <time>2019-05-24T13:23:52Z</time>
      </trkpt>
      <trkpt lat="44.22819" lon="5.6847">
        <ele>780</ele>
        <time>2019-05-24T13:23:53Z</time>
      </trkpt>
      <trkpt lat="44.22822" lon="5.68472">
        <ele>780</ele>
        <time>2019-05-24T13:23:54Z</time>
      </trkpt>
      <trkpt lat="44.22824" lon="5.68471">
        <ele>779</ele>
        <time>2019-05-24T13:23:55Z</time>
      </trkpt>
      <trkpt lat="44.22829" lon="5.68468">
        <ele>778</ele>
        <time>2019-05-24T13:23:56Z</time>
      </trkpt>
      <trkpt lat="44.22833" lon="5.68465">
        <ele>778</ele>
        <time>2019-05-24T13:23:57Z</time>
      </trkpt>
      <trkpt lat="44.22837" lon="5.68461">
        <ele>778</ele>
        <time>2019-05-24T13:23:58Z</time>
      </trkpt>
      <trkpt lat="44.22841" lon="5.68458">
        <ele>778</ele>
        <time>2019-05-24T13:23:59Z</time>
      </trkpt>
      <trkpt lat="44.22845" lon="5.68454">
        <ele>777</ele>
        <time>2019-05-24T13:24:00Z</time>
      </trkpt>
      <trkpt lat="44.22848" lon="5.68449">
        <ele>777</ele>
        <time>2019-05-24T13:24:01Z</time>
      </trkpt>
      <trkpt lat="44.22852" lon="5.68443">
        <ele>776</ele>
        <time>2019-05-24T13:24:02Z</time>
      </trkpt>
      <trkpt lat="44.22855" lon="5.68435">
        <ele>776</ele>
        <time>2019-05-24T13:24:03Z</time>
      </trkpt>
      <trkpt lat="44.22858" lon="5.68428">
        <ele>775</ele>
        <time>2019-05-24T13:24:04Z</time>
      </trkpt>
      <trkpt lat="44.22862" lon="5.68421">
        <ele>775</ele>
        <time>2019-05-24T13:24:05Z</time>
      </trkpt>
      <trkpt lat="44.22866" lon="5.68414">
        <ele>775</ele>
        <time>2019-05-24T13:24:06Z</time>
      </trkpt>
      <trkpt lat="44.22871" lon="5.68407">
        <ele>775</ele>
        <time>2019-05-24T13:24:07Z</time>
      </trkpt>
      <trkpt lat="44.22877" lon="5.68402">
        <ele>775</ele>
        <time>2019-05-24T13:24:08Z</time>
      </trkpt>
      <trkpt lat="44.22883" lon="5.68399">
        <ele>775</ele>
        <time>2019-05-24T13:24:09Z</time>
      </trkpt>
      <trkpt lat="44.2289" lon="5.68395">
        <ele>775</ele>
        <time>2019-05-24T13:24:10Z</time>
      </trkpt>
      <trkpt lat="44.22897" lon="5.68392">
        <ele>775</ele>
        <time>2019-05-24T13:24:11Z</time>
      </trkpt>
      <trkpt lat="44.22904" lon="5.68389">
        <ele>775</ele>
        <time>2019-05-24T13:24:12Z</time>
      </trkpt>
      <trkpt lat="44.22912" lon="5.68386">
        <ele>775</ele>
        <time>2019-05-24T13:24:13Z</time>
      </trkpt>
      <trkpt lat="44.2292" lon="5.68383">
        <ele>775</ele>
        <time>2019-05-24T13:24:14Z</time>
      </trkpt>
      <trkpt lat="44.22928" lon="5.68378">
        <ele>774</ele>
        <time>2019-05-24T13:24:15Z</time>
      </trkpt>
      <trkpt lat="44.22936" lon="5.68372">
        <ele>773</ele>
        <time>2019-05-24T13:24:16Z</time>
      </trkpt>
      <trkpt lat="44.22943" lon="5.68364">
        <ele>772</ele>
        <time>2019-05-24T13:24:17Z</time>
      </trkpt>
      <trkpt lat="44.22951" lon="5.68356">
        <ele>771</ele>
        <time>2019-05-24T13:24:18Z</time>
      </trkpt>
      <trkpt lat="44.22957" lon="5.68346">
        <ele>770</ele>
        <time>2019-05-24T13:24:19Z</time>
      </trkpt>
      <trkpt lat="44.22963" lon="5.68335">
        <ele>769</ele>
        <time>2019-05-24T13:24:20Z</time>
      </trkpt>
      <trkpt lat="44.22967" lon="5.68321">
        <ele>768</ele>
        <time>2019-05-24T13:24:21Z</time>
      </trkpt>
      <trkpt lat="44.22971" lon="5.68308">
        <ele>768</ele>
        <time>2019-05-24T13:24:22Z</time>
      </trkpt>
      <trkpt lat="44.22974" lon="5.68294">
        <ele>768</ele>
        <time>2019-05-24T13:24:23Z</time>
      </trkpt>
      <trkpt lat="44.22977" lon="5.68282">
        <ele>768</ele>
        <time>2019-05-24T13:24:24Z</time>
      </trkpt>
      <trkpt lat="44.22979" lon="5.6827">
        <ele>768</ele>
        <time>2019-05-24T13:24:25Z</time>
      </trkpt>
      <trkpt lat="44.22982" lon="5.68258">
        <ele>768</ele>
        <time>2019-05-24T13:24:26Z</time>
      </trkpt>
      <trkpt lat="44.22986" lon="5.68246">
        <ele>768</ele>
        <time>2019-05-24T13:24:27Z</time>
      </trkpt>
      <trkpt lat="44.22991" lon="5.68235">
        <ele>768</ele>
        <time>2019-05-24T13:24:28Z</time>
      </trkpt>
      <trkpt lat="44.22997" lon="5.68225">
        <ele>768</ele>
        <time>2019-05-24T13:24:29Z</time>
      </trkpt>
      <trkpt lat="44.23005" lon="5.68217">
        <ele>768</ele>
        <time>2019-05-24T13:24:30Z</time>
      </trkpt>
      <trkpt lat="44.23012" lon="5.68209">
        <ele>768</ele>
        <time>2019-05-24T13:24:31Z</time>
      </trkpt>
      <trkpt lat="44.2302" lon="5.68202">
        <ele>768</ele>
        <time>2019-05-24T13:24:32Z</time>
      </trkpt>
      <trkpt lat="44.23028" lon="5.68196">
        <ele>767</ele>
        <time>2019-05-24T13:24:33Z</time>
      </trkpt>
      <trkpt lat="44.23036" lon="5.6819">
        <ele>767</ele>
        <time>2019-05-24T13:24:34Z</time>
      </trkpt>
      <trkpt lat="44.23044" lon="5.68185">
        <ele>766</ele>
        <time>2019-05-24T13:24:35Z</time>
      </trkpt>
      <trkpt lat="44.23053" lon="5.6818">
        <ele>765</ele>
        <time>2019-05-24T13:24:36Z</time>
      </trkpt>
      <trkpt lat="44.23062" lon="5.68177">
        <ele>764</ele>
        <time>2019-05-24T13:24:37Z</time>
      </trkpt>
      <trkpt lat="44.23071" lon="5.68176">
        <ele>764</ele>
        <time>2019-05-24T13:24:38Z</time>
      </trkpt>
      <trkpt lat="44.2308" lon="5.68177">
        <ele>763</ele>
        <time>2019-05-24T13:24:39Z</time>
      </trkpt>
      <trkpt lat="44.2309" lon="5.6818">
        <ele>762</ele>
        <time>2019-05-24T13:24:40Z</time>
      </trkpt>
      <trkpt lat="44.23099" lon="5.68183">
        <ele>761</ele>
        <time>2019-05-24T13:24:41Z</time>
      </trkpt>
      <trkpt lat="44.23108" lon="5.68187">
        <ele>760</ele>
        <time>2019-05-24T13:24:42Z</time>
      </trkpt>
      <trkpt lat="44.23117" lon="5.6819">
        <ele>759</ele>
        <time>2019-05-24T13:24:43Z</time>
      </trkpt>
      <trkpt lat="44.23126" lon="5.68194">
        <ele>758</ele>
        <time>2019-05-24T13:24:44Z</time>
      </trkpt>
      <trkpt lat="44.23136" lon="5.68196">
        <ele>757</ele>
        <time>2019-05-24T13:24:45Z</time>
      </trkpt>
      <trkpt lat="44.23145" lon="5.68198">
        <ele>757</ele>
        <time>2019-05-24T13:24:46Z</time>
      </trkpt>
      <trkpt lat="44.23154" lon="5.682">
        <ele>756</ele>
        <time>2019-05-24T13:24:47Z</time>
      </trkpt>
      <trkpt lat="44.23164" lon="5.68202">
        <ele>755</ele>
        <time>2019-05-24T13:24:48Z</time>
      </trkpt>
      <trkpt lat="44.23173" lon="5.68204">
        <ele>755</ele>
        <time>2019-05-24T13:24:49Z</time>
      </trkpt>
      <trkpt lat="44.23182" lon="5.68207">
        <ele>755</ele>
        <time>2019-05-24T13:24:50Z</time>
      </trkpt>
      <trkpt lat="44.23192" lon="5.68209">
        <ele>754</ele>
        <time>2019-05-24T13:24:51Z</time>
      </trkpt>
      <trkpt lat="44.23201" lon="5.68211">
        <ele>754</ele>
        <time>2019-05-24T13:24:52Z</time>
      </trkpt>
      <trkpt lat="44.23211" lon="5.68212">
        <ele>754</ele>
        <time>2019-05-24T13:24:53Z</time>
      </trkpt>
      <trkpt lat="44.2322" lon="5.68212">
        <ele>753</ele>
        <time>2019-05-24T13:24:54Z</time>
      </trkpt>
      <trkpt lat="44.23229" lon="5.68212">
        <ele>753</ele>
        <time>2019-05-24T13:24:55Z</time>
      </trkpt>
      <trkpt lat="44.23239" lon="5.68212">
        <ele>752</ele>
        <time>2019-05-24T13:24:56Z</time>
      </trkpt>
      <trkpt lat="44.23248" lon="5.68213">
        <ele>752</ele>
        <time>2019-05-24T13:24:57Z</time>
      </trkpt>
      <trkpt lat="44.23257" lon="5.68214">
        <ele>751</ele>
        <time>2019-05-24T13:24:58Z</time>
      </trkpt>
      <trkpt lat="44.23267" lon="5.68216">
        <ele>750</ele>
        <time>2019-05-24T13:24:59Z</time>
      </trkpt>
      <trkpt lat="44.23275" lon="5.68217">
        <ele>750</ele>
        <time>2019-05-24T13:25:00Z</time>
      </trkpt>
      <trkpt lat="44.23284" lon="5.68219">
        <ele>749</ele>
        <time>2019-05-24T13:25:01Z</time>
      </trkpt>
      <trkpt lat="44.23292" lon="5.68222">
        <ele>748</ele>
        <time>2019-05-24T13:25:02Z</time>
      </trkpt>
      <trkpt lat="44.23301" lon="5.68225">
        <ele>748</ele>
        <time>2019-05-24T13:25:03Z</time>
      </trkpt>
      <trkpt lat="44.2331" lon="5.6823">
        <ele>747</ele>
        <time>2019-05-24T13:25:04Z</time>
      </trkpt>
      <trkpt lat="44.23319" lon="5.68234">
        <ele>747</ele>
        <time>2019-05-24T13:25:05Z</time>
      </trkpt>
      <trkpt lat="44.23328" lon="5.6824">
        <ele>746</ele>
        <time>2019-05-24T13:25:06Z</time>
      </trkpt>
      <trkpt lat="44.23338" lon="5.68245">
        <ele>746</ele>
        <time>2019-05-24T13:25:07Z</time>
      </trkpt>
      <trkpt lat="44.23347" lon="5.6825">
        <ele>745</ele>
        <time>2019-05-24T13:25:08Z</time>
      </trkpt>
      <trkpt lat="44.23356" lon="5.68255">
        <ele>745</ele>
        <time>2019-05-24T13:25:09Z</time>
      </trkpt>
      <trkpt lat="44.23365" lon="5.68262">
        <ele>745</ele>
        <time>2019-05-24T13:25:10Z</time>
      </trkpt>
      <trkpt lat="44.23374" lon="5.6827">
        <ele>744</ele>
        <time>2019-05-24T13:25:11Z</time>
      </trkpt>
      <trkpt lat="44.23382" lon="5.68279">
        <ele>744</ele>
        <time>2019-05-24T13:25:12Z</time>
      </trkpt>
      <trkpt lat="44.23391" lon="5.68288">
        <ele>744</ele>
        <time>2019-05-24T13:25:13Z</time>
      </trkpt>
      <trkpt lat="44.23399" lon="5.68296">
        <ele>743</ele>
        <time>2019-05-24T13:25:14Z</time>
      </trkpt>
      <trkpt lat="44.23407" lon="5.68304">
        <ele>743</ele>
        <time>2019-05-24T13:25:15Z</time>
      </trkpt>
      <trkpt lat="44.23414" lon="5.68312">
        <ele>743</ele>
        <time>2019-05-24T13:25:16Z</time>
      </trkpt>
      <trkpt lat="44.23421" lon="5.6832">
        <ele>742</ele>
        <time>2019-05-24T13:25:17Z</time>
      </trkpt>
      <trkpt lat="44.23427" lon="5.6833">
        <ele>742</ele>
        <time>2019-05-24T13:25:18Z</time>
      </trkpt>
      <trkpt lat="44.23434" lon="5.68339">
        <ele>741</ele>
        <time>2019-05-24T13:25:19Z</time>
      </trkpt>
      <trkpt lat="44.23439" lon="5.68349">
        <ele>741</ele>
        <time>2019-05-24T13:25:20Z</time>
      </trkpt>
      <trkpt lat="44.23445" lon="5.68358">
        <ele>740</ele>
        <time>2019-05-24T13:25:21Z</time>
      </trkpt>
      <trkpt lat="44.23451" lon="5.68367">
        <ele>740</ele>
        <time>2019-05-24T13:25:22Z</time>
      </trkpt>
      <trkpt lat="44.23457" lon="5.68377">
        <ele>739</ele>
        <time>2019-05-24T13:25:23Z</time>
      </trkpt>
      <trkpt lat="44.23462" lon="5.68388">
        <ele>738</ele>
        <time>2019-05-24T13:25:24Z</time>
      </trkpt>
      <trkpt lat="44.23467" lon="5.68399">
        <ele>738</ele>
        <time>2019-05-24T13:25:25Z</time>
      </trkpt>
      <trkpt lat="44.23471" lon="5.68409">
        <ele>737</ele>
        <time>2019-05-24T13:25:26Z</time>
      </trkpt>
      <trkpt lat="44.23475" lon="5.68419">
        <ele>736</ele>
        <time>2019-05-24T13:25:27Z</time>
      </trkpt>
      <trkpt lat="44.23479" lon="5.68425">
        <ele>735</ele>
        <time>2019-05-24T13:25:28Z</time>
      </trkpt>
      <trkpt lat="44.23485" lon="5.68428">
        <ele>734</ele>
        <time>2019-05-24T13:25:29Z</time>
      </trkpt>
      <trkpt lat="44.2349" lon="5.68426">
        <ele>733</ele>
        <time>2019-05-24T13:25:30Z</time>
      </trkpt>
      <trkpt lat="44.23495" lon="5.68421">
        <ele>732</ele>
        <time>2019-05-24T13:25:31Z</time>
      </trkpt>
      <trkpt lat="44.235" lon="5.68415">
        <ele>731</ele>
        <time>2019-05-24T13:25:32Z</time>
      </trkpt>
      <trkpt lat="44.23504" lon="5.68409">
        <ele>730</ele>
        <time>2019-05-24T13:25:33Z</time>
      </trkpt>
      <trkpt lat="44.2351" lon="5.68405">
        <ele>730</ele>
        <time>2019-05-24T13:25:34Z</time>
      </trkpt>
      <trkpt lat="44.23516" lon="5.68403">
        <ele>730</ele>
        <time>2019-05-24T13:25:35Z</time>
      </trkpt>
      <trkpt lat="44.23521" lon="5.68404">
        <ele>730</ele>
        <time>2019-05-24T13:25:36Z</time>
      </trkpt>
      <trkpt lat="44.23526" lon="5.68409">
        <ele>730</ele>
        <time>2019-05-24T13:25:37Z</time>
      </trkpt>
      <trkpt lat="44.2353" lon="5.68416">
        <ele>730</ele>
        <time>2019-05-24T13:25:38Z</time>
      </trkpt>
      <trkpt lat="44.23533" lon="5.68424">
        <ele>729</ele>
        <time>2019-05-24T13:25:39Z</time>
      </trkpt>
      <trkpt lat="44.23537" lon="5.68432">
        <ele>729</ele>
        <time>2019-05-24T13:25:40Z</time>
      </trkpt>
      <trkpt lat="44.2354" lon="5.68442">
        <ele>729</ele>
        <time>2019-05-24T13:25:41Z</time>
      </trkpt>
      <trkpt lat="44.23543" lon="5.68451">
        <ele>729</ele>
        <time>2019-05-24T13:25:42Z</time>
      </trkpt>
      <trkpt lat="44.23547" lon="5.68459">
        <ele>729</ele>
        <time>2019-05-24T13:25:43Z</time>
      </trkpt>
      <trkpt lat="44.2355" lon="5.68468">
        <ele>729</ele>
        <time>2019-05-24T13:25:44Z</time>
      </trkpt>
      <trkpt lat="44.23554" lon="5.68476">
        <ele>729</ele>
        <time>2019-05-24T13:25:45Z</time>
      </trkpt>
      <trkpt lat="44.23557" lon="5.68485">
        <ele>729</ele>
        <time>2019-05-24T13:25:46Z</time>
      </trkpt>
      <trkpt lat="44.23561" lon="5.68494">
        <ele>729</ele>
        <time>2019-05-24T13:25:47Z</time>
      </trkpt>
      <trkpt lat="44.23565" lon="5.68502">
        <ele>729</ele>
        <time>2019-05-24T13:25:48Z</time>
      </trkpt>
      <trkpt lat="44.23568" lon="5.68511">
        <ele>729</ele>
        <time>2019-05-24T13:25:49Z</time>
      </trkpt>
      <trkpt lat="44.23572" lon="5.68519">
        <ele>729</ele>
        <time>2019-05-24T13:25:50Z</time>
      </trkpt>
      <trkpt lat="44.23576" lon="5.68527">
        <ele>729</ele>
        <time>2019-05-24T13:25:51Z</time>
      </trkpt>
      <trkpt lat="44.23581" lon="5.68536">
        <ele>728</ele>
        <time>2019-05-24T13:25:52Z</time>
      </trkpt>
      <trkpt lat="44.23585" lon="5.68545">
        <ele>728</ele>
        <time>2019-05-24T13:25:53Z</time>
      </trkpt>
      <trkpt lat="44.23589" lon="5.68553">
        <ele>727</ele>
        <time>2019-05-24T13:25:54Z</time>
      </trkpt>
      <trkpt lat="44.23594" lon="5.68562">
        <ele>727</ele>
        <time>2019-05-24T13:25:55Z</time>
      </trkpt>
      <trkpt lat="44.23598" lon="5.68572">
        <ele>727</ele>
        <time>2019-05-24T13:25:56Z</time>
      </trkpt>
      <trkpt lat="44.23601" lon="5.68581">
        <ele>727</ele>
        <time>2019-05-24T13:25:57Z</time>
      </trkpt>
      <trkpt lat="44.23602" lon="5.68592">
        <ele>727</ele>
        <time>2019-05-24T13:25:58Z</time>
      </trkpt>
      <trkpt lat="44.23603" lon="5.68602">
        <ele>727</ele>
        <time>2019-05-24T13:25:59Z</time>
      </trkpt>
      <trkpt lat="44.23604" lon="5.68612">
        <ele>727</ele>
        <time>2019-05-24T13:26:00Z</time>
      </trkpt>
      <trkpt lat="44.23606" lon="5.68622">
        <ele>726</ele>
        <time>2019-05-24T13:26:01Z</time>
      </trkpt>
      <trkpt lat="44.23608" lon="5.68632">
        <ele>726</ele>
        <time>2019-05-24T13:26:02Z</time>
      </trkpt>
      <trkpt lat="44.2361" lon="5.68642">
        <ele>726</ele>
        <time>2019-05-24T13:26:03Z</time>
      </trkpt>
      <trkpt lat="44.23612" lon="5.68651">
        <ele>725</ele>
        <time>2019-05-24T13:26:04Z</time>
      </trkpt>
      <trkpt lat="44.23613" lon="5.68662">
        <ele>725</ele>
        <time>2019-05-24T13:26:05Z</time>
      </trkpt>
      <trkpt lat="44.23615" lon="5.68672">
        <ele>725</ele>
        <time>2019-05-24T13:26:06Z</time>
      </trkpt>
      <trkpt lat="44.23616" lon="5.68681">
        <ele>725</ele>
        <time>2019-05-24T13:26:07Z</time>
      </trkpt>
      <trkpt lat="44.23619" lon="5.6869">
        <ele>724</ele>
        <time>2019-05-24T13:26:08Z</time>
      </trkpt>
      <trkpt lat="44.23622" lon="5.68699">
        <ele>724</ele>
        <time>2019-05-24T13:26:09Z</time>
      </trkpt>
      <trkpt lat="44.23626" lon="5.68708">
        <ele>724</ele>
        <time>2019-05-24T13:26:10Z</time>
      </trkpt>
      <trkpt lat="44.23631" lon="5.68716">
        <ele>724</ele>
        <time>2019-05-24T13:26:11Z</time>
      </trkpt>
      <trkpt lat="44.23635" lon="5.68725">
        <ele>724</ele>
        <time>2019-05-24T13:26:12Z</time>
      </trkpt>
      <trkpt lat="44.23639" lon="5.68734">
        <ele>724</ele>
        <time>2019-05-24T13:26:13Z</time>
      </trkpt>
      <trkpt lat="44.23642" lon="5.68744">
        <ele>724</ele>
        <time>2019-05-24T13:26:14Z</time>
      </trkpt>
      <trkpt lat="44.23643" lon="5.68754">
        <ele>724</ele>
        <time>2019-05-24T13:26:15Z</time>
      </trkpt>
      <trkpt lat="44.23644" lon="5.68764">
        <ele>724</ele>
        <time>2019-05-24T13:26:16Z</time>
      </trkpt>
      <trkpt lat="44.23643" lon="5.68775">
        <ele>723</ele>
        <time>2019-05-24T13:26:17Z</time>
      </trkpt>
      <trkpt lat="44.23643" lon="5.68785">
        <ele>722</ele>
        <time>2019-05-24T13:26:18Z</time>
      </trkpt>
      <trkpt lat="44.23643" lon="5.68795">
        <ele>721</ele>
        <time>2019-05-24T13:26:19Z</time>
      </trkpt>
      <trkpt lat="44.23643" lon="5.68805">
        <ele>720</ele>
        <time>2019-05-24T13:26:20Z</time>
      </trkpt>
      <trkpt lat="44.23645" lon="5.68816">
        <ele>719</ele>
        <time>2019-05-24T13:26:21Z</time>
      </trkpt>
      <trkpt lat="44.23648" lon="5.68825">
        <ele>718</ele>
        <time>2019-05-24T13:26:22Z</time>
      </trkpt>
      <trkpt lat="44.2365" lon="5.68836">
        <ele>717</ele>
        <time>2019-05-24T13:26:23Z</time>
      </trkpt>
      <trkpt lat="44.23653" lon="5.68846">
        <ele>716</ele>
        <time>2019-05-24T13:26:24Z</time>
      </trkpt>
      <trkpt lat="44.23656" lon="5.68857">
        <ele>716</ele>
        <time>2019-05-24T13:26:25Z</time>
      </trkpt>
      <trkpt lat="44.23658" lon="5.68868">
        <ele>715</ele>
        <time>2019-05-24T13:26:26Z</time>
      </trkpt>
      <trkpt lat="44.23661" lon="5.6888">
        <ele>714</ele>
        <time>2019-05-24T13:26:27Z</time>
      </trkpt>
      <trkpt lat="44.23663" lon="5.68891">
        <ele>714</ele>
        <time>2019-05-24T13:26:28Z</time>
      </trkpt>
      <trkpt lat="44.23665" lon="5.68903">
        <ele>713</ele>
        <time>2019-05-24T13:26:29Z</time>
      </trkpt>
      <trkpt lat="44.23666" lon="5.68915">
        <ele>713</ele>
        <time>2019-05-24T13:26:30Z</time>
      </trkpt>
      <trkpt lat="44.23668" lon="5.68926">
        <ele>712</ele>
        <time>2019-05-24T13:26:31Z</time>
      </trkpt>
      <trkpt lat="44.2367" lon="5.68937">
        <ele>712</ele>
        <time>2019-05-24T13:26:32Z</time>
      </trkpt>
      <trkpt lat="44.23673" lon="5.68949">
        <ele>712</ele>
        <time>2019-05-24T13:26:33Z</time>
      </trkpt>
      <trkpt lat="44.23674" lon="5.68959">
        <ele>712</ele>
        <time>2019-05-24T13:26:34Z</time>
      </trkpt>
      <trkpt lat="44.23676" lon="5.6897">
        <ele>712</ele>
        <time>2019-05-24T13:26:35Z</time>
      </trkpt>
      <trkpt lat="44.23676" lon="5.68981">
        <ele>712</ele>
        <time>2019-05-24T13:26:36Z</time>
      </trkpt>
      <trkpt lat="44.23676" lon="5.68991">
        <ele>712</ele>
        <time>2019-05-24T13:26:37Z</time>
      </trkpt>
      <trkpt lat="44.23676" lon="5.69">
        <ele>712</ele>
        <time>2019-05-24T13:26:38Z</time>
      </trkpt>
      <trkpt lat="44.23675" lon="5.6901">
        <ele>711</ele>
        <time>2019-05-24T13:26:39Z</time>
      </trkpt>
      <trkpt lat="44.23674" lon="5.69021">
        <ele>711</ele>
        <time>2019-05-24T13:26:40Z</time>
      </trkpt>
      <trkpt lat="44.23673" lon="5.69031">
        <ele>711</ele>
        <time>2019-05-24T13:26:41Z</time>
      </trkpt>
      <trkpt lat="44.23672" lon="5.6904">
        <ele>711</ele>
        <time>2019-05-24T13:26:42Z</time>
      </trkpt>
      <trkpt lat="44.23672" lon="5.6905">
        <ele>710</ele>
        <time>2019-05-24T13:26:43Z</time>
      </trkpt>
      <trkpt lat="44.23671" lon="5.6906">
        <ele>709</ele>
        <time>2019-05-24T13:26:44Z</time>
      </trkpt>
      <trkpt lat="44.2367" lon="5.6907">
        <ele>709</ele>
        <time>2019-05-24T13:26:45Z</time>
      </trkpt>
      <trkpt lat="44.23669" lon="5.6908">
        <ele>709</ele>
        <time>2019-05-24T13:26:46Z</time>
      </trkpt>
      <trkpt lat="44.23668" lon="5.69091">
        <ele>708</ele>
        <time>2019-05-24T13:26:47Z</time>
      </trkpt>
      <trkpt lat="44.23667" lon="5.69102">
        <ele>708</ele>
        <time>2019-05-24T13:26:48Z</time>
      </trkpt>
      <trkpt lat="44.23666" lon="5.69113">
        <ele>708</ele>
        <time>2019-05-24T13:26:49Z</time>
      </trkpt>
      <trkpt lat="44.23664" lon="5.69124">
        <ele>708</ele>
        <time>2019-05-24T13:26:50Z</time>
      </trkpt>
      <trkpt lat="44.23663" lon="5.69136">
        <ele>708</ele>
        <time>2019-05-24T13:26:51Z</time>
      </trkpt>
      <trkpt lat="44.23662" lon="5.69148">
        <ele>708</ele>
        <time>2019-05-24T13:26:52Z</time>
      </trkpt>
      <trkpt lat="44.2366" lon="5.69161">
        <ele>708</ele>
        <time>2019-05-24T13:26:53Z</time>
      </trkpt>
      <trkpt lat="44.23659" lon="5.69174">
        <ele>708</ele>
        <time>2019-05-24T13:26:54Z</time>
      </trkpt>
      <trkpt lat="44.23657" lon="5.69187">
        <ele>708</ele>
        <time>2019-05-24T13:26:55Z</time>
      </trkpt>
      <trkpt lat="44.23655" lon="5.692">
        <ele>708</ele>
        <time>2019-05-24T13:26:56Z</time>
      </trkpt>
      <trkpt lat="44.23653" lon="5.69213">
        <ele>708</ele>
        <time>2019-05-24T13:26:57Z</time>
      </trkpt>
      <trkpt lat="44.23652" lon="5.69227">
        <ele>708</ele>
        <time>2019-05-24T13:26:58Z</time>
      </trkpt>
      <trkpt lat="44.2365" lon="5.6924">
        <ele>708</ele>
        <time>2019-05-24T13:26:59Z</time>
      </trkpt>
      <trkpt lat="44.23648" lon="5.69254">
        <ele>708</ele>
        <time>2019-05-24T13:27:00Z</time>
      </trkpt>
      <trkpt lat="44.23646" lon="5.69267">
        <ele>707</ele>
        <time>2019-05-24T13:27:01Z</time>
      </trkpt>
      <trkpt lat="44.23644" lon="5.6928">
        <ele>707</ele>
        <time>2019-05-24T13:27:02Z</time>
      </trkpt>
      <trkpt lat="44.23642" lon="5.69293">
        <ele>706</ele>
        <time>2019-05-24T13:27:03Z</time>
      </trkpt>
      <trkpt lat="44.2364" lon="5.69306">
        <ele>706</ele>
        <time>2019-05-24T13:27:04Z</time>
      </trkpt>
      <trkpt lat="44.23639" lon="5.69318">
        <ele>706</ele>
        <time>2019-05-24T13:27:05Z</time>
      </trkpt>
      <trkpt lat="44.23637" lon="5.69331">
        <ele>706</ele>
        <time>2019-05-24T13:27:06Z</time>
      </trkpt>
      <trkpt lat="44.23635" lon="5.69344">
        <ele>706</ele>
        <time>2019-05-24T13:27:07Z</time>
      </trkpt>
      <trkpt lat="44.23632" lon="5.69356">
        <ele>706</ele>
        <time>2019-05-24T13:27:08Z</time>
      </trkpt>
      <trkpt lat="44.2363" lon="5.69368">
        <ele>705</ele>
        <time>2019-05-24T13:27:09Z</time>
      </trkpt>
      <trkpt lat="44.23627" lon="5.6938">
        <ele>705</ele>
        <time>2019-05-24T13:27:10Z</time>
      </trkpt>
      <trkpt lat="44.23624" lon="5.69392">
        <ele>705</ele>
        <time>2019-05-24T13:27:11Z</time>
      </trkpt>
      <trkpt lat="44.23621" lon="5.69405">
        <ele>705</ele>
        <time>2019-05-24T13:27:12Z</time>
      </trkpt>
      <trkpt lat="44.23618" lon="5.69417">
        <ele>705</ele>
        <time>2019-05-24T13:27:13Z</time>
      </trkpt>
      <trkpt lat="44.23614" lon="5.6943">
        <ele>705</ele>
        <time>2019-05-24T13:27:14Z</time>
      </trkpt>
      <trkpt lat="44.23611" lon="5.69444">
        <ele>705</ele>
        <time>2019-05-24T13:27:15Z</time>
      </trkpt>
      <trkpt lat="44.23609" lon="5.69457">
        <ele>705</ele>
        <time>2019-05-24T13:27:16Z</time>
      </trkpt>
      <trkpt lat="44.23606" lon="5.6947">
        <ele>705</ele>
        <time>2019-05-24T13:27:17Z</time>
      </trkpt>
      <trkpt lat="44.23603" lon="5.69483">
        <ele>705</ele>
        <time>2019-05-24T13:27:18Z</time>
      </trkpt>
      <trkpt lat="44.23601" lon="5.69496">
        <ele>705</ele>
        <time>2019-05-24T13:27:19Z</time>
      </trkpt>
      <trkpt lat="44.23599" lon="5.69509">
        <ele>705</ele>
        <time>2019-05-24T13:27:20Z</time>
      </trkpt>
      <trkpt lat="44.23595" lon="5.69521">
        <ele>705</ele>
        <time>2019-05-24T13:27:21Z</time>
      </trkpt>
      <trkpt lat="44.23591" lon="5.69532">
        <ele>705</ele>
        <time>2019-05-24T13:27:22Z</time>
      </trkpt>
      <trkpt lat="44.23584" lon="5.69541">
        <ele>705</ele>
        <time>2019-05-24T13:27:23Z</time>
      </trkpt>
      <trkpt lat="44.23575" lon="5.69546">
        <ele>705</ele>
        <time>2019-05-24T13:27:24Z</time>
      </trkpt>
      <trkpt lat="44.23566" lon="5.69553">
        <ele>705</ele>
        <time>2019-05-24T13:27:25Z</time>
      </trkpt>
      <trkpt lat="44.23558" lon="5.69558">
        <ele>705</ele>
        <time>2019-05-24T13:27:26Z</time>
      </trkpt>
      <trkpt lat="44.23551" lon="5.69564">
        <ele>705</ele>
        <time>2019-05-24T13:27:27Z</time>
      </trkpt>
      <trkpt lat="44.23543" lon="5.69571">
        <ele>705</ele>
        <time>2019-05-24T13:27:28Z</time>
      </trkpt>
      <trkpt lat="44.23537" lon="5.69577">
        <ele>705</ele>
        <time>2019-05-24T13:27:29Z</time>
      </trkpt>
      <trkpt lat="44.23532" lon="5.69584">
        <ele>705</ele>
        <time>2019-05-24T13:27:30Z</time>
      </trkpt>
      <trkpt lat="44.23523" lon="5.69599">
        <ele>705</ele>
        <time>2019-05-24T13:27:32Z</time>
      </trkpt>
      <trkpt lat="44.2352" lon="5.69609">
        <ele>705</ele>
        <time>2019-05-24T13:27:33Z</time>
      </trkpt>
      <trkpt lat="44.23521" lon="5.69618">
        <ele>705</ele>
        <time>2019-05-24T13:27:34Z</time>
      </trkpt>
      <trkpt lat="44.23523" lon="5.69625">
        <ele>705</ele>
        <time>2019-05-24T13:27:35Z</time>
      </trkpt>
      <trkpt lat="44.23527" lon="5.69632">
        <ele>705</ele>
        <time>2019-05-24T13:27:36Z</time>
      </trkpt>
      <trkpt lat="44.23532" lon="5.69637">
        <ele>705</ele>
        <time>2019-05-24T13:27:37Z</time>
      </trkpt>
      <trkpt lat="44.23538" lon="5.6964">
        <ele>705</ele>
        <time>2019-05-24T13:27:38Z</time>
      </trkpt>
      <trkpt lat="44.23544" lon="5.69643">
        <ele>705</ele>
        <time>2019-05-24T13:27:39Z</time>
      </trkpt>
      <trkpt lat="44.2355" lon="5.69645">
        <ele>705</ele>
        <time>2019-05-24T13:27:40Z</time>
      </trkpt>
      <trkpt lat="44.23558" lon="5.69647">
        <ele>705</ele>
        <time>2019-05-24T13:27:41Z</time>
      </trkpt>
      <trkpt lat="44.23563" lon="5.69649">
        <ele>705</ele>
        <time>2019-05-24T13:27:42Z</time>
      </trkpt>
      <trkpt lat="44.23571" lon="5.69651">
        <ele>705</ele>
        <time>2019-05-24T13:27:43Z</time>
      </trkpt>
      <trkpt lat="44.23578" lon="5.69653">
        <ele>705</ele>
        <time>2019-05-24T13:27:44Z</time>
      </trkpt>
      <trkpt lat="44.23585" lon="5.69656">
        <ele>705</ele>
        <time>2019-05-24T13:27:45Z</time>
      </trkpt>
      <trkpt lat="44.23592" lon="5.69661">
        <ele>705</ele>
        <time>2019-05-24T13:27:46Z</time>
      </trkpt>
      <trkpt lat="44.236" lon="5.69665">
        <ele>705</ele>
        <time>2019-05-24T13:27:47Z</time>
      </trkpt>
      <trkpt lat="44.23607" lon="5.69669">
        <ele>705</ele>
        <time>2019-05-24T13:27:48Z</time>
      </trkpt>
      <trkpt lat="44.23615" lon="5.69673">
        <ele>705</ele>
        <time>2019-05-24T13:27:49Z</time>
      </trkpt>
      <trkpt lat="44.23622" lon="5.69678">
        <ele>705</ele>
        <time>2019-05-24T13:27:50Z</time>
      </trkpt>
      <trkpt lat="44.23629" lon="5.69682">
        <ele>705</ele>
        <time>2019-05-24T13:27:51Z</time>
      </trkpt>
      <trkpt lat="44.23635" lon="5.69687">
        <ele>705</ele>
        <time>2019-05-24T13:27:52Z</time>
      </trkpt>
      <trkpt lat="44.23642" lon="5.69693">
        <ele>705</ele>
        <time>2019-05-24T13:27:53Z</time>
      </trkpt>
      <trkpt lat="44.23648" lon="5.697">
        <ele>705</ele>
        <time>2019-05-24T13:27:54Z</time>
      </trkpt>
      <trkpt lat="44.23654" lon="5.69708">
        <ele>705</ele>
        <time>2019-05-24T13:27:55Z</time>
      </trkpt>
      <trkpt lat="44.23658" lon="5.69716">
        <ele>705</ele>
        <time>2019-05-24T13:27:56Z</time>
      </trkpt>
      <trkpt lat="44.23663" lon="5.69725">
        <ele>705</ele>
        <time>2019-05-24T13:27:57Z</time>
      </trkpt>
      <trkpt lat="44.23667" lon="5.69734">
        <ele>705</ele>
        <time>2019-05-24T13:27:58Z</time>
      </trkpt>
      <trkpt lat="44.23671" lon="5.69744">
        <ele>705</ele>
        <time>2019-05-24T13:27:59Z</time>
      </trkpt>
      <trkpt lat="44.23676" lon="5.69754">
        <ele>705</ele>
        <time>2019-05-24T13:28:00Z</time>
      </trkpt>
      <trkpt lat="44.2368" lon="5.69765">
        <ele>705</ele>
        <time>2019-05-24T13:28:01Z</time>
      </trkpt>
      <trkpt lat="44.23685" lon="5.69776">
        <ele>705</ele>
        <time>2019-05-24T13:28:02Z</time>
      </trkpt>
      <trkpt lat="44.2369" lon="5.69788">
        <ele>705</ele>
        <time>2019-05-24T13:28:03Z</time>
      </trkpt>
      <trkpt lat="44.23694" lon="5.698">
        <ele>705</ele>
        <time>2019-05-24T13:28:04Z</time>
      </trkpt>
      <trkpt lat="44.23699" lon="5.69811">
        <ele>705</ele>
        <time>2019-05-24T13:28:05Z</time>
      </trkpt>
      <trkpt lat="44.23703" lon="5.69823">
        <ele>705</ele>
        <time>2019-05-24T13:28:06Z</time>
      </trkpt>
      <trkpt lat="44.23707" lon="5.69835">
        <ele>705</ele>
        <time>2019-05-24T13:28:07Z</time>
      </trkpt>
      <trkpt lat="44.23712" lon="5.69845">
        <ele>705</ele>
        <time>2019-05-24T13:28:08Z</time>
      </trkpt>
      <trkpt lat="44.23715" lon="5.69857">
        <ele>705</ele>
        <time>2019-05-24T13:28:09Z</time>
      </trkpt>
      <trkpt lat="44.23719" lon="5.69868">
        <ele>705</ele>
        <time>2019-05-24T13:28:10Z</time>
      </trkpt>
      <trkpt lat="44.23722" lon="5.69879">
        <ele>705</ele>
        <time>2019-05-24T13:28:11Z</time>
      </trkpt>
      <trkpt lat="44.23726" lon="5.69892">
        <ele>705</ele>
        <time>2019-05-24T13:28:12Z</time>
      </trkpt>
      <trkpt lat="44.23728" lon="5.69903">
        <ele>705</ele>
        <time>2019-05-24T13:28:13Z</time>
      </trkpt>
      <trkpt lat="44.23731" lon="5.69913">
        <ele>704</ele>
        <time>2019-05-24T13:28:14Z</time>
      </trkpt>
      <trkpt lat="44.23735" lon="5.69923">
        <ele>703</ele>
        <time>2019-05-24T13:28:15Z</time>
      </trkpt>
      <trkpt lat="44.2374" lon="5.69931">
        <ele>702</ele>
        <time>2019-05-24T13:28:16Z</time>
      </trkpt>
      <trkpt lat="44.23748" lon="5.69937">
        <ele>701</ele>
        <time>2019-05-24T13:28:17Z</time>
      </trkpt>
      <trkpt lat="44.23756" lon="5.69942">
        <ele>700</ele>
        <time>2019-05-24T13:28:18Z</time>
      </trkpt>
      <trkpt lat="44.23764" lon="5.69948">
        <ele>699</ele>
        <time>2019-05-24T13:28:19Z</time>
      </trkpt>
      <trkpt lat="44.2377" lon="5.69955">
        <ele>698</ele>
        <time>2019-05-24T13:28:20Z</time>
      </trkpt>
      <trkpt lat="44.23778" lon="5.6996">
        <ele>697</ele>
        <time>2019-05-24T13:28:21Z</time>
      </trkpt>
      <trkpt lat="44.23784" lon="5.69964">
        <ele>696</ele>
        <time>2019-05-24T13:28:22Z</time>
      </trkpt>
      <trkpt lat="44.23792" lon="5.69966">
        <ele>695</ele>
        <time>2019-05-24T13:28:23Z</time>
      </trkpt>
      <trkpt lat="44.23798" lon="5.69968">
        <ele>694</ele>
        <time>2019-05-24T13:28:24Z</time>
      </trkpt>
      <trkpt lat="44.23804" lon="5.69971">
        <ele>693</ele>
        <time>2019-05-24T13:28:25Z</time>
      </trkpt>
      <trkpt lat="44.23809" lon="5.69975">
        <ele>692</ele>
        <time>2019-05-24T13:28:26Z</time>
      </trkpt>
      <trkpt lat="44.23813" lon="5.69983">
        <ele>691</ele>
        <time>2019-05-24T13:28:27Z</time>
      </trkpt>
      <trkpt lat="44.23814" lon="5.69993">
        <ele>691</ele>
        <time>2019-05-24T13:28:28Z</time>
      </trkpt>
      <trkpt lat="44.23814" lon="5.70002">
        <ele>690</ele>
        <time>2019-05-24T13:28:29Z</time>
      </trkpt>
      <trkpt lat="44.23815" lon="5.70012">
        <ele>690</ele>
        <time>2019-05-24T13:28:30Z</time>
      </trkpt>
      <trkpt lat="44.23818" lon="5.7002">
        <ele>690</ele>
        <time>2019-05-24T13:28:31Z</time>
      </trkpt>
      <trkpt lat="44.23822" lon="5.70025">
        <ele>690</ele>
        <time>2019-05-24T13:28:32Z</time>
      </trkpt>
      <trkpt lat="44.2383" lon="5.70025">
        <ele>690</ele>
        <time>2019-05-24T13:28:33Z</time>
      </trkpt>
      <trkpt lat="44.23838" lon="5.70023">
        <ele>689</ele>
        <time>2019-05-24T13:28:34Z</time>
      </trkpt>
      <trkpt lat="44.23844" lon="5.70025">
        <ele>689</ele>
        <time>2019-05-24T13:28:35Z</time>
      </trkpt>
      <trkpt lat="44.23851" lon="5.70027">
        <ele>689</ele>
        <time>2019-05-24T13:28:36Z</time>
      </trkpt>
      <trkpt lat="44.23856" lon="5.70029">
        <ele>689</ele>
        <time>2019-05-24T13:28:37Z</time>
      </trkpt>
      <trkpt lat="44.23861" lon="5.70031">
        <ele>689</ele>
        <time>2019-05-24T13:28:38Z</time>
      </trkpt>
      <trkpt lat="44.23866" lon="5.70035">
        <ele>689</ele>
        <time>2019-05-24T13:28:39Z</time>
      </trkpt>
      <trkpt lat="44.2387" lon="5.70039">
        <ele>689</ele>
        <time>2019-05-24T13:28:40Z</time>
      </trkpt>
      <trkpt lat="44.23875" lon="5.70045">
        <ele>689</ele>
        <time>2019-05-24T13:28:41Z</time>
      </trkpt>
      <trkpt lat="44.23879" lon="5.70051">
        <ele>689</ele>
        <time>2019-05-24T13:28:42Z</time>
      </trkpt>
      <trkpt lat="44.23882" lon="5.70058">
        <ele>689</ele>
        <time>2019-05-24T13:28:43Z</time>
      </trkpt>
      <trkpt lat="44.23885" lon="5.70065">
        <ele>689</ele>
        <time>2019-05-24T13:28:44Z</time>
      </trkpt>
      <trkpt lat="44.23887" lon="5.70071">
        <ele>689</ele>
        <time>2019-05-24T13:28:45Z</time>
      </trkpt>
      <trkpt lat="44.2389" lon="5.70078">
        <ele>689</ele>
        <time>2019-05-24T13:28:46Z</time>
      </trkpt>
      <trkpt lat="44.23893" lon="5.70084">
        <ele>689</ele>
        <time>2019-05-24T13:28:47Z</time>
      </trkpt>
      <trkpt lat="44.23896" lon="5.70089">
        <ele>689</ele>
        <time>2019-05-24T13:28:48Z</time>
      </trkpt>
      <trkpt lat="44.239" lon="5.70095">
        <ele>689</ele>
        <time>2019-05-24T13:28:49Z</time>
      </trkpt>
      <trkpt lat="44.23904" lon="5.701">
        <ele>689</ele>
        <time>2019-05-24T13:28:50Z</time>
      </trkpt>
      <trkpt lat="44.23908" lon="5.70106">
        <ele>689</ele>
        <time>2019-05-24T13:28:51Z</time>
      </trkpt>
      <trkpt lat="44.23912" lon="5.70111">
        <ele>689</ele>
        <time>2019-05-24T13:28:52Z</time>
      </trkpt>
      <trkpt lat="44.23915" lon="5.70116">
        <ele>689</ele>
        <time>2019-05-24T13:28:53Z</time>
      </trkpt>
      <trkpt lat="44.23919" lon="5.70123">
        <ele>689</ele>
        <time>2019-05-24T13:28:54Z</time>
      </trkpt>
      <trkpt lat="44.23922" lon="5.70131">
        <ele>689</ele>
        <time>2019-05-24T13:28:55Z</time>
      </trkpt>
      <trkpt lat="44.23925" lon="5.70139">
        <ele>689</ele>
        <time>2019-05-24T13:28:56Z</time>
      </trkpt>
      <trkpt lat="44.23926" lon="5.70149">
        <ele>689</ele>
        <time>2019-05-24T13:28:57Z</time>
      </trkpt>
      <trkpt lat="44.23926" lon="5.70157">
        <ele>689</ele>
        <time>2019-05-24T13:28:58Z</time>
      </trkpt>
      <trkpt lat="44.23927" lon="5.70166">
        <ele>689</ele>
        <time>2019-05-24T13:28:59Z</time>
      </trkpt>
      <trkpt lat="44.23927" lon="5.70176">
        <ele>689</ele>
        <time>2019-05-24T13:29:00Z</time>
      </trkpt>
      <trkpt lat="44.23928" lon="5.70185">
        <ele>689</ele>
        <time>2019-05-24T13:29:01Z</time>
      </trkpt>
      <trkpt lat="44.23929" lon="5.70194">
        <ele>689</ele>
        <time>2019-05-24T13:29:02Z</time>
      </trkpt>
      <trkpt lat="44.2393" lon="5.70203">
        <ele>689</ele>
        <time>2019-05-24T13:29:03Z</time>
      </trkpt>
      <trkpt lat="44.23932" lon="5.70212">
        <ele>689</ele>
        <time>2019-05-24T13:29:04Z</time>
      </trkpt>
      <trkpt lat="44.23933" lon="5.70221">
        <ele>689</ele>
        <time>2019-05-24T13:29:05Z</time>
      </trkpt>
      <trkpt lat="44.23936" lon="5.70229">
        <ele>689</ele>
        <time>2019-05-24T13:29:06Z</time>
      </trkpt>
      <trkpt lat="44.23939" lon="5.70238">
        <ele>689</ele>
        <time>2019-05-24T13:29:07Z</time>
      </trkpt>
      <trkpt lat="44.23943" lon="5.70246">
        <ele>689</ele>
        <time>2019-05-24T13:29:08Z</time>
      </trkpt>
      <trkpt lat="44.23946" lon="5.70255">
        <ele>689</ele>
        <time>2019-05-24T13:29:09Z</time>
      </trkpt>
      <trkpt lat="44.23947" lon="5.70264">
        <ele>689</ele>
        <time>2019-05-24T13:29:10Z</time>
      </trkpt>
      <trkpt lat="44.23949" lon="5.70273">
        <ele>689</ele>
        <time>2019-05-24T13:29:11Z</time>
      </trkpt>
      <trkpt lat="44.23948" lon="5.70283">
        <ele>689</ele>
        <time>2019-05-24T13:29:12Z</time>
      </trkpt>
      <trkpt lat="44.23946" lon="5.70292">
        <ele>689</ele>
        <time>2019-05-24T13:29:13Z</time>
      </trkpt>
      <trkpt lat="44.23943" lon="5.70299">
        <ele>689</ele>
        <time>2019-05-24T13:29:14Z</time>
      </trkpt>
      <trkpt lat="44.2394" lon="5.70306">
        <ele>689</ele>
        <time>2019-05-24T13:29:15Z</time>
      </trkpt>
      <trkpt lat="44.23935" lon="5.70312">
        <ele>689</ele>
        <time>2019-05-24T13:29:16Z</time>
      </trkpt>
      <trkpt lat="44.23929" lon="5.70318">
        <ele>689</ele>
        <time>2019-05-24T13:29:17Z</time>
      </trkpt>
      <trkpt lat="44.23923" lon="5.70321">
        <ele>689</ele>
        <time>2019-05-24T13:29:18Z</time>
      </trkpt>
      <trkpt lat="44.23917" lon="5.70325">
        <ele>689</ele>
        <time>2019-05-24T13:29:19Z</time>
      </trkpt>
      <trkpt lat="44.23912" lon="5.7033">
        <ele>689</ele>
        <time>2019-05-24T13:29:20Z</time>
      </trkpt>
      <trkpt lat="44.23907" lon="5.70337">
        <ele>689</ele>
        <time>2019-05-24T13:29:21Z</time>
      </trkpt>
      <trkpt lat="44.23905" lon="5.70344">
        <ele>689</ele>
        <time>2019-05-24T13:29:22Z</time>
      </trkpt>
      <trkpt lat="44.23906" lon="5.70351">
        <ele>689</ele>
        <time>2019-05-24T13:29:23Z</time>
      </trkpt>
      <trkpt lat="44.2391" lon="5.70357">
        <ele>689</ele>
        <time>2019-05-24T13:29:24Z</time>
      </trkpt>
      <trkpt lat="44.23914" lon="5.7036">
        <ele>689</ele>
        <time>2019-05-24T13:29:25Z</time>
      </trkpt>
      <trkpt lat="44.2392" lon="5.70362">
        <ele>689</ele>
        <time>2019-05-24T13:29:26Z</time>
      </trkpt>
      <trkpt lat="44.23925" lon="5.70364">
        <ele>689</ele>
        <time>2019-05-24T13:29:27Z</time>
      </trkpt>
      <trkpt lat="44.23931" lon="5.70366">
        <ele>689</ele>
        <time>2019-05-24T13:29:28Z</time>
      </trkpt>
      <trkpt lat="44.23938" lon="5.70368">
        <ele>689</ele>
        <time>2019-05-24T13:29:29Z</time>
      </trkpt>
      <trkpt lat="44.23943" lon="5.7037">
        <ele>689</ele>
        <time>2019-05-24T13:29:30Z</time>
      </trkpt>
      <trkpt lat="44.23949" lon="5.70373">
        <ele>689</ele>
        <time>2019-05-24T13:29:31Z</time>
      </trkpt>
      <trkpt lat="44.23955" lon="5.70375">
        <ele>689</ele>
        <time>2019-05-24T13:29:32Z</time>
      </trkpt>
      <trkpt lat="44.2396" lon="5.70378">
        <ele>689</ele>
        <time>2019-05-24T13:29:33Z</time>
      </trkpt>
      <trkpt lat="44.23967" lon="5.70379">
        <ele>689</ele>
        <time>2019-05-24T13:29:34Z</time>
      </trkpt>
      <trkpt lat="44.23972" lon="5.70381">
        <ele>689</ele>
        <time>2019-05-24T13:29:35Z</time>
      </trkpt>
      <trkpt lat="44.23978" lon="5.70382">
        <ele>689</ele>
        <time>2019-05-24T13:29:36Z</time>
      </trkpt>
      <trkpt lat="44.23983" lon="5.70384">
        <ele>689</ele>
        <time>2019-05-24T13:29:37Z</time>
      </trkpt>
      <trkpt lat="44.23988" lon="5.70385">
        <ele>689</ele>
        <time>2019-05-24T13:29:38Z</time>
      </trkpt>
      <trkpt lat="44.23994" lon="5.70388">
        <ele>689</ele>
        <time>2019-05-24T13:29:39Z</time>
      </trkpt>
      <trkpt lat="44.23999" lon="5.70391">
        <ele>689</ele>
        <time>2019-05-24T13:29:40Z</time>
      </trkpt>
      <trkpt lat="44.24004" lon="5.70395">
        <ele>689</ele>
        <time>2019-05-24T13:29:41Z</time>
      </trkpt>
      <trkpt lat="44.24009" lon="5.70399">
        <ele>689</ele>
        <time>2019-05-24T13:29:42Z</time>
      </trkpt>
      <trkpt lat="44.24013" lon="5.70403">
        <ele>689</ele>
        <time>2019-05-24T13:29:43Z</time>
      </trkpt>
      <trkpt lat="44.24017" lon="5.7041">
        <ele>689</ele>
        <time>2019-05-24T13:29:44Z</time>
      </trkpt>
      <trkpt lat="44.24018" lon="5.70418">
        <ele>689</ele>
        <time>2019-05-24T13:29:45Z</time>
      </trkpt>
      <trkpt lat="44.24019" lon="5.70426">
        <ele>689</ele>
        <time>2019-05-24T13:29:46Z</time>
      </trkpt>
      <trkpt lat="44.24017" lon="5.70433">
        <ele>689</ele>
        <time>2019-05-24T13:29:47Z</time>
      </trkpt>
      <trkpt lat="44.24014" lon="5.7044">
        <ele>689</ele>
        <time>2019-05-24T13:29:48Z</time>
      </trkpt>
      <trkpt lat="44.24012" lon="5.70448">
        <ele>689</ele>
        <time>2019-05-24T13:29:49Z</time>
      </trkpt>
      <trkpt lat="44.24011" lon="5.70456">
        <ele>689</ele>
        <time>2019-05-24T13:29:50Z</time>
      </trkpt>
      <trkpt lat="44.24012" lon="5.70462">
        <ele>689</ele>
        <time>2019-05-24T13:29:51Z</time>
      </trkpt>
      <trkpt lat="44.24017" lon="5.70465">
        <ele>689</ele>
        <time>2019-05-24T13:29:52Z</time>
      </trkpt>
      <trkpt lat="44.24023" lon="5.70463">
        <ele>689</ele>
        <time>2019-05-24T13:29:53Z</time>
      </trkpt>
      <trkpt lat="44.24029" lon="5.70459">
        <ele>689</ele>
        <time>2019-05-24T13:29:54Z</time>
      </trkpt>
      <trkpt lat="44.24036" lon="5.70456">
        <ele>689</ele>
        <time>2019-05-24T13:29:55Z</time>
      </trkpt>
      <trkpt lat="44.24042" lon="5.70452">
        <ele>688</ele>
        <time>2019-05-24T13:29:56Z</time>
      </trkpt>
      <trkpt lat="44.24049" lon="5.70448">
        <ele>688</ele>
        <time>2019-05-24T13:29:57Z</time>
      </trkpt>
      <trkpt lat="44.24055" lon="5.70444">
        <ele>688</ele>
        <time>2019-05-24T13:29:58Z</time>
      </trkpt>
      <trkpt lat="44.24062" lon="5.7044">
        <ele>688</ele>
        <time>2019-05-24T13:29:59Z</time>
      </trkpt>
      <trkpt lat="44.24069" lon="5.70437">
        <ele>687</ele>
        <time>2019-05-24T13:30:00Z</time>
      </trkpt>
      <trkpt lat="44.24076" lon="5.70433">
        <ele>687</ele>
        <time>2019-05-24T13:30:01Z</time>
      </trkpt>
      <trkpt lat="44.24083" lon="5.70429">
        <ele>687</ele>
        <time>2019-05-24T13:30:02Z</time>
      </trkpt>
      <trkpt lat="44.2409" lon="5.70425">
        <ele>686</ele>
        <time>2019-05-24T13:30:03Z</time>
      </trkpt>
      <trkpt lat="44.24096" lon="5.7042">
        <ele>686</ele>
        <time>2019-05-24T13:30:04Z</time>
      </trkpt>
      <trkpt lat="44.24103" lon="5.70416">
        <ele>685</ele>
        <time>2019-05-24T13:30:05Z</time>
      </trkpt>
      <trkpt lat="44.24109" lon="5.70414">
        <ele>684</ele>
        <time>2019-05-24T13:30:06Z</time>
      </trkpt>
      <trkpt lat="44.24115" lon="5.70413">
        <ele>684</ele>
        <time>2019-05-24T13:30:07Z</time>
      </trkpt>
      <trkpt lat="44.24121" lon="5.70413">
        <ele>683</ele>
        <time>2019-05-24T13:30:08Z</time>
      </trkpt>
      <trkpt lat="44.24128" lon="5.70415">
        <ele>683</ele>
        <time>2019-05-24T13:30:09Z</time>
      </trkpt>
      <trkpt lat="44.24134" lon="5.70418">
        <ele>683</ele>
        <time>2019-05-24T13:30:10Z</time>
      </trkpt>
      <trkpt lat="44.2414" lon="5.70423">
        <ele>683</ele>
        <time>2019-05-24T13:30:11Z</time>
      </trkpt>
      <trkpt lat="44.24146" lon="5.70427">
        <ele>683</ele>
        <time>2019-05-24T13:30:12Z</time>
      </trkpt>
      <trkpt lat="44.24152" lon="5.70432">
        <ele>683</ele>
        <time>2019-05-24T13:30:13Z</time>
      </trkpt>
      <trkpt lat="44.24158" lon="5.70436">
        <ele>683</ele>
        <time>2019-05-24T13:30:14Z</time>
      </trkpt>
      <trkpt lat="44.24164" lon="5.70438">
        <ele>683</ele>
        <time>2019-05-24T13:30:15Z</time>
      </trkpt>
      <trkpt lat="44.24171" lon="5.70438">
        <ele>682</ele>
        <time>2019-05-24T13:30:16Z</time>
      </trkpt>
      <trkpt lat="44.24177" lon="5.70435">
        <ele>682</ele>
        <time>2019-05-24T13:30:17Z</time>
      </trkpt>
      <trkpt lat="44.24183" lon="5.70429">
        <ele>682</ele>
        <time>2019-05-24T13:30:18Z</time>
      </trkpt>
      <trkpt lat="44.24189" lon="5.70423">
        <ele>681</ele>
        <time>2019-05-24T13:30:19Z</time>
      </trkpt>
      <trkpt lat="44.24194" lon="5.70414">
        <ele>681</ele>
        <time>2019-05-24T13:30:20Z</time>
      </trkpt>
      <trkpt lat="44.242" lon="5.70407">
        <ele>680</ele>
        <time>2019-05-24T13:30:21Z</time>
      </trkpt>
      <trkpt lat="44.24207" lon="5.704">
        <ele>679</ele>
        <time>2019-05-24T13:30:22Z</time>
      </trkpt>
      <trkpt lat="44.24214" lon="5.70394">
        <ele>679</ele>
        <time>2019-05-24T13:30:23Z</time>
      </trkpt>
      <trkpt lat="44.24222" lon="5.70388">
        <ele>679</ele>
        <time>2019-05-24T13:30:24Z</time>
      </trkpt>
      <trkpt lat="44.2423" lon="5.70382">
        <ele>678</ele>
        <time>2019-05-24T13:30:25Z</time>
      </trkpt>
      <trkpt lat="44.24239" lon="5.70376">
        <ele>678</ele>
        <time>2019-05-24T13:30:26Z</time>
      </trkpt>
      <trkpt lat="44.24247" lon="5.70371">
        <ele>678</ele>
        <time>2019-05-24T13:30:27Z</time>
      </trkpt>
      <trkpt lat="44.24256" lon="5.70369">
        <ele>678</ele>
        <time>2019-05-24T13:30:28Z</time>
      </trkpt>
      <trkpt lat="44.24265" lon="5.70369">
        <ele>678</ele>
        <time>2019-05-24T13:30:29Z</time>
      </trkpt>
      <trkpt lat="44.24274" lon="5.70368">
        <ele>678</ele>
        <time>2019-05-24T13:30:30Z</time>
      </trkpt>
      <trkpt lat="44.24282" lon="5.70367">
        <ele>678</ele>
        <time>2019-05-24T13:30:31Z</time>
      </trkpt>
      <trkpt lat="44.24291" lon="5.70365">
        <ele>677</ele>
        <time>2019-05-24T13:30:32Z</time>
      </trkpt>
      <trkpt lat="44.243" lon="5.70362">
        <ele>676</ele>
        <time>2019-05-24T13:30:33Z</time>
      </trkpt>
      <trkpt lat="44.24308" lon="5.70359">
        <ele>676</ele>
        <time>2019-05-24T13:30:34Z</time>
      </trkpt>
      <trkpt lat="44.24317" lon="5.70356">
        <ele>675</ele>
        <time>2019-05-24T13:30:35Z</time>
      </trkpt>
      <trkpt lat="44.24325" lon="5.70353">
        <ele>675</ele>
        <time>2019-05-24T13:30:36Z</time>
      </trkpt>
      <trkpt lat="44.24334" lon="5.70352">
        <ele>674</ele>
        <time>2019-05-24T13:30:37Z</time>
      </trkpt>
      <trkpt lat="44.24343" lon="5.70351">
        <ele>674</ele>
        <time>2019-05-24T13:30:38Z</time>
      </trkpt>
      <trkpt lat="44.24353" lon="5.70352">
        <ele>673</ele>
        <time>2019-05-24T13:30:39Z</time>
      </trkpt>
      <trkpt lat="44.24363" lon="5.70354">
        <ele>673</ele>
        <time>2019-05-24T13:30:40Z</time>
      </trkpt>
      <trkpt lat="44.24374" lon="5.70357">
        <ele>673</ele>
        <time>2019-05-24T13:30:41Z</time>
      </trkpt>
      <trkpt lat="44.24385" lon="5.70361">
        <ele>673</ele>
        <time>2019-05-24T13:30:42Z</time>
      </trkpt>
      <trkpt lat="44.24394" lon="5.70365">
        <ele>673</ele>
        <time>2019-05-24T13:30:43Z</time>
      </trkpt>
      <trkpt lat="44.24404" lon="5.70371">
        <ele>672</ele>
        <time>2019-05-24T13:30:44Z</time>
      </trkpt>
      <trkpt lat="44.24413" lon="5.70377">
        <ele>672</ele>
        <time>2019-05-24T13:30:45Z</time>
      </trkpt>
      <trkpt lat="44.24422" lon="5.70385">
        <ele>671</ele>
        <time>2019-05-24T13:30:46Z</time>
      </trkpt>
      <trkpt lat="44.2443" lon="5.70393">
        <ele>670</ele>
        <time>2019-05-24T13:30:47Z</time>
      </trkpt>
      <trkpt lat="44.24437" lon="5.70401">
        <ele>669</ele>
        <time>2019-05-24T13:30:48Z</time>
      </trkpt>
      <trkpt lat="44.24443" lon="5.70409">
        <ele>668</ele>
        <time>2019-05-24T13:30:49Z</time>
      </trkpt>
      <trkpt lat="44.2445" lon="5.70415">
        <ele>668</ele>
        <time>2019-05-24T13:30:50Z</time>
      </trkpt>
      <trkpt lat="44.24454" lon="5.70419">
        <ele>667</ele>
        <time>2019-05-24T13:30:51Z</time>
      </trkpt>
      <trkpt lat="44.24459" lon="5.70419">
        <ele>666</ele>
        <time>2019-05-24T13:30:52Z</time>
      </trkpt>
      <trkpt lat="44.24465" lon="5.70413">
        <ele>666</ele>
        <time>2019-05-24T13:30:53Z</time>
      </trkpt>
      <trkpt lat="44.24471" lon="5.7041">
        <ele>665</ele>
        <time>2019-05-24T13:30:54Z</time>
      </trkpt>
      <trkpt lat="44.24479" lon="5.70408">
        <ele>664</ele>
        <time>2019-05-24T13:30:55Z</time>
      </trkpt>
      <trkpt lat="44.24485" lon="5.7041">
        <ele>664</ele>
        <time>2019-05-24T13:30:56Z</time>
      </trkpt>
      <trkpt lat="44.24492" lon="5.70414">
        <ele>663</ele>
        <time>2019-05-24T13:30:57Z</time>
      </trkpt>
      <trkpt lat="44.24498" lon="5.70418">
        <ele>662</ele>
        <time>2019-05-24T13:30:58Z</time>
      </trkpt>
      <trkpt lat="44.24505" lon="5.70423">
        <ele>662</ele>
        <time>2019-05-24T13:30:59Z</time>
      </trkpt>
      <trkpt lat="44.24511" lon="5.70428">
        <ele>661</ele>
        <time>2019-05-24T13:31:00Z</time>
      </trkpt>
      <trkpt lat="44.24517" lon="5.70433">
        <ele>660</ele>
        <time>2019-05-24T13:31:01Z</time>
      </trkpt>
      <trkpt lat="44.24524" lon="5.70438">
        <ele>660</ele>
        <time>2019-05-24T13:31:02Z</time>
      </trkpt>
      <trkpt lat="44.24531" lon="5.70443">
        <ele>659</ele>
        <time>2019-05-24T13:31:03Z</time>
      </trkpt>
      <trkpt lat="44.24538" lon="5.70448">
        <ele>659</ele>
        <time>2019-05-24T13:31:04Z</time>
      </trkpt>
      <trkpt lat="44.24545" lon="5.70454">
        <ele>658</ele>
        <time>2019-05-24T13:31:05Z</time>
      </trkpt>
      <trkpt lat="44.24551" lon="5.70459">
        <ele>658</ele>
        <time>2019-05-24T13:31:06Z</time>
      </trkpt>
      <trkpt lat="44.24559" lon="5.70465">
        <ele>658</ele>
        <time>2019-05-24T13:31:07Z</time>
      </trkpt>
      <trkpt lat="44.24566" lon="5.70469">
        <ele>658</ele>
        <time>2019-05-24T13:31:08Z</time>
      </trkpt>
      <trkpt lat="44.24572" lon="5.70473">
        <ele>658</ele>
        <time>2019-05-24T13:31:09Z</time>
      </trkpt>
      <trkpt lat="44.2458" lon="5.70476">
        <ele>658</ele>
        <time>2019-05-24T13:31:10Z</time>
      </trkpt>
      <trkpt lat="44.24586" lon="5.70477">
        <ele>658</ele>
        <time>2019-05-24T13:31:11Z</time>
      </trkpt>
      <trkpt lat="44.24593" lon="5.70477">
        <ele>657</ele>
        <time>2019-05-24T13:31:12Z</time>
      </trkpt>
      <trkpt lat="44.24599" lon="5.70477">
        <ele>657</ele>
        <time>2019-05-24T13:31:13Z</time>
      </trkpt>
      <trkpt lat="44.24606" lon="5.70476">
        <ele>657</ele>
        <time>2019-05-24T13:31:14Z</time>
      </trkpt>
      <trkpt lat="44.24613" lon="5.70475">
        <ele>656</ele>
        <time>2019-05-24T13:31:15Z</time>
      </trkpt>
      <trkpt lat="44.2462" lon="5.70474">
        <ele>656</ele>
        <time>2019-05-24T13:31:16Z</time>
      </trkpt>
      <trkpt lat="44.24626" lon="5.70473">
        <ele>656</ele>
        <time>2019-05-24T13:31:17Z</time>
      </trkpt>
      <trkpt lat="44.24632" lon="5.70471">
        <ele>656</ele>
        <time>2019-05-24T13:31:18Z</time>
      </trkpt>
      <trkpt lat="44.24638" lon="5.70468">
        <ele>656</ele>
        <time>2019-05-24T13:31:19Z</time>
      </trkpt>
      <trkpt lat="44.24644" lon="5.70464">
        <ele>656</ele>
        <time>2019-05-24T13:31:20Z</time>
      </trkpt>
      <trkpt lat="44.2465" lon="5.7046">
        <ele>656</ele>
        <time>2019-05-24T13:31:21Z</time>
      </trkpt>
      <trkpt lat="44.24656" lon="5.70456">
        <ele>656</ele>
        <time>2019-05-24T13:31:22Z</time>
      </trkpt>
      <trkpt lat="44.24661" lon="5.7045">
        <ele>656</ele>
        <time>2019-05-24T13:31:23Z</time>
      </trkpt>
      <trkpt lat="44.24667" lon="5.70445">
        <ele>656</ele>
        <time>2019-05-24T13:31:24Z</time>
      </trkpt>
      <trkpt lat="44.24672" lon="5.70439">
        <ele>656</ele>
        <time>2019-05-24T13:31:25Z</time>
      </trkpt>
      <trkpt lat="44.24677" lon="5.70434">
        <ele>656</ele>
        <time>2019-05-24T13:31:26Z</time>
      </trkpt>
      <trkpt lat="44.24682" lon="5.70429">
        <ele>656</ele>
        <time>2019-05-24T13:31:27Z</time>
      </trkpt>
      <trkpt lat="44.24687" lon="5.70425">
        <ele>656</ele>
        <time>2019-05-24T13:31:28Z</time>
      </trkpt>
      <trkpt lat="44.24692" lon="5.7042">
        <ele>656</ele>
        <time>2019-05-24T13:31:29Z</time>
      </trkpt>
      <trkpt lat="44.24696" lon="5.70415">
        <ele>656</ele>
        <time>2019-05-24T13:31:30Z</time>
      </trkpt>
      <trkpt lat="44.24701" lon="5.7041">
        <ele>656</ele>
        <time>2019-05-24T13:31:31Z</time>
      </trkpt>
      <trkpt lat="44.24706" lon="5.70405">
        <ele>656</ele>
        <time>2019-05-24T13:31:32Z</time>
      </trkpt>
      <trkpt lat="44.24711" lon="5.704">
        <ele>656</ele>
        <time>2019-05-24T13:31:33Z</time>
      </trkpt>
      <trkpt lat="44.24716" lon="5.70395">
        <ele>656</ele>
        <time>2019-05-24T13:31:34Z</time>
      </trkpt>
      <trkpt lat="44.24721" lon="5.7039">
        <ele>656</ele>
        <time>2019-05-24T13:31:35Z</time>
      </trkpt>
      <trkpt lat="44.24726" lon="5.70385">
        <ele>656</ele>
        <time>2019-05-24T13:31:36Z</time>
      </trkpt>
      <trkpt lat="44.24731" lon="5.70379">
        <ele>656</ele>
        <time>2019-05-24T13:31:37Z</time>
      </trkpt>
      <trkpt lat="44.24735" lon="5.70374">
        <ele>656</ele>
        <time>2019-05-24T13:31:38Z</time>
      </trkpt>
      <trkpt lat="44.2474" lon="5.70369">
        <ele>656</ele>
        <time>2019-05-24T13:31:39Z</time>
      </trkpt>
      <trkpt lat="44.24744" lon="5.70364">
        <ele>656</ele>
        <time>2019-05-24T13:31:40Z</time>
      </trkpt>
      <trkpt lat="44.24749" lon="5.7036">
        <ele>656</ele>
        <time>2019-05-24T13:31:41Z</time>
      </trkpt>
      <trkpt lat="44.24753" lon="5.70356">
        <ele>656</ele>
        <time>2019-05-24T13:31:42Z</time>
      </trkpt>
      <trkpt lat="44.24758" lon="5.70352">
        <ele>656</ele>
        <time>2019-05-24T13:31:43Z</time>
      </trkpt>
      <trkpt lat="44.24762" lon="5.70348">
        <ele>656</ele>
        <time>2019-05-24T13:31:44Z</time>
      </trkpt>
      <trkpt lat="44.24767" lon="5.70344">
        <ele>656</ele>
        <time>2019-05-24T13:31:45Z</time>
      </trkpt>
      <trkpt lat="44.2477" lon="5.70341">
        <ele>656</ele>
        <time>2019-05-24T13:31:46Z</time>
      </trkpt>
      <trkpt lat="44.24775" lon="5.70339">
        <ele>656</ele>
        <time>2019-05-24T13:31:47Z</time>
      </trkpt>
      <trkpt lat="44.24779" lon="5.7034">
        <ele>656</ele>
        <time>2019-05-24T13:31:48Z</time>
      </trkpt>
      <trkpt lat="44.24782" lon="5.70342">
        <ele>656</ele>
        <time>2019-05-24T13:31:49Z</time>
      </trkpt>
      <trkpt lat="44.24785" lon="5.70346">
        <ele>656</ele>
        <time>2019-05-24T13:31:50Z</time>
      </trkpt>
      <trkpt lat="44.24788" lon="5.70351">
        <ele>656</ele>
        <time>2019-05-24T13:31:51Z</time>
      </trkpt>
      <trkpt lat="44.24791" lon="5.70356">
        <ele>656</ele>
        <time>2019-05-24T13:31:52Z</time>
      </trkpt>
      <trkpt lat="44.24793" lon="5.70363">
        <ele>656</ele>
        <time>2019-05-24T13:31:53Z</time>
      </trkpt>
      <trkpt lat="44.24794" lon="5.7037">
        <ele>656</ele>
        <time>2019-05-24T13:31:54Z</time>
      </trkpt>
      <trkpt lat="44.24794" lon="5.70377">
        <ele>656</ele>
        <time>2019-05-24T13:31:55Z</time>
      </trkpt>
      <trkpt lat="44.24794" lon="5.70385">
        <ele>656</ele>
        <time>2019-05-24T13:31:56Z</time>
      </trkpt>
      <trkpt lat="44.24793" lon="5.70393">
        <ele>656</ele>
        <time>2019-05-24T13:31:57Z</time>
      </trkpt>
      <trkpt lat="44.24792" lon="5.704">
        <ele>656</ele>
        <time>2019-05-24T13:31:58Z</time>
      </trkpt>
      <trkpt lat="44.24791" lon="5.70408">
        <ele>656</ele>
        <time>2019-05-24T13:31:59Z</time>
      </trkpt>
      <trkpt lat="44.2479" lon="5.70417">
        <ele>656</ele>
        <time>2019-05-24T13:32:00Z</time>
      </trkpt>
      <trkpt lat="44.24787" lon="5.70425">
        <ele>656</ele>
        <time>2019-05-24T13:32:01Z</time>
      </trkpt>
      <trkpt lat="44.24784" lon="5.70433">
        <ele>656</ele>
        <time>2019-05-24T13:32:02Z</time>
      </trkpt>
      <trkpt lat="44.24781" lon="5.70441">
        <ele>657</ele>
        <time>2019-05-24T13:32:03Z</time>
      </trkpt>
      <trkpt lat="44.24777" lon="5.70447">
        <ele>658</ele>
        <time>2019-05-24T13:32:04Z</time>
      </trkpt>
      <trkpt lat="44.24773" lon="5.70453">
        <ele>658</ele>
        <time>2019-05-24T13:32:05Z</time>
      </trkpt>
      <trkpt lat="44.24769" lon="5.70459">
        <ele>659</ele>
        <time>2019-05-24T13:32:06Z</time>
      </trkpt>
      <trkpt lat="44.24765" lon="5.70465">
        <ele>659</ele>
        <time>2019-05-24T13:32:07Z</time>
      </trkpt>
      <trkpt lat="44.2476" lon="5.7047">
        <ele>660</ele>
        <time>2019-05-24T13:32:08Z</time>
      </trkpt>
      <trkpt lat="44.24756" lon="5.70476">
        <ele>660</ele>
        <time>2019-05-24T13:32:09Z</time>
      </trkpt>
      <trkpt lat="44.24752" lon="5.70481">
        <ele>660</ele>
        <time>2019-05-24T13:32:10Z</time>
      </trkpt>
      <trkpt lat="44.24747" lon="5.70485">
        <ele>660</ele>
        <time>2019-05-24T13:32:11Z</time>
      </trkpt>
      <trkpt lat="44.24743" lon="5.70491">
        <ele>660</ele>
        <time>2019-05-24T13:32:12Z</time>
      </trkpt>
      <trkpt lat="44.24738" lon="5.70495">
        <ele>660</ele>
        <time>2019-05-24T13:32:13Z</time>
      </trkpt>
      <trkpt lat="44.24734" lon="5.705">
        <ele>660</ele>
        <time>2019-05-24T13:32:14Z</time>
      </trkpt>
      <trkpt lat="44.24729" lon="5.70505">
        <ele>660</ele>
        <time>2019-05-24T13:32:15Z</time>
      </trkpt>
      <trkpt lat="44.24725" lon="5.70509">
        <ele>660</ele>
        <time>2019-05-24T13:32:16Z</time>
      </trkpt>
      <trkpt lat="44.24721" lon="5.70514">
        <ele>660</ele>
        <time>2019-05-24T13:32:17Z</time>
      </trkpt>
      <trkpt lat="44.24716" lon="5.70519">
        <ele>660</ele>
        <time>2019-05-24T13:32:18Z</time>
      </trkpt>
      <trkpt lat="44.24712" lon="5.70523">
        <ele>660</ele>
        <time>2019-05-24T13:32:19Z</time>
      </trkpt>
      <trkpt lat="44.24707" lon="5.70528">
        <ele>660</ele>
        <time>2019-05-24T13:32:20Z</time>
      </trkpt>
      <trkpt lat="44.24703" lon="5.70533">
        <ele>660</ele>
        <time>2019-05-24T13:32:21Z</time>
      </trkpt>
      <trkpt lat="44.24699" lon="5.70537">
        <ele>660</ele>
        <time>2019-05-24T13:32:22Z</time>
      </trkpt>
      <trkpt lat="44.24696" lon="5.70541">
        <ele>660</ele>
        <time>2019-05-24T13:32:23Z</time>
      </trkpt>
      <trkpt lat="44.24693" lon="5.70546">
        <ele>660</ele>
        <time>2019-05-24T13:32:24Z</time>
      </trkpt>
      <trkpt lat="44.2469" lon="5.70552">
        <ele>660</ele>
        <time>2019-05-24T13:32:25Z</time>
      </trkpt>
      <trkpt lat="44.24689" lon="5.70559">
        <ele>660</ele>
        <time>2019-05-24T13:32:26Z</time>
      </trkpt>
      <trkpt lat="44.24689" lon="5.70566">
        <ele>660</ele>
        <time>2019-05-24T13:32:27Z</time>
      </trkpt>
      <trkpt lat="44.2469" lon="5.70574">
        <ele>660</ele>
        <time>2019-05-24T13:32:28Z</time>
      </trkpt>
      <trkpt lat="44.24693" lon="5.7058">
        <ele>660</ele>
        <time>2019-05-24T13:32:29Z</time>
      </trkpt>
      <trkpt lat="44.24696" lon="5.70585">
        <ele>660</ele>
        <time>2019-05-24T13:32:30Z</time>
      </trkpt>
      <trkpt lat="44.24699" lon="5.70588">
        <ele>660</ele>
        <time>2019-05-24T13:32:31Z</time>
      </trkpt>
      <trkpt lat="44.24703" lon="5.70591">
        <ele>660</ele>
        <time>2019-05-24T13:32:32Z</time>
      </trkpt>
      <trkpt lat="44.24707" lon="5.70593">
        <ele>660</ele>
        <time>2019-05-24T13:32:33Z</time>
      </trkpt>
      <trkpt lat="44.24712" lon="5.70595">
        <ele>660</ele>
        <time>2019-05-24T13:32:34Z</time>
      </trkpt>
      <trkpt lat="44.24717" lon="5.70597">
        <ele>660</ele>
        <time>2019-05-24T13:32:35Z</time>
      </trkpt>
      <trkpt lat="44.24721" lon="5.70599">
        <ele>660</ele>
        <time>2019-05-24T13:32:36Z</time>
      </trkpt>
      <trkpt lat="44.24726" lon="5.70602">
        <ele>660</ele>
        <time>2019-05-24T13:32:37Z</time>
      </trkpt>
      <trkpt lat="44.2473" lon="5.70605">
        <ele>660</ele>
        <time>2019-05-24T13:32:38Z</time>
      </trkpt>
      <trkpt lat="44.24734" lon="5.7061">
        <ele>660</ele>
        <time>2019-05-24T13:32:39Z</time>
      </trkpt>
      <trkpt lat="44.24737" lon="5.70615">
        <ele>660</ele>
        <time>2019-05-24T13:32:40Z</time>
      </trkpt>
      <trkpt lat="44.24739" lon="5.7062">
        <ele>660</ele>
        <time>2019-05-24T13:32:41Z</time>
      </trkpt>
      <trkpt lat="44.24742" lon="5.70625">
        <ele>660</ele>
        <time>2019-05-24T13:32:42Z</time>
      </trkpt>
      <trkpt lat="44.24744" lon="5.70631">
        <ele>660</ele>
        <time>2019-05-24T13:32:43Z</time>
      </trkpt>
      <trkpt lat="44.24747" lon="5.70637">
        <ele>660</ele>
        <time>2019-05-24T13:32:44Z</time>
      </trkpt>
      <trkpt lat="44.24749" lon="5.70643">
        <ele>660</ele>
        <time>2019-05-24T13:32:45Z</time>
      </trkpt>
      <trkpt lat="44.24751" lon="5.70649">
        <ele>660</ele>
        <time>2019-05-24T13:32:46Z</time>
      </trkpt>
      <trkpt lat="44.24751" lon="5.70655">
        <ele>660</ele>
        <time>2019-05-24T13:32:47Z</time>
      </trkpt>
      <trkpt lat="44.24752" lon="5.70661">
        <ele>661</ele>
        <time>2019-05-24T13:32:48Z</time>
      </trkpt>
      <trkpt lat="44.24751" lon="5.70669">
        <ele>661</ele>
        <time>2019-05-24T13:32:49Z</time>
      </trkpt>
      <trkpt lat="44.24748" lon="5.70675">
        <ele>661</ele>
        <time>2019-05-24T13:32:50Z</time>
      </trkpt>
      <trkpt lat="44.24743" lon="5.70679">
        <ele>661</ele>
        <time>2019-05-24T13:32:51Z</time>
      </trkpt>
      <trkpt lat="44.24731" lon="5.70689">
        <ele>661</ele>
        <time>2019-05-24T13:32:54Z</time>
      </trkpt>
      <trkpt lat="44.24725" lon="5.70684">
        <ele>662</ele>
        <time>2019-05-24T13:32:55Z</time>
      </trkpt>
      <trkpt lat="44.2472" lon="5.70682">
        <ele>662</ele>
        <time>2019-05-24T13:32:56Z</time>
      </trkpt>
      <trkpt lat="44.24716" lon="5.70683">
        <ele>663</ele>
        <time>2019-05-24T13:32:57Z</time>
      </trkpt>
      <trkpt lat="44.24712" lon="5.70683">
        <ele>663</ele>
        <time>2019-05-24T13:32:58Z</time>
      </trkpt>
      <trkpt lat="44.24708" lon="5.70683">
        <ele>664</ele>
        <time>2019-05-24T13:32:59Z</time>
      </trkpt>
      <trkpt lat="44.24704" lon="5.70684">
        <ele>665</ele>
        <time>2019-05-24T13:33:00Z</time>
      </trkpt>
      <trkpt lat="44.24701" lon="5.70685">
        <ele>665</ele>
        <time>2019-05-24T13:33:01Z</time>
      </trkpt>
      <trkpt lat="44.24697" lon="5.70686">
        <ele>666</ele>
        <time>2019-05-24T13:33:02Z</time>
      </trkpt>
      <trkpt lat="44.24693" lon="5.70686">
        <ele>667</ele>
        <time>2019-05-24T13:33:03Z</time>
      </trkpt>
      <trkpt lat="44.24689" lon="5.70686">
        <ele>667</ele>
        <time>2019-05-24T13:33:04Z</time>
      </trkpt>
      <trkpt lat="44.24686" lon="5.70687">
        <ele>668</ele>
        <time>2019-05-24T13:33:05Z</time>
      </trkpt>
      <trkpt lat="44.24682" lon="5.70687">
        <ele>669</ele>
        <time>2019-05-24T13:33:06Z</time>
      </trkpt>
      <trkpt lat="44.24678" lon="5.70687">
        <ele>669</ele>
        <time>2019-05-24T13:33:07Z</time>
      </trkpt>
      <trkpt lat="44.24675" lon="5.70688">
        <ele>670</ele>
        <time>2019-05-24T13:33:08Z</time>
      </trkpt>
      <trkpt lat="44.24671" lon="5.70689">
        <ele>670</ele>
        <time>2019-05-24T13:33:09Z</time>
      </trkpt>
      <trkpt lat="44.24668" lon="5.70689">
        <ele>670</ele>
        <time>2019-05-24T13:33:10Z</time>
      </trkpt>
      <trkpt lat="44.24664" lon="5.70689">
        <ele>670</ele>
        <time>2019-05-24T13:33:11Z</time>
      </trkpt>
      <trkpt lat="44.24661" lon="5.70689">
        <ele>670</ele>
        <time>2019-05-24T13:33:12Z</time>
      </trkpt>
      <trkpt lat="44.24657" lon="5.70689">
        <ele>670</ele>
        <time>2019-05-24T13:33:13Z</time>
      </trkpt>
      <trkpt lat="44.24653" lon="5.7069">
        <ele>670</ele>
        <time>2019-05-24T13:33:14Z</time>
      </trkpt>
      <trkpt lat="44.24649" lon="5.7069">
        <ele>670</ele>
        <time>2019-05-24T13:33:15Z</time>
      </trkpt>
      <trkpt lat="44.24646" lon="5.70691">
        <ele>670</ele>
        <time>2019-05-24T13:33:16Z</time>
      </trkpt>
      <trkpt lat="44.24643" lon="5.70692">
        <ele>671</ele>
        <time>2019-05-24T13:33:17Z</time>
      </trkpt>
      <trkpt lat="44.2464" lon="5.70692">
        <ele>671</ele>
        <time>2019-05-24T13:33:18Z</time>
      </trkpt>
      <trkpt lat="44.24637" lon="5.70693">
        <ele>671</ele>
        <time>2019-05-24T13:33:19Z</time>
      </trkpt>
      <trkpt lat="44.24634" lon="5.70693">
        <ele>671</ele>
        <time>2019-05-24T13:33:20Z</time>
      </trkpt>
      <trkpt lat="44.2463" lon="5.70694">
        <ele>672</ele>
        <time>2019-05-24T13:33:21Z</time>
      </trkpt>
      <trkpt lat="44.24628" lon="5.70695">
        <ele>672</ele>
        <time>2019-05-24T13:33:22Z</time>
      </trkpt>
      <trkpt lat="44.24625" lon="5.70697">
        <ele>672</ele>
        <time>2019-05-24T13:33:23Z</time>
      </trkpt>
      <trkpt lat="44.24623" lon="5.707">
        <ele>673</ele>
        <time>2019-05-24T13:33:24Z</time>
      </trkpt>
      <trkpt lat="44.24621" lon="5.70703">
        <ele>673</ele>
        <time>2019-05-24T13:33:25Z</time>
      </trkpt>
      <trkpt lat="44.24619" lon="5.70707">
        <ele>673</ele>
        <time>2019-05-24T13:33:26Z</time>
      </trkpt>
      <trkpt lat="44.24619" lon="5.70711">
        <ele>674</ele>
        <time>2019-05-24T13:33:27Z</time>
      </trkpt>
      <trkpt lat="44.2462" lon="5.70715">
        <ele>674</ele>
        <time>2019-05-24T13:33:28Z</time>
      </trkpt>
      <trkpt lat="44.2462" lon="5.70719">
        <ele>675</ele>
        <time>2019-05-24T13:33:29Z</time>
      </trkpt>
      <trkpt lat="44.24622" lon="5.70723">
        <ele>675</ele>
        <time>2019-05-24T13:33:30Z</time>
      </trkpt>
      <trkpt lat="44.24624" lon="5.70727">
        <ele>675</ele>
        <time>2019-05-24T13:33:31Z</time>
      </trkpt>
      <trkpt lat="44.24626" lon="5.70731">
        <ele>675</ele>
        <time>2019-05-24T13:33:32Z</time>
      </trkpt>
      <trkpt lat="44.24628" lon="5.70735">
        <ele>676</ele>
        <time>2019-05-24T13:33:33Z</time>
      </trkpt>
      <trkpt lat="44.24629" lon="5.7074">
        <ele>676</ele>
        <time>2019-05-24T13:33:34Z</time>
      </trkpt>
      <trkpt lat="44.24631" lon="5.70744">
        <ele>676</ele>
        <time>2019-05-24T13:33:35Z</time>
      </trkpt>
      <trkpt lat="44.24633" lon="5.70748">
        <ele>676</ele>
        <time>2019-05-24T13:33:36Z</time>
      </trkpt>
      <trkpt lat="44.24635" lon="5.70752">
        <ele>676</ele>
        <time>2019-05-24T13:33:37Z</time>
      </trkpt>
      <trkpt lat="44.24636" lon="5.70756">
        <ele>676</ele>
        <time>2019-05-24T13:33:38Z</time>
      </trkpt>
      <trkpt lat="44.24638" lon="5.7076">
        <ele>676</ele>
        <time>2019-05-24T13:33:39Z</time>
      </trkpt>
      <trkpt lat="44.2464" lon="5.70764">
        <ele>676</ele>
        <time>2019-05-24T13:33:40Z</time>
      </trkpt>
      <trkpt lat="44.24641" lon="5.70769">
        <ele>676</ele>
        <time>2019-05-24T13:33:41Z</time>
      </trkpt>
      <trkpt lat="44.24644" lon="5.70773">
        <ele>676</ele>
        <time>2019-05-24T13:33:42Z</time>
      </trkpt>
      <trkpt lat="44.24646" lon="5.70778">
        <ele>676</ele>
        <time>2019-05-24T13:33:43Z</time>
      </trkpt>
      <trkpt lat="44.24648" lon="5.70782">
        <ele>676</ele>
        <time>2019-05-24T13:33:44Z</time>
      </trkpt>
      <trkpt lat="44.2465" lon="5.70787">
        <ele>676</ele>
        <time>2019-05-24T13:33:45Z</time>
      </trkpt>
      <trkpt lat="44.24652" lon="5.70791">
        <ele>676</ele>
        <time>2019-05-24T13:33:46Z</time>
      </trkpt>
      <trkpt lat="44.24655" lon="5.70796">
        <ele>676</ele>
        <time>2019-05-24T13:33:47Z</time>
      </trkpt>
      <trkpt lat="44.24658" lon="5.70801">
        <ele>676</ele>
        <time>2019-05-24T13:33:48Z</time>
      </trkpt>
      <trkpt lat="44.24661" lon="5.70806">
        <ele>676</ele>
        <time>2019-05-24T13:33:49Z</time>
      </trkpt>
      <trkpt lat="44.24665" lon="5.7081">
        <ele>676</ele>
        <time>2019-05-24T13:33:50Z</time>
      </trkpt>
      <trkpt lat="44.24669" lon="5.70815">
        <ele>676</ele>
        <time>2019-05-24T13:33:51Z</time>
      </trkpt>
      <trkpt lat="44.24673" lon="5.70819">
        <ele>676</ele>
        <time>2019-05-24T13:33:52Z</time>
      </trkpt>
      <trkpt lat="44.24678" lon="5.70823">
        <ele>676</ele>
        <time>2019-05-24T13:33:53Z</time>
      </trkpt>
      <trkpt lat="44.24683" lon="5.70827">
        <ele>676</ele>
        <time>2019-05-24T13:33:54Z</time>
      </trkpt>
      <trkpt lat="44.24689" lon="5.70831">
        <ele>676</ele>
        <time>2019-05-24T13:33:55Z</time>
      </trkpt>
      <trkpt lat="44.24695" lon="5.70835">
        <ele>676</ele>
        <time>2019-05-24T13:33:56Z</time>
      </trkpt>
      <trkpt lat="44.24701" lon="5.70838">
        <ele>676</ele>
        <time>2019-05-24T13:33:57Z</time>
      </trkpt>
      <trkpt lat="44.24707" lon="5.70842">
        <ele>676</ele>
        <time>2019-05-24T13:33:58Z</time>
      </trkpt>
      <trkpt lat="44.24714" lon="5.70846">
        <ele>676</ele>
        <time>2019-05-24T13:33:59Z</time>
      </trkpt>
      <trkpt lat="44.2472" lon="5.70849">
        <ele>676</ele>
        <time>2019-05-24T13:34:00Z</time>
      </trkpt>
      <trkpt lat="44.24726" lon="5.70853">
        <ele>676</ele>
        <time>2019-05-24T13:34:01Z</time>
      </trkpt>
      <trkpt lat="44.24733" lon="5.70857">
        <ele>676</ele>
        <time>2019-05-24T13:34:02Z</time>
      </trkpt>
      <trkpt lat="44.24739" lon="5.70861">
        <ele>676</ele>
        <time>2019-05-24T13:34:03Z</time>
      </trkpt>
      <trkpt lat="44.24746" lon="5.70866">
        <ele>676</ele>
        <time>2019-05-24T13:34:04Z</time>
      </trkpt>
      <trkpt lat="44.24753" lon="5.7087">
        <ele>676</ele>
        <time>2019-05-24T13:34:05Z</time>
      </trkpt>
      <trkpt lat="44.24759" lon="5.70875">
        <ele>676</ele>
        <time>2019-05-24T13:34:06Z</time>
      </trkpt>
      <trkpt lat="44.24765" lon="5.7088">
        <ele>676</ele>
        <time>2019-05-24T13:34:07Z</time>
      </trkpt>
      <trkpt lat="44.24772" lon="5.70885">
        <ele>676</ele>
        <time>2019-05-24T13:34:08Z</time>
      </trkpt>
      <trkpt lat="44.24777" lon="5.70891">
        <ele>676</ele>
        <time>2019-05-24T13:34:09Z</time>
      </trkpt>
      <trkpt lat="44.24783" lon="5.70896">
        <ele>676</ele>
        <time>2019-05-24T13:34:10Z</time>
      </trkpt>
      <trkpt lat="44.24789" lon="5.70902">
        <ele>676</ele>
        <time>2019-05-24T13:34:11Z</time>
      </trkpt>
      <trkpt lat="44.24794" lon="5.70908">
        <ele>676</ele>
        <time>2019-05-24T13:34:12Z</time>
      </trkpt>
      <trkpt lat="44.248" lon="5.70915">
        <ele>676</ele>
        <time>2019-05-24T13:34:13Z</time>
      </trkpt>
      <trkpt lat="44.24805" lon="5.70921">
        <ele>676</ele>
        <time>2019-05-24T13:34:14Z</time>
      </trkpt>
      <trkpt lat="44.2481" lon="5.70927">
        <ele>676</ele>
        <time>2019-05-24T13:34:15Z</time>
      </trkpt>
      <trkpt lat="44.24816" lon="5.70934">
        <ele>676</ele>
        <time>2019-05-24T13:34:16Z</time>
      </trkpt>
      <trkpt lat="44.24822" lon="5.7094">
        <ele>675</ele>
        <time>2019-05-24T13:34:17Z</time>
      </trkpt>
      <trkpt lat="44.24827" lon="5.70946">
        <ele>675</ele>
        <time>2019-05-24T13:34:18Z</time>
      </trkpt>
      <trkpt lat="44.24832" lon="5.70953">
        <ele>674</ele>
        <time>2019-05-24T13:34:19Z</time>
      </trkpt>
      <trkpt lat="44.24838" lon="5.7096">
        <ele>674</ele>
        <time>2019-05-24T13:34:20Z</time>
      </trkpt>
      <trkpt lat="44.24844" lon="5.70966">
        <ele>674</ele>
        <time>2019-05-24T13:34:21Z</time>
      </trkpt>
      <trkpt lat="44.24849" lon="5.70972">
        <ele>674</ele>
        <time>2019-05-24T13:34:22Z</time>
      </trkpt>
      <trkpt lat="44.24855" lon="5.70978">
        <ele>674</ele>
        <time>2019-05-24T13:34:23Z</time>
      </trkpt>
      <trkpt lat="44.24861" lon="5.70984">
        <ele>674</ele>
        <time>2019-05-24T13:34:24Z</time>
      </trkpt>
      <trkpt lat="44.24867" lon="5.7099">
        <ele>674</ele>
        <time>2019-05-24T13:34:25Z</time>
      </trkpt>
      <trkpt lat="44.24873" lon="5.70996">
        <ele>674</ele>
        <time>2019-05-24T13:34:26Z</time>
      </trkpt>
      <trkpt lat="44.24879" lon="5.71002">
        <ele>674</ele>
        <time>2019-05-24T13:34:27Z</time>
      </trkpt>
      <trkpt lat="44.24885" lon="5.71009">
        <ele>674</ele>
        <time>2019-05-24T13:34:28Z</time>
      </trkpt>
      <trkpt lat="44.2489" lon="5.71016">
        <ele>674</ele>
        <time>2019-05-24T13:34:29Z</time>
      </trkpt>
      <trkpt lat="44.24895" lon="5.71023">
        <ele>674</ele>
        <time>2019-05-24T13:34:30Z</time>
      </trkpt>
      <trkpt lat="44.24901" lon="5.71031">
        <ele>674</ele>
        <time>2019-05-24T13:34:31Z</time>
      </trkpt>
      <trkpt lat="44.24906" lon="5.71038">
        <ele>674</ele>
        <time>2019-05-24T13:34:32Z</time>
      </trkpt>
      <trkpt lat="44.24911" lon="5.71046">
        <ele>674</ele>
        <time>2019-05-24T13:34:33Z</time>
      </trkpt>
      <trkpt lat="44.24917" lon="5.71054">
        <ele>674</ele>
        <time>2019-05-24T13:34:34Z</time>
      </trkpt>
      <trkpt lat="44.24923" lon="5.71061">
        <ele>674</ele>
        <time>2019-05-24T13:34:35Z</time>
      </trkpt>
      <trkpt lat="44.24929" lon="5.71069">
        <ele>674</ele>
        <time>2019-05-24T13:34:36Z</time>
      </trkpt>
      <trkpt lat="44.24934" lon="5.71077">
        <ele>674</ele>
        <time>2019-05-24T13:34:37Z</time>
      </trkpt>
      <trkpt lat="44.2494" lon="5.71086">
        <ele>673</ele>
        <time>2019-05-24T13:34:38Z</time>
      </trkpt>
      <trkpt lat="44.24946" lon="5.71095">
        <ele>673</ele>
        <time>2019-05-24T13:34:39Z</time>
      </trkpt>
      <trkpt lat="44.24953" lon="5.71103">
        <ele>673</ele>
        <time>2019-05-24T13:34:40Z</time>
      </trkpt>
      <trkpt lat="44.24959" lon="5.71112">
        <ele>672</ele>
        <time>2019-05-24T13:34:41Z</time>
      </trkpt>
      <trkpt lat="44.24966" lon="5.71121">
        <ele>672</ele>
        <time>2019-05-24T13:34:42Z</time>
      </trkpt>
      <trkpt lat="44.24972" lon="5.7113">
        <ele>672</ele>
        <time>2019-05-24T13:34:43Z</time>
      </trkpt>
      <trkpt lat="44.24979" lon="5.71139">
        <ele>672</ele>
        <time>2019-05-24T13:34:44Z</time>
      </trkpt>
      <trkpt lat="44.24985" lon="5.71148">
        <ele>671</ele>
        <time>2019-05-24T13:34:45Z</time>
      </trkpt>
      <trkpt lat="44.24992" lon="5.71158">
        <ele>671</ele>
        <time>2019-05-24T13:34:46Z</time>
      </trkpt>
      <trkpt lat="44.24998" lon="5.71168">
        <ele>671</ele>
        <time>2019-05-24T13:34:47Z</time>
      </trkpt>
      <trkpt lat="44.25005" lon="5.71178">
        <ele>671</ele>
        <time>2019-05-24T13:34:48Z</time>
      </trkpt>
      <trkpt lat="44.25011" lon="5.71188">
        <ele>670</ele>
        <time>2019-05-24T13:34:49Z</time>
      </trkpt>
      <trkpt lat="44.25019" lon="5.71198">
        <ele>670</ele>
        <time>2019-05-24T13:34:50Z</time>
      </trkpt>
      <trkpt lat="44.25026" lon="5.71209">
        <ele>670</ele>
        <time>2019-05-24T13:34:51Z</time>
      </trkpt>
      <trkpt lat="44.25032" lon="5.7122">
        <ele>670</ele>
        <time>2019-05-24T13:34:52Z</time>
      </trkpt>
      <trkpt lat="44.25039" lon="5.71233">
        <ele>670</ele>
        <time>2019-05-24T13:34:53Z</time>
      </trkpt>
      <trkpt lat="44.25044" lon="5.71245">
        <ele>670</ele>
        <time>2019-05-24T13:34:54Z</time>
      </trkpt>
      <trkpt lat="44.25048" lon="5.71259">
        <ele>670</ele>
        <time>2019-05-24T13:34:55Z</time>
      </trkpt>
      <trkpt lat="44.25053" lon="5.71272">
        <ele>669</ele>
        <time>2019-05-24T13:34:56Z</time>
      </trkpt>
      <trkpt lat="44.25059" lon="5.71285">
        <ele>669</ele>
        <time>2019-05-24T13:34:57Z</time>
      </trkpt>
      <trkpt lat="44.25064" lon="5.71299">
        <ele>669</ele>
        <time>2019-05-24T13:34:58Z</time>
      </trkpt>
      <trkpt lat="44.25069" lon="5.71312">
        <ele>669</ele>
        <time>2019-05-24T13:34:59Z</time>
      </trkpt>
      <trkpt lat="44.25075" lon="5.71325">
        <ele>668</ele>
        <time>2019-05-24T13:35:00Z</time>
      </trkpt>
      <trkpt lat="44.2508" lon="5.71338">
        <ele>668</ele>
        <time>2019-05-24T13:35:01Z</time>
      </trkpt>
      <trkpt lat="44.25086" lon="5.71351">
        <ele>668</ele>
        <time>2019-05-24T13:35:02Z</time>
      </trkpt>
      <trkpt lat="44.25092" lon="5.71363">
        <ele>667</ele>
        <time>2019-05-24T13:35:03Z</time>
      </trkpt>
      <trkpt lat="44.25097" lon="5.71376">
        <ele>667</ele>
        <time>2019-05-24T13:35:04Z</time>
      </trkpt>
      <trkpt lat="44.25102" lon="5.71387">
        <ele>666</ele>
        <time>2019-05-24T13:35:05Z</time>
      </trkpt>
      <trkpt lat="44.25107" lon="5.71399">
        <ele>666</ele>
        <time>2019-05-24T13:35:06Z</time>
      </trkpt>
      <trkpt lat="44.25111" lon="5.7141">
        <ele>666</ele>
        <time>2019-05-24T13:35:07Z</time>
      </trkpt>
      <trkpt lat="44.25116" lon="5.7142">
        <ele>666</ele>
        <time>2019-05-24T13:35:08Z</time>
      </trkpt>
      <trkpt lat="44.25121" lon="5.71429">
        <ele>666</ele>
        <time>2019-05-24T13:35:09Z</time>
      </trkpt>
      <trkpt lat="44.25127" lon="5.71438">
        <ele>666</ele>
        <time>2019-05-24T13:35:10Z</time>
      </trkpt>
      <trkpt lat="44.25133" lon="5.71446">
        <ele>665</ele>
        <time>2019-05-24T13:35:11Z</time>
      </trkpt>
      <trkpt lat="44.25139" lon="5.71453">
        <ele>665</ele>
        <time>2019-05-24T13:35:12Z</time>
      </trkpt>
      <trkpt lat="44.25145" lon="5.71459">
        <ele>665</ele>
        <time>2019-05-24T13:35:13Z</time>
      </trkpt>
      <trkpt lat="44.25152" lon="5.71465">
        <ele>665</ele>
        <time>2019-05-24T13:35:14Z</time>
      </trkpt>
      <trkpt lat="44.25158" lon="5.71471">
        <ele>664</ele>
        <time>2019-05-24T13:35:15Z</time>
      </trkpt>
      <trkpt lat="44.25164" lon="5.71477">
        <ele>664</ele>
        <time>2019-05-24T13:35:16Z</time>
      </trkpt>
      <trkpt lat="44.25171" lon="5.71483">
        <ele>664</ele>
        <time>2019-05-24T13:35:17Z</time>
      </trkpt>
      <trkpt lat="44.25177" lon="5.71489">
        <ele>663</ele>
        <time>2019-05-24T13:35:18Z</time>
      </trkpt>
      <trkpt lat="44.25183" lon="5.71495">
        <ele>663</ele>
        <time>2019-05-24T13:35:19Z</time>
      </trkpt>
      <trkpt lat="44.25189" lon="5.71501">
        <ele>662</ele>
        <time>2019-05-24T13:35:20Z</time>
      </trkpt>
      <trkpt lat="44.25195" lon="5.71507">
        <ele>662</ele>
        <time>2019-05-24T13:35:21Z</time>
      </trkpt>
      <trkpt lat="44.25201" lon="5.71513">
        <ele>662</ele>
        <time>2019-05-24T13:35:22Z</time>
      </trkpt>
      <trkpt lat="44.25207" lon="5.71518">
        <ele>661</ele>
        <time>2019-05-24T13:35:23Z</time>
      </trkpt>
      <trkpt lat="44.25213" lon="5.71524">
        <ele>661</ele>
        <time>2019-05-24T13:35:24Z</time>
      </trkpt>
      <trkpt lat="44.25219" lon="5.7153">
        <ele>661</ele>
        <time>2019-05-24T13:35:25Z</time>
      </trkpt>
      <trkpt lat="44.25226" lon="5.71536">
        <ele>661</ele>
        <time>2019-05-24T13:35:26Z</time>
      </trkpt>
      <trkpt lat="44.25232" lon="5.71542">
        <ele>660</ele>
        <time>2019-05-24T13:35:27Z</time>
      </trkpt>
      <trkpt lat="44.25239" lon="5.71549">
        <ele>660</ele>
        <time>2019-05-24T13:35:28Z</time>
      </trkpt>
      <trkpt lat="44.25245" lon="5.71555">
        <ele>660</ele>
        <time>2019-05-24T13:35:29Z</time>
      </trkpt>
      <trkpt lat="44.25252" lon="5.71562">
        <ele>660</ele>
        <time>2019-05-24T13:35:30Z</time>
      </trkpt>
      <trkpt lat="44.25258" lon="5.71569">
        <ele>660</ele>
        <time>2019-05-24T13:35:31Z</time>
      </trkpt>
      <trkpt lat="44.25264" lon="5.71576">
        <ele>660</ele>
        <time>2019-05-24T13:35:32Z</time>
      </trkpt>
      <trkpt lat="44.2527" lon="5.71584">
        <ele>660</ele>
        <time>2019-05-24T13:35:33Z</time>
      </trkpt>
      <trkpt lat="44.25277" lon="5.7159">
        <ele>659</ele>
        <time>2019-05-24T13:35:34Z</time>
      </trkpt>
      <trkpt lat="44.25283" lon="5.71597">
        <ele>659</ele>
        <time>2019-05-24T13:35:35Z</time>
      </trkpt>
      <trkpt lat="44.2529" lon="5.71605">
        <ele>659</ele>
        <time>2019-05-24T13:35:36Z</time>
      </trkpt>
      <trkpt lat="44.25296" lon="5.71612">
        <ele>659</ele>
        <time>2019-05-24T13:35:37Z</time>
      </trkpt>
      <trkpt lat="44.25303" lon="5.7162">
        <ele>659</ele>
        <time>2019-05-24T13:35:38Z</time>
      </trkpt>
      <trkpt lat="44.25309" lon="5.71627">
        <ele>658</ele>
        <time>2019-05-24T13:35:39Z</time>
      </trkpt>
      <trkpt lat="44.25315" lon="5.71635">
        <ele>658</ele>
        <time>2019-05-24T13:35:40Z</time>
      </trkpt>
      <trkpt lat="44.25321" lon="5.71642">
        <ele>658</ele>
        <time>2019-05-24T13:35:41Z</time>
      </trkpt>
      <trkpt lat="44.25327" lon="5.7165">
        <ele>658</ele>
        <time>2019-05-24T13:35:42Z</time>
      </trkpt>
      <trkpt lat="44.25334" lon="5.71657">
        <ele>658</ele>
        <time>2019-05-24T13:35:43Z</time>
      </trkpt>
      <trkpt lat="44.2534" lon="5.71664">
        <ele>658</ele>
        <time>2019-05-24T13:35:44Z</time>
      </trkpt>
      <trkpt lat="44.25347" lon="5.71671">
        <ele>658</ele>
        <time>2019-05-24T13:35:45Z</time>
      </trkpt>
      <trkpt lat="44.25354" lon="5.71678">
        <ele>658</ele>
        <time>2019-05-24T13:35:46Z</time>
      </trkpt>
      <trkpt lat="44.2536" lon="5.71685">
        <ele>658</ele>
        <time>2019-05-24T13:35:47Z</time>
      </trkpt>
      <trkpt lat="44.25367" lon="5.7169">
        <ele>658</ele>
        <time>2019-05-24T13:35:48Z</time>
      </trkpt>
      <trkpt lat="44.25375" lon="5.71696">
        <ele>658</ele>
        <time>2019-05-24T13:35:49Z</time>
      </trkpt>
      <trkpt lat="44.25382" lon="5.71701">
        <ele>658</ele>
        <time>2019-05-24T13:35:50Z</time>
      </trkpt>
      <trkpt lat="44.25389" lon="5.71704">
        <ele>658</ele>
        <time>2019-05-24T13:35:51Z</time>
      </trkpt>
      <trkpt lat="44.25397" lon="5.71708">
        <ele>658</ele>
        <time>2019-05-24T13:35:52Z</time>
      </trkpt>
      <trkpt lat="44.25404" lon="5.71711">
        <ele>658</ele>
        <time>2019-05-24T13:35:53Z</time>
      </trkpt>
      <trkpt lat="44.25412" lon="5.71714">
        <ele>658</ele>
        <time>2019-05-24T13:35:54Z</time>
      </trkpt>
      <trkpt lat="44.25419" lon="5.71718">
        <ele>658</ele>
        <time>2019-05-24T13:35:55Z</time>
      </trkpt>
      <trkpt lat="44.25426" lon="5.71723">
        <ele>658</ele>
        <time>2019-05-24T13:35:56Z</time>
      </trkpt>
      <trkpt lat="44.25434" lon="5.71727">
        <ele>658</ele>
        <time>2019-05-24T13:35:57Z</time>
      </trkpt>
      <trkpt lat="44.25441" lon="5.71731">
        <ele>658</ele>
        <time>2019-05-24T13:35:58Z</time>
      </trkpt>
      <trkpt lat="44.25448" lon="5.71735">
        <ele>658</ele>
        <time>2019-05-24T13:35:59Z</time>
      </trkpt>
      <trkpt lat="44.25454" lon="5.7174">
        <ele>658</ele>
        <time>2019-05-24T13:36:00Z</time>
      </trkpt>
      <trkpt lat="44.25461" lon="5.71744">
        <ele>657</ele>
        <time>2019-05-24T13:36:01Z</time>
      </trkpt>
      <trkpt lat="44.25468" lon="5.71748">
        <ele>657</ele>
        <time>2019-05-24T13:36:02Z</time>
      </trkpt>
      <trkpt lat="44.25474" lon="5.71753">
        <ele>657</ele>
        <time>2019-05-24T13:36:03Z</time>
      </trkpt>
      <trkpt lat="44.25481" lon="5.71758">
        <ele>657</ele>
        <time>2019-05-24T13:36:04Z</time>
      </trkpt>
      <trkpt lat="44.25488" lon="5.71762">
        <ele>657</ele>
        <time>2019-05-24T13:36:05Z</time>
      </trkpt>
      <trkpt lat="44.25494" lon="5.71766">
        <ele>657</ele>
        <time>2019-05-24T13:36:06Z</time>
      </trkpt>
      <trkpt lat="44.25501" lon="5.7177">
        <ele>657</ele>
        <time>2019-05-24T13:36:07Z</time>
      </trkpt>
      <trkpt lat="44.25507" lon="5.71775">
        <ele>657</ele>
        <time>2019-05-24T13:36:08Z</time>
      </trkpt>
      <trkpt lat="44.25513" lon="5.71779">
        <ele>657</ele>
        <time>2019-05-24T13:36:09Z</time>
      </trkpt>
      <trkpt lat="44.2552" lon="5.71783">
        <ele>657</ele>
        <time>2019-05-24T13:36:10Z</time>
      </trkpt>
      <trkpt lat="44.25526" lon="5.71787">
        <ele>657</ele>
        <time>2019-05-24T13:36:11Z</time>
      </trkpt>
      <trkpt lat="44.25533" lon="5.71792">
        <ele>657</ele>
        <time>2019-05-24T13:36:12Z</time>
      </trkpt>
      <trkpt lat="44.2554" lon="5.71797">
        <ele>657</ele>
        <time>2019-05-24T13:36:13Z</time>
      </trkpt>
      <trkpt lat="44.25546" lon="5.71802">
        <ele>657</ele>
        <time>2019-05-24T13:36:14Z</time>
      </trkpt>
      <trkpt lat="44.25553" lon="5.71807">
        <ele>657</ele>
        <time>2019-05-24T13:36:15Z</time>
      </trkpt>
      <trkpt lat="44.25559" lon="5.71813">
        <ele>657</ele>
        <time>2019-05-24T13:36:16Z</time>
      </trkpt>
      <trkpt lat="44.25565" lon="5.71818">
        <ele>657</ele>
        <time>2019-05-24T13:36:17Z</time>
      </trkpt>
      <trkpt lat="44.25571" lon="5.71824">
        <ele>657</ele>
        <time>2019-05-24T13:36:18Z</time>
      </trkpt>
      <trkpt lat="44.25577" lon="5.7183">
        <ele>657</ele>
        <time>2019-05-24T13:36:19Z</time>
      </trkpt>
      <trkpt lat="44.25583" lon="5.71836">
        <ele>657</ele>
        <time>2019-05-24T13:36:20Z</time>
      </trkpt>
      <trkpt lat="44.2559" lon="5.71842">
        <ele>657</ele>
        <time>2019-05-24T13:36:21Z</time>
      </trkpt>
      <trkpt lat="44.25596" lon="5.71848">
        <ele>657</ele>
        <time>2019-05-24T13:36:22Z</time>
      </trkpt>
      <trkpt lat="44.25602" lon="5.71854">
        <ele>657</ele>
        <time>2019-05-24T13:36:23Z</time>
      </trkpt>
      <trkpt lat="44.25609" lon="5.7186">
        <ele>657</ele>
        <time>2019-05-24T13:36:24Z</time>
      </trkpt>
      <trkpt lat="44.25615" lon="5.71866">
        <ele>657</ele>
        <time>2019-05-24T13:36:25Z</time>
      </trkpt>
      <trkpt lat="44.25623" lon="5.71873">
        <ele>657</ele>
        <time>2019-05-24T13:36:26Z</time>
      </trkpt>
      <trkpt lat="44.25629" lon="5.71879">
        <ele>657</ele>
        <time>2019-05-24T13:36:27Z</time>
      </trkpt>
      <trkpt lat="44.25636" lon="5.71885">
        <ele>657</ele>
        <time>2019-05-24T13:36:28Z</time>
      </trkpt>
      <trkpt lat="44.25643" lon="5.71891">
        <ele>657</ele>
        <time>2019-05-24T13:36:29Z</time>
      </trkpt>
      <trkpt lat="44.2565" lon="5.71896">
        <ele>657</ele>
        <time>2019-05-24T13:36:30Z</time>
      </trkpt>
      <trkpt lat="44.25657" lon="5.71901">
        <ele>657</ele>
        <time>2019-05-24T13:36:31Z</time>
      </trkpt>
      <trkpt lat="44.25665" lon="5.71904">
        <ele>657</ele>
        <time>2019-05-24T13:36:32Z</time>
      </trkpt>
      <trkpt lat="44.25672" lon="5.71907">
        <ele>657</ele>
        <time>2019-05-24T13:36:33Z</time>
      </trkpt>
      <trkpt lat="44.2568" lon="5.7191">
        <ele>656</ele>
        <time>2019-05-24T13:36:34Z</time>
      </trkpt>
      <trkpt lat="44.25687" lon="5.71913">
        <ele>656</ele>
        <time>2019-05-24T13:36:35Z</time>
      </trkpt>
      <trkpt lat="44.25695" lon="5.71917">
        <ele>656</ele>
        <time>2019-05-24T13:36:36Z</time>
      </trkpt>
      <trkpt lat="44.25702" lon="5.71922">
        <ele>656</ele>
        <time>2019-05-24T13:36:37Z</time>
      </trkpt>
      <trkpt lat="44.25709" lon="5.71927">
        <ele>656</ele>
        <time>2019-05-24T13:36:38Z</time>
      </trkpt>
      <trkpt lat="44.25716" lon="5.71933">
        <ele>656</ele>
        <time>2019-05-24T13:36:39Z</time>
      </trkpt>
      <trkpt lat="44.25723" lon="5.71939">
        <ele>656</ele>
        <time>2019-05-24T13:36:40Z</time>
      </trkpt>
      <trkpt lat="44.25729" lon="5.71946">
        <ele>656</ele>
        <time>2019-05-24T13:36:41Z</time>
      </trkpt>
      <trkpt lat="44.25736" lon="5.71952">
        <ele>656</ele>
        <time>2019-05-24T13:36:42Z</time>
      </trkpt>
      <trkpt lat="44.25742" lon="5.71959">
        <ele>656</ele>
        <time>2019-05-24T13:36:43Z</time>
      </trkpt>
      <trkpt lat="44.25749" lon="5.71965">
        <ele>655</ele>
        <time>2019-05-24T13:36:44Z</time>
      </trkpt>
      <trkpt lat="44.25755" lon="5.71971">
        <ele>655</ele>
        <time>2019-05-24T13:36:45Z</time>
      </trkpt>
      <trkpt lat="44.25762" lon="5.71976">
        <ele>655</ele>
        <time>2019-05-24T13:36:46Z</time>
      </trkpt>
      <trkpt lat="44.25769" lon="5.71981">
        <ele>655</ele>
        <time>2019-05-24T13:36:47Z</time>
      </trkpt>
      <trkpt lat="44.25776" lon="5.71986">
        <ele>655</ele>
        <time>2019-05-24T13:36:48Z</time>
      </trkpt>
      <trkpt lat="44.25784" lon="5.71991">
        <ele>655</ele>
        <time>2019-05-24T13:36:49Z</time>
      </trkpt>
      <trkpt lat="44.25791" lon="5.71996">
        <ele>655</ele>
        <time>2019-05-24T13:36:50Z</time>
      </trkpt>
      <trkpt lat="44.25799" lon="5.72001">
        <ele>655</ele>
        <time>2019-05-24T13:36:51Z</time>
      </trkpt>
      <trkpt lat="44.25807" lon="5.72006">
        <ele>655</ele>
        <time>2019-05-24T13:36:52Z</time>
      </trkpt>
      <trkpt lat="44.25814" lon="5.72011">
        <ele>655</ele>
        <time>2019-05-24T13:36:53Z</time>
      </trkpt>
      <trkpt lat="44.25822" lon="5.72016">
        <ele>655</ele>
        <time>2019-05-24T13:36:54Z</time>
      </trkpt>
      <trkpt lat="44.25829" lon="5.72021">
        <ele>655</ele>
        <time>2019-05-24T13:36:55Z</time>
      </trkpt>
      <trkpt lat="44.25837" lon="5.72027">
        <ele>655</ele>
        <time>2019-05-24T13:36:56Z</time>
      </trkpt>
      <trkpt lat="44.25844" lon="5.72032">
        <ele>655</ele>
        <time>2019-05-24T13:36:57Z</time>
      </trkpt>
      <trkpt lat="44.25851" lon="5.72037">
        <ele>655</ele>
        <time>2019-05-24T13:36:58Z</time>
      </trkpt>
      <trkpt lat="44.25858" lon="5.72042">
        <ele>655</ele>
        <time>2019-05-24T13:36:59Z</time>
      </trkpt>
      <trkpt lat="44.25865" lon="5.72047">
        <ele>655</ele>
        <time>2019-05-24T13:37:00Z</time>
      </trkpt>
      <trkpt lat="44.25872" lon="5.72051">
        <ele>655</ele>
        <time>2019-05-24T13:37:01Z</time>
      </trkpt>
      <trkpt lat="44.2588" lon="5.72056">
        <ele>655</ele>
        <time>2019-05-24T13:37:02Z</time>
      </trkpt>
      <trkpt lat="44.25887" lon="5.72061">
        <ele>655</ele>
        <time>2019-05-24T13:37:03Z</time>
      </trkpt>
      <trkpt lat="44.25894" lon="5.72066">
        <ele>655</ele>
        <time>2019-05-24T13:37:04Z</time>
      </trkpt>
      <trkpt lat="44.259" lon="5.72073">
        <ele>655</ele>
        <time>2019-05-24T13:37:05Z</time>
      </trkpt>
      <trkpt lat="44.25906" lon="5.7208">
        <ele>655</ele>
        <time>2019-05-24T13:37:06Z</time>
      </trkpt>
      <trkpt lat="44.25912" lon="5.72087">
        <ele>655</ele>
        <time>2019-05-24T13:37:07Z</time>
      </trkpt>
      <trkpt lat="44.25917" lon="5.72095">
        <ele>655</ele>
        <time>2019-05-24T13:37:08Z</time>
      </trkpt>
      <trkpt lat="44.25922" lon="5.72103">
        <ele>655</ele>
        <time>2019-05-24T13:37:09Z</time>
      </trkpt>
      <trkpt lat="44.25927" lon="5.72111">
        <ele>655</ele>
        <time>2019-05-24T13:37:10Z</time>
      </trkpt>
      <trkpt lat="44.25932" lon="5.72119">
        <ele>655</ele>
        <time>2019-05-24T13:37:11Z</time>
      </trkpt>
      <trkpt lat="44.25936" lon="5.72126">
        <ele>655</ele>
        <time>2019-05-24T13:37:12Z</time>
      </trkpt>
      <trkpt lat="44.25941" lon="5.72134">
        <ele>655</ele>
        <time>2019-05-24T13:37:13Z</time>
      </trkpt>
      <trkpt lat="44.25945" lon="5.72142">
        <ele>655</ele>
        <time>2019-05-24T13:37:14Z</time>
      </trkpt>
      <trkpt lat="44.2595" lon="5.72149">
        <ele>655</ele>
        <time>2019-05-24T13:37:15Z</time>
      </trkpt>
      <trkpt lat="44.25954" lon="5.72156">
        <ele>655</ele>
        <time>2019-05-24T13:37:16Z</time>
      </trkpt>
      <trkpt lat="44.25957" lon="5.72164">
        <ele>655</ele>
        <time>2019-05-24T13:37:17Z</time>
      </trkpt>
      <trkpt lat="44.2596" lon="5.72172">
        <ele>655</ele>
        <time>2019-05-24T13:37:18Z</time>
      </trkpt>
      <trkpt lat="44.25964" lon="5.7218">
        <ele>655</ele>
        <time>2019-05-24T13:37:19Z</time>
      </trkpt>
      <trkpt lat="44.25967" lon="5.72188">
        <ele>655</ele>
        <time>2019-05-24T13:37:20Z</time>
      </trkpt>
      <trkpt lat="44.2597" lon="5.72195">
        <ele>655</ele>
        <time>2019-05-24T13:37:21Z</time>
      </trkpt>
      <trkpt lat="44.25974" lon="5.72202">
        <ele>655</ele>
        <time>2019-05-24T13:37:22Z</time>
      </trkpt>
      <trkpt lat="44.25977" lon="5.7221">
        <ele>655</ele>
        <time>2019-05-24T13:37:23Z</time>
      </trkpt>
      <trkpt lat="44.25981" lon="5.72217">
        <ele>655</ele>
        <time>2019-05-24T13:37:24Z</time>
      </trkpt>
      <trkpt lat="44.25984" lon="5.72224">
        <ele>655</ele>
        <time>2019-05-24T13:37:25Z</time>
      </trkpt>
      <trkpt lat="44.25988" lon="5.72232">
        <ele>655</ele>
        <time>2019-05-24T13:37:26Z</time>
      </trkpt>
      <trkpt lat="44.25992" lon="5.7224">
        <ele>655</ele>
        <time>2019-05-24T13:37:27Z</time>
      </trkpt>
      <trkpt lat="44.25996" lon="5.72247">
        <ele>655</ele>
        <time>2019-05-24T13:37:28Z</time>
      </trkpt>
      <trkpt lat="44.25999" lon="5.72255">
        <ele>655</ele>
        <time>2019-05-24T13:37:29Z</time>
      </trkpt>
      <trkpt lat="44.26003" lon="5.72263">
        <ele>655</ele>
        <time>2019-05-24T13:37:30Z</time>
      </trkpt>
      <trkpt lat="44.26007" lon="5.72271">
        <ele>655</ele>
        <time>2019-05-24T13:37:31Z</time>
      </trkpt>
      <trkpt lat="44.26011" lon="5.7228">
        <ele>655</ele>
        <time>2019-05-24T13:37:32Z</time>
      </trkpt>
      <trkpt lat="44.26015" lon="5.72289">
        <ele>655</ele>
        <time>2019-05-24T13:37:33Z</time>
      </trkpt>
      <trkpt lat="44.2602" lon="5.72297">
        <ele>655</ele>
        <time>2019-05-24T13:37:34Z</time>
      </trkpt>
      <trkpt lat="44.26024" lon="5.72305">
        <ele>655</ele>
        <time>2019-05-24T13:37:35Z</time>
      </trkpt>
      <trkpt lat="44.26028" lon="5.72314">
        <ele>655</ele>
        <time>2019-05-24T13:37:36Z</time>
      </trkpt>
      <trkpt lat="44.26032" lon="5.72322">
        <ele>655</ele>
        <time>2019-05-24T13:37:37Z</time>
      </trkpt>
      <trkpt lat="44.26036" lon="5.72331">
        <ele>655</ele>
        <time>2019-05-24T13:37:38Z</time>
      </trkpt>
      <trkpt lat="44.26041" lon="5.72339">
        <ele>655</ele>
        <time>2019-05-24T13:37:39Z</time>
      </trkpt>
      <trkpt lat="44.26045" lon="5.72348">
        <ele>655</ele>
        <time>2019-05-24T13:37:40Z</time>
      </trkpt>
      <trkpt lat="44.26049" lon="5.72357">
        <ele>655</ele>
        <time>2019-05-24T13:37:41Z</time>
      </trkpt>
      <trkpt lat="44.26053" lon="5.72365">
        <ele>655</ele>
        <time>2019-05-24T13:37:42Z</time>
      </trkpt>
      <trkpt lat="44.26057" lon="5.72373">
        <ele>655</ele>
        <time>2019-05-24T13:37:43Z</time>
      </trkpt>
      <trkpt lat="44.26061" lon="5.7238">
        <ele>655</ele>
        <time>2019-05-24T13:37:44Z</time>
      </trkpt>
      <trkpt lat="44.26065" lon="5.72388">
        <ele>655</ele>
        <time>2019-05-24T13:37:45Z</time>
      </trkpt>
      <trkpt lat="44.26068" lon="5.72397">
        <ele>655</ele>
        <time>2019-05-24T13:37:46Z</time>
      </trkpt>
      <trkpt lat="44.26071" lon="5.72405">
        <ele>655</ele>
        <time>2019-05-24T13:37:47Z</time>
      </trkpt>
      <trkpt lat="44.26074" lon="5.72415">
        <ele>655</ele>
        <time>2019-05-24T13:37:48Z</time>
      </trkpt>
      <trkpt lat="44.26077" lon="5.72424">
        <ele>655</ele>
        <time>2019-05-24T13:37:49Z</time>
      </trkpt>
      <trkpt lat="44.2608" lon="5.72433">
        <ele>655</ele>
        <time>2019-05-24T13:37:50Z</time>
      </trkpt>
      <trkpt lat="44.26083" lon="5.72443">
        <ele>655</ele>
        <time>2019-05-24T13:37:51Z</time>
      </trkpt>
      <trkpt lat="44.26085" lon="5.72453">
        <ele>655</ele>
        <time>2019-05-24T13:37:52Z</time>
      </trkpt>
      <trkpt lat="44.26088" lon="5.72463">
        <ele>655</ele>
        <time>2019-05-24T13:37:53Z</time>
      </trkpt>
      <trkpt lat="44.26091" lon="5.72473">
        <ele>655</ele>
        <time>2019-05-24T13:37:54Z</time>
      </trkpt>
      <trkpt lat="44.26093" lon="5.72482">
        <ele>655</ele>
        <time>2019-05-24T13:37:55Z</time>
      </trkpt>
      <trkpt lat="44.26096" lon="5.72492">
        <ele>655</ele>
        <time>2019-05-24T13:37:56Z</time>
      </trkpt>
      <trkpt lat="44.26097" lon="5.72501">
        <ele>655</ele>
        <time>2019-05-24T13:37:57Z</time>
      </trkpt>
      <trkpt lat="44.261" lon="5.72511">
        <ele>655</ele>
        <time>2019-05-24T13:37:58Z</time>
      </trkpt>
      <trkpt lat="44.26103" lon="5.7252">
        <ele>655</ele>
        <time>2019-05-24T13:37:59Z</time>
      </trkpt>
      <trkpt lat="44.26104" lon="5.72529">
        <ele>655</ele>
        <time>2019-05-24T13:38:00Z</time>
      </trkpt>
      <trkpt lat="44.26105" lon="5.72538">
        <ele>655</ele>
        <time>2019-05-24T13:38:01Z</time>
      </trkpt>
      <trkpt lat="44.26107" lon="5.72546">
        <ele>655</ele>
        <time>2019-05-24T13:38:02Z</time>
      </trkpt>
      <trkpt lat="44.26109" lon="5.72554">
        <ele>655</ele>
        <time>2019-05-24T13:38:03Z</time>
      </trkpt>
      <trkpt lat="44.26111" lon="5.72563">
        <ele>655</ele>
        <time>2019-05-24T13:38:04Z</time>
      </trkpt>
      <trkpt lat="44.26113" lon="5.72571">
        <ele>655</ele>
        <time>2019-05-24T13:38:05Z</time>
      </trkpt>
      <trkpt lat="44.26115" lon="5.72579">
        <ele>655</ele>
        <time>2019-05-24T13:38:06Z</time>
      </trkpt>
      <trkpt lat="44.26117" lon="5.72587">
        <ele>655</ele>
        <time>2019-05-24T13:38:07Z</time>
      </trkpt>
      <trkpt lat="44.26118" lon="5.72595">
        <ele>655</ele>
        <time>2019-05-24T13:38:08Z</time>
      </trkpt>
      <trkpt lat="44.2612" lon="5.72604">
        <ele>655</ele>
        <time>2019-05-24T13:38:09Z</time>
      </trkpt>
      <trkpt lat="44.26122" lon="5.72612">
        <ele>655</ele>
        <time>2019-05-24T13:38:10Z</time>
      </trkpt>
      <trkpt lat="44.26124" lon="5.72619">
        <ele>655</ele>
        <time>2019-05-24T13:38:11Z</time>
      </trkpt>
      <trkpt lat="44.26126" lon="5.72628">
        <ele>656</ele>
        <time>2019-05-24T13:38:12Z</time>
      </trkpt>
      <trkpt lat="44.26128" lon="5.72636">
        <ele>656</ele>
        <time>2019-05-24T13:38:13Z</time>
      </trkpt>
      <trkpt lat="44.2613" lon="5.72645">
        <ele>656</ele>
        <time>2019-05-24T13:38:14Z</time>
      </trkpt>
      <trkpt lat="44.26132" lon="5.72653">
        <ele>656</ele>
        <time>2019-05-24T13:38:15Z</time>
      </trkpt>
      <trkpt lat="44.26135" lon="5.72663">
        <ele>656</ele>
        <time>2019-05-24T13:38:16Z</time>
      </trkpt>
      <trkpt lat="44.26137" lon="5.72672">
        <ele>656</ele>
        <time>2019-05-24T13:38:17Z</time>
      </trkpt>
      <trkpt lat="44.26139" lon="5.72681">
        <ele>656</ele>
        <time>2019-05-24T13:38:18Z</time>
      </trkpt>
      <trkpt lat="44.26142" lon="5.72691">
        <ele>656</ele>
        <time>2019-05-24T13:38:19Z</time>
      </trkpt>
      <trkpt lat="44.26144" lon="5.72701">
        <ele>656</ele>
        <time>2019-05-24T13:38:20Z</time>
      </trkpt>
      <trkpt lat="44.26147" lon="5.72712">
        <ele>656</ele>
        <time>2019-05-24T13:38:21Z</time>
      </trkpt>
      <trkpt lat="44.2615" lon="5.72722">
        <ele>656</ele>
        <time>2019-05-24T13:38:22Z</time>
      </trkpt>
      <trkpt lat="44.26152" lon="5.72733">
        <ele>656</ele>
        <time>2019-05-24T13:38:23Z</time>
      </trkpt>
      <trkpt lat="44.26154" lon="5.72744">
        <ele>656</ele>
        <time>2019-05-24T13:38:24Z</time>
      </trkpt>
      <trkpt lat="44.26156" lon="5.72755">
        <ele>656</ele>
        <time>2019-05-24T13:38:25Z</time>
      </trkpt>
      <trkpt lat="44.26159" lon="5.72767">
        <ele>656</ele>
        <time>2019-05-24T13:38:26Z</time>
      </trkpt>
      <trkpt lat="44.2616" lon="5.72779">
        <ele>656</ele>
        <time>2019-05-24T13:38:27Z</time>
      </trkpt>
      <trkpt lat="44.26161" lon="5.7279">
        <ele>656</ele>
        <time>2019-05-24T13:38:28Z</time>
      </trkpt>
      <trkpt lat="44.26162" lon="5.72803">
        <ele>656</ele>
        <time>2019-05-24T13:38:29Z</time>
      </trkpt>
      <trkpt lat="44.26162" lon="5.72815">
        <ele>656</ele>
        <time>2019-05-24T13:38:30Z</time>
      </trkpt>
      <trkpt lat="44.26162" lon="5.72828">
        <ele>656</ele>
        <time>2019-05-24T13:38:31Z</time>
      </trkpt>
      <trkpt lat="44.26162" lon="5.7284">
        <ele>656</ele>
        <time>2019-05-24T13:38:32Z</time>
      </trkpt>
      <trkpt lat="44.26162" lon="5.72852">
        <ele>656</ele>
        <time>2019-05-24T13:38:33Z</time>
      </trkpt>
      <trkpt lat="44.26162" lon="5.72864">
        <ele>656</ele>
        <time>2019-05-24T13:38:34Z</time>
      </trkpt>
      <trkpt lat="44.26161" lon="5.72877">
        <ele>656</ele>
        <time>2019-05-24T13:38:35Z</time>
      </trkpt>
      <trkpt lat="44.26161" lon="5.7289">
        <ele>656</ele>
        <time>2019-05-24T13:38:36Z</time>
      </trkpt>
      <trkpt lat="44.2616" lon="5.72903">
        <ele>656</ele>
        <time>2019-05-24T13:38:37Z</time>
      </trkpt>
      <trkpt lat="44.2616" lon="5.72916">
        <ele>656</ele>
        <time>2019-05-24T13:38:38Z</time>
      </trkpt>
      <trkpt lat="44.26159" lon="5.7293">
        <ele>656</ele>
        <time>2019-05-24T13:38:39Z</time>
      </trkpt>
      <trkpt lat="44.26158" lon="5.72943">
        <ele>656</ele>
        <time>2019-05-24T13:38:40Z</time>
      </trkpt>
      <trkpt lat="44.26157" lon="5.72956">
        <ele>656</ele>
        <time>2019-05-24T13:38:41Z</time>
      </trkpt>
      <trkpt lat="44.26157" lon="5.7297">
        <ele>656</ele>
        <time>2019-05-24T13:38:42Z</time>
      </trkpt>
      <trkpt lat="44.26156" lon="5.72983">
        <ele>656</ele>
        <time>2019-05-24T13:38:43Z</time>
      </trkpt>
      <trkpt lat="44.26156" lon="5.72997">
        <ele>656</ele>
        <time>2019-05-24T13:38:44Z</time>
      </trkpt>
      <trkpt lat="44.26156" lon="5.7301">
        <ele>655</ele>
        <time>2019-05-24T13:38:45Z</time>
      </trkpt>
      <trkpt lat="44.26156" lon="5.73023">
        <ele>655</ele>
        <time>2019-05-24T13:38:46Z</time>
      </trkpt>
      <trkpt lat="44.26156" lon="5.73037">
        <ele>654</ele>
        <time>2019-05-24T13:38:47Z</time>
      </trkpt>
      <trkpt lat="44.26156" lon="5.7305">
        <ele>653</ele>
        <time>2019-05-24T13:38:48Z</time>
      </trkpt>
      <trkpt lat="44.26156" lon="5.73062">
        <ele>652</ele>
        <time>2019-05-24T13:38:49Z</time>
      </trkpt>
      <trkpt lat="44.26156" lon="5.73073">
        <ele>651</ele>
        <time>2019-05-24T13:38:50Z</time>
      </trkpt>
      <trkpt lat="44.26157" lon="5.73083">
        <ele>650</ele>
        <time>2019-05-24T13:38:51Z</time>
      </trkpt>
      <trkpt lat="44.26158" lon="5.73093">
        <ele>649</ele>
        <time>2019-05-24T13:38:52Z</time>
      </trkpt>
      <trkpt lat="44.2616" lon="5.73102">
        <ele>648</ele>
        <time>2019-05-24T13:38:53Z</time>
      </trkpt>
      <trkpt lat="44.26161" lon="5.73112">
        <ele>647</ele>
        <time>2019-05-24T13:38:54Z</time>
      </trkpt>
      <trkpt lat="44.26164" lon="5.73121">
        <ele>646</ele>
        <time>2019-05-24T13:38:55Z</time>
      </trkpt>
      <trkpt lat="44.26167" lon="5.7313">
        <ele>645</ele>
        <time>2019-05-24T13:38:56Z</time>
      </trkpt>
      <trkpt lat="44.26169" lon="5.73139">
        <ele>645</ele>
        <time>2019-05-24T13:38:57Z</time>
      </trkpt>
      <trkpt lat="44.26171" lon="5.73148">
        <ele>645</ele>
        <time>2019-05-24T13:38:58Z</time>
      </trkpt>
      <trkpt lat="44.26172" lon="5.73158">
        <ele>645</ele>
        <time>2019-05-24T13:38:59Z</time>
      </trkpt>
      <trkpt lat="44.26175" lon="5.73167">
        <ele>645</ele>
        <time>2019-05-24T13:39:00Z</time>
      </trkpt>
      <trkpt lat="44.26177" lon="5.73176">
        <ele>645</ele>
        <time>2019-05-24T13:39:01Z</time>
      </trkpt>
      <trkpt lat="44.26179" lon="5.73185">
        <ele>645</ele>
        <time>2019-05-24T13:39:02Z</time>
      </trkpt>
      <trkpt lat="44.26183" lon="5.73193">
        <ele>645</ele>
        <time>2019-05-24T13:39:03Z</time>
      </trkpt>
      <trkpt lat="44.26186" lon="5.73201">
        <ele>645</ele>
        <time>2019-05-24T13:39:04Z</time>
      </trkpt>
      <trkpt lat="44.2619" lon="5.73209">
        <ele>645</ele>
        <time>2019-05-24T13:39:05Z</time>
      </trkpt>
      <trkpt lat="44.26193" lon="5.73217">
        <ele>645</ele>
        <time>2019-05-24T13:39:06Z</time>
      </trkpt>
      <trkpt lat="44.26196" lon="5.73225">
        <ele>645</ele>
        <time>2019-05-24T13:39:07Z</time>
      </trkpt>
      <trkpt lat="44.26197" lon="5.73234">
        <ele>645</ele>
        <time>2019-05-24T13:39:08Z</time>
      </trkpt>
      <trkpt lat="44.262" lon="5.73242">
        <ele>645</ele>
        <time>2019-05-24T13:39:09Z</time>
      </trkpt>
      <trkpt lat="44.26203" lon="5.73251">
        <ele>645</ele>
        <time>2019-05-24T13:39:10Z</time>
      </trkpt>
      <trkpt lat="44.26205" lon="5.73259">
        <ele>645</ele>
        <time>2019-05-24T13:39:11Z</time>
      </trkpt>
      <trkpt lat="44.26209" lon="5.73268">
        <ele>645</ele>
        <time>2019-05-24T13:39:12Z</time>
      </trkpt>
      <trkpt lat="44.26212" lon="5.73277">
        <ele>645</ele>
        <time>2019-05-24T13:39:13Z</time>
      </trkpt>
      <trkpt lat="44.26215" lon="5.73285">
        <ele>645</ele>
        <time>2019-05-24T13:39:14Z</time>
      </trkpt>
      <trkpt lat="44.26217" lon="5.73294">
        <ele>645</ele>
        <time>2019-05-24T13:39:15Z</time>
      </trkpt>
      <trkpt lat="44.26219" lon="5.73302">
        <ele>645</ele>
        <time>2019-05-24T13:39:16Z</time>
      </trkpt>
      <trkpt lat="44.26222" lon="5.73311">
        <ele>645</ele>
        <time>2019-05-24T13:39:17Z</time>
      </trkpt>
      <trkpt lat="44.26224" lon="5.7332">
        <ele>645</ele>
        <time>2019-05-24T13:39:18Z</time>
      </trkpt>
      <trkpt lat="44.26227" lon="5.73328">
        <ele>645</ele>
        <time>2019-05-24T13:39:19Z</time>
      </trkpt>
      <trkpt lat="44.2623" lon="5.73337">
        <ele>645</ele>
        <time>2019-05-24T13:39:20Z</time>
      </trkpt>
      <trkpt lat="44.26234" lon="5.73346">
        <ele>645</ele>
        <time>2019-05-24T13:39:21Z</time>
      </trkpt>
      <trkpt lat="44.26237" lon="5.73355">
        <ele>646</ele>
        <time>2019-05-24T13:39:22Z</time>
      </trkpt>
      <trkpt lat="44.26239" lon="5.73364">
        <ele>647</ele>
        <time>2019-05-24T13:39:23Z</time>
      </trkpt>
      <trkpt lat="44.26242" lon="5.73375">
        <ele>647</ele>
        <time>2019-05-24T13:39:24Z</time>
      </trkpt>
      <trkpt lat="44.26245" lon="5.73385">
        <ele>648</ele>
        <time>2019-05-24T13:39:25Z</time>
      </trkpt>
      <trkpt lat="44.26247" lon="5.73395">
        <ele>648</ele>
        <time>2019-05-24T13:39:26Z</time>
      </trkpt>
      <trkpt lat="44.26251" lon="5.73406">
        <ele>648</ele>
        <time>2019-05-24T13:39:27Z</time>
      </trkpt>
      <trkpt lat="44.26255" lon="5.73417">
        <ele>648</ele>
        <time>2019-05-24T13:39:28Z</time>
      </trkpt>
      <trkpt lat="44.26257" lon="5.73427">
        <ele>648</ele>
        <time>2019-05-24T13:39:29Z</time>
      </trkpt>
      <trkpt lat="44.26259" lon="5.73438">
        <ele>648</ele>
        <time>2019-05-24T13:39:30Z</time>
      </trkpt>
      <trkpt lat="44.26261" lon="5.73449">
        <ele>648</ele>
        <time>2019-05-24T13:39:31Z</time>
      </trkpt>
      <trkpt lat="44.26263" lon="5.73459">
        <ele>648</ele>
        <time>2019-05-24T13:39:32Z</time>
      </trkpt>
      <trkpt lat="44.26265" lon="5.73471">
        <ele>648</ele>
        <time>2019-05-24T13:39:33Z</time>
      </trkpt>
      <trkpt lat="44.26267" lon="5.73482">
        <ele>648</ele>
        <time>2019-05-24T13:39:34Z</time>
      </trkpt>
      <trkpt lat="44.2627" lon="5.73494">
        <ele>648</ele>
        <time>2019-05-24T13:39:35Z</time>
      </trkpt>
      <trkpt lat="44.26271" lon="5.73506">
        <ele>648</ele>
        <time>2019-05-24T13:39:36Z</time>
      </trkpt>
      <trkpt lat="44.26273" lon="5.73518">
        <ele>648</ele>
        <time>2019-05-24T13:39:37Z</time>
      </trkpt>
      <trkpt lat="44.26275" lon="5.73529">
        <ele>648</ele>
        <time>2019-05-24T13:39:38Z</time>
      </trkpt>
      <trkpt lat="44.26276" lon="5.7354">
        <ele>648</ele>
        <time>2019-05-24T13:39:39Z</time>
      </trkpt>
      <trkpt lat="44.26278" lon="5.73552">
        <ele>648</ele>
        <time>2019-05-24T13:39:40Z</time>
      </trkpt>
      <trkpt lat="44.26279" lon="5.73563">
        <ele>648</ele>
        <time>2019-05-24T13:39:41Z</time>
      </trkpt>
      <trkpt lat="44.26281" lon="5.73575">
        <ele>648</ele>
        <time>2019-05-24T13:39:42Z</time>
      </trkpt>
      <trkpt lat="44.26283" lon="5.73587">
        <ele>648</ele>
        <time>2019-05-24T13:39:43Z</time>
      </trkpt>
      <trkpt lat="44.26285" lon="5.73598">
        <ele>648</ele>
        <time>2019-05-24T13:39:44Z</time>
      </trkpt>
      <trkpt lat="44.26286" lon="5.73609">
        <ele>648</ele>
        <time>2019-05-24T13:39:45Z</time>
      </trkpt>
      <trkpt lat="44.26288" lon="5.73621">
        <ele>648</ele>
        <time>2019-05-24T13:39:46Z</time>
      </trkpt>
      <trkpt lat="44.26289" lon="5.73632">
        <ele>648</ele>
        <time>2019-05-24T13:39:47Z</time>
      </trkpt>
      <trkpt lat="44.26291" lon="5.73644">
        <ele>648</ele>
        <time>2019-05-24T13:39:48Z</time>
      </trkpt>
      <trkpt lat="44.26293" lon="5.73656">
        <ele>647</ele>
        <time>2019-05-24T13:39:49Z</time>
      </trkpt>
      <trkpt lat="44.26294" lon="5.73667">
        <ele>647</ele>
        <time>2019-05-24T13:39:50Z</time>
      </trkpt>
      <trkpt lat="44.26296" lon="5.73678">
        <ele>647</ele>
        <time>2019-05-24T13:39:51Z</time>
      </trkpt>
      <trkpt lat="44.26298" lon="5.7369">
        <ele>646</ele>
        <time>2019-05-24T13:39:52Z</time>
      </trkpt>
      <trkpt lat="44.26299" lon="5.737">
        <ele>646</ele>
        <time>2019-05-24T13:39:53Z</time>
      </trkpt>
      <trkpt lat="44.263" lon="5.73711">
        <ele>646</ele>
        <time>2019-05-24T13:39:54Z</time>
      </trkpt>
      <trkpt lat="44.26301" lon="5.73722">
        <ele>646</ele>
        <time>2019-05-24T13:39:55Z</time>
      </trkpt>
      <trkpt lat="44.26303" lon="5.73732">
        <ele>646</ele>
        <time>2019-05-24T13:39:56Z</time>
      </trkpt>
      <trkpt lat="44.26304" lon="5.73742">
        <ele>646</ele>
        <time>2019-05-24T13:39:57Z</time>
      </trkpt>
      <trkpt lat="44.26305" lon="5.73753">
        <ele>646</ele>
        <time>2019-05-24T13:39:58Z</time>
      </trkpt>
      <trkpt lat="44.26307" lon="5.73763">
        <ele>646</ele>
        <time>2019-05-24T13:39:59Z</time>
      </trkpt>
      <trkpt lat="44.26308" lon="5.73774">
        <ele>646</ele>
        <time>2019-05-24T13:40:00Z</time>
      </trkpt>
      <trkpt lat="44.2631" lon="5.73784">
        <ele>646</ele>
        <time>2019-05-24T13:40:01Z</time>
      </trkpt>
      <trkpt lat="44.26311" lon="5.73794">
        <ele>645</ele>
        <time>2019-05-24T13:40:02Z</time>
      </trkpt>
      <trkpt lat="44.26313" lon="5.73804">
        <ele>645</ele>
        <time>2019-05-24T13:40:03Z</time>
      </trkpt>
      <trkpt lat="44.26314" lon="5.73814">
        <ele>645</ele>
        <time>2019-05-24T13:40:04Z</time>
      </trkpt>
      <trkpt lat="44.26315" lon="5.73823">
        <ele>645</ele>
        <time>2019-05-24T13:40:05Z</time>
      </trkpt>
      <trkpt lat="44.26316" lon="5.73833">
        <ele>645</ele>
        <time>2019-05-24T13:40:06Z</time>
      </trkpt>
      <trkpt lat="44.26316" lon="5.73842">
        <ele>645</ele>
        <time>2019-05-24T13:40:07Z</time>
      </trkpt>
      <trkpt lat="44.26317" lon="5.73852">
        <ele>645</ele>
        <time>2019-05-24T13:40:08Z</time>
      </trkpt>
      <trkpt lat="44.26318" lon="5.73861">
        <ele>645</ele>
        <time>2019-05-24T13:40:09Z</time>
      </trkpt>
      <trkpt lat="44.26318" lon="5.73871">
        <ele>645</ele>
        <time>2019-05-24T13:40:10Z</time>
      </trkpt>
      <trkpt lat="44.26318" lon="5.7388">
        <ele>645</ele>
        <time>2019-05-24T13:40:11Z</time>
      </trkpt>
      <trkpt lat="44.26319" lon="5.73889">
        <ele>645</ele>
        <time>2019-05-24T13:40:12Z</time>
      </trkpt>
      <trkpt lat="44.26319" lon="5.73898">
        <ele>645</ele>
        <time>2019-05-24T13:40:13Z</time>
      </trkpt>
      <trkpt lat="44.2632" lon="5.73907">
        <ele>645</ele>
        <time>2019-05-24T13:40:14Z</time>
      </trkpt>
      <trkpt lat="44.2632" lon="5.73916">
        <ele>645</ele>
        <time>2019-05-24T13:40:15Z</time>
      </trkpt>
      <trkpt lat="44.26321" lon="5.73924">
        <ele>645</ele>
        <time>2019-05-24T13:40:16Z</time>
      </trkpt>
      <trkpt lat="44.26321" lon="5.73933">
        <ele>645</ele>
        <time>2019-05-24T13:40:17Z</time>
      </trkpt>
      <trkpt lat="44.26322" lon="5.73941">
        <ele>645</ele>
        <time>2019-05-24T13:40:18Z</time>
      </trkpt>
      <trkpt lat="44.26322" lon="5.73949">
        <ele>645</ele>
        <time>2019-05-24T13:40:19Z</time>
      </trkpt>
      <trkpt lat="44.26323" lon="5.73958">
        <ele>645</ele>
        <time>2019-05-24T13:40:20Z</time>
      </trkpt>
      <trkpt lat="44.26323" lon="5.73967">
        <ele>645</ele>
        <time>2019-05-24T13:40:21Z</time>
      </trkpt>
      <trkpt lat="44.26324" lon="5.73976">
        <ele>645</ele>
        <time>2019-05-24T13:40:22Z</time>
      </trkpt>
      <trkpt lat="44.26324" lon="5.73985">
        <ele>645</ele>
        <time>2019-05-24T13:40:23Z</time>
      </trkpt>
      <trkpt lat="44.26324" lon="5.73994">
        <ele>645</ele>
        <time>2019-05-24T13:40:24Z</time>
      </trkpt>
      <trkpt lat="44.26325" lon="5.74003">
        <ele>645</ele>
        <time>2019-05-24T13:40:25Z</time>
      </trkpt>
      <trkpt lat="44.26325" lon="5.74013">
        <ele>645</ele>
        <time>2019-05-24T13:40:26Z</time>
      </trkpt>
      <trkpt lat="44.26326" lon="5.74022">
        <ele>645</ele>
        <time>2019-05-24T13:40:27Z</time>
      </trkpt>
      <trkpt lat="44.26326" lon="5.74032">
        <ele>645</ele>
        <time>2019-05-24T13:40:28Z</time>
      </trkpt>
      <trkpt lat="44.26327" lon="5.74042">
        <ele>645</ele>
        <time>2019-05-24T13:40:29Z</time>
      </trkpt>
      <trkpt lat="44.26328" lon="5.74052">
        <ele>645</ele>
        <time>2019-05-24T13:40:30Z</time>
      </trkpt>
      <trkpt lat="44.26328" lon="5.74061">
        <ele>645</ele>
        <time>2019-05-24T13:40:31Z</time>
      </trkpt>
      <trkpt lat="44.26329" lon="5.74071">
        <ele>645</ele>
        <time>2019-05-24T13:40:32Z</time>
      </trkpt>
      <trkpt lat="44.26329" lon="5.74081">
        <ele>645</ele>
        <time>2019-05-24T13:40:33Z</time>
      </trkpt>
      <trkpt lat="44.2633" lon="5.74091">
        <ele>645</ele>
        <time>2019-05-24T13:40:34Z</time>
      </trkpt>
      <trkpt lat="44.2633" lon="5.74101">
        <ele>645</ele>
        <time>2019-05-24T13:40:35Z</time>
      </trkpt>
      <trkpt lat="44.2633" lon="5.74112">
        <ele>645</ele>
        <time>2019-05-24T13:40:36Z</time>
      </trkpt>
      <trkpt lat="44.26331" lon="5.74121">
        <ele>645</ele>
        <time>2019-05-24T13:40:37Z</time>
      </trkpt>
      <trkpt lat="44.26331" lon="5.74131">
        <ele>645</ele>
        <time>2019-05-24T13:40:38Z</time>
      </trkpt>
      <trkpt lat="44.26332" lon="5.74142">
        <ele>645</ele>
        <time>2019-05-24T13:40:39Z</time>
      </trkpt>
      <trkpt lat="44.26332" lon="5.74152">
        <ele>645</ele>
        <time>2019-05-24T13:40:40Z</time>
      </trkpt>
      <trkpt lat="44.26332" lon="5.74162">
        <ele>645</ele>
        <time>2019-05-24T13:40:41Z</time>
      </trkpt>
      <trkpt lat="44.26333" lon="5.74172">
        <ele>645</ele>
        <time>2019-05-24T13:40:42Z</time>
      </trkpt>
      <trkpt lat="44.26333" lon="5.74182">
        <ele>645</ele>
        <time>2019-05-24T13:40:43Z</time>
      </trkpt>
      <trkpt lat="44.26334" lon="5.74193">
        <ele>645</ele>
        <time>2019-05-24T13:40:44Z</time>
      </trkpt>
      <trkpt lat="44.26335" lon="5.74203">
        <ele>645</ele>
        <time>2019-05-24T13:40:45Z</time>
      </trkpt>
      <trkpt lat="44.26335" lon="5.74213">
        <ele>645</ele>
        <time>2019-05-24T13:40:46Z</time>
      </trkpt>
      <trkpt lat="44.26336" lon="5.74224">
        <ele>645</ele>
        <time>2019-05-24T13:40:47Z</time>
      </trkpt>
      <trkpt lat="44.26336" lon="5.74234">
        <ele>645</ele>
        <time>2019-05-24T13:40:48Z</time>
      </trkpt>
      <trkpt lat="44.26337" lon="5.74244">
        <ele>645</ele>
        <time>2019-05-24T13:40:49Z</time>
      </trkpt>
      <trkpt lat="44.26337" lon="5.74255">
        <ele>645</ele>
        <time>2019-05-24T13:40:50Z</time>
      </trkpt>
      <trkpt lat="44.26338" lon="5.74265">
        <ele>645</ele>
        <time>2019-05-24T13:40:51Z</time>
      </trkpt>
      <trkpt lat="44.26339" lon="5.74276">
        <ele>645</ele>
        <time>2019-05-24T13:40:52Z</time>
      </trkpt>
      <trkpt lat="44.2634" lon="5.74287">
        <ele>645</ele>
        <time>2019-05-24T13:40:53Z</time>
      </trkpt>
      <trkpt lat="44.2634" lon="5.74298">
        <ele>645</ele>
        <time>2019-05-24T13:40:54Z</time>
      </trkpt>
      <trkpt lat="44.26341" lon="5.74309">
        <ele>645</ele>
        <time>2019-05-24T13:40:55Z</time>
      </trkpt>
      <trkpt lat="44.26342" lon="5.7432">
        <ele>645</ele>
        <time>2019-05-24T13:40:56Z</time>
      </trkpt>
      <trkpt lat="44.26343" lon="5.74331">
        <ele>645</ele>
        <time>2019-05-24T13:40:57Z</time>
      </trkpt>
      <trkpt lat="44.26345" lon="5.74341">
        <ele>645</ele>
        <time>2019-05-24T13:40:58Z</time>
      </trkpt>
      <trkpt lat="44.26347" lon="5.74352">
        <ele>645</ele>
        <time>2019-05-24T13:40:59Z</time>
      </trkpt>
      <trkpt lat="44.26349" lon="5.74363">
        <ele>645</ele>
        <time>2019-05-24T13:41:00Z</time>
      </trkpt>
      <trkpt lat="44.26351" lon="5.74374">
        <ele>645</ele>
        <time>2019-05-24T13:41:01Z</time>
      </trkpt>
      <trkpt lat="44.26354" lon="5.74386">
        <ele>645</ele>
        <time>2019-05-24T13:41:02Z</time>
      </trkpt>
      <trkpt lat="44.26357" lon="5.74398">
        <ele>645</ele>
        <time>2019-05-24T13:41:03Z</time>
      </trkpt>
      <trkpt lat="44.26359" lon="5.74411">
        <ele>645</ele>
        <time>2019-05-24T13:41:04Z</time>
      </trkpt>
      <trkpt lat="44.2636" lon="5.74425">
        <ele>645</ele>
        <time>2019-05-24T13:41:05Z</time>
      </trkpt>
      <trkpt lat="44.26359" lon="5.74439">
        <ele>645</ele>
        <time>2019-05-24T13:41:06Z</time>
      </trkpt>
      <trkpt lat="44.26356" lon="5.74452">
        <ele>645</ele>
        <time>2019-05-24T13:41:07Z</time>
      </trkpt>
      <trkpt lat="44.2635" lon="5.74464">
        <ele>644</ele>
        <time>2019-05-24T13:41:08Z</time>
      </trkpt>
      <trkpt lat="44.26343" lon="5.74475">
        <ele>644</ele>
        <time>2019-05-24T13:41:09Z</time>
      </trkpt>
      <trkpt lat="44.26337" lon="5.74484">
        <ele>643</ele>
        <time>2019-05-24T13:41:10Z</time>
      </trkpt>
      <trkpt lat="44.2633" lon="5.74495">
        <ele>643</ele>
        <time>2019-05-24T13:41:11Z</time>
      </trkpt>
      <trkpt lat="44.26325" lon="5.74506">
        <ele>642</ele>
        <time>2019-05-24T13:41:12Z</time>
      </trkpt>
      <trkpt lat="44.2632" lon="5.74517">
        <ele>642</ele>
        <time>2019-05-24T13:41:13Z</time>
      </trkpt>
      <trkpt lat="44.26315" lon="5.74528">
        <ele>642</ele>
        <time>2019-05-24T13:41:14Z</time>
      </trkpt>
      <trkpt lat="44.2631" lon="5.74539">
        <ele>642</ele>
        <time>2019-05-24T13:41:15Z</time>
      </trkpt>
      <trkpt lat="44.26305" lon="5.74549">
        <ele>642</ele>
        <time>2019-05-24T13:41:16Z</time>
      </trkpt>
      <trkpt lat="44.26301" lon="5.7456">
        <ele>642</ele>
        <time>2019-05-24T13:41:17Z</time>
      </trkpt>
      <trkpt lat="44.26296" lon="5.7457">
        <ele>642</ele>
        <time>2019-05-24T13:41:18Z</time>
      </trkpt>
      <trkpt lat="44.26292" lon="5.7458">
        <ele>642</ele>
        <time>2019-05-24T13:41:19Z</time>
      </trkpt>
      <trkpt lat="44.26287" lon="5.7459">
        <ele>642</ele>
        <time>2019-05-24T13:41:20Z</time>
      </trkpt>
      <trkpt lat="44.26283" lon="5.74601">
        <ele>642</ele>
        <time>2019-05-24T13:41:21Z</time>
      </trkpt>
      <trkpt lat="44.2628" lon="5.74612">
        <ele>642</ele>
        <time>2019-05-24T13:41:22Z</time>
      </trkpt>
      <trkpt lat="44.26279" lon="5.74624">
        <ele>642</ele>
        <time>2019-05-24T13:41:23Z</time>
      </trkpt>
      <trkpt lat="44.26278" lon="5.74636">
        <ele>642</ele>
        <time>2019-05-24T13:41:24Z</time>
      </trkpt>
      <trkpt lat="44.2628" lon="5.74648">
        <ele>642</ele>
        <time>2019-05-24T13:41:25Z</time>
      </trkpt>
      <trkpt lat="44.26284" lon="5.7466">
        <ele>642</ele>
        <time>2019-05-24T13:41:26Z</time>
      </trkpt>
      <trkpt lat="44.26289" lon="5.74672">
        <ele>641</ele>
        <time>2019-05-24T13:41:27Z</time>
      </trkpt>
      <trkpt lat="44.26294" lon="5.74684">
        <ele>641</ele>
        <time>2019-05-24T13:41:28Z</time>
      </trkpt>
      <trkpt lat="44.26298" lon="5.74695">
        <ele>641</ele>
        <time>2019-05-24T13:41:29Z</time>
      </trkpt>
      <trkpt lat="44.26303" lon="5.74708">
        <ele>641</ele>
        <time>2019-05-24T13:41:30Z</time>
      </trkpt>
      <trkpt lat="44.26308" lon="5.7472">
        <ele>640</ele>
        <time>2019-05-24T13:41:31Z</time>
      </trkpt>
      <trkpt lat="44.26314" lon="5.74733">
        <ele>640</ele>
        <time>2019-05-24T13:41:32Z</time>
      </trkpt>
      <trkpt lat="44.26319" lon="5.74746">
        <ele>639</ele>
        <time>2019-05-24T13:41:33Z</time>
      </trkpt>
      <trkpt lat="44.26324" lon="5.74759">
        <ele>639</ele>
        <time>2019-05-24T13:41:34Z</time>
      </trkpt>
      <trkpt lat="44.2633" lon="5.74772">
        <ele>639</ele>
        <time>2019-05-24T13:41:35Z</time>
      </trkpt>
      <trkpt lat="44.26336" lon="5.74784">
        <ele>638</ele>
        <time>2019-05-24T13:41:36Z</time>
      </trkpt>
      <trkpt lat="44.26343" lon="5.74795">
        <ele>638</ele>
        <time>2019-05-24T13:41:37Z</time>
      </trkpt>
      <trkpt lat="44.2635" lon="5.74807">
        <ele>637</ele>
        <time>2019-05-24T13:41:38Z</time>
      </trkpt>
      <trkpt lat="44.26356" lon="5.74818">
        <ele>637</ele>
        <time>2019-05-24T13:41:39Z</time>
      </trkpt>
      <trkpt lat="44.26363" lon="5.74829">
        <ele>637</ele>
        <time>2019-05-24T13:41:40Z</time>
      </trkpt>
      <trkpt lat="44.26369" lon="5.74842">
        <ele>636</ele>
        <time>2019-05-24T13:41:41Z</time>
      </trkpt>
      <trkpt lat="44.26376" lon="5.74854">
        <ele>636</ele>
        <time>2019-05-24T13:41:42Z</time>
      </trkpt>
      <trkpt lat="44.26381" lon="5.74868">
        <ele>635</ele>
        <time>2019-05-24T13:41:43Z</time>
      </trkpt>
      <trkpt lat="44.26385" lon="5.74883">
        <ele>635</ele>
        <time>2019-05-24T13:41:44Z</time>
      </trkpt>
      <trkpt lat="44.26389" lon="5.74897">
        <ele>634</ele>
        <time>2019-05-24T13:41:45Z</time>
      </trkpt>
      <trkpt lat="44.26392" lon="5.74912">
        <ele>634</ele>
        <time>2019-05-24T13:41:46Z</time>
      </trkpt>
      <trkpt lat="44.26396" lon="5.74927">
        <ele>633</ele>
        <time>2019-05-24T13:41:47Z</time>
      </trkpt>
      <trkpt lat="44.264" lon="5.74941">
        <ele>633</ele>
        <time>2019-05-24T13:41:48Z</time>
      </trkpt>
      <trkpt lat="44.26404" lon="5.74955">
        <ele>632</ele>
        <time>2019-05-24T13:41:49Z</time>
      </trkpt>
      <trkpt lat="44.26411" lon="5.74968">
        <ele>631</ele>
        <time>2019-05-24T13:41:50Z</time>
      </trkpt>
      <trkpt lat="44.26418" lon="5.74981">
        <ele>631</ele>
        <time>2019-05-24T13:41:51Z</time>
      </trkpt>
      <trkpt lat="44.26424" lon="5.74993">
        <ele>631</ele>
        <time>2019-05-24T13:41:52Z</time>
      </trkpt>
      <trkpt lat="44.26432" lon="5.75006">
        <ele>631</ele>
        <time>2019-05-24T13:41:53Z</time>
      </trkpt>
      <trkpt lat="44.26439" lon="5.75018">
        <ele>631</ele>
        <time>2019-05-24T13:41:54Z</time>
      </trkpt>
      <trkpt lat="44.26446" lon="5.7503">
        <ele>631</ele>
        <time>2019-05-24T13:41:55Z</time>
      </trkpt>
      <trkpt lat="44.26452" lon="5.75041">
        <ele>630</ele>
        <time>2019-05-24T13:41:56Z</time>
      </trkpt>
      <trkpt lat="44.26458" lon="5.75053">
        <ele>630</ele>
        <time>2019-05-24T13:41:57Z</time>
      </trkpt>
      <trkpt lat="44.26465" lon="5.75064">
        <ele>630</ele>
        <time>2019-05-24T13:41:58Z</time>
      </trkpt>
      <trkpt lat="44.26471" lon="5.75074">
        <ele>630</ele>
        <time>2019-05-24T13:41:59Z</time>
      </trkpt>
      <trkpt lat="44.26478" lon="5.75085">
        <ele>630</ele>
        <time>2019-05-24T13:42:00Z</time>
      </trkpt>
      <trkpt lat="44.26485" lon="5.75097">
        <ele>630</ele>
        <time>2019-05-24T13:42:01Z</time>
      </trkpt>
      <trkpt lat="44.26491" lon="5.75107">
        <ele>630</ele>
        <time>2019-05-24T13:42:02Z</time>
      </trkpt>
      <trkpt lat="44.26498" lon="5.75117">
        <ele>630</ele>
        <time>2019-05-24T13:42:03Z</time>
      </trkpt>
      <trkpt lat="44.26505" lon="5.75127">
        <ele>630</ele>
        <time>2019-05-24T13:42:04Z</time>
      </trkpt>
      <trkpt lat="44.26511" lon="5.75137">
        <ele>630</ele>
        <time>2019-05-24T13:42:05Z</time>
      </trkpt>
      <trkpt lat="44.26518" lon="5.75146">
        <ele>630</ele>
        <time>2019-05-24T13:42:06Z</time>
      </trkpt>
      <trkpt lat="44.26524" lon="5.75156">
        <ele>629</ele>
        <time>2019-05-24T13:42:07Z</time>
      </trkpt>
      <trkpt lat="44.2653" lon="5.75166">
        <ele>629</ele>
        <time>2019-05-24T13:42:08Z</time>
      </trkpt>
      <trkpt lat="44.26536" lon="5.75176">
        <ele>629</ele>
        <time>2019-05-24T13:42:09Z</time>
      </trkpt>
      <trkpt lat="44.26542" lon="5.75186">
        <ele>629</ele>
        <time>2019-05-24T13:42:10Z</time>
      </trkpt>
      <trkpt lat="44.26548" lon="5.75197">
        <ele>629</ele>
        <time>2019-05-24T13:42:11Z</time>
      </trkpt>
      <trkpt lat="44.26554" lon="5.75207">
        <ele>629</ele>
        <time>2019-05-24T13:42:12Z</time>
      </trkpt>
      <trkpt lat="44.26559" lon="5.75217">
        <ele>629</ele>
        <time>2019-05-24T13:42:13Z</time>
      </trkpt>
      <trkpt lat="44.26565" lon="5.75227">
        <ele>629</ele>
        <time>2019-05-24T13:42:14Z</time>
      </trkpt>
      <trkpt lat="44.2657" lon="5.75238">
        <ele>629</ele>
        <time>2019-05-24T13:42:15Z</time>
      </trkpt>
      <trkpt lat="44.26575" lon="5.7525">
        <ele>629</ele>
        <time>2019-05-24T13:42:16Z</time>
      </trkpt>
      <trkpt lat="44.2658" lon="5.75263">
        <ele>629</ele>
        <time>2019-05-24T13:42:17Z</time>
      </trkpt>
      <trkpt lat="44.26584" lon="5.75275">
        <ele>629</ele>
        <time>2019-05-24T13:42:18Z</time>
      </trkpt>
      <trkpt lat="44.26588" lon="5.75288">
        <ele>629</ele>
        <time>2019-05-24T13:42:19Z</time>
      </trkpt>
      <trkpt lat="44.26593" lon="5.753">
        <ele>629</ele>
        <time>2019-05-24T13:42:20Z</time>
      </trkpt>
      <trkpt lat="44.26597" lon="5.75312">
        <ele>629</ele>
        <time>2019-05-24T13:42:21Z</time>
      </trkpt>
      <trkpt lat="44.26602" lon="5.75324">
        <ele>629</ele>
        <time>2019-05-24T13:42:22Z</time>
      </trkpt>
      <trkpt lat="44.26606" lon="5.75335">
        <ele>629</ele>
        <time>2019-05-24T13:42:23Z</time>
      </trkpt>
      <trkpt lat="44.26611" lon="5.75347">
        <ele>629</ele>
        <time>2019-05-24T13:42:24Z</time>
      </trkpt>
      <trkpt lat="44.26617" lon="5.75359">
        <ele>629</ele>
        <time>2019-05-24T13:42:25Z</time>
      </trkpt>
      <trkpt lat="44.26623" lon="5.75371">
        <ele>629</ele>
        <time>2019-05-24T13:42:26Z</time>
      </trkpt>
      <trkpt lat="44.26628" lon="5.75381">
        <ele>629</ele>
        <time>2019-05-24T13:42:27Z</time>
      </trkpt>
      <trkpt lat="44.26634" lon="5.75391">
        <ele>629</ele>
        <time>2019-05-24T13:42:28Z</time>
      </trkpt>
      <trkpt lat="44.26641" lon="5.75402">
        <ele>629</ele>
        <time>2019-05-24T13:42:29Z</time>
      </trkpt>
      <trkpt lat="44.26646" lon="5.75413">
        <ele>629</ele>
        <time>2019-05-24T13:42:30Z</time>
      </trkpt>
      <trkpt lat="44.26651" lon="5.75424">
        <ele>629</ele>
        <time>2019-05-24T13:42:31Z</time>
      </trkpt>
      <trkpt lat="44.26656" lon="5.75437">
        <ele>629</ele>
        <time>2019-05-24T13:42:32Z</time>
      </trkpt>
      <trkpt lat="44.26659" lon="5.7545">
        <ele>629</ele>
        <time>2019-05-24T13:42:33Z</time>
      </trkpt>
      <trkpt lat="44.26662" lon="5.75462">
        <ele>629</ele>
        <time>2019-05-24T13:42:34Z</time>
      </trkpt>
      <trkpt lat="44.26665" lon="5.75475">
        <ele>629</ele>
        <time>2019-05-24T13:42:35Z</time>
      </trkpt>
      <trkpt lat="44.26668" lon="5.75488">
        <ele>629</ele>
        <time>2019-05-24T13:42:36Z</time>
      </trkpt>
      <trkpt lat="44.2667" lon="5.755">
        <ele>629</ele>
        <time>2019-05-24T13:42:37Z</time>
      </trkpt>
      <trkpt lat="44.26672" lon="5.75513">
        <ele>629</ele>
        <time>2019-05-24T13:42:38Z</time>
      </trkpt>
      <trkpt lat="44.26673" lon="5.75526">
        <ele>629</ele>
        <time>2019-05-24T13:42:39Z</time>
      </trkpt>
      <trkpt lat="44.26675" lon="5.75537">
        <ele>629</ele>
        <time>2019-05-24T13:42:40Z</time>
      </trkpt>
      <trkpt lat="44.26677" lon="5.75549">
        <ele>629</ele>
        <time>2019-05-24T13:42:41Z</time>
      </trkpt>
      <trkpt lat="44.26678" lon="5.75561">
        <ele>629</ele>
        <time>2019-05-24T13:42:42Z</time>
      </trkpt>
      <trkpt lat="44.2668" lon="5.75572">
        <ele>629</ele>
        <time>2019-05-24T13:42:43Z</time>
      </trkpt>
      <trkpt lat="44.26681" lon="5.75583">
        <ele>629</ele>
        <time>2019-05-24T13:42:44Z</time>
      </trkpt>
      <trkpt lat="44.26683" lon="5.75594">
        <ele>629</ele>
        <time>2019-05-24T13:42:45Z</time>
      </trkpt>
      <trkpt lat="44.26685" lon="5.75604">
        <ele>629</ele>
        <time>2019-05-24T13:42:46Z</time>
      </trkpt>
      <trkpt lat="44.26686" lon="5.75613">
        <ele>629</ele>
        <time>2019-05-24T13:42:47Z</time>
      </trkpt>
      <trkpt lat="44.2669" lon="5.75622">
        <ele>629</ele>
        <time>2019-05-24T13:42:48Z</time>
      </trkpt>
      <trkpt lat="44.26693" lon="5.75629">
        <ele>629</ele>
        <time>2019-05-24T13:42:49Z</time>
      </trkpt>
      <trkpt lat="44.26698" lon="5.75635">
        <ele>629</ele>
        <time>2019-05-24T13:42:50Z</time>
      </trkpt>
      <trkpt lat="44.26704" lon="5.7564">
        <ele>629</ele>
        <time>2019-05-24T13:42:51Z</time>
      </trkpt>
      <trkpt lat="44.26709" lon="5.75645">
        <ele>629</ele>
        <time>2019-05-24T13:42:52Z</time>
      </trkpt>
      <trkpt lat="44.26714" lon="5.75651">
        <ele>629</ele>
        <time>2019-05-24T13:42:53Z</time>
      </trkpt>
      <trkpt lat="44.26719" lon="5.75657">
        <ele>629</ele>
        <time>2019-05-24T13:42:54Z</time>
      </trkpt>
      <trkpt lat="44.26722" lon="5.75664">
        <ele>629</ele>
        <time>2019-05-24T13:42:55Z</time>
      </trkpt>
      <trkpt lat="44.26723" lon="5.75671">
        <ele>629</ele>
        <time>2019-05-24T13:42:56Z</time>
      </trkpt>
      <trkpt lat="44.2672" lon="5.7568">
        <ele>629</ele>
        <time>2019-05-24T13:42:57Z</time>
      </trkpt>
      <trkpt lat="44.26714" lon="5.75689">
        <ele>629</ele>
        <time>2019-05-24T13:42:58Z</time>
      </trkpt>
      <trkpt lat="44.26708" lon="5.75696">
        <ele>629</ele>
        <time>2019-05-24T13:42:59Z</time>
      </trkpt>
      <trkpt lat="44.26702" lon="5.75704">
        <ele>629</ele>
        <time>2019-05-24T13:43:00Z</time>
      </trkpt>
      <trkpt lat="44.26698" lon="5.75712">
        <ele>629</ele>
        <time>2019-05-24T13:43:01Z</time>
      </trkpt>
      <trkpt lat="44.26693" lon="5.75721">
        <ele>629</ele>
        <time>2019-05-24T13:43:02Z</time>
      </trkpt>
      <trkpt lat="44.2669" lon="5.75731">
        <ele>629</ele>
        <time>2019-05-24T13:43:03Z</time>
      </trkpt>
      <trkpt lat="44.26689" lon="5.75742">
        <ele>628</ele>
        <time>2019-05-24T13:43:04Z</time>
      </trkpt>
      <trkpt lat="44.26688" lon="5.75753">
        <ele>628</ele>
        <time>2019-05-24T13:43:05Z</time>
      </trkpt>
      <trkpt lat="44.26688" lon="5.75765">
        <ele>628</ele>
        <time>2019-05-24T13:43:06Z</time>
      </trkpt>
      <trkpt lat="44.26688" lon="5.75777">
        <ele>627</ele>
        <time>2019-05-24T13:43:07Z</time>
      </trkpt>
      <trkpt lat="44.26688" lon="5.75789">
        <ele>627</ele>
        <time>2019-05-24T13:43:08Z</time>
      </trkpt>
      <trkpt lat="44.26689" lon="5.75801">
        <ele>627</ele>
        <time>2019-05-24T13:43:09Z</time>
      </trkpt>
      <trkpt lat="44.2669" lon="5.75812">
        <ele>627</ele>
        <time>2019-05-24T13:43:10Z</time>
      </trkpt>
      <trkpt lat="44.26692" lon="5.75824">
        <ele>627</ele>
        <time>2019-05-24T13:43:11Z</time>
      </trkpt>
      <trkpt lat="44.26694" lon="5.75835">
        <ele>627</ele>
        <time>2019-05-24T13:43:12Z</time>
      </trkpt>
      <trkpt lat="44.26696" lon="5.75846">
        <ele>627</ele>
        <time>2019-05-24T13:43:13Z</time>
      </trkpt>
      <trkpt lat="44.26699" lon="5.75857">
        <ele>627</ele>
        <time>2019-05-24T13:43:14Z</time>
      </trkpt>
      <trkpt lat="44.26702" lon="5.75868">
        <ele>627</ele>
        <time>2019-05-24T13:43:15Z</time>
      </trkpt>
      <trkpt lat="44.26705" lon="5.75879">
        <ele>627</ele>
        <time>2019-05-24T13:43:16Z</time>
      </trkpt>
      <trkpt lat="44.26708" lon="5.7589">
        <ele>627</ele>
        <time>2019-05-24T13:43:17Z</time>
      </trkpt>
      <trkpt lat="44.26711" lon="5.75901">
        <ele>626</ele>
        <time>2019-05-24T13:43:18Z</time>
      </trkpt>
      <trkpt lat="44.26714" lon="5.75911">
        <ele>626</ele>
        <time>2019-05-24T13:43:19Z</time>
      </trkpt>
      <trkpt lat="44.26718" lon="5.75921">
        <ele>626</ele>
        <time>2019-05-24T13:43:20Z</time>
      </trkpt>
      <trkpt lat="44.26722" lon="5.7593">
        <ele>626</ele>
        <time>2019-05-24T13:43:21Z</time>
      </trkpt>
      <trkpt lat="44.26727" lon="5.75939">
        <ele>625</ele>
        <time>2019-05-24T13:43:22Z</time>
      </trkpt>
      <trkpt lat="44.26731" lon="5.75948">
        <ele>625</ele>
        <time>2019-05-24T13:43:23Z</time>
      </trkpt>
      <trkpt lat="44.26736" lon="5.75957">
        <ele>625</ele>
        <time>2019-05-24T13:43:24Z</time>
      </trkpt>
      <trkpt lat="44.26741" lon="5.75966">
        <ele>625</ele>
        <time>2019-05-24T13:43:25Z</time>
      </trkpt>
      <trkpt lat="44.26746" lon="5.75974">
        <ele>625</ele>
        <time>2019-05-24T13:43:26Z</time>
      </trkpt>
      <trkpt lat="44.26751" lon="5.75982">
        <ele>625</ele>
        <time>2019-05-24T13:43:27Z</time>
      </trkpt>
      <trkpt lat="44.26756" lon="5.7599">
        <ele>625</ele>
        <time>2019-05-24T13:43:28Z</time>
      </trkpt>
      <trkpt lat="44.26761" lon="5.75997">
        <ele>625</ele>
        <time>2019-05-24T13:43:29Z</time>
      </trkpt>
      <trkpt lat="44.26766" lon="5.76003">
        <ele>625</ele>
        <time>2019-05-24T13:43:30Z</time>
      </trkpt>
      <trkpt lat="44.26772" lon="5.7601">
        <ele>625</ele>
        <time>2019-05-24T13:43:31Z</time>
      </trkpt>
      <trkpt lat="44.26777" lon="5.76016">
        <ele>625</ele>
        <time>2019-05-24T13:43:32Z</time>
      </trkpt>
      <trkpt lat="44.26782" lon="5.76022">
        <ele>625</ele>
        <time>2019-05-24T13:43:33Z</time>
      </trkpt>
      <trkpt lat="44.26787" lon="5.76027">
        <ele>625</ele>
        <time>2019-05-24T13:43:34Z</time>
      </trkpt>
      <trkpt lat="44.26793" lon="5.76033">
        <ele>625</ele>
        <time>2019-05-24T13:43:35Z</time>
      </trkpt>
      <trkpt lat="44.26798" lon="5.76039">
        <ele>625</ele>
        <time>2019-05-24T13:43:36Z</time>
      </trkpt>
      <trkpt lat="44.26804" lon="5.76045">
        <ele>625</ele>
        <time>2019-05-24T13:43:37Z</time>
      </trkpt>
      <trkpt lat="44.26809" lon="5.76052">
        <ele>625</ele>
        <time>2019-05-24T13:43:38Z</time>
      </trkpt>
      <trkpt lat="44.26814" lon="5.76058">
        <ele>625</ele>
        <time>2019-05-24T13:43:39Z</time>
      </trkpt>
      <trkpt lat="44.26819" lon="5.76064">
        <ele>625</ele>
        <time>2019-05-24T13:43:40Z</time>
      </trkpt>
      <trkpt lat="44.26824" lon="5.76071">
        <ele>625</ele>
        <time>2019-05-24T13:43:41Z</time>
      </trkpt>
      <trkpt lat="44.26829" lon="5.76078">
        <ele>625</ele>
        <time>2019-05-24T13:43:42Z</time>
      </trkpt>
      <trkpt lat="44.26834" lon="5.76086">
        <ele>625</ele>
        <time>2019-05-24T13:43:43Z</time>
      </trkpt>
      <trkpt lat="44.26839" lon="5.76093">
        <ele>625</ele>
        <time>2019-05-24T13:43:44Z</time>
      </trkpt>
      <trkpt lat="44.26844" lon="5.76101">
        <ele>625</ele>
        <time>2019-05-24T13:43:45Z</time>
      </trkpt>
      <trkpt lat="44.26848" lon="5.76109">
        <ele>625</ele>
        <time>2019-05-24T13:43:46Z</time>
      </trkpt>
      <trkpt lat="44.26852" lon="5.76118">
        <ele>625</ele>
        <time>2019-05-24T13:43:47Z</time>
      </trkpt>
      <trkpt lat="44.26855" lon="5.76126">
        <ele>625</ele>
        <time>2019-05-24T13:43:48Z</time>
      </trkpt>
      <trkpt lat="44.26858" lon="5.76135">
        <ele>625</ele>
        <time>2019-05-24T13:43:49Z</time>
      </trkpt>
      <trkpt lat="44.2686" lon="5.76144">
        <ele>625</ele>
        <time>2019-05-24T13:43:50Z</time>
      </trkpt>
      <trkpt lat="44.26862" lon="5.76153">
        <ele>625</ele>
        <time>2019-05-24T13:43:51Z</time>
      </trkpt>
      <trkpt lat="44.26864" lon="5.76162">
        <ele>625</ele>
        <time>2019-05-24T13:43:52Z</time>
      </trkpt>
      <trkpt lat="44.26865" lon="5.76172">
        <ele>625</ele>
        <time>2019-05-24T13:43:53Z</time>
      </trkpt>
      <trkpt lat="44.26866" lon="5.76182">
        <ele>625</ele>
        <time>2019-05-24T13:43:54Z</time>
      </trkpt>
      <trkpt lat="44.26866" lon="5.76192">
        <ele>625</ele>
        <time>2019-05-24T13:43:55Z</time>
      </trkpt>
      <trkpt lat="44.26866" lon="5.76201">
        <ele>625</ele>
        <time>2019-05-24T13:43:56Z</time>
      </trkpt>
      <trkpt lat="44.26865" lon="5.76211">
        <ele>625</ele>
        <time>2019-05-24T13:43:57Z</time>
      </trkpt>
      <trkpt lat="44.26863" lon="5.76221">
        <ele>625</ele>
        <time>2019-05-24T13:43:58Z</time>
      </trkpt>
      <trkpt lat="44.26861" lon="5.7623">
        <ele>625</ele>
        <time>2019-05-24T13:43:59Z</time>
      </trkpt>
      <trkpt lat="44.26858" lon="5.76239">
        <ele>625</ele>
        <time>2019-05-24T13:44:00Z</time>
      </trkpt>
      <trkpt lat="44.26855" lon="5.76247">
        <ele>625</ele>
        <time>2019-05-24T13:44:01Z</time>
      </trkpt>
      <trkpt lat="44.2685" lon="5.76254">
        <ele>625</ele>
        <time>2019-05-24T13:44:02Z</time>
      </trkpt>
      <trkpt lat="44.26845" lon="5.7626">
        <ele>625</ele>
        <time>2019-05-24T13:44:03Z</time>
      </trkpt>
      <trkpt lat="44.26839" lon="5.76266">
        <ele>625</ele>
        <time>2019-05-24T13:44:04Z</time>
      </trkpt>
      <trkpt lat="44.26833" lon="5.76271">
        <ele>625</ele>
        <time>2019-05-24T13:44:05Z</time>
      </trkpt>
      <trkpt lat="44.26827" lon="5.76277">
        <ele>625</ele>
        <time>2019-05-24T13:44:06Z</time>
      </trkpt>
      <trkpt lat="44.26821" lon="5.76282">
        <ele>625</ele>
        <time>2019-05-24T13:44:07Z</time>
      </trkpt>
      <trkpt lat="44.26814" lon="5.76286">
        <ele>625</ele>
        <time>2019-05-24T13:44:08Z</time>
      </trkpt>
      <trkpt lat="44.26807" lon="5.76288">
        <ele>625</ele>
        <time>2019-05-24T13:44:09Z</time>
      </trkpt>
      <trkpt lat="44.26801" lon="5.7629">
        <ele>625</ele>
        <time>2019-05-24T13:44:10Z</time>
      </trkpt>
      <trkpt lat="44.26794" lon="5.76292">
        <ele>625</ele>
        <time>2019-05-24T13:44:11Z</time>
      </trkpt>
      <trkpt lat="44.26788" lon="5.76294">
        <ele>625</ele>
        <time>2019-05-24T13:44:12Z</time>
      </trkpt>
      <trkpt lat="44.2678" lon="5.76296">
        <ele>625</ele>
        <time>2019-05-24T13:44:13Z</time>
      </trkpt>
      <trkpt lat="44.26774" lon="5.76298">
        <ele>625</ele>
        <time>2019-05-24T13:44:14Z</time>
      </trkpt>
      <trkpt lat="44.26767" lon="5.76299">
        <ele>625</ele>
        <time>2019-05-24T13:44:15Z</time>
      </trkpt>
      <trkpt lat="44.26761" lon="5.76301">
        <ele>625</ele>
        <time>2019-05-24T13:44:16Z</time>
      </trkpt>
      <trkpt lat="44.26754" lon="5.76303">
        <ele>625</ele>
        <time>2019-05-24T13:44:17Z</time>
      </trkpt>
      <trkpt lat="44.26748" lon="5.76306">
        <ele>625</ele>
        <time>2019-05-24T13:44:18Z</time>
      </trkpt>
      <trkpt lat="44.26741" lon="5.76309">
        <ele>625</ele>
        <time>2019-05-24T13:44:19Z</time>
      </trkpt>
      <trkpt lat="44.26735" lon="5.76312">
        <ele>625</ele>
        <time>2019-05-24T13:44:20Z</time>
      </trkpt>
      <trkpt lat="44.26729" lon="5.76315">
        <ele>625</ele>
        <time>2019-05-24T13:44:21Z</time>
      </trkpt>
      <trkpt lat="44.26722" lon="5.76318">
        <ele>625</ele>
        <time>2019-05-24T13:44:22Z</time>
      </trkpt>
      <trkpt lat="44.26715" lon="5.76322">
        <ele>625</ele>
        <time>2019-05-24T13:44:23Z</time>
      </trkpt>
      <trkpt lat="44.26709" lon="5.76325">
        <ele>625</ele>
        <time>2019-05-24T13:44:24Z</time>
      </trkpt>
      <trkpt lat="44.26702" lon="5.76329">
        <ele>625</ele>
        <time>2019-05-24T13:44:25Z</time>
      </trkpt>
      <trkpt lat="44.26696" lon="5.76333">
        <ele>625</ele>
        <time>2019-05-24T13:44:26Z</time>
      </trkpt>
      <trkpt lat="44.26689" lon="5.76336">
        <ele>625</ele>
        <time>2019-05-24T13:44:27Z</time>
      </trkpt>
      <trkpt lat="44.26683" lon="5.7634">
        <ele>625</ele>
        <time>2019-05-24T13:44:28Z</time>
      </trkpt>
      <trkpt lat="44.26676" lon="5.76343">
        <ele>625</ele>
        <time>2019-05-24T13:44:29Z</time>
      </trkpt>
      <trkpt lat="44.26669" lon="5.76347">
        <ele>625</ele>
        <time>2019-05-24T13:44:30Z</time>
      </trkpt>
      <trkpt lat="44.26662" lon="5.7635">
        <ele>625</ele>
        <time>2019-05-24T13:44:31Z</time>
      </trkpt>
      <trkpt lat="44.26656" lon="5.76352">
        <ele>625</ele>
        <time>2019-05-24T13:44:32Z</time>
      </trkpt>
      <trkpt lat="44.26649" lon="5.76354">
        <ele>625</ele>
        <time>2019-05-24T13:44:33Z</time>
      </trkpt>
      <trkpt lat="44.26641" lon="5.76357">
        <ele>625</ele>
        <time>2019-05-24T13:44:34Z</time>
      </trkpt>
      <trkpt lat="44.26634" lon="5.76359">
        <ele>625</ele>
        <time>2019-05-24T13:44:35Z</time>
      </trkpt>
      <trkpt lat="44.26627" lon="5.76362">
        <ele>625</ele>
        <time>2019-05-24T13:44:36Z</time>
      </trkpt>
      <trkpt lat="44.2662" lon="5.76364">
        <ele>625</ele>
        <time>2019-05-24T13:44:37Z</time>
      </trkpt>
      <trkpt lat="44.26613" lon="5.76367">
        <ele>625</ele>
        <time>2019-05-24T13:44:38Z</time>
      </trkpt>
      <trkpt lat="44.26606" lon="5.76369">
        <ele>625</ele>
        <time>2019-05-24T13:44:39Z</time>
      </trkpt>
      <trkpt lat="44.26599" lon="5.76372">
        <ele>625</ele>
        <time>2019-05-24T13:44:40Z</time>
      </trkpt>
      <trkpt lat="44.26592" lon="5.76374">
        <ele>625</ele>
        <time>2019-05-24T13:44:41Z</time>
      </trkpt>
      <trkpt lat="44.26585" lon="5.76376">
        <ele>625</ele>
        <time>2019-05-24T13:44:42Z</time>
      </trkpt>
      <trkpt lat="44.26578" lon="5.76379">
        <ele>625</ele>
        <time>2019-05-24T13:44:43Z</time>
      </trkpt>
      <trkpt lat="44.26572" lon="5.76384">
        <ele>625</ele>
        <time>2019-05-24T13:44:44Z</time>
      </trkpt>
      <trkpt lat="44.26565" lon="5.76389">
        <ele>624</ele>
        <time>2019-05-24T13:44:45Z</time>
      </trkpt>
      <trkpt lat="44.26559" lon="5.76395">
        <ele>624</ele>
        <time>2019-05-24T13:44:46Z</time>
      </trkpt>
      <trkpt lat="44.26555" lon="5.76403">
        <ele>624</ele>
        <time>2019-05-24T13:44:47Z</time>
      </trkpt>
      <trkpt lat="44.26551" lon="5.76411">
        <ele>623</ele>
        <time>2019-05-24T13:44:48Z</time>
      </trkpt>
      <trkpt lat="44.26548" lon="5.76419">
        <ele>623</ele>
        <time>2019-05-24T13:44:49Z</time>
      </trkpt>
      <trkpt lat="44.26545" lon="5.76428">
        <ele>622</ele>
        <time>2019-05-24T13:44:50Z</time>
      </trkpt>
      <trkpt lat="44.26543" lon="5.76436">
        <ele>622</ele>
        <time>2019-05-24T13:44:51Z</time>
      </trkpt>
      <trkpt lat="44.26541" lon="5.76445">
        <ele>622</ele>
        <time>2019-05-24T13:44:52Z</time>
      </trkpt>
      <trkpt lat="44.2654" lon="5.76453">
        <ele>622</ele>
        <time>2019-05-24T13:44:53Z</time>
      </trkpt>
      <trkpt lat="44.2654" lon="5.76462">
        <ele>622</ele>
        <time>2019-05-24T13:44:54Z</time>
      </trkpt>
      <trkpt lat="44.26542" lon="5.76471">
        <ele>622</ele>
        <time>2019-05-24T13:44:55Z</time>
      </trkpt>
      <trkpt lat="44.26546" lon="5.76479">
        <ele>622</ele>
        <time>2019-05-24T13:44:56Z</time>
      </trkpt>
      <trkpt lat="44.26552" lon="5.76485">
        <ele>622</ele>
        <time>2019-05-24T13:44:57Z</time>
      </trkpt>
      <trkpt lat="44.26559" lon="5.76489">
        <ele>622</ele>
        <time>2019-05-24T13:44:58Z</time>
      </trkpt>
      <trkpt lat="44.26567" lon="5.76493">
        <ele>622</ele>
        <time>2019-05-24T13:44:59Z</time>
      </trkpt>
      <trkpt lat="44.26574" lon="5.76497">
        <ele>622</ele>
        <time>2019-05-24T13:45:00Z</time>
      </trkpt>
      <trkpt lat="44.26581" lon="5.76502">
        <ele>622</ele>
        <time>2019-05-24T13:45:01Z</time>
      </trkpt>
      <trkpt lat="44.26588" lon="5.76507">
        <ele>622</ele>
        <time>2019-05-24T13:45:02Z</time>
      </trkpt>
      <trkpt lat="44.26593" lon="5.76513">
        <ele>622</ele>
        <time>2019-05-24T13:45:03Z</time>
      </trkpt>
      <trkpt lat="44.26598" lon="5.76521">
        <ele>622</ele>
        <time>2019-05-24T13:45:04Z</time>
      </trkpt>
      <trkpt lat="44.26603" lon="5.7653">
        <ele>621</ele>
        <time>2019-05-24T13:45:05Z</time>
      </trkpt>
      <trkpt lat="44.26608" lon="5.76539">
        <ele>621</ele>
        <time>2019-05-24T13:45:06Z</time>
      </trkpt>
      <trkpt lat="44.26611" lon="5.76548">
        <ele>620</ele>
        <time>2019-05-24T13:45:07Z</time>
      </trkpt>
      <trkpt lat="44.26616" lon="5.76557">
        <ele>620</ele>
        <time>2019-05-24T13:45:08Z</time>
      </trkpt>
      <trkpt lat="44.2662" lon="5.76567">
        <ele>620</ele>
        <time>2019-05-24T13:45:09Z</time>
      </trkpt>
      <trkpt lat="44.26624" lon="5.76576">
        <ele>620</ele>
        <time>2019-05-24T13:45:10Z</time>
      </trkpt>
      <trkpt lat="44.26628" lon="5.76585">
        <ele>620</ele>
        <time>2019-05-24T13:45:11Z</time>
      </trkpt>
      <trkpt lat="44.2663" lon="5.76597">
        <ele>620</ele>
        <time>2019-05-24T13:45:12Z</time>
      </trkpt>
      <trkpt lat="44.2663" lon="5.76608">
        <ele>620</ele>
        <time>2019-05-24T13:45:13Z</time>
      </trkpt>
      <trkpt lat="44.26631" lon="5.7662">
        <ele>620</ele>
        <time>2019-05-24T13:45:14Z</time>
      </trkpt>
      <trkpt lat="44.26627" lon="5.7664">
        <ele>620</ele>
        <time>2019-05-24T13:45:16Z</time>
      </trkpt>
      <trkpt lat="44.26624" lon="5.76651">
        <ele>620</ele>
        <time>2019-05-24T13:45:17Z</time>
      </trkpt>
      <trkpt lat="44.26622" lon="5.76661">
        <ele>620</ele>
        <time>2019-05-24T13:45:18Z</time>
      </trkpt>
      <trkpt lat="44.26615" lon="5.76682">
        <ele>620</ele>
        <time>2019-05-24T13:45:20Z</time>
      </trkpt>
      <trkpt lat="44.26609" lon="5.76692">
        <ele>620</ele>
        <time>2019-05-24T13:45:21Z</time>
      </trkpt>
      <trkpt lat="44.26603" lon="5.76699">
        <ele>620</ele>
        <time>2019-05-24T13:45:22Z</time>
      </trkpt>
      <trkpt lat="44.26596" lon="5.76706">
        <ele>620</ele>
        <time>2019-05-24T13:45:23Z</time>
      </trkpt>
      <trkpt lat="44.26586" lon="5.76713">
        <ele>620</ele>
        <time>2019-05-24T13:45:24Z</time>
      </trkpt>
      <trkpt lat="44.26577" lon="5.76721">
        <ele>620</ele>
        <time>2019-05-24T13:45:25Z</time>
      </trkpt>
      <trkpt lat="44.2657" lon="5.7673">
        <ele>620</ele>
        <time>2019-05-24T13:45:26Z</time>
      </trkpt>
      <trkpt lat="44.26561" lon="5.76734">
        <ele>620</ele>
        <time>2019-05-24T13:45:27Z</time>
      </trkpt>
      <trkpt lat="44.26555" lon="5.76746">
        <ele>620</ele>
        <time>2019-05-24T13:45:28Z</time>
      </trkpt>
      <trkpt lat="44.2655" lon="5.76759">
        <ele>620</ele>
        <time>2019-05-24T13:45:29Z</time>
      </trkpt>
      <trkpt lat="44.26545" lon="5.76771">
        <ele>620</ele>
        <time>2019-05-24T13:45:30Z</time>
      </trkpt>
      <trkpt lat="44.2654" lon="5.76783">
        <ele>620</ele>
        <time>2019-05-24T13:45:31Z</time>
      </trkpt>
      <trkpt lat="44.26535" lon="5.76795">
        <ele>620</ele>
        <time>2019-05-24T13:45:32Z</time>
      </trkpt>
      <trkpt lat="44.26528" lon="5.76807">
        <ele>620</ele>
        <time>2019-05-24T13:45:33Z</time>
      </trkpt>
      <trkpt lat="44.26519" lon="5.76817">
        <ele>620</ele>
        <time>2019-05-24T13:45:34Z</time>
      </trkpt>
      <trkpt lat="44.26509" lon="5.76825">
        <ele>620</ele>
        <time>2019-05-24T13:45:35Z</time>
      </trkpt>
      <trkpt lat="44.26499" lon="5.76831">
        <ele>620</ele>
        <time>2019-05-24T13:45:36Z</time>
      </trkpt>
      <trkpt lat="44.2649" lon="5.76837">
        <ele>620</ele>
        <time>2019-05-24T13:45:37Z</time>
      </trkpt>
      <trkpt lat="44.26483" lon="5.76844">
        <ele>620</ele>
        <time>2019-05-24T13:45:38Z</time>
      </trkpt>
      <trkpt lat="44.26477" lon="5.7685">
        <ele>620</ele>
        <time>2019-05-24T13:45:39Z</time>
      </trkpt>
      <trkpt lat="44.26471" lon="5.76855">
        <ele>620</ele>
        <time>2019-05-24T13:45:40Z</time>
      </trkpt>
      <trkpt lat="44.26466" lon="5.76859">
        <ele>620</ele>
        <time>2019-05-24T13:45:41Z</time>
      </trkpt>
      <trkpt lat="44.26445" lon="5.76826">
        <ele>621</ele>
        <time>2019-05-24T13:45:42Z</time>
      </trkpt>
      <trkpt lat="44.2644" lon="5.76829">
        <ele>623</ele>
        <time>2019-05-24T13:45:43Z</time>
      </trkpt>
      <trkpt lat="44.26436" lon="5.76834">
        <ele>626</ele>
        <time>2019-05-24T13:45:44Z</time>
      </trkpt>
      <trkpt lat="44.26436" lon="5.76844">
        <ele>629</ele>
        <time>2019-05-24T13:45:45Z</time>
      </trkpt>
      <trkpt lat="44.26439" lon="5.76855">
        <ele>633</ele>
        <time>2019-05-24T13:45:46Z</time>
      </trkpt>
      <trkpt lat="44.26448" lon="5.76869">
        <ele>637</ele>
        <time>2019-05-24T13:45:47Z</time>
      </trkpt>
      <trkpt lat="44.26456" lon="5.76877">
        <ele>641</ele>
        <time>2019-05-24T13:45:48Z</time>
      </trkpt>
      <trkpt lat="44.26463" lon="5.76883">
        <ele>645</ele>
        <time>2019-05-24T13:45:49Z</time>
      </trkpt>
      <trkpt lat="44.26729" lon="5.76975">
        <ele>648</ele>
        <time>2019-05-24T13:46:11Z</time>
      </trkpt>
      <trkpt lat="44.2673" lon="5.7699">
        <ele>650</ele>
        <time>2019-05-24T13:46:13Z</time>
      </trkpt>
      <trkpt lat="44.26729" lon="5.76998">
        <ele>651</ele>
        <time>2019-05-24T13:46:14Z</time>
      </trkpt>
      <trkpt lat="44.26727" lon="5.77007">
        <ele>652</ele>
        <time>2019-05-24T13:46:15Z</time>
      </trkpt>
      <trkpt lat="44.26726" lon="5.77017">
        <ele>651</ele>
        <time>2019-05-24T13:46:16Z</time>
      </trkpt>
      <trkpt lat="44.26725" lon="5.77028">
        <ele>650</ele>
        <time>2019-05-24T13:46:17Z</time>
      </trkpt>
      <trkpt lat="44.26717" lon="5.77035">
        <ele>648</ele>
        <time>2019-05-24T13:46:18Z</time>
      </trkpt>
      <trkpt lat="44.26714" lon="5.77044">
        <ele>645</ele>
        <time>2019-05-24T13:46:19Z</time>
      </trkpt>
      <trkpt lat="44.26712" lon="5.77054">
        <ele>642</ele>
        <time>2019-05-24T13:46:20Z</time>
      </trkpt>
      <trkpt lat="44.26711" lon="5.77064">
        <ele>639</ele>
        <time>2019-05-24T13:46:21Z</time>
      </trkpt>
      <trkpt lat="44.26697" lon="5.77101">
        <ele>635</ele>
        <time>2019-05-24T13:46:25Z</time>
      </trkpt>
      <trkpt lat="44.26691" lon="5.77109">
        <ele>631</ele>
        <time>2019-05-24T13:46:26Z</time>
      </trkpt>
      <trkpt lat="44.26686" lon="5.77116">
        <ele>628</ele>
        <time>2019-05-24T13:46:27Z</time>
      </trkpt>
      <trkpt lat="44.2668" lon="5.77124">
        <ele>625</ele>
        <time>2019-05-24T13:46:28Z</time>
      </trkpt>
      <trkpt lat="44.26675" lon="5.77131">
        <ele>622</ele>
        <time>2019-05-24T13:46:29Z</time>
      </trkpt>
      <trkpt lat="44.26669" lon="5.77138">
        <ele>619</ele>
        <time>2019-05-24T13:46:30Z</time>
      </trkpt>
      <trkpt lat="44.26664" lon="5.77145">
        <ele>617</ele>
        <time>2019-05-24T13:46:31Z</time>
      </trkpt>
      <trkpt lat="44.2666" lon="5.77153">
        <ele>615</ele>
        <time>2019-05-24T13:46:32Z</time>
      </trkpt>
      <trkpt lat="44.26654" lon="5.7716">
        <ele>613</ele>
        <time>2019-05-24T13:46:33Z</time>
      </trkpt>
      <trkpt lat="44.26648" lon="5.77167">
        <ele>611</ele>
        <time>2019-05-24T13:46:34Z</time>
      </trkpt>
      <trkpt lat="44.26643" lon="5.77173">
        <ele>610</ele>
        <time>2019-05-24T13:46:35Z</time>
      </trkpt>
      <trkpt lat="44.26637" lon="5.7718">
        <ele>609</ele>
        <time>2019-05-24T13:46:36Z</time>
      </trkpt>
      <trkpt lat="44.26631" lon="5.77187">
        <ele>608</ele>
        <time>2019-05-24T13:46:37Z</time>
      </trkpt>
      <trkpt lat="44.26625" lon="5.77193">
        <ele>607</ele>
        <time>2019-05-24T13:46:38Z</time>
      </trkpt>
      <trkpt lat="44.26618" lon="5.77198">
        <ele>606</ele>
        <time>2019-05-24T13:46:39Z</time>
      </trkpt>
      <trkpt lat="44.26612" lon="5.77204">
        <ele>606</ele>
        <time>2019-05-24T13:46:40Z</time>
      </trkpt>
      <trkpt lat="44.26605" lon="5.77209">
        <ele>606</ele>
        <time>2019-05-24T13:46:41Z</time>
      </trkpt>
      <trkpt lat="44.26599" lon="5.77215">
        <ele>606</ele>
        <time>2019-05-24T13:46:42Z</time>
      </trkpt>
      <trkpt lat="44.26593" lon="5.77221">
        <ele>606</ele>
        <time>2019-05-24T13:46:43Z</time>
      </trkpt>
      <trkpt lat="44.26589" lon="5.7723">
        <ele>606</ele>
        <time>2019-05-24T13:46:44Z</time>
      </trkpt>
      <trkpt lat="44.26587" lon="5.77239">
        <ele>605</ele>
        <time>2019-05-24T13:46:45Z</time>
      </trkpt>
      <trkpt lat="44.26586" lon="5.77247">
        <ele>604</ele>
        <time>2019-05-24T13:46:46Z</time>
      </trkpt>
      <trkpt lat="44.26588" lon="5.77255">
        <ele>603</ele>
        <time>2019-05-24T13:46:47Z</time>
      </trkpt>
      <trkpt lat="44.26591" lon="5.77264">
        <ele>602</ele>
        <time>2019-05-24T13:46:48Z</time>
      </trkpt>
      <trkpt lat="44.26596" lon="5.7727">
        <ele>602</ele>
        <time>2019-05-24T13:46:49Z</time>
      </trkpt>
      <trkpt lat="44.26603" lon="5.77276">
        <ele>601</ele>
        <time>2019-05-24T13:46:50Z</time>
      </trkpt>
      <trkpt lat="44.2661" lon="5.77282">
        <ele>601</ele>
        <time>2019-05-24T13:46:51Z</time>
      </trkpt>
      <trkpt lat="44.26617" lon="5.77287">
        <ele>601</ele>
        <time>2019-05-24T13:46:52Z</time>
      </trkpt>
      <trkpt lat="44.26625" lon="5.77294">
        <ele>600</ele>
        <time>2019-05-24T13:46:53Z</time>
      </trkpt>
      <trkpt lat="44.26643" lon="5.77312">
        <ele>600</ele>
        <time>2019-05-24T13:46:56Z</time>
      </trkpt>
      <trkpt lat="44.26656" lon="5.77327">
        <ele>599</ele>
        <time>2019-05-24T13:46:58Z</time>
      </trkpt>
      <trkpt lat="44.26662" lon="5.77336">
        <ele>599</ele>
        <time>2019-05-24T13:46:59Z</time>
      </trkpt>
      <trkpt lat="44.26667" lon="5.77346">
        <ele>599</ele>
        <time>2019-05-24T13:47:00Z</time>
      </trkpt>
      <trkpt lat="44.26671" lon="5.77356">
        <ele>599</ele>
        <time>2019-05-24T13:47:01Z</time>
      </trkpt>
      <trkpt lat="44.26674" lon="5.77366">
        <ele>599</ele>
        <time>2019-05-24T13:47:02Z</time>
      </trkpt>
      <trkpt lat="44.26678" lon="5.77376">
        <ele>599</ele>
        <time>2019-05-24T13:47:03Z</time>
      </trkpt>
      <trkpt lat="44.26682" lon="5.77386">
        <ele>599</ele>
        <time>2019-05-24T13:47:04Z</time>
      </trkpt>
      <trkpt lat="44.26687" lon="5.77394">
        <ele>599</ele>
        <time>2019-05-24T13:47:05Z</time>
      </trkpt>
      <trkpt lat="44.26691" lon="5.77403">
        <ele>599</ele>
        <time>2019-05-24T13:47:06Z</time>
      </trkpt>
      <trkpt lat="44.26696" lon="5.77412">
        <ele>599</ele>
        <time>2019-05-24T13:47:07Z</time>
      </trkpt>
      <trkpt lat="44.267" lon="5.7742">
        <ele>599</ele>
        <time>2019-05-24T13:47:08Z</time>
      </trkpt>
      <trkpt lat="44.26704" lon="5.77428">
        <ele>599</ele>
        <time>2019-05-24T13:47:09Z</time>
      </trkpt>
      <trkpt lat="44.26709" lon="5.77437">
        <ele>599</ele>
        <time>2019-05-24T13:47:10Z</time>
      </trkpt>
      <trkpt lat="44.26714" lon="5.77447">
        <ele>599</ele>
        <time>2019-05-24T13:47:11Z</time>
      </trkpt>
      <trkpt lat="44.26717" lon="5.77456">
        <ele>599</ele>
        <time>2019-05-24T13:47:12Z</time>
      </trkpt>
      <trkpt lat="44.26721" lon="5.77465">
        <ele>599</ele>
        <time>2019-05-24T13:47:13Z</time>
      </trkpt>
      <trkpt lat="44.26725" lon="5.77474">
        <ele>600</ele>
        <time>2019-05-24T13:47:14Z</time>
      </trkpt>
      <trkpt lat="44.2673" lon="5.77483">
        <ele>601</ele>
        <time>2019-05-24T13:47:15Z</time>
      </trkpt>
      <trkpt lat="44.26735" lon="5.77491">
        <ele>602</ele>
        <time>2019-05-24T13:47:16Z</time>
      </trkpt>
      <trkpt lat="44.26739" lon="5.77498">
        <ele>603</ele>
        <time>2019-05-24T13:47:17Z</time>
      </trkpt>
      <trkpt lat="44.26743" lon="5.77506">
        <ele>603</ele>
        <time>2019-05-24T13:47:18Z</time>
      </trkpt>
      <trkpt lat="44.26747" lon="5.77513">
        <ele>603</ele>
        <time>2019-05-24T13:47:19Z</time>
      </trkpt>
      <trkpt lat="44.26752" lon="5.77521">
        <ele>603</ele>
        <time>2019-05-24T13:47:20Z</time>
      </trkpt>
      <trkpt lat="44.26756" lon="5.77528">
        <ele>603</ele>
        <time>2019-05-24T13:47:21Z</time>
      </trkpt>
      <trkpt lat="44.26759" lon="5.77535">
        <ele>603</ele>
        <time>2019-05-24T13:47:22Z</time>
      </trkpt>
      <trkpt lat="44.26764" lon="5.77542">
        <ele>603</ele>
        <time>2019-05-24T13:47:23Z</time>
      </trkpt>
      <trkpt lat="44.2677" lon="5.77549">
        <ele>603</ele>
        <time>2019-05-24T13:47:24Z</time>
      </trkpt>
      <trkpt lat="44.26776" lon="5.77554">
        <ele>603</ele>
        <time>2019-05-24T13:47:25Z</time>
      </trkpt>
      <trkpt lat="44.26789" lon="5.77557">
        <ele>603</ele>
        <time>2019-05-24T13:47:27Z</time>
      </trkpt>
      <trkpt lat="44.26797" lon="5.77555">
        <ele>603</ele>
        <time>2019-05-24T13:47:28Z</time>
      </trkpt>
      <trkpt lat="44.26804" lon="5.77552">
        <ele>603</ele>
        <time>2019-05-24T13:47:29Z</time>
      </trkpt>
      <trkpt lat="44.26811" lon="5.77548">
        <ele>603</ele>
        <time>2019-05-24T13:47:30Z</time>
      </trkpt>
      <trkpt lat="44.26818" lon="5.77543">
        <ele>603</ele>
        <time>2019-05-24T13:47:31Z</time>
      </trkpt>
      <trkpt lat="44.26824" lon="5.77538">
        <ele>603</ele>
        <time>2019-05-24T13:47:32Z</time>
      </trkpt>
      <trkpt lat="44.26831" lon="5.77534">
        <ele>603</ele>
        <time>2019-05-24T13:47:33Z</time>
      </trkpt>
      <trkpt lat="44.26838" lon="5.77529">
        <ele>602</ele>
        <time>2019-05-24T13:47:34Z</time>
      </trkpt>
      <trkpt lat="44.26844" lon="5.77525">
        <ele>601</ele>
        <time>2019-05-24T13:47:35Z</time>
      </trkpt>
      <trkpt lat="44.26851" lon="5.7752">
        <ele>601</ele>
        <time>2019-05-24T13:47:36Z</time>
      </trkpt>
      <trkpt lat="44.26857" lon="5.77514">
        <ele>600</ele>
        <time>2019-05-24T13:47:37Z</time>
      </trkpt>
      <trkpt lat="44.26864" lon="5.77509">
        <ele>600</ele>
        <time>2019-05-24T13:47:38Z</time>
      </trkpt>
      <trkpt lat="44.26871" lon="5.77504">
        <ele>600</ele>
        <time>2019-05-24T13:47:39Z</time>
      </trkpt>
      <trkpt lat="44.26877" lon="5.77498">
        <ele>600</ele>
        <time>2019-05-24T13:47:40Z</time>
      </trkpt>
      <trkpt lat="44.26884" lon="5.77493">
        <ele>600</ele>
        <time>2019-05-24T13:47:41Z</time>
      </trkpt>
      <trkpt lat="44.2689" lon="5.77486">
        <ele>600</ele>
        <time>2019-05-24T13:47:42Z</time>
      </trkpt>
      <trkpt lat="44.26904" lon="5.77475">
        <ele>600</ele>
        <time>2019-05-24T13:47:44Z</time>
      </trkpt>
      <trkpt lat="44.2691" lon="5.7747">
        <ele>600</ele>
        <time>2019-05-24T13:47:45Z</time>
      </trkpt>
      <trkpt lat="44.26917" lon="5.77465">
        <ele>600</ele>
        <time>2019-05-24T13:47:46Z</time>
      </trkpt>
      <trkpt lat="44.26923" lon="5.77459">
        <ele>600</ele>
        <time>2019-05-24T13:47:47Z</time>
      </trkpt>
      <trkpt lat="44.26931" lon="5.77456">
        <ele>600</ele>
        <time>2019-05-24T13:47:48Z</time>
      </trkpt>
      <trkpt lat="44.26938" lon="5.77453">
        <ele>600</ele>
        <time>2019-05-24T13:47:49Z</time>
      </trkpt>
      <trkpt lat="44.26945" lon="5.77451">
        <ele>600</ele>
        <time>2019-05-24T13:47:50Z</time>
      </trkpt>
      <trkpt lat="44.26952" lon="5.77449">
        <ele>600</ele>
        <time>2019-05-24T13:47:51Z</time>
      </trkpt>
      <trkpt lat="44.26959" lon="5.77446">
        <ele>600</ele>
        <time>2019-05-24T13:47:52Z</time>
      </trkpt>
      <trkpt lat="44.26966" lon="5.77443">
        <ele>600</ele>
        <time>2019-05-24T13:47:53Z</time>
      </trkpt>
      <trkpt lat="44.26972" lon="5.77438">
        <ele>600</ele>
        <time>2019-05-24T13:47:54Z</time>
      </trkpt>
      <trkpt lat="44.26978" lon="5.77435">
        <ele>600</ele>
        <time>2019-05-24T13:47:55Z</time>
      </trkpt>
      <trkpt lat="44.26984" lon="5.77432">
        <ele>600</ele>
        <time>2019-05-24T13:47:56Z</time>
      </trkpt>
      <trkpt lat="44.26991" lon="5.7743">
        <ele>600</ele>
        <time>2019-05-24T13:47:57Z</time>
      </trkpt>
      <trkpt lat="44.26999" lon="5.77429">
        <ele>600</ele>
        <time>2019-05-24T13:47:58Z</time>
      </trkpt>
      <trkpt lat="44.27003" lon="5.7743">
        <ele>600</ele>
        <time>2019-05-24T13:47:59Z</time>
      </trkpt>
      <trkpt lat="44.27016" lon="5.77438">
        <ele>600</ele>
        <time>2019-05-24T13:48:01Z</time>
      </trkpt>
      <trkpt lat="44.27025" lon="5.77443">
        <ele>600</ele>
        <time>2019-05-24T13:48:02Z</time>
      </trkpt>
      <trkpt lat="44.27035" lon="5.77448">
        <ele>600</ele>
        <time>2019-05-24T13:48:03Z</time>
      </trkpt>
      <trkpt lat="44.27041" lon="5.77456">
        <ele>600</ele>
        <time>2019-05-24T13:48:04Z</time>
      </trkpt>
      <trkpt lat="44.27046" lon="5.77464">
        <ele>600</ele>
        <time>2019-05-24T13:48:05Z</time>
      </trkpt>
      <trkpt lat="44.27084" lon="5.77513">
        <ele>600</ele>
        <time>2019-05-24T13:48:13Z</time>
      </trkpt>
      <trkpt lat="44.2709" lon="5.77524">
        <ele>600</ele>
        <time>2019-05-24T13:48:14Z</time>
      </trkpt>
      <trkpt lat="44.27095" lon="5.77533">
        <ele>600</ele>
        <time>2019-05-24T13:48:15Z</time>
      </trkpt>
      <trkpt lat="44.27101" lon="5.77542">
        <ele>600</ele>
        <time>2019-05-24T13:48:16Z</time>
      </trkpt>
      <trkpt lat="44.27109" lon="5.7755">
        <ele>600</ele>
        <time>2019-05-24T13:48:17Z</time>
      </trkpt>
      <trkpt lat="44.27112" lon="5.7756">
        <ele>600</ele>
        <time>2019-05-24T13:48:18Z</time>
      </trkpt>
      <trkpt lat="44.27115" lon="5.77571">
        <ele>600</ele>
        <time>2019-05-24T13:48:19Z</time>
      </trkpt>
      <trkpt lat="44.27116" lon="5.77582">
        <ele>600</ele>
        <time>2019-05-24T13:48:20Z</time>
      </trkpt>
      <trkpt lat="44.27118" lon="5.77593">
        <ele>600</ele>
        <time>2019-05-24T13:48:21Z</time>
      </trkpt>
      <trkpt lat="44.27118" lon="5.77604">
        <ele>600</ele>
        <time>2019-05-24T13:48:22Z</time>
      </trkpt>
      <trkpt lat="44.27119" lon="5.77615">
        <ele>600</ele>
        <time>2019-05-24T13:48:23Z</time>
      </trkpt>
      <trkpt lat="44.27121" lon="5.77626">
        <ele>600</ele>
        <time>2019-05-24T13:48:24Z</time>
      </trkpt>
      <trkpt lat="44.27122" lon="5.77638">
        <ele>599</ele>
        <time>2019-05-24T13:48:25Z</time>
      </trkpt>
      <trkpt lat="44.27123" lon="5.77649">
        <ele>599</ele>
        <time>2019-05-24T13:48:26Z</time>
      </trkpt>
      <trkpt lat="44.27125" lon="5.77661">
        <ele>599</ele>
        <time>2019-05-24T13:48:27Z</time>
      </trkpt>
      <trkpt lat="44.27128" lon="5.77671">
        <ele>599</ele>
        <time>2019-05-24T13:48:28Z</time>
      </trkpt>
      <trkpt lat="44.27131" lon="5.77682">
        <ele>598</ele>
        <time>2019-05-24T13:48:29Z</time>
      </trkpt>
      <trkpt lat="44.27136" lon="5.77691">
        <ele>598</ele>
        <time>2019-05-24T13:48:30Z</time>
      </trkpt>
      <trkpt lat="44.27142" lon="5.77698">
        <ele>598</ele>
        <time>2019-05-24T13:48:31Z</time>
      </trkpt>
      <trkpt lat="44.2715" lon="5.77704">
        <ele>597</ele>
        <time>2019-05-24T13:48:32Z</time>
      </trkpt>
      <trkpt lat="44.27158" lon="5.7771">
        <ele>597</ele>
        <time>2019-05-24T13:48:33Z</time>
      </trkpt>
      <trkpt lat="44.27167" lon="5.77717">
        <ele>597</ele>
        <time>2019-05-24T13:48:34Z</time>
      </trkpt>
      <trkpt lat="44.27175" lon="5.77722">
        <ele>596</ele>
        <time>2019-05-24T13:48:35Z</time>
      </trkpt>
      <trkpt lat="44.27183" lon="5.77728">
        <ele>596</ele>
        <time>2019-05-24T13:48:36Z</time>
      </trkpt>
      <trkpt lat="44.27191" lon="5.77733">
        <ele>596</ele>
        <time>2019-05-24T13:48:37Z</time>
      </trkpt>
      <trkpt lat="44.27199" lon="5.77738">
        <ele>596</ele>
        <time>2019-05-24T13:48:38Z</time>
      </trkpt>
      <trkpt lat="44.27207" lon="5.77743">
        <ele>595</ele>
        <time>2019-05-24T13:48:39Z</time>
      </trkpt>
      <trkpt lat="44.27214" lon="5.77747">
        <ele>595</ele>
        <time>2019-05-24T13:48:40Z</time>
      </trkpt>
      <trkpt lat="44.27223" lon="5.77751">
        <ele>595</ele>
        <time>2019-05-24T13:48:41Z</time>
      </trkpt>
      <trkpt lat="44.27232" lon="5.77751">
        <ele>594</ele>
        <time>2019-05-24T13:48:42Z</time>
      </trkpt>
      <trkpt lat="44.27242" lon="5.77748">
        <ele>594</ele>
        <time>2019-05-24T13:48:43Z</time>
      </trkpt>
      <trkpt lat="44.27251" lon="5.77743">
        <ele>594</ele>
        <time>2019-05-24T13:48:44Z</time>
      </trkpt>
      <trkpt lat="44.2726" lon="5.77739">
        <ele>594</ele>
        <time>2019-05-24T13:48:45Z</time>
      </trkpt>
      <trkpt lat="44.27269" lon="5.77737">
        <ele>593</ele>
        <time>2019-05-24T13:48:46Z</time>
      </trkpt>
      <trkpt lat="44.27277" lon="5.77736">
        <ele>593</ele>
        <time>2019-05-24T13:48:47Z</time>
      </trkpt>
      <trkpt lat="44.27285" lon="5.77737">
        <ele>593</ele>
        <time>2019-05-24T13:48:48Z</time>
      </trkpt>
      <trkpt lat="44.27291" lon="5.7774">
        <ele>592</ele>
        <time>2019-05-24T13:48:49Z</time>
      </trkpt>
      <trkpt lat="44.27297" lon="5.77747">
        <ele>592</ele>
        <time>2019-05-24T13:48:50Z</time>
      </trkpt>
      <trkpt lat="44.27301" lon="5.77756">
        <ele>591</ele>
        <time>2019-05-24T13:48:51Z</time>
      </trkpt>
      <trkpt lat="44.27302" lon="5.77765">
        <ele>591</ele>
        <time>2019-05-24T13:48:52Z</time>
      </trkpt>
      <trkpt lat="44.27302" lon="5.77776">
        <ele>591</ele>
        <time>2019-05-24T13:48:53Z</time>
      </trkpt>
      <trkpt lat="44.27302" lon="5.77786">
        <ele>591</ele>
        <time>2019-05-24T13:48:54Z</time>
      </trkpt>
      <trkpt lat="44.27304" lon="5.77796">
        <ele>591</ele>
        <time>2019-05-24T13:48:55Z</time>
      </trkpt>
      <trkpt lat="44.27307" lon="5.77804">
        <ele>591</ele>
        <time>2019-05-24T13:48:56Z</time>
      </trkpt>
      <trkpt lat="44.27313" lon="5.77811">
        <ele>591</ele>
        <time>2019-05-24T13:48:57Z</time>
      </trkpt>
      <trkpt lat="44.27319" lon="5.77818">
        <ele>591</ele>
        <time>2019-05-24T13:48:58Z</time>
      </trkpt>
      <trkpt lat="44.27326" lon="5.77825">
        <ele>591</ele>
        <time>2019-05-24T13:48:59Z</time>
      </trkpt>
      <trkpt lat="44.27333" lon="5.77832">
        <ele>591</ele>
        <time>2019-05-24T13:49:00Z</time>
      </trkpt>
      <trkpt lat="44.27341" lon="5.77838">
        <ele>591</ele>
        <time>2019-05-24T13:49:01Z</time>
      </trkpt>
      <trkpt lat="44.27348" lon="5.77844">
        <ele>591</ele>
        <time>2019-05-24T13:49:02Z</time>
      </trkpt>
      <trkpt lat="44.27353" lon="5.77851">
        <ele>591</ele>
        <time>2019-05-24T13:49:03Z</time>
      </trkpt>
      <trkpt lat="44.27359" lon="5.77858">
        <ele>591</ele>
        <time>2019-05-24T13:49:04Z</time>
      </trkpt>
      <trkpt lat="44.27366" lon="5.77866">
        <ele>591</ele>
        <time>2019-05-24T13:49:05Z</time>
      </trkpt>
      <trkpt lat="44.27372" lon="5.77873">
        <ele>591</ele>
        <time>2019-05-24T13:49:06Z</time>
      </trkpt>
      <trkpt lat="44.27377" lon="5.77881">
        <ele>591</ele>
        <time>2019-05-24T13:49:07Z</time>
      </trkpt>
      <trkpt lat="44.27383" lon="5.77889">
        <ele>591</ele>
        <time>2019-05-24T13:49:08Z</time>
      </trkpt>
      <trkpt lat="44.27393" lon="5.77904">
        <ele>591</ele>
        <time>2019-05-24T13:49:10Z</time>
      </trkpt>
      <trkpt lat="44.27399" lon="5.77912">
        <ele>592</ele>
        <time>2019-05-24T13:49:11Z</time>
      </trkpt>
      <trkpt lat="44.27402" lon="5.77921">
        <ele>592</ele>
        <time>2019-05-24T13:49:12Z</time>
      </trkpt>
      <trkpt lat="44.27405" lon="5.77931">
        <ele>593</ele>
        <time>2019-05-24T13:49:13Z</time>
      </trkpt>
      <trkpt lat="44.27407" lon="5.77942">
        <ele>593</ele>
        <time>2019-05-24T13:49:15Z</time>
      </trkpt>
      <trkpt lat="44.27409" lon="5.77953">
        <ele>593</ele>
        <time>2019-05-24T13:49:15Z</time>
      </trkpt>
      <trkpt lat="44.27409" lon="5.77963">
        <ele>593</ele>
        <time>2019-05-24T13:49:16Z</time>
      </trkpt>
      <trkpt lat="44.27408" lon="5.77974">
        <ele>594</ele>
        <time>2019-05-24T13:49:17Z</time>
      </trkpt>
      <trkpt lat="44.27408" lon="5.77985">
        <ele>594</ele>
        <time>2019-05-24T13:49:18Z</time>
      </trkpt>
      <trkpt lat="44.27409" lon="5.77995">
        <ele>594</ele>
        <time>2019-05-24T13:49:19Z</time>
      </trkpt>
      <trkpt lat="44.27411" lon="5.78007">
        <ele>594</ele>
        <time>2019-05-24T13:49:20Z</time>
      </trkpt>
      <trkpt lat="44.27413" lon="5.78017">
        <ele>594</ele>
        <time>2019-05-24T13:49:21Z</time>
      </trkpt>
      <trkpt lat="44.27417" lon="5.78027">
        <ele>594</ele>
        <time>2019-05-24T13:49:22Z</time>
      </trkpt>
      <trkpt lat="44.27421" lon="5.78036">
        <ele>594</ele>
        <time>2019-05-24T13:49:23Z</time>
      </trkpt>
      <trkpt lat="44.27426" lon="5.78045">
        <ele>594</ele>
        <time>2019-05-24T13:49:24Z</time>
      </trkpt>
      <trkpt lat="44.27431" lon="5.78053">
        <ele>594</ele>
        <time>2019-05-24T13:49:25Z</time>
      </trkpt>
      <trkpt lat="44.27437" lon="5.78061">
        <ele>594</ele>
        <time>2019-05-24T13:49:26Z</time>
      </trkpt>
      <trkpt lat="44.27443" lon="5.78068">
        <ele>594</ele>
        <time>2019-05-24T13:49:27Z</time>
      </trkpt>
      <trkpt lat="44.2745" lon="5.78076">
        <ele>594</ele>
        <time>2019-05-24T13:49:28Z</time>
      </trkpt>
      <trkpt lat="44.27457" lon="5.78083">
        <ele>594</ele>
        <time>2019-05-24T13:49:29Z</time>
      </trkpt>
      <trkpt lat="44.27465" lon="5.78091">
        <ele>594</ele>
        <time>2019-05-24T13:49:30Z</time>
      </trkpt>
      <trkpt lat="44.27472" lon="5.78099">
        <ele>594</ele>
        <time>2019-05-24T13:49:31Z</time>
      </trkpt>
      <trkpt lat="44.27477" lon="5.78106">
        <ele>594</ele>
        <time>2019-05-24T13:49:32Z</time>
      </trkpt>
      <trkpt lat="44.27482" lon="5.78113">
        <ele>594</ele>
        <time>2019-05-24T13:49:33Z</time>
      </trkpt>
      <trkpt lat="44.27488" lon="5.7812">
        <ele>594</ele>
        <time>2019-05-24T13:49:34Z</time>
      </trkpt>
      <trkpt lat="44.27494" lon="5.78128">
        <ele>594</ele>
        <time>2019-05-24T13:49:35Z</time>
      </trkpt>
      <trkpt lat="44.27501" lon="5.78135">
        <ele>594</ele>
        <time>2019-05-24T13:49:36Z</time>
      </trkpt>
      <trkpt lat="44.27507" lon="5.78143">
        <ele>594</ele>
        <time>2019-05-24T13:49:37Z</time>
      </trkpt>
      <trkpt lat="44.27514" lon="5.7815">
        <ele>594</ele>
        <time>2019-05-24T13:49:38Z</time>
      </trkpt>
      <trkpt lat="44.2752" lon="5.78157">
        <ele>594</ele>
        <time>2019-05-24T13:49:39Z</time>
      </trkpt>
      <trkpt lat="44.27526" lon="5.78164">
        <ele>594</ele>
        <time>2019-05-24T13:49:40Z</time>
      </trkpt>
      <trkpt lat="44.27531" lon="5.78171">
        <ele>594</ele>
        <time>2019-05-24T13:49:41Z</time>
      </trkpt>
      <trkpt lat="44.27537" lon="5.78179">
        <ele>594</ele>
        <time>2019-05-24T13:49:42Z</time>
      </trkpt>
      <trkpt lat="44.27542" lon="5.78188">
        <ele>594</ele>
        <time>2019-05-24T13:49:43Z</time>
      </trkpt>
      <trkpt lat="44.27545" lon="5.78197">
        <ele>594</ele>
        <time>2019-05-24T13:49:44Z</time>
      </trkpt>
      <trkpt lat="44.27548" lon="5.78206">
        <ele>594</ele>
        <time>2019-05-24T13:49:45Z</time>
      </trkpt>
      <trkpt lat="44.2755" lon="5.78217">
        <ele>594</ele>
        <time>2019-05-24T13:49:46Z</time>
      </trkpt>
      <trkpt lat="44.27551" lon="5.78228">
        <ele>594</ele>
        <time>2019-05-24T13:49:47Z</time>
      </trkpt>
      <trkpt lat="44.27551" lon="5.78239">
        <ele>594</ele>
        <time>2019-05-24T13:49:48Z</time>
      </trkpt>
      <trkpt lat="44.2755" lon="5.78251">
        <ele>594</ele>
        <time>2019-05-24T13:49:49Z</time>
      </trkpt>
      <trkpt lat="44.27548" lon="5.78261">
        <ele>594</ele>
        <time>2019-05-24T13:49:50Z</time>
      </trkpt>
      <trkpt lat="44.27544" lon="5.78271">
        <ele>594</ele>
        <time>2019-05-24T13:49:51Z</time>
      </trkpt>
      <trkpt lat="44.27539" lon="5.78279">
        <ele>594</ele>
        <time>2019-05-24T13:49:52Z</time>
      </trkpt>
      <trkpt lat="44.27531" lon="5.78284">
        <ele>594</ele>
        <time>2019-05-24T13:49:53Z</time>
      </trkpt>
      <trkpt lat="44.27522" lon="5.78288">
        <ele>594</ele>
        <time>2019-05-24T13:49:54Z</time>
      </trkpt>
      <trkpt lat="44.27515" lon="5.78293">
        <ele>594</ele>
        <time>2019-05-24T13:49:55Z</time>
      </trkpt>
      <trkpt lat="44.27507" lon="5.78298">
        <ele>594</ele>
        <time>2019-05-24T13:49:56Z</time>
      </trkpt>
      <trkpt lat="44.275" lon="5.78303">
        <ele>594</ele>
        <time>2019-05-24T13:49:57Z</time>
      </trkpt>
      <trkpt lat="44.27494" lon="5.78309">
        <ele>594</ele>
        <time>2019-05-24T13:49:58Z</time>
      </trkpt>
      <trkpt lat="44.27487" lon="5.78315">
        <ele>594</ele>
        <time>2019-05-24T13:49:59Z</time>
      </trkpt>
      <trkpt lat="44.27481" lon="5.78322">
        <ele>594</ele>
        <time>2019-05-24T13:50:00Z</time>
      </trkpt>
      <trkpt lat="44.27475" lon="5.78329">
        <ele>594</ele>
        <time>2019-05-24T13:50:01Z</time>
      </trkpt>
      <trkpt lat="44.27469" lon="5.78336">
        <ele>594</ele>
        <time>2019-05-24T13:50:02Z</time>
      </trkpt>
      <trkpt lat="44.27465" lon="5.78346">
        <ele>593</ele>
        <time>2019-05-24T13:50:03Z</time>
      </trkpt>
      <trkpt lat="44.27464" lon="5.78356">
        <ele>593</ele>
        <time>2019-05-24T13:50:04Z</time>
      </trkpt>
      <trkpt lat="44.27464" lon="5.78366">
        <ele>593</ele>
        <time>2019-05-24T13:50:05Z</time>
      </trkpt>
      <trkpt lat="44.27467" lon="5.78376">
        <ele>593</ele>
        <time>2019-05-24T13:50:06Z</time>
      </trkpt>
      <trkpt lat="44.27475" lon="5.78385">
        <ele>592</ele>
        <time>2019-05-24T13:50:07Z</time>
      </trkpt>
      <trkpt lat="44.27484" lon="5.78392">
        <ele>592</ele>
        <time>2019-05-24T13:50:08Z</time>
      </trkpt>
      <trkpt lat="44.27492" lon="5.78399">
        <ele>592</ele>
        <time>2019-05-24T13:50:09Z</time>
      </trkpt>
      <trkpt lat="44.27499" lon="5.78405">
        <ele>592</ele>
        <time>2019-05-24T13:50:10Z</time>
      </trkpt>
      <trkpt lat="44.27507" lon="5.78409">
        <ele>592</ele>
        <time>2019-05-24T13:50:11Z</time>
      </trkpt>
      <trkpt lat="44.27516" lon="5.78413">
        <ele>592</ele>
        <time>2019-05-24T13:50:12Z</time>
      </trkpt>
      <trkpt lat="44.27525" lon="5.78417">
        <ele>592</ele>
        <time>2019-05-24T13:50:13Z</time>
      </trkpt>
      <trkpt lat="44.27533" lon="5.78419">
        <ele>592</ele>
        <time>2019-05-24T13:50:14Z</time>
      </trkpt>
      <trkpt lat="44.27542" lon="5.78421">
        <ele>592</ele>
        <time>2019-05-24T13:50:15Z</time>
      </trkpt>
      <trkpt lat="44.27551" lon="5.7842">
        <ele>591</ele>
        <time>2019-05-24T13:50:16Z</time>
      </trkpt>
      <trkpt lat="44.27559" lon="5.78419">
        <ele>591</ele>
        <time>2019-05-24T13:50:17Z</time>
      </trkpt>
      <trkpt lat="44.27567" lon="5.78416">
        <ele>590</ele>
        <time>2019-05-24T13:50:18Z</time>
      </trkpt>
      <trkpt lat="44.27575" lon="5.78412">
        <ele>590</ele>
        <time>2019-05-24T13:50:19Z</time>
      </trkpt>
      <trkpt lat="44.27583" lon="5.78407">
        <ele>589</ele>
        <time>2019-05-24T13:50:20Z</time>
      </trkpt>
      <trkpt lat="44.27591" lon="5.78401">
        <ele>589</ele>
        <time>2019-05-24T13:50:21Z</time>
      </trkpt>
      <trkpt lat="44.27599" lon="5.78396">
        <ele>589</ele>
        <time>2019-05-24T13:50:22Z</time>
      </trkpt>
      <trkpt lat="44.27606" lon="5.7839">
        <ele>589</ele>
        <time>2019-05-24T13:50:23Z</time>
      </trkpt>
      <trkpt lat="44.27614" lon="5.78385">
        <ele>589</ele>
        <time>2019-05-24T13:50:24Z</time>
      </trkpt>
      <trkpt lat="44.27622" lon="5.78379">
        <ele>589</ele>
        <time>2019-05-24T13:50:25Z</time>
      </trkpt>
      <trkpt lat="44.27629" lon="5.78372">
        <ele>589</ele>
        <time>2019-05-24T13:50:26Z</time>
      </trkpt>
      <trkpt lat="44.27636" lon="5.78366">
        <ele>589</ele>
        <time>2019-05-24T13:50:27Z</time>
      </trkpt>
      <trkpt lat="44.27644" lon="5.7836">
        <ele>589</ele>
        <time>2019-05-24T13:50:28Z</time>
      </trkpt>
      <trkpt lat="44.27651" lon="5.78354">
        <ele>589</ele>
        <time>2019-05-24T13:50:29Z</time>
      </trkpt>
      <trkpt lat="44.27659" lon="5.78349">
        <ele>588</ele>
        <time>2019-05-24T13:50:30Z</time>
      </trkpt>
      <trkpt lat="44.27666" lon="5.78344">
        <ele>588</ele>
        <time>2019-05-24T13:50:31Z</time>
      </trkpt>
      <trkpt lat="44.27674" lon="5.78339">
        <ele>588</ele>
        <time>2019-05-24T13:50:32Z</time>
      </trkpt>
      <trkpt lat="44.27681" lon="5.78334">
        <ele>588</ele>
        <time>2019-05-24T13:50:33Z</time>
      </trkpt>
      <trkpt lat="44.27683" lon="5.78325">
        <ele>587</ele>
        <time>2019-05-24T13:50:34Z</time>
      </trkpt>
      <trkpt lat="44.27691" lon="5.78318">
        <ele>586</ele>
        <time>2019-05-24T13:50:35Z</time>
      </trkpt>
      <trkpt lat="44.27699" lon="5.7831">
        <ele>585</ele>
        <time>2019-05-24T13:50:36Z</time>
      </trkpt>
      <trkpt lat="44.27706" lon="5.78302">
        <ele>584</ele>
        <time>2019-05-24T13:50:37Z</time>
      </trkpt>
      <trkpt lat="44.27712" lon="5.78292">
        <ele>583</ele>
        <time>2019-05-24T13:50:38Z</time>
      </trkpt>
      <trkpt lat="44.27719" lon="5.78284">
        <ele>583</ele>
        <time>2019-05-24T13:50:39Z</time>
      </trkpt>
      <trkpt lat="44.27726" lon="5.78276">
        <ele>583</ele>
        <time>2019-05-24T13:50:40Z</time>
      </trkpt>
      <trkpt lat="44.27734" lon="5.78269">
        <ele>583</ele>
        <time>2019-05-24T13:50:41Z</time>
      </trkpt>
      <trkpt lat="44.27742" lon="5.78262">
        <ele>583</ele>
        <time>2019-05-24T13:50:42Z</time>
      </trkpt>
      <trkpt lat="44.27749" lon="5.78254">
        <ele>583</ele>
        <time>2019-05-24T13:50:43Z</time>
      </trkpt>
      <trkpt lat="44.27756" lon="5.78246">
        <ele>583</ele>
        <time>2019-05-24T13:50:44Z</time>
      </trkpt>
      <trkpt lat="44.27763" lon="5.78239">
        <ele>583</ele>
        <time>2019-05-24T13:50:45Z</time>
      </trkpt>
      <trkpt lat="44.27769" lon="5.78232">
        <ele>583</ele>
        <time>2019-05-24T13:50:46Z</time>
      </trkpt>
      <trkpt lat="44.27776" lon="5.78225">
        <ele>583</ele>
        <time>2019-05-24T13:50:47Z</time>
      </trkpt>
      <trkpt lat="44.27782" lon="5.78218">
        <ele>583</ele>
        <time>2019-05-24T13:50:48Z</time>
      </trkpt>
      <trkpt lat="44.27789" lon="5.7821">
        <ele>583</ele>
        <time>2019-05-24T13:50:49Z</time>
      </trkpt>
      <trkpt lat="44.27795" lon="5.78204">
        <ele>583</ele>
        <time>2019-05-24T13:50:50Z</time>
      </trkpt>
      <trkpt lat="44.27802" lon="5.78198">
        <ele>583</ele>
        <time>2019-05-24T13:50:51Z</time>
      </trkpt>
      <trkpt lat="44.27811" lon="5.78194">
        <ele>582</ele>
        <time>2019-05-24T13:50:52Z</time>
      </trkpt>
      <trkpt lat="44.27819" lon="5.78189">
        <ele>582</ele>
        <time>2019-05-24T13:50:53Z</time>
      </trkpt>
      <trkpt lat="44.27827" lon="5.78185">
        <ele>582</ele>
        <time>2019-05-24T13:50:54Z</time>
      </trkpt>
      <trkpt lat="44.27836" lon="5.78184">
        <ele>582</ele>
        <time>2019-05-24T13:50:55Z</time>
      </trkpt>
      <trkpt lat="44.27845" lon="5.78184">
        <ele>582</ele>
        <time>2019-05-24T13:50:56Z</time>
      </trkpt>
      <trkpt lat="44.27854" lon="5.78185">
        <ele>582</ele>
        <time>2019-05-24T13:50:57Z</time>
      </trkpt>
      <trkpt lat="44.27863" lon="5.78187">
        <ele>582</ele>
        <time>2019-05-24T13:50:58Z</time>
      </trkpt>
      <trkpt lat="44.27871" lon="5.78191">
        <ele>582</ele>
        <time>2019-05-24T13:50:59Z</time>
      </trkpt>
      <trkpt lat="44.27879" lon="5.78197">
        <ele>582</ele>
        <time>2019-05-24T13:51:00Z</time>
      </trkpt>
      <trkpt lat="44.27886" lon="5.78205">
        <ele>581</ele>
        <time>2019-05-24T13:51:01Z</time>
      </trkpt>
      <trkpt lat="44.27892" lon="5.78216">
        <ele>581</ele>
        <time>2019-05-24T13:51:02Z</time>
      </trkpt>
      <trkpt lat="44.27897" lon="5.78226">
        <ele>581</ele>
        <time>2019-05-24T13:51:03Z</time>
      </trkpt>
      <trkpt lat="44.27903" lon="5.78236">
        <ele>581</ele>
        <time>2019-05-24T13:51:04Z</time>
      </trkpt>
      <trkpt lat="44.27909" lon="5.78245">
        <ele>580</ele>
        <time>2019-05-24T13:51:05Z</time>
      </trkpt>
      <trkpt lat="44.27915" lon="5.78254">
        <ele>580</ele>
        <time>2019-05-24T13:51:06Z</time>
      </trkpt>
      <trkpt lat="44.2792" lon="5.78264">
        <ele>580</ele>
        <time>2019-05-24T13:51:07Z</time>
      </trkpt>
      <trkpt lat="44.27925" lon="5.78275">
        <ele>580</ele>
        <time>2019-05-24T13:51:08Z</time>
      </trkpt>
      <trkpt lat="44.27929" lon="5.78285">
        <ele>579</ele>
        <time>2019-05-24T13:51:09Z</time>
      </trkpt>
      <trkpt lat="44.27932" lon="5.78297">
        <ele>579</ele>
        <time>2019-05-24T13:51:10Z</time>
      </trkpt>
      <trkpt lat="44.27934" lon="5.78308">
        <ele>579</ele>
        <time>2019-05-24T13:51:11Z</time>
      </trkpt>
      <trkpt lat="44.27936" lon="5.78319">
        <ele>578</ele>
        <time>2019-05-24T13:51:12Z</time>
      </trkpt>
      <trkpt lat="44.27938" lon="5.78331">
        <ele>578</ele>
        <time>2019-05-24T13:51:13Z</time>
      </trkpt>
      <trkpt lat="44.2794" lon="5.78343">
        <ele>578</ele>
        <time>2019-05-24T13:51:14Z</time>
      </trkpt>
      <trkpt lat="44.27942" lon="5.78354">
        <ele>577</ele>
        <time>2019-05-24T13:51:15Z</time>
      </trkpt>
      <trkpt lat="44.27944" lon="5.78365">
        <ele>577</ele>
        <time>2019-05-24T13:51:16Z</time>
      </trkpt>
      <trkpt lat="44.27945" lon="5.78376">
        <ele>577</ele>
        <time>2019-05-24T13:51:17Z</time>
      </trkpt>
      <trkpt lat="44.27947" lon="5.78388">
        <ele>577</ele>
        <time>2019-05-24T13:51:18Z</time>
      </trkpt>
      <trkpt lat="44.2795" lon="5.78399">
        <ele>577</ele>
        <time>2019-05-24T13:51:19Z</time>
      </trkpt>
      <trkpt lat="44.27952" lon="5.78409">
        <ele>577</ele>
        <time>2019-05-24T13:51:20Z</time>
      </trkpt>
      <trkpt lat="44.27954" lon="5.7842">
        <ele>577</ele>
        <time>2019-05-24T13:51:21Z</time>
      </trkpt>
      <trkpt lat="44.27956" lon="5.78431">
        <ele>577</ele>
        <time>2019-05-24T13:51:22Z</time>
      </trkpt>
      <trkpt lat="44.27958" lon="5.78442">
        <ele>577</ele>
        <time>2019-05-24T13:51:23Z</time>
      </trkpt>
      <trkpt lat="44.2796" lon="5.78452">
        <ele>577</ele>
        <time>2019-05-24T13:51:24Z</time>
      </trkpt>
      <trkpt lat="44.27962" lon="5.78463">
        <ele>577</ele>
        <time>2019-05-24T13:51:25Z</time>
      </trkpt>
      <trkpt lat="44.27963" lon="5.78474">
        <ele>577</ele>
        <time>2019-05-24T13:51:26Z</time>
      </trkpt>
      <trkpt lat="44.27964" lon="5.78485">
        <ele>577</ele>
        <time>2019-05-24T13:51:27Z</time>
      </trkpt>
      <trkpt lat="44.27965" lon="5.78496">
        <ele>577</ele>
        <time>2019-05-24T13:51:28Z</time>
      </trkpt>
      <trkpt lat="44.27966" lon="5.78508">
        <ele>577</ele>
        <time>2019-05-24T13:51:29Z</time>
      </trkpt>
      <trkpt lat="44.27967" lon="5.78519">
        <ele>577</ele>
        <time>2019-05-24T13:51:30Z</time>
      </trkpt>
      <trkpt lat="44.27967" lon="5.7853">
        <ele>577</ele>
        <time>2019-05-24T13:51:31Z</time>
      </trkpt>
      <trkpt lat="44.27967" lon="5.78541">
        <ele>577</ele>
        <time>2019-05-24T13:51:32Z</time>
      </trkpt>
      <trkpt lat="44.27966" lon="5.78552">
        <ele>577</ele>
        <time>2019-05-24T13:51:33Z</time>
      </trkpt>
      <trkpt lat="44.27965" lon="5.78563">
        <ele>577</ele>
        <time>2019-05-24T13:51:34Z</time>
      </trkpt>
      <trkpt lat="44.27964" lon="5.78574">
        <ele>577</ele>
        <time>2019-05-24T13:51:35Z</time>
      </trkpt>
      <trkpt lat="44.27963" lon="5.78584">
        <ele>576</ele>
        <time>2019-05-24T13:51:36Z</time>
      </trkpt>
      <trkpt lat="44.27962" lon="5.78595">
        <ele>576</ele>
        <time>2019-05-24T13:51:37Z</time>
      </trkpt>
      <trkpt lat="44.2796" lon="5.78606">
        <ele>576</ele>
        <time>2019-05-24T13:51:38Z</time>
      </trkpt>
      <trkpt lat="44.27956" lon="5.78617">
        <ele>576</ele>
        <time>2019-05-24T13:51:39Z</time>
      </trkpt>
      <trkpt lat="44.27953" lon="5.78626">
        <ele>575</ele>
        <time>2019-05-24T13:51:40Z</time>
      </trkpt>
      <trkpt lat="44.27947" lon="5.78635">
        <ele>575</ele>
        <time>2019-05-24T13:51:41Z</time>
      </trkpt>
      <trkpt lat="44.27942" lon="5.78643">
        <ele>575</ele>
        <time>2019-05-24T13:51:42Z</time>
      </trkpt>
      <trkpt lat="44.27937" lon="5.78651">
        <ele>575</ele>
        <time>2019-05-24T13:51:43Z</time>
      </trkpt>
      <trkpt lat="44.27933" lon="5.78659">
        <ele>575</ele>
        <time>2019-05-24T13:51:44Z</time>
      </trkpt>
      <trkpt lat="44.2793" lon="5.78667">
        <ele>575</ele>
        <time>2019-05-24T13:51:45Z</time>
      </trkpt>
      <trkpt lat="44.27928" lon="5.78677">
        <ele>575</ele>
        <time>2019-05-24T13:51:46Z</time>
      </trkpt>
      <trkpt lat="44.27926" lon="5.78684">
        <ele>575</ele>
        <time>2019-05-24T13:51:47Z</time>
      </trkpt>
      <trkpt lat="44.27927" lon="5.78695">
        <ele>575</ele>
        <time>2019-05-24T13:51:48Z</time>
      </trkpt>
      <trkpt lat="44.27928" lon="5.78707">
        <ele>575</ele>
        <time>2019-05-24T13:51:49Z</time>
      </trkpt>
      <trkpt lat="44.2793" lon="5.78719">
        <ele>575</ele>
        <time>2019-05-24T13:51:50Z</time>
      </trkpt>
      <trkpt lat="44.27932" lon="5.7873">
        <ele>575</ele>
        <time>2019-05-24T13:51:51Z</time>
      </trkpt>
      <trkpt lat="44.27933" lon="5.78741">
        <ele>575</ele>
        <time>2019-05-24T13:51:52Z</time>
      </trkpt>
      <trkpt lat="44.27935" lon="5.78751">
        <ele>575</ele>
        <time>2019-05-24T13:51:53Z</time>
      </trkpt>
      <trkpt lat="44.27937" lon="5.78761">
        <ele>575</ele>
        <time>2019-05-24T13:51:54Z</time>
      </trkpt>
      <trkpt lat="44.2794" lon="5.78771">
        <ele>575</ele>
        <time>2019-05-24T13:51:55Z</time>
      </trkpt>
      <trkpt lat="44.27943" lon="5.7878">
        <ele>575</ele>
        <time>2019-05-24T13:51:56Z</time>
      </trkpt>
      <trkpt lat="44.27946" lon="5.78789">
        <ele>575</ele>
        <time>2019-05-24T13:51:57Z</time>
      </trkpt>
      <trkpt lat="44.27949" lon="5.78799">
        <ele>576</ele>
        <time>2019-05-24T13:51:58Z</time>
      </trkpt>
      <trkpt lat="44.27951" lon="5.78808">
        <ele>576</ele>
        <time>2019-05-24T13:51:59Z</time>
      </trkpt>
      <trkpt lat="44.27953" lon="5.78818">
        <ele>576</ele>
        <time>2019-05-24T13:52:00Z</time>
      </trkpt>
      <trkpt lat="44.27956" lon="5.78827">
        <ele>576</ele>
        <time>2019-05-24T13:52:01Z</time>
      </trkpt>
      <trkpt lat="44.27958" lon="5.78836">
        <ele>576</ele>
        <time>2019-05-24T13:52:02Z</time>
      </trkpt>
      <trkpt lat="44.27959" lon="5.78845">
        <ele>577</ele>
        <time>2019-05-24T13:52:03Z</time>
      </trkpt>
      <trkpt lat="44.27961" lon="5.78854">
        <ele>577</ele>
        <time>2019-05-24T13:52:04Z</time>
      </trkpt>
      <trkpt lat="44.27962" lon="5.78863">
        <ele>577</ele>
        <time>2019-05-24T13:52:05Z</time>
      </trkpt>
      <trkpt lat="44.27963" lon="5.78872">
        <ele>577</ele>
        <time>2019-05-24T13:52:06Z</time>
      </trkpt>
      <trkpt lat="44.27964" lon="5.78881">
        <ele>578</ele>
        <time>2019-05-24T13:52:07Z</time>
      </trkpt>
      <trkpt lat="44.27964" lon="5.78891">
        <ele>578</ele>
        <time>2019-05-24T13:52:08Z</time>
      </trkpt>
      <trkpt lat="44.27964" lon="5.789">
        <ele>578</ele>
        <time>2019-05-24T13:52:09Z</time>
      </trkpt>
      <trkpt lat="44.27964" lon="5.78909">
        <ele>578</ele>
        <time>2019-05-24T13:52:10Z</time>
      </trkpt>
      <trkpt lat="44.27963" lon="5.78919">
        <ele>578</ele>
        <time>2019-05-24T13:52:11Z</time>
      </trkpt>
      <trkpt lat="44.27962" lon="5.78928">
        <ele>578</ele>
        <time>2019-05-24T13:52:12Z</time>
      </trkpt>
      <trkpt lat="44.27961" lon="5.78937">
        <ele>578</ele>
        <time>2019-05-24T13:52:13Z</time>
      </trkpt>
      <trkpt lat="44.27959" lon="5.78946">
        <ele>578</ele>
        <time>2019-05-24T13:52:14Z</time>
      </trkpt>
      <trkpt lat="44.27956" lon="5.78956">
        <ele>578</ele>
        <time>2019-05-24T13:52:15Z</time>
      </trkpt>
      <trkpt lat="44.27952" lon="5.78964">
        <ele>578</ele>
        <time>2019-05-24T13:52:16Z</time>
      </trkpt>
      <trkpt lat="44.27948" lon="5.78972">
        <ele>578</ele>
        <time>2019-05-24T13:52:17Z</time>
      </trkpt>
      <trkpt lat="44.27944" lon="5.78978">
        <ele>578</ele>
        <time>2019-05-24T13:52:18Z</time>
      </trkpt>
      <trkpt lat="44.27939" lon="5.78984">
        <ele>578</ele>
        <time>2019-05-24T13:52:19Z</time>
      </trkpt>
      <trkpt lat="44.27933" lon="5.7899">
        <ele>579</ele>
        <time>2019-05-24T13:52:20Z</time>
      </trkpt>
      <trkpt lat="44.27926" lon="5.78995">
        <ele>579</ele>
        <time>2019-05-24T13:52:21Z</time>
      </trkpt>
      <trkpt lat="44.27919" lon="5.79">
        <ele>580</ele>
        <time>2019-05-24T13:52:22Z</time>
      </trkpt>
      <trkpt lat="44.27914" lon="5.79004">
        <ele>580</ele>
        <time>2019-05-24T13:52:23Z</time>
      </trkpt>
      <trkpt lat="44.27908" lon="5.79008">
        <ele>580</ele>
        <time>2019-05-24T13:52:24Z</time>
      </trkpt>
      <trkpt lat="44.27901" lon="5.79012">
        <ele>581</ele>
        <time>2019-05-24T13:52:25Z</time>
      </trkpt>
      <trkpt lat="44.27895" lon="5.79016">
        <ele>581</ele>
        <time>2019-05-24T13:52:26Z</time>
      </trkpt>
      <trkpt lat="44.27889" lon="5.79018">
        <ele>581</ele>
        <time>2019-05-24T13:52:27Z</time>
      </trkpt>
      <trkpt lat="44.27882" lon="5.79019">
        <ele>581</ele>
        <time>2019-05-24T13:52:28Z</time>
      </trkpt>
      <trkpt lat="44.27876" lon="5.79018">
        <ele>581</ele>
        <time>2019-05-24T13:52:29Z</time>
      </trkpt>
      <trkpt lat="44.2787" lon="5.79018">
        <ele>581</ele>
        <time>2019-05-24T13:52:30Z</time>
      </trkpt>
      <trkpt lat="44.27864" lon="5.79017">
        <ele>581</ele>
        <time>2019-05-24T13:52:31Z</time>
      </trkpt>
      <trkpt lat="44.27858" lon="5.79016">
        <ele>581</ele>
        <time>2019-05-24T13:52:32Z</time>
      </trkpt>
      <trkpt lat="44.27852" lon="5.79013">
        <ele>581</ele>
        <time>2019-05-24T13:52:33Z</time>
      </trkpt>
      <trkpt lat="44.27847" lon="5.79009">
        <ele>581</ele>
        <time>2019-05-24T13:52:34Z</time>
      </trkpt>
      <trkpt lat="44.27841" lon="5.79005">
        <ele>581</ele>
        <time>2019-05-24T13:52:35Z</time>
      </trkpt>
      <trkpt lat="44.27835" lon="5.79">
        <ele>581</ele>
        <time>2019-05-24T13:52:36Z</time>
      </trkpt>
      <trkpt lat="44.27829" lon="5.78997">
        <ele>581</ele>
        <time>2019-05-24T13:52:37Z</time>
      </trkpt>
      <trkpt lat="44.27792" lon="5.79029">
        <ele>581</ele>
        <time>2019-05-24T13:52:44Z</time>
      </trkpt>
      <trkpt lat="44.27798" lon="5.79038">
        <ele>580</ele>
        <time>2019-05-24T13:52:45Z</time>
      </trkpt>
      <trkpt lat="44.27808" lon="5.79046">
        <ele>579</ele>
        <time>2019-05-24T13:52:46Z</time>
      </trkpt>
      <trkpt lat="44.27811" lon="5.79055">
        <ele>578</ele>
        <time>2019-05-24T13:52:47Z</time>
      </trkpt>
      <trkpt lat="44.27818" lon="5.79062">
        <ele>577</ele>
        <time>2019-05-24T13:52:48Z</time>
      </trkpt>
      <trkpt lat="44.27825" lon="5.79068">
        <ele>576</ele>
        <time>2019-05-24T13:52:49Z</time>
      </trkpt>
      <trkpt lat="44.27831" lon="5.79074">
        <ele>576</ele>
        <time>2019-05-24T13:52:50Z</time>
      </trkpt>
      <trkpt lat="44.27836" lon="5.7908">
        <ele>576</ele>
        <time>2019-05-24T13:52:51Z</time>
      </trkpt>
      <trkpt lat="44.2784" lon="5.7909">
        <ele>576</ele>
        <time>2019-05-24T13:52:52Z</time>
      </trkpt>
      <trkpt lat="44.27844" lon="5.79101">
        <ele>576</ele>
        <time>2019-05-24T13:52:53Z</time>
      </trkpt>
      <trkpt lat="44.27847" lon="5.79111">
        <ele>576</ele>
        <time>2019-05-24T13:52:54Z</time>
      </trkpt>
      <trkpt lat="44.27849" lon="5.79121">
        <ele>576</ele>
        <time>2019-05-24T13:52:55Z</time>
      </trkpt>
      <trkpt lat="44.27853" lon="5.79131">
        <ele>576</ele>
        <time>2019-05-24T13:52:56Z</time>
      </trkpt>
      <trkpt lat="44.27857" lon="5.79141">
        <ele>576</ele>
        <time>2019-05-24T13:52:57Z</time>
      </trkpt>
      <trkpt lat="44.27861" lon="5.7915">
        <ele>576</ele>
        <time>2019-05-24T13:52:58Z</time>
      </trkpt>
      <trkpt lat="44.27865" lon="5.79161">
        <ele>576</ele>
        <time>2019-05-24T13:52:59Z</time>
      </trkpt>
      <trkpt lat="44.27869" lon="5.79171">
        <ele>576</ele>
        <time>2019-05-24T13:53:00Z</time>
      </trkpt>
      <trkpt lat="44.27868" lon="5.79183">
        <ele>576</ele>
        <time>2019-05-24T13:53:01Z</time>
      </trkpt>
      <trkpt lat="44.27867" lon="5.79195">
        <ele>576</ele>
        <time>2019-05-24T13:53:02Z</time>
      </trkpt>
      <trkpt lat="44.27866" lon="5.79208">
        <ele>576</ele>
        <time>2019-05-24T13:53:03Z</time>
      </trkpt>
      <trkpt lat="44.27864" lon="5.79221">
        <ele>576</ele>
        <time>2019-05-24T13:53:04Z</time>
      </trkpt>
      <trkpt lat="44.27861" lon="5.79232">
        <ele>576</ele>
        <time>2019-05-24T13:53:05Z</time>
      </trkpt>
      <trkpt lat="44.27856" lon="5.79243">
        <ele>575</ele>
        <time>2019-05-24T13:53:06Z</time>
      </trkpt>
      <trkpt lat="44.2785" lon="5.79254">
        <ele>575</ele>
        <time>2019-05-24T13:53:07Z</time>
      </trkpt>
      <trkpt lat="44.27846" lon="5.79265">
        <ele>574</ele>
        <time>2019-05-24T13:53:08Z</time>
      </trkpt>
      <trkpt lat="44.27841" lon="5.79276">
        <ele>574</ele>
        <time>2019-05-24T13:53:09Z</time>
      </trkpt>
      <trkpt lat="44.27835" lon="5.79286">
        <ele>574</ele>
        <time>2019-05-24T13:53:10Z</time>
      </trkpt>
      <trkpt lat="44.2783" lon="5.79297">
        <ele>574</ele>
        <time>2019-05-24T13:53:11Z</time>
      </trkpt>
      <trkpt lat="44.27825" lon="5.79306">
        <ele>573</ele>
        <time>2019-05-24T13:53:12Z</time>
      </trkpt>
      <trkpt lat="44.27819" lon="5.79315">
        <ele>573</ele>
        <time>2019-05-24T13:53:13Z</time>
      </trkpt>
      <trkpt lat="44.27812" lon="5.79322">
        <ele>573</ele>
        <time>2019-05-24T13:53:14Z</time>
      </trkpt>
      <trkpt lat="44.27804" lon="5.79329">
        <ele>572</ele>
        <time>2019-05-24T13:53:15Z</time>
      </trkpt>
      <trkpt lat="44.27795" lon="5.79333">
        <ele>572</ele>
        <time>2019-05-24T13:53:16Z</time>
      </trkpt>
      <trkpt lat="44.27785" lon="5.79335">
        <ele>572</ele>
        <time>2019-05-24T13:53:17Z</time>
      </trkpt>
      <trkpt lat="44.27776" lon="5.79336">
        <ele>572</ele>
        <time>2019-05-24T13:53:18Z</time>
      </trkpt>
      <trkpt lat="44.27766" lon="5.79338">
        <ele>572</ele>
        <time>2019-05-24T13:53:19Z</time>
      </trkpt>
      <trkpt lat="44.27757" lon="5.79342">
        <ele>572</ele>
        <time>2019-05-24T13:53:20Z</time>
      </trkpt>
      <trkpt lat="44.27748" lon="5.79348">
        <ele>572</ele>
        <time>2019-05-24T13:53:21Z</time>
      </trkpt>
      <trkpt lat="44.2774" lon="5.79354">
        <ele>572</ele>
        <time>2019-05-24T13:53:22Z</time>
      </trkpt>
      <trkpt lat="44.27733" lon="5.79362">
        <ele>572</ele>
        <time>2019-05-24T13:53:23Z</time>
      </trkpt>
      <trkpt lat="44.27726" lon="5.79371">
        <ele>572</ele>
        <time>2019-05-24T13:53:24Z</time>
      </trkpt>
      <trkpt lat="44.2772" lon="5.79381">
        <ele>572</ele>
        <time>2019-05-24T13:53:25Z</time>
      </trkpt>
      <trkpt lat="44.27714" lon="5.79392">
        <ele>572</ele>
        <time>2019-05-24T13:53:26Z</time>
      </trkpt>
      <trkpt lat="44.27705" lon="5.79414">
        <ele>572</ele>
        <time>2019-05-24T13:53:28Z</time>
      </trkpt>
      <trkpt lat="44.27699" lon="5.79426">
        <ele>572</ele>
        <time>2019-05-24T13:53:29Z</time>
      </trkpt>
      <trkpt lat="44.27695" lon="5.79439">
        <ele>572</ele>
        <time>2019-05-24T13:53:30Z</time>
      </trkpt>
      <trkpt lat="44.27694" lon="5.79453">
        <ele>572</ele>
        <time>2019-05-24T13:53:31Z</time>
      </trkpt>
      <trkpt lat="44.27694" lon="5.79469">
        <ele>571</ele>
        <time>2019-05-24T13:53:32Z</time>
      </trkpt>
      <trkpt lat="44.27693" lon="5.79483">
        <ele>570</ele>
        <time>2019-05-24T13:53:33Z</time>
      </trkpt>
      <trkpt lat="44.27692" lon="5.79497">
        <ele>569</ele>
        <time>2019-05-24T13:53:34Z</time>
      </trkpt>
      <trkpt lat="44.27692" lon="5.7951">
        <ele>568</ele>
        <time>2019-05-24T13:53:35Z</time>
      </trkpt>
      <trkpt lat="44.27691" lon="5.79524">
        <ele>568</ele>
        <time>2019-05-24T13:53:36Z</time>
      </trkpt>
      <trkpt lat="44.27689" lon="5.79538">
        <ele>568</ele>
        <time>2019-05-24T13:53:37Z</time>
      </trkpt>
      <trkpt lat="44.27686" lon="5.79552">
        <ele>568</ele>
        <time>2019-05-24T13:53:38Z</time>
      </trkpt>
      <trkpt lat="44.27684" lon="5.79565">
        <ele>568</ele>
        <time>2019-05-24T13:53:39Z</time>
      </trkpt>
      <trkpt lat="44.27684" lon="5.79579">
        <ele>568</ele>
        <time>2019-05-24T13:53:40Z</time>
      </trkpt>
      <trkpt lat="44.27683" lon="5.79592">
        <ele>568</ele>
        <time>2019-05-24T13:53:41Z</time>
      </trkpt>
      <trkpt lat="44.27682" lon="5.79605">
        <ele>568</ele>
        <time>2019-05-24T13:53:42Z</time>
      </trkpt>
      <trkpt lat="44.2768" lon="5.79618">
        <ele>568</ele>
        <time>2019-05-24T13:53:43Z</time>
      </trkpt>
      <trkpt lat="44.2768" lon="5.79632">
        <ele>568</ele>
        <time>2019-05-24T13:53:44Z</time>
      </trkpt>
      <trkpt lat="44.27679" lon="5.79644">
        <ele>568</ele>
        <time>2019-05-24T13:53:45Z</time>
      </trkpt>
      <trkpt lat="44.27676" lon="5.79657">
        <ele>568</ele>
        <time>2019-05-24T13:53:46Z</time>
      </trkpt>
      <trkpt lat="44.27675" lon="5.7967">
        <ele>568</ele>
        <time>2019-05-24T13:53:47Z</time>
      </trkpt>
      <trkpt lat="44.27675" lon="5.79683">
        <ele>568</ele>
        <time>2019-05-24T13:53:48Z</time>
      </trkpt>
      <trkpt lat="44.27673" lon="5.79696">
        <ele>568</ele>
        <time>2019-05-24T13:53:49Z</time>
      </trkpt>
      <trkpt lat="44.27672" lon="5.79709">
        <ele>568</ele>
        <time>2019-05-24T13:53:50Z</time>
      </trkpt>
      <trkpt lat="44.27671" lon="5.79721">
        <ele>568</ele>
        <time>2019-05-24T13:53:51Z</time>
      </trkpt>
      <trkpt lat="44.27669" lon="5.79735">
        <ele>568</ele>
        <time>2019-05-24T13:53:52Z</time>
      </trkpt>
      <trkpt lat="44.27668" lon="5.79747">
        <ele>568</ele>
        <time>2019-05-24T13:53:53Z</time>
      </trkpt>
      <trkpt lat="44.27666" lon="5.79761">
        <ele>568</ele>
        <time>2019-05-24T13:53:54Z</time>
      </trkpt>
      <trkpt lat="44.27663" lon="5.79774">
        <ele>568</ele>
        <time>2019-05-24T13:53:55Z</time>
      </trkpt>
      <trkpt lat="44.27658" lon="5.79785">
        <ele>568</ele>
        <time>2019-05-24T13:53:56Z</time>
      </trkpt>
      <trkpt lat="44.27655" lon="5.79797">
        <ele>568</ele>
        <time>2019-05-24T13:53:57Z</time>
      </trkpt>
      <trkpt lat="44.27653" lon="5.79809">
        <ele>568</ele>
        <time>2019-05-24T13:53:58Z</time>
      </trkpt>
      <trkpt lat="44.2765" lon="5.79822">
        <ele>568</ele>
        <time>2019-05-24T13:53:59Z</time>
      </trkpt>
      <trkpt lat="44.27647" lon="5.79834">
        <ele>568</ele>
        <time>2019-05-24T13:54:00Z</time>
      </trkpt>
      <trkpt lat="44.27643" lon="5.79845">
        <ele>568</ele>
        <time>2019-05-24T13:54:01Z</time>
      </trkpt>
      <trkpt lat="44.27639" lon="5.79855">
        <ele>568</ele>
        <time>2019-05-24T13:54:02Z</time>
      </trkpt>
      <trkpt lat="44.27634" lon="5.79865">
        <ele>568</ele>
        <time>2019-05-24T13:54:03Z</time>
      </trkpt>
      <trkpt lat="44.2763" lon="5.79874">
        <ele>568</ele>
        <time>2019-05-24T13:54:04Z</time>
      </trkpt>
      <trkpt lat="44.27626" lon="5.79884">
        <ele>568</ele>
        <time>2019-05-24T13:54:05Z</time>
      </trkpt>
      <trkpt lat="44.27624" lon="5.79894">
        <ele>568</ele>
        <time>2019-05-24T13:54:06Z</time>
      </trkpt>
      <trkpt lat="44.27621" lon="5.79905">
        <ele>568</ele>
        <time>2019-05-24T13:54:07Z</time>
      </trkpt>
      <trkpt lat="44.27618" lon="5.79915">
        <ele>568</ele>
        <time>2019-05-24T13:54:08Z</time>
      </trkpt>
      <trkpt lat="44.27616" lon="5.79924">
        <ele>568</ele>
        <time>2019-05-24T13:54:09Z</time>
      </trkpt>
      <trkpt lat="44.27613" lon="5.79935">
        <ele>568</ele>
        <time>2019-05-24T13:54:10Z</time>
      </trkpt>
      <trkpt lat="44.27611" lon="5.79946">
        <ele>568</ele>
        <time>2019-05-24T13:54:11Z</time>
      </trkpt>
      <trkpt lat="44.2761" lon="5.79958">
        <ele>567</ele>
        <time>2019-05-24T13:54:12Z</time>
      </trkpt>
      <trkpt lat="44.27605" lon="5.79968">
        <ele>567</ele>
        <time>2019-05-24T13:54:13Z</time>
      </trkpt>
      <trkpt lat="44.27603" lon="5.79979">
        <ele>566</ele>
        <time>2019-05-24T13:54:14Z</time>
      </trkpt>
      <trkpt lat="44.276" lon="5.7999">
        <ele>565</ele>
        <time>2019-05-24T13:54:15Z</time>
      </trkpt>
      <trkpt lat="44.27597" lon="5.80001">
        <ele>565</ele>
        <time>2019-05-24T13:54:16Z</time>
      </trkpt>
      <trkpt lat="44.27593" lon="5.80012">
        <ele>564</ele>
        <time>2019-05-24T13:54:17Z</time>
      </trkpt>
      <trkpt lat="44.2759" lon="5.80023">
        <ele>563</ele>
        <time>2019-05-24T13:54:18Z</time>
      </trkpt>
      <trkpt lat="44.27585" lon="5.80033">
        <ele>562</ele>
        <time>2019-05-24T13:54:19Z</time>
      </trkpt>
      <trkpt lat="44.2758" lon="5.80044">
        <ele>561</ele>
        <time>2019-05-24T13:54:20Z</time>
      </trkpt>
      <trkpt lat="44.27577" lon="5.80056">
        <ele>560</ele>
        <time>2019-05-24T13:54:21Z</time>
      </trkpt>
      <trkpt lat="44.27573" lon="5.80068">
        <ele>559</ele>
        <time>2019-05-24T13:54:22Z</time>
      </trkpt>
      <trkpt lat="44.27569" lon="5.8008">
        <ele>559</ele>
        <time>2019-05-24T13:54:23Z</time>
      </trkpt>
      <trkpt lat="44.27564" lon="5.80091">
        <ele>558</ele>
        <time>2019-05-24T13:54:24Z</time>
      </trkpt>
      <trkpt lat="44.27559" lon="5.80103">
        <ele>557</ele>
        <time>2019-05-24T13:54:25Z</time>
      </trkpt>
      <trkpt lat="44.27553" lon="5.80114">
        <ele>557</ele>
        <time>2019-05-24T13:54:26Z</time>
      </trkpt>
      <trkpt lat="44.27546" lon="5.80124">
        <ele>557</ele>
        <time>2019-05-24T13:54:27Z</time>
      </trkpt>
      <trkpt lat="44.27542" lon="5.80136">
        <ele>557</ele>
        <time>2019-05-24T13:54:28Z</time>
      </trkpt>
      <trkpt lat="44.27536" lon="5.80147">
        <ele>556</ele>
        <time>2019-05-24T13:54:29Z</time>
      </trkpt>
      <trkpt lat="44.27528" lon="5.80157">
        <ele>556</ele>
        <time>2019-05-24T13:54:30Z</time>
      </trkpt>
      <trkpt lat="44.27521" lon="5.80167">
        <ele>556</ele>
        <time>2019-05-24T13:54:31Z</time>
      </trkpt>
      <trkpt lat="44.27514" lon="5.80178">
        <ele>556</ele>
        <time>2019-05-24T13:54:32Z</time>
      </trkpt>
      <trkpt lat="44.27506" lon="5.80189">
        <ele>556</ele>
        <time>2019-05-24T13:54:33Z</time>
      </trkpt>
      <trkpt lat="44.27499" lon="5.802">
        <ele>556</ele>
        <time>2019-05-24T13:54:34Z</time>
      </trkpt>
      <trkpt lat="44.27492" lon="5.80211">
        <ele>556</ele>
        <time>2019-05-24T13:54:35Z</time>
      </trkpt>
      <trkpt lat="44.27486" lon="5.80223">
        <ele>555</ele>
        <time>2019-05-24T13:54:36Z</time>
      </trkpt>
      <trkpt lat="44.27479" lon="5.80235">
        <ele>555</ele>
        <time>2019-05-24T13:54:37Z</time>
      </trkpt>
      <trkpt lat="44.27474" lon="5.80248">
        <ele>555</ele>
        <time>2019-05-24T13:54:38Z</time>
      </trkpt>
      <trkpt lat="44.27469" lon="5.80261">
        <ele>555</ele>
        <time>2019-05-24T13:54:39Z</time>
      </trkpt>
      <trkpt lat="44.27464" lon="5.80273">
        <ele>554</ele>
        <time>2019-05-24T13:54:40Z</time>
      </trkpt>
      <trkpt lat="44.27458" lon="5.80287">
        <ele>554</ele>
        <time>2019-05-24T13:54:41Z</time>
      </trkpt>
      <trkpt lat="44.27453" lon="5.803">
        <ele>553</ele>
        <time>2019-05-24T13:54:42Z</time>
      </trkpt>
      <trkpt lat="44.27448" lon="5.80313">
        <ele>553</ele>
        <time>2019-05-24T13:54:43Z</time>
      </trkpt>
      <trkpt lat="44.27443" lon="5.80327">
        <ele>552</ele>
        <time>2019-05-24T13:54:44Z</time>
      </trkpt>
      <trkpt lat="44.27438" lon="5.80341">
        <ele>552</ele>
        <time>2019-05-24T13:54:45Z</time>
      </trkpt>
      <trkpt lat="44.27434" lon="5.80355">
        <ele>551</ele>
        <time>2019-05-24T13:54:46Z</time>
      </trkpt>
      <trkpt lat="44.2743" lon="5.8037">
        <ele>551</ele>
        <time>2019-05-24T13:54:47Z</time>
      </trkpt>
      <trkpt lat="44.27425" lon="5.80384">
        <ele>551</ele>
        <time>2019-05-24T13:54:48Z</time>
      </trkpt>
      <trkpt lat="44.27421" lon="5.80398">
        <ele>550</ele>
        <time>2019-05-24T13:54:49Z</time>
      </trkpt>
      <trkpt lat="44.27417" lon="5.80412">
        <ele>550</ele>
        <time>2019-05-24T13:54:50Z</time>
      </trkpt>
      <trkpt lat="44.27413" lon="5.80425">
        <ele>550</ele>
        <time>2019-05-24T13:54:51Z</time>
      </trkpt>
      <trkpt lat="44.27408" lon="5.80438">
        <ele>550</ele>
        <time>2019-05-24T13:54:52Z</time>
      </trkpt>
      <trkpt lat="44.27404" lon="5.8045">
        <ele>550</ele>
        <time>2019-05-24T13:54:53Z</time>
      </trkpt>
      <trkpt lat="44.27399" lon="5.80462">
        <ele>550</ele>
        <time>2019-05-24T13:54:54Z</time>
      </trkpt>
      <trkpt lat="44.27395" lon="5.80473">
        <ele>550</ele>
        <time>2019-05-24T13:54:55Z</time>
      </trkpt>
      <trkpt lat="44.2739" lon="5.80484">
        <ele>550</ele>
        <time>2019-05-24T13:54:56Z</time>
      </trkpt>
      <trkpt lat="44.27385" lon="5.80495">
        <ele>550</ele>
        <time>2019-05-24T13:54:57Z</time>
      </trkpt>
      <trkpt lat="44.27379" lon="5.80505">
        <ele>550</ele>
        <time>2019-05-24T13:54:58Z</time>
      </trkpt>
      <trkpt lat="44.27374" lon="5.80515">
        <ele>549</ele>
        <time>2019-05-24T13:54:59Z</time>
      </trkpt>
      <trkpt lat="44.27368" lon="5.80525">
        <ele>549</ele>
        <time>2019-05-24T13:55:00Z</time>
      </trkpt>
      <trkpt lat="44.27362" lon="5.80535">
        <ele>549</ele>
        <time>2019-05-24T13:55:01Z</time>
      </trkpt>
      <trkpt lat="44.27356" lon="5.80545">
        <ele>549</ele>
        <time>2019-05-24T13:55:02Z</time>
      </trkpt>
      <trkpt lat="44.27351" lon="5.80554">
        <ele>549</ele>
        <time>2019-05-24T13:55:03Z</time>
      </trkpt>
      <trkpt lat="44.27346" lon="5.80564">
        <ele>549</ele>
        <time>2019-05-24T13:55:04Z</time>
      </trkpt>
      <trkpt lat="44.27341" lon="5.80574">
        <ele>549</ele>
        <time>2019-05-24T13:55:05Z</time>
      </trkpt>
      <trkpt lat="44.27337" lon="5.80584">
        <ele>548</ele>
        <time>2019-05-24T13:55:06Z</time>
      </trkpt>
      <trkpt lat="44.27333" lon="5.80596">
        <ele>548</ele>
        <time>2019-05-24T13:55:07Z</time>
      </trkpt>
      <trkpt lat="44.27331" lon="5.80608">
        <ele>548</ele>
        <time>2019-05-24T13:55:08Z</time>
      </trkpt>
      <trkpt lat="44.2733" lon="5.8062">
        <ele>548</ele>
        <time>2019-05-24T13:55:09Z</time>
      </trkpt>
      <trkpt lat="44.27329" lon="5.80632">
        <ele>547</ele>
        <time>2019-05-24T13:55:10Z</time>
      </trkpt>
      <trkpt lat="44.2733" lon="5.80645">
        <ele>547</ele>
        <time>2019-05-24T13:55:11Z</time>
      </trkpt>
      <trkpt lat="44.2733" lon="5.80658">
        <ele>547</ele>
        <time>2019-05-24T13:55:12Z</time>
      </trkpt>
      <trkpt lat="44.2733" lon="5.80671">
        <ele>547</ele>
        <time>2019-05-24T13:55:13Z</time>
      </trkpt>
      <trkpt lat="44.27327" lon="5.80684">
        <ele>546</ele>
        <time>2019-05-24T13:55:14Z</time>
      </trkpt>
      <trkpt lat="44.27323" lon="5.80696">
        <ele>546</ele>
        <time>2019-05-24T13:55:15Z</time>
      </trkpt>
      <trkpt lat="44.27317" lon="5.80707">
        <ele>546</ele>
        <time>2019-05-24T13:55:16Z</time>
      </trkpt>
      <trkpt lat="44.27311" lon="5.80718">
        <ele>545</ele>
        <time>2019-05-24T13:55:17Z</time>
      </trkpt>
      <trkpt lat="44.27305" lon="5.80729">
        <ele>545</ele>
        <time>2019-05-24T13:55:18Z</time>
      </trkpt>
      <trkpt lat="44.273" lon="5.80741">
        <ele>544</ele>
        <time>2019-05-24T13:55:19Z</time>
      </trkpt>
      <trkpt lat="44.27294" lon="5.80754">
        <ele>544</ele>
        <time>2019-05-24T13:55:20Z</time>
      </trkpt>
      <trkpt lat="44.2729" lon="5.80767">
        <ele>544</ele>
        <time>2019-05-24T13:55:21Z</time>
      </trkpt>
      <trkpt lat="44.27285" lon="5.80781">
        <ele>544</ele>
        <time>2019-05-24T13:55:22Z</time>
      </trkpt>
      <trkpt lat="44.27281" lon="5.80794">
        <ele>544</ele>
        <time>2019-05-24T13:55:23Z</time>
      </trkpt>
      <trkpt lat="44.27276" lon="5.80807">
        <ele>544</ele>
        <time>2019-05-24T13:55:24Z</time>
      </trkpt>
      <trkpt lat="44.27272" lon="5.8082">
        <ele>544</ele>
        <time>2019-05-24T13:55:25Z</time>
      </trkpt>
      <trkpt lat="44.27269" lon="5.80832">
        <ele>544</ele>
        <time>2019-05-24T13:55:26Z</time>
      </trkpt>
      <trkpt lat="44.27265" lon="5.80845">
        <ele>544</ele>
        <time>2019-05-24T13:55:27Z</time>
      </trkpt>
      <trkpt lat="44.27262" lon="5.80857">
        <ele>544</ele>
        <time>2019-05-24T13:55:28Z</time>
      </trkpt>
      <trkpt lat="44.27258" lon="5.80871">
        <ele>544</ele>
        <time>2019-05-24T13:55:29Z</time>
      </trkpt>
      <trkpt lat="44.27254" lon="5.80885">
        <ele>544</ele>
        <time>2019-05-24T13:55:30Z</time>
      </trkpt>
      <trkpt lat="44.27251" lon="5.80898">
        <ele>544</ele>
        <time>2019-05-24T13:55:31Z</time>
      </trkpt>
      <trkpt lat="44.27247" lon="5.80911">
        <ele>544</ele>
        <time>2019-05-24T13:55:32Z</time>
      </trkpt>
      <trkpt lat="44.27243" lon="5.80925">
        <ele>544</ele>
        <time>2019-05-24T13:55:33Z</time>
      </trkpt>
      <trkpt lat="44.2724" lon="5.80939">
        <ele>544</ele>
        <time>2019-05-24T13:55:34Z</time>
      </trkpt>
      <trkpt lat="44.27237" lon="5.80952">
        <ele>544</ele>
        <time>2019-05-24T13:55:35Z</time>
      </trkpt>
      <trkpt lat="44.27234" lon="5.80964">
        <ele>544</ele>
        <time>2019-05-24T13:55:36Z</time>
      </trkpt>
      <trkpt lat="44.27231" lon="5.80977">
        <ele>544</ele>
        <time>2019-05-24T13:55:37Z</time>
      </trkpt>
      <trkpt lat="44.27229" lon="5.80989">
        <ele>544</ele>
        <time>2019-05-24T13:55:38Z</time>
      </trkpt>
      <trkpt lat="44.27227" lon="5.81001">
        <ele>544</ele>
        <time>2019-05-24T13:55:39Z</time>
      </trkpt>
      <trkpt lat="44.27225" lon="5.81013">
        <ele>544</ele>
        <time>2019-05-24T13:55:40Z</time>
      </trkpt>
      <trkpt lat="44.27223" lon="5.81025">
        <ele>543</ele>
        <time>2019-05-24T13:55:41Z</time>
      </trkpt>
      <trkpt lat="44.27222" lon="5.81036">
        <ele>543</ele>
        <time>2019-05-24T13:55:42Z</time>
      </trkpt>
      <trkpt lat="44.27221" lon="5.81048">
        <ele>543</ele>
        <time>2019-05-24T13:55:43Z</time>
      </trkpt>
      <trkpt lat="44.2722" lon="5.81059">
        <ele>543</ele>
        <time>2019-05-24T13:55:44Z</time>
      </trkpt>
      <trkpt lat="44.2722" lon="5.8107">
        <ele>543</ele>
        <time>2019-05-24T13:55:45Z</time>
      </trkpt>
      <trkpt lat="44.27219" lon="5.8108">
        <ele>543</ele>
        <time>2019-05-24T13:55:46Z</time>
      </trkpt>
      <trkpt lat="44.27219" lon="5.81091">
        <ele>543</ele>
        <time>2019-05-24T13:55:47Z</time>
      </trkpt>
      <trkpt lat="44.27219" lon="5.81102">
        <ele>543</ele>
        <time>2019-05-24T13:55:48Z</time>
      </trkpt>
      <trkpt lat="44.27219" lon="5.81112">
        <ele>543</ele>
        <time>2019-05-24T13:55:49Z</time>
      </trkpt>
      <trkpt lat="44.27219" lon="5.81122">
        <ele>543</ele>
        <time>2019-05-24T13:55:50Z</time>
      </trkpt>
      <trkpt lat="44.2722" lon="5.81131">
        <ele>543</ele>
        <time>2019-05-24T13:55:51Z</time>
      </trkpt>
      <trkpt lat="44.27221" lon="5.81139">
        <ele>543</ele>
        <time>2019-05-24T13:55:52Z</time>
      </trkpt>
      <trkpt lat="44.27221" lon="5.81147">
        <ele>543</ele>
        <time>2019-05-24T13:55:53Z</time>
      </trkpt>
      <trkpt lat="44.27222" lon="5.81156">
        <ele>543</ele>
        <time>2019-05-24T13:55:54Z</time>
      </trkpt>
      <trkpt lat="44.27225" lon="5.81163">
        <ele>543</ele>
        <time>2019-05-24T13:55:55Z</time>
      </trkpt>
      <trkpt lat="44.2723" lon="5.81169">
        <ele>543</ele>
        <time>2019-05-24T13:55:56Z</time>
      </trkpt>
      <trkpt lat="44.27235" lon="5.81173">
        <ele>542</ele>
        <time>2019-05-24T13:55:57Z</time>
      </trkpt>
      <trkpt lat="44.2724" lon="5.81177">
        <ele>542</ele>
        <time>2019-05-24T13:55:58Z</time>
      </trkpt>
      <trkpt lat="44.27246" lon="5.81181">
        <ele>542</ele>
        <time>2019-05-24T13:55:59Z</time>
      </trkpt>
      <trkpt lat="44.27251" lon="5.81186">
        <ele>542</ele>
        <time>2019-05-24T13:56:00Z</time>
      </trkpt>
      <trkpt lat="44.27256" lon="5.81191">
        <ele>542</ele>
        <time>2019-05-24T13:56:01Z</time>
      </trkpt>
      <trkpt lat="44.27261" lon="5.81195">
        <ele>542</ele>
        <time>2019-05-24T13:56:02Z</time>
      </trkpt>
      <trkpt lat="44.27266" lon="5.812">
        <ele>541</ele>
        <time>2019-05-24T13:56:03Z</time>
      </trkpt>
      <trkpt lat="44.27272" lon="5.81205">
        <ele>541</ele>
        <time>2019-05-24T13:56:04Z</time>
      </trkpt>
      <trkpt lat="44.27277" lon="5.81211">
        <ele>541</ele>
        <time>2019-05-24T13:56:05Z</time>
      </trkpt>
      <trkpt lat="44.27282" lon="5.81217">
        <ele>541</ele>
        <time>2019-05-24T13:56:06Z</time>
      </trkpt>
      <trkpt lat="44.27287" lon="5.81224">
        <ele>541</ele>
        <time>2019-05-24T13:56:07Z</time>
      </trkpt>
      <trkpt lat="44.27291" lon="5.81232">
        <ele>541</ele>
        <time>2019-05-24T13:56:08Z</time>
      </trkpt>
      <trkpt lat="44.27296" lon="5.81239">
        <ele>541</ele>
        <time>2019-05-24T13:56:09Z</time>
      </trkpt>
      <trkpt lat="44.27301" lon="5.81247">
        <ele>541</ele>
        <time>2019-05-24T13:56:10Z</time>
      </trkpt>
      <trkpt lat="44.27307" lon="5.81254">
        <ele>541</ele>
        <time>2019-05-24T13:56:11Z</time>
      </trkpt>
      <trkpt lat="44.27312" lon="5.81262">
        <ele>541</ele>
        <time>2019-05-24T13:56:12Z</time>
      </trkpt>
      <trkpt lat="44.27318" lon="5.81269">
        <ele>541</ele>
        <time>2019-05-24T13:56:13Z</time>
      </trkpt>
      <trkpt lat="44.27324" lon="5.81277">
        <ele>541</ele>
        <time>2019-05-24T13:56:14Z</time>
      </trkpt>
      <trkpt lat="44.2733" lon="5.81285">
        <ele>541</ele>
        <time>2019-05-24T13:56:15Z</time>
      </trkpt>
      <trkpt lat="44.27336" lon="5.81293">
        <ele>541</ele>
        <time>2019-05-24T13:56:16Z</time>
      </trkpt>
      <trkpt lat="44.27342" lon="5.813">
        <ele>541</ele>
        <time>2019-05-24T13:56:17Z</time>
      </trkpt>
      <trkpt lat="44.27349" lon="5.81307">
        <ele>541</ele>
        <time>2019-05-24T13:56:18Z</time>
      </trkpt>
      <trkpt lat="44.27355" lon="5.81312">
        <ele>541</ele>
        <time>2019-05-24T13:56:19Z</time>
      </trkpt>
      <trkpt lat="44.27362" lon="5.81317">
        <ele>541</ele>
        <time>2019-05-24T13:56:20Z</time>
      </trkpt>
      <trkpt lat="44.27369" lon="5.81321">
        <ele>541</ele>
        <time>2019-05-24T13:56:21Z</time>
      </trkpt>
      <trkpt lat="44.27375" lon="5.81326">
        <ele>541</ele>
        <time>2019-05-24T13:56:22Z</time>
      </trkpt>
      <trkpt lat="44.27382" lon="5.8133">
        <ele>541</ele>
        <time>2019-05-24T13:56:23Z</time>
      </trkpt>
      <trkpt lat="44.27389" lon="5.81335">
        <ele>541</ele>
        <time>2019-05-24T13:56:24Z</time>
      </trkpt>
      <trkpt lat="44.27396" lon="5.8134">
        <ele>541</ele>
        <time>2019-05-24T13:56:25Z</time>
      </trkpt>
      <trkpt lat="44.27404" lon="5.81344">
        <ele>541</ele>
        <time>2019-05-24T13:56:26Z</time>
      </trkpt>
      <trkpt lat="44.27411" lon="5.81349">
        <ele>541</ele>
        <time>2019-05-24T13:56:27Z</time>
      </trkpt>
      <trkpt lat="44.27418" lon="5.81353">
        <ele>541</ele>
        <time>2019-05-24T13:56:28Z</time>
      </trkpt>
      <trkpt lat="44.27425" lon="5.81358">
        <ele>541</ele>
        <time>2019-05-24T13:56:29Z</time>
      </trkpt>
      <trkpt lat="44.27433" lon="5.81362">
        <ele>541</ele>
        <time>2019-05-24T13:56:30Z</time>
      </trkpt>
      <trkpt lat="44.2744" lon="5.81366">
        <ele>541</ele>
        <time>2019-05-24T13:56:31Z</time>
      </trkpt>
      <trkpt lat="44.27448" lon="5.81371">
        <ele>541</ele>
        <time>2019-05-24T13:56:32Z</time>
      </trkpt>
      <trkpt lat="44.27455" lon="5.81376">
        <ele>541</ele>
        <time>2019-05-24T13:56:33Z</time>
      </trkpt>
      <trkpt lat="44.27463" lon="5.81381">
        <ele>541</ele>
        <time>2019-05-24T13:56:34Z</time>
      </trkpt>
      <trkpt lat="44.2747" lon="5.81386">
        <ele>541</ele>
        <time>2019-05-24T13:56:35Z</time>
      </trkpt>
      <trkpt lat="44.27477" lon="5.81391">
        <ele>541</ele>
        <time>2019-05-24T13:56:36Z</time>
      </trkpt>
      <trkpt lat="44.27484" lon="5.81397">
        <ele>541</ele>
        <time>2019-05-24T13:56:37Z</time>
      </trkpt>
      <trkpt lat="44.27491" lon="5.81403">
        <ele>541</ele>
        <time>2019-05-24T13:56:38Z</time>
      </trkpt>
      <trkpt lat="44.27497" lon="5.8141">
        <ele>541</ele>
        <time>2019-05-24T13:56:39Z</time>
      </trkpt>
      <trkpt lat="44.27503" lon="5.81417">
        <ele>541</ele>
        <time>2019-05-24T13:56:40Z</time>
      </trkpt>
      <trkpt lat="44.27509" lon="5.81424">
        <ele>541</ele>
        <time>2019-05-24T13:56:41Z</time>
      </trkpt>
      <trkpt lat="44.27515" lon="5.81431">
        <ele>541</ele>
        <time>2019-05-24T13:56:42Z</time>
      </trkpt>
      <trkpt lat="44.2752" lon="5.81438">
        <ele>541</ele>
        <time>2019-05-24T13:56:43Z</time>
      </trkpt>
      <trkpt lat="44.27526" lon="5.81445">
        <ele>541</ele>
        <time>2019-05-24T13:56:44Z</time>
      </trkpt>
      <trkpt lat="44.27532" lon="5.81452">
        <ele>541</ele>
        <time>2019-05-24T13:56:45Z</time>
      </trkpt>
      <trkpt lat="44.27538" lon="5.81459">
        <ele>541</ele>
        <time>2019-05-24T13:56:46Z</time>
      </trkpt>
      <trkpt lat="44.27544" lon="5.81465">
        <ele>541</ele>
        <time>2019-05-24T13:56:47Z</time>
      </trkpt>
      <trkpt lat="44.27549" lon="5.81472">
        <ele>541</ele>
        <time>2019-05-24T13:56:48Z</time>
      </trkpt>
      <trkpt lat="44.27554" lon="5.81479">
        <ele>541</ele>
        <time>2019-05-24T13:56:49Z</time>
      </trkpt>
      <trkpt lat="44.27559" lon="5.81486">
        <ele>541</ele>
        <time>2019-05-24T13:56:50Z</time>
      </trkpt>
      <trkpt lat="44.27564" lon="5.81493">
        <ele>541</ele>
        <time>2019-05-24T13:56:51Z</time>
      </trkpt>
      <trkpt lat="44.27569" lon="5.81499">
        <ele>541</ele>
        <time>2019-05-24T13:56:52Z</time>
      </trkpt>
      <trkpt lat="44.27574" lon="5.81505">
        <ele>541</ele>
        <time>2019-05-24T13:56:53Z</time>
      </trkpt>
      <trkpt lat="44.27579" lon="5.81512">
        <ele>541</ele>
        <time>2019-05-24T13:56:54Z</time>
      </trkpt>
      <trkpt lat="44.27584" lon="5.81518">
        <ele>541</ele>
        <time>2019-05-24T13:56:55Z</time>
      </trkpt>
      <trkpt lat="44.27589" lon="5.81525">
        <ele>541</ele>
        <time>2019-05-24T13:56:56Z</time>
      </trkpt>
      <trkpt lat="44.27593" lon="5.81531">
        <ele>541</ele>
        <time>2019-05-24T13:56:57Z</time>
      </trkpt>
      <trkpt lat="44.27598" lon="5.81536">
        <ele>541</ele>
        <time>2019-05-24T13:56:58Z</time>
      </trkpt>
      <trkpt lat="44.27603" lon="5.81542">
        <ele>541</ele>
        <time>2019-05-24T13:56:59Z</time>
      </trkpt>
      <trkpt lat="44.27608" lon="5.81548">
        <ele>541</ele>
        <time>2019-05-24T13:57:00Z</time>
      </trkpt>
      <trkpt lat="44.27613" lon="5.81554">
        <ele>541</ele>
        <time>2019-05-24T13:57:01Z</time>
      </trkpt>
      <trkpt lat="44.27618" lon="5.81561">
        <ele>541</ele>
        <time>2019-05-24T13:57:02Z</time>
      </trkpt>
      <trkpt lat="44.27622" lon="5.81567">
        <ele>541</ele>
        <time>2019-05-24T13:57:03Z</time>
      </trkpt>
      <trkpt lat="44.27627" lon="5.81573">
        <ele>541</ele>
        <time>2019-05-24T13:57:04Z</time>
      </trkpt>
      <trkpt lat="44.27632" lon="5.81579">
        <ele>541</ele>
        <time>2019-05-24T13:57:05Z</time>
      </trkpt>
      <trkpt lat="44.27637" lon="5.81586">
        <ele>541</ele>
        <time>2019-05-24T13:57:06Z</time>
      </trkpt>
      <trkpt lat="44.27642" lon="5.81592">
        <ele>541</ele>
        <time>2019-05-24T13:57:07Z</time>
      </trkpt>
      <trkpt lat="44.27647" lon="5.81598">
        <ele>541</ele>
        <time>2019-05-24T13:57:08Z</time>
      </trkpt>
      <trkpt lat="44.27652" lon="5.81604">
        <ele>541</ele>
        <time>2019-05-24T13:57:09Z</time>
      </trkpt>
      <trkpt lat="44.27657" lon="5.8161">
        <ele>541</ele>
        <time>2019-05-24T13:57:10Z</time>
      </trkpt>
      <trkpt lat="44.27663" lon="5.81617">
        <ele>541</ele>
        <time>2019-05-24T13:57:11Z</time>
      </trkpt>
      <trkpt lat="44.27669" lon="5.81623">
        <ele>541</ele>
        <time>2019-05-24T13:57:12Z</time>
      </trkpt>
      <trkpt lat="44.27674" lon="5.81629">
        <ele>541</ele>
        <time>2019-05-24T13:57:13Z</time>
      </trkpt>
      <trkpt lat="44.2768" lon="5.81635">
        <ele>541</ele>
        <time>2019-05-24T13:57:14Z</time>
      </trkpt>
      <trkpt lat="44.27686" lon="5.81641">
        <ele>541</ele>
        <time>2019-05-24T13:57:15Z</time>
      </trkpt>
      <trkpt lat="44.27691" lon="5.81647">
        <ele>541</ele>
        <time>2019-05-24T13:57:16Z</time>
      </trkpt>
      <trkpt lat="44.27696" lon="5.81653">
        <ele>541</ele>
        <time>2019-05-24T13:57:17Z</time>
      </trkpt>
      <trkpt lat="44.27702" lon="5.8166">
        <ele>541</ele>
        <time>2019-05-24T13:57:18Z</time>
      </trkpt>
      <trkpt lat="44.27707" lon="5.81665">
        <ele>541</ele>
        <time>2019-05-24T13:57:19Z</time>
      </trkpt>
      <trkpt lat="44.27711" lon="5.81671">
        <ele>541</ele>
        <time>2019-05-24T13:57:20Z</time>
      </trkpt>
      <trkpt lat="44.27716" lon="5.81677">
        <ele>541</ele>
        <time>2019-05-24T13:57:21Z</time>
      </trkpt>
      <trkpt lat="44.27721" lon="5.81684">
        <ele>541</ele>
        <time>2019-05-24T13:57:22Z</time>
      </trkpt>
      <trkpt lat="44.27726" lon="5.8169">
        <ele>541</ele>
        <time>2019-05-24T13:57:23Z</time>
      </trkpt>
      <trkpt lat="44.27731" lon="5.81697">
        <ele>541</ele>
        <time>2019-05-24T13:57:24Z</time>
      </trkpt>
      <trkpt lat="44.27736" lon="5.81703">
        <ele>541</ele>
        <time>2019-05-24T13:57:25Z</time>
      </trkpt>
      <trkpt lat="44.27742" lon="5.81708">
        <ele>541</ele>
        <time>2019-05-24T13:57:26Z</time>
      </trkpt>
      <trkpt lat="44.27747" lon="5.81713">
        <ele>541</ele>
        <time>2019-05-24T13:57:27Z</time>
      </trkpt>
      <trkpt lat="44.27752" lon="5.81716">
        <ele>541</ele>
        <time>2019-05-24T13:57:28Z</time>
      </trkpt>
      <trkpt lat="44.27758" lon="5.8172">
        <ele>541</ele>
        <time>2019-05-24T13:57:29Z</time>
      </trkpt>
      <trkpt lat="44.27764" lon="5.81724">
        <ele>541</ele>
        <time>2019-05-24T13:57:30Z</time>
      </trkpt>
      <trkpt lat="44.2777" lon="5.81728">
        <ele>541</ele>
        <time>2019-05-24T13:57:31Z</time>
      </trkpt>
      <trkpt lat="44.27776" lon="5.81731">
        <ele>541</ele>
        <time>2019-05-24T13:57:32Z</time>
      </trkpt>
      <trkpt lat="44.27782" lon="5.81735">
        <ele>541</ele>
        <time>2019-05-24T13:57:33Z</time>
      </trkpt>
      <trkpt lat="44.27787" lon="5.81739">
        <ele>541</ele>
        <time>2019-05-24T13:57:34Z</time>
      </trkpt>
      <trkpt lat="44.27793" lon="5.81742">
        <ele>541</ele>
        <time>2019-05-24T13:57:35Z</time>
      </trkpt>
      <trkpt lat="44.27798" lon="5.81746">
        <ele>541</ele>
        <time>2019-05-24T13:57:36Z</time>
      </trkpt>
      <trkpt lat="44.27803" lon="5.81749">
        <ele>541</ele>
        <time>2019-05-24T13:57:37Z</time>
      </trkpt>
      <trkpt lat="44.27809" lon="5.81752">
        <ele>541</ele>
        <time>2019-05-24T13:57:38Z</time>
      </trkpt>
      <trkpt lat="44.27814" lon="5.81755">
        <ele>541</ele>
        <time>2019-05-24T13:57:39Z</time>
      </trkpt>
      <trkpt lat="44.27819" lon="5.81759">
        <ele>541</ele>
        <time>2019-05-24T13:57:40Z</time>
      </trkpt>
      <trkpt lat="44.27824" lon="5.81763">
        <ele>541</ele>
        <time>2019-05-24T13:57:41Z</time>
      </trkpt>
      <trkpt lat="44.2783" lon="5.81766">
        <ele>541</ele>
        <time>2019-05-24T13:57:42Z</time>
      </trkpt>
      <trkpt lat="44.27835" lon="5.81769">
        <ele>541</ele>
        <time>2019-05-24T13:57:43Z</time>
      </trkpt>
      <trkpt lat="44.2784" lon="5.81772">
        <ele>541</ele>
        <time>2019-05-24T13:57:44Z</time>
      </trkpt>
      <trkpt lat="44.27845" lon="5.81776">
        <ele>541</ele>
        <time>2019-05-24T13:57:45Z</time>
      </trkpt>
      <trkpt lat="44.2785" lon="5.81779">
        <ele>541</ele>
        <time>2019-05-24T13:57:46Z</time>
      </trkpt>
      <trkpt lat="44.27855" lon="5.81782">
        <ele>541</ele>
        <time>2019-05-24T13:57:47Z</time>
      </trkpt>
      <trkpt lat="44.27861" lon="5.81785">
        <ele>541</ele>
        <time>2019-05-24T13:57:48Z</time>
      </trkpt>
      <trkpt lat="44.27866" lon="5.81789">
        <ele>541</ele>
        <time>2019-05-24T13:57:49Z</time>
      </trkpt>
      <trkpt lat="44.27871" lon="5.81792">
        <ele>541</ele>
        <time>2019-05-24T13:57:50Z</time>
      </trkpt>
      <trkpt lat="44.27876" lon="5.81795">
        <ele>541</ele>
        <time>2019-05-24T13:57:51Z</time>
      </trkpt>
      <trkpt lat="44.27881" lon="5.81798">
        <ele>541</ele>
        <time>2019-05-24T13:57:52Z</time>
      </trkpt>
      <trkpt lat="44.27887" lon="5.81802">
        <ele>541</ele>
        <time>2019-05-24T13:57:53Z</time>
      </trkpt>
      <trkpt lat="44.27892" lon="5.81805">
        <ele>541</ele>
        <time>2019-05-24T13:57:54Z</time>
      </trkpt>
      <trkpt lat="44.27897" lon="5.81809">
        <ele>541</ele>
        <time>2019-05-24T13:57:55Z</time>
      </trkpt>
      <trkpt lat="44.27903" lon="5.81812">
        <ele>541</ele>
        <time>2019-05-24T13:57:56Z</time>
      </trkpt>
      <trkpt lat="44.27908" lon="5.81815">
        <ele>541</ele>
        <time>2019-05-24T13:57:57Z</time>
      </trkpt>
      <trkpt lat="44.27914" lon="5.81819">
        <ele>541</ele>
        <time>2019-05-24T13:57:58Z</time>
      </trkpt>
      <trkpt lat="44.27919" lon="5.81823">
        <ele>541</ele>
        <time>2019-05-24T13:57:59Z</time>
      </trkpt>
      <trkpt lat="44.27925" lon="5.81826">
        <ele>541</ele>
        <time>2019-05-24T13:58:00Z</time>
      </trkpt>
      <trkpt lat="44.2793" lon="5.8183">
        <ele>541</ele>
        <time>2019-05-24T13:58:01Z</time>
      </trkpt>
      <trkpt lat="44.27936" lon="5.81833">
        <ele>541</ele>
        <time>2019-05-24T13:58:02Z</time>
      </trkpt>
      <trkpt lat="44.27942" lon="5.81837">
        <ele>541</ele>
        <time>2019-05-24T13:58:03Z</time>
      </trkpt>
      <trkpt lat="44.27947" lon="5.8184">
        <ele>541</ele>
        <time>2019-05-24T13:58:04Z</time>
      </trkpt>
      <trkpt lat="44.27953" lon="5.81844">
        <ele>541</ele>
        <time>2019-05-24T13:58:05Z</time>
      </trkpt>
      <trkpt lat="44.27958" lon="5.81847">
        <ele>541</ele>
        <time>2019-05-24T13:58:06Z</time>
      </trkpt>
      <trkpt lat="44.27964" lon="5.81851">
        <ele>541</ele>
        <time>2019-05-24T13:58:07Z</time>
      </trkpt>
      <trkpt lat="44.27969" lon="5.81855">
        <ele>541</ele>
        <time>2019-05-24T13:58:08Z</time>
      </trkpt>
      <trkpt lat="44.27975" lon="5.81858">
        <ele>541</ele>
        <time>2019-05-24T13:58:09Z</time>
      </trkpt>
      <trkpt lat="44.2798" lon="5.81862">
        <ele>541</ele>
        <time>2019-05-24T13:58:10Z</time>
      </trkpt>
      <trkpt lat="44.27986" lon="5.81865">
        <ele>541</ele>
        <time>2019-05-24T13:58:11Z</time>
      </trkpt>
      <trkpt lat="44.27992" lon="5.81869">
        <ele>541</ele>
        <time>2019-05-24T13:58:12Z</time>
      </trkpt>
      <trkpt lat="44.27998" lon="5.81873">
        <ele>541</ele>
        <time>2019-05-24T13:58:13Z</time>
      </trkpt>
      <trkpt lat="44.28003" lon="5.81876">
        <ele>541</ele>
        <time>2019-05-24T13:58:14Z</time>
      </trkpt>
      <trkpt lat="44.28009" lon="5.8188">
        <ele>541</ele>
        <time>2019-05-24T13:58:15Z</time>
      </trkpt>
      <trkpt lat="44.28016" lon="5.81884">
        <ele>541</ele>
        <time>2019-05-24T13:58:16Z</time>
      </trkpt>
      <trkpt lat="44.28021" lon="5.81887">
        <ele>541</ele>
        <time>2019-05-24T13:58:17Z</time>
      </trkpt>
      <trkpt lat="44.28027" lon="5.81891">
        <ele>541</ele>
        <time>2019-05-24T13:58:18Z</time>
      </trkpt>
      <trkpt lat="44.28033" lon="5.81895">
        <ele>541</ele>
        <time>2019-05-24T13:58:19Z</time>
      </trkpt>
      <trkpt lat="44.2804" lon="5.81899">
        <ele>541</ele>
        <time>2019-05-24T13:58:20Z</time>
      </trkpt>
      <trkpt lat="44.28046" lon="5.81904">
        <ele>541</ele>
        <time>2019-05-24T13:58:21Z</time>
      </trkpt>
      <trkpt lat="44.28051" lon="5.81908">
        <ele>541</ele>
        <time>2019-05-24T13:58:22Z</time>
      </trkpt>
      <trkpt lat="44.28058" lon="5.81912">
        <ele>541</ele>
        <time>2019-05-24T13:58:23Z</time>
      </trkpt>
      <trkpt lat="44.28064" lon="5.81915">
        <ele>542</ele>
        <time>2019-05-24T13:58:24Z</time>
      </trkpt>
      <trkpt lat="44.2807" lon="5.81919">
        <ele>542</ele>
        <time>2019-05-24T13:58:25Z</time>
      </trkpt>
      <trkpt lat="44.28076" lon="5.81923">
        <ele>542</ele>
        <time>2019-05-24T13:58:26Z</time>
      </trkpt>
      <trkpt lat="44.28082" lon="5.81927">
        <ele>542</ele>
        <time>2019-05-24T13:58:27Z</time>
      </trkpt>
      <trkpt lat="44.28088" lon="5.81931">
        <ele>542</ele>
        <time>2019-05-24T13:58:28Z</time>
      </trkpt>
      <trkpt lat="44.28094" lon="5.81934">
        <ele>542</ele>
        <time>2019-05-24T13:58:29Z</time>
      </trkpt>
      <trkpt lat="44.281" lon="5.81938">
        <ele>542</ele>
        <time>2019-05-24T13:58:30Z</time>
      </trkpt>
      <trkpt lat="44.28106" lon="5.81942">
        <ele>542</ele>
        <time>2019-05-24T13:58:31Z</time>
      </trkpt>
      <trkpt lat="44.28112" lon="5.81946">
        <ele>543</ele>
        <time>2019-05-24T13:58:32Z</time>
      </trkpt>
      <trkpt lat="44.28117" lon="5.8195">
        <ele>543</ele>
        <time>2019-05-24T13:58:33Z</time>
      </trkpt>
      <trkpt lat="44.28123" lon="5.81954">
        <ele>543</ele>
        <time>2019-05-24T13:58:34Z</time>
      </trkpt>
      <trkpt lat="44.28129" lon="5.81957">
        <ele>543</ele>
        <time>2019-05-24T13:58:35Z</time>
      </trkpt>
      <trkpt lat="44.28135" lon="5.81961">
        <ele>543</ele>
        <time>2019-05-24T13:58:36Z</time>
      </trkpt>
      <trkpt lat="44.28141" lon="5.81965">
        <ele>544</ele>
        <time>2019-05-24T13:58:37Z</time>
      </trkpt>
      <trkpt lat="44.28147" lon="5.81968">
        <ele>544</ele>
        <time>2019-05-24T13:58:38Z</time>
      </trkpt>
      <trkpt lat="44.28152" lon="5.81972">
        <ele>544</ele>
        <time>2019-05-24T13:58:39Z</time>
      </trkpt>
      <trkpt lat="44.28159" lon="5.81976">
        <ele>544</ele>
        <time>2019-05-24T13:58:40Z</time>
      </trkpt>
      <trkpt lat="44.28164" lon="5.8198">
        <ele>544</ele>
        <time>2019-05-24T13:58:41Z</time>
      </trkpt>
      <trkpt lat="44.2817" lon="5.81983">
        <ele>544</ele>
        <time>2019-05-24T13:58:42Z</time>
      </trkpt>
      <trkpt lat="44.28176" lon="5.81987">
        <ele>544</ele>
        <time>2019-05-24T13:58:43Z</time>
      </trkpt>
      <trkpt lat="44.28183" lon="5.81991">
        <ele>544</ele>
        <time>2019-05-24T13:58:44Z</time>
      </trkpt>
      <trkpt lat="44.28189" lon="5.81995">
        <ele>544</ele>
        <time>2019-05-24T13:58:45Z</time>
      </trkpt>
      <trkpt lat="44.28194" lon="5.81998">
        <ele>544</ele>
        <time>2019-05-24T13:58:46Z</time>
      </trkpt>
      <trkpt lat="44.28201" lon="5.82001">
        <ele>544</ele>
        <time>2019-05-24T13:58:47Z</time>
      </trkpt>
      <trkpt lat="44.28207" lon="5.82004">
        <ele>544</ele>
        <time>2019-05-24T13:58:48Z</time>
      </trkpt>
      <trkpt lat="44.28213" lon="5.82008">
        <ele>544</ele>
        <time>2019-05-24T13:58:49Z</time>
      </trkpt>
      <trkpt lat="44.28219" lon="5.82012">
        <ele>544</ele>
        <time>2019-05-24T13:58:50Z</time>
      </trkpt>
      <trkpt lat="44.28225" lon="5.82014">
        <ele>544</ele>
        <time>2019-05-24T13:58:51Z</time>
      </trkpt>
      <trkpt lat="44.28231" lon="5.82017">
        <ele>544</ele>
        <time>2019-05-24T13:58:52Z</time>
      </trkpt>
      <trkpt lat="44.28237" lon="5.8202">
        <ele>544</ele>
        <time>2019-05-24T13:58:53Z</time>
      </trkpt>
      <trkpt lat="44.28243" lon="5.82022">
        <ele>544</ele>
        <time>2019-05-24T13:58:54Z</time>
      </trkpt>
      <trkpt lat="44.28249" lon="5.82023">
        <ele>544</ele>
        <time>2019-05-24T13:58:55Z</time>
      </trkpt>
      <trkpt lat="44.28255" lon="5.82024">
        <ele>544</ele>
        <time>2019-05-24T13:58:56Z</time>
      </trkpt>
      <trkpt lat="44.28261" lon="5.82025">
        <ele>544</ele>
        <time>2019-05-24T13:58:57Z</time>
      </trkpt>
      <trkpt lat="44.28267" lon="5.82026">
        <ele>544</ele>
        <time>2019-05-24T13:58:58Z</time>
      </trkpt>
      <trkpt lat="44.28273" lon="5.82027">
        <ele>544</ele>
        <time>2019-05-24T13:58:59Z</time>
      </trkpt>
      <trkpt lat="44.28279" lon="5.82027">
        <ele>544</ele>
        <time>2019-05-24T13:59:00Z</time>
      </trkpt>
      <trkpt lat="44.28284" lon="5.82027">
        <ele>544</ele>
        <time>2019-05-24T13:59:01Z</time>
      </trkpt>
      <trkpt lat="44.2829" lon="5.82028">
        <ele>544</ele>
        <time>2019-05-24T13:59:02Z</time>
      </trkpt>
      <trkpt lat="44.28296" lon="5.82028">
        <ele>544</ele>
        <time>2019-05-24T13:59:03Z</time>
      </trkpt>
      <trkpt lat="44.28301" lon="5.82027">
        <ele>544</ele>
        <time>2019-05-24T13:59:04Z</time>
      </trkpt>
      <trkpt lat="44.28307" lon="5.82027">
        <ele>544</ele>
        <time>2019-05-24T13:59:05Z</time>
      </trkpt>
      <trkpt lat="44.28312" lon="5.82027">
        <ele>544</ele>
        <time>2019-05-24T13:59:06Z</time>
      </trkpt>
      <trkpt lat="44.28318" lon="5.82027">
        <ele>544</ele>
        <time>2019-05-24T13:59:07Z</time>
      </trkpt>
      <trkpt lat="44.28324" lon="5.82027">
        <ele>544</ele>
        <time>2019-05-24T13:59:08Z</time>
      </trkpt>
      <trkpt lat="44.2833" lon="5.82027">
        <ele>544</ele>
        <time>2019-05-24T13:59:09Z</time>
      </trkpt>
      <trkpt lat="44.28336" lon="5.82027">
        <ele>544</ele>
        <time>2019-05-24T13:59:10Z</time>
      </trkpt>
      <trkpt lat="44.28342" lon="5.82027">
        <ele>544</ele>
        <time>2019-05-24T13:59:11Z</time>
      </trkpt>
      <trkpt lat="44.28348" lon="5.82027">
        <ele>544</ele>
        <time>2019-05-24T13:59:12Z</time>
      </trkpt>
      <trkpt lat="44.28354" lon="5.82027">
        <ele>545</ele>
        <time>2019-05-24T13:59:13Z</time>
      </trkpt>
      <trkpt lat="44.2836" lon="5.82027">
        <ele>545</ele>
        <time>2019-05-24T13:59:14Z</time>
      </trkpt>
      <trkpt lat="44.28366" lon="5.82027">
        <ele>545</ele>
        <time>2019-05-24T13:59:15Z</time>
      </trkpt>
      <trkpt lat="44.28372" lon="5.82028">
        <ele>545</ele>
        <time>2019-05-24T13:59:16Z</time>
      </trkpt>
      <trkpt lat="44.28379" lon="5.82029">
        <ele>545</ele>
        <time>2019-05-24T13:59:17Z</time>
      </trkpt>
      <trkpt lat="44.28385" lon="5.82029">
        <ele>545</ele>
        <time>2019-05-24T13:59:18Z</time>
      </trkpt>
      <trkpt lat="44.28392" lon="5.8203">
        <ele>545</ele>
        <time>2019-05-24T13:59:19Z</time>
      </trkpt>
      <trkpt lat="44.28398" lon="5.82031">
        <ele>545</ele>
        <time>2019-05-24T13:59:20Z</time>
      </trkpt>
      <trkpt lat="44.28404" lon="5.82031">
        <ele>545</ele>
        <time>2019-05-24T13:59:21Z</time>
      </trkpt>
      <trkpt lat="44.2841" lon="5.82032">
        <ele>545</ele>
        <time>2019-05-24T13:59:22Z</time>
      </trkpt>
      <trkpt lat="44.28417" lon="5.82034">
        <ele>545</ele>
        <time>2019-05-24T13:59:23Z</time>
      </trkpt>
      <trkpt lat="44.28423" lon="5.82036">
        <ele>545</ele>
        <time>2019-05-24T13:59:24Z</time>
      </trkpt>
      <trkpt lat="44.28429" lon="5.82037">
        <ele>545</ele>
        <time>2019-05-24T13:59:25Z</time>
      </trkpt>
      <trkpt lat="44.28436" lon="5.82039">
        <ele>545</ele>
        <time>2019-05-24T13:59:26Z</time>
      </trkpt>
      <trkpt lat="44.28442" lon="5.82041">
        <ele>545</ele>
        <time>2019-05-24T13:59:27Z</time>
      </trkpt>
      <trkpt lat="44.28448" lon="5.82042">
        <ele>545</ele>
        <time>2019-05-24T13:59:28Z</time>
      </trkpt>
      <trkpt lat="44.28454" lon="5.82045">
        <ele>545</ele>
        <time>2019-05-24T13:59:29Z</time>
      </trkpt>
      <trkpt lat="44.2846" lon="5.82048">
        <ele>545</ele>
        <time>2019-05-24T13:59:30Z</time>
      </trkpt>
      <trkpt lat="44.28466" lon="5.82051">
        <ele>545</ele>
        <time>2019-05-24T13:59:31Z</time>
      </trkpt>
      <trkpt lat="44.28471" lon="5.82053">
        <ele>545</ele>
        <time>2019-05-24T13:59:32Z</time>
      </trkpt>
      <trkpt lat="44.28477" lon="5.82056">
        <ele>545</ele>
        <time>2019-05-24T13:59:33Z</time>
      </trkpt>
      <trkpt lat="44.28483" lon="5.82058">
        <ele>546</ele>
        <time>2019-05-24T13:59:34Z</time>
      </trkpt>
      <trkpt lat="44.28489" lon="5.82061">
        <ele>546</ele>
        <time>2019-05-24T13:59:35Z</time>
      </trkpt>
      <trkpt lat="44.28494" lon="5.82063">
        <ele>546</ele>
        <time>2019-05-24T13:59:36Z</time>
      </trkpt>
      <trkpt lat="44.28499" lon="5.82066">
        <ele>546</ele>
        <time>2019-05-24T13:59:37Z</time>
      </trkpt>
      <trkpt lat="44.28505" lon="5.82069">
        <ele>547</ele>
        <time>2019-05-24T13:59:38Z</time>
      </trkpt>
      <trkpt lat="44.2851" lon="5.82072">
        <ele>547</ele>
        <time>2019-05-24T13:59:39Z</time>
      </trkpt>
      <trkpt lat="44.28515" lon="5.82075">
        <ele>547</ele>
        <time>2019-05-24T13:59:40Z</time>
      </trkpt>
      <trkpt lat="44.28521" lon="5.82078">
        <ele>547</ele>
        <time>2019-05-24T13:59:41Z</time>
      </trkpt>
      <trkpt lat="44.28526" lon="5.82081">
        <ele>547</ele>
        <time>2019-05-24T13:59:42Z</time>
      </trkpt>
      <trkpt lat="44.28531" lon="5.82083">
        <ele>547</ele>
        <time>2019-05-24T13:59:43Z</time>
      </trkpt>
      <trkpt lat="44.28536" lon="5.82086">
        <ele>547</ele>
        <time>2019-05-24T13:59:44Z</time>
      </trkpt>
      <trkpt lat="44.28541" lon="5.82088">
        <ele>548</ele>
        <time>2019-05-24T13:59:45Z</time>
      </trkpt>
      <trkpt lat="44.28546" lon="5.82091">
        <ele>548</ele>
        <time>2019-05-24T13:59:46Z</time>
      </trkpt>
      <trkpt lat="44.28551" lon="5.82093">
        <ele>548</ele>
        <time>2019-05-24T13:59:47Z</time>
      </trkpt>
      <trkpt lat="44.28556" lon="5.82095">
        <ele>548</ele>
        <time>2019-05-24T13:59:48Z</time>
      </trkpt>
      <trkpt lat="44.28561" lon="5.82098">
        <ele>548</ele>
        <time>2019-05-24T13:59:49Z</time>
      </trkpt>
      <trkpt lat="44.28566" lon="5.821">
        <ele>548</ele>
        <time>2019-05-24T13:59:50Z</time>
      </trkpt>
      <trkpt lat="44.28571" lon="5.82102">
        <ele>549</ele>
        <time>2019-05-24T13:59:51Z</time>
      </trkpt>
      <trkpt lat="44.28576" lon="5.82105">
        <ele>549</ele>
        <time>2019-05-24T13:59:52Z</time>
      </trkpt>
      <trkpt lat="44.2858" lon="5.82107">
        <ele>549</ele>
        <time>2019-05-24T13:59:53Z</time>
      </trkpt>
      <trkpt lat="44.28585" lon="5.8211">
        <ele>549</ele>
        <time>2019-05-24T13:59:54Z</time>
      </trkpt>
      <trkpt lat="44.2859" lon="5.82112">
        <ele>550</ele>
        <time>2019-05-24T13:59:55Z</time>
      </trkpt>
      <trkpt lat="44.28595" lon="5.82114">
        <ele>550</ele>
        <time>2019-05-24T13:59:56Z</time>
      </trkpt>
      <trkpt lat="44.286" lon="5.82116">
        <ele>550</ele>
        <time>2019-05-24T13:59:57Z</time>
      </trkpt>
      <trkpt lat="44.28604" lon="5.82118">
        <ele>550</ele>
        <time>2019-05-24T13:59:58Z</time>
      </trkpt>
      <trkpt lat="44.28609" lon="5.8212">
        <ele>551</ele>
        <time>2019-05-24T13:59:59Z</time>
      </trkpt>
      <trkpt lat="44.28613" lon="5.82121">
        <ele>551</ele>
        <time>2019-05-24T14:00:00Z</time>
      </trkpt>
      <trkpt lat="44.28617" lon="5.82122">
        <ele>551</ele>
        <time>2019-05-24T14:00:01Z</time>
      </trkpt>
      <trkpt lat="44.28622" lon="5.82124">
        <ele>551</ele>
        <time>2019-05-24T14:00:02Z</time>
      </trkpt>
      <trkpt lat="44.28627" lon="5.82125">
        <ele>551</ele>
        <time>2019-05-24T14:00:03Z</time>
      </trkpt>
      <trkpt lat="44.28631" lon="5.82127">
        <ele>552</ele>
        <time>2019-05-24T14:00:04Z</time>
      </trkpt>
      <trkpt lat="44.28635" lon="5.82128">
        <ele>552</ele>
        <time>2019-05-24T14:00:05Z</time>
      </trkpt>
      <trkpt lat="44.2864" lon="5.8213">
        <ele>552</ele>
        <time>2019-05-24T14:00:06Z</time>
      </trkpt>
      <trkpt lat="44.28644" lon="5.82131">
        <ele>553</ele>
        <time>2019-05-24T14:00:07Z</time>
      </trkpt>
      <trkpt lat="44.28648" lon="5.82133">
        <ele>553</ele>
        <time>2019-05-24T14:00:08Z</time>
      </trkpt>
      <trkpt lat="44.28653" lon="5.82134">
        <ele>553</ele>
        <time>2019-05-24T14:00:09Z</time>
      </trkpt>
      <trkpt lat="44.28657" lon="5.82136">
        <ele>554</ele>
        <time>2019-05-24T14:00:10Z</time>
      </trkpt>
      <trkpt lat="44.28661" lon="5.82138">
        <ele>554</ele>
        <time>2019-05-24T14:00:11Z</time>
      </trkpt>
      <trkpt lat="44.28665" lon="5.82139">
        <ele>554</ele>
        <time>2019-05-24T14:00:12Z</time>
      </trkpt>
      <trkpt lat="44.28669" lon="5.8214">
        <ele>554</ele>
        <time>2019-05-24T14:00:13Z</time>
      </trkpt>
      <trkpt lat="44.28673" lon="5.82141">
        <ele>555</ele>
        <time>2019-05-24T14:00:14Z</time>
      </trkpt>
      <trkpt lat="44.28677" lon="5.82142">
        <ele>555</ele>
        <time>2019-05-24T14:00:15Z</time>
      </trkpt>
      <trkpt lat="44.28682" lon="5.82144">
        <ele>555</ele>
        <time>2019-05-24T14:00:16Z</time>
      </trkpt>
      <trkpt lat="44.28686" lon="5.82145">
        <ele>556</ele>
        <time>2019-05-24T14:00:17Z</time>
      </trkpt>
      <trkpt lat="44.28691" lon="5.82147">
        <ele>556</ele>
        <time>2019-05-24T14:00:18Z</time>
      </trkpt>
      <trkpt lat="44.28695" lon="5.82148">
        <ele>556</ele>
        <time>2019-05-24T14:00:19Z</time>
      </trkpt>
      <trkpt lat="44.28699" lon="5.82149">
        <ele>556</ele>
        <time>2019-05-24T14:00:20Z</time>
      </trkpt>
      <trkpt lat="44.28704" lon="5.82151">
        <ele>556</ele>
        <time>2019-05-24T14:00:21Z</time>
      </trkpt>
      <trkpt lat="44.28708" lon="5.82152">
        <ele>556</ele>
        <time>2019-05-24T14:00:22Z</time>
      </trkpt>
      <trkpt lat="44.28712" lon="5.82154">
        <ele>556</ele>
        <time>2019-05-24T14:00:23Z</time>
      </trkpt>
      <trkpt lat="44.28716" lon="5.82155">
        <ele>557</ele>
        <time>2019-05-24T14:00:24Z</time>
      </trkpt>
      <trkpt lat="44.2872" lon="5.82157">
        <ele>557</ele>
        <time>2019-05-24T14:00:25Z</time>
      </trkpt>
      <trkpt lat="44.28724" lon="5.82158">
        <ele>557</ele>
        <time>2019-05-24T14:00:26Z</time>
      </trkpt>
      <trkpt lat="44.28728" lon="5.8216">
        <ele>557</ele>
        <time>2019-05-24T14:00:27Z</time>
      </trkpt>
      <trkpt lat="44.28732" lon="5.82161">
        <ele>558</ele>
        <time>2019-05-24T14:00:28Z</time>
      </trkpt>
      <trkpt lat="44.28735" lon="5.82163">
        <ele>558</ele>
        <time>2019-05-24T14:00:29Z</time>
      </trkpt>
      <trkpt lat="44.2874" lon="5.82164">
        <ele>558</ele>
        <time>2019-05-24T14:00:30Z</time>
      </trkpt>
      <trkpt lat="44.28743" lon="5.82166">
        <ele>558</ele>
        <time>2019-05-24T14:00:31Z</time>
      </trkpt>
      <trkpt lat="44.28747" lon="5.82169">
        <ele>558</ele>
        <time>2019-05-24T14:00:32Z</time>
      </trkpt>
      <trkpt lat="44.28751" lon="5.82171">
        <ele>558</ele>
        <time>2019-05-24T14:00:33Z</time>
      </trkpt>
      <trkpt lat="44.28755" lon="5.82173">
        <ele>559</ele>
        <time>2019-05-24T14:00:34Z</time>
      </trkpt>
      <trkpt lat="44.28758" lon="5.82175">
        <ele>559</ele>
        <time>2019-05-24T14:00:35Z</time>
      </trkpt>
      <trkpt lat="44.28762" lon="5.82177">
        <ele>559</ele>
        <time>2019-05-24T14:00:36Z</time>
      </trkpt>
      <trkpt lat="44.28765" lon="5.8218">
        <ele>560</ele>
        <time>2019-05-24T14:00:37Z</time>
      </trkpt>
      <trkpt lat="44.28769" lon="5.82182">
        <ele>560</ele>
        <time>2019-05-24T14:00:38Z</time>
      </trkpt>
      <trkpt lat="44.28773" lon="5.82184">
        <ele>560</ele>
        <time>2019-05-24T14:00:39Z</time>
      </trkpt>
      <trkpt lat="44.28777" lon="5.82187">
        <ele>560</ele>
        <time>2019-05-24T14:00:40Z</time>
      </trkpt>
      <trkpt lat="44.2878" lon="5.82189">
        <ele>561</ele>
        <time>2019-05-24T14:00:41Z</time>
      </trkpt>
      <trkpt lat="44.28785" lon="5.82191">
        <ele>561</ele>
        <time>2019-05-24T14:00:42Z</time>
      </trkpt>
      <trkpt lat="44.28788" lon="5.82194">
        <ele>561</ele>
        <time>2019-05-24T14:00:43Z</time>
      </trkpt>
      <trkpt lat="44.28792" lon="5.82196">
        <ele>561</ele>
        <time>2019-05-24T14:00:44Z</time>
      </trkpt>
      <trkpt lat="44.28796" lon="5.82199">
        <ele>561</ele>
        <time>2019-05-24T14:00:45Z</time>
      </trkpt>
      <trkpt lat="44.288" lon="5.82202">
        <ele>561</ele>
        <time>2019-05-24T14:00:46Z</time>
      </trkpt>
      <trkpt lat="44.28804" lon="5.82204">
        <ele>562</ele>
        <time>2019-05-24T14:00:47Z</time>
      </trkpt>
      <trkpt lat="44.28807" lon="5.82207">
        <ele>562</ele>
        <time>2019-05-24T14:00:48Z</time>
      </trkpt>
      <trkpt lat="44.28811" lon="5.82209">
        <ele>562</ele>
        <time>2019-05-24T14:00:49Z</time>
      </trkpt>
      <trkpt lat="44.28814" lon="5.82212">
        <ele>562</ele>
        <time>2019-05-24T14:00:50Z</time>
      </trkpt>
      <trkpt lat="44.28817" lon="5.82215">
        <ele>563</ele>
        <time>2019-05-24T14:00:51Z</time>
      </trkpt>
      <trkpt lat="44.28821" lon="5.82218">
        <ele>563</ele>
        <time>2019-05-24T14:00:52Z</time>
      </trkpt>
      <trkpt lat="44.28825" lon="5.82221">
        <ele>563</ele>
        <time>2019-05-24T14:00:53Z</time>
      </trkpt>
      <trkpt lat="44.28828" lon="5.82224">
        <ele>564</ele>
        <time>2019-05-24T14:00:54Z</time>
      </trkpt>
      <trkpt lat="44.28832" lon="5.82228">
        <ele>564</ele>
        <time>2019-05-24T14:00:55Z</time>
      </trkpt>
      <trkpt lat="44.28836" lon="5.82232">
        <ele>564</ele>
        <time>2019-05-24T14:00:56Z</time>
      </trkpt>
      <trkpt lat="44.28841" lon="5.82236">
        <ele>564</ele>
        <time>2019-05-24T14:00:57Z</time>
      </trkpt>
      <trkpt lat="44.28846" lon="5.82241">
        <ele>565</ele>
        <time>2019-05-24T14:00:58Z</time>
      </trkpt>
      <trkpt lat="44.2885" lon="5.82244">
        <ele>565</ele>
        <time>2019-05-24T14:00:59Z</time>
      </trkpt>
      <trkpt lat="44.28854" lon="5.82248">
        <ele>565</ele>
        <time>2019-05-24T14:01:00Z</time>
      </trkpt>
      <trkpt lat="44.28859" lon="5.82252">
        <ele>565</ele>
        <time>2019-05-24T14:01:01Z</time>
      </trkpt>
      <trkpt lat="44.28864" lon="5.82257">
        <ele>565</ele>
        <time>2019-05-24T14:01:02Z</time>
      </trkpt>
      <trkpt lat="44.28868" lon="5.82261">
        <ele>565</ele>
        <time>2019-05-24T14:01:03Z</time>
      </trkpt>
      <trkpt lat="44.28872" lon="5.82265">
        <ele>565</ele>
        <time>2019-05-24T14:01:04Z</time>
      </trkpt>
      <trkpt lat="44.28877" lon="5.8227">
        <ele>565</ele>
        <time>2019-05-24T14:01:05Z</time>
      </trkpt>
      <trkpt lat="44.28882" lon="5.82274">
        <ele>565</ele>
        <time>2019-05-24T14:01:06Z</time>
      </trkpt>
      <trkpt lat="44.28887" lon="5.82277">
        <ele>565</ele>
        <time>2019-05-24T14:01:07Z</time>
      </trkpt>
      <trkpt lat="44.28893" lon="5.82281">
        <ele>565</ele>
        <time>2019-05-24T14:01:08Z</time>
      </trkpt>
      <trkpt lat="44.28897" lon="5.82283">
        <ele>565</ele>
        <time>2019-05-24T14:01:09Z</time>
      </trkpt>
      <trkpt lat="44.28902" lon="5.82286">
        <ele>565</ele>
        <time>2019-05-24T14:01:10Z</time>
      </trkpt>
      <trkpt lat="44.28909" lon="5.82288">
        <ele>565</ele>
        <time>2019-05-24T14:01:11Z</time>
      </trkpt>
      <trkpt lat="44.28915" lon="5.8229">
        <ele>565</ele>
        <time>2019-05-24T14:01:12Z</time>
      </trkpt>
      <trkpt lat="44.28922" lon="5.82291">
        <ele>565</ele>
        <time>2019-05-24T14:01:13Z</time>
      </trkpt>
      <trkpt lat="44.28928" lon="5.82292">
        <ele>565</ele>
        <time>2019-05-24T14:01:14Z</time>
      </trkpt>
      <trkpt lat="44.28935" lon="5.82292">
        <ele>565</ele>
        <time>2019-05-24T14:01:15Z</time>
      </trkpt>
      <trkpt lat="44.28942" lon="5.82293">
        <ele>565</ele>
        <time>2019-05-24T14:01:16Z</time>
      </trkpt>
      <trkpt lat="44.2895" lon="5.82292">
        <ele>565</ele>
        <time>2019-05-24T14:01:17Z</time>
      </trkpt>
      <trkpt lat="44.28957" lon="5.82291">
        <ele>565</ele>
        <time>2019-05-24T14:01:18Z</time>
      </trkpt>
      <trkpt lat="44.28965" lon="5.82291">
        <ele>565</ele>
        <time>2019-05-24T14:01:19Z</time>
      </trkpt>
      <trkpt lat="44.28973" lon="5.8229">
        <ele>565</ele>
        <time>2019-05-24T14:01:20Z</time>
      </trkpt>
      <trkpt lat="44.28981" lon="5.8229">
        <ele>565</ele>
        <time>2019-05-24T14:01:21Z</time>
      </trkpt>
      <trkpt lat="44.28989" lon="5.8229">
        <ele>565</ele>
        <time>2019-05-24T14:01:22Z</time>
      </trkpt>
      <trkpt lat="44.28997" lon="5.82289">
        <ele>565</ele>
        <time>2019-05-24T14:01:23Z</time>
      </trkpt>
      <trkpt lat="44.29005" lon="5.82288">
        <ele>565</ele>
        <time>2019-05-24T14:01:24Z</time>
      </trkpt>
      <trkpt lat="44.29013" lon="5.82287">
        <ele>565</ele>
        <time>2019-05-24T14:01:25Z</time>
      </trkpt>
      <trkpt lat="44.29022" lon="5.82286">
        <ele>565</ele>
        <time>2019-05-24T14:01:26Z</time>
      </trkpt>
      <trkpt lat="44.29031" lon="5.82285">
        <ele>565</ele>
        <time>2019-05-24T14:01:27Z</time>
      </trkpt>
      <trkpt lat="44.29039" lon="5.82284">
        <ele>565</ele>
        <time>2019-05-24T14:01:28Z</time>
      </trkpt>
      <trkpt lat="44.29048" lon="5.82283">
        <ele>565</ele>
        <time>2019-05-24T14:01:29Z</time>
      </trkpt>
      <trkpt lat="44.29057" lon="5.82282">
        <ele>565</ele>
        <time>2019-05-24T14:01:30Z</time>
      </trkpt>
      <trkpt lat="44.29065" lon="5.82281">
        <ele>565</ele>
        <time>2019-05-24T14:01:31Z</time>
      </trkpt>
      <trkpt lat="44.29074" lon="5.8228">
        <ele>565</ele>
        <time>2019-05-24T14:01:32Z</time>
      </trkpt>
      <trkpt lat="44.29084" lon="5.8228">
        <ele>565</ele>
        <time>2019-05-24T14:01:33Z</time>
      </trkpt>
      <trkpt lat="44.29093" lon="5.82279">
        <ele>565</ele>
        <time>2019-05-24T14:01:34Z</time>
      </trkpt>
      <trkpt lat="44.29102" lon="5.82278">
        <ele>565</ele>
        <time>2019-05-24T14:01:35Z</time>
      </trkpt>
      <trkpt lat="44.29111" lon="5.82277">
        <ele>565</ele>
        <time>2019-05-24T14:01:36Z</time>
      </trkpt>
      <trkpt lat="44.29119" lon="5.82276">
        <ele>564</ele>
        <time>2019-05-24T14:01:37Z</time>
      </trkpt>
      <trkpt lat="44.29128" lon="5.82274">
        <ele>564</ele>
        <time>2019-05-24T14:01:38Z</time>
      </trkpt>
      <trkpt lat="44.29136" lon="5.82273">
        <ele>563</ele>
        <time>2019-05-24T14:01:39Z</time>
      </trkpt>
      <trkpt lat="44.29144" lon="5.82272">
        <ele>563</ele>
        <time>2019-05-24T14:01:40Z</time>
      </trkpt>
      <trkpt lat="44.29152" lon="5.82271">
        <ele>562</ele>
        <time>2019-05-24T14:01:41Z</time>
      </trkpt>
      <trkpt lat="44.2916" lon="5.8227">
        <ele>562</ele>
        <time>2019-05-24T14:01:42Z</time>
      </trkpt>
      <trkpt lat="44.29168" lon="5.82269">
        <ele>561</ele>
        <time>2019-05-24T14:01:43Z</time>
      </trkpt>
      <trkpt lat="44.29176" lon="5.82267">
        <ele>561</ele>
        <time>2019-05-24T14:01:44Z</time>
      </trkpt>
      <trkpt lat="44.29184" lon="5.82266">
        <ele>561</ele>
        <time>2019-05-24T14:01:45Z</time>
      </trkpt>
      <trkpt lat="44.29193" lon="5.82266">
        <ele>561</ele>
        <time>2019-05-24T14:01:46Z</time>
      </trkpt>
      <trkpt lat="44.29201" lon="5.82265">
        <ele>561</ele>
        <time>2019-05-24T14:01:47Z</time>
      </trkpt>
      <trkpt lat="44.29209" lon="5.82264">
        <ele>561</ele>
        <time>2019-05-24T14:01:48Z</time>
      </trkpt>
      <trkpt lat="44.29217" lon="5.82264">
        <ele>561</ele>
        <time>2019-05-24T14:01:49Z</time>
      </trkpt>
      <trkpt lat="44.29225" lon="5.82263">
        <ele>561</ele>
        <time>2019-05-24T14:01:50Z</time>
      </trkpt>
      <trkpt lat="44.29233" lon="5.82262">
        <ele>561</ele>
        <time>2019-05-24T14:01:51Z</time>
      </trkpt>
      <trkpt lat="44.29241" lon="5.8226">
        <ele>561</ele>
        <time>2019-05-24T14:01:52Z</time>
      </trkpt>
      <trkpt lat="44.29248" lon="5.82258">
        <ele>561</ele>
        <time>2019-05-24T14:01:53Z</time>
      </trkpt>
      <trkpt lat="44.29256" lon="5.82257">
        <ele>561</ele>
        <time>2019-05-24T14:01:54Z</time>
      </trkpt>
      <trkpt lat="44.29264" lon="5.82254">
        <ele>561</ele>
        <time>2019-05-24T14:01:55Z</time>
      </trkpt>
      <trkpt lat="44.29271" lon="5.82251">
        <ele>561</ele>
        <time>2019-05-24T14:01:56Z</time>
      </trkpt>
      <trkpt lat="44.29279" lon="5.82248">
        <ele>561</ele>
        <time>2019-05-24T14:01:57Z</time>
      </trkpt>
      <trkpt lat="44.29286" lon="5.82245">
        <ele>561</ele>
        <time>2019-05-24T14:01:58Z</time>
      </trkpt>
      <trkpt lat="44.29293" lon="5.82242">
        <ele>561</ele>
        <time>2019-05-24T14:01:59Z</time>
      </trkpt>
      <trkpt lat="44.293" lon="5.82239">
        <ele>561</ele>
        <time>2019-05-24T14:02:00Z</time>
      </trkpt>
      <trkpt lat="44.29307" lon="5.82236">
        <ele>561</ele>
        <time>2019-05-24T14:02:01Z</time>
      </trkpt>
      <trkpt lat="44.29314" lon="5.82233">
        <ele>561</ele>
        <time>2019-05-24T14:02:02Z</time>
      </trkpt>
      <trkpt lat="44.29321" lon="5.8223">
        <ele>561</ele>
        <time>2019-05-24T14:02:03Z</time>
      </trkpt>
      <trkpt lat="44.29328" lon="5.82227">
        <ele>561</ele>
        <time>2019-05-24T14:02:04Z</time>
      </trkpt>
      <trkpt lat="44.29335" lon="5.82224">
        <ele>561</ele>
        <time>2019-05-24T14:02:05Z</time>
      </trkpt>
      <trkpt lat="44.29341" lon="5.82221">
        <ele>561</ele>
        <time>2019-05-24T14:02:06Z</time>
      </trkpt>
      <trkpt lat="44.29348" lon="5.82217">
        <ele>561</ele>
        <time>2019-05-24T14:02:07Z</time>
      </trkpt>
      <trkpt lat="44.29355" lon="5.82214">
        <ele>561</ele>
        <time>2019-05-24T14:02:08Z</time>
      </trkpt>
      <trkpt lat="44.29361" lon="5.8221">
        <ele>561</ele>
        <time>2019-05-24T14:02:09Z</time>
      </trkpt>
      <trkpt lat="44.29368" lon="5.82205">
        <ele>561</ele>
        <time>2019-05-24T14:02:10Z</time>
      </trkpt>
      <trkpt lat="44.29374" lon="5.822">
        <ele>561</ele>
        <time>2019-05-24T14:02:11Z</time>
      </trkpt>
      <trkpt lat="44.2938" lon="5.82194">
        <ele>561</ele>
        <time>2019-05-24T14:02:12Z</time>
      </trkpt>
      <trkpt lat="44.29385" lon="5.82188">
        <ele>561</ele>
        <time>2019-05-24T14:02:13Z</time>
      </trkpt>
      <trkpt lat="44.29391" lon="5.82182">
        <ele>561</ele>
        <time>2019-05-24T14:02:14Z</time>
      </trkpt>
      <trkpt lat="44.29397" lon="5.82175">
        <ele>561</ele>
        <time>2019-05-24T14:02:15Z</time>
      </trkpt>
      <trkpt lat="44.29403" lon="5.82168">
        <ele>561</ele>
        <time>2019-05-24T14:02:16Z</time>
      </trkpt>
      <trkpt lat="44.2941" lon="5.82161">
        <ele>561</ele>
        <time>2019-05-24T14:02:17Z</time>
      </trkpt>
      <trkpt lat="44.29416" lon="5.82154">
        <ele>561</ele>
        <time>2019-05-24T14:02:18Z</time>
      </trkpt>
      <trkpt lat="44.29423" lon="5.82147">
        <ele>561</ele>
        <time>2019-05-24T14:02:19Z</time>
      </trkpt>
      <trkpt lat="44.2943" lon="5.8214">
        <ele>561</ele>
        <time>2019-05-24T14:02:20Z</time>
      </trkpt>
      <trkpt lat="44.29437" lon="5.82132">
        <ele>561</ele>
        <time>2019-05-24T14:02:21Z</time>
      </trkpt>
      <trkpt lat="44.29444" lon="5.82126">
        <ele>561</ele>
        <time>2019-05-24T14:02:22Z</time>
      </trkpt>
      <trkpt lat="44.29451" lon="5.8212">
        <ele>561</ele>
        <time>2019-05-24T14:02:23Z</time>
      </trkpt>
      <trkpt lat="44.29459" lon="5.82115">
        <ele>561</ele>
        <time>2019-05-24T14:02:24Z</time>
      </trkpt>
      <trkpt lat="44.29466" lon="5.8211">
        <ele>561</ele>
        <time>2019-05-24T14:02:25Z</time>
      </trkpt>
      <trkpt lat="44.29474" lon="5.82106">
        <ele>561</ele>
        <time>2019-05-24T14:02:26Z</time>
      </trkpt>
      <trkpt lat="44.29482" lon="5.82104">
        <ele>561</ele>
        <time>2019-05-24T14:02:27Z</time>
      </trkpt>
      <trkpt lat="44.2949" lon="5.82102">
        <ele>561</ele>
        <time>2019-05-24T14:02:28Z</time>
      </trkpt>
      <trkpt lat="44.29499" lon="5.82101">
        <ele>561</ele>
        <time>2019-05-24T14:02:29Z</time>
      </trkpt>
      <trkpt lat="44.29507" lon="5.821">
        <ele>561</ele>
        <time>2019-05-24T14:02:30Z</time>
      </trkpt>
      <trkpt lat="44.29514" lon="5.82101">
        <ele>561</ele>
        <time>2019-05-24T14:02:31Z</time>
      </trkpt>
      <trkpt lat="44.29522" lon="5.82102">
        <ele>561</ele>
        <time>2019-05-24T14:02:32Z</time>
      </trkpt>
      <trkpt lat="44.29531" lon="5.82103">
        <ele>561</ele>
        <time>2019-05-24T14:02:33Z</time>
      </trkpt>
      <trkpt lat="44.29539" lon="5.82104">
        <ele>561</ele>
        <time>2019-05-24T14:02:34Z</time>
      </trkpt>
      <trkpt lat="44.29548" lon="5.82106">
        <ele>561</ele>
        <time>2019-05-24T14:02:35Z</time>
      </trkpt>
      <trkpt lat="44.29557" lon="5.82108">
        <ele>561</ele>
        <time>2019-05-24T14:02:36Z</time>
      </trkpt>
      <trkpt lat="44.29565" lon="5.8211">
        <ele>561</ele>
        <time>2019-05-24T14:02:37Z</time>
      </trkpt>
      <trkpt lat="44.29574" lon="5.82113">
        <ele>561</ele>
        <time>2019-05-24T14:02:38Z</time>
      </trkpt>
      <trkpt lat="44.29582" lon="5.82116">
        <ele>561</ele>
        <time>2019-05-24T14:02:39Z</time>
      </trkpt>
      <trkpt lat="44.29591" lon="5.8212">
        <ele>561</ele>
        <time>2019-05-24T14:02:40Z</time>
      </trkpt>
      <trkpt lat="44.29599" lon="5.82125">
        <ele>561</ele>
        <time>2019-05-24T14:02:41Z</time>
      </trkpt>
      <trkpt lat="44.29607" lon="5.82129">
        <ele>561</ele>
        <time>2019-05-24T14:02:42Z</time>
      </trkpt>
      <trkpt lat="44.29615" lon="5.82134">
        <ele>560</ele>
        <time>2019-05-24T14:02:43Z</time>
      </trkpt>
      <trkpt lat="44.29623" lon="5.8214">
        <ele>560</ele>
        <time>2019-05-24T14:02:44Z</time>
      </trkpt>
      <trkpt lat="44.29631" lon="5.82146">
        <ele>560</ele>
        <time>2019-05-24T14:02:45Z</time>
      </trkpt>
      <trkpt lat="44.29639" lon="5.82153">
        <ele>560</ele>
        <time>2019-05-24T14:02:46Z</time>
      </trkpt>
      <trkpt lat="44.29647" lon="5.8216">
        <ele>560</ele>
        <time>2019-05-24T14:02:47Z</time>
      </trkpt>
      <trkpt lat="44.29654" lon="5.82167">
        <ele>560</ele>
        <time>2019-05-24T14:02:48Z</time>
      </trkpt>
      <trkpt lat="44.29661" lon="5.82175">
        <ele>560</ele>
        <time>2019-05-24T14:02:49Z</time>
      </trkpt>
      <trkpt lat="44.29668" lon="5.82183">
        <ele>560</ele>
        <time>2019-05-24T14:02:50Z</time>
      </trkpt>
      <trkpt lat="44.29675" lon="5.82191">
        <ele>560</ele>
        <time>2019-05-24T14:02:51Z</time>
      </trkpt>
      <trkpt lat="44.29682" lon="5.82198">
        <ele>560</ele>
        <time>2019-05-24T14:02:52Z</time>
      </trkpt>
      <trkpt lat="44.29689" lon="5.82205">
        <ele>560</ele>
        <time>2019-05-24T14:02:53Z</time>
      </trkpt>
      <trkpt lat="44.29697" lon="5.82211">
        <ele>560</ele>
        <time>2019-05-24T14:02:54Z</time>
      </trkpt>
      <trkpt lat="44.29704" lon="5.82217">
        <ele>560</ele>
        <time>2019-05-24T14:02:55Z</time>
      </trkpt>
      <trkpt lat="44.29711" lon="5.82223">
        <ele>560</ele>
        <time>2019-05-24T14:02:56Z</time>
      </trkpt>
      <trkpt lat="44.29719" lon="5.82228">
        <ele>560</ele>
        <time>2019-05-24T14:02:57Z</time>
      </trkpt>
      <trkpt lat="44.29727" lon="5.82232">
        <ele>560</ele>
        <time>2019-05-24T14:02:58Z</time>
      </trkpt>
      <trkpt lat="44.29735" lon="5.82236">
        <ele>560</ele>
        <time>2019-05-24T14:02:59Z</time>
      </trkpt>
      <trkpt lat="44.29743" lon="5.8224">
        <ele>560</ele>
        <time>2019-05-24T14:03:00Z</time>
      </trkpt>
      <trkpt lat="44.29751" lon="5.82243">
        <ele>560</ele>
        <time>2019-05-24T14:03:01Z</time>
      </trkpt>
      <trkpt lat="44.29759" lon="5.82246">
        <ele>560</ele>
        <time>2019-05-24T14:03:02Z</time>
      </trkpt>
      <trkpt lat="44.29768" lon="5.82249">
        <ele>560</ele>
        <time>2019-05-24T14:03:03Z</time>
      </trkpt>
      <trkpt lat="44.29776" lon="5.82251">
        <ele>560</ele>
        <time>2019-05-24T14:03:04Z</time>
      </trkpt>
      <trkpt lat="44.29785" lon="5.82253">
        <ele>560</ele>
        <time>2019-05-24T14:03:05Z</time>
      </trkpt>
      <trkpt lat="44.29794" lon="5.82255">
        <ele>560</ele>
        <time>2019-05-24T14:03:06Z</time>
      </trkpt>
      <trkpt lat="44.29802" lon="5.82256">
        <ele>559</ele>
        <time>2019-05-24T14:03:07Z</time>
      </trkpt>
      <trkpt lat="44.29811" lon="5.82257">
        <ele>559</ele>
        <time>2019-05-24T14:03:08Z</time>
      </trkpt>
      <trkpt lat="44.29819" lon="5.82259">
        <ele>559</ele>
        <time>2019-05-24T14:03:09Z</time>
      </trkpt>
      <trkpt lat="44.29828" lon="5.8226">
        <ele>559</ele>
        <time>2019-05-24T14:03:10Z</time>
      </trkpt>
      <trkpt lat="44.29837" lon="5.82262">
        <ele>558</ele>
        <time>2019-05-24T14:03:11Z</time>
      </trkpt>
      <trkpt lat="44.29845" lon="5.82264">
        <ele>558</ele>
        <time>2019-05-24T14:03:12Z</time>
      </trkpt>
      <trkpt lat="44.29853" lon="5.82267">
        <ele>558</ele>
        <time>2019-05-24T14:03:13Z</time>
      </trkpt>
      <trkpt lat="44.29862" lon="5.8227">
        <ele>558</ele>
        <time>2019-05-24T14:03:14Z</time>
      </trkpt>
      <trkpt lat="44.2987" lon="5.82274">
        <ele>558</ele>
        <time>2019-05-24T14:03:15Z</time>
      </trkpt>
      <trkpt lat="44.29878" lon="5.82278">
        <ele>558</ele>
        <time>2019-05-24T14:03:16Z</time>
      </trkpt>
      <trkpt lat="44.29886" lon="5.82282">
        <ele>558</ele>
        <time>2019-05-24T14:03:17Z</time>
      </trkpt>
      <trkpt lat="44.29894" lon="5.82287">
        <ele>558</ele>
        <time>2019-05-24T14:03:18Z</time>
      </trkpt>
      <trkpt lat="44.29901" lon="5.82291">
        <ele>558</ele>
        <time>2019-05-24T14:03:19Z</time>
      </trkpt>
      <trkpt lat="44.29909" lon="5.82296">
        <ele>558</ele>
        <time>2019-05-24T14:03:20Z</time>
      </trkpt>
      <trkpt lat="44.29916" lon="5.823">
        <ele>558</ele>
        <time>2019-05-24T14:03:21Z</time>
      </trkpt>
      <trkpt lat="44.29924" lon="5.82303">
        <ele>558</ele>
        <time>2019-05-24T14:03:22Z</time>
      </trkpt>
      <trkpt lat="44.29931" lon="5.82307">
        <ele>558</ele>
        <time>2019-05-24T14:03:23Z</time>
      </trkpt>
      <trkpt lat="44.29939" lon="5.82311">
        <ele>558</ele>
        <time>2019-05-24T14:03:24Z</time>
      </trkpt>
      <trkpt lat="44.29945" lon="5.82314">
        <ele>558</ele>
        <time>2019-05-24T14:03:25Z</time>
      </trkpt>
      <trkpt lat="44.29952" lon="5.82317">
        <ele>558</ele>
        <time>2019-05-24T14:03:26Z</time>
      </trkpt>
      <trkpt lat="44.29959" lon="5.8232">
        <ele>558</ele>
        <time>2019-05-24T14:03:27Z</time>
      </trkpt>
      <trkpt lat="44.29966" lon="5.82323">
        <ele>558</ele>
        <time>2019-05-24T14:03:28Z</time>
      </trkpt>
      <trkpt lat="44.29972" lon="5.82325">
        <ele>558</ele>
        <time>2019-05-24T14:03:29Z</time>
      </trkpt>
      <trkpt lat="44.29979" lon="5.82328">
        <ele>558</ele>
        <time>2019-05-24T14:03:30Z</time>
      </trkpt>
      <trkpt lat="44.29985" lon="5.8233">
        <ele>558</ele>
        <time>2019-05-24T14:03:31Z</time>
      </trkpt>
      <trkpt lat="44.29992" lon="5.82332">
        <ele>558</ele>
        <time>2019-05-24T14:03:32Z</time>
      </trkpt>
      <trkpt lat="44.29998" lon="5.82334">
        <ele>558</ele>
        <time>2019-05-24T14:03:33Z</time>
      </trkpt>
      <trkpt lat="44.30005" lon="5.82336">
        <ele>558</ele>
        <time>2019-05-24T14:03:34Z</time>
      </trkpt>
      <trkpt lat="44.30011" lon="5.82338">
        <ele>558</ele>
        <time>2019-05-24T14:03:35Z</time>
      </trkpt>
      <trkpt lat="44.30018" lon="5.82339">
        <ele>558</ele>
        <time>2019-05-24T14:03:36Z</time>
      </trkpt>
      <trkpt lat="44.30024" lon="5.82341">
        <ele>558</ele>
        <time>2019-05-24T14:03:37Z</time>
      </trkpt>
      <trkpt lat="44.30031" lon="5.82342">
        <ele>558</ele>
        <time>2019-05-24T14:03:38Z</time>
      </trkpt>
      <trkpt lat="44.30037" lon="5.82343">
        <ele>558</ele>
        <time>2019-05-24T14:03:39Z</time>
      </trkpt>
      <trkpt lat="44.30044" lon="5.82344">
        <ele>558</ele>
        <time>2019-05-24T14:03:40Z</time>
      </trkpt>
      <trkpt lat="44.30051" lon="5.82345">
        <ele>558</ele>
        <time>2019-05-24T14:03:41Z</time>
      </trkpt>
      <trkpt lat="44.30057" lon="5.82346">
        <ele>558</ele>
        <time>2019-05-24T14:03:42Z</time>
      </trkpt>
      <trkpt lat="44.30064" lon="5.82347">
        <ele>558</ele>
        <time>2019-05-24T14:03:43Z</time>
      </trkpt>
      <trkpt lat="44.30071" lon="5.82348">
        <ele>558</ele>
        <time>2019-05-24T14:03:44Z</time>
      </trkpt>
      <trkpt lat="44.30077" lon="5.82349">
        <ele>558</ele>
        <time>2019-05-24T14:03:45Z</time>
      </trkpt>
      <trkpt lat="44.30084" lon="5.82349">
        <ele>558</ele>
        <time>2019-05-24T14:03:46Z</time>
      </trkpt>
      <trkpt lat="44.30091" lon="5.8235">
        <ele>558</ele>
        <time>2019-05-24T14:03:47Z</time>
      </trkpt>
      <trkpt lat="44.30097" lon="5.8235">
        <ele>558</ele>
        <time>2019-05-24T14:03:48Z</time>
      </trkpt>
      <trkpt lat="44.30104" lon="5.8235">
        <ele>558</ele>
        <time>2019-05-24T14:03:49Z</time>
      </trkpt>
      <trkpt lat="44.30111" lon="5.8235">
        <ele>558</ele>
        <time>2019-05-24T14:03:50Z</time>
      </trkpt>
      <trkpt lat="44.30118" lon="5.8235">
        <ele>558</ele>
        <time>2019-05-24T14:03:51Z</time>
      </trkpt>
      <trkpt lat="44.30125" lon="5.8235">
        <ele>558</ele>
        <time>2019-05-24T14:03:52Z</time>
      </trkpt>
      <trkpt lat="44.30132" lon="5.82351">
        <ele>558</ele>
        <time>2019-05-24T14:03:53Z</time>
      </trkpt>
      <trkpt lat="44.30139" lon="5.82351">
        <ele>558</ele>
        <time>2019-05-24T14:03:54Z</time>
      </trkpt>
      <trkpt lat="44.30146" lon="5.82351">
        <ele>558</ele>
        <time>2019-05-24T14:03:55Z</time>
      </trkpt>
      <trkpt lat="44.30152" lon="5.82352">
        <ele>558</ele>
        <time>2019-05-24T14:03:56Z</time>
      </trkpt>
      <trkpt lat="44.30159" lon="5.82352">
        <ele>558</ele>
        <time>2019-05-24T14:03:57Z</time>
      </trkpt>
      <trkpt lat="44.30165" lon="5.82353">
        <ele>558</ele>
        <time>2019-05-24T14:03:58Z</time>
      </trkpt>
      <trkpt lat="44.30172" lon="5.82353">
        <ele>558</ele>
        <time>2019-05-24T14:03:59Z</time>
      </trkpt>
      <trkpt lat="44.30178" lon="5.82354">
        <ele>558</ele>
        <time>2019-05-24T14:04:00Z</time>
      </trkpt>
      <trkpt lat="44.30185" lon="5.82354">
        <ele>558</ele>
        <time>2019-05-24T14:04:01Z</time>
      </trkpt>
      <trkpt lat="44.30191" lon="5.82354">
        <ele>558</ele>
        <time>2019-05-24T14:04:02Z</time>
      </trkpt>
      <trkpt lat="44.30198" lon="5.82355">
        <ele>558</ele>
        <time>2019-05-24T14:04:03Z</time>
      </trkpt>
      <trkpt lat="44.30204" lon="5.82355">
        <ele>558</ele>
        <time>2019-05-24T14:04:04Z</time>
      </trkpt>
      <trkpt lat="44.30211" lon="5.82356">
        <ele>558</ele>
        <time>2019-05-24T14:04:05Z</time>
      </trkpt>
      <trkpt lat="44.30218" lon="5.82355">
        <ele>558</ele>
        <time>2019-05-24T14:04:06Z</time>
      </trkpt>
      <trkpt lat="44.30225" lon="5.82355">
        <ele>558</ele>
        <time>2019-05-24T14:04:07Z</time>
      </trkpt>
      <trkpt lat="44.30231" lon="5.82355">
        <ele>558</ele>
        <time>2019-05-24T14:04:08Z</time>
      </trkpt>
      <trkpt lat="44.30238" lon="5.82354">
        <ele>558</ele>
        <time>2019-05-24T14:04:09Z</time>
      </trkpt>
      <trkpt lat="44.30245" lon="5.82353">
        <ele>558</ele>
        <time>2019-05-24T14:04:10Z</time>
      </trkpt>
      <trkpt lat="44.30252" lon="5.82352">
        <ele>558</ele>
        <time>2019-05-24T14:04:11Z</time>
      </trkpt>
      <trkpt lat="44.30259" lon="5.82351">
        <ele>558</ele>
        <time>2019-05-24T14:04:12Z</time>
      </trkpt>
      <trkpt lat="44.30265" lon="5.8235">
        <ele>558</ele>
        <time>2019-05-24T14:04:13Z</time>
      </trkpt>
      <trkpt lat="44.30272" lon="5.82349">
        <ele>558</ele>
        <time>2019-05-24T14:04:14Z</time>
      </trkpt>
      <trkpt lat="44.30279" lon="5.82347">
        <ele>558</ele>
        <time>2019-05-24T14:04:15Z</time>
      </trkpt>
      <trkpt lat="44.30286" lon="5.82346">
        <ele>558</ele>
        <time>2019-05-24T14:04:16Z</time>
      </trkpt>
      <trkpt lat="44.30292" lon="5.82344">
        <ele>558</ele>
        <time>2019-05-24T14:04:17Z</time>
      </trkpt>
      <trkpt lat="44.30299" lon="5.82343">
        <ele>558</ele>
        <time>2019-05-24T14:04:18Z</time>
      </trkpt>
      <trkpt lat="44.30306" lon="5.82341">
        <ele>558</ele>
        <time>2019-05-24T14:04:19Z</time>
      </trkpt>
      <trkpt lat="44.30313" lon="5.8234">
        <ele>558</ele>
        <time>2019-05-24T14:04:20Z</time>
      </trkpt>
      <trkpt lat="44.3032" lon="5.82339">
        <ele>558</ele>
        <time>2019-05-24T14:04:21Z</time>
      </trkpt>
      <trkpt lat="44.30327" lon="5.82338">
        <ele>558</ele>
        <time>2019-05-24T14:04:22Z</time>
      </trkpt>
      <trkpt lat="44.30334" lon="5.82336">
        <ele>558</ele>
        <time>2019-05-24T14:04:23Z</time>
      </trkpt>
      <trkpt lat="44.30341" lon="5.82335">
        <ele>558</ele>
        <time>2019-05-24T14:04:24Z</time>
      </trkpt>
      <trkpt lat="44.30349" lon="5.82333">
        <ele>558</ele>
        <time>2019-05-24T14:04:25Z</time>
      </trkpt>
      <trkpt lat="44.30355" lon="5.82332">
        <ele>558</ele>
        <time>2019-05-24T14:04:26Z</time>
      </trkpt>
      <trkpt lat="44.30362" lon="5.8233">
        <ele>558</ele>
        <time>2019-05-24T14:04:27Z</time>
      </trkpt>
      <trkpt lat="44.30369" lon="5.82329">
        <ele>558</ele>
        <time>2019-05-24T14:04:28Z</time>
      </trkpt>
      <trkpt lat="44.30376" lon="5.82328">
        <ele>558</ele>
        <time>2019-05-24T14:04:29Z</time>
      </trkpt>
      <trkpt lat="44.30383" lon="5.82327">
        <ele>558</ele>
        <time>2019-05-24T14:04:30Z</time>
      </trkpt>
      <trkpt lat="44.30389" lon="5.82326">
        <ele>558</ele>
        <time>2019-05-24T14:04:31Z</time>
      </trkpt>
      <trkpt lat="44.30396" lon="5.82325">
        <ele>558</ele>
        <time>2019-05-24T14:04:32Z</time>
      </trkpt>
      <trkpt lat="44.30402" lon="5.82324">
        <ele>558</ele>
        <time>2019-05-24T14:04:33Z</time>
      </trkpt>
      <trkpt lat="44.3041" lon="5.82324">
        <ele>558</ele>
        <time>2019-05-24T14:04:34Z</time>
      </trkpt>
      <trkpt lat="44.30416" lon="5.82324">
        <ele>558</ele>
        <time>2019-05-24T14:04:35Z</time>
      </trkpt>
      <trkpt lat="44.30424" lon="5.82323">
        <ele>558</ele>
        <time>2019-05-24T14:04:36Z</time>
      </trkpt>
      <trkpt lat="44.30431" lon="5.82323">
        <ele>558</ele>
        <time>2019-05-24T14:04:37Z</time>
      </trkpt>
      <trkpt lat="44.30438" lon="5.82323">
        <ele>558</ele>
        <time>2019-05-24T14:04:38Z</time>
      </trkpt>
      <trkpt lat="44.30445" lon="5.82323">
        <ele>558</ele>
        <time>2019-05-24T14:04:39Z</time>
      </trkpt>
      <trkpt lat="44.30452" lon="5.82323">
        <ele>558</ele>
        <time>2019-05-24T14:04:40Z</time>
      </trkpt>
      <trkpt lat="44.30459" lon="5.82323">
        <ele>558</ele>
        <time>2019-05-24T14:04:41Z</time>
      </trkpt>
      <trkpt lat="44.30466" lon="5.82323">
        <ele>558</ele>
        <time>2019-05-24T14:04:42Z</time>
      </trkpt>
      <trkpt lat="44.30473" lon="5.82323">
        <ele>558</ele>
        <time>2019-05-24T14:04:43Z</time>
      </trkpt>
      <trkpt lat="44.3048" lon="5.82323">
        <ele>558</ele>
        <time>2019-05-24T14:04:44Z</time>
      </trkpt>
      <trkpt lat="44.30487" lon="5.82323">
        <ele>558</ele>
        <time>2019-05-24T14:04:45Z</time>
      </trkpt>
      <trkpt lat="44.30494" lon="5.82323">
        <ele>558</ele>
        <time>2019-05-24T14:04:46Z</time>
      </trkpt>
      <trkpt lat="44.30501" lon="5.82323">
        <ele>558</ele>
        <time>2019-05-24T14:04:47Z</time>
      </trkpt>
      <trkpt lat="44.30508" lon="5.82323">
        <ele>558</ele>
        <time>2019-05-24T14:04:48Z</time>
      </trkpt>
      <trkpt lat="44.30515" lon="5.82322">
        <ele>558</ele>
        <time>2019-05-24T14:04:49Z</time>
      </trkpt>
      <trkpt lat="44.30523" lon="5.82321">
        <ele>558</ele>
        <time>2019-05-24T14:04:50Z</time>
      </trkpt>
      <trkpt lat="44.30529" lon="5.8232">
        <ele>558</ele>
        <time>2019-05-24T14:04:51Z</time>
      </trkpt>
      <trkpt lat="44.30537" lon="5.82319">
        <ele>558</ele>
        <time>2019-05-24T14:04:52Z</time>
      </trkpt>
      <trkpt lat="44.30543" lon="5.82318">
        <ele>558</ele>
        <time>2019-05-24T14:04:53Z</time>
      </trkpt>
      <trkpt lat="44.3055" lon="5.82316">
        <ele>558</ele>
        <time>2019-05-24T14:04:54Z</time>
      </trkpt>
      <trkpt lat="44.30557" lon="5.82315">
        <ele>558</ele>
        <time>2019-05-24T14:04:55Z</time>
      </trkpt>
      <trkpt lat="44.30563" lon="5.82314">
        <ele>558</ele>
        <time>2019-05-24T14:04:56Z</time>
      </trkpt>
      <trkpt lat="44.3057" lon="5.82313">
        <ele>558</ele>
        <time>2019-05-24T14:04:57Z</time>
      </trkpt>
      <trkpt lat="44.30576" lon="5.82312">
        <ele>558</ele>
        <time>2019-05-24T14:04:58Z</time>
      </trkpt>
      <trkpt lat="44.30583" lon="5.82312">
        <ele>558</ele>
        <time>2019-05-24T14:04:59Z</time>
      </trkpt>
      <trkpt lat="44.3059" lon="5.82311">
        <ele>558</ele>
        <time>2019-05-24T14:05:00Z</time>
      </trkpt>
      <trkpt lat="44.30596" lon="5.82309">
        <ele>558</ele>
        <time>2019-05-24T14:05:01Z</time>
      </trkpt>
      <trkpt lat="44.30602" lon="5.82308">
        <ele>558</ele>
        <time>2019-05-24T14:05:02Z</time>
      </trkpt>
      <trkpt lat="44.30609" lon="5.82307">
        <ele>558</ele>
        <time>2019-05-24T14:05:03Z</time>
      </trkpt>
      <trkpt lat="44.30615" lon="5.82305">
        <ele>558</ele>
        <time>2019-05-24T14:05:04Z</time>
      </trkpt>
      <trkpt lat="44.30621" lon="5.82302">
        <ele>558</ele>
        <time>2019-05-24T14:05:05Z</time>
      </trkpt>
      <trkpt lat="44.30627" lon="5.82299">
        <ele>558</ele>
        <time>2019-05-24T14:05:06Z</time>
      </trkpt>
      <trkpt lat="44.30634" lon="5.82296">
        <ele>558</ele>
        <time>2019-05-24T14:05:07Z</time>
      </trkpt>
      <trkpt lat="44.3064" lon="5.82293">
        <ele>558</ele>
        <time>2019-05-24T14:05:08Z</time>
      </trkpt>
      <trkpt lat="44.30645" lon="5.8229">
        <ele>558</ele>
        <time>2019-05-24T14:05:09Z</time>
      </trkpt>
      <trkpt lat="44.30651" lon="5.82287">
        <ele>558</ele>
        <time>2019-05-24T14:05:10Z</time>
      </trkpt>
      <trkpt lat="44.30656" lon="5.82283">
        <ele>558</ele>
        <time>2019-05-24T14:05:11Z</time>
      </trkpt>
      <trkpt lat="44.30661" lon="5.82278">
        <ele>558</ele>
        <time>2019-05-24T14:05:12Z</time>
      </trkpt>
      <trkpt lat="44.30667" lon="5.82273">
        <ele>558</ele>
        <time>2019-05-24T14:05:13Z</time>
      </trkpt>
      <trkpt lat="44.30672" lon="5.82268">
        <ele>558</ele>
        <time>2019-05-24T14:05:14Z</time>
      </trkpt>
      <trkpt lat="44.30677" lon="5.82263">
        <ele>558</ele>
        <time>2019-05-24T14:05:15Z</time>
      </trkpt>
      <trkpt lat="44.30682" lon="5.82257">
        <ele>558</ele>
        <time>2019-05-24T14:05:16Z</time>
      </trkpt>
      <trkpt lat="44.30687" lon="5.82252">
        <ele>558</ele>
        <time>2019-05-24T14:05:17Z</time>
      </trkpt>
      <trkpt lat="44.30692" lon="5.82246">
        <ele>558</ele>
        <time>2019-05-24T14:05:18Z</time>
      </trkpt>
      <trkpt lat="44.30696" lon="5.82239">
        <ele>558</ele>
        <time>2019-05-24T14:05:19Z</time>
      </trkpt>
      <trkpt lat="44.30701" lon="5.82232">
        <ele>558</ele>
        <time>2019-05-24T14:05:20Z</time>
      </trkpt>
      <trkpt lat="44.30705" lon="5.82225">
        <ele>558</ele>
        <time>2019-05-24T14:05:21Z</time>
      </trkpt>
      <trkpt lat="44.30708" lon="5.82216">
        <ele>558</ele>
        <time>2019-05-24T14:05:22Z</time>
      </trkpt>
      <trkpt lat="44.30712" lon="5.82208">
        <ele>558</ele>
        <time>2019-05-24T14:05:23Z</time>
      </trkpt>
      <trkpt lat="44.30716" lon="5.822">
        <ele>558</ele>
        <time>2019-05-24T14:05:24Z</time>
      </trkpt>
      <trkpt lat="44.30719" lon="5.82192">
        <ele>558</ele>
        <time>2019-05-24T14:05:25Z</time>
      </trkpt>
      <trkpt lat="44.30722" lon="5.82183">
        <ele>558</ele>
        <time>2019-05-24T14:05:26Z</time>
      </trkpt>
      <trkpt lat="44.30726" lon="5.82174">
        <ele>558</ele>
        <time>2019-05-24T14:05:27Z</time>
      </trkpt>
      <trkpt lat="44.30729" lon="5.82165">
        <ele>558</ele>
        <time>2019-05-24T14:05:28Z</time>
      </trkpt>
      <trkpt lat="44.30733" lon="5.82157">
        <ele>558</ele>
        <time>2019-05-24T14:05:29Z</time>
      </trkpt>
      <trkpt lat="44.30736" lon="5.82148">
        <ele>558</ele>
        <time>2019-05-24T14:05:30Z</time>
      </trkpt>
      <trkpt lat="44.3074" lon="5.82138">
        <ele>558</ele>
        <time>2019-05-24T14:05:31Z</time>
      </trkpt>
      <trkpt lat="44.30743" lon="5.82129">
        <ele>558</ele>
        <time>2019-05-24T14:05:32Z</time>
      </trkpt>
      <trkpt lat="44.30747" lon="5.8212">
        <ele>558</ele>
        <time>2019-05-24T14:05:33Z</time>
      </trkpt>
      <trkpt lat="44.30751" lon="5.82111">
        <ele>558</ele>
        <time>2019-05-24T14:05:34Z</time>
      </trkpt>
      <trkpt lat="44.30756" lon="5.82103">
        <ele>558</ele>
        <time>2019-05-24T14:05:35Z</time>
      </trkpt>
      <trkpt lat="44.30762" lon="5.82096">
        <ele>558</ele>
        <time>2019-05-24T14:05:36Z</time>
      </trkpt>
      <trkpt lat="44.30768" lon="5.8209">
        <ele>558</ele>
        <time>2019-05-24T14:05:37Z</time>
      </trkpt>
      <trkpt lat="44.30775" lon="5.82085">
        <ele>558</ele>
        <time>2019-05-24T14:05:38Z</time>
      </trkpt>
      <trkpt lat="44.30783" lon="5.82081">
        <ele>558</ele>
        <time>2019-05-24T14:05:39Z</time>
      </trkpt>
      <trkpt lat="44.3079" lon="5.82078">
        <ele>558</ele>
        <time>2019-05-24T14:05:40Z</time>
      </trkpt>
      <trkpt lat="44.30797" lon="5.82076">
        <ele>558</ele>
        <time>2019-05-24T14:05:41Z</time>
      </trkpt>
      <trkpt lat="44.30804" lon="5.82074">
        <ele>558</ele>
        <time>2019-05-24T14:05:42Z</time>
      </trkpt>
      <trkpt lat="44.30812" lon="5.82072">
        <ele>558</ele>
        <time>2019-05-24T14:05:43Z</time>
      </trkpt>
      <trkpt lat="44.30818" lon="5.82071">
        <ele>558</ele>
        <time>2019-05-24T14:05:44Z</time>
      </trkpt>
      <trkpt lat="44.30825" lon="5.82069">
        <ele>558</ele>
        <time>2019-05-24T14:05:45Z</time>
      </trkpt>
      <trkpt lat="44.30832" lon="5.82068">
        <ele>558</ele>
        <time>2019-05-24T14:05:46Z</time>
      </trkpt>
      <trkpt lat="44.3084" lon="5.82066">
        <ele>558</ele>
        <time>2019-05-24T14:05:47Z</time>
      </trkpt>
      <trkpt lat="44.30847" lon="5.82064">
        <ele>558</ele>
        <time>2019-05-24T14:05:48Z</time>
      </trkpt>
      <trkpt lat="44.30854" lon="5.82062">
        <ele>558</ele>
        <time>2019-05-24T14:05:49Z</time>
      </trkpt>
      <trkpt lat="44.30861" lon="5.82061">
        <ele>558</ele>
        <time>2019-05-24T14:05:50Z</time>
      </trkpt>
      <trkpt lat="44.30867" lon="5.82058">
        <ele>558</ele>
        <time>2019-05-24T14:05:51Z</time>
      </trkpt>
      <trkpt lat="44.30874" lon="5.82056">
        <ele>558</ele>
        <time>2019-05-24T14:05:52Z</time>
      </trkpt>
      <trkpt lat="44.30881" lon="5.82054">
        <ele>558</ele>
        <time>2019-05-24T14:05:53Z</time>
      </trkpt>
      <trkpt lat="44.30888" lon="5.82051">
        <ele>558</ele>
        <time>2019-05-24T14:05:54Z</time>
      </trkpt>
      <trkpt lat="44.30896" lon="5.82048">
        <ele>558</ele>
        <time>2019-05-24T14:05:55Z</time>
      </trkpt>
      <trkpt lat="44.30903" lon="5.82045">
        <ele>558</ele>
        <time>2019-05-24T14:05:56Z</time>
      </trkpt>
      <trkpt lat="44.30911" lon="5.82043">
        <ele>558</ele>
        <time>2019-05-24T14:05:57Z</time>
      </trkpt>
      <trkpt lat="44.30919" lon="5.82041">
        <ele>558</ele>
        <time>2019-05-24T14:05:58Z</time>
      </trkpt>
      <trkpt lat="44.30927" lon="5.82041">
        <ele>558</ele>
        <time>2019-05-24T14:05:59Z</time>
      </trkpt>
      <trkpt lat="44.30935" lon="5.82042">
        <ele>557</ele>
        <time>2019-05-24T14:06:00Z</time>
      </trkpt>
      <trkpt lat="44.30943" lon="5.82043">
        <ele>557</ele>
        <time>2019-05-24T14:06:01Z</time>
      </trkpt>
      <trkpt lat="44.3095" lon="5.82046">
        <ele>557</ele>
        <time>2019-05-24T14:06:02Z</time>
      </trkpt>
      <trkpt lat="44.30958" lon="5.82049">
        <ele>557</ele>
        <time>2019-05-24T14:06:03Z</time>
      </trkpt>
      <trkpt lat="44.30966" lon="5.82054">
        <ele>557</ele>
        <time>2019-05-24T14:06:04Z</time>
      </trkpt>
      <trkpt lat="44.30973" lon="5.82059">
        <ele>557</ele>
        <time>2019-05-24T14:06:05Z</time>
      </trkpt>
      <trkpt lat="44.30981" lon="5.82064">
        <ele>557</ele>
        <time>2019-05-24T14:06:06Z</time>
      </trkpt>
      <trkpt lat="44.30988" lon="5.8207">
        <ele>557</ele>
        <time>2019-05-24T14:06:07Z</time>
      </trkpt>
      <trkpt lat="44.30996" lon="5.82076">
        <ele>557</ele>
        <time>2019-05-24T14:06:08Z</time>
      </trkpt>
      <trkpt lat="44.31002" lon="5.82083">
        <ele>557</ele>
        <time>2019-05-24T14:06:09Z</time>
      </trkpt>
      <trkpt lat="44.31008" lon="5.8209">
        <ele>557</ele>
        <time>2019-05-24T14:06:10Z</time>
      </trkpt>
      <trkpt lat="44.31014" lon="5.82098">
        <ele>557</ele>
        <time>2019-05-24T14:06:11Z</time>
      </trkpt>
      <trkpt lat="44.3102" lon="5.82105">
        <ele>557</ele>
        <time>2019-05-24T14:06:12Z</time>
      </trkpt>
      <trkpt lat="44.31025" lon="5.82113">
        <ele>557</ele>
        <time>2019-05-24T14:06:13Z</time>
      </trkpt>
      <trkpt lat="44.31031" lon="5.8212">
        <ele>557</ele>
        <time>2019-05-24T14:06:14Z</time>
      </trkpt>
      <trkpt lat="44.31036" lon="5.82126">
        <ele>557</ele>
        <time>2019-05-24T14:06:15Z</time>
      </trkpt>
      <trkpt lat="44.31041" lon="5.82133">
        <ele>557</ele>
        <time>2019-05-24T14:06:16Z</time>
      </trkpt>
      <trkpt lat="44.31046" lon="5.8214">
        <ele>557</ele>
        <time>2019-05-24T14:06:17Z</time>
      </trkpt>
      <trkpt lat="44.31051" lon="5.82146">
        <ele>557</ele>
        <time>2019-05-24T14:06:18Z</time>
      </trkpt>
      <trkpt lat="44.31055" lon="5.82153">
        <ele>557</ele>
        <time>2019-05-24T14:06:19Z</time>
      </trkpt>
      <trkpt lat="44.31059" lon="5.82159">
        <ele>557</ele>
        <time>2019-05-24T14:06:20Z</time>
      </trkpt>
      <trkpt lat="44.31062" lon="5.82164">
        <ele>557</ele>
        <time>2019-05-24T14:06:21Z</time>
      </trkpt>
      <trkpt lat="44.31066" lon="5.82168">
        <ele>557</ele>
        <time>2019-05-24T14:06:22Z</time>
      </trkpt>
      <trkpt lat="44.31071" lon="5.82175">
        <ele>557</ele>
        <time>2019-05-24T14:06:23Z</time>
      </trkpt>
      <trkpt lat="44.31077" lon="5.82181">
        <ele>557</ele>
        <time>2019-05-24T14:06:24Z</time>
      </trkpt>
      <trkpt lat="44.31082" lon="5.82188">
        <ele>557</ele>
        <time>2019-05-24T14:06:25Z</time>
      </trkpt>
      <trkpt lat="44.31087" lon="5.82194">
        <ele>557</ele>
        <time>2019-05-24T14:06:26Z</time>
      </trkpt>
      <trkpt lat="44.31093" lon="5.82201">
        <ele>558</ele>
        <time>2019-05-24T14:06:27Z</time>
      </trkpt>
      <trkpt lat="44.31098" lon="5.82208">
        <ele>558</ele>
        <time>2019-05-24T14:06:28Z</time>
      </trkpt>
      <trkpt lat="44.31105" lon="5.82217">
        <ele>558</ele>
        <time>2019-05-24T14:06:29Z</time>
      </trkpt>
      <trkpt lat="44.3111" lon="5.82223">
        <ele>558</ele>
        <time>2019-05-24T14:06:30Z</time>
      </trkpt>
      <trkpt lat="44.31115" lon="5.82231">
        <ele>558</ele>
        <time>2019-05-24T14:06:31Z</time>
      </trkpt>
      <trkpt lat="44.3112" lon="5.82237">
        <ele>558</ele>
        <time>2019-05-24T14:06:32Z</time>
      </trkpt>
      <trkpt lat="44.31124" lon="5.82244">
        <ele>558</ele>
        <time>2019-05-24T14:06:33Z</time>
      </trkpt>
      <trkpt lat="44.31129" lon="5.82249">
        <ele>558</ele>
        <time>2019-05-24T14:06:34Z</time>
      </trkpt>
      <trkpt lat="44.31133" lon="5.82255">
        <ele>558</ele>
        <time>2019-05-24T14:06:35Z</time>
      </trkpt>
      <trkpt lat="44.31138" lon="5.8226">
        <ele>558</ele>
        <time>2019-05-24T14:06:36Z</time>
      </trkpt>
      <trkpt lat="44.31142" lon="5.82265">
        <ele>558</ele>
        <time>2019-05-24T14:06:37Z</time>
      </trkpt>
      <trkpt lat="44.31146" lon="5.8227">
        <ele>558</ele>
        <time>2019-05-24T14:06:38Z</time>
      </trkpt>
      <trkpt lat="44.31149" lon="5.82277">
        <ele>558</ele>
        <time>2019-05-24T14:06:39Z</time>
      </trkpt>
      <trkpt lat="44.3115" lon="5.82283">
        <ele>558</ele>
        <time>2019-05-24T14:06:40Z</time>
      </trkpt>
      <trkpt lat="44.3115" lon="5.82291">
        <ele>558</ele>
        <time>2019-05-24T14:06:41Z</time>
      </trkpt>
      <trkpt lat="44.31147" lon="5.82297">
        <ele>558</ele>
        <time>2019-05-24T14:06:42Z</time>
      </trkpt>
      <trkpt lat="44.31144" lon="5.82304">
        <ele>558</ele>
        <time>2019-05-24T14:06:43Z</time>
      </trkpt>
      <trkpt lat="44.3114" lon="5.8231">
        <ele>558</ele>
        <time>2019-05-24T14:06:44Z</time>
      </trkpt>
      <trkpt lat="44.31136" lon="5.82316">
        <ele>558</ele>
        <time>2019-05-24T14:06:45Z</time>
      </trkpt>
      <trkpt lat="44.31131" lon="5.82323">
        <ele>558</ele>
        <time>2019-05-24T14:06:46Z</time>
      </trkpt>
      <trkpt lat="44.31127" lon="5.82329">
        <ele>558</ele>
        <time>2019-05-24T14:06:47Z</time>
      </trkpt>
      <trkpt lat="44.31123" lon="5.82336">
        <ele>558</ele>
        <time>2019-05-24T14:06:48Z</time>
      </trkpt>
      <trkpt lat="44.31118" lon="5.82342">
        <ele>558</ele>
        <time>2019-05-24T14:06:49Z</time>
      </trkpt>
      <trkpt lat="44.31114" lon="5.82349">
        <ele>558</ele>
        <time>2019-05-24T14:06:50Z</time>
      </trkpt>
      <trkpt lat="44.31111" lon="5.82357">
        <ele>558</ele>
        <time>2019-05-24T14:06:51Z</time>
      </trkpt>
      <trkpt lat="44.31108" lon="5.82365">
        <ele>558</ele>
        <time>2019-05-24T14:06:52Z</time>
      </trkpt>
      <trkpt lat="44.31107" lon="5.82374">
        <ele>558</ele>
        <time>2019-05-24T14:06:53Z</time>
      </trkpt>
      <trkpt lat="44.31107" lon="5.82383">
        <ele>558</ele>
        <time>2019-05-24T14:06:54Z</time>
      </trkpt>
      <trkpt lat="44.31106" lon="5.82392">
        <ele>558</ele>
        <time>2019-05-24T14:06:55Z</time>
      </trkpt>
      <trkpt lat="44.31106" lon="5.82401">
        <ele>558</ele>
        <time>2019-05-24T14:06:56Z</time>
      </trkpt>
      <trkpt lat="44.31105" lon="5.82409">
        <ele>558</ele>
        <time>2019-05-24T14:06:57Z</time>
      </trkpt>
      <trkpt lat="44.31104" lon="5.82417">
        <ele>558</ele>
        <time>2019-05-24T14:06:58Z</time>
      </trkpt>
      <trkpt lat="44.31103" lon="5.82424">
        <ele>558</ele>
        <time>2019-05-24T14:06:59Z</time>
      </trkpt>
      <trkpt lat="44.31099" lon="5.8243">
        <ele>558</ele>
        <time>2019-05-24T14:07:00Z</time>
      </trkpt>
      <trkpt lat="44.31095" lon="5.82436">
        <ele>558</ele>
        <time>2019-05-24T14:07:01Z</time>
      </trkpt>
      <trkpt lat="44.31093" lon="5.82443">
        <ele>558</ele>
        <time>2019-05-24T14:07:02Z</time>
      </trkpt>
      <trkpt lat="44.3109" lon="5.82449">
        <ele>558</ele>
        <time>2019-05-24T14:07:03Z</time>
      </trkpt>
      <trkpt lat="44.31086" lon="5.82455">
        <ele>558</ele>
        <time>2019-05-24T14:07:04Z</time>
      </trkpt>
      <trkpt lat="44.31083" lon="5.82462">
        <ele>558</ele>
        <time>2019-05-24T14:07:05Z</time>
      </trkpt>
      <trkpt lat="44.31081" lon="5.82469">
        <ele>558</ele>
        <time>2019-05-24T14:07:06Z</time>
      </trkpt>
      <trkpt lat="44.31078" lon="5.82478">
        <ele>558</ele>
        <time>2019-05-24T14:07:07Z</time>
      </trkpt>
      <trkpt lat="44.31076" lon="5.82486">
        <ele>558</ele>
        <time>2019-05-24T14:07:08Z</time>
      </trkpt>
      <trkpt lat="44.31075" lon="5.82496">
        <ele>558</ele>
        <time>2019-05-24T14:07:09Z</time>
      </trkpt>
      <trkpt lat="44.31075" lon="5.82506">
        <ele>558</ele>
        <time>2019-05-24T14:07:10Z</time>
      </trkpt>
      <trkpt lat="44.31077" lon="5.82514">
        <ele>558</ele>
        <time>2019-05-24T14:07:11Z</time>
      </trkpt>
      <trkpt lat="44.31081" lon="5.82522">
        <ele>558</ele>
        <time>2019-05-24T14:07:12Z</time>
      </trkpt>
      <trkpt lat="44.31085" lon="5.82528">
        <ele>558</ele>
        <time>2019-05-24T14:07:13Z</time>
      </trkpt>
      <trkpt lat="44.31091" lon="5.82533">
        <ele>558</ele>
        <time>2019-05-24T14:07:14Z</time>
      </trkpt>
      <trkpt lat="44.31097" lon="5.82538">
        <ele>558</ele>
        <time>2019-05-24T14:07:15Z</time>
      </trkpt>
      <trkpt lat="44.31104" lon="5.82542">
        <ele>558</ele>
        <time>2019-05-24T14:07:16Z</time>
      </trkpt>
      <trkpt lat="44.31111" lon="5.82546">
        <ele>558</ele>
        <time>2019-05-24T14:07:17Z</time>
      </trkpt>
      <trkpt lat="44.31118" lon="5.82549">
        <ele>558</ele>
        <time>2019-05-24T14:07:18Z</time>
      </trkpt>
      <trkpt lat="44.31124" lon="5.82553">
        <ele>558</ele>
        <time>2019-05-24T14:07:19Z</time>
      </trkpt>
      <trkpt lat="44.3113" lon="5.82557">
        <ele>558</ele>
        <time>2019-05-24T14:07:20Z</time>
      </trkpt>
      <trkpt lat="44.31137" lon="5.8256">
        <ele>558</ele>
        <time>2019-05-24T14:07:21Z</time>
      </trkpt>
      <trkpt lat="44.31143" lon="5.82563">
        <ele>558</ele>
        <time>2019-05-24T14:07:22Z</time>
      </trkpt>
      <trkpt lat="44.3115" lon="5.82567">
        <ele>558</ele>
        <time>2019-05-24T14:07:23Z</time>
      </trkpt>
      <trkpt lat="44.31156" lon="5.82571">
        <ele>558</ele>
        <time>2019-05-24T14:07:24Z</time>
      </trkpt>
      <trkpt lat="44.31163" lon="5.82575">
        <ele>558</ele>
        <time>2019-05-24T14:07:25Z</time>
      </trkpt>
      <trkpt lat="44.31171" lon="5.8258">
        <ele>558</ele>
        <time>2019-05-24T14:07:26Z</time>
      </trkpt>
      <trkpt lat="44.31177" lon="5.82583">
        <ele>558</ele>
        <time>2019-05-24T14:07:27Z</time>
      </trkpt>
      <trkpt lat="44.31184" lon="5.82587">
        <ele>558</ele>
        <time>2019-05-24T14:07:28Z</time>
      </trkpt>
      <trkpt lat="44.3119" lon="5.82591">
        <ele>558</ele>
        <time>2019-05-24T14:07:29Z</time>
      </trkpt>
      <trkpt lat="44.31196" lon="5.82594">
        <ele>558</ele>
        <time>2019-05-24T14:07:30Z</time>
      </trkpt>
      <trkpt lat="44.31202" lon="5.82597">
        <ele>558</ele>
        <time>2019-05-24T14:07:31Z</time>
      </trkpt>
      <trkpt lat="44.31209" lon="5.826">
        <ele>558</ele>
        <time>2019-05-24T14:07:32Z</time>
      </trkpt>
      <trkpt lat="44.31215" lon="5.82604">
        <ele>558</ele>
        <time>2019-05-24T14:07:33Z</time>
      </trkpt>
      <trkpt lat="44.31221" lon="5.82607">
        <ele>558</ele>
        <time>2019-05-24T14:07:34Z</time>
      </trkpt>
      <trkpt lat="44.31228" lon="5.82611">
        <ele>558</ele>
        <time>2019-05-24T14:07:35Z</time>
      </trkpt>
      <trkpt lat="44.31234" lon="5.82615">
        <ele>558</ele>
        <time>2019-05-24T14:07:36Z</time>
      </trkpt>
      <trkpt lat="44.31241" lon="5.82619">
        <ele>558</ele>
        <time>2019-05-24T14:07:37Z</time>
      </trkpt>
      <trkpt lat="44.31247" lon="5.82622">
        <ele>558</ele>
        <time>2019-05-24T14:07:38Z</time>
      </trkpt>
      <trkpt lat="44.31253" lon="5.82625">
        <ele>558</ele>
        <time>2019-05-24T14:07:39Z</time>
      </trkpt>
      <trkpt lat="44.31259" lon="5.82628">
        <ele>558</ele>
        <time>2019-05-24T14:07:40Z</time>
      </trkpt>
      <trkpt lat="44.31264" lon="5.82631">
        <ele>558</ele>
        <time>2019-05-24T14:07:41Z</time>
      </trkpt>
      <trkpt lat="44.3127" lon="5.82634">
        <ele>558</ele>
        <time>2019-05-24T14:07:42Z</time>
      </trkpt>
      <trkpt lat="44.31276" lon="5.82637">
        <ele>558</ele>
        <time>2019-05-24T14:07:43Z</time>
      </trkpt>
      <trkpt lat="44.3128" lon="5.8264">
        <ele>558</ele>
        <time>2019-05-24T14:07:44Z</time>
      </trkpt>
      <trkpt lat="44.31285" lon="5.82643">
        <ele>558</ele>
        <time>2019-05-24T14:07:45Z</time>
      </trkpt>
      <trkpt lat="44.3129" lon="5.82645">
        <ele>558</ele>
        <time>2019-05-24T14:07:46Z</time>
      </trkpt>
      <trkpt lat="44.31294" lon="5.82648">
        <ele>558</ele>
        <time>2019-05-24T14:07:47Z</time>
      </trkpt>
      <trkpt lat="44.31299" lon="5.82652">
        <ele>558</ele>
        <time>2019-05-24T14:07:48Z</time>
      </trkpt>
      <trkpt lat="44.31303" lon="5.82654">
        <ele>558</ele>
        <time>2019-05-24T14:07:49Z</time>
      </trkpt>
      <trkpt lat="44.31307" lon="5.82657">
        <ele>559</ele>
        <time>2019-05-24T14:07:50Z</time>
      </trkpt>
      <trkpt lat="44.31311" lon="5.82659">
        <ele>559</ele>
        <time>2019-05-24T14:07:51Z</time>
      </trkpt>
      <trkpt lat="44.31314" lon="5.82661">
        <ele>560</ele>
        <time>2019-05-24T14:07:52Z</time>
      </trkpt>
      <trkpt lat="44.31316" lon="5.82663">
        <ele>560</ele>
        <time>2019-05-24T14:07:53Z</time>
      </trkpt>
      <trkpt lat="44.31319" lon="5.82665">
        <ele>561</ele>
        <time>2019-05-24T14:07:54Z</time>
      </trkpt>
      <trkpt lat="44.31321" lon="5.82666">
        <ele>561</ele>
        <time>2019-05-24T14:07:55Z</time>
      </trkpt>
      <trkpt lat="44.31322" lon="5.82667">
        <ele>562</ele>
        <time>2019-05-24T14:07:56Z</time>
      </trkpt>
      <trkpt lat="44.31324" lon="5.82668">
        <ele>563</ele>
        <time>2019-05-24T14:07:57Z</time>
      </trkpt>
      <trkpt lat="44.31325" lon="5.82669">
        <ele>563</ele>
        <time>2019-05-24T14:07:58Z</time>
      </trkpt>
      <trkpt lat="44.31327" lon="5.82669">
        <ele>563</ele>
        <time>2019-05-24T14:07:59Z</time>
      </trkpt>
      <trkpt lat="44.3133" lon="5.8267">
        <ele>564</ele>
        <time>2019-05-24T14:08:00Z</time>
      </trkpt>
      <trkpt lat="44.31332" lon="5.82671">
        <ele>564</ele>
        <time>2019-05-24T14:08:01Z</time>
      </trkpt>
      <trkpt lat="44.31335" lon="5.82672">
        <ele>564</ele>
        <time>2019-05-24T14:08:02Z</time>
      </trkpt>
      <trkpt lat="44.31337" lon="5.82674">
        <ele>564</ele>
        <time>2019-05-24T14:08:03Z</time>
      </trkpt>
      <trkpt lat="44.31339" lon="5.82675">
        <ele>564</ele>
        <time>2019-05-24T14:08:04Z</time>
      </trkpt>
      <trkpt lat="44.31342" lon="5.82676">
        <ele>564</ele>
        <time>2019-05-24T14:08:05Z</time>
      </trkpt>
      <trkpt lat="44.31344" lon="5.82678">
        <ele>564</ele>
        <time>2019-05-24T14:08:06Z</time>
      </trkpt>
      <trkpt lat="44.31345" lon="5.82678">
        <ele>564</ele>
        <time>2019-05-24T14:08:07Z</time>
      </trkpt>
      <trkpt lat="44.31347" lon="5.82679">
        <ele>564</ele>
        <time>2019-05-24T14:08:08Z</time>
      </trkpt>
      <trkpt lat="44.31348" lon="5.82679">
        <ele>564</ele>
        <time>2019-05-24T14:08:22Z</time>
      </trkpt>
      <trkpt lat="44.31347" lon="5.8268">
        <ele>564</ele>
        <time>2019-05-24T14:08:53Z</time>
      </trkpt>
      <trkpt lat="44.31348" lon="5.82681">
        <ele>564</ele>
        <time>2019-05-24T14:09:00Z</time>
      </trkpt>
      <trkpt lat="44.31349" lon="5.82681">
        <ele>564</ele>
        <time>2019-05-24T14:09:03Z</time>
      </trkpt>
      <trkpt lat="44.31351" lon="5.82681">
        <ele>564</ele>
        <time>2019-05-24T14:09:06Z</time>
      </trkpt>
      <trkpt lat="44.3135" lon="5.82681">
        <ele>567</ele>
        <time>2019-05-24T14:09:19Z</time>
      </trkpt>
      <trkpt lat="44.31348" lon="5.82681">
        <ele>567</ele>
        <time>2019-05-24T14:09:21Z</time>
      </trkpt>
      <trkpt lat="44.3135" lon="5.82682">
        <ele>567</ele>
        <time>2019-05-24T14:09:25Z</time>
      </trkpt>
      <trkpt lat="44.31351" lon="5.82683">
        <ele>567</ele>
        <time>2019-05-24T14:09:28Z</time>
      </trkpt>
      <trkpt lat="44.31353" lon="5.82683">
        <ele>567</ele>
        <time>2019-05-24T14:09:31Z</time>
      </trkpt>
      <trkpt lat="44.31353" lon="5.82685">
        <ele>567</ele>
        <time>2019-05-24T14:09:33Z</time>
      </trkpt>
      <trkpt lat="44.31355" lon="5.82687">
        <ele>567</ele>
        <time>2019-05-24T14:09:35Z</time>
      </trkpt>
      <trkpt lat="44.31356" lon="5.82689">
        <ele>567</ele>
        <time>2019-05-24T14:09:36Z</time>
      </trkpt>
      <trkpt lat="44.31356" lon="5.82691">
        <ele>567</ele>
        <time>2019-05-24T14:09:37Z</time>
      </trkpt>
      <trkpt lat="44.31357" lon="5.82693">
        <ele>567</ele>
        <time>2019-05-24T14:09:38Z</time>
      </trkpt>
      <trkpt lat="44.31358" lon="5.82696">
        <ele>567</ele>
        <time>2019-05-24T14:09:39Z</time>
      </trkpt>
      <trkpt lat="44.31359" lon="5.827">
        <ele>567</ele>
        <time>2019-05-24T14:09:40Z</time>
      </trkpt>
      <trkpt lat="44.31362" lon="5.82704">
        <ele>567</ele>
        <time>2019-05-24T14:09:41Z</time>
      </trkpt>
      <trkpt lat="44.31364" lon="5.82707">
        <ele>567</ele>
        <time>2019-05-24T14:09:42Z</time>
      </trkpt>
      <trkpt lat="44.31368" lon="5.8271">
        <ele>567</ele>
        <time>2019-05-24T14:09:43Z</time>
      </trkpt>
      <trkpt lat="44.31371" lon="5.82714">
        <ele>567</ele>
        <time>2019-05-24T14:09:44Z</time>
      </trkpt>
      <trkpt lat="44.31373" lon="5.82719">
        <ele>567</ele>
        <time>2019-05-24T14:09:45Z</time>
      </trkpt>
      <trkpt lat="44.31374" lon="5.82725">
        <ele>567</ele>
        <time>2019-05-24T14:09:46Z</time>
      </trkpt>
      <trkpt lat="44.31375" lon="5.82732">
        <ele>567</ele>
        <time>2019-05-24T14:09:47Z</time>
      </trkpt>
      <trkpt lat="44.31375" lon="5.82738">
        <ele>567</ele>
        <time>2019-05-24T14:09:48Z</time>
      </trkpt>
      <trkpt lat="44.31375" lon="5.82745">
        <ele>567</ele>
        <time>2019-05-24T14:09:49Z</time>
      </trkpt>
      <trkpt lat="44.31375" lon="5.82752">
        <ele>567</ele>
        <time>2019-05-24T14:09:50Z</time>
      </trkpt>
      <trkpt lat="44.31375" lon="5.82759">
        <ele>567</ele>
        <time>2019-05-24T14:09:51Z</time>
      </trkpt>
      <trkpt lat="44.31376" lon="5.82765">
        <ele>567</ele>
        <time>2019-05-24T14:09:52Z</time>
      </trkpt>
      <trkpt lat="44.31375" lon="5.82772">
        <ele>567</ele>
        <time>2019-05-24T14:09:53Z</time>
      </trkpt>
      <trkpt lat="44.31375" lon="5.82779">
        <ele>567</ele>
        <time>2019-05-24T14:09:54Z</time>
      </trkpt>
      <trkpt lat="44.31376" lon="5.82785">
        <ele>567</ele>
        <time>2019-05-24T14:09:55Z</time>
      </trkpt>
      <trkpt lat="44.31376" lon="5.82791">
        <ele>567</ele>
        <time>2019-05-24T14:09:56Z</time>
      </trkpt>
      <trkpt lat="44.31377" lon="5.82798">
        <ele>567</ele>
        <time>2019-05-24T14:09:57Z</time>
      </trkpt>
      <trkpt lat="44.31376" lon="5.82804">
        <ele>567</ele>
        <time>2019-05-24T14:09:58Z</time>
      </trkpt>
      <trkpt lat="44.31375" lon="5.82811">
        <ele>567</ele>
        <time>2019-05-24T14:09:59Z</time>
      </trkpt>
      <trkpt lat="44.31374" lon="5.82817">
        <ele>567</ele>
        <time>2019-05-24T14:10:00Z</time>
      </trkpt>
      <trkpt lat="44.31373" lon="5.82823">
        <ele>567</ele>
        <time>2019-05-24T14:10:01Z</time>
      </trkpt>
      <trkpt lat="44.31372" lon="5.8283">
        <ele>567</ele>
        <time>2019-05-24T14:10:02Z</time>
      </trkpt>
      <trkpt lat="44.31371" lon="5.82836">
        <ele>567</ele>
        <time>2019-05-24T14:10:03Z</time>
      </trkpt>
      <trkpt lat="44.3137" lon="5.82843">
        <ele>567</ele>
        <time>2019-05-24T14:10:04Z</time>
      </trkpt>
      <trkpt lat="44.31369" lon="5.8285">
        <ele>567</ele>
        <time>2019-05-24T14:10:05Z</time>
      </trkpt>
      <trkpt lat="44.31368" lon="5.82857">
        <ele>567</ele>
        <time>2019-05-24T14:10:06Z</time>
      </trkpt>
      <trkpt lat="44.31368" lon="5.82863">
        <ele>567</ele>
        <time>2019-05-24T14:10:07Z</time>
      </trkpt>
      <trkpt lat="44.31367" lon="5.8287">
        <ele>567</ele>
        <time>2019-05-24T14:10:08Z</time>
      </trkpt>
      <trkpt lat="44.31366" lon="5.82877">
        <ele>567</ele>
        <time>2019-05-24T14:10:09Z</time>
      </trkpt>
      <trkpt lat="44.31366" lon="5.82883">
        <ele>567</ele>
        <time>2019-05-24T14:10:10Z</time>
      </trkpt>
      <trkpt lat="44.31366" lon="5.8289">
        <ele>567</ele>
        <time>2019-05-24T14:10:11Z</time>
      </trkpt>
      <trkpt lat="44.31366" lon="5.82896">
        <ele>567</ele>
        <time>2019-05-24T14:10:12Z</time>
      </trkpt>
      <trkpt lat="44.31364" lon="5.82903">
        <ele>567</ele>
        <time>2019-05-24T14:10:13Z</time>
      </trkpt>
      <trkpt lat="44.31363" lon="5.8291">
        <ele>567</ele>
        <time>2019-05-24T14:10:14Z</time>
      </trkpt>
      <trkpt lat="44.31363" lon="5.82917">
        <ele>567</ele>
        <time>2019-05-24T14:10:15Z</time>
      </trkpt>
      <trkpt lat="44.31362" lon="5.82923">
        <ele>567</ele>
        <time>2019-05-24T14:10:16Z</time>
      </trkpt>
      <trkpt lat="44.31361" lon="5.8293">
        <ele>567</ele>
        <time>2019-05-24T14:10:17Z</time>
      </trkpt>
      <trkpt lat="44.31361" lon="5.82937">
        <ele>567</ele>
        <time>2019-05-24T14:10:18Z</time>
      </trkpt>
      <trkpt lat="44.31359" lon="5.82943">
        <ele>567</ele>
        <time>2019-05-24T14:10:19Z</time>
      </trkpt>
      <trkpt lat="44.31358" lon="5.8295">
        <ele>567</ele>
        <time>2019-05-24T14:10:20Z</time>
      </trkpt>
      <trkpt lat="44.31358" lon="5.82955">
        <ele>567</ele>
        <time>2019-05-24T14:10:21Z</time>
      </trkpt>
      <trkpt lat="44.31358" lon="5.82962">
        <ele>567</ele>
        <time>2019-05-24T14:10:22Z</time>
      </trkpt>
      <trkpt lat="44.31357" lon="5.82968">
        <ele>567</ele>
        <time>2019-05-24T14:10:23Z</time>
      </trkpt>
      <trkpt lat="44.31357" lon="5.82975">
        <ele>567</ele>
        <time>2019-05-24T14:10:24Z</time>
      </trkpt>
      <trkpt lat="44.31356" lon="5.82982">
        <ele>567</ele>
        <time>2019-05-24T14:10:25Z</time>
      </trkpt>
      <trkpt lat="44.31355" lon="5.82988">
        <ele>567</ele>
        <time>2019-05-24T14:10:26Z</time>
      </trkpt>
      <trkpt lat="44.31353" lon="5.82994">
        <ele>567</ele>
        <time>2019-05-24T14:10:27Z</time>
      </trkpt>
      <trkpt lat="44.31352" lon="5.83">
        <ele>567</ele>
        <time>2019-05-24T14:10:28Z</time>
      </trkpt>
      <trkpt lat="44.31351" lon="5.83006">
        <ele>567</ele>
        <time>2019-05-24T14:10:29Z</time>
      </trkpt>
      <trkpt lat="44.3135" lon="5.83012">
        <ele>567</ele>
        <time>2019-05-24T14:10:30Z</time>
      </trkpt>
      <trkpt lat="44.3135" lon="5.83018">
        <ele>567</ele>
        <time>2019-05-24T14:10:31Z</time>
      </trkpt>
      <trkpt lat="44.31348" lon="5.83024">
        <ele>567</ele>
        <time>2019-05-24T14:10:32Z</time>
      </trkpt>
      <trkpt lat="44.31348" lon="5.83029">
        <ele>567</ele>
        <time>2019-05-24T14:10:33Z</time>
      </trkpt>
      <trkpt lat="44.31348" lon="5.83035">
        <ele>567</ele>
        <time>2019-05-24T14:10:34Z</time>
      </trkpt>
      <trkpt lat="44.31347" lon="5.83041">
        <ele>567</ele>
        <time>2019-05-24T14:10:35Z</time>
      </trkpt>
      <trkpt lat="44.31346" lon="5.83047">
        <ele>567</ele>
        <time>2019-05-24T14:10:36Z</time>
      </trkpt>
      <trkpt lat="44.31345" lon="5.83053">
        <ele>567</ele>
        <time>2019-05-24T14:10:37Z</time>
      </trkpt>
      <trkpt lat="44.31345" lon="5.83059">
        <ele>567</ele>
        <time>2019-05-24T14:10:38Z</time>
      </trkpt>
      <trkpt lat="44.31344" lon="5.83066">
        <ele>567</ele>
        <time>2019-05-24T14:10:39Z</time>
      </trkpt>
      <trkpt lat="44.31343" lon="5.83073">
        <ele>567</ele>
        <time>2019-05-24T14:10:40Z</time>
      </trkpt>
      <trkpt lat="44.31343" lon="5.83079">
        <ele>567</ele>
        <time>2019-05-24T14:10:41Z</time>
      </trkpt>
      <trkpt lat="44.31343" lon="5.83085">
        <ele>567</ele>
        <time>2019-05-24T14:10:42Z</time>
      </trkpt>
      <trkpt lat="44.31343" lon="5.8309">
        <ele>567</ele>
        <time>2019-05-24T14:10:43Z</time>
      </trkpt>
      <trkpt lat="44.31343" lon="5.83096">
        <ele>567</ele>
        <time>2019-05-24T14:10:44Z</time>
      </trkpt>
      <trkpt lat="44.31344" lon="5.83102">
        <ele>567</ele>
        <time>2019-05-24T14:10:45Z</time>
      </trkpt>
      <trkpt lat="44.31347" lon="5.83105">
        <ele>567</ele>
        <time>2019-05-24T14:10:46Z</time>
      </trkpt>
      <trkpt lat="44.31351" lon="5.83106">
        <ele>567</ele>
        <time>2019-05-24T14:10:47Z</time>
      </trkpt>
      <trkpt lat="44.31355" lon="5.83105">
        <ele>567</ele>
        <time>2019-05-24T14:10:48Z</time>
      </trkpt>
      <trkpt lat="44.31357" lon="5.83102">
        <ele>567</ele>
        <time>2019-05-24T14:10:49Z</time>
      </trkpt>
      <trkpt lat="44.31359" lon="5.83098">
        <ele>567</ele>
        <time>2019-05-24T14:10:50Z</time>
      </trkpt>
      <trkpt lat="44.31361" lon="5.83093">
        <ele>567</ele>
        <time>2019-05-24T14:10:51Z</time>
      </trkpt>
      <trkpt lat="44.31362" lon="5.83086">
        <ele>567</ele>
        <time>2019-05-24T14:10:52Z</time>
      </trkpt>
      <trkpt lat="44.31364" lon="5.83081">
        <ele>567</ele>
        <time>2019-05-24T14:10:53Z</time>
      </trkpt>
      <trkpt lat="44.31365" lon="5.83076">
        <ele>567</ele>
        <time>2019-05-24T14:10:54Z</time>
      </trkpt>
      <trkpt lat="44.31367" lon="5.83071">
        <ele>567</ele>
        <time>2019-05-24T14:10:55Z</time>
      </trkpt>
      <trkpt lat="44.31369" lon="5.83067">
        <ele>567</ele>
        <time>2019-05-24T14:10:56Z</time>
      </trkpt>
      <trkpt lat="44.31371" lon="5.83063">
        <ele>567</ele>
        <time>2019-05-24T14:10:57Z</time>
      </trkpt>
      <trkpt lat="44.31373" lon="5.83059">
        <ele>567</ele>
        <time>2019-05-24T14:10:58Z</time>
      </trkpt>
      <trkpt lat="44.31375" lon="5.83054">
        <ele>567</ele>
        <time>2019-05-24T14:10:59Z</time>
      </trkpt>
      <trkpt lat="44.31378" lon="5.8305">
        <ele>567</ele>
        <time>2019-05-24T14:11:00Z</time>
      </trkpt>
      <trkpt lat="44.31381" lon="5.83045">
        <ele>567</ele>
        <time>2019-05-24T14:11:01Z</time>
      </trkpt>
      <trkpt lat="44.31384" lon="5.83041">
        <ele>567</ele>
        <time>2019-05-24T14:11:02Z</time>
      </trkpt>
      <trkpt lat="44.31387" lon="5.83036">
        <ele>567</ele>
        <time>2019-05-24T14:11:03Z</time>
      </trkpt>
      <trkpt lat="44.31391" lon="5.83031">
        <ele>567</ele>
        <time>2019-05-24T14:11:04Z</time>
      </trkpt>
      <trkpt lat="44.31395" lon="5.83026">
        <ele>567</ele>
        <time>2019-05-24T14:11:05Z</time>
      </trkpt>
      <trkpt lat="44.31398" lon="5.83021">
        <ele>567</ele>
        <time>2019-05-24T14:11:06Z</time>
      </trkpt>
      <trkpt lat="44.31402" lon="5.83016">
        <ele>567</ele>
        <time>2019-05-24T14:11:07Z</time>
      </trkpt>
      <trkpt lat="44.31406" lon="5.83011">
        <ele>567</ele>
        <time>2019-05-24T14:11:08Z</time>
      </trkpt>
      <trkpt lat="44.31409" lon="5.83006">
        <ele>567</ele>
        <time>2019-05-24T14:11:09Z</time>
      </trkpt>
      <trkpt lat="44.31413" lon="5.83001">
        <ele>567</ele>
        <time>2019-05-24T14:11:10Z</time>
      </trkpt>
      <trkpt lat="44.31416" lon="5.82996">
        <ele>567</ele>
        <time>2019-05-24T14:11:11Z</time>
      </trkpt>
      <trkpt lat="44.3142" lon="5.82991">
        <ele>567</ele>
        <time>2019-05-24T14:11:12Z</time>
      </trkpt>
      <trkpt lat="44.31423" lon="5.82985">
        <ele>567</ele>
        <time>2019-05-24T14:11:13Z</time>
      </trkpt>
      <trkpt lat="44.31427" lon="5.8298">
        <ele>567</ele>
        <time>2019-05-24T14:11:14Z</time>
      </trkpt>
      <trkpt lat="44.3143" lon="5.82975">
        <ele>567</ele>
        <time>2019-05-24T14:11:15Z</time>
      </trkpt>
      <trkpt lat="44.31433" lon="5.8297">
        <ele>567</ele>
        <time>2019-05-24T14:11:16Z</time>
      </trkpt>
      <trkpt lat="44.31437" lon="5.82965">
        <ele>567</ele>
        <time>2019-05-24T14:11:17Z</time>
      </trkpt>
      <trkpt lat="44.3144" lon="5.8296">
        <ele>567</ele>
        <time>2019-05-24T14:11:18Z</time>
      </trkpt>
      <trkpt lat="44.31443" lon="5.82955">
        <ele>567</ele>
        <time>2019-05-24T14:11:19Z</time>
      </trkpt>
      <trkpt lat="44.31446" lon="5.8295">
        <ele>567</ele>
        <time>2019-05-24T14:11:20Z</time>
      </trkpt>
      <trkpt lat="44.31449" lon="5.82945">
        <ele>567</ele>
        <time>2019-05-24T14:11:21Z</time>
      </trkpt>
      <trkpt lat="44.31453" lon="5.82941">
        <ele>567</ele>
        <time>2019-05-24T14:11:22Z</time>
      </trkpt>
      <trkpt lat="44.31455" lon="5.82936">
        <ele>568</ele>
        <time>2019-05-24T14:11:23Z</time>
      </trkpt>
      <trkpt lat="44.31459" lon="5.82931">
        <ele>568</ele>
        <time>2019-05-24T14:11:24Z</time>
      </trkpt>
      <trkpt lat="44.31461" lon="5.82927">
        <ele>568</ele>
        <time>2019-05-24T14:11:25Z</time>
      </trkpt>
      <trkpt lat="44.31464" lon="5.82922">
        <ele>568</ele>
        <time>2019-05-24T14:11:26Z</time>
      </trkpt>
      <trkpt lat="44.31468" lon="5.82917">
        <ele>569</ele>
        <time>2019-05-24T14:11:27Z</time>
      </trkpt>
      <trkpt lat="44.31471" lon="5.82913">
        <ele>569</ele>
        <time>2019-05-24T14:11:28Z</time>
      </trkpt>
      <trkpt lat="44.31474" lon="5.82909">
        <ele>569</ele>
        <time>2019-05-24T14:11:29Z</time>
      </trkpt>
      <trkpt lat="44.31477" lon="5.82904">
        <ele>569</ele>
        <time>2019-05-24T14:11:30Z</time>
      </trkpt>
      <trkpt lat="44.3148" lon="5.829">
        <ele>569</ele>
        <time>2019-05-24T14:11:31Z</time>
      </trkpt>
      <trkpt lat="44.31482" lon="5.82895">
        <ele>569</ele>
        <time>2019-05-24T14:11:32Z</time>
      </trkpt>
      <trkpt lat="44.31485" lon="5.82891">
        <ele>569</ele>
        <time>2019-05-24T14:11:33Z</time>
      </trkpt>
      <trkpt lat="44.31489" lon="5.82886">
        <ele>569</ele>
        <time>2019-05-24T14:11:34Z</time>
      </trkpt>
      <trkpt lat="44.31492" lon="5.82881">
        <ele>569</ele>
        <time>2019-05-24T14:11:35Z</time>
      </trkpt>
      <trkpt lat="44.31495" lon="5.82876">
        <ele>570</ele>
        <time>2019-05-24T14:11:36Z</time>
      </trkpt>
      <trkpt lat="44.315" lon="5.82872">
        <ele>570</ele>
        <time>2019-05-24T14:11:37Z</time>
      </trkpt>
      <trkpt lat="44.31504" lon="5.8287">
        <ele>570</ele>
        <time>2019-05-24T14:11:38Z</time>
      </trkpt>
      <trkpt lat="44.31508" lon="5.8287">
        <ele>570</ele>
        <time>2019-05-24T14:11:39Z</time>
      </trkpt>
      <trkpt lat="44.31512" lon="5.82874">
        <ele>570</ele>
        <time>2019-05-24T14:11:40Z</time>
      </trkpt>
      <trkpt lat="44.31516" lon="5.82877">
        <ele>570</ele>
        <time>2019-05-24T14:11:41Z</time>
      </trkpt>
      <trkpt lat="44.31519" lon="5.82881">
        <ele>570</ele>
        <time>2019-05-24T14:11:42Z</time>
      </trkpt>
      <trkpt lat="44.31522" lon="5.82885">
        <ele>570</ele>
        <time>2019-05-24T14:11:43Z</time>
      </trkpt>
      <trkpt lat="44.31526" lon="5.82889">
        <ele>570</ele>
        <time>2019-05-24T14:11:44Z</time>
      </trkpt>
      <trkpt lat="44.31529" lon="5.82893">
        <ele>570</ele>
        <time>2019-05-24T14:11:45Z</time>
      </trkpt>
      <trkpt lat="44.31532" lon="5.82896">
        <ele>570</ele>
        <time>2019-05-24T14:11:46Z</time>
      </trkpt>
      <trkpt lat="44.31536" lon="5.82899">
        <ele>570</ele>
        <time>2019-05-24T14:11:47Z</time>
      </trkpt>
      <trkpt lat="44.31539" lon="5.82902">
        <ele>570</ele>
        <time>2019-05-24T14:11:48Z</time>
      </trkpt>
      <trkpt lat="44.31542" lon="5.82905">
        <ele>570</ele>
        <time>2019-05-24T14:11:49Z</time>
      </trkpt>
      <trkpt lat="44.31545" lon="5.82908">
        <ele>570</ele>
        <time>2019-05-24T14:11:50Z</time>
      </trkpt>
      <trkpt lat="44.31548" lon="5.8291">
        <ele>570</ele>
        <time>2019-05-24T14:11:51Z</time>
      </trkpt>
      <trkpt lat="44.31552" lon="5.82912">
        <ele>570</ele>
        <time>2019-05-24T14:11:52Z</time>
      </trkpt>
      <trkpt lat="44.31555" lon="5.82914">
        <ele>570</ele>
        <time>2019-05-24T14:11:53Z</time>
      </trkpt>
      <trkpt lat="44.31558" lon="5.82916">
        <ele>570</ele>
        <time>2019-05-24T14:11:54Z</time>
      </trkpt>
      <trkpt lat="44.31561" lon="5.82918">
        <ele>569</ele>
        <time>2019-05-24T14:11:55Z</time>
      </trkpt>
      <trkpt lat="44.31564" lon="5.82921">
        <ele>569</ele>
        <time>2019-05-24T14:11:56Z</time>
      </trkpt>
      <trkpt lat="44.31568" lon="5.82924">
        <ele>568</ele>
        <time>2019-05-24T14:11:57Z</time>
      </trkpt>
      <trkpt lat="44.31572" lon="5.82926">
        <ele>568</ele>
        <time>2019-05-24T14:11:58Z</time>
      </trkpt>
      <trkpt lat="44.31574" lon="5.82928">
        <ele>568</ele>
        <time>2019-05-24T14:11:59Z</time>
      </trkpt>
      <trkpt lat="44.31577" lon="5.8293">
        <ele>567</ele>
        <time>2019-05-24T14:12:00Z</time>
      </trkpt>
      <trkpt lat="44.31579" lon="5.82932">
        <ele>567</ele>
        <time>2019-05-24T14:12:01Z</time>
      </trkpt>
      <trkpt lat="44.31581" lon="5.82934">
        <ele>567</ele>
        <time>2019-05-24T14:12:02Z</time>
      </trkpt>
      <trkpt lat="44.31583" lon="5.82936">
        <ele>567</ele>
        <time>2019-05-24T14:12:03Z</time>
      </trkpt>
      <trkpt lat="44.31585" lon="5.82938">
        <ele>567</ele>
        <time>2019-05-24T14:12:04Z</time>
      </trkpt>
      <trkpt lat="44.31588" lon="5.82939">
        <ele>567</ele>
        <time>2019-05-24T14:12:05Z</time>
      </trkpt>
      <trkpt lat="44.3159" lon="5.82941">
        <ele>567</ele>
        <time>2019-05-24T14:12:06Z</time>
      </trkpt>
      <trkpt lat="44.31592" lon="5.82942">
        <ele>567</ele>
        <time>2019-05-24T14:12:07Z</time>
      </trkpt>
      <trkpt lat="44.31594" lon="5.82944">
        <ele>567</ele>
        <time>2019-05-24T14:12:08Z</time>
      </trkpt>
      <trkpt lat="44.31596" lon="5.82946">
        <ele>567</ele>
        <time>2019-05-24T14:12:09Z</time>
      </trkpt>
      <trkpt lat="44.31599" lon="5.82949">
        <ele>567</ele>
        <time>2019-05-24T14:12:10Z</time>
      </trkpt>
      <trkpt lat="44.31601" lon="5.82953">
        <ele>567</ele>
        <time>2019-05-24T14:12:11Z</time>
      </trkpt>
      <trkpt lat="44.31603" lon="5.82957">
        <ele>567</ele>
        <time>2019-05-24T14:12:12Z</time>
      </trkpt>
      <trkpt lat="44.31604" lon="5.82961">
        <ele>567</ele>
        <time>2019-05-24T14:12:13Z</time>
      </trkpt>
      <trkpt lat="44.31605" lon="5.82964">
        <ele>567</ele>
        <time>2019-05-24T14:12:14Z</time>
      </trkpt>
      <trkpt lat="44.31605" lon="5.82967">
        <ele>567</ele>
        <time>2019-05-24T14:12:15Z</time>
      </trkpt>
      <trkpt lat="44.31604" lon="5.82968">
        <ele>567</ele>
        <time>2019-05-24T14:12:17Z</time>
      </trkpt>
      <trkpt lat="44.31602" lon="5.82969">
        <ele>567</ele>
        <time>2019-05-24T14:12:19Z</time>
      </trkpt>
      <trkpt lat="44.31601" lon="5.82968">
        <ele>568</ele>
        <time>2019-05-24T14:12:22Z</time>
      </trkpt>
      <trkpt lat="44.31599" lon="5.82968">
        <ele>571</ele>
        <time>2019-05-24T14:12:27Z</time>
      </trkpt>
      <trkpt lat="44.31598" lon="5.82967">
        <ele>572</ele>
        <time>2019-05-24T14:12:28Z</time>
      </trkpt>
      <trkpt lat="44.31597" lon="5.82968">
        <ele>573</ele>
        <time>2019-05-24T14:12:29Z</time>
      </trkpt>
      <trkpt lat="44.31598" lon="5.82969">
        <ele>576</ele>
        <time>2019-05-24T14:12:35Z</time>
      </trkpt>
    </trkseg>
  </trk>
</gpx>